<?xml version="1.0" encoding="UTF-8" standalone="no" ?>
<gpx xmlns="http://www.topografix.com/GPX/1/1" xmlns:xsi="http://www.w3.org/2001/XMLSchema-instance" xsi:schemaLocation="http://www.topografix.com/GPX/1/1 http://www.topografix.com/GPX/1/1/gpx.xsd" version="1.1" creator="VisuGPX - https://www.visugpx.com">
  <metadata>
    <name>Haldern-Budapest - Day 1: Haldern-Kaarst</name>
  </metadata>
  <trk>
    <name><![CDATA[Haldern-Budapest - Day 1: Haldern-Kaarst]]></name>
    <extensions>
      <line xmlns="http://www.topografix.com/GPX/gpx_style/0/2">
        <color>0000FF</color>
        <width>4</width>
      </line>
    </extensions>
    <trkseg>
      <trkpt lat="51.77368" lon="6.46373">
        <ele>68.809711</ele>
        <time>2023-06-26T06:54:31.446Z</time>
      </trkpt>
      <trkpt lat="51.77359" lon="6.46377">
        <ele>68.809711</ele>
        <time>2023-06-26T06:55:29.232Z</time>
      </trkpt>
      <trkpt lat="51.77355" lon="6.4639">
        <ele>68.809711</ele>
        <time>2023-06-26T06:55:33.233Z</time>
      </trkpt>
      <trkpt lat="51.77349" lon="6.46407">
        <ele>68.809711</ele>
        <time>2023-06-26T06:55:37.229Z</time>
      </trkpt>
      <trkpt lat="51.77342" lon="6.46419">
        <ele>68.809711</ele>
        <time>2023-06-26T06:55:41.238Z</time>
      </trkpt>
      <trkpt lat="51.77341" lon="6.46435">
        <ele>68.809711</ele>
        <time>2023-06-26T06:58:47.237Z</time>
      </trkpt>
      <trkpt lat="51.77335" lon="6.4645">
        <ele>68.809711</ele>
        <time>2023-06-26T06:58:51.231Z</time>
      </trkpt>
      <trkpt lat="51.77331" lon="6.46466">
        <ele>68.809711</ele>
        <time>2023-06-26T06:58:54.220Z</time>
      </trkpt>
      <trkpt lat="51.77325" lon="6.46482">
        <ele>68.809711</ele>
        <time>2023-06-26T06:58:57.253Z</time>
      </trkpt>
      <trkpt lat="51.77322" lon="6.46501">
        <ele>68.739184</ele>
        <time>2023-06-26T06:59:00.206Z</time>
      </trkpt>
      <trkpt lat="51.77319" lon="6.46516">
        <ele>68.636902</ele>
        <time>2023-06-26T06:59:02.225Z</time>
      </trkpt>
      <trkpt lat="51.77317" lon="6.4653">
        <ele>68.53311</ele>
        <time>2023-06-26T06:59:04.219Z</time>
      </trkpt>
      <trkpt lat="51.77314" lon="6.46545">
        <ele>68.430022</ele>
        <time>2023-06-26T06:59:06.222Z</time>
      </trkpt>
      <trkpt lat="51.77313" lon="6.4656">
        <ele>68.323284</ele>
        <time>2023-06-26T06:59:08.224Z</time>
      </trkpt>
      <trkpt lat="51.77312" lon="6.46577">
        <ele>68.208807</ele>
        <time>2023-06-26T06:59:10.231Z</time>
      </trkpt>
      <trkpt lat="51.7731" lon="6.46594">
        <ele>68.088935</ele>
        <time>2023-06-26T06:59:12.224Z</time>
      </trkpt>
      <trkpt lat="51.77309" lon="6.46611">
        <ele>67.975844</ele>
        <time>2023-06-26T06:59:14.222Z</time>
      </trkpt>
      <trkpt lat="51.77309" lon="6.46627">
        <ele>67.861711</ele>
        <time>2023-06-26T06:59:16.228Z</time>
      </trkpt>
      <trkpt lat="51.77309" lon="6.46645">
        <ele>67.741949</ele>
        <time>2023-06-26T06:59:18.229Z</time>
      </trkpt>
      <trkpt lat="51.77309" lon="6.46662">
        <ele>67.626449</ele>
        <time>2023-06-26T06:59:20.232Z</time>
      </trkpt>
      <trkpt lat="51.77306" lon="6.46679">
        <ele>67.503725</ele>
        <time>2023-06-26T06:59:22.214Z</time>
      </trkpt>
      <trkpt lat="51.77303" lon="6.46695">
        <ele>67.388833</ele>
        <time>2023-06-26T06:59:24.226Z</time>
      </trkpt>
      <trkpt lat="51.77303" lon="6.46714">
        <ele>67.261733</ele>
        <time>2023-06-26T06:59:26.228Z</time>
      </trkpt>
      <trkpt lat="51.77303" lon="6.46732">
        <ele>67.137327</ele>
        <time>2023-06-26T06:59:28.212Z</time>
      </trkpt>
      <trkpt lat="51.77302" lon="6.46749">
        <ele>67.019545</ele>
        <time>2023-06-26T06:59:30.227Z</time>
      </trkpt>
      <trkpt lat="51.77301" lon="6.46767">
        <ele>66.90003</ele>
        <time>2023-06-26T06:59:32.223Z</time>
      </trkpt>
      <trkpt lat="51.773" lon="6.46785">
        <ele>66.82605</ele>
        <time>2023-06-26T06:59:34.229Z</time>
      </trkpt>
      <trkpt lat="51.77298" lon="6.46803">
        <ele>66.833224</ele>
        <time>2023-06-26T06:59:36.227Z</time>
      </trkpt>
      <trkpt lat="51.77296" lon="6.46821">
        <ele>66.840232</ele>
        <time>2023-06-26T06:59:38.205Z</time>
      </trkpt>
      <trkpt lat="51.77293" lon="6.46838">
        <ele>66.84685</ele>
        <time>2023-06-26T06:59:40.221Z</time>
      </trkpt>
      <trkpt lat="51.7729" lon="6.46856">
        <ele>66.854034</ele>
        <time>2023-06-26T06:59:42.212Z</time>
      </trkpt>
      <trkpt lat="51.77287" lon="6.46873">
        <ele>66.860814</ele>
        <time>2023-06-26T06:59:44.234Z</time>
      </trkpt>
      <trkpt lat="51.77283" lon="6.4689">
        <ele>66.86756</ele>
        <time>2023-06-26T06:59:46.209Z</time>
      </trkpt>
      <trkpt lat="51.7728" lon="6.46908">
        <ele>66.874631</ele>
        <time>2023-06-26T06:59:48.229Z</time>
      </trkpt>
      <trkpt lat="51.77275" lon="6.46925">
        <ele>66.881574</ele>
        <time>2023-06-26T06:59:50.240Z</time>
      </trkpt>
      <trkpt lat="51.77271" lon="6.46942">
        <ele>66.88866</ele>
        <time>2023-06-26T06:59:52.335Z</time>
      </trkpt>
      <trkpt lat="51.77266" lon="6.46959">
        <ele>66.895755</ele>
        <time>2023-06-26T06:59:54.225Z</time>
      </trkpt>
      <trkpt lat="51.77261" lon="6.46975">
        <ele>66.902713</ele>
        <time>2023-06-26T06:59:56.365Z</time>
      </trkpt>
      <trkpt lat="51.77255" lon="6.46991">
        <ele>66.909741</ele>
        <time>2023-06-26T06:59:58.227Z</time>
      </trkpt>
      <trkpt lat="51.7725" lon="6.47005">
        <ele>66.916055</ele>
        <time>2023-06-26T07:00:00.228Z</time>
      </trkpt>
      <trkpt lat="51.77244" lon="6.4702">
        <ele>66.922798</ele>
        <time>2023-06-26T07:00:02.223Z</time>
      </trkpt>
      <trkpt lat="51.77237" lon="6.47034">
        <ele>66.929638</ele>
        <time>2023-06-26T07:00:04.219Z</time>
      </trkpt>
      <trkpt lat="51.77231" lon="6.47049">
        <ele>66.972677</ele>
        <time>2023-06-26T07:00:06.235Z</time>
      </trkpt>
      <trkpt lat="51.77224" lon="6.47061">
        <ele>67.081131</ele>
        <time>2023-06-26T07:00:08.247Z</time>
      </trkpt>
      <trkpt lat="51.77218" lon="6.47075">
        <ele>67.192863</ele>
        <time>2023-06-26T07:00:10.224Z</time>
      </trkpt>
      <trkpt lat="51.77211" lon="6.47087">
        <ele>67.30143</ele>
        <time>2023-06-26T07:00:12.235Z</time>
      </trkpt>
      <trkpt lat="51.77203" lon="6.471">
        <ele>67.417907</ele>
        <time>2023-06-26T07:00:14.303Z</time>
      </trkpt>
      <trkpt lat="51.77197" lon="6.47113">
        <ele>67.529723</ele>
        <time>2023-06-26T07:00:16.252Z</time>
      </trkpt>
      <trkpt lat="51.77189" lon="6.47125">
        <ele>67.637766</ele>
        <time>2023-06-26T07:00:18.241Z</time>
      </trkpt>
      <trkpt lat="51.77182" lon="6.47135">
        <ele>67.73449</ele>
        <time>2023-06-26T07:00:20.232Z</time>
      </trkpt>
      <trkpt lat="51.77176" lon="6.47146">
        <ele>67.832762</ele>
        <time>2023-06-26T07:00:22.244Z</time>
      </trkpt>
      <trkpt lat="51.77169" lon="6.47157">
        <ele>67.938136</ele>
        <time>2023-06-26T07:00:24.231Z</time>
      </trkpt>
      <trkpt lat="51.77162" lon="6.47167">
        <ele>68.035725</ele>
        <time>2023-06-26T07:00:26.220Z</time>
      </trkpt>
      <trkpt lat="51.77155" lon="6.47179">
        <ele>68.140286</ele>
        <time>2023-06-26T07:00:28.211Z</time>
      </trkpt>
      <trkpt lat="51.77148" lon="6.4719">
        <ele>68.24598</ele>
        <time>2023-06-26T07:00:30.250Z</time>
      </trkpt>
      <trkpt lat="51.77141" lon="6.47201">
        <ele>68.347041</ele>
        <time>2023-06-26T07:00:32.226Z</time>
      </trkpt>
      <trkpt lat="51.77134" lon="6.47211">
        <ele>68.449096</ele>
        <time>2023-06-26T07:00:34.224Z</time>
      </trkpt>
      <trkpt lat="51.77127" lon="6.47223">
        <ele>68.555522</ele>
        <time>2023-06-26T07:00:36.228Z</time>
      </trkpt>
      <trkpt lat="51.7712" lon="6.47235">
        <ele>68.661447</ele>
        <time>2023-06-26T07:00:38.220Z</time>
      </trkpt>
      <trkpt lat="51.77113" lon="6.47246">
        <ele>68.770928</ele>
        <time>2023-06-26T07:00:40.228Z</time>
      </trkpt>
      <trkpt lat="51.77105" lon="6.47257">
        <ele>68.883546</ele>
        <time>2023-06-26T07:00:42.236Z</time>
      </trkpt>
      <trkpt lat="51.77098" lon="6.47268">
        <ele>69.005356</ele>
        <time>2023-06-26T07:00:44.242Z</time>
      </trkpt>
      <trkpt lat="51.7709" lon="6.47279">
        <ele>69.130741</ele>
        <time>2023-06-26T07:00:46.224Z</time>
      </trkpt>
      <trkpt lat="51.77082" lon="6.47291">
        <ele>69.254739</ele>
        <time>2023-06-26T07:00:48.224Z</time>
      </trkpt>
      <trkpt lat="51.77074" lon="6.47302">
        <ele>69.384251</ele>
        <time>2023-06-26T07:00:50.215Z</time>
      </trkpt>
      <trkpt lat="51.77066" lon="6.47314">
        <ele>69.511215</ele>
        <time>2023-06-26T07:00:52.225Z</time>
      </trkpt>
      <trkpt lat="51.77059" lon="6.47325">
        <ele>69.631616</ele>
        <time>2023-06-26T07:00:54.224Z</time>
      </trkpt>
      <trkpt lat="51.77052" lon="6.47337">
        <ele>69.751175</ele>
        <time>2023-06-26T07:00:56.250Z</time>
      </trkpt>
      <trkpt lat="51.77046" lon="6.47347">
        <ele>69.860107</ele>
        <time>2023-06-26T07:00:58.240Z</time>
      </trkpt>
      <trkpt lat="51.77036" lon="6.47363">
        <ele>70.022556</ele>
        <time>2023-06-26T07:01:01.246Z</time>
      </trkpt>
      <trkpt lat="51.7703" lon="6.47375">
        <ele>70.140327</ele>
        <time>2023-06-26T07:01:03.223Z</time>
      </trkpt>
      <trkpt lat="51.77023" lon="6.47388">
        <ele>70.265541</ele>
        <time>2023-06-26T07:01:05.238Z</time>
      </trkpt>
      <trkpt lat="51.77017" lon="6.47401">
        <ele>70.389095</ele>
        <time>2023-06-26T07:01:07.227Z</time>
      </trkpt>
      <trkpt lat="51.7701" lon="6.47413">
        <ele>70.508204</ele>
        <time>2023-06-26T07:01:09.251Z</time>
      </trkpt>
      <trkpt lat="51.77004" lon="6.47427">
        <ele>70.63484</ele>
        <time>2023-06-26T07:01:11.224Z</time>
      </trkpt>
      <trkpt lat="51.76998" lon="6.47439">
        <ele>70.753997</ele>
        <time>2023-06-26T07:01:13.216Z</time>
      </trkpt>
      <trkpt lat="51.76992" lon="6.47452">
        <ele>70.871006</ele>
        <time>2023-06-26T07:01:15.226Z</time>
      </trkpt>
      <trkpt lat="51.76984" lon="6.47471">
        <ele>70.923858</ele>
        <time>2023-06-26T07:01:18.209Z</time>
      </trkpt>
      <trkpt lat="51.76977" lon="6.47484">
        <ele>70.749686</ele>
        <time>2023-06-26T07:01:20.217Z</time>
      </trkpt>
      <trkpt lat="51.76971" lon="6.47497">
        <ele>70.600819</ele>
        <time>2023-06-26T07:01:22.219Z</time>
      </trkpt>
      <trkpt lat="51.76965" lon="6.4751">
        <ele>70.442087</ele>
        <time>2023-06-26T07:01:24.214Z</time>
      </trkpt>
      <trkpt lat="51.76959" lon="6.47524">
        <ele>70.269695</ele>
        <time>2023-06-26T07:01:26.215Z</time>
      </trkpt>
      <trkpt lat="51.76952" lon="6.47541">
        <ele>70.084801</ele>
        <time>2023-06-26T07:01:28.217Z</time>
      </trkpt>
      <trkpt lat="51.76946" lon="6.47556">
        <ele>69.90729</ele>
        <time>2023-06-26T07:01:30.226Z</time>
      </trkpt>
      <trkpt lat="51.7694" lon="6.47569">
        <ele>69.750209</ele>
        <time>2023-06-26T07:01:32.216Z</time>
      </trkpt>
      <trkpt lat="51.76934" lon="6.47583">
        <ele>69.584746</ele>
        <time>2023-06-26T07:01:34.229Z</time>
      </trkpt>
      <trkpt lat="51.76927" lon="6.47598">
        <ele>69.405304</ele>
        <time>2023-06-26T07:01:36.220Z</time>
      </trkpt>
      <trkpt lat="51.76919" lon="6.47612">
        <ele>69.221094</ele>
        <time>2023-06-26T07:01:38.219Z</time>
      </trkpt>
      <trkpt lat="51.76911" lon="6.47628">
        <ele>69.022312</ele>
        <time>2023-06-26T07:01:40.223Z</time>
      </trkpt>
      <trkpt lat="51.76903" lon="6.47643">
        <ele>68.830745</ele>
        <time>2023-06-26T07:01:42.217Z</time>
      </trkpt>
      <trkpt lat="51.76895" lon="6.47658">
        <ele>68.635876</ele>
        <time>2023-06-26T07:01:44.222Z</time>
      </trkpt>
      <trkpt lat="51.76887" lon="6.47674">
        <ele>68.437898</ele>
        <time>2023-06-26T07:01:46.219Z</time>
      </trkpt>
      <trkpt lat="51.76879" lon="6.47689">
        <ele>68.252314</ele>
        <time>2023-06-26T07:01:48.210Z</time>
      </trkpt>
      <trkpt lat="51.76873" lon="6.47706">
        <ele>68.21467</ele>
        <time>2023-06-26T07:01:50.224Z</time>
      </trkpt>
      <trkpt lat="51.76866" lon="6.47721">
        <ele>68.26677</ele>
        <time>2023-06-26T07:01:52.216Z</time>
      </trkpt>
      <trkpt lat="51.76858" lon="6.47735">
        <ele>68.319287</ele>
        <time>2023-06-26T07:01:54.214Z</time>
      </trkpt>
      <trkpt lat="51.76851" lon="6.47749">
        <ele>68.368752</ele>
        <time>2023-06-26T07:01:56.227Z</time>
      </trkpt>
      <trkpt lat="51.76844" lon="6.47764">
        <ele>68.419034</ele>
        <time>2023-06-26T07:01:58.211Z</time>
      </trkpt>
      <trkpt lat="51.76838" lon="6.47778">
        <ele>68.466653</ele>
        <time>2023-06-26T07:02:00.225Z</time>
      </trkpt>
      <trkpt lat="51.76832" lon="6.47791">
        <ele>68.512814</ele>
        <time>2023-06-26T07:02:02.223Z</time>
      </trkpt>
      <trkpt lat="51.76826" lon="6.47805">
        <ele>68.561017</ele>
        <time>2023-06-26T07:02:04.235Z</time>
      </trkpt>
      <trkpt lat="51.76818" lon="6.47819">
        <ele>68.610483</ele>
        <time>2023-06-26T07:02:06.220Z</time>
      </trkpt>
      <trkpt lat="51.76812" lon="6.47832">
        <ele>68.656889</ele>
        <time>2023-06-26T07:02:08.223Z</time>
      </trkpt>
      <trkpt lat="51.76806" lon="6.47845">
        <ele>68.702311</ele>
        <time>2023-06-26T07:02:10.242Z</time>
      </trkpt>
      <trkpt lat="51.768" lon="6.47858">
        <ele>68.74715</ele>
        <time>2023-06-26T07:02:12.221Z</time>
      </trkpt>
      <trkpt lat="51.76794" lon="6.4787">
        <ele>68.79093</ele>
        <time>2023-06-26T07:02:14.214Z</time>
      </trkpt>
      <trkpt lat="51.76788" lon="6.47884">
        <ele>68.837092</ele>
        <time>2023-06-26T07:02:16.219Z</time>
      </trkpt>
      <trkpt lat="51.76781" lon="6.47896">
        <ele>68.882927</ele>
        <time>2023-06-26T07:02:18.223Z</time>
      </trkpt>
      <trkpt lat="51.76774" lon="6.47908">
        <ele>68.925671</ele>
        <time>2023-06-26T07:02:20.214Z</time>
      </trkpt>
      <trkpt lat="51.76767" lon="6.47918">
        <ele>68.969688</ele>
        <time>2023-06-26T07:02:22.213Z</time>
      </trkpt>
      <trkpt lat="51.7676" lon="6.47931">
        <ele>69.126133</ele>
        <time>2023-06-26T07:02:24.228Z</time>
      </trkpt>
      <trkpt lat="51.76753" lon="6.47941">
        <ele>69.316876</ele>
        <time>2023-06-26T07:02:26.214Z</time>
      </trkpt>
      <trkpt lat="51.76746" lon="6.47952">
        <ele>69.505873</ele>
        <time>2023-06-26T07:02:28.227Z</time>
      </trkpt>
      <trkpt lat="51.76737" lon="6.47961">
        <ele>69.725348</ele>
        <time>2023-06-26T07:02:30.215Z</time>
      </trkpt>
      <trkpt lat="51.76728" lon="6.4797">
        <ele>69.927325</ele>
        <time>2023-06-26T07:02:32.220Z</time>
      </trkpt>
      <trkpt lat="51.7672" lon="6.47978">
        <ele>70.121565</ele>
        <time>2023-06-26T07:02:34.221Z</time>
      </trkpt>
      <trkpt lat="51.76712" lon="6.47988">
        <ele>70.316038</ele>
        <time>2023-06-26T07:02:36.222Z</time>
      </trkpt>
      <trkpt lat="51.76704" lon="6.47996">
        <ele>70.510277</ele>
        <time>2023-06-26T07:02:38.223Z</time>
      </trkpt>
      <trkpt lat="51.76696" lon="6.48005">
        <ele>70.709211</ele>
        <time>2023-06-26T07:02:40.212Z</time>
      </trkpt>
      <trkpt lat="51.76688" lon="6.48016">
        <ele>70.921314</ele>
        <time>2023-06-26T07:02:42.224Z</time>
      </trkpt>
      <trkpt lat="51.7668" lon="6.48028">
        <ele>71.133523</ele>
        <time>2023-06-26T07:02:44.228Z</time>
      </trkpt>
      <trkpt lat="51.76671" lon="6.48039">
        <ele>71.353597</ele>
        <time>2023-06-26T07:02:46.203Z</time>
      </trkpt>
      <trkpt lat="51.76662" lon="6.48048">
        <ele>71.567738</ele>
        <time>2023-06-26T07:02:48.225Z</time>
      </trkpt>
      <trkpt lat="51.76654" lon="6.48056">
        <ele>71.766078</ele>
        <time>2023-06-26T07:02:50.225Z</time>
      </trkpt>
      <trkpt lat="51.76645" lon="6.48065">
        <ele>71.96871</ele>
        <time>2023-06-26T07:02:52.225Z</time>
      </trkpt>
      <trkpt lat="51.76637" lon="6.48074">
        <ele>72.169719</ele>
        <time>2023-06-26T07:02:54.220Z</time>
      </trkpt>
      <trkpt lat="51.76625" lon="6.48087">
        <ele>72.46324</ele>
        <time>2023-06-26T07:02:57.246Z</time>
      </trkpt>
      <trkpt lat="51.76616" lon="6.48096">
        <ele>72.506651</ele>
        <time>2023-06-26T07:02:59.226Z</time>
      </trkpt>
      <trkpt lat="51.76606" lon="6.48105">
        <ele>72.326902</ele>
        <time>2023-06-26T07:03:01.216Z</time>
      </trkpt>
      <trkpt lat="51.76596" lon="6.48116">
        <ele>72.145991</ele>
        <time>2023-06-26T07:03:03.226Z</time>
      </trkpt>
      <trkpt lat="51.76587" lon="6.48127">
        <ele>71.971014</ele>
        <time>2023-06-26T07:03:05.220Z</time>
      </trkpt>
      <trkpt lat="51.76578" lon="6.48137">
        <ele>71.80197</ele>
        <time>2023-06-26T07:03:07.220Z</time>
      </trkpt>
      <trkpt lat="51.76569" lon="6.48146">
        <ele>71.641719</ele>
        <time>2023-06-26T07:03:09.221Z</time>
      </trkpt>
      <trkpt lat="51.7656" lon="6.48156">
        <ele>71.478369</ele>
        <time>2023-06-26T07:03:11.226Z</time>
      </trkpt>
      <trkpt lat="51.76552" lon="6.48166">
        <ele>71.314721</ele>
        <time>2023-06-26T07:03:13.219Z</time>
      </trkpt>
      <trkpt lat="51.76542" lon="6.48175">
        <ele>71.151018</ele>
        <time>2023-06-26T07:03:15.214Z</time>
      </trkpt>
      <trkpt lat="51.76533" lon="6.48184">
        <ele>70.986927</ele>
        <time>2023-06-26T07:03:17.220Z</time>
      </trkpt>
      <trkpt lat="51.76525" lon="6.48194">
        <ele>70.827167</ele>
        <time>2023-06-26T07:03:19.220Z</time>
      </trkpt>
      <trkpt lat="51.76516" lon="6.48204">
        <ele>70.664376</ele>
        <time>2023-06-26T07:03:21.225Z</time>
      </trkpt>
      <trkpt lat="51.76508" lon="6.48213">
        <ele>70.507486</ele>
        <time>2023-06-26T07:03:23.219Z</time>
      </trkpt>
      <trkpt lat="51.76499" lon="6.48223">
        <ele>70.342879</ele>
        <time>2023-06-26T07:03:25.233Z</time>
      </trkpt>
      <trkpt lat="51.7649" lon="6.48233">
        <ele>70.175253</ele>
        <time>2023-06-26T07:03:27.240Z</time>
      </trkpt>
      <trkpt lat="51.76481" lon="6.48243">
        <ele>70.014928</ele>
        <time>2023-06-26T07:03:29.248Z</time>
      </trkpt>
      <trkpt lat="51.76474" lon="6.48254">
        <ele>69.860081</ele>
        <time>2023-06-26T07:03:31.224Z</time>
      </trkpt>
      <trkpt lat="51.76466" lon="6.48265">
        <ele>69.73727</ele>
        <time>2023-06-26T07:03:33.226Z</time>
      </trkpt>
      <trkpt lat="51.76458" lon="6.48276">
        <ele>69.624118</ele>
        <time>2023-06-26T07:03:35.245Z</time>
      </trkpt>
      <trkpt lat="51.76449" lon="6.48287">
        <ele>69.503506</ele>
        <time>2023-06-26T07:03:37.245Z</time>
      </trkpt>
      <trkpt lat="51.76442" lon="6.483">
        <ele>69.387223</ele>
        <time>2023-06-26T07:03:39.224Z</time>
      </trkpt>
      <trkpt lat="51.76433" lon="6.48313">
        <ele>69.263073</ele>
        <time>2023-06-26T07:03:41.230Z</time>
      </trkpt>
      <trkpt lat="51.76426" lon="6.48326">
        <ele>69.141234</ele>
        <time>2023-06-26T07:03:43.229Z</time>
      </trkpt>
      <trkpt lat="51.76417" lon="6.4834">
        <ele>69.012735</ele>
        <time>2023-06-26T07:03:45.239Z</time>
      </trkpt>
      <trkpt lat="51.76409" lon="6.48354">
        <ele>68.881009</ele>
        <time>2023-06-26T07:03:47.231Z</time>
      </trkpt>
      <trkpt lat="51.76401" lon="6.48368">
        <ele>68.756112</ele>
        <time>2023-06-26T07:03:49.227Z</time>
      </trkpt>
      <trkpt lat="51.76393" lon="6.48381">
        <ele>68.638303</ele>
        <time>2023-06-26T07:03:51.234Z</time>
      </trkpt>
      <trkpt lat="51.76386" lon="6.48392">
        <ele>68.522806</ele>
        <time>2023-06-26T07:03:53.228Z</time>
      </trkpt>
      <trkpt lat="51.76377" lon="6.48405">
        <ele>68.401889</ele>
        <time>2023-06-26T07:03:55.248Z</time>
      </trkpt>
      <trkpt lat="51.76371" lon="6.48417">
        <ele>68.296703</ele>
        <time>2023-06-26T07:03:57.213Z</time>
      </trkpt>
      <trkpt lat="51.76365" lon="6.4843">
        <ele>68.183111</ele>
        <time>2023-06-26T07:03:59.227Z</time>
      </trkpt>
      <trkpt lat="51.76358" lon="6.48444">
        <ele>68.067428</ele>
        <time>2023-06-26T07:04:01.228Z</time>
      </trkpt>
      <trkpt lat="51.76351" lon="6.48459">
        <ele>67.939886</ele>
        <time>2023-06-26T07:04:03.224Z</time>
      </trkpt>
      <trkpt lat="51.76344" lon="6.48474">
        <ele>67.83401</ele>
        <time>2023-06-26T07:04:05.252Z</time>
      </trkpt>
      <trkpt lat="51.76337" lon="6.48488">
        <ele>67.739941</ele>
        <time>2023-06-26T07:04:07.234Z</time>
      </trkpt>
      <trkpt lat="51.7633" lon="6.48505">
        <ele>67.637905</ele>
        <time>2023-06-26T07:04:09.224Z</time>
      </trkpt>
      <trkpt lat="51.76323" lon="6.48522">
        <ele>67.53289</ele>
        <time>2023-06-26T07:04:11.242Z</time>
      </trkpt>
      <trkpt lat="51.76316" lon="6.48539">
        <ele>67.425305</ele>
        <time>2023-06-26T07:04:13.212Z</time>
      </trkpt>
      <trkpt lat="51.76311" lon="6.48558">
        <ele>67.319734</ele>
        <time>2023-06-26T07:04:15.223Z</time>
      </trkpt>
      <trkpt lat="51.76307" lon="6.48578">
        <ele>67.210567</ele>
        <time>2023-06-26T07:04:17.227Z</time>
      </trkpt>
      <trkpt lat="51.76302" lon="6.48598">
        <ele>67.10054</ele>
        <time>2023-06-26T07:04:19.226Z</time>
      </trkpt>
      <trkpt lat="51.76298" lon="6.48619">
        <ele>66.987215</ele>
        <time>2023-06-26T07:04:21.244Z</time>
      </trkpt>
      <trkpt lat="51.76293" lon="6.48639">
        <ele>66.87689</ele>
        <time>2023-06-26T07:04:23.218Z</time>
      </trkpt>
      <trkpt lat="51.76289" lon="6.48659">
        <ele>66.771255</ele>
        <time>2023-06-26T07:04:25.226Z</time>
      </trkpt>
      <trkpt lat="51.76285" lon="6.48678">
        <ele>66.667582</ele>
        <time>2023-06-26T07:04:27.219Z</time>
      </trkpt>
      <trkpt lat="51.76283" lon="6.48697">
        <ele>66.56663</ele>
        <time>2023-06-26T07:04:29.238Z</time>
      </trkpt>
      <trkpt lat="51.7628" lon="6.48717">
        <ele>66.463676</ele>
        <time>2023-06-26T07:04:31.239Z</time>
      </trkpt>
      <trkpt lat="51.76277" lon="6.48736">
        <ele>66.400269</ele>
        <time>2023-06-26T07:04:33.231Z</time>
      </trkpt>
      <trkpt lat="51.76275" lon="6.48755">
        <ele>66.435328</ele>
        <time>2023-06-26T07:04:35.227Z</time>
      </trkpt>
      <trkpt lat="51.76272" lon="6.48773">
        <ele>66.469142</ele>
        <time>2023-06-26T07:04:37.224Z</time>
      </trkpt>
      <trkpt lat="51.7627" lon="6.4879">
        <ele>66.501886</ele>
        <time>2023-06-26T07:04:39.227Z</time>
      </trkpt>
      <trkpt lat="51.76266" lon="6.48808">
        <ele>66.535397</ele>
        <time>2023-06-26T07:04:41.226Z</time>
      </trkpt>
      <trkpt lat="51.76263" lon="6.48826">
        <ele>66.569299</ele>
        <time>2023-06-26T07:04:43.232Z</time>
      </trkpt>
      <trkpt lat="51.76261" lon="6.48844">
        <ele>66.602998</ele>
        <time>2023-06-26T07:04:45.238Z</time>
      </trkpt>
      <trkpt lat="51.76258" lon="6.48862">
        <ele>66.638001</ele>
        <time>2023-06-26T07:04:47.228Z</time>
      </trkpt>
      <trkpt lat="51.76254" lon="6.48881">
        <ele>66.673849</ele>
        <time>2023-06-26T07:04:49.227Z</time>
      </trkpt>
      <trkpt lat="51.7625" lon="6.48898">
        <ele>66.706693</ele>
        <time>2023-06-26T07:04:51.229Z</time>
      </trkpt>
      <trkpt lat="51.76246" lon="6.48914">
        <ele>66.738219</ele>
        <time>2023-06-26T07:04:53.219Z</time>
      </trkpt>
      <trkpt lat="51.76243" lon="6.48931">
        <ele>66.770074</ele>
        <time>2023-06-26T07:04:55.226Z</time>
      </trkpt>
      <trkpt lat="51.76239" lon="6.48948">
        <ele>66.802275</ele>
        <time>2023-06-26T07:04:57.221Z</time>
      </trkpt>
      <trkpt lat="51.76235" lon="6.48964">
        <ele>66.83509</ele>
        <time>2023-06-26T07:04:59.231Z</time>
      </trkpt>
      <trkpt lat="51.7623" lon="6.4898">
        <ele>66.867498</ele>
        <time>2023-06-26T07:05:01.226Z</time>
      </trkpt>
      <trkpt lat="51.76224" lon="6.48998">
        <ele>66.902575</ele>
        <time>2023-06-26T07:05:03.215Z</time>
      </trkpt>
      <trkpt lat="51.76219" lon="6.49015">
        <ele>66.887654</ele>
        <time>2023-06-26T07:05:05.224Z</time>
      </trkpt>
      <trkpt lat="51.76214" lon="6.49032">
        <ele>66.830696</ele>
        <time>2023-06-26T07:05:07.233Z</time>
      </trkpt>
      <trkpt lat="51.76208" lon="6.49049">
        <ele>66.774682</ele>
        <time>2023-06-26T07:05:09.237Z</time>
      </trkpt>
      <trkpt lat="51.76202" lon="6.49065">
        <ele>66.719234</ele>
        <time>2023-06-26T07:05:11.227Z</time>
      </trkpt>
      <trkpt lat="51.76196" lon="6.49082">
        <ele>66.660769</ele>
        <time>2023-06-26T07:05:13.225Z</time>
      </trkpt>
      <trkpt lat="51.76189" lon="6.49097">
        <ele>66.605255</ele>
        <time>2023-06-26T07:05:15.209Z</time>
      </trkpt>
      <trkpt lat="51.76183" lon="6.49113">
        <ele>66.550307</ele>
        <time>2023-06-26T07:05:17.214Z</time>
      </trkpt>
      <trkpt lat="51.76177" lon="6.49128">
        <ele>66.496329</ele>
        <time>2023-06-26T07:05:19.209Z</time>
      </trkpt>
      <trkpt lat="51.7617" lon="6.49143">
        <ele>66.440709</ele>
        <time>2023-06-26T07:05:21.213Z</time>
      </trkpt>
      <trkpt lat="51.76162" lon="6.49158">
        <ele>66.38495</ele>
        <time>2023-06-26T07:05:23.212Z</time>
      </trkpt>
      <trkpt lat="51.76156" lon="6.49173">
        <ele>66.32961</ele>
        <time>2023-06-26T07:05:25.210Z</time>
      </trkpt>
      <trkpt lat="51.76149" lon="6.49188">
        <ele>66.274649</ele>
        <time>2023-06-26T07:05:27.212Z</time>
      </trkpt>
      <trkpt lat="51.76141" lon="6.49203">
        <ele>66.218358</ele>
        <time>2023-06-26T07:05:29.224Z</time>
      </trkpt>
      <trkpt lat="51.76133" lon="6.49218">
        <ele>66.160097</ele>
        <time>2023-06-26T07:05:31.228Z</time>
      </trkpt>
      <trkpt lat="51.76126" lon="6.49233">
        <ele>66.102569</ele>
        <time>2023-06-26T07:05:33.219Z</time>
      </trkpt>
      <trkpt lat="51.76118" lon="6.49248">
        <ele>66.063795</ele>
        <time>2023-06-26T07:05:35.245Z</time>
      </trkpt>
      <trkpt lat="51.76111" lon="6.49263">
        <ele>66.073344</ele>
        <time>2023-06-26T07:05:37.241Z</time>
      </trkpt>
      <trkpt lat="51.76103" lon="6.49278">
        <ele>66.082917</ele>
        <time>2023-06-26T07:05:39.208Z</time>
      </trkpt>
      <trkpt lat="51.76096" lon="6.49293">
        <ele>66.091899</ele>
        <time>2023-06-26T07:05:41.209Z</time>
      </trkpt>
      <trkpt lat="51.76089" lon="6.49308">
        <ele>66.101217</ele>
        <time>2023-06-26T07:05:43.223Z</time>
      </trkpt>
      <trkpt lat="51.76081" lon="6.49323">
        <ele>66.110855</ele>
        <time>2023-06-26T07:05:45.220Z</time>
      </trkpt>
      <trkpt lat="51.76073" lon="6.49338">
        <ele>66.120215</ele>
        <time>2023-06-26T07:05:47.209Z</time>
      </trkpt>
      <trkpt lat="51.76065" lon="6.49354">
        <ele>66.130203</ele>
        <time>2023-06-26T07:05:49.229Z</time>
      </trkpt>
      <trkpt lat="51.76058" lon="6.49369">
        <ele>66.139513</ele>
        <time>2023-06-26T07:05:51.214Z</time>
      </trkpt>
      <trkpt lat="51.76051" lon="6.49384">
        <ele>66.148949</ele>
        <time>2023-06-26T07:05:53.213Z</time>
      </trkpt>
      <trkpt lat="51.76044" lon="6.49398">
        <ele>66.157744</ele>
        <time>2023-06-26T07:05:55.234Z</time>
      </trkpt>
      <trkpt lat="51.76036" lon="6.49413">
        <ele>66.167322</ele>
        <time>2023-06-26T07:05:57.222Z</time>
      </trkpt>
      <trkpt lat="51.76029" lon="6.49427">
        <ele>66.176481</ele>
        <time>2023-06-26T07:05:59.239Z</time>
      </trkpt>
      <trkpt lat="51.76022" lon="6.49442">
        <ele>66.18544</ele>
        <time>2023-06-26T07:06:01.227Z</time>
      </trkpt>
      <trkpt lat="51.76015" lon="6.49456">
        <ele>66.194285</ele>
        <time>2023-06-26T07:06:03.215Z</time>
      </trkpt>
      <trkpt lat="51.76007" lon="6.4947">
        <ele>66.203939</ele>
        <time>2023-06-26T07:06:05.229Z</time>
      </trkpt>
      <trkpt lat="51.76" lon="6.49485">
        <ele>66.345348</ele>
        <time>2023-06-26T07:06:07.231Z</time>
      </trkpt>
      <trkpt lat="51.75993" lon="6.49498">
        <ele>66.482752</ele>
        <time>2023-06-26T07:06:09.223Z</time>
      </trkpt>
      <trkpt lat="51.75986" lon="6.49512">
        <ele>66.621766</ele>
        <time>2023-06-26T07:06:11.226Z</time>
      </trkpt>
      <trkpt lat="51.75979" lon="6.49526">
        <ele>66.756035</ele>
        <time>2023-06-26T07:06:13.227Z</time>
      </trkpt>
      <trkpt lat="51.75972" lon="6.4954">
        <ele>66.891858</ele>
        <time>2023-06-26T07:06:15.239Z</time>
      </trkpt>
      <trkpt lat="51.75966" lon="6.49553">
        <ele>67.026731</ele>
        <time>2023-06-26T07:06:17.233Z</time>
      </trkpt>
      <trkpt lat="51.75959" lon="6.49567">
        <ele>67.162211</ele>
        <time>2023-06-26T07:06:19.220Z</time>
      </trkpt>
      <trkpt lat="51.75952" lon="6.49581">
        <ele>67.296931</ele>
        <time>2023-06-26T07:06:21.236Z</time>
      </trkpt>
      <trkpt lat="51.75946" lon="6.49595">
        <ele>67.429674</ele>
        <time>2023-06-26T07:06:23.229Z</time>
      </trkpt>
      <trkpt lat="51.7594" lon="6.49609">
        <ele>67.559864</ele>
        <time>2023-06-26T07:06:25.231Z</time>
      </trkpt>
      <trkpt lat="51.75934" lon="6.49622">
        <ele>67.6864</ele>
        <time>2023-06-26T07:06:27.220Z</time>
      </trkpt>
      <trkpt lat="51.75927" lon="6.49635">
        <ele>67.818867</ele>
        <time>2023-06-26T07:06:29.220Z</time>
      </trkpt>
      <trkpt lat="51.75921" lon="6.49649">
        <ele>67.947142</ele>
        <time>2023-06-26T07:06:31.218Z</time>
      </trkpt>
      <trkpt lat="51.75915" lon="6.49662">
        <ele>68.075933</ele>
        <time>2023-06-26T07:06:33.228Z</time>
      </trkpt>
      <trkpt lat="51.75909" lon="6.49676">
        <ele>68.206085</ele>
        <time>2023-06-26T07:06:35.228Z</time>
      </trkpt>
      <trkpt lat="51.75904" lon="6.4969">
        <ele>68.332981</ele>
        <time>2023-06-26T07:06:37.216Z</time>
      </trkpt>
      <trkpt lat="51.75898" lon="6.49704">
        <ele>68.43706</ele>
        <time>2023-06-26T07:06:39.197Z</time>
      </trkpt>
      <trkpt lat="51.75893" lon="6.49718">
        <ele>68.431248</ele>
        <time>2023-06-26T07:06:41.213Z</time>
      </trkpt>
      <trkpt lat="51.75888" lon="6.49733">
        <ele>68.425281</ele>
        <time>2023-06-26T07:06:43.219Z</time>
      </trkpt>
      <trkpt lat="51.75882" lon="6.49748">
        <ele>68.419264</ele>
        <time>2023-06-26T07:06:45.228Z</time>
      </trkpt>
      <trkpt lat="51.75876" lon="6.49764">
        <ele>68.413011</ele>
        <time>2023-06-26T07:06:47.231Z</time>
      </trkpt>
      <trkpt lat="51.75871" lon="6.4978">
        <ele>68.406794</ele>
        <time>2023-06-26T07:06:49.212Z</time>
      </trkpt>
      <trkpt lat="51.75867" lon="6.49796">
        <ele>68.400699</ele>
        <time>2023-06-26T07:06:51.224Z</time>
      </trkpt>
      <trkpt lat="51.75861" lon="6.4981">
        <ele>68.394889</ele>
        <time>2023-06-26T07:06:53.233Z</time>
      </trkpt>
      <trkpt lat="51.75857" lon="6.49826">
        <ele>68.388754</ele>
        <time>2023-06-26T07:06:55.227Z</time>
      </trkpt>
      <trkpt lat="51.75853" lon="6.49843">
        <ele>68.382416</ele>
        <time>2023-06-26T07:06:57.220Z</time>
      </trkpt>
      <trkpt lat="51.75849" lon="6.49859">
        <ele>68.376441</ele>
        <time>2023-06-26T07:06:59.221Z</time>
      </trkpt>
      <trkpt lat="51.75845" lon="6.49876">
        <ele>68.370028</ele>
        <time>2023-06-26T07:07:01.223Z</time>
      </trkpt>
      <trkpt lat="51.7584" lon="6.49893">
        <ele>68.363786</ele>
        <time>2023-06-26T07:07:03.241Z</time>
      </trkpt>
      <trkpt lat="51.75836" lon="6.4991">
        <ele>68.357297</ele>
        <time>2023-06-26T07:07:05.212Z</time>
      </trkpt>
      <trkpt lat="51.75831" lon="6.49928">
        <ele>68.350734</ele>
        <time>2023-06-26T07:07:07.241Z</time>
      </trkpt>
      <trkpt lat="51.75827" lon="6.49946">
        <ele>68.344081</ele>
        <time>2023-06-26T07:07:09.222Z</time>
      </trkpt>
      <trkpt lat="51.75824" lon="6.49964">
        <ele>68.33752</ele>
        <time>2023-06-26T07:07:11.215Z</time>
      </trkpt>
      <trkpt lat="51.75821" lon="6.49982">
        <ele>68.282216</ele>
        <time>2023-06-26T07:07:13.232Z</time>
      </trkpt>
      <trkpt lat="51.75817" lon="6.50001">
        <ele>68.218802</ele>
        <time>2023-06-26T07:07:15.218Z</time>
      </trkpt>
      <trkpt lat="51.75814" lon="6.5002">
        <ele>68.156544</ele>
        <time>2023-06-26T07:07:17.218Z</time>
      </trkpt>
      <trkpt lat="51.75811" lon="6.50039">
        <ele>68.096533</ele>
        <time>2023-06-26T07:07:19.217Z</time>
      </trkpt>
      <trkpt lat="51.75808" lon="6.50058">
        <ele>68.035911</ele>
        <time>2023-06-26T07:07:21.236Z</time>
      </trkpt>
      <trkpt lat="51.75806" lon="6.50076">
        <ele>67.977646</ele>
        <time>2023-06-26T07:07:23.238Z</time>
      </trkpt>
      <trkpt lat="51.75803" lon="6.50095">
        <ele>67.916373</ele>
        <time>2023-06-26T07:07:25.224Z</time>
      </trkpt>
      <trkpt lat="51.75801" lon="6.50113">
        <ele>67.857389</ele>
        <time>2023-06-26T07:07:27.226Z</time>
      </trkpt>
      <trkpt lat="51.75799" lon="6.50131">
        <ele>67.799989</ele>
        <time>2023-06-26T07:07:29.212Z</time>
      </trkpt>
      <trkpt lat="51.75797" lon="6.5015">
        <ele>67.742358</ele>
        <time>2023-06-26T07:07:31.220Z</time>
      </trkpt>
      <trkpt lat="51.75796" lon="6.50167">
        <ele>67.686237</ele>
        <time>2023-06-26T07:07:33.229Z</time>
      </trkpt>
      <trkpt lat="51.75794" lon="6.50185">
        <ele>67.631309</ele>
        <time>2023-06-26T07:07:35.232Z</time>
      </trkpt>
      <trkpt lat="51.75792" lon="6.50203">
        <ele>67.572981</ele>
        <time>2023-06-26T07:07:37.253Z</time>
      </trkpt>
      <trkpt lat="51.75791" lon="6.50221">
        <ele>67.515492</ele>
        <time>2023-06-26T07:07:39.225Z</time>
      </trkpt>
      <trkpt lat="51.7579" lon="6.50239">
        <ele>67.460583</ele>
        <time>2023-06-26T07:07:41.231Z</time>
      </trkpt>
      <trkpt lat="51.75789" lon="6.50258">
        <ele>67.413088</ele>
        <time>2023-06-26T07:07:43.227Z</time>
      </trkpt>
      <trkpt lat="51.75788" lon="6.50277">
        <ele>67.379969</ele>
        <time>2023-06-26T07:07:45.226Z</time>
      </trkpt>
      <trkpt lat="51.75787" lon="6.50296">
        <ele>67.348346</ele>
        <time>2023-06-26T07:07:47.230Z</time>
      </trkpt>
      <trkpt lat="51.75787" lon="6.50314">
        <ele>67.317498</ele>
        <time>2023-06-26T07:07:49.230Z</time>
      </trkpt>
      <trkpt lat="51.75786" lon="6.50333">
        <ele>67.285544</ele>
        <time>2023-06-26T07:07:51.224Z</time>
      </trkpt>
      <trkpt lat="51.75787" lon="6.50352">
        <ele>67.254729</ele>
        <time>2023-06-26T07:07:53.228Z</time>
      </trkpt>
      <trkpt lat="51.75787" lon="6.5037">
        <ele>67.224263</ele>
        <time>2023-06-26T07:07:55.208Z</time>
      </trkpt>
      <trkpt lat="51.75788" lon="6.50389">
        <ele>67.192576</ele>
        <time>2023-06-26T07:07:57.231Z</time>
      </trkpt>
      <trkpt lat="51.75789" lon="6.50407">
        <ele>67.161728</ele>
        <time>2023-06-26T07:07:59.227Z</time>
      </trkpt>
      <trkpt lat="51.7579" lon="6.50425">
        <ele>67.131787</ele>
        <time>2023-06-26T07:08:01.224Z</time>
      </trkpt>
      <trkpt lat="51.75792" lon="6.50442">
        <ele>67.101911</ele>
        <time>2023-06-26T07:08:03.220Z</time>
      </trkpt>
      <trkpt lat="51.75793" lon="6.50459">
        <ele>67.073808</ele>
        <time>2023-06-26T07:08:05.234Z</time>
      </trkpt>
      <trkpt lat="51.75795" lon="6.50475">
        <ele>67.047041</ele>
        <time>2023-06-26T07:08:07.208Z</time>
      </trkpt>
      <trkpt lat="51.75794" lon="6.5049">
        <ele>67.02114</ele>
        <time>2023-06-26T07:08:09.243Z</time>
      </trkpt>
      <trkpt lat="51.75796" lon="6.50509">
        <ele>66.988069</ele>
        <time>2023-06-26T07:08:12.240Z</time>
      </trkpt>
      <trkpt lat="51.75799" lon="6.50525">
        <ele>66.960345</ele>
        <time>2023-06-26T07:08:15.220Z</time>
      </trkpt>
      <trkpt lat="51.758" lon="6.5054">
        <ele>66.939101</ele>
        <time>2023-06-26T07:08:18.209Z</time>
      </trkpt>
      <trkpt lat="51.75804" lon="6.50558">
        <ele>66.942399</ele>
        <time>2023-06-26T07:09:21.204Z</time>
      </trkpt>
      <trkpt lat="51.75805" lon="6.50576">
        <ele>66.945699</ele>
        <time>2023-06-26T07:09:26.231Z</time>
      </trkpt>
      <trkpt lat="51.75804" lon="6.50592">
        <ele>66.948543</ele>
        <time>2023-06-26T07:09:30.219Z</time>
      </trkpt>
      <trkpt lat="51.75804" lon="6.50612">
        <ele>66.952119</ele>
        <time>2023-06-26T07:09:34.236Z</time>
      </trkpt>
      <trkpt lat="51.75805" lon="6.50632">
        <ele>66.955725</ele>
        <time>2023-06-26T07:09:37.238Z</time>
      </trkpt>
      <trkpt lat="51.75808" lon="6.5065">
        <ele>66.959053</ele>
        <time>2023-06-26T07:09:40.225Z</time>
      </trkpt>
      <trkpt lat="51.7581" lon="6.50668">
        <ele>66.962258</ele>
        <time>2023-06-26T07:09:43.228Z</time>
      </trkpt>
      <trkpt lat="51.75811" lon="6.50686">
        <ele>66.965551</ele>
        <time>2023-06-26T07:09:46.211Z</time>
      </trkpt>
      <trkpt lat="51.75811" lon="6.50704">
        <ele>66.968846</ele>
        <time>2023-06-26T07:09:49.231Z</time>
      </trkpt>
      <trkpt lat="51.75813" lon="6.50722">
        <ele>66.972102</ele>
        <time>2023-06-26T07:09:52.229Z</time>
      </trkpt>
      <trkpt lat="51.75819" lon="6.50736">
        <ele>66.975163</ele>
        <time>2023-06-26T07:09:55.227Z</time>
      </trkpt>
      <trkpt lat="51.75825" lon="6.50753">
        <ele>66.978524</ele>
        <time>2023-06-26T07:09:58.204Z</time>
      </trkpt>
      <trkpt lat="51.75827" lon="6.50771">
        <ele>66.981899</ele>
        <time>2023-06-26T07:10:01.245Z</time>
      </trkpt>
      <trkpt lat="51.75828" lon="6.50791">
        <ele>66.985528</ele>
        <time>2023-06-26T07:10:04.232Z</time>
      </trkpt>
      <trkpt lat="51.7583" lon="6.50812">
        <ele>66.989299</ele>
        <time>2023-06-26T07:10:07.226Z</time>
      </trkpt>
      <trkpt lat="51.75832" lon="6.50833">
        <ele>67.077507</ele>
        <time>2023-06-26T07:10:10.224Z</time>
      </trkpt>
      <trkpt lat="51.75833" lon="6.50852">
        <ele>67.208749</ele>
        <time>2023-06-26T07:10:13.239Z</time>
      </trkpt>
      <trkpt lat="51.75836" lon="6.50871">
        <ele>67.345582</ele>
        <time>2023-06-26T07:10:16.221Z</time>
      </trkpt>
      <trkpt lat="51.75839" lon="6.50891">
        <ele>67.480428</ele>
        <time>2023-06-26T07:10:19.226Z</time>
      </trkpt>
      <trkpt lat="51.75841" lon="6.5091">
        <ele>67.614176</ele>
        <time>2023-06-26T07:10:22.221Z</time>
      </trkpt>
      <trkpt lat="51.75844" lon="6.5093">
        <ele>67.749685</ele>
        <time>2023-06-26T07:10:25.227Z</time>
      </trkpt>
      <trkpt lat="51.75848" lon="6.50949">
        <ele>67.887309</ele>
        <time>2023-06-26T07:10:28.221Z</time>
      </trkpt>
      <trkpt lat="51.75851" lon="6.5097">
        <ele>68.029915</ele>
        <time>2023-06-26T07:10:31.210Z</time>
      </trkpt>
      <trkpt lat="51.75853" lon="6.50991">
        <ele>68.177589</ele>
        <time>2023-06-26T07:10:34.204Z</time>
      </trkpt>
      <trkpt lat="51.75855" lon="6.51005">
        <ele>68.276981</ele>
        <time>2023-06-26T07:10:36.207Z</time>
      </trkpt>
      <trkpt lat="51.75858" lon="6.51019">
        <ele>68.376655</ele>
        <time>2023-06-26T07:10:38.208Z</time>
      </trkpt>
      <trkpt lat="51.7586" lon="6.51035">
        <ele>68.480581</ele>
        <time>2023-06-26T07:10:40.215Z</time>
      </trkpt>
      <trkpt lat="51.75862" lon="6.5105">
        <ele>68.584965</ele>
        <time>2023-06-26T07:10:42.212Z</time>
      </trkpt>
      <trkpt lat="51.75864" lon="6.51065">
        <ele>68.691579</ele>
        <time>2023-06-26T07:10:44.223Z</time>
      </trkpt>
      <trkpt lat="51.75866" lon="6.51079">
        <ele>68.791757</ele>
        <time>2023-06-26T07:10:46.223Z</time>
      </trkpt>
      <trkpt lat="51.75868" lon="6.51094">
        <ele>68.895658</ele>
        <time>2023-06-26T07:10:48.225Z</time>
      </trkpt>
      <trkpt lat="51.7587" lon="6.51109">
        <ele>68.97475</ele>
        <time>2023-06-26T07:10:50.228Z</time>
      </trkpt>
      <trkpt lat="51.75871" lon="6.51124">
        <ele>69.015936</ele>
        <time>2023-06-26T07:10:52.211Z</time>
      </trkpt>
      <trkpt lat="51.75873" lon="6.5114">
        <ele>69.061019</ele>
        <time>2023-06-26T07:10:54.218Z</time>
      </trkpt>
      <trkpt lat="51.75875" lon="6.51155">
        <ele>69.104195</ele>
        <time>2023-06-26T07:10:56.217Z</time>
      </trkpt>
      <trkpt lat="51.75876" lon="6.51171">
        <ele>69.148306</ele>
        <time>2023-06-26T07:10:58.213Z</time>
      </trkpt>
      <trkpt lat="51.75878" lon="6.51187">
        <ele>69.193389</ele>
        <time>2023-06-26T07:11:00.236Z</time>
      </trkpt>
      <trkpt lat="51.75879" lon="6.51202">
        <ele>69.236593</ele>
        <time>2023-06-26T07:11:02.227Z</time>
      </trkpt>
      <trkpt lat="51.75881" lon="6.51218">
        <ele>69.279687</ele>
        <time>2023-06-26T07:11:04.223Z</time>
      </trkpt>
      <trkpt lat="51.75882" lon="6.51233">
        <ele>69.3236</ele>
        <time>2023-06-26T07:11:06.230Z</time>
      </trkpt>
      <trkpt lat="51.75884" lon="6.5125">
        <ele>69.369229</ele>
        <time>2023-06-26T07:11:08.224Z</time>
      </trkpt>
      <trkpt lat="51.75886" lon="6.51266">
        <ele>69.416743</ele>
        <time>2023-06-26T07:11:10.222Z</time>
      </trkpt>
      <trkpt lat="51.75887" lon="6.51283">
        <ele>69.463257</ele>
        <time>2023-06-26T07:11:12.225Z</time>
      </trkpt>
      <trkpt lat="51.75887" lon="6.51301">
        <ele>69.511805</ele>
        <time>2023-06-26T07:11:14.226Z</time>
      </trkpt>
      <trkpt lat="51.75889" lon="6.51318">
        <ele>69.560438</ele>
        <time>2023-06-26T07:11:16.218Z</time>
      </trkpt>
      <trkpt lat="51.75891" lon="6.51335">
        <ele>69.610229</ele>
        <time>2023-06-26T07:11:18.220Z</time>
      </trkpt>
      <trkpt lat="51.75894" lon="6.51353">
        <ele>69.659479</ele>
        <time>2023-06-26T07:11:20.223Z</time>
      </trkpt>
      <trkpt lat="51.75896" lon="6.5137">
        <ele>69.708516</ele>
        <time>2023-06-26T07:11:22.223Z</time>
      </trkpt>
      <trkpt lat="51.75899" lon="6.51387">
        <ele>69.758208</ele>
        <time>2023-06-26T07:11:24.244Z</time>
      </trkpt>
      <trkpt lat="51.75901" lon="6.51404">
        <ele>69.680618</ele>
        <time>2023-06-26T07:11:26.224Z</time>
      </trkpt>
      <trkpt lat="51.75903" lon="6.51422">
        <ele>69.583147</ele>
        <time>2023-06-26T07:11:28.222Z</time>
      </trkpt>
      <trkpt lat="51.75904" lon="6.51439">
        <ele>69.487215</ele>
        <time>2023-06-26T07:11:30.244Z</time>
      </trkpt>
      <trkpt lat="51.75907" lon="6.51457">
        <ele>69.385623</ele>
        <time>2023-06-26T07:11:32.235Z</time>
      </trkpt>
      <trkpt lat="51.75908" lon="6.51475">
        <ele>69.286559</ele>
        <time>2023-06-26T07:11:34.224Z</time>
      </trkpt>
      <trkpt lat="51.7591" lon="6.51492">
        <ele>69.189088</ele>
        <time>2023-06-26T07:11:36.224Z</time>
      </trkpt>
      <trkpt lat="51.75912" lon="6.5151">
        <ele>69.090372</ele>
        <time>2023-06-26T07:11:38.218Z</time>
      </trkpt>
      <trkpt lat="51.75912" lon="6.51527">
        <ele>68.996125</ele>
        <time>2023-06-26T07:11:40.216Z</time>
      </trkpt>
      <trkpt lat="51.75913" lon="6.51545">
        <ele>68.897213</ele>
        <time>2023-06-26T07:11:42.216Z</time>
      </trkpt>
      <trkpt lat="51.75913" lon="6.51563">
        <ele>68.796833</ele>
        <time>2023-06-26T07:11:44.209Z</time>
      </trkpt>
      <trkpt lat="51.75913" lon="6.51582">
        <ele>68.693228</ele>
        <time>2023-06-26T07:11:46.208Z</time>
      </trkpt>
      <trkpt lat="51.75912" lon="6.516">
        <ele>68.595483</ele>
        <time>2023-06-26T07:11:48.223Z</time>
      </trkpt>
      <trkpt lat="51.75912" lon="6.51618">
        <ele>68.49576</ele>
        <time>2023-06-26T07:11:50.227Z</time>
      </trkpt>
      <trkpt lat="51.75911" lon="6.51636">
        <ele>68.3934</ele>
        <time>2023-06-26T07:11:52.225Z</time>
      </trkpt>
      <trkpt lat="51.75909" lon="6.51655">
        <ele>68.289169</ele>
        <time>2023-06-26T07:11:54.225Z</time>
      </trkpt>
      <trkpt lat="51.75906" lon="6.51674">
        <ele>68.179653</ele>
        <time>2023-06-26T07:11:56.231Z</time>
      </trkpt>
      <trkpt lat="51.75904" lon="6.51694">
        <ele>68.208127</ele>
        <time>2023-06-26T07:11:58.227Z</time>
      </trkpt>
      <trkpt lat="51.75901" lon="6.51714">
        <ele>68.259956</ele>
        <time>2023-06-26T07:12:00.245Z</time>
      </trkpt>
      <trkpt lat="51.75898" lon="6.51733">
        <ele>68.312141</ele>
        <time>2023-06-26T07:12:02.225Z</time>
      </trkpt>
      <trkpt lat="51.75895" lon="6.51752">
        <ele>68.362258</ele>
        <time>2023-06-26T07:12:04.232Z</time>
      </trkpt>
      <trkpt lat="51.75892" lon="6.51771">
        <ele>68.412876</ele>
        <time>2023-06-26T07:12:06.230Z</time>
      </trkpt>
      <trkpt lat="51.75889" lon="6.51789">
        <ele>68.461355</ele>
        <time>2023-06-26T07:12:08.226Z</time>
      </trkpt>
      <trkpt lat="51.75886" lon="6.51808">
        <ele>68.510723</ele>
        <time>2023-06-26T07:12:10.220Z</time>
      </trkpt>
      <trkpt lat="51.75883" lon="6.51826">
        <ele>68.558254</ele>
        <time>2023-06-26T07:12:12.220Z</time>
      </trkpt>
      <trkpt lat="51.7588" lon="6.51844">
        <ele>68.607698</ele>
        <time>2023-06-26T07:12:14.230Z</time>
      </trkpt>
      <trkpt lat="51.75876" lon="6.51864">
        <ele>68.661839</ele>
        <time>2023-06-26T07:12:16.241Z</time>
      </trkpt>
      <trkpt lat="51.75872" lon="6.51883">
        <ele>68.713391</ele>
        <time>2023-06-26T07:12:18.229Z</time>
      </trkpt>
      <trkpt lat="51.75869" lon="6.51901">
        <ele>68.763082</ele>
        <time>2023-06-26T07:12:20.235Z</time>
      </trkpt>
      <trkpt lat="51.75865" lon="6.51919">
        <ele>68.812158</ele>
        <time>2023-06-26T07:12:22.217Z</time>
      </trkpt>
      <trkpt lat="51.75861" lon="6.51937">
        <ele>68.859687</ele>
        <time>2023-06-26T07:12:24.223Z</time>
      </trkpt>
      <trkpt lat="51.75857" lon="6.51956">
        <ele>68.911361</ele>
        <time>2023-06-26T07:12:26.216Z</time>
      </trkpt>
      <trkpt lat="51.75854" lon="6.51975">
        <ele>68.849026</ele>
        <time>2023-06-26T07:12:28.206Z</time>
      </trkpt>
      <trkpt lat="51.75851" lon="6.51993">
        <ele>68.786562</ele>
        <time>2023-06-26T07:12:30.218Z</time>
      </trkpt>
      <trkpt lat="51.75848" lon="6.52012">
        <ele>68.721715</ele>
        <time>2023-06-26T07:12:32.225Z</time>
      </trkpt>
      <trkpt lat="51.75845" lon="6.52031">
        <ele>68.656384</ele>
        <time>2023-06-26T07:12:34.212Z</time>
      </trkpt>
      <trkpt lat="51.75842" lon="6.52048">
        <ele>68.597458</ele>
        <time>2023-06-26T07:12:36.230Z</time>
      </trkpt>
      <trkpt lat="51.75838" lon="6.52065">
        <ele>68.537734</ele>
        <time>2023-06-26T07:12:38.227Z</time>
      </trkpt>
      <trkpt lat="51.75835" lon="6.52083">
        <ele>68.473659</ele>
        <time>2023-06-26T07:12:40.213Z</time>
      </trkpt>
      <trkpt lat="51.75832" lon="6.52102">
        <ele>68.408499</ele>
        <time>2023-06-26T07:12:42.219Z</time>
      </trkpt>
      <trkpt lat="51.75829" lon="6.5212">
        <ele>68.344924</ele>
        <time>2023-06-26T07:12:44.223Z</time>
      </trkpt>
      <trkpt lat="51.75825" lon="6.52139">
        <ele>68.277696</ele>
        <time>2023-06-26T07:12:46.207Z</time>
      </trkpt>
      <trkpt lat="51.75822" lon="6.52158">
        <ele>68.211894</ele>
        <time>2023-06-26T07:12:48.223Z</time>
      </trkpt>
      <trkpt lat="51.75818" lon="6.52177">
        <ele>68.14817</ele>
        <time>2023-06-26T07:12:50.239Z</time>
      </trkpt>
      <trkpt lat="51.75816" lon="6.52194">
        <ele>68.087919</ele>
        <time>2023-06-26T07:12:52.216Z</time>
      </trkpt>
      <trkpt lat="51.75812" lon="6.52212">
        <ele>68.02402</ele>
        <time>2023-06-26T07:12:54.214Z</time>
      </trkpt>
      <trkpt lat="51.75808" lon="6.52231">
        <ele>67.958456</ele>
        <time>2023-06-26T07:12:56.222Z</time>
      </trkpt>
      <trkpt lat="51.75804" lon="6.5225">
        <ele>68.045014</ele>
        <time>2023-06-26T07:12:58.222Z</time>
      </trkpt>
      <trkpt lat="51.75801" lon="6.52269">
        <ele>68.178712</ele>
        <time>2023-06-26T07:13:00.214Z</time>
      </trkpt>
      <trkpt lat="51.75796" lon="6.52287">
        <ele>68.314221</ele>
        <time>2023-06-26T07:13:02.223Z</time>
      </trkpt>
      <trkpt lat="51.7579" lon="6.52306">
        <ele>68.456799</ele>
        <time>2023-06-26T07:13:04.217Z</time>
      </trkpt>
      <trkpt lat="51.75785" lon="6.52322">
        <ele>68.577157</ele>
        <time>2023-06-26T07:13:06.223Z</time>
      </trkpt>
      <trkpt lat="51.75779" lon="6.52339">
        <ele>68.710886</ele>
        <time>2023-06-26T07:13:08.212Z</time>
      </trkpt>
      <trkpt lat="51.75774" lon="6.52356">
        <ele>68.84201</ele>
        <time>2023-06-26T07:13:10.208Z</time>
      </trkpt>
      <trkpt lat="51.75769" lon="6.52373">
        <ele>68.971204</ele>
        <time>2023-06-26T07:13:12.203Z</time>
      </trkpt>
      <trkpt lat="51.75763" lon="6.5239">
        <ele>69.098969</ele>
        <time>2023-06-26T07:13:14.226Z</time>
      </trkpt>
      <trkpt lat="51.75757" lon="6.52405">
        <ele>69.222166</ele>
        <time>2023-06-26T07:13:16.220Z</time>
      </trkpt>
      <trkpt lat="51.75751" lon="6.52419">
        <ele>69.34295</ele>
        <time>2023-06-26T07:13:18.229Z</time>
      </trkpt>
      <trkpt lat="51.75745" lon="6.52433">
        <ele>69.457348</ele>
        <time>2023-06-26T07:13:20.206Z</time>
      </trkpt>
      <trkpt lat="51.75739" lon="6.52448">
        <ele>69.577568</ele>
        <time>2023-06-26T07:13:22.216Z</time>
      </trkpt>
      <trkpt lat="51.75733" lon="6.52464">
        <ele>69.700624</ele>
        <time>2023-06-26T07:13:24.223Z</time>
      </trkpt>
      <trkpt lat="51.75727" lon="6.5248">
        <ele>69.828451</ele>
        <time>2023-06-26T07:13:26.218Z</time>
      </trkpt>
      <trkpt lat="51.75723" lon="6.52495">
        <ele>69.910994</ele>
        <time>2023-06-26T07:13:28.221Z</time>
      </trkpt>
      <trkpt lat="51.75718" lon="6.52511">
        <ele>69.888634</ele>
        <time>2023-06-26T07:13:30.212Z</time>
      </trkpt>
      <trkpt lat="51.75713" lon="6.52527">
        <ele>69.867403</ele>
        <time>2023-06-26T07:13:32.221Z</time>
      </trkpt>
      <trkpt lat="51.7571" lon="6.52543">
        <ele>69.845898</ele>
        <time>2023-06-26T07:13:34.212Z</time>
      </trkpt>
      <trkpt lat="51.75706" lon="6.52559">
        <ele>69.824765</ele>
        <time>2023-06-26T07:13:36.242Z</time>
      </trkpt>
      <trkpt lat="51.75703" lon="6.52576">
        <ele>69.802528</ele>
        <time>2023-06-26T07:13:38.206Z</time>
      </trkpt>
      <trkpt lat="51.75699" lon="6.52593">
        <ele>69.780576</ele>
        <time>2023-06-26T07:13:40.222Z</time>
      </trkpt>
      <trkpt lat="51.75697" lon="6.5261">
        <ele>69.758718</ele>
        <time>2023-06-26T07:13:42.242Z</time>
      </trkpt>
      <trkpt lat="51.75694" lon="6.52627">
        <ele>69.73674</ele>
        <time>2023-06-26T07:13:44.220Z</time>
      </trkpt>
      <trkpt lat="51.75692" lon="6.52646">
        <ele>69.713477</ele>
        <time>2023-06-26T07:13:46.219Z</time>
      </trkpt>
      <trkpt lat="51.75689" lon="6.52663">
        <ele>69.690969</ele>
        <time>2023-06-26T07:13:48.228Z</time>
      </trkpt>
      <trkpt lat="51.75686" lon="6.52681">
        <ele>69.668233</ele>
        <time>2023-06-26T07:13:50.226Z</time>
      </trkpt>
      <trkpt lat="51.75685" lon="6.52698">
        <ele>69.647469</ele>
        <time>2023-06-26T07:13:52.220Z</time>
      </trkpt>
      <trkpt lat="51.75684" lon="6.52714">
        <ele>69.627733</ele>
        <time>2023-06-26T07:13:54.227Z</time>
      </trkpt>
      <trkpt lat="51.75682" lon="6.5273">
        <ele>69.607614</ele>
        <time>2023-06-26T07:13:56.228Z</time>
      </trkpt>
      <trkpt lat="51.7568" lon="6.52747">
        <ele>69.585973</ele>
        <time>2023-06-26T07:13:58.242Z</time>
      </trkpt>
      <trkpt lat="51.75678" lon="6.52765">
        <ele>69.563523</ele>
        <time>2023-06-26T07:14:00.216Z</time>
      </trkpt>
      <trkpt lat="51.75677" lon="6.52782">
        <ele>69.627817</ele>
        <time>2023-06-26T07:14:02.232Z</time>
      </trkpt>
      <trkpt lat="51.75674" lon="6.52799">
        <ele>69.747489</ele>
        <time>2023-06-26T07:14:04.220Z</time>
      </trkpt>
      <trkpt lat="51.75671" lon="6.52816">
        <ele>69.861978</ele>
        <time>2023-06-26T07:14:06.220Z</time>
      </trkpt>
      <trkpt lat="51.75668" lon="6.52832">
        <ele>69.977745</ele>
        <time>2023-06-26T07:14:08.221Z</time>
      </trkpt>
      <trkpt lat="51.75665" lon="6.52849">
        <ele>70.090958</ele>
        <time>2023-06-26T07:14:10.231Z</time>
      </trkpt>
      <trkpt lat="51.75661" lon="6.52865">
        <ele>70.211311</ele>
        <time>2023-06-26T07:14:12.232Z</time>
      </trkpt>
      <trkpt lat="51.75656" lon="6.52881">
        <ele>70.329692</ele>
        <time>2023-06-26T07:14:14.229Z</time>
      </trkpt>
      <trkpt lat="51.75651" lon="6.52897">
        <ele>70.446422</ele>
        <time>2023-06-26T07:14:16.228Z</time>
      </trkpt>
      <trkpt lat="51.75647" lon="6.52911">
        <ele>70.555802</ele>
        <time>2023-06-26T07:14:18.227Z</time>
      </trkpt>
      <trkpt lat="51.75642" lon="6.52926">
        <ele>70.665677</ele>
        <time>2023-06-26T07:14:20.226Z</time>
      </trkpt>
      <trkpt lat="51.75637" lon="6.52941">
        <ele>70.778328</ele>
        <time>2023-06-26T07:14:22.229Z</time>
      </trkpt>
      <trkpt lat="51.75631" lon="6.52955">
        <ele>70.892475</ele>
        <time>2023-06-26T07:14:24.226Z</time>
      </trkpt>
      <trkpt lat="51.75625" lon="6.52969">
        <ele>71.009122</ele>
        <time>2023-06-26T07:14:26.224Z</time>
      </trkpt>
      <trkpt lat="51.75619" lon="6.52984">
        <ele>71.126177</ele>
        <time>2023-06-26T07:14:28.229Z</time>
      </trkpt>
      <trkpt lat="51.75613" lon="6.52998">
        <ele>71.238854</ele>
        <time>2023-06-26T07:14:30.217Z</time>
      </trkpt>
      <trkpt lat="51.75606" lon="6.5301">
        <ele>71.351177</ele>
        <time>2023-06-26T07:14:32.228Z</time>
      </trkpt>
      <trkpt lat="51.75598" lon="6.53024">
        <ele>71.472031</ele>
        <time>2023-06-26T07:14:34.247Z</time>
      </trkpt>
      <trkpt lat="51.75591" lon="6.53036">
        <ele>71.379592</ele>
        <time>2023-06-26T07:14:36.247Z</time>
      </trkpt>
      <trkpt lat="51.75583" lon="6.53048">
        <ele>71.240983</ele>
        <time>2023-06-26T07:14:38.234Z</time>
      </trkpt>
      <trkpt lat="51.75576" lon="6.53061">
        <ele>71.101285</ele>
        <time>2023-06-26T07:14:40.221Z</time>
      </trkpt>
      <trkpt lat="51.75568" lon="6.53073">
        <ele>70.952931</ele>
        <time>2023-06-26T07:14:42.219Z</time>
      </trkpt>
      <trkpt lat="51.7556" lon="6.53085">
        <ele>70.81703</ele>
        <time>2023-06-26T07:14:44.206Z</time>
      </trkpt>
      <trkpt lat="51.75551" lon="6.53096">
        <ele>70.676157</ele>
        <time>2023-06-26T07:14:46.223Z</time>
      </trkpt>
      <trkpt lat="51.75543" lon="6.53107">
        <ele>70.529157</ele>
        <time>2023-06-26T07:14:48.217Z</time>
      </trkpt>
      <trkpt lat="51.75534" lon="6.53118">
        <ele>70.38161</ele>
        <time>2023-06-26T07:14:50.209Z</time>
      </trkpt>
      <trkpt lat="51.75524" lon="6.53128">
        <ele>70.23227</ele>
        <time>2023-06-26T07:14:52.207Z</time>
      </trkpt>
      <trkpt lat="51.75514" lon="6.53137">
        <ele>70.084146</ele>
        <time>2023-06-26T07:14:54.221Z</time>
      </trkpt>
      <trkpt lat="51.75504" lon="6.53146">
        <ele>69.932554</ele>
        <time>2023-06-26T07:14:56.216Z</time>
      </trkpt>
      <trkpt lat="51.75494" lon="6.53155">
        <ele>69.781753</ele>
        <time>2023-06-26T07:14:58.247Z</time>
      </trkpt>
      <trkpt lat="51.75483" lon="6.53163">
        <ele>69.629736</ele>
        <time>2023-06-26T07:15:00.242Z</time>
      </trkpt>
      <trkpt lat="51.75473" lon="6.53172">
        <ele>69.474672</ele>
        <time>2023-06-26T07:15:02.220Z</time>
      </trkpt>
      <trkpt lat="51.75463" lon="6.53181">
        <ele>69.329558</ele>
        <time>2023-06-26T07:15:04.245Z</time>
      </trkpt>
      <trkpt lat="51.75454" lon="6.53189">
        <ele>69.189994</ele>
        <time>2023-06-26T07:15:06.218Z</time>
      </trkpt>
      <trkpt lat="51.75444" lon="6.53197">
        <ele>69.111762</ele>
        <time>2023-06-26T07:15:08.208Z</time>
      </trkpt>
      <trkpt lat="51.75435" lon="6.53206">
        <ele>69.063316</ele>
        <time>2023-06-26T07:15:10.234Z</time>
      </trkpt>
      <trkpt lat="51.75426" lon="6.53214">
        <ele>69.01665</ele>
        <time>2023-06-26T07:15:12.221Z</time>
      </trkpt>
      <trkpt lat="51.75417" lon="6.53221">
        <ele>68.971777</ele>
        <time>2023-06-26T07:15:14.233Z</time>
      </trkpt>
      <trkpt lat="51.75407" lon="6.53228">
        <ele>68.922162</ele>
        <time>2023-06-26T07:15:16.226Z</time>
      </trkpt>
      <trkpt lat="51.75397" lon="6.53236">
        <ele>68.872577</ele>
        <time>2023-06-26T07:15:18.225Z</time>
      </trkpt>
      <trkpt lat="51.75387" lon="6.53245">
        <ele>68.822208</ele>
        <time>2023-06-26T07:15:20.227Z</time>
      </trkpt>
      <trkpt lat="51.75378" lon="6.53253">
        <ele>68.773278</ele>
        <time>2023-06-26T07:15:22.235Z</time>
      </trkpt>
      <trkpt lat="51.75368" lon="6.53262">
        <ele>68.724446</ele>
        <time>2023-06-26T07:15:24.206Z</time>
      </trkpt>
      <trkpt lat="51.75359" lon="6.53271">
        <ele>68.675368</ele>
        <time>2023-06-26T07:15:26.221Z</time>
      </trkpt>
      <trkpt lat="51.7535" lon="6.53278">
        <ele>68.62802</ele>
        <time>2023-06-26T07:15:28.221Z</time>
      </trkpt>
      <trkpt lat="51.7534" lon="6.53286">
        <ele>68.580145</ele>
        <time>2023-06-26T07:15:30.226Z</time>
      </trkpt>
      <trkpt lat="51.75331" lon="6.53294">
        <ele>68.531866</ele>
        <time>2023-06-26T07:15:32.227Z</time>
      </trkpt>
      <trkpt lat="51.75322" lon="6.53302">
        <ele>68.486124</ele>
        <time>2023-06-26T07:15:34.226Z</time>
      </trkpt>
      <trkpt lat="51.75313" lon="6.53309">
        <ele>68.440359</ele>
        <time>2023-06-26T07:15:36.223Z</time>
      </trkpt>
      <trkpt lat="51.75303" lon="6.53316">
        <ele>68.393258</ele>
        <time>2023-06-26T07:15:38.220Z</time>
      </trkpt>
      <trkpt lat="51.75294" lon="6.53324">
        <ele>68.346034</ele>
        <time>2023-06-26T07:15:40.232Z</time>
      </trkpt>
      <trkpt lat="51.75284" lon="6.53332">
        <ele>68.332918</ele>
        <time>2023-06-26T07:15:42.227Z</time>
      </trkpt>
      <trkpt lat="51.75275" lon="6.5334">
        <ele>68.331859</ele>
        <time>2023-06-26T07:15:44.225Z</time>
      </trkpt>
      <trkpt lat="51.75265" lon="6.53349">
        <ele>68.330758</ele>
        <time>2023-06-26T07:15:46.225Z</time>
      </trkpt>
      <trkpt lat="51.75255" lon="6.53357">
        <ele>68.329722</ele>
        <time>2023-06-26T07:15:48.227Z</time>
      </trkpt>
      <trkpt lat="51.75246" lon="6.53366">
        <ele>68.328672</ele>
        <time>2023-06-26T07:15:50.211Z</time>
      </trkpt>
      <trkpt lat="51.75236" lon="6.53374">
        <ele>68.327587</ele>
        <time>2023-06-26T07:15:52.234Z</time>
      </trkpt>
      <trkpt lat="51.75226" lon="6.53383">
        <ele>68.326492</ele>
        <time>2023-06-26T07:15:54.220Z</time>
      </trkpt>
      <trkpt lat="51.75217" lon="6.5339">
        <ele>68.325487</ele>
        <time>2023-06-26T07:15:56.230Z</time>
      </trkpt>
      <trkpt lat="51.75207" lon="6.53398">
        <ele>68.324465</ele>
        <time>2023-06-26T07:15:58.225Z</time>
      </trkpt>
      <trkpt lat="51.75197" lon="6.53406">
        <ele>68.323389</ele>
        <time>2023-06-26T07:16:00.226Z</time>
      </trkpt>
      <trkpt lat="51.75188" lon="6.53414">
        <ele>68.322362</ele>
        <time>2023-06-26T07:16:02.230Z</time>
      </trkpt>
      <trkpt lat="51.75179" lon="6.53422">
        <ele>68.32136</ele>
        <time>2023-06-26T07:16:04.241Z</time>
      </trkpt>
      <trkpt lat="51.7517" lon="6.5343">
        <ele>68.320326</ele>
        <time>2023-06-26T07:16:06.220Z</time>
      </trkpt>
      <trkpt lat="51.7516" lon="6.53438">
        <ele>68.319319</ele>
        <time>2023-06-26T07:16:08.228Z</time>
      </trkpt>
      <trkpt lat="51.75151" lon="6.53445">
        <ele>68.318303</ele>
        <time>2023-06-26T07:16:10.225Z</time>
      </trkpt>
      <trkpt lat="51.75142" lon="6.53454">
        <ele>68.317286</ele>
        <time>2023-06-26T07:16:12.220Z</time>
      </trkpt>
      <trkpt lat="51.75133" lon="6.53461">
        <ele>68.316359</ele>
        <time>2023-06-26T07:16:14.225Z</time>
      </trkpt>
      <trkpt lat="51.75125" lon="6.53469">
        <ele>68.388699</ele>
        <time>2023-06-26T07:16:16.246Z</time>
      </trkpt>
      <trkpt lat="51.75117" lon="6.53475">
        <ele>68.468963</ele>
        <time>2023-06-26T07:16:18.243Z</time>
      </trkpt>
      <trkpt lat="51.75107" lon="6.53486">
        <ele>68.570942</ele>
        <time>2023-06-26T07:16:21.245Z</time>
      </trkpt>
      <trkpt lat="51.75097" lon="6.535">
        <ele>68.686456</ele>
        <time>2023-06-26T07:16:24.232Z</time>
      </trkpt>
      <trkpt lat="51.75089" lon="6.53507">
        <ele>68.767218</ele>
        <time>2023-06-26T07:16:26.219Z</time>
      </trkpt>
      <trkpt lat="51.75077" lon="6.53517">
        <ele>68.888615</ele>
        <time>2023-06-26T07:16:29.228Z</time>
      </trkpt>
      <trkpt lat="51.75068" lon="6.53525">
        <ele>68.970407</ele>
        <time>2023-06-26T07:16:31.233Z</time>
      </trkpt>
      <trkpt lat="51.7506" lon="6.53531">
        <ele>69.050264</ele>
        <time>2023-06-26T07:16:33.208Z</time>
      </trkpt>
      <trkpt lat="51.75051" lon="6.53537">
        <ele>69.132625</ele>
        <time>2023-06-26T07:16:35.231Z</time>
      </trkpt>
      <trkpt lat="51.75042" lon="6.53539">
        <ele>69.212749</ele>
        <time>2023-06-26T07:16:37.214Z</time>
      </trkpt>
      <trkpt lat="51.75033" lon="6.53544">
        <ele>69.297356</ele>
        <time>2023-06-26T07:16:39.224Z</time>
      </trkpt>
      <trkpt lat="51.75024" lon="6.53553">
        <ele>69.385821</ele>
        <time>2023-06-26T07:16:41.248Z</time>
      </trkpt>
      <trkpt lat="51.75015" lon="6.53562">
        <ele>69.481528</ele>
        <time>2023-06-26T07:16:43.236Z</time>
      </trkpt>
      <trkpt lat="51.75007" lon="6.53571">
        <ele>69.570513</ele>
        <time>2023-06-26T07:16:45.226Z</time>
      </trkpt>
      <trkpt lat="51.74998" lon="6.5358">
        <ele>69.657563</ele>
        <time>2023-06-26T07:16:47.214Z</time>
      </trkpt>
      <trkpt lat="51.74991" lon="6.53589">
        <ele>69.741285</ele>
        <time>2023-06-26T07:16:49.222Z</time>
      </trkpt>
      <trkpt lat="51.74982" lon="6.536">
        <ele>69.833422</ele>
        <time>2023-06-26T07:16:51.232Z</time>
      </trkpt>
      <trkpt lat="51.74975" lon="6.5361">
        <ele>69.974671</ele>
        <time>2023-06-26T07:16:53.225Z</time>
      </trkpt>
      <trkpt lat="51.74969" lon="6.53621">
        <ele>70.180528</ele>
        <time>2023-06-26T07:16:55.223Z</time>
      </trkpt>
      <trkpt lat="51.7496" lon="6.53633">
        <ele>70.436929</ele>
        <time>2023-06-26T07:16:58.228Z</time>
      </trkpt>
      <trkpt lat="51.74954" lon="6.53644">
        <ele>70.643789</ele>
        <time>2023-06-26T07:17:01.208Z</time>
      </trkpt>
      <trkpt lat="51.74948" lon="6.53657">
        <ele>70.877953</ele>
        <time>2023-06-26T07:17:04.219Z</time>
      </trkpt>
      <trkpt lat="51.7494" lon="6.53675">
        <ele>71.18919</ele>
        <time>2023-06-26T07:17:07.223Z</time>
      </trkpt>
      <trkpt lat="51.74934" lon="6.53688">
        <ele>71.419734</ele>
        <time>2023-06-26T07:17:09.221Z</time>
      </trkpt>
      <trkpt lat="51.74928" lon="6.537">
        <ele>71.640786</ele>
        <time>2023-06-26T07:17:11.226Z</time>
      </trkpt>
      <trkpt lat="51.74923" lon="6.53713">
        <ele>71.853859</ele>
        <time>2023-06-26T07:17:13.220Z</time>
      </trkpt>
      <trkpt lat="51.74917" lon="6.53726">
        <ele>72.078315</ele>
        <time>2023-06-26T07:17:15.231Z</time>
      </trkpt>
      <trkpt lat="51.74912" lon="6.53739">
        <ele>72.285421</ele>
        <time>2023-06-26T07:17:17.222Z</time>
      </trkpt>
      <trkpt lat="51.74905" lon="6.53755">
        <ele>72.566182</ele>
        <time>2023-06-26T07:17:20.234Z</time>
      </trkpt>
      <trkpt lat="51.74902" lon="6.5377">
        <ele>72.790881</ele>
        <time>2023-06-26T07:17:23.221Z</time>
      </trkpt>
      <trkpt lat="51.74895" lon="6.53787">
        <ele>73.078546</ele>
        <time>2023-06-26T07:17:26.213Z</time>
      </trkpt>
      <trkpt lat="51.74888" lon="6.53804">
        <ele>73.361072</ele>
        <time>2023-06-26T07:17:29.228Z</time>
      </trkpt>
      <trkpt lat="51.74881" lon="6.53821">
        <ele>73.660873</ele>
        <time>2023-06-26T07:17:32.229Z</time>
      </trkpt>
      <trkpt lat="51.74876" lon="6.53834">
        <ele>73.867976</ele>
        <time>2023-06-26T07:17:34.246Z</time>
      </trkpt>
      <trkpt lat="51.74871" lon="6.53847">
        <ele>73.985529</ele>
        <time>2023-06-26T07:17:36.239Z</time>
      </trkpt>
      <trkpt lat="51.74863" lon="6.53866">
        <ele>74.020754</ele>
        <time>2023-06-26T07:17:39.223Z</time>
      </trkpt>
      <trkpt lat="51.74857" lon="6.53877">
        <ele>74.044506</ele>
        <time>2023-06-26T07:17:41.217Z</time>
      </trkpt>
      <trkpt lat="51.74851" lon="6.5389">
        <ele>74.07089</ele>
        <time>2023-06-26T07:17:43.219Z</time>
      </trkpt>
      <trkpt lat="51.74844" lon="6.53901">
        <ele>74.095607</ele>
        <time>2023-06-26T07:17:45.219Z</time>
      </trkpt>
      <trkpt lat="51.74837" lon="6.53911">
        <ele>74.120008</ele>
        <time>2023-06-26T07:17:47.218Z</time>
      </trkpt>
      <trkpt lat="51.7483" lon="6.53921">
        <ele>74.144031</ele>
        <time>2023-06-26T07:17:49.233Z</time>
      </trkpt>
      <trkpt lat="51.74824" lon="6.53932">
        <ele>74.16829</ele>
        <time>2023-06-26T07:17:51.237Z</time>
      </trkpt>
      <trkpt lat="51.74816" lon="6.53942">
        <ele>74.192613</ele>
        <time>2023-06-26T07:17:53.224Z</time>
      </trkpt>
      <trkpt lat="51.74809" lon="6.53952">
        <ele>74.218151</ele>
        <time>2023-06-26T07:17:55.239Z</time>
      </trkpt>
      <trkpt lat="51.74802" lon="6.53963">
        <ele>74.244094</ele>
        <time>2023-06-26T07:17:57.224Z</time>
      </trkpt>
      <trkpt lat="51.74794" lon="6.53974">
        <ele>74.269574</ele>
        <time>2023-06-26T07:17:59.223Z</time>
      </trkpt>
      <trkpt lat="51.74787" lon="6.53983">
        <ele>74.293794</ele>
        <time>2023-06-26T07:18:01.219Z</time>
      </trkpt>
      <trkpt lat="51.74776" lon="6.53994">
        <ele>74.326979</ele>
        <time>2023-06-26T07:18:04.218Z</time>
      </trkpt>
      <trkpt lat="51.74765" lon="6.54002">
        <ele>74.356955</ele>
        <time>2023-06-26T07:18:07.216Z</time>
      </trkpt>
      <trkpt lat="51.74759" lon="6.54012">
        <ele>74.380727</ele>
        <time>2023-06-26T07:18:09.224Z</time>
      </trkpt>
      <trkpt lat="51.74752" lon="6.54022">
        <ele>74.4045</ele>
        <time>2023-06-26T07:18:11.216Z</time>
      </trkpt>
      <trkpt lat="51.74745" lon="6.54031">
        <ele>74.428514</ele>
        <time>2023-06-26T07:18:13.220Z</time>
      </trkpt>
      <trkpt lat="51.74737" lon="6.54042">
        <ele>74.307629</ele>
        <time>2023-06-26T07:18:15.223Z</time>
      </trkpt>
      <trkpt lat="51.7473" lon="6.5405">
        <ele>74.128663</ele>
        <time>2023-06-26T07:18:17.224Z</time>
      </trkpt>
      <trkpt lat="51.74721" lon="6.54059">
        <ele>73.930485</ele>
        <time>2023-06-26T07:18:19.233Z</time>
      </trkpt>
      <trkpt lat="51.74714" lon="6.54068">
        <ele>73.746168</ele>
        <time>2023-06-26T07:18:21.230Z</time>
      </trkpt>
      <trkpt lat="51.74706" lon="6.54078">
        <ele>73.547411</ele>
        <time>2023-06-26T07:18:23.224Z</time>
      </trkpt>
      <trkpt lat="51.74698" lon="6.54088">
        <ele>73.353959</ele>
        <time>2023-06-26T07:18:25.208Z</time>
      </trkpt>
      <trkpt lat="51.7469" lon="6.541">
        <ele>73.139185</ele>
        <time>2023-06-26T07:18:27.221Z</time>
      </trkpt>
      <trkpt lat="51.74682" lon="6.54111">
        <ele>72.928927</ele>
        <time>2023-06-26T07:18:29.231Z</time>
      </trkpt>
      <trkpt lat="51.74674" lon="6.54121">
        <ele>72.735537</ele>
        <time>2023-06-26T07:18:31.226Z</time>
      </trkpt>
      <trkpt lat="51.74665" lon="6.54132">
        <ele>72.512151</ele>
        <time>2023-06-26T07:18:33.220Z</time>
      </trkpt>
      <trkpt lat="51.74655" lon="6.5414">
        <ele>72.280823</ele>
        <time>2023-06-26T07:18:35.221Z</time>
      </trkpt>
      <trkpt lat="51.74645" lon="6.5415">
        <ele>72.048392</ele>
        <time>2023-06-26T07:18:37.223Z</time>
      </trkpt>
      <trkpt lat="51.74636" lon="6.54161">
        <ele>71.822016</ele>
        <time>2023-06-26T07:18:39.219Z</time>
      </trkpt>
      <trkpt lat="51.74627" lon="6.54173">
        <ele>71.604842</ele>
        <time>2023-06-26T07:18:41.234Z</time>
      </trkpt>
      <trkpt lat="51.74619" lon="6.54184">
        <ele>71.39378</ele>
        <time>2023-06-26T07:18:43.223Z</time>
      </trkpt>
      <trkpt lat="51.7461" lon="6.54194">
        <ele>71.178799</ele>
        <time>2023-06-26T07:18:45.224Z</time>
      </trkpt>
      <trkpt lat="51.74602" lon="6.54206">
        <ele>70.966951</ele>
        <time>2023-06-26T07:18:47.228Z</time>
      </trkpt>
      <trkpt lat="51.74594" lon="6.54217">
        <ele>70.785642</ele>
        <time>2023-06-26T07:18:49.224Z</time>
      </trkpt>
      <trkpt lat="51.74587" lon="6.54231">
        <ele>70.61159</ele>
        <time>2023-06-26T07:18:51.238Z</time>
      </trkpt>
      <trkpt lat="51.7458" lon="6.54242">
        <ele>70.464495</ele>
        <time>2023-06-26T07:18:53.234Z</time>
      </trkpt>
      <trkpt lat="51.74572" lon="6.54253">
        <ele>70.305155</ele>
        <time>2023-06-26T07:18:55.221Z</time>
      </trkpt>
      <trkpt lat="51.74564" lon="6.54264">
        <ele>70.132774</ele>
        <time>2023-06-26T07:18:57.220Z</time>
      </trkpt>
      <trkpt lat="51.74557" lon="6.54279">
        <ele>69.954562</ele>
        <time>2023-06-26T07:18:59.238Z</time>
      </trkpt>
      <trkpt lat="51.7455" lon="6.54293">
        <ele>69.780311</ele>
        <time>2023-06-26T07:19:01.218Z</time>
      </trkpt>
      <trkpt lat="51.74542" lon="6.54308">
        <ele>69.599642</ele>
        <time>2023-06-26T07:19:03.214Z</time>
      </trkpt>
      <trkpt lat="51.74537" lon="6.54323">
        <ele>69.435463</ele>
        <time>2023-06-26T07:19:05.243Z</time>
      </trkpt>
      <trkpt lat="51.7453" lon="6.54337">
        <ele>69.265566</ele>
        <time>2023-06-26T07:19:07.244Z</time>
      </trkpt>
      <trkpt lat="51.74524" lon="6.54351">
        <ele>69.094571</ele>
        <time>2023-06-26T07:19:09.232Z</time>
      </trkpt>
      <trkpt lat="51.74517" lon="6.54366">
        <ele>68.916217</ele>
        <time>2023-06-26T07:19:11.222Z</time>
      </trkpt>
      <trkpt lat="51.7451" lon="6.54381">
        <ele>68.740647</ele>
        <time>2023-06-26T07:19:13.223Z</time>
      </trkpt>
      <trkpt lat="51.74503" lon="6.54395">
        <ele>68.573378</ele>
        <time>2023-06-26T07:19:15.227Z</time>
      </trkpt>
      <trkpt lat="51.74497" lon="6.5441">
        <ele>68.399148</ele>
        <time>2023-06-26T07:19:17.207Z</time>
      </trkpt>
      <trkpt lat="51.74491" lon="6.54423">
        <ele>68.244302</ele>
        <time>2023-06-26T07:19:19.219Z</time>
      </trkpt>
      <trkpt lat="51.74486" lon="6.54436">
        <ele>68.107721</ele>
        <time>2023-06-26T07:19:21.224Z</time>
      </trkpt>
      <trkpt lat="51.74478" lon="6.5445">
        <ele>68.064759</ele>
        <time>2023-06-26T07:19:24.244Z</time>
      </trkpt>
      <trkpt lat="51.7447" lon="6.54457">
        <ele>68.031331</ele>
        <time>2023-06-26T07:19:28.216Z</time>
      </trkpt>
      <trkpt lat="51.74461" lon="6.54462">
        <ele>67.995979</ele>
        <time>2023-06-26T07:19:34.215Z</time>
      </trkpt>
      <trkpt lat="51.7446" lon="6.54477">
        <ele>67.960591</ele>
        <time>2023-06-26T07:19:37.208Z</time>
      </trkpt>
      <trkpt lat="51.74463" lon="6.54492">
        <ele>67.923695</ele>
        <time>2023-06-26T07:19:40.216Z</time>
      </trkpt>
      <trkpt lat="51.74466" lon="6.54511">
        <ele>67.879011</ele>
        <time>2023-06-26T07:19:43.216Z</time>
      </trkpt>
      <trkpt lat="51.74469" lon="6.54525">
        <ele>67.845489</ele>
        <time>2023-06-26T07:19:45.245Z</time>
      </trkpt>
      <trkpt lat="51.74471" lon="6.54541">
        <ele>67.808395</ele>
        <time>2023-06-26T07:19:47.230Z</time>
      </trkpt>
      <trkpt lat="51.74473" lon="6.54557">
        <ele>67.770678</ele>
        <time>2023-06-26T07:19:49.239Z</time>
      </trkpt>
      <trkpt lat="51.74474" lon="6.54574">
        <ele>67.731648</ele>
        <time>2023-06-26T07:19:51.223Z</time>
      </trkpt>
      <trkpt lat="51.74476" lon="6.54591">
        <ele>67.693195</ele>
        <time>2023-06-26T07:19:53.235Z</time>
      </trkpt>
      <trkpt lat="51.74477" lon="6.54608">
        <ele>67.652687</ele>
        <time>2023-06-26T07:19:55.221Z</time>
      </trkpt>
      <trkpt lat="51.74479" lon="6.54625">
        <ele>67.613314</ele>
        <time>2023-06-26T07:19:57.230Z</time>
      </trkpt>
      <trkpt lat="51.7448" lon="6.54643">
        <ele>67.573832</ele>
        <time>2023-06-26T07:19:59.233Z</time>
      </trkpt>
      <trkpt lat="51.74479" lon="6.54661">
        <ele>67.532897</ele>
        <time>2023-06-26T07:20:01.230Z</time>
      </trkpt>
      <trkpt lat="51.74479" lon="6.54679">
        <ele>67.49153</ele>
        <time>2023-06-26T07:20:03.210Z</time>
      </trkpt>
      <trkpt lat="51.74479" lon="6.54696">
        <ele>67.451292</ele>
        <time>2023-06-26T07:20:05.230Z</time>
      </trkpt>
      <trkpt lat="51.74478" lon="6.54714">
        <ele>67.457659</ele>
        <time>2023-06-26T07:20:07.232Z</time>
      </trkpt>
      <trkpt lat="51.74477" lon="6.54731">
        <ele>67.467952</ele>
        <time>2023-06-26T07:20:09.230Z</time>
      </trkpt>
      <trkpt lat="51.74476" lon="6.5475">
        <ele>67.478645</ele>
        <time>2023-06-26T07:20:11.239Z</time>
      </trkpt>
      <trkpt lat="51.74474" lon="6.54768">
        <ele>67.489337</ele>
        <time>2023-06-26T07:20:13.219Z</time>
      </trkpt>
      <trkpt lat="51.74471" lon="6.54786">
        <ele>67.500251</ele>
        <time>2023-06-26T07:20:15.224Z</time>
      </trkpt>
      <trkpt lat="51.74468" lon="6.54805">
        <ele>67.511502</ele>
        <time>2023-06-26T07:20:17.223Z</time>
      </trkpt>
      <trkpt lat="51.74465" lon="6.54823">
        <ele>67.52249</ele>
        <time>2023-06-26T07:20:19.229Z</time>
      </trkpt>
      <trkpt lat="51.74461" lon="6.54839">
        <ele>67.532722</ele>
        <time>2023-06-26T07:20:21.240Z</time>
      </trkpt>
      <trkpt lat="51.74457" lon="6.54858">
        <ele>67.543989</ele>
        <time>2023-06-26T07:20:23.226Z</time>
      </trkpt>
      <trkpt lat="51.74453" lon="6.54875">
        <ele>67.554657</ele>
        <time>2023-06-26T07:20:25.250Z</time>
      </trkpt>
      <trkpt lat="51.74449" lon="6.54891">
        <ele>67.564834</ele>
        <time>2023-06-26T07:20:27.223Z</time>
      </trkpt>
      <trkpt lat="51.74444" lon="6.54906">
        <ele>67.57505</ele>
        <time>2023-06-26T07:20:29.229Z</time>
      </trkpt>
      <trkpt lat="51.74439" lon="6.54923">
        <ele>67.585781</ele>
        <time>2023-06-26T07:20:31.226Z</time>
      </trkpt>
      <trkpt lat="51.74434" lon="6.54938">
        <ele>67.595805</ele>
        <time>2023-06-26T07:20:33.225Z</time>
      </trkpt>
      <trkpt lat="51.74428" lon="6.54954">
        <ele>67.606452</ele>
        <time>2023-06-26T07:20:35.215Z</time>
      </trkpt>
      <trkpt lat="51.74422" lon="6.54969">
        <ele>67.617197</ele>
        <time>2023-06-26T07:20:37.222Z</time>
      </trkpt>
      <trkpt lat="51.74416" lon="6.54984">
        <ele>67.673986</ele>
        <time>2023-06-26T07:20:39.216Z</time>
      </trkpt>
      <trkpt lat="51.7441" lon="6.54998">
        <ele>67.729419</ele>
        <time>2023-06-26T07:20:41.237Z</time>
      </trkpt>
      <trkpt lat="51.74403" lon="6.55012">
        <ele>67.786202</ele>
        <time>2023-06-26T07:20:43.215Z</time>
      </trkpt>
      <trkpt lat="51.74396" lon="6.55026">
        <ele>67.842978</ele>
        <time>2023-06-26T07:20:45.225Z</time>
      </trkpt>
      <trkpt lat="51.74389" lon="6.5504">
        <ele>67.90049</ele>
        <time>2023-06-26T07:20:47.222Z</time>
      </trkpt>
      <trkpt lat="51.74382" lon="6.55052">
        <ele>67.954795</ele>
        <time>2023-06-26T07:20:49.236Z</time>
      </trkpt>
      <trkpt lat="51.74375" lon="6.55065">
        <ele>68.00931</ele>
        <time>2023-06-26T07:20:51.240Z</time>
      </trkpt>
      <trkpt lat="51.74367" lon="6.55077">
        <ele>68.065236</ele>
        <time>2023-06-26T07:20:53.219Z</time>
      </trkpt>
      <trkpt lat="51.74359" lon="6.55089">
        <ele>68.123769</ele>
        <time>2023-06-26T07:20:55.230Z</time>
      </trkpt>
      <trkpt lat="51.74351" lon="6.55102">
        <ele>68.182292</ele>
        <time>2023-06-26T07:20:57.225Z</time>
      </trkpt>
      <trkpt lat="51.74343" lon="6.55115">
        <ele>68.239138</ele>
        <time>2023-06-26T07:20:59.225Z</time>
      </trkpt>
      <trkpt lat="51.74335" lon="6.55127">
        <ele>68.297453</ele>
        <time>2023-06-26T07:21:01.233Z</time>
      </trkpt>
      <trkpt lat="51.74327" lon="6.55139">
        <ele>68.351313</ele>
        <time>2023-06-26T07:21:03.232Z</time>
      </trkpt>
      <trkpt lat="51.74319" lon="6.55151">
        <ele>68.408199</ele>
        <time>2023-06-26T07:21:05.230Z</time>
      </trkpt>
      <trkpt lat="51.74311" lon="6.55163">
        <ele>68.465916</ele>
        <time>2023-06-26T07:21:07.222Z</time>
      </trkpt>
      <trkpt lat="51.74303" lon="6.55174">
        <ele>68.520703</ele>
        <time>2023-06-26T07:21:09.227Z</time>
      </trkpt>
      <trkpt lat="51.74295" lon="6.55186">
        <ele>68.54121</ele>
        <time>2023-06-26T07:21:11.225Z</time>
      </trkpt>
      <trkpt lat="51.74287" lon="6.552">
        <ele>68.525642</ele>
        <time>2023-06-26T07:21:13.242Z</time>
      </trkpt>
      <trkpt lat="51.7428" lon="6.55212">
        <ele>68.511186</ele>
        <time>2023-06-26T07:21:15.238Z</time>
      </trkpt>
      <trkpt lat="51.74271" lon="6.55224">
        <ele>68.496405</ele>
        <time>2023-06-26T07:21:17.227Z</time>
      </trkpt>
      <trkpt lat="51.74263" lon="6.55237">
        <ele>68.48059</ele>
        <time>2023-06-26T07:21:19.249Z</time>
      </trkpt>
      <trkpt lat="51.74255" lon="6.55249">
        <ele>68.465684</ele>
        <time>2023-06-26T07:21:21.225Z</time>
      </trkpt>
      <trkpt lat="51.74247" lon="6.5526">
        <ele>68.451402</ele>
        <time>2023-06-26T07:21:23.216Z</time>
      </trkpt>
      <trkpt lat="51.7424" lon="6.55272">
        <ele>68.437353</ele>
        <time>2023-06-26T07:21:25.224Z</time>
      </trkpt>
      <trkpt lat="51.74232" lon="6.55285">
        <ele>68.422567</ele>
        <time>2023-06-26T07:21:27.222Z</time>
      </trkpt>
      <trkpt lat="51.74224" lon="6.55296">
        <ele>68.408363</ele>
        <time>2023-06-26T07:21:29.235Z</time>
      </trkpt>
      <trkpt lat="51.74217" lon="6.55308">
        <ele>68.393982</ele>
        <time>2023-06-26T07:21:31.238Z</time>
      </trkpt>
      <trkpt lat="51.74209" lon="6.5532">
        <ele>68.379232</ele>
        <time>2023-06-26T07:21:33.215Z</time>
      </trkpt>
      <trkpt lat="51.74201" lon="6.55332">
        <ele>68.364621</ele>
        <time>2023-06-26T07:21:35.205Z</time>
      </trkpt>
      <trkpt lat="51.74193" lon="6.55345">
        <ele>68.349739</ele>
        <time>2023-06-26T07:21:37.223Z</time>
      </trkpt>
      <trkpt lat="51.74185" lon="6.55357">
        <ele>68.334776</ele>
        <time>2023-06-26T07:21:39.244Z</time>
      </trkpt>
      <trkpt lat="51.74177" lon="6.55369">
        <ele>68.31987</ele>
        <time>2023-06-26T07:21:41.225Z</time>
      </trkpt>
      <trkpt lat="51.74168" lon="6.55381">
        <ele>68.305904</ele>
        <time>2023-06-26T07:21:43.234Z</time>
      </trkpt>
      <trkpt lat="51.7416" lon="6.55393">
        <ele>68.315186</ele>
        <time>2023-06-26T07:21:45.226Z</time>
      </trkpt>
      <trkpt lat="51.74152" lon="6.55406">
        <ele>68.324817</ele>
        <time>2023-06-26T07:21:47.234Z</time>
      </trkpt>
      <trkpt lat="51.74144" lon="6.55418">
        <ele>68.334239</ele>
        <time>2023-06-26T07:21:49.229Z</time>
      </trkpt>
      <trkpt lat="51.74136" lon="6.55431">
        <ele>68.343716</ele>
        <time>2023-06-26T07:21:51.201Z</time>
      </trkpt>
      <trkpt lat="51.74128" lon="6.55443">
        <ele>68.352891</ele>
        <time>2023-06-26T07:21:53.210Z</time>
      </trkpt>
      <trkpt lat="51.74119" lon="6.55456">
        <ele>68.362522</ele>
        <time>2023-06-26T07:21:55.228Z</time>
      </trkpt>
      <trkpt lat="51.74111" lon="6.55469">
        <ele>68.371793</ele>
        <time>2023-06-26T07:21:57.219Z</time>
      </trkpt>
      <trkpt lat="51.74104" lon="6.55481">
        <ele>68.38105</ele>
        <time>2023-06-26T07:21:59.225Z</time>
      </trkpt>
      <trkpt lat="51.74096" lon="6.55494">
        <ele>68.390089</ele>
        <time>2023-06-26T07:22:01.230Z</time>
      </trkpt>
      <trkpt lat="51.74087" lon="6.55506">
        <ele>68.399802</ele>
        <time>2023-06-26T07:22:03.242Z</time>
      </trkpt>
      <trkpt lat="51.74079" lon="6.55518">
        <ele>68.409155</ele>
        <time>2023-06-26T07:22:05.228Z</time>
      </trkpt>
      <trkpt lat="51.74071" lon="6.5553">
        <ele>68.418461</ele>
        <time>2023-06-26T07:22:07.241Z</time>
      </trkpt>
      <trkpt lat="51.74062" lon="6.55543">
        <ele>68.42826</ele>
        <time>2023-06-26T07:22:09.244Z</time>
      </trkpt>
      <trkpt lat="51.74054" lon="6.55556">
        <ele>68.437938</ele>
        <time>2023-06-26T07:22:11.234Z</time>
      </trkpt>
      <trkpt lat="51.74046" lon="6.5557">
        <ele>68.447941</ele>
        <time>2023-06-26T07:22:13.230Z</time>
      </trkpt>
      <trkpt lat="51.74037" lon="6.55583">
        <ele>68.45424</ele>
        <time>2023-06-26T07:22:15.240Z</time>
      </trkpt>
      <trkpt lat="51.74029" lon="6.55596">
        <ele>68.443225</ele>
        <time>2023-06-26T07:22:17.248Z</time>
      </trkpt>
      <trkpt lat="51.7402" lon="6.55609">
        <ele>68.432552</ele>
        <time>2023-06-26T07:22:19.235Z</time>
      </trkpt>
      <trkpt lat="51.74012" lon="6.55622">
        <ele>68.421694</ele>
        <time>2023-06-26T07:22:21.229Z</time>
      </trkpt>
      <trkpt lat="51.74004" lon="6.55635">
        <ele>68.411075</ele>
        <time>2023-06-26T07:22:23.222Z</time>
      </trkpt>
      <trkpt lat="51.73996" lon="6.55648">
        <ele>68.400713</ele>
        <time>2023-06-26T07:22:25.226Z</time>
      </trkpt>
      <trkpt lat="51.73987" lon="6.55662">
        <ele>68.389376</ele>
        <time>2023-06-26T07:22:27.238Z</time>
      </trkpt>
      <trkpt lat="51.7398" lon="6.55675">
        <ele>68.379223</ele>
        <time>2023-06-26T07:22:29.235Z</time>
      </trkpt>
      <trkpt lat="51.73972" lon="6.55689">
        <ele>68.368345</ele>
        <time>2023-06-26T07:22:31.235Z</time>
      </trkpt>
      <trkpt lat="51.73965" lon="6.55703">
        <ele>68.35825</ele>
        <time>2023-06-26T07:22:33.229Z</time>
      </trkpt>
      <trkpt lat="51.73958" lon="6.55715">
        <ele>68.348055</ele>
        <time>2023-06-26T07:22:35.223Z</time>
      </trkpt>
      <trkpt lat="51.73951" lon="6.5573">
        <ele>68.337531</ele>
        <time>2023-06-26T07:22:37.241Z</time>
      </trkpt>
      <trkpt lat="51.73943" lon="6.55743">
        <ele>68.327288</ele>
        <time>2023-06-26T07:22:39.220Z</time>
      </trkpt>
      <trkpt lat="51.73936" lon="6.55758">
        <ele>68.316557</ele>
        <time>2023-06-26T07:22:41.237Z</time>
      </trkpt>
      <trkpt lat="51.73929" lon="6.55772">
        <ele>68.305987</ele>
        <time>2023-06-26T07:22:43.235Z</time>
      </trkpt>
      <trkpt lat="51.73922" lon="6.55786">
        <ele>68.296027</ele>
        <time>2023-06-26T07:22:45.228Z</time>
      </trkpt>
      <trkpt lat="51.73916" lon="6.558">
        <ele>68.279791</ele>
        <time>2023-06-26T07:22:47.226Z</time>
      </trkpt>
      <trkpt lat="51.7391" lon="6.55816">
        <ele>68.247778</ele>
        <time>2023-06-26T07:22:49.222Z</time>
      </trkpt>
      <trkpt lat="51.73904" lon="6.55832">
        <ele>68.215774</ele>
        <time>2023-06-26T07:22:51.220Z</time>
      </trkpt>
      <trkpt lat="51.73899" lon="6.55844">
        <ele>68.190484</ele>
        <time>2023-06-26T07:22:53.237Z</time>
      </trkpt>
      <trkpt lat="51.73906" lon="6.55832">
        <ele>68.162777</ele>
        <time>2023-06-26T07:23:05.225Z</time>
      </trkpt>
      <trkpt lat="51.73911" lon="6.55819">
        <ele>68.135018</ele>
        <time>2023-06-26T07:23:08.211Z</time>
      </trkpt>
      <trkpt lat="51.73917" lon="6.55804">
        <ele>68.104482</ele>
        <time>2023-06-26T07:23:11.235Z</time>
      </trkpt>
      <trkpt lat="51.73923" lon="6.55788">
        <ele>68.073651</ele>
        <time>2023-06-26T07:23:14.227Z</time>
      </trkpt>
      <trkpt lat="51.73929" lon="6.55773">
        <ele>68.041327</ele>
        <time>2023-06-26T07:23:17.222Z</time>
      </trkpt>
      <trkpt lat="51.73936" lon="6.55758">
        <ele>68.009678</ele>
        <time>2023-06-26T07:23:20.218Z</time>
      </trkpt>
      <trkpt lat="51.73942" lon="6.55747">
        <ele>67.984181</ele>
        <time>2023-06-26T07:23:23.205Z</time>
      </trkpt>
      <trkpt lat="51.73933" lon="6.55745">
        <ele>67.956615</ele>
        <time>2023-06-26T07:23:31.227Z</time>
      </trkpt>
      <trkpt lat="51.73925" lon="6.55754">
        <ele>67.930538</ele>
        <time>2023-06-26T07:23:34.227Z</time>
      </trkpt>
      <trkpt lat="51.73918" lon="6.55764">
        <ele>67.905153</ele>
        <time>2023-06-26T07:23:37.234Z</time>
      </trkpt>
      <trkpt lat="51.7391" lon="6.55774">
        <ele>67.876069</ele>
        <time>2023-06-26T07:23:40.223Z</time>
      </trkpt>
      <trkpt lat="51.73901" lon="6.55785">
        <ele>67.844491</ele>
        <time>2023-06-26T07:23:43.228Z</time>
      </trkpt>
      <trkpt lat="51.73893" lon="6.55793">
        <ele>67.819169</ele>
        <time>2023-06-26T07:23:45.236Z</time>
      </trkpt>
      <trkpt lat="51.73886" lon="6.55802">
        <ele>67.793886</ele>
        <time>2023-06-26T07:23:47.243Z</time>
      </trkpt>
      <trkpt lat="51.73879" lon="6.55812">
        <ele>67.807166</ele>
        <time>2023-06-26T07:23:49.228Z</time>
      </trkpt>
      <trkpt lat="51.73872" lon="6.55821">
        <ele>67.83361</ele>
        <time>2023-06-26T07:23:51.236Z</time>
      </trkpt>
      <trkpt lat="51.73864" lon="6.55832">
        <ele>67.862371</ele>
        <time>2023-06-26T07:23:53.238Z</time>
      </trkpt>
      <trkpt lat="51.73856" lon="6.55842">
        <ele>67.891907</ele>
        <time>2023-06-26T07:23:55.204Z</time>
      </trkpt>
      <trkpt lat="51.73848" lon="6.55852">
        <ele>67.920341</ele>
        <time>2023-06-26T07:23:57.241Z</time>
      </trkpt>
      <trkpt lat="51.7384" lon="6.55862">
        <ele>67.949453</ele>
        <time>2023-06-26T07:23:59.238Z</time>
      </trkpt>
      <trkpt lat="51.73832" lon="6.55872">
        <ele>67.97911</ele>
        <time>2023-06-26T07:24:01.237Z</time>
      </trkpt>
      <trkpt lat="51.73824" lon="6.55882">
        <ele>68.007761</ele>
        <time>2023-06-26T07:24:03.219Z</time>
      </trkpt>
      <trkpt lat="51.73816" lon="6.55893">
        <ele>68.037079</ele>
        <time>2023-06-26T07:24:05.228Z</time>
      </trkpt>
      <trkpt lat="51.73807" lon="6.55903">
        <ele>68.066982</ele>
        <time>2023-06-26T07:24:07.232Z</time>
      </trkpt>
      <trkpt lat="51.73799" lon="6.55912">
        <ele>68.095474</ele>
        <time>2023-06-26T07:24:09.234Z</time>
      </trkpt>
      <trkpt lat="51.73791" lon="6.55923">
        <ele>68.124681</ele>
        <time>2023-06-26T07:24:11.230Z</time>
      </trkpt>
      <trkpt lat="51.73782" lon="6.55933">
        <ele>68.155337</ele>
        <time>2023-06-26T07:24:13.223Z</time>
      </trkpt>
      <trkpt lat="51.73774" lon="6.55945">
        <ele>68.18721</ele>
        <time>2023-06-26T07:24:15.229Z</time>
      </trkpt>
      <trkpt lat="51.73765" lon="6.55956">
        <ele>68.218865</ele>
        <time>2023-06-26T07:24:17.237Z</time>
      </trkpt>
      <trkpt lat="51.73757" lon="6.55966">
        <ele>68.249396</ele>
        <time>2023-06-26T07:24:19.227Z</time>
      </trkpt>
      <trkpt lat="51.73748" lon="6.55977">
        <ele>68.281404</ele>
        <time>2023-06-26T07:24:21.212Z</time>
      </trkpt>
      <trkpt lat="51.73739" lon="6.55989">
        <ele>68.339119</ele>
        <time>2023-06-26T07:24:23.250Z</time>
      </trkpt>
      <trkpt lat="51.73731" lon="6.55999">
        <ele>68.428208</ele>
        <time>2023-06-26T07:24:25.233Z</time>
      </trkpt>
      <trkpt lat="51.73723" lon="6.56009">
        <ele>68.51561</ele>
        <time>2023-06-26T07:24:27.222Z</time>
      </trkpt>
      <trkpt lat="51.73715" lon="6.56018">
        <ele>68.598487</ele>
        <time>2023-06-26T07:24:29.236Z</time>
      </trkpt>
      <trkpt lat="51.73704" lon="6.56031">
        <ele>68.712268</ele>
        <time>2023-06-26T07:24:32.226Z</time>
      </trkpt>
      <trkpt lat="51.73697" lon="6.56039">
        <ele>68.792222</ele>
        <time>2023-06-26T07:24:34.221Z</time>
      </trkpt>
      <trkpt lat="51.73689" lon="6.56049">
        <ele>68.8736</ele>
        <time>2023-06-26T07:24:36.231Z</time>
      </trkpt>
      <trkpt lat="51.73682" lon="6.56058">
        <ele>68.955166</ele>
        <time>2023-06-26T07:24:38.235Z</time>
      </trkpt>
      <trkpt lat="51.73674" lon="6.56066">
        <ele>69.0374</ele>
        <time>2023-06-26T07:24:40.221Z</time>
      </trkpt>
      <trkpt lat="51.73666" lon="6.56075">
        <ele>69.118784</ele>
        <time>2023-06-26T07:24:42.245Z</time>
      </trkpt>
      <trkpt lat="51.73658" lon="6.56085">
        <ele>69.201498</ele>
        <time>2023-06-26T07:24:44.224Z</time>
      </trkpt>
      <trkpt lat="51.7365" lon="6.56094">
        <ele>69.289512</ele>
        <time>2023-06-26T07:24:46.218Z</time>
      </trkpt>
      <trkpt lat="51.73641" lon="6.56105">
        <ele>69.380929</ele>
        <time>2023-06-26T07:24:48.220Z</time>
      </trkpt>
      <trkpt lat="51.73633" lon="6.56115">
        <ele>69.470705</ele>
        <time>2023-06-26T07:24:50.224Z</time>
      </trkpt>
      <trkpt lat="51.73624" lon="6.56125">
        <ele>69.562556</ele>
        <time>2023-06-26T07:24:52.221Z</time>
      </trkpt>
      <trkpt lat="51.73616" lon="6.56135">
        <ele>69.653973</ele>
        <time>2023-06-26T07:24:54.230Z</time>
      </trkpt>
      <trkpt lat="51.73607" lon="6.56146">
        <ele>69.749235</ele>
        <time>2023-06-26T07:24:56.222Z</time>
      </trkpt>
      <trkpt lat="51.73598" lon="6.56156">
        <ele>69.840705</ele>
        <time>2023-06-26T07:24:58.222Z</time>
      </trkpt>
      <trkpt lat="51.7359" lon="6.56166">
        <ele>69.880919</ele>
        <time>2023-06-26T07:25:00.221Z</time>
      </trkpt>
      <trkpt lat="51.73582" lon="6.56176">
        <ele>69.918852</ele>
        <time>2023-06-26T07:25:02.207Z</time>
      </trkpt>
      <trkpt lat="51.73573" lon="6.56185">
        <ele>69.958302</ele>
        <time>2023-06-26T07:25:04.220Z</time>
      </trkpt>
      <trkpt lat="51.73565" lon="6.56195">
        <ele>69.99843</ele>
        <time>2023-06-26T07:25:06.224Z</time>
      </trkpt>
      <trkpt lat="51.73556" lon="6.56205">
        <ele>70.037842</ele>
        <time>2023-06-26T07:25:08.243Z</time>
      </trkpt>
      <trkpt lat="51.73548" lon="6.56215">
        <ele>70.077008</ele>
        <time>2023-06-26T07:25:10.226Z</time>
      </trkpt>
      <trkpt lat="51.7354" lon="6.56224">
        <ele>70.114742</ele>
        <time>2023-06-26T07:25:12.227Z</time>
      </trkpt>
      <trkpt lat="51.73532" lon="6.56233">
        <ele>70.151091</ele>
        <time>2023-06-26T07:25:14.224Z</time>
      </trkpt>
      <trkpt lat="51.73524" lon="6.56243">
        <ele>70.188995</ele>
        <time>2023-06-26T07:25:16.227Z</time>
      </trkpt>
      <trkpt lat="51.73517" lon="6.56252">
        <ele>70.225717</ele>
        <time>2023-06-26T07:25:18.247Z</time>
      </trkpt>
      <trkpt lat="51.73509" lon="6.56262">
        <ele>70.26303</ele>
        <time>2023-06-26T07:25:20.223Z</time>
      </trkpt>
      <trkpt lat="51.73501" lon="6.56271">
        <ele>70.30072</ele>
        <time>2023-06-26T07:25:22.241Z</time>
      </trkpt>
      <trkpt lat="51.73493" lon="6.56281">
        <ele>70.339099</ele>
        <time>2023-06-26T07:25:24.229Z</time>
      </trkpt>
      <trkpt lat="51.73484" lon="6.5629">
        <ele>70.377207</ele>
        <time>2023-06-26T07:25:26.227Z</time>
      </trkpt>
      <trkpt lat="51.73476" lon="6.563">
        <ele>70.41689</ele>
        <time>2023-06-26T07:25:28.251Z</time>
      </trkpt>
      <trkpt lat="51.73467" lon="6.5631">
        <ele>70.457624</ele>
        <time>2023-06-26T07:25:30.233Z</time>
      </trkpt>
      <trkpt lat="51.73458" lon="6.5632">
        <ele>70.498307</ele>
        <time>2023-06-26T07:25:32.241Z</time>
      </trkpt>
      <trkpt lat="51.7345" lon="6.56329">
        <ele>70.495017</ele>
        <time>2023-06-26T07:25:34.223Z</time>
      </trkpt>
      <trkpt lat="51.73441" lon="6.5634">
        <ele>70.399647</ele>
        <time>2023-06-26T07:25:36.216Z</time>
      </trkpt>
      <trkpt lat="51.73432" lon="6.56351">
        <ele>70.302487</ele>
        <time>2023-06-26T07:25:38.243Z</time>
      </trkpt>
      <trkpt lat="51.73423" lon="6.5636">
        <ele>70.208223</ele>
        <time>2023-06-26T07:25:40.227Z</time>
      </trkpt>
      <trkpt lat="51.73414" lon="6.56371">
        <ele>70.113502</ele>
        <time>2023-06-26T07:25:42.218Z</time>
      </trkpt>
      <trkpt lat="51.73406" lon="6.56381">
        <ele>70.017432</ele>
        <time>2023-06-26T07:25:44.232Z</time>
      </trkpt>
      <trkpt lat="51.73397" lon="6.56392">
        <ele>69.92271</ele>
        <time>2023-06-26T07:25:46.242Z</time>
      </trkpt>
      <trkpt lat="51.73388" lon="6.56403">
        <ele>69.825008</ele>
        <time>2023-06-26T07:25:48.235Z</time>
      </trkpt>
      <trkpt lat="51.73379" lon="6.56414">
        <ele>69.726602</ele>
        <time>2023-06-26T07:25:50.228Z</time>
      </trkpt>
      <trkpt lat="51.73371" lon="6.56425">
        <ele>69.632297</ele>
        <time>2023-06-26T07:25:52.224Z</time>
      </trkpt>
      <trkpt lat="51.73363" lon="6.56436">
        <ele>69.539009</ele>
        <time>2023-06-26T07:25:54.227Z</time>
      </trkpt>
      <trkpt lat="51.73354" lon="6.56444">
        <ele>69.450028</ele>
        <time>2023-06-26T07:25:56.222Z</time>
      </trkpt>
      <trkpt lat="51.73345" lon="6.56452">
        <ele>69.363212</ele>
        <time>2023-06-26T07:25:58.224Z</time>
      </trkpt>
      <trkpt lat="51.73337" lon="6.56463">
        <ele>69.270256</ele>
        <time>2023-06-26T07:26:00.222Z</time>
      </trkpt>
      <trkpt lat="51.73328" lon="6.56473">
        <ele>69.173898</ele>
        <time>2023-06-26T07:26:02.229Z</time>
      </trkpt>
      <trkpt lat="51.7332" lon="6.56484">
        <ele>69.081601</ele>
        <time>2023-06-26T07:26:04.223Z</time>
      </trkpt>
      <trkpt lat="51.73311" lon="6.56494">
        <ele>68.988466</ele>
        <time>2023-06-26T07:26:06.226Z</time>
      </trkpt>
      <trkpt lat="51.73302" lon="6.56504">
        <ele>69.021772</ele>
        <time>2023-06-26T07:26:08.233Z</time>
      </trkpt>
      <trkpt lat="51.73293" lon="6.56514">
        <ele>69.130251</ele>
        <time>2023-06-26T07:26:10.234Z</time>
      </trkpt>
      <trkpt lat="51.73284" lon="6.56525">
        <ele>69.241736</ele>
        <time>2023-06-26T07:26:12.224Z</time>
      </trkpt>
      <trkpt lat="51.73275" lon="6.56534">
        <ele>69.35265</ele>
        <time>2023-06-26T07:26:14.220Z</time>
      </trkpt>
      <trkpt lat="51.73267" lon="6.56545">
        <ele>69.460749</ele>
        <time>2023-06-26T07:26:16.222Z</time>
      </trkpt>
      <trkpt lat="51.73258" lon="6.56555">
        <ele>69.567725</ele>
        <time>2023-06-26T07:26:18.226Z</time>
      </trkpt>
      <trkpt lat="51.7325" lon="6.56564">
        <ele>69.674557</ele>
        <time>2023-06-26T07:26:20.227Z</time>
      </trkpt>
      <trkpt lat="51.73241" lon="6.56573">
        <ele>69.781883</ele>
        <time>2023-06-26T07:26:22.230Z</time>
      </trkpt>
      <trkpt lat="51.73232" lon="6.56583">
        <ele>69.88584</ele>
        <time>2023-06-26T07:26:24.221Z</time>
      </trkpt>
      <trkpt lat="51.73224" lon="6.56594">
        <ele>69.994671</ele>
        <time>2023-06-26T07:26:26.222Z</time>
      </trkpt>
      <trkpt lat="51.73216" lon="6.56604">
        <ele>70.099545</ele>
        <time>2023-06-26T07:26:28.224Z</time>
      </trkpt>
      <trkpt lat="51.73207" lon="6.56613">
        <ele>70.207037</ele>
        <time>2023-06-26T07:26:30.226Z</time>
      </trkpt>
      <trkpt lat="51.73198" lon="6.56623">
        <ele>70.320555</ele>
        <time>2023-06-26T07:26:32.244Z</time>
      </trkpt>
      <trkpt lat="51.73189" lon="6.56634">
        <ele>70.431417</ele>
        <time>2023-06-26T07:26:34.220Z</time>
      </trkpt>
      <trkpt lat="51.73181" lon="6.56644">
        <ele>70.540663</ele>
        <time>2023-06-26T07:26:36.214Z</time>
      </trkpt>
      <trkpt lat="51.73172" lon="6.56655">
        <ele>70.649524</ele>
        <time>2023-06-26T07:26:38.232Z</time>
      </trkpt>
      <trkpt lat="51.73163" lon="6.56665">
        <ele>70.76008</ele>
        <time>2023-06-26T07:26:40.233Z</time>
      </trkpt>
      <trkpt lat="51.73155" lon="6.56676">
        <ele>70.770549</ele>
        <time>2023-06-26T07:26:42.226Z</time>
      </trkpt>
      <trkpt lat="51.73146" lon="6.56686">
        <ele>70.75735</ele>
        <time>2023-06-26T07:26:44.223Z</time>
      </trkpt>
      <trkpt lat="51.73137" lon="6.56696">
        <ele>70.744069</ele>
        <time>2023-06-26T07:26:46.223Z</time>
      </trkpt>
      <trkpt lat="51.73128" lon="6.56706">
        <ele>70.730987</ele>
        <time>2023-06-26T07:26:48.251Z</time>
      </trkpt>
      <trkpt lat="51.73118" lon="6.56717">
        <ele>70.717356</ele>
        <time>2023-06-26T07:26:50.241Z</time>
      </trkpt>
      <trkpt lat="51.73109" lon="6.56728">
        <ele>70.703735</ele>
        <time>2023-06-26T07:26:52.233Z</time>
      </trkpt>
      <trkpt lat="51.731" lon="6.56739">
        <ele>70.690223</ele>
        <time>2023-06-26T07:26:54.231Z</time>
      </trkpt>
      <trkpt lat="51.7309" lon="6.56749">
        <ele>70.67642</ele>
        <time>2023-06-26T07:26:56.225Z</time>
      </trkpt>
      <trkpt lat="51.73081" lon="6.56757">
        <ele>70.662992</ele>
        <time>2023-06-26T07:26:58.229Z</time>
      </trkpt>
      <trkpt lat="51.73071" lon="6.56766">
        <ele>70.649283</ele>
        <time>2023-06-26T07:27:00.236Z</time>
      </trkpt>
      <trkpt lat="51.7306" lon="6.56774">
        <ele>70.6358</ele>
        <time>2023-06-26T07:27:02.206Z</time>
      </trkpt>
      <trkpt lat="51.73051" lon="6.56784">
        <ele>70.621979</ele>
        <time>2023-06-26T07:27:04.222Z</time>
      </trkpt>
      <trkpt lat="51.73041" lon="6.56794">
        <ele>70.608841</ele>
        <time>2023-06-26T07:27:06.237Z</time>
      </trkpt>
      <trkpt lat="51.73032" lon="6.56803">
        <ele>70.595864</ele>
        <time>2023-06-26T07:27:08.225Z</time>
      </trkpt>
      <trkpt lat="51.73023" lon="6.56813">
        <ele>70.582566</ele>
        <time>2023-06-26T07:27:10.258Z</time>
      </trkpt>
      <trkpt lat="51.73014" lon="6.56824">
        <ele>70.569145</ele>
        <time>2023-06-26T07:27:12.225Z</time>
      </trkpt>
      <trkpt lat="51.73005" lon="6.56834">
        <ele>70.582511</ele>
        <time>2023-06-26T07:27:14.218Z</time>
      </trkpt>
      <trkpt lat="51.72996" lon="6.56845">
        <ele>70.605749</ele>
        <time>2023-06-26T07:27:16.225Z</time>
      </trkpt>
      <trkpt lat="51.72987" lon="6.56856">
        <ele>70.629174</ele>
        <time>2023-06-26T07:27:18.231Z</time>
      </trkpt>
      <trkpt lat="51.72978" lon="6.56867">
        <ele>70.652011</ele>
        <time>2023-06-26T07:27:20.224Z</time>
      </trkpt>
      <trkpt lat="51.7297" lon="6.56877">
        <ele>70.674704</ele>
        <time>2023-06-26T07:27:22.231Z</time>
      </trkpt>
      <trkpt lat="51.72961" lon="6.56887">
        <ele>70.696742</ele>
        <time>2023-06-26T07:27:24.234Z</time>
      </trkpt>
      <trkpt lat="51.72953" lon="6.56899">
        <ele>70.719117</ele>
        <time>2023-06-26T07:27:26.229Z</time>
      </trkpt>
      <trkpt lat="51.72945" lon="6.5691">
        <ele>70.741462</ele>
        <time>2023-06-26T07:27:28.234Z</time>
      </trkpt>
      <trkpt lat="51.72937" lon="6.56921">
        <ele>70.763738</ele>
        <time>2023-06-26T07:27:30.237Z</time>
      </trkpt>
      <trkpt lat="51.72928" lon="6.56931">
        <ele>70.785366</ele>
        <time>2023-06-26T07:27:32.244Z</time>
      </trkpt>
      <trkpt lat="51.72919" lon="6.56943">
        <ele>70.80917</ele>
        <time>2023-06-26T07:27:34.209Z</time>
      </trkpt>
      <trkpt lat="51.72911" lon="6.56954">
        <ele>70.831838</ele>
        <time>2023-06-26T07:27:36.216Z</time>
      </trkpt>
      <trkpt lat="51.72903" lon="6.56964">
        <ele>70.853865</ele>
        <time>2023-06-26T07:27:38.217Z</time>
      </trkpt>
      <trkpt lat="51.72894" lon="6.56975">
        <ele>70.876857</ele>
        <time>2023-06-26T07:27:40.210Z</time>
      </trkpt>
      <trkpt lat="51.72886" lon="6.56987">
        <ele>70.898906</ele>
        <time>2023-06-26T07:27:42.236Z</time>
      </trkpt>
      <trkpt lat="51.72877" lon="6.56997">
        <ele>70.922015</ele>
        <time>2023-06-26T07:27:44.244Z</time>
      </trkpt>
      <trkpt lat="51.72868" lon="6.57006">
        <ele>70.929232</ele>
        <time>2023-06-26T07:27:46.234Z</time>
      </trkpt>
      <trkpt lat="51.72859" lon="6.57017">
        <ele>70.869794</ele>
        <time>2023-06-26T07:27:48.219Z</time>
      </trkpt>
      <trkpt lat="51.7285" lon="6.57027">
        <ele>70.811942</ele>
        <time>2023-06-26T07:27:50.227Z</time>
      </trkpt>
      <trkpt lat="51.72841" lon="6.57036">
        <ele>70.753314</ele>
        <time>2023-06-26T07:27:52.225Z</time>
      </trkpt>
      <trkpt lat="51.72832" lon="6.57046">
        <ele>70.695838</ele>
        <time>2023-06-26T07:27:54.229Z</time>
      </trkpt>
      <trkpt lat="51.72823" lon="6.57056">
        <ele>70.637583</ele>
        <time>2023-06-26T07:27:56.214Z</time>
      </trkpt>
      <trkpt lat="51.72813" lon="6.57065">
        <ele>70.579329</ele>
        <time>2023-06-26T07:27:58.224Z</time>
      </trkpt>
      <trkpt lat="51.72805" lon="6.57077">
        <ele>70.52057</ele>
        <time>2023-06-26T07:28:00.215Z</time>
      </trkpt>
      <trkpt lat="51.72795" lon="6.57086">
        <ele>70.461769</ele>
        <time>2023-06-26T07:28:02.224Z</time>
      </trkpt>
      <trkpt lat="51.72787" lon="6.57096">
        <ele>70.406223</ele>
        <time>2023-06-26T07:28:04.223Z</time>
      </trkpt>
      <trkpt lat="51.72778" lon="6.57105">
        <ele>70.348221</ele>
        <time>2023-06-26T07:28:06.225Z</time>
      </trkpt>
      <trkpt lat="51.72768" lon="6.57116">
        <ele>70.285426</ele>
        <time>2023-06-26T07:28:08.212Z</time>
      </trkpt>
      <trkpt lat="51.72759" lon="6.57126">
        <ele>70.229199</ele>
        <time>2023-06-26T07:28:10.226Z</time>
      </trkpt>
      <trkpt lat="51.7275" lon="6.57136">
        <ele>70.171909</ele>
        <time>2023-06-26T07:28:12.236Z</time>
      </trkpt>
      <trkpt lat="51.72742" lon="6.57145">
        <ele>70.115058</ele>
        <time>2023-06-26T07:28:14.232Z</time>
      </trkpt>
      <trkpt lat="51.72733" lon="6.57155">
        <ele>70.058232</ele>
        <time>2023-06-26T07:28:16.235Z</time>
      </trkpt>
      <trkpt lat="51.72723" lon="6.57158">
        <ele>70.007276</ele>
        <time>2023-06-26T07:28:18.218Z</time>
      </trkpt>
      <trkpt lat="51.72714" lon="6.57152">
        <ele>69.910571</ele>
        <time>2023-06-26T07:28:20.224Z</time>
      </trkpt>
      <trkpt lat="51.72708" lon="6.57141">
        <ele>69.772703</ele>
        <time>2023-06-26T07:28:22.225Z</time>
      </trkpt>
      <trkpt lat="51.72703" lon="6.57128">
        <ele>69.640015</ele>
        <time>2023-06-26T07:28:24.227Z</time>
      </trkpt>
      <trkpt lat="51.72699" lon="6.57114">
        <ele>69.501006</ele>
        <time>2023-06-26T07:28:26.230Z</time>
      </trkpt>
      <trkpt lat="51.72693" lon="6.57102">
        <ele>69.365421</ele>
        <time>2023-06-26T07:28:28.232Z</time>
      </trkpt>
      <trkpt lat="51.72687" lon="6.57089">
        <ele>69.227785</ele>
        <time>2023-06-26T07:28:30.236Z</time>
      </trkpt>
      <trkpt lat="51.72681" lon="6.57077">
        <ele>69.093035</ele>
        <time>2023-06-26T07:28:32.227Z</time>
      </trkpt>
      <trkpt lat="51.72675" lon="6.57064">
        <ele>68.945886</ele>
        <time>2023-06-26T07:28:34.237Z</time>
      </trkpt>
      <trkpt lat="51.72668" lon="6.57051">
        <ele>68.79778</ele>
        <time>2023-06-26T07:28:36.240Z</time>
      </trkpt>
      <trkpt lat="51.72662" lon="6.57037">
        <ele>68.644435</ele>
        <time>2023-06-26T07:28:38.245Z</time>
      </trkpt>
      <trkpt lat="51.72655" lon="6.57023">
        <ele>68.492119</ele>
        <time>2023-06-26T07:28:40.266Z</time>
      </trkpt>
      <trkpt lat="51.72649" lon="6.5701">
        <ele>68.340857</ele>
        <time>2023-06-26T07:28:42.230Z</time>
      </trkpt>
      <trkpt lat="51.72642" lon="6.56997">
        <ele>68.191661</ele>
        <time>2023-06-26T07:28:44.232Z</time>
      </trkpt>
      <trkpt lat="51.72636" lon="6.56983">
        <ele>68.038819</ele>
        <time>2023-06-26T07:28:46.247Z</time>
      </trkpt>
      <trkpt lat="51.7263" lon="6.56969">
        <ele>67.889209</ele>
        <time>2023-06-26T07:28:48.228Z</time>
      </trkpt>
      <trkpt lat="51.72624" lon="6.56955">
        <ele>67.737483</ele>
        <time>2023-06-26T07:28:50.226Z</time>
      </trkpt>
      <trkpt lat="51.72619" lon="6.56941">
        <ele>67.593932</ele>
        <time>2023-06-26T07:28:52.220Z</time>
      </trkpt>
      <trkpt lat="51.72615" lon="6.56926">
        <ele>67.454262</ele>
        <time>2023-06-26T07:28:54.234Z</time>
      </trkpt>
      <trkpt lat="51.72612" lon="6.56913">
        <ele>67.406354</ele>
        <time>2023-06-26T07:28:56.227Z</time>
      </trkpt>
      <trkpt lat="51.72607" lon="6.56894">
        <ele>67.384741</ele>
        <time>2023-06-26T07:28:59.229Z</time>
      </trkpt>
      <trkpt lat="51.72603" lon="6.56879">
        <ele>67.366538</ele>
        <time>2023-06-26T07:29:02.234Z</time>
      </trkpt>
      <trkpt lat="51.726" lon="6.56863">
        <ele>67.34864</ele>
        <time>2023-06-26T07:29:05.241Z</time>
      </trkpt>
      <trkpt lat="51.72596" lon="6.56845">
        <ele>67.328324</ele>
        <time>2023-06-26T07:29:08.229Z</time>
      </trkpt>
      <trkpt lat="51.72592" lon="6.56829">
        <ele>67.308907</ele>
        <time>2023-06-26T07:29:11.238Z</time>
      </trkpt>
      <trkpt lat="51.72587" lon="6.56812">
        <ele>67.288911</ele>
        <time>2023-06-26T07:29:14.221Z</time>
      </trkpt>
      <trkpt lat="51.72577" lon="6.56801">
        <ele>67.268706</ele>
        <time>2023-06-26T07:29:17.236Z</time>
      </trkpt>
      <trkpt lat="51.72565" lon="6.56802">
        <ele>67.247363</ele>
        <time>2023-06-26T07:29:20.234Z</time>
      </trkpt>
      <trkpt lat="51.72555" lon="6.56806">
        <ele>67.229173</ele>
        <time>2023-06-26T07:29:23.246Z</time>
      </trkpt>
      <trkpt lat="51.72544" lon="6.56808">
        <ele>67.209542</ele>
        <time>2023-06-26T07:29:26.227Z</time>
      </trkpt>
      <trkpt lat="51.72531" lon="6.56813">
        <ele>67.186139</ele>
        <time>2023-06-26T07:29:29.227Z</time>
      </trkpt>
      <trkpt lat="51.72517" lon="6.56817">
        <ele>67.162379</ele>
        <time>2023-06-26T07:29:32.224Z</time>
      </trkpt>
      <trkpt lat="51.72508" lon="6.56819">
        <ele>67.146191</ele>
        <time>2023-06-26T07:29:34.217Z</time>
      </trkpt>
      <trkpt lat="51.72499" lon="6.56821">
        <ele>67.129766</ele>
        <time>2023-06-26T07:29:36.228Z</time>
      </trkpt>
      <trkpt lat="51.7249" lon="6.56824">
        <ele>67.113818</ele>
        <time>2023-06-26T07:29:38.220Z</time>
      </trkpt>
      <trkpt lat="51.72481" lon="6.56828">
        <ele>67.115389</ele>
        <time>2023-06-26T07:29:40.229Z</time>
      </trkpt>
      <trkpt lat="51.72471" lon="6.5683">
        <ele>67.140569</ele>
        <time>2023-06-26T07:29:42.225Z</time>
      </trkpt>
      <trkpt lat="51.72462" lon="6.56833">
        <ele>67.166453</ele>
        <time>2023-06-26T07:29:44.234Z</time>
      </trkpt>
      <trkpt lat="51.72453" lon="6.56836">
        <ele>67.19201</ele>
        <time>2023-06-26T07:29:46.228Z</time>
      </trkpt>
      <trkpt lat="51.72444" lon="6.56838">
        <ele>67.217005</ele>
        <time>2023-06-26T07:29:48.225Z</time>
      </trkpt>
      <trkpt lat="51.72434" lon="6.56841">
        <ele>67.242533</ele>
        <time>2023-06-26T07:29:50.238Z</time>
      </trkpt>
      <trkpt lat="51.72425" lon="6.56843">
        <ele>67.26806</ele>
        <time>2023-06-26T07:29:52.223Z</time>
      </trkpt>
      <trkpt lat="51.72415" lon="6.56846">
        <ele>67.294773</ele>
        <time>2023-06-26T07:29:54.222Z</time>
      </trkpt>
      <trkpt lat="51.72406" lon="6.56849">
        <ele>67.321751</ele>
        <time>2023-06-26T07:29:56.225Z</time>
      </trkpt>
      <trkpt lat="51.72396" lon="6.56852">
        <ele>67.349261</ele>
        <time>2023-06-26T07:29:58.221Z</time>
      </trkpt>
      <trkpt lat="51.72386" lon="6.56855">
        <ele>67.376208</ele>
        <time>2023-06-26T07:30:00.224Z</time>
      </trkpt>
      <trkpt lat="51.72376" lon="6.56858">
        <ele>67.403218</ele>
        <time>2023-06-26T07:30:02.226Z</time>
      </trkpt>
      <trkpt lat="51.72366" lon="6.56862">
        <ele>67.430629</ele>
        <time>2023-06-26T07:30:04.226Z</time>
      </trkpt>
      <trkpt lat="51.72357" lon="6.56865">
        <ele>67.455982</ele>
        <time>2023-06-26T07:30:06.236Z</time>
      </trkpt>
      <trkpt lat="51.72347" lon="6.56867">
        <ele>67.482452</ele>
        <time>2023-06-26T07:30:08.221Z</time>
      </trkpt>
      <trkpt lat="51.72338" lon="6.5687">
        <ele>67.508601</ele>
        <time>2023-06-26T07:30:10.220Z</time>
      </trkpt>
      <trkpt lat="51.72328" lon="6.56873">
        <ele>67.534816</ele>
        <time>2023-06-26T07:30:12.224Z</time>
      </trkpt>
      <trkpt lat="51.72319" lon="6.56877">
        <ele>67.560414</ele>
        <time>2023-06-26T07:30:14.252Z</time>
      </trkpt>
      <trkpt lat="51.7231" lon="6.56882">
        <ele>67.587289</ele>
        <time>2023-06-26T07:30:16.221Z</time>
      </trkpt>
      <trkpt lat="51.72301" lon="6.56889">
        <ele>67.69692</ele>
        <time>2023-06-26T07:30:18.224Z</time>
      </trkpt>
      <trkpt lat="51.72293" lon="6.56898">
        <ele>67.813064</ele>
        <time>2023-06-26T07:30:20.229Z</time>
      </trkpt>
      <trkpt lat="51.72285" lon="6.56905">
        <ele>67.927774</ele>
        <time>2023-06-26T07:30:22.232Z</time>
      </trkpt>
      <trkpt lat="51.72278" lon="6.56914">
        <ele>68.047745</ele>
        <time>2023-06-26T07:30:24.242Z</time>
      </trkpt>
      <trkpt lat="51.72269" lon="6.56923">
        <ele>68.175307</ele>
        <time>2023-06-26T07:30:26.223Z</time>
      </trkpt>
      <trkpt lat="51.72261" lon="6.56931">
        <ele>68.300385</ele>
        <time>2023-06-26T07:30:28.205Z</time>
      </trkpt>
      <trkpt lat="51.72252" lon="6.56941">
        <ele>68.435212</ele>
        <time>2023-06-26T07:30:30.226Z</time>
      </trkpt>
      <trkpt lat="51.72243" lon="6.56952">
        <ele>68.575736</ele>
        <time>2023-06-26T07:30:32.210Z</time>
      </trkpt>
      <trkpt lat="51.72234" lon="6.56963">
        <ele>68.718341</ele>
        <time>2023-06-26T07:30:34.220Z</time>
      </trkpt>
      <trkpt lat="51.72225" lon="6.56972">
        <ele>68.849291</ele>
        <time>2023-06-26T07:30:36.229Z</time>
      </trkpt>
      <trkpt lat="51.72216" lon="6.56981">
        <ele>68.982777</ele>
        <time>2023-06-26T07:30:38.224Z</time>
      </trkpt>
      <trkpt lat="51.72208" lon="6.56991">
        <ele>69.110434</ele>
        <time>2023-06-26T07:30:40.227Z</time>
      </trkpt>
      <trkpt lat="51.722" lon="6.56999">
        <ele>69.231451</ele>
        <time>2023-06-26T07:30:42.216Z</time>
      </trkpt>
      <trkpt lat="51.72192" lon="6.57007">
        <ele>69.346567</ele>
        <time>2023-06-26T07:30:44.243Z</time>
      </trkpt>
      <trkpt lat="51.72182" lon="6.57016">
        <ele>69.496639</ele>
        <time>2023-06-26T07:30:47.248Z</time>
      </trkpt>
      <trkpt lat="51.72173" lon="6.57027">
        <ele>69.635896</ele>
        <time>2023-06-26T07:30:50.230Z</time>
      </trkpt>
      <trkpt lat="51.72164" lon="6.57037">
        <ele>69.772873</ele>
        <time>2023-06-26T07:30:54.226Z</time>
      </trkpt>
      <trkpt lat="51.7215" lon="6.57052">
        <ele>69.951549</ele>
        <time>2023-06-26T07:31:25.248Z</time>
      </trkpt>
      <trkpt lat="51.72141" lon="6.57061">
        <ele>70.050933</ele>
        <time>2023-06-26T07:31:28.226Z</time>
      </trkpt>
      <trkpt lat="51.72132" lon="6.5707">
        <ele>70.157866</ele>
        <time>2023-06-26T07:31:31.244Z</time>
      </trkpt>
      <trkpt lat="51.72122" lon="6.5708">
        <ele>70.270919</ele>
        <time>2023-06-26T07:31:34.245Z</time>
      </trkpt>
      <trkpt lat="51.72112" lon="6.57092">
        <ele>70.392045</ele>
        <time>2023-06-26T07:31:37.239Z</time>
      </trkpt>
      <trkpt lat="51.72102" lon="6.57104">
        <ele>70.516784</ele>
        <time>2023-06-26T07:31:40.234Z</time>
      </trkpt>
      <trkpt lat="51.72093" lon="6.57115">
        <ele>70.622297</ele>
        <time>2023-06-26T07:31:43.211Z</time>
      </trkpt>
      <trkpt lat="51.72084" lon="6.57125">
        <ele>70.725247</ele>
        <time>2023-06-26T07:31:46.223Z</time>
      </trkpt>
      <trkpt lat="51.72074" lon="6.57135">
        <ele>70.845842</ele>
        <time>2023-06-26T07:31:49.241Z</time>
      </trkpt>
      <trkpt lat="51.72063" lon="6.57146">
        <ele>70.966746</ele>
        <time>2023-06-26T07:31:52.226Z</time>
      </trkpt>
      <trkpt lat="51.72052" lon="6.57157">
        <ele>71.094597</ele>
        <time>2023-06-26T07:31:55.240Z</time>
      </trkpt>
      <trkpt lat="51.72041" lon="6.57167">
        <ele>71.215665</ele>
        <time>2023-06-26T07:31:58.231Z</time>
      </trkpt>
      <trkpt lat="51.7203" lon="6.57175">
        <ele>71.336344</ele>
        <time>2023-06-26T07:32:01.229Z</time>
      </trkpt>
      <trkpt lat="51.72019" lon="6.57185">
        <ele>71.458527</ele>
        <time>2023-06-26T07:32:04.225Z</time>
      </trkpt>
      <trkpt lat="51.72011" lon="6.57193">
        <ele>71.545386</ele>
        <time>2023-06-26T07:32:06.227Z</time>
      </trkpt>
      <trkpt lat="51.72003" lon="6.57202">
        <ele>71.623468</ele>
        <time>2023-06-26T07:32:08.240Z</time>
      </trkpt>
      <trkpt lat="51.71991" lon="6.57212">
        <ele>71.706884</ele>
        <time>2023-06-26T07:32:11.247Z</time>
      </trkpt>
      <trkpt lat="51.71982" lon="6.57219">
        <ele>71.766053</ele>
        <time>2023-06-26T07:32:13.233Z</time>
      </trkpt>
      <trkpt lat="51.71973" lon="6.57228">
        <ele>71.829172</ele>
        <time>2023-06-26T07:32:15.233Z</time>
      </trkpt>
      <trkpt lat="51.71964" lon="6.57235">
        <ele>71.893172</ele>
        <time>2023-06-26T07:32:17.237Z</time>
      </trkpt>
      <trkpt lat="51.71955" lon="6.57244">
        <ele>71.956978</ele>
        <time>2023-06-26T07:32:19.239Z</time>
      </trkpt>
      <trkpt lat="51.71946" lon="6.57251">
        <ele>72.01742</ele>
        <time>2023-06-26T07:32:21.227Z</time>
      </trkpt>
      <trkpt lat="51.71937" lon="6.57259">
        <ele>72.076826</ele>
        <time>2023-06-26T07:32:23.214Z</time>
      </trkpt>
      <trkpt lat="51.71928" lon="6.57268">
        <ele>72.140849</ele>
        <time>2023-06-26T07:32:25.242Z</time>
      </trkpt>
      <trkpt lat="51.7192" lon="6.57276">
        <ele>72.201878</ele>
        <time>2023-06-26T07:32:27.231Z</time>
      </trkpt>
      <trkpt lat="51.71912" lon="6.57284">
        <ele>72.258093</ele>
        <time>2023-06-26T07:32:29.218Z</time>
      </trkpt>
      <trkpt lat="51.71904" lon="6.57294">
        <ele>72.31904</ele>
        <time>2023-06-26T07:32:31.234Z</time>
      </trkpt>
      <trkpt lat="51.71895" lon="6.57302">
        <ele>72.381773</ele>
        <time>2023-06-26T07:32:33.224Z</time>
      </trkpt>
      <trkpt lat="51.71886" lon="6.57311">
        <ele>72.442284</ele>
        <time>2023-06-26T07:32:35.248Z</time>
      </trkpt>
      <trkpt lat="51.71878" lon="6.57319">
        <ele>72.499549</ele>
        <time>2023-06-26T07:32:37.229Z</time>
      </trkpt>
      <trkpt lat="51.71868" lon="6.57329">
        <ele>72.575519</ele>
        <time>2023-06-26T07:32:40.227Z</time>
      </trkpt>
      <trkpt lat="51.71859" lon="6.57337">
        <ele>72.634382</ele>
        <time>2023-06-26T07:32:42.223Z</time>
      </trkpt>
      <trkpt lat="51.71849" lon="6.57347">
        <ele>72.68045</ele>
        <time>2023-06-26T07:32:45.227Z</time>
      </trkpt>
      <trkpt lat="51.71841" lon="6.57354">
        <ele>72.657188</ele>
        <time>2023-06-26T07:32:47.233Z</time>
      </trkpt>
      <trkpt lat="51.71833" lon="6.57361">
        <ele>72.633703</ele>
        <time>2023-06-26T07:32:49.232Z</time>
      </trkpt>
      <trkpt lat="51.71824" lon="6.57369">
        <ele>72.609311</ele>
        <time>2023-06-26T07:32:51.229Z</time>
      </trkpt>
      <trkpt lat="51.71816" lon="6.57376">
        <ele>72.585287</ele>
        <time>2023-06-26T07:32:53.228Z</time>
      </trkpt>
      <trkpt lat="51.71807" lon="6.57382">
        <ele>72.559357</ele>
        <time>2023-06-26T07:32:55.235Z</time>
      </trkpt>
      <trkpt lat="51.71797" lon="6.5739">
        <ele>72.532429</ele>
        <time>2023-06-26T07:32:57.250Z</time>
      </trkpt>
      <trkpt lat="51.71789" lon="6.57398">
        <ele>72.507497</ele>
        <time>2023-06-26T07:32:59.241Z</time>
      </trkpt>
      <trkpt lat="51.7178" lon="6.57407">
        <ele>72.480795</ele>
        <time>2023-06-26T07:33:01.231Z</time>
      </trkpt>
      <trkpt lat="51.71771" lon="6.57415">
        <ele>72.45483</ele>
        <time>2023-06-26T07:33:03.235Z</time>
      </trkpt>
      <trkpt lat="51.71762" lon="6.57423">
        <ele>72.428438</ele>
        <time>2023-06-26T07:33:05.246Z</time>
      </trkpt>
      <trkpt lat="51.71752" lon="6.57432">
        <ele>72.401138</ele>
        <time>2023-06-26T07:33:07.232Z</time>
      </trkpt>
      <trkpt lat="51.71744" lon="6.57439">
        <ele>72.375864</ele>
        <time>2023-06-26T07:33:09.250Z</time>
      </trkpt>
      <trkpt lat="51.71732" lon="6.57451">
        <ele>72.340421</ele>
        <time>2023-06-26T07:33:12.235Z</time>
      </trkpt>
      <trkpt lat="51.71723" lon="6.57458">
        <ele>72.316625</ele>
        <time>2023-06-26T07:33:14.240Z</time>
      </trkpt>
      <trkpt lat="51.71715" lon="6.57465">
        <ele>72.293238</ele>
        <time>2023-06-26T07:33:16.234Z</time>
      </trkpt>
      <trkpt lat="51.71707" lon="6.57473">
        <ele>72.267587</ele>
        <time>2023-06-26T07:33:18.245Z</time>
      </trkpt>
      <trkpt lat="51.71697" lon="6.57482">
        <ele>72.238736</ele>
        <time>2023-06-26T07:33:20.218Z</time>
      </trkpt>
      <trkpt lat="51.71687" lon="6.5749">
        <ele>72.175624</ele>
        <time>2023-06-26T07:33:22.239Z</time>
      </trkpt>
      <trkpt lat="51.71679" lon="6.57499">
        <ele>72.098067</ele>
        <time>2023-06-26T07:33:24.247Z</time>
      </trkpt>
      <trkpt lat="51.71669" lon="6.57508">
        <ele>72.014392</ele>
        <time>2023-06-26T07:33:26.227Z</time>
      </trkpt>
      <trkpt lat="51.71659" lon="6.57516">
        <ele>71.934184</ele>
        <time>2023-06-26T07:33:28.237Z</time>
      </trkpt>
      <trkpt lat="51.71649" lon="6.57526">
        <ele>71.849433</ele>
        <time>2023-06-26T07:33:30.230Z</time>
      </trkpt>
      <trkpt lat="51.7164" lon="6.57535">
        <ele>71.768533</ele>
        <time>2023-06-26T07:33:32.224Z</time>
      </trkpt>
      <trkpt lat="51.71631" lon="6.57545">
        <ele>71.687383</ele>
        <time>2023-06-26T07:33:34.221Z</time>
      </trkpt>
      <trkpt lat="51.71622" lon="6.57553">
        <ele>71.611946</ele>
        <time>2023-06-26T07:33:36.244Z</time>
      </trkpt>
      <trkpt lat="51.71613" lon="6.57562">
        <ele>71.537619</ele>
        <time>2023-06-26T07:33:38.229Z</time>
      </trkpt>
      <trkpt lat="51.71605" lon="6.57569">
        <ele>71.464771</ele>
        <time>2023-06-26T07:33:40.228Z</time>
      </trkpt>
      <trkpt lat="51.71596" lon="6.57578">
        <ele>71.388635</ele>
        <time>2023-06-26T07:33:42.237Z</time>
      </trkpt>
      <trkpt lat="51.71587" lon="6.57586">
        <ele>71.314274</ele>
        <time>2023-06-26T07:33:44.225Z</time>
      </trkpt>
      <trkpt lat="51.71576" lon="6.57594">
        <ele>71.223073</ele>
        <time>2023-06-26T07:33:47.237Z</time>
      </trkpt>
      <trkpt lat="51.71566" lon="6.57599">
        <ele>71.146048</ele>
        <time>2023-06-26T07:33:50.221Z</time>
      </trkpt>
      <trkpt lat="51.71557" lon="6.57606">
        <ele>71.074055</ele>
        <time>2023-06-26T07:33:53.229Z</time>
      </trkpt>
      <trkpt lat="51.71548" lon="6.57613">
        <ele>71.000254</ele>
        <time>2023-06-26T07:33:56.244Z</time>
      </trkpt>
      <trkpt lat="51.71536" lon="6.57621">
        <ele>70.904023</ele>
        <time>2023-06-26T07:33:59.244Z</time>
      </trkpt>
      <trkpt lat="51.71526" lon="6.57625">
        <ele>70.7066</ele>
        <time>2023-06-26T07:34:01.243Z</time>
      </trkpt>
      <trkpt lat="51.71515" lon="6.5762">
        <ele>70.49622</ele>
        <time>2023-06-26T07:34:03.217Z</time>
      </trkpt>
      <trkpt lat="51.71504" lon="6.57616">
        <ele>70.282628</ele>
        <time>2023-06-26T07:34:05.241Z</time>
      </trkpt>
      <trkpt lat="51.71492" lon="6.57619">
        <ele>70.055627</ele>
        <time>2023-06-26T07:34:07.212Z</time>
      </trkpt>
      <trkpt lat="51.7148" lon="6.57622">
        <ele>69.833198</ele>
        <time>2023-06-26T07:34:09.223Z</time>
      </trkpt>
      <trkpt lat="51.71469" lon="6.57624">
        <ele>69.625472</ele>
        <time>2023-06-26T07:34:11.230Z</time>
      </trkpt>
      <trkpt lat="51.71458" lon="6.57626">
        <ele>69.418785</ele>
        <time>2023-06-26T07:34:13.225Z</time>
      </trkpt>
      <trkpt lat="51.71448" lon="6.57628">
        <ele>69.234549</ele>
        <time>2023-06-26T07:34:15.226Z</time>
      </trkpt>
      <trkpt lat="51.71438" lon="6.57631">
        <ele>69.04373</ele>
        <time>2023-06-26T07:34:17.236Z</time>
      </trkpt>
      <trkpt lat="51.71428" lon="6.57634">
        <ele>68.850248</ele>
        <time>2023-06-26T07:34:19.226Z</time>
      </trkpt>
      <trkpt lat="51.71417" lon="6.57636">
        <ele>68.65906</ele>
        <time>2023-06-26T07:34:21.237Z</time>
      </trkpt>
      <trkpt lat="51.71408" lon="6.57638">
        <ele>68.475128</ele>
        <time>2023-06-26T07:34:23.220Z</time>
      </trkpt>
      <trkpt lat="51.71397" lon="6.57641">
        <ele>68.280442</ele>
        <time>2023-06-26T07:34:25.237Z</time>
      </trkpt>
      <trkpt lat="51.71387" lon="6.57643">
        <ele>68.082978</ele>
        <time>2023-06-26T07:34:27.231Z</time>
      </trkpt>
      <trkpt lat="51.71376" lon="6.57645">
        <ele>67.888654</ele>
        <time>2023-06-26T07:34:29.247Z</time>
      </trkpt>
      <trkpt lat="51.71366" lon="6.57648">
        <ele>67.693559</ele>
        <time>2023-06-26T07:34:31.234Z</time>
      </trkpt>
      <trkpt lat="51.71356" lon="6.57651">
        <ele>67.557631</ele>
        <time>2023-06-26T07:34:33.220Z</time>
      </trkpt>
      <trkpt lat="51.71346" lon="6.57654">
        <ele>67.569553</ele>
        <time>2023-06-26T07:34:35.225Z</time>
      </trkpt>
      <trkpt lat="51.71335" lon="6.57657">
        <ele>67.581651</ele>
        <time>2023-06-26T07:34:37.228Z</time>
      </trkpt>
      <trkpt lat="51.71325" lon="6.57658">
        <ele>67.593515</ele>
        <time>2023-06-26T07:34:39.226Z</time>
      </trkpt>
      <trkpt lat="51.71314" lon="6.57659">
        <ele>67.605711</ele>
        <time>2023-06-26T07:34:41.231Z</time>
      </trkpt>
      <trkpt lat="51.71304" lon="6.57662">
        <ele>67.617339</ele>
        <time>2023-06-26T07:34:43.229Z</time>
      </trkpt>
      <trkpt lat="51.71294" lon="6.57665">
        <ele>67.629012</ele>
        <time>2023-06-26T07:34:45.240Z</time>
      </trkpt>
      <trkpt lat="51.71283" lon="6.57668">
        <ele>67.641427</ele>
        <time>2023-06-26T07:34:47.232Z</time>
      </trkpt>
      <trkpt lat="51.71272" lon="6.5767">
        <ele>67.654077</ele>
        <time>2023-06-26T07:34:49.224Z</time>
      </trkpt>
      <trkpt lat="51.71261" lon="6.57674">
        <ele>67.667156</ele>
        <time>2023-06-26T07:34:51.241Z</time>
      </trkpt>
      <trkpt lat="51.7125" lon="6.57677">
        <ele>67.679502</ele>
        <time>2023-06-26T07:34:53.222Z</time>
      </trkpt>
      <trkpt lat="51.7124" lon="6.57678">
        <ele>67.691377</ele>
        <time>2023-06-26T07:34:55.237Z</time>
      </trkpt>
      <trkpt lat="51.71229" lon="6.5768">
        <ele>67.703312</ele>
        <time>2023-06-26T07:34:57.239Z</time>
      </trkpt>
      <trkpt lat="51.71219" lon="6.57682">
        <ele>67.714787</ele>
        <time>2023-06-26T07:34:59.230Z</time>
      </trkpt>
      <trkpt lat="51.71209" lon="6.57684">
        <ele>67.726591</ele>
        <time>2023-06-26T07:35:01.224Z</time>
      </trkpt>
      <trkpt lat="51.71198" lon="6.57687">
        <ele>67.738937</ele>
        <time>2023-06-26T07:35:03.223Z</time>
      </trkpt>
      <trkpt lat="51.71187" lon="6.5769">
        <ele>67.751784</ele>
        <time>2023-06-26T07:35:05.225Z</time>
      </trkpt>
      <trkpt lat="51.71177" lon="6.57692">
        <ele>67.756726</ele>
        <time>2023-06-26T07:35:07.235Z</time>
      </trkpt>
      <trkpt lat="51.71166" lon="6.57694">
        <ele>67.749902</ele>
        <time>2023-06-26T07:35:09.205Z</time>
      </trkpt>
      <trkpt lat="51.71154" lon="6.57696">
        <ele>67.743182</ele>
        <time>2023-06-26T07:35:11.231Z</time>
      </trkpt>
      <trkpt lat="51.71143" lon="6.57698">
        <ele>67.736497</ele>
        <time>2023-06-26T07:35:13.230Z</time>
      </trkpt>
      <trkpt lat="51.71134" lon="6.577">
        <ele>67.730506</ele>
        <time>2023-06-26T07:35:15.225Z</time>
      </trkpt>
      <trkpt lat="51.71123" lon="6.57703">
        <ele>67.724015</ele>
        <time>2023-06-26T07:35:17.229Z</time>
      </trkpt>
      <trkpt lat="51.71113" lon="6.57705">
        <ele>67.717772</ele>
        <time>2023-06-26T07:35:19.240Z</time>
      </trkpt>
      <trkpt lat="51.71101" lon="6.57708">
        <ele>67.710945</ele>
        <time>2023-06-26T07:35:21.238Z</time>
      </trkpt>
      <trkpt lat="51.7109" lon="6.57711">
        <ele>67.703962</ele>
        <time>2023-06-26T07:35:23.234Z</time>
      </trkpt>
      <trkpt lat="51.71079" lon="6.57714">
        <ele>67.697319</ele>
        <time>2023-06-26T07:35:25.226Z</time>
      </trkpt>
      <trkpt lat="51.71068" lon="6.57715">
        <ele>67.690454</ele>
        <time>2023-06-26T07:35:27.233Z</time>
      </trkpt>
      <trkpt lat="51.71056" lon="6.57718">
        <ele>67.683639</ele>
        <time>2023-06-26T07:35:29.226Z</time>
      </trkpt>
      <trkpt lat="51.71046" lon="6.57721">
        <ele>67.67699</ele>
        <time>2023-06-26T07:35:31.237Z</time>
      </trkpt>
      <trkpt lat="51.71035" lon="6.57724">
        <ele>67.670322</ele>
        <time>2023-06-26T07:35:33.227Z</time>
      </trkpt>
      <trkpt lat="51.71023" lon="6.57727">
        <ele>67.663506</ele>
        <time>2023-06-26T07:35:35.221Z</time>
      </trkpt>
      <trkpt lat="51.71013" lon="6.57729">
        <ele>67.656891</ele>
        <time>2023-06-26T07:35:37.235Z</time>
      </trkpt>
      <trkpt lat="51.71002" lon="6.57731">
        <ele>67.6535</ele>
        <time>2023-06-26T07:35:39.223Z</time>
      </trkpt>
      <trkpt lat="51.70991" lon="6.57733">
        <ele>67.681013</ele>
        <time>2023-06-26T07:35:41.240Z</time>
      </trkpt>
      <trkpt lat="51.7098" lon="6.57736">
        <ele>67.709545</ele>
        <time>2023-06-26T07:35:43.245Z</time>
      </trkpt>
      <trkpt lat="51.7097" lon="6.57738">
        <ele>67.736015</ele>
        <time>2023-06-26T07:35:45.240Z</time>
      </trkpt>
      <trkpt lat="51.70959" lon="6.5774">
        <ele>67.764518</ele>
        <time>2023-06-26T07:35:47.231Z</time>
      </trkpt>
      <trkpt lat="51.70948" lon="6.57742">
        <ele>67.792542</ele>
        <time>2023-06-26T07:35:49.240Z</time>
      </trkpt>
      <trkpt lat="51.70937" lon="6.57744">
        <ele>67.821117</ele>
        <time>2023-06-26T07:35:51.228Z</time>
      </trkpt>
      <trkpt lat="51.70926" lon="6.57747">
        <ele>67.850614</ele>
        <time>2023-06-26T07:35:53.225Z</time>
      </trkpt>
      <trkpt lat="51.70914" lon="6.5775">
        <ele>67.881409</ele>
        <time>2023-06-26T07:35:55.227Z</time>
      </trkpt>
      <trkpt lat="51.70903" lon="6.57753">
        <ele>67.909791</ele>
        <time>2023-06-26T07:35:57.224Z</time>
      </trkpt>
      <trkpt lat="51.70892" lon="6.57755">
        <ele>67.939727</ele>
        <time>2023-06-26T07:35:59.230Z</time>
      </trkpt>
      <trkpt lat="51.70881" lon="6.57758">
        <ele>67.96818</ele>
        <time>2023-06-26T07:36:01.219Z</time>
      </trkpt>
      <trkpt lat="51.7087" lon="6.57759">
        <ele>67.995098</ele>
        <time>2023-06-26T07:36:03.238Z</time>
      </trkpt>
      <trkpt lat="51.70859" lon="6.57762">
        <ele>68.023692</ele>
        <time>2023-06-26T07:36:05.244Z</time>
      </trkpt>
      <trkpt lat="51.70849" lon="6.57765">
        <ele>68.051128</ele>
        <time>2023-06-26T07:36:07.221Z</time>
      </trkpt>
      <trkpt lat="51.70839" lon="6.57769">
        <ele>68.076855</ele>
        <time>2023-06-26T07:36:09.223Z</time>
      </trkpt>
      <trkpt lat="51.70831" lon="6.57775">
        <ele>68.101673</ele>
        <time>2023-06-26T07:36:11.227Z</time>
      </trkpt>
      <trkpt lat="51.70823" lon="6.57785">
        <ele>68.186353</ele>
        <time>2023-06-26T07:36:13.226Z</time>
      </trkpt>
      <trkpt lat="51.70815" lon="6.57794">
        <ele>68.347336</ele>
        <time>2023-06-26T07:36:15.224Z</time>
      </trkpt>
      <trkpt lat="51.70807" lon="6.57803">
        <ele>68.492712</ele>
        <time>2023-06-26T07:36:17.235Z</time>
      </trkpt>
      <trkpt lat="51.70799" lon="6.57813">
        <ele>68.659793</ele>
        <time>2023-06-26T07:36:19.229Z</time>
      </trkpt>
      <trkpt lat="51.70791" lon="6.57824">
        <ele>68.826863</ele>
        <time>2023-06-26T07:36:21.236Z</time>
      </trkpt>
      <trkpt lat="51.70782" lon="6.57835">
        <ele>69.001365</ele>
        <time>2023-06-26T07:36:23.226Z</time>
      </trkpt>
      <trkpt lat="51.70774" lon="6.57846">
        <ele>69.171626</ele>
        <time>2023-06-26T07:36:25.238Z</time>
      </trkpt>
      <trkpt lat="51.70766" lon="6.57857">
        <ele>69.338122</ele>
        <time>2023-06-26T07:36:27.224Z</time>
      </trkpt>
      <trkpt lat="51.70757" lon="6.57866">
        <ele>69.504407</ele>
        <time>2023-06-26T07:36:29.220Z</time>
      </trkpt>
      <trkpt lat="51.70748" lon="6.57877">
        <ele>69.683273</ele>
        <time>2023-06-26T07:36:31.231Z</time>
      </trkpt>
      <trkpt lat="51.7074" lon="6.57888">
        <ele>69.851688</ele>
        <time>2023-06-26T07:36:33.227Z</time>
      </trkpt>
      <trkpt lat="51.70732" lon="6.57899">
        <ele>70.021406</ele>
        <time>2023-06-26T07:36:35.226Z</time>
      </trkpt>
      <trkpt lat="51.70724" lon="6.5791">
        <ele>70.189116</ele>
        <time>2023-06-26T07:36:37.214Z</time>
      </trkpt>
      <trkpt lat="51.70716" lon="6.5792">
        <ele>70.35001</ele>
        <time>2023-06-26T07:36:39.226Z</time>
      </trkpt>
      <trkpt lat="51.70708" lon="6.57929">
        <ele>70.509387</ele>
        <time>2023-06-26T07:36:41.236Z</time>
      </trkpt>
      <trkpt lat="51.707" lon="6.57939">
        <ele>70.670271</ele>
        <time>2023-06-26T07:36:43.233Z</time>
      </trkpt>
      <trkpt lat="51.70691" lon="6.57949">
        <ele>70.831153</ele>
        <time>2023-06-26T07:36:45.237Z</time>
      </trkpt>
      <trkpt lat="51.70683" lon="6.57957">
        <ele>70.964709</ele>
        <time>2023-06-26T07:36:47.217Z</time>
      </trkpt>
      <trkpt lat="51.70672" lon="6.57966">
        <ele>70.719072</ele>
        <time>2023-06-26T07:36:50.240Z</time>
      </trkpt>
      <trkpt lat="51.70665" lon="6.57974">
        <ele>70.539108</ele>
        <time>2023-06-26T07:36:52.242Z</time>
      </trkpt>
      <trkpt lat="51.70658" lon="6.57985">
        <ele>70.35526</ele>
        <time>2023-06-26T07:36:54.228Z</time>
      </trkpt>
      <trkpt lat="51.70652" lon="6.58004">
        <ele>70.095313</ele>
        <time>2023-06-26T07:36:57.207Z</time>
      </trkpt>
      <trkpt lat="51.70649" lon="6.58019">
        <ele>69.905362</ele>
        <time>2023-06-26T07:36:59.240Z</time>
      </trkpt>
      <trkpt lat="51.70645" lon="6.58032">
        <ele>69.724178</ele>
        <time>2023-06-26T07:37:01.237Z</time>
      </trkpt>
      <trkpt lat="51.70642" lon="6.58046">
        <ele>69.537394</ele>
        <time>2023-06-26T07:37:03.210Z</time>
      </trkpt>
      <trkpt lat="51.70639" lon="6.58061">
        <ele>69.34976</ele>
        <time>2023-06-26T07:37:05.238Z</time>
      </trkpt>
      <trkpt lat="51.70636" lon="6.58079">
        <ele>69.122358</ele>
        <time>2023-06-26T07:37:07.226Z</time>
      </trkpt>
      <trkpt lat="51.70634" lon="6.58097">
        <ele>68.897534</ele>
        <time>2023-06-26T07:37:09.224Z</time>
      </trkpt>
      <trkpt lat="51.70634" lon="6.58116">
        <ele>68.664243</ele>
        <time>2023-06-26T07:37:11.229Z</time>
      </trkpt>
      <trkpt lat="51.70633" lon="6.58135">
        <ele>68.433011</ele>
        <time>2023-06-26T07:37:13.232Z</time>
      </trkpt>
      <trkpt lat="51.70632" lon="6.58154">
        <ele>68.205087</ele>
        <time>2023-06-26T07:37:15.223Z</time>
      </trkpt>
      <trkpt lat="51.7063" lon="6.58173">
        <ele>67.963665</ele>
        <time>2023-06-26T07:37:17.222Z</time>
      </trkpt>
      <trkpt lat="51.70627" lon="6.58191">
        <ele>67.743402</ele>
        <time>2023-06-26T07:37:19.215Z</time>
      </trkpt>
      <trkpt lat="51.70624" lon="6.58208">
        <ele>67.519983</ele>
        <time>2023-06-26T07:37:21.233Z</time>
      </trkpt>
      <trkpt lat="51.70619" lon="6.58225">
        <ele>67.525251</ele>
        <time>2023-06-26T07:37:23.232Z</time>
      </trkpt>
      <trkpt lat="51.70614" lon="6.58241">
        <ele>67.668903</ele>
        <time>2023-06-26T07:37:25.237Z</time>
      </trkpt>
      <trkpt lat="51.70605" lon="6.58252">
        <ele>67.814053</ele>
        <time>2023-06-26T07:37:27.216Z</time>
      </trkpt>
      <trkpt lat="51.70596" lon="6.58261">
        <ele>67.95998</ele>
        <time>2023-06-26T07:37:29.232Z</time>
      </trkpt>
      <trkpt lat="51.70586" lon="6.5827">
        <ele>68.107386</ele>
        <time>2023-06-26T07:37:31.234Z</time>
      </trkpt>
      <trkpt lat="51.70576" lon="6.58279">
        <ele>68.248118</ele>
        <time>2023-06-26T07:37:33.217Z</time>
      </trkpt>
      <trkpt lat="51.70568" lon="6.58289">
        <ele>68.388955</ele>
        <time>2023-06-26T07:37:35.228Z</time>
      </trkpt>
      <trkpt lat="51.7056" lon="6.58299">
        <ele>68.521927</ele>
        <time>2023-06-26T07:37:37.226Z</time>
      </trkpt>
      <trkpt lat="51.70552" lon="6.58309">
        <ele>68.648329</ele>
        <time>2023-06-26T07:37:39.228Z</time>
      </trkpt>
      <trkpt lat="51.70545" lon="6.58321">
        <ele>68.781757</ele>
        <time>2023-06-26T07:37:41.223Z</time>
      </trkpt>
      <trkpt lat="51.70538" lon="6.58331">
        <ele>68.908866</ele>
        <time>2023-06-26T07:37:43.220Z</time>
      </trkpt>
      <trkpt lat="51.7053" lon="6.58343">
        <ele>69.045299</ele>
        <time>2023-06-26T07:37:45.219Z</time>
      </trkpt>
      <trkpt lat="51.70522" lon="6.58355">
        <ele>69.187749</ele>
        <time>2023-06-26T07:37:47.222Z</time>
      </trkpt>
      <trkpt lat="51.70515" lon="6.58366">
        <ele>69.319515</ele>
        <time>2023-06-26T07:37:49.226Z</time>
      </trkpt>
      <trkpt lat="51.70507" lon="6.58378">
        <ele>69.461294</ele>
        <time>2023-06-26T07:37:51.227Z</time>
      </trkpt>
      <trkpt lat="51.70499" lon="6.5839">
        <ele>69.601689</ele>
        <time>2023-06-26T07:37:53.215Z</time>
      </trkpt>
      <trkpt lat="51.7049" lon="6.58402">
        <ele>69.74606</ele>
        <time>2023-06-26T07:37:55.234Z</time>
      </trkpt>
      <trkpt lat="51.70481" lon="6.58412">
        <ele>69.772367</ele>
        <time>2023-06-26T07:37:57.226Z</time>
      </trkpt>
      <trkpt lat="51.70472" lon="6.58423">
        <ele>69.762326</ele>
        <time>2023-06-26T07:37:59.238Z</time>
      </trkpt>
      <trkpt lat="51.70462" lon="6.58433">
        <ele>69.752435</ele>
        <time>2023-06-26T07:38:01.218Z</time>
      </trkpt>
      <trkpt lat="51.70452" lon="6.58442">
        <ele>69.742856</ele>
        <time>2023-06-26T07:38:03.230Z</time>
      </trkpt>
      <trkpt lat="51.70442" lon="6.58452">
        <ele>69.733009</ele>
        <time>2023-06-26T07:38:05.224Z</time>
      </trkpt>
      <trkpt lat="51.70432" lon="6.58461">
        <ele>69.722713</ele>
        <time>2023-06-26T07:38:07.238Z</time>
      </trkpt>
      <trkpt lat="51.70422" lon="6.58471">
        <ele>69.712732</ele>
        <time>2023-06-26T07:38:09.222Z</time>
      </trkpt>
      <trkpt lat="51.70412" lon="6.58481">
        <ele>69.703071</ele>
        <time>2023-06-26T07:38:11.220Z</time>
      </trkpt>
      <trkpt lat="51.70403" lon="6.58491">
        <ele>69.69325</ele>
        <time>2023-06-26T07:38:13.236Z</time>
      </trkpt>
      <trkpt lat="51.70393" lon="6.58501">
        <ele>69.683571</ele>
        <time>2023-06-26T07:38:15.248Z</time>
      </trkpt>
      <trkpt lat="51.70383" lon="6.5851">
        <ele>69.67385</ele>
        <time>2023-06-26T07:38:17.228Z</time>
      </trkpt>
      <trkpt lat="51.70373" lon="6.58517">
        <ele>69.663891</ele>
        <time>2023-06-26T07:38:19.223Z</time>
      </trkpt>
      <trkpt lat="51.70362" lon="6.58523">
        <ele>69.654495</ele>
        <time>2023-06-26T07:38:21.243Z</time>
      </trkpt>
      <trkpt lat="51.70352" lon="6.5853">
        <ele>69.645316</ele>
        <time>2023-06-26T07:38:23.228Z</time>
      </trkpt>
      <trkpt lat="51.70343" lon="6.58538">
        <ele>69.636021</ele>
        <time>2023-06-26T07:38:25.229Z</time>
      </trkpt>
      <trkpt lat="51.70334" lon="6.58546">
        <ele>69.627381</ele>
        <time>2023-06-26T07:38:27.222Z</time>
      </trkpt>
      <trkpt lat="51.70325" lon="6.58554">
        <ele>69.651858</ele>
        <time>2023-06-26T07:38:29.221Z</time>
      </trkpt>
      <trkpt lat="51.70316" lon="6.58563">
        <ele>69.682052</ele>
        <time>2023-06-26T07:38:31.224Z</time>
      </trkpt>
      <trkpt lat="51.70311" lon="6.58576">
        <ele>69.711314</ele>
        <time>2023-06-26T07:38:33.236Z</time>
      </trkpt>
      <trkpt lat="51.7031" lon="6.58592">
        <ele>69.740563</ele>
        <time>2023-06-26T07:38:35.233Z</time>
      </trkpt>
      <trkpt lat="51.70309" lon="6.58608">
        <ele>69.769941</ele>
        <time>2023-06-26T07:38:37.237Z</time>
      </trkpt>
      <trkpt lat="51.70308" lon="6.58624">
        <ele>69.800282</ele>
        <time>2023-06-26T07:38:39.235Z</time>
      </trkpt>
      <trkpt lat="51.70305" lon="6.5864">
        <ele>69.830807</ele>
        <time>2023-06-26T07:38:41.219Z</time>
      </trkpt>
      <trkpt lat="51.703" lon="6.58654">
        <ele>69.860552</ele>
        <time>2023-06-26T07:38:43.240Z</time>
      </trkpt>
      <trkpt lat="51.7029" lon="6.58664">
        <ele>69.894418</ele>
        <time>2023-06-26T07:38:45.222Z</time>
      </trkpt>
      <trkpt lat="51.7028" lon="6.58673">
        <ele>69.927538</ele>
        <time>2023-06-26T07:38:47.240Z</time>
      </trkpt>
      <trkpt lat="51.70271" lon="6.58681">
        <ele>69.959889</ele>
        <time>2023-06-26T07:38:49.230Z</time>
      </trkpt>
      <trkpt lat="51.70261" lon="6.58691">
        <ele>69.99305</ele>
        <time>2023-06-26T07:38:51.225Z</time>
      </trkpt>
      <trkpt lat="51.70251" lon="6.58698">
        <ele>70.024874</ele>
        <time>2023-06-26T07:38:53.224Z</time>
      </trkpt>
      <trkpt lat="51.70242" lon="6.58707">
        <ele>70.057037</ele>
        <time>2023-06-26T07:38:55.240Z</time>
      </trkpt>
      <trkpt lat="51.70232" lon="6.58715">
        <ele>70.088778</ele>
        <time>2023-06-26T07:38:57.231Z</time>
      </trkpt>
      <trkpt lat="51.70223" lon="6.58722">
        <ele>70.120519</ele>
        <time>2023-06-26T07:38:59.210Z</time>
      </trkpt>
      <trkpt lat="51.70214" lon="6.58731">
        <ele>70.150968</ele>
        <time>2023-06-26T07:39:01.254Z</time>
      </trkpt>
      <trkpt lat="51.70205" lon="6.58738">
        <ele>70.14511</ele>
        <time>2023-06-26T07:39:03.216Z</time>
      </trkpt>
      <trkpt lat="51.70196" lon="6.58746">
        <ele>70.129345</ele>
        <time>2023-06-26T07:39:05.235Z</time>
      </trkpt>
      <trkpt lat="51.70187" lon="6.58754">
        <ele>70.113893</ele>
        <time>2023-06-26T07:39:07.254Z</time>
      </trkpt>
      <trkpt lat="51.70178" lon="6.58761">
        <ele>70.099155</ele>
        <time>2023-06-26T07:39:09.248Z</time>
      </trkpt>
      <trkpt lat="51.70169" lon="6.58768">
        <ele>70.084285</ele>
        <time>2023-06-26T07:39:11.237Z</time>
      </trkpt>
      <trkpt lat="51.70161" lon="6.58775">
        <ele>70.069726</ele>
        <time>2023-06-26T07:39:13.237Z</time>
      </trkpt>
      <trkpt lat="51.70152" lon="6.58783">
        <ele>70.05463</ele>
        <time>2023-06-26T07:39:15.237Z</time>
      </trkpt>
      <trkpt lat="51.70144" lon="6.5879">
        <ele>70.040382</ele>
        <time>2023-06-26T07:39:17.229Z</time>
      </trkpt>
      <trkpt lat="51.70138" lon="6.58802">
        <ele>70.025538</ele>
        <time>2023-06-26T07:39:19.219Z</time>
      </trkpt>
      <trkpt lat="51.70136" lon="6.58817">
        <ele>70.011423</ele>
        <time>2023-06-26T07:39:21.219Z</time>
      </trkpt>
      <trkpt lat="51.70137" lon="6.58832">
        <ele>69.996565</ele>
        <time>2023-06-26T07:39:23.239Z</time>
      </trkpt>
      <trkpt lat="51.70139" lon="6.58848">
        <ele>69.98141</ele>
        <time>2023-06-26T07:39:25.228Z</time>
      </trkpt>
      <trkpt lat="51.70141" lon="6.58863">
        <ele>69.966527</ele>
        <time>2023-06-26T07:39:27.223Z</time>
      </trkpt>
      <trkpt lat="51.70143" lon="6.58879">
        <ele>69.951458</ele>
        <time>2023-06-26T07:39:29.245Z</time>
      </trkpt>
      <trkpt lat="51.70144" lon="6.58895">
        <ele>69.93646</ele>
        <time>2023-06-26T07:39:31.226Z</time>
      </trkpt>
      <trkpt lat="51.70145" lon="6.58911">
        <ele>69.921127</ele>
        <time>2023-06-26T07:39:33.217Z</time>
      </trkpt>
      <trkpt lat="51.70148" lon="6.58928">
        <ele>69.904459</ele>
        <time>2023-06-26T07:39:35.239Z</time>
      </trkpt>
      <trkpt lat="51.7015" lon="6.58944">
        <ele>69.888689</ele>
        <time>2023-06-26T07:39:37.225Z</time>
      </trkpt>
      <trkpt lat="51.70153" lon="6.58961">
        <ele>69.879497</ele>
        <time>2023-06-26T07:39:39.241Z</time>
      </trkpt>
      <trkpt lat="51.70156" lon="6.58977">
        <ele>69.874353</ele>
        <time>2023-06-26T07:39:41.239Z</time>
      </trkpt>
      <trkpt lat="51.70158" lon="6.58993">
        <ele>69.869124</ele>
        <time>2023-06-26T07:39:43.231Z</time>
      </trkpt>
      <trkpt lat="51.70162" lon="6.59009">
        <ele>69.864042</ele>
        <time>2023-06-26T07:39:45.230Z</time>
      </trkpt>
      <trkpt lat="51.70165" lon="6.59025">
        <ele>69.859048</ele>
        <time>2023-06-26T07:39:47.220Z</time>
      </trkpt>
      <trkpt lat="51.70168" lon="6.59041">
        <ele>69.853983</ele>
        <time>2023-06-26T07:39:49.224Z</time>
      </trkpt>
      <trkpt lat="51.70171" lon="6.59056">
        <ele>69.848961</ele>
        <time>2023-06-26T07:39:51.244Z</time>
      </trkpt>
      <trkpt lat="51.70174" lon="6.59071">
        <ele>69.844202</ele>
        <time>2023-06-26T07:39:53.214Z</time>
      </trkpt>
      <trkpt lat="51.70177" lon="6.59086">
        <ele>69.839379</ele>
        <time>2023-06-26T07:39:55.230Z</time>
      </trkpt>
      <trkpt lat="51.70179" lon="6.59101">
        <ele>69.834656</ele>
        <time>2023-06-26T07:39:57.227Z</time>
      </trkpt>
      <trkpt lat="51.70181" lon="6.59117">
        <ele>69.829744</ele>
        <time>2023-06-26T07:39:59.220Z</time>
      </trkpt>
      <trkpt lat="51.70184" lon="6.59132">
        <ele>69.824854</ele>
        <time>2023-06-26T07:40:01.228Z</time>
      </trkpt>
      <trkpt lat="51.70187" lon="6.59146">
        <ele>69.820224</ele>
        <time>2023-06-26T07:40:03.225Z</time>
      </trkpt>
      <trkpt lat="51.7019" lon="6.59161">
        <ele>69.815553</ele>
        <time>2023-06-26T07:40:05.236Z</time>
      </trkpt>
      <trkpt lat="51.70193" lon="6.59176">
        <ele>69.810779</ele>
        <time>2023-06-26T07:40:07.235Z</time>
      </trkpt>
      <trkpt lat="51.70195" lon="6.59191">
        <ele>69.805901</ele>
        <time>2023-06-26T07:40:09.227Z</time>
      </trkpt>
      <trkpt lat="51.70198" lon="6.59207">
        <ele>69.800922</ele>
        <time>2023-06-26T07:40:11.228Z</time>
      </trkpt>
      <trkpt lat="51.70199" lon="6.59224">
        <ele>69.795869</ele>
        <time>2023-06-26T07:40:13.207Z</time>
      </trkpt>
      <trkpt lat="51.70195" lon="6.59239">
        <ele>69.816677</ele>
        <time>2023-06-26T07:40:15.216Z</time>
      </trkpt>
      <trkpt lat="51.70188" lon="6.5925">
        <ele>69.851207</ele>
        <time>2023-06-26T07:40:17.209Z</time>
      </trkpt>
      <trkpt lat="51.7018" lon="6.5926">
        <ele>69.887279</ele>
        <time>2023-06-26T07:40:19.234Z</time>
      </trkpt>
      <trkpt lat="51.70171" lon="6.59268">
        <ele>69.920193</ele>
        <time>2023-06-26T07:40:21.223Z</time>
      </trkpt>
      <trkpt lat="51.70159" lon="6.59271">
        <ele>69.961972</ele>
        <time>2023-06-26T07:40:24.224Z</time>
      </trkpt>
      <trkpt lat="51.70147" lon="6.59274">
        <ele>70.003786</ele>
        <time>2023-06-26T07:40:27.231Z</time>
      </trkpt>
      <trkpt lat="51.70135" lon="6.59276">
        <ele>70.044917</ele>
        <time>2023-06-26T07:40:30.220Z</time>
      </trkpt>
      <trkpt lat="51.70124" lon="6.59279">
        <ele>70.086357</ele>
        <time>2023-06-26T07:40:33.232Z</time>
      </trkpt>
      <trkpt lat="51.70111" lon="6.59281">
        <ele>70.129608</ele>
        <time>2023-06-26T07:40:36.223Z</time>
      </trkpt>
      <trkpt lat="51.70098" lon="6.59285">
        <ele>70.173562</ele>
        <time>2023-06-26T07:40:39.226Z</time>
      </trkpt>
      <trkpt lat="51.70085" lon="6.59289">
        <ele>70.219358</ele>
        <time>2023-06-26T07:40:42.225Z</time>
      </trkpt>
      <trkpt lat="51.70072" lon="6.59293">
        <ele>70.265153</ele>
        <time>2023-06-26T07:40:45.231Z</time>
      </trkpt>
      <trkpt lat="51.70063" lon="6.59295">
        <ele>70.298147</ele>
        <time>2023-06-26T07:40:47.221Z</time>
      </trkpt>
      <trkpt lat="51.70054" lon="6.59297">
        <ele>70.330186</ele>
        <time>2023-06-26T07:40:49.246Z</time>
      </trkpt>
      <trkpt lat="51.70041" lon="6.59302">
        <ele>70.374124</ele>
        <time>2023-06-26T07:40:52.240Z</time>
      </trkpt>
      <trkpt lat="51.70028" lon="6.59306">
        <ele>70.39537</ele>
        <time>2023-06-26T07:40:55.224Z</time>
      </trkpt>
      <trkpt lat="51.70015" lon="6.59308">
        <ele>70.269786</ele>
        <time>2023-06-26T07:40:58.224Z</time>
      </trkpt>
      <trkpt lat="51.70002" lon="6.59312">
        <ele>70.142267</ele>
        <time>2023-06-26T07:41:01.221Z</time>
      </trkpt>
      <trkpt lat="51.69989" lon="6.59315">
        <ele>70.014649</ele>
        <time>2023-06-26T07:41:04.222Z</time>
      </trkpt>
      <trkpt lat="51.69976" lon="6.5932">
        <ele>69.888124</ele>
        <time>2023-06-26T07:41:07.230Z</time>
      </trkpt>
      <trkpt lat="51.69967" lon="6.59323">
        <ele>69.800703</ele>
        <time>2023-06-26T07:41:09.221Z</time>
      </trkpt>
      <trkpt lat="51.69958" lon="6.59325">
        <ele>69.714652</ele>
        <time>2023-06-26T07:41:11.212Z</time>
      </trkpt>
      <trkpt lat="51.69948" lon="6.59329">
        <ele>69.615321</ele>
        <time>2023-06-26T07:41:13.224Z</time>
      </trkpt>
      <trkpt lat="51.69938" lon="6.59332">
        <ele>69.517277</ele>
        <time>2023-06-26T07:41:15.221Z</time>
      </trkpt>
      <trkpt lat="51.69928" lon="6.59335">
        <ele>69.422372</ele>
        <time>2023-06-26T07:41:17.228Z</time>
      </trkpt>
      <trkpt lat="51.69918" lon="6.59338">
        <ele>69.323504</ele>
        <time>2023-06-26T07:41:19.236Z</time>
      </trkpt>
      <trkpt lat="51.69907" lon="6.59341">
        <ele>69.223166</ele>
        <time>2023-06-26T07:41:21.223Z</time>
      </trkpt>
      <trkpt lat="51.69897" lon="6.59343">
        <ele>69.123951</ele>
        <time>2023-06-26T07:41:23.229Z</time>
      </trkpt>
      <trkpt lat="51.69887" lon="6.59346">
        <ele>69.027649</ele>
        <time>2023-06-26T07:41:25.227Z</time>
      </trkpt>
      <trkpt lat="51.69877" lon="6.59347">
        <ele>68.930921</ele>
        <time>2023-06-26T07:41:27.226Z</time>
      </trkpt>
      <trkpt lat="51.69866" lon="6.5935">
        <ele>68.829548</ele>
        <time>2023-06-26T07:41:29.224Z</time>
      </trkpt>
      <trkpt lat="51.69856" lon="6.59353">
        <ele>68.729016</ele>
        <time>2023-06-26T07:41:31.192Z</time>
      </trkpt>
      <trkpt lat="51.69845" lon="6.59357">
        <ele>68.689336</ele>
        <time>2023-06-26T07:41:33.226Z</time>
      </trkpt>
      <trkpt lat="51.69833" lon="6.59359">
        <ele>68.675008</ele>
        <time>2023-06-26T07:41:35.211Z</time>
      </trkpt>
      <trkpt lat="51.69822" lon="6.59361">
        <ele>68.66095</ele>
        <time>2023-06-26T07:41:37.248Z</time>
      </trkpt>
      <trkpt lat="51.69811" lon="6.59362">
        <ele>68.64719</ele>
        <time>2023-06-26T07:41:39.231Z</time>
      </trkpt>
      <trkpt lat="51.69799" lon="6.59362">
        <ele>68.63309</ele>
        <time>2023-06-26T07:41:41.215Z</time>
      </trkpt>
      <trkpt lat="51.69788" lon="6.59359">
        <ele>68.619292</ele>
        <time>2023-06-26T07:41:43.212Z</time>
      </trkpt>
      <trkpt lat="51.69777" lon="6.59355">
        <ele>68.605037</ele>
        <time>2023-06-26T07:41:45.231Z</time>
      </trkpt>
      <trkpt lat="51.69766" lon="6.59353">
        <ele>68.591286</ele>
        <time>2023-06-26T07:41:47.225Z</time>
      </trkpt>
      <trkpt lat="51.69755" lon="6.59351">
        <ele>68.577454</ele>
        <time>2023-06-26T07:41:49.232Z</time>
      </trkpt>
      <trkpt lat="51.69743" lon="6.59348">
        <ele>68.563744</ele>
        <time>2023-06-26T07:41:51.234Z</time>
      </trkpt>
      <trkpt lat="51.69732" lon="6.59347">
        <ele>68.550204</ele>
        <time>2023-06-26T07:41:53.216Z</time>
      </trkpt>
      <trkpt lat="51.69722" lon="6.59346">
        <ele>68.53731</ele>
        <time>2023-06-26T07:41:55.223Z</time>
      </trkpt>
      <trkpt lat="51.69712" lon="6.59343">
        <ele>68.525134</ele>
        <time>2023-06-26T07:41:57.244Z</time>
      </trkpt>
      <trkpt lat="51.69702" lon="6.59337">
        <ele>68.512143</ele>
        <time>2023-06-26T07:41:59.227Z</time>
      </trkpt>
      <trkpt lat="51.69695" lon="6.59328">
        <ele>68.500259</ele>
        <time>2023-06-26T07:42:01.221Z</time>
      </trkpt>
      <trkpt lat="51.69687" lon="6.59316">
        <ele>68.487731</ele>
        <time>2023-06-26T07:42:03.243Z</time>
      </trkpt>
      <trkpt lat="51.69681" lon="6.59305">
        <ele>68.547336</ele>
        <time>2023-06-26T07:42:05.224Z</time>
      </trkpt>
      <trkpt lat="51.69675" lon="6.59294">
        <ele>68.848343</ele>
        <time>2023-06-26T07:42:07.231Z</time>
      </trkpt>
      <trkpt lat="51.69667" lon="6.59277">
        <ele>69.265603</ele>
        <time>2023-06-26T07:42:10.221Z</time>
      </trkpt>
      <trkpt lat="51.69659" lon="6.59262">
        <ele>69.66811</ele>
        <time>2023-06-26T07:42:13.218Z</time>
      </trkpt>
      <trkpt lat="51.69651" lon="6.59246">
        <ele>70.067189</ele>
        <time>2023-06-26T07:42:16.322Z</time>
      </trkpt>
      <trkpt lat="51.69643" lon="6.59231">
        <ele>70.4825</ele>
        <time>2023-06-26T07:42:19.239Z</time>
      </trkpt>
      <trkpt lat="51.69636" lon="6.59217">
        <ele>70.834288</ele>
        <time>2023-06-26T07:42:22.211Z</time>
      </trkpt>
      <trkpt lat="51.69629" lon="6.59206">
        <ele>71.164488</ele>
        <time>2023-06-26T07:42:27.212Z</time>
      </trkpt>
      <trkpt lat="51.6962" lon="6.59202">
        <ele>71.483588</ele>
        <time>2023-06-26T07:42:30.223Z</time>
      </trkpt>
      <trkpt lat="51.69611" lon="6.59209">
        <ele>71.811893</ele>
        <time>2023-06-26T07:42:33.210Z</time>
      </trkpt>
      <trkpt lat="51.69603" lon="6.59218">
        <ele>72.124365</ele>
        <time>2023-06-26T07:42:36.226Z</time>
      </trkpt>
      <trkpt lat="51.69594" lon="6.5923">
        <ele>72.497739</ele>
        <time>2023-06-26T07:42:39.231Z</time>
      </trkpt>
      <trkpt lat="51.69584" lon="6.59242">
        <ele>72.911461</ele>
        <time>2023-06-26T07:42:42.228Z</time>
      </trkpt>
      <trkpt lat="51.69574" lon="6.59255">
        <ele>73.335186</ele>
        <time>2023-06-26T07:42:45.223Z</time>
      </trkpt>
      <trkpt lat="51.69563" lon="6.59267">
        <ele>73.75375</ele>
        <time>2023-06-26T07:42:48.232Z</time>
      </trkpt>
      <trkpt lat="51.69556" lon="6.59276">
        <ele>74.047214</ele>
        <time>2023-06-26T07:42:50.218Z</time>
      </trkpt>
      <trkpt lat="51.69549" lon="6.59286">
        <ele>74.320622</ele>
        <time>2023-06-26T07:42:52.221Z</time>
      </trkpt>
      <trkpt lat="51.69541" lon="6.59295">
        <ele>74.267053</ele>
        <time>2023-06-26T07:42:54.220Z</time>
      </trkpt>
      <trkpt lat="51.69535" lon="6.59305">
        <ele>74.215265</ele>
        <time>2023-06-26T07:42:56.219Z</time>
      </trkpt>
      <trkpt lat="51.69527" lon="6.59315">
        <ele>74.159964</ele>
        <time>2023-06-26T07:42:58.222Z</time>
      </trkpt>
      <trkpt lat="51.6952" lon="6.59325">
        <ele>74.101576</ele>
        <time>2023-06-26T07:43:00.225Z</time>
      </trkpt>
      <trkpt lat="51.69511" lon="6.59334">
        <ele>74.043833</ele>
        <time>2023-06-26T07:43:02.241Z</time>
      </trkpt>
      <trkpt lat="51.69503" lon="6.59343">
        <ele>73.990205</ele>
        <time>2023-06-26T07:43:04.234Z</time>
      </trkpt>
      <trkpt lat="51.69495" lon="6.59351">
        <ele>73.93275</ele>
        <time>2023-06-26T07:43:06.226Z</time>
      </trkpt>
      <trkpt lat="51.69485" lon="6.59357">
        <ele>73.874532</ele>
        <time>2023-06-26T07:43:08.221Z</time>
      </trkpt>
      <trkpt lat="51.69476" lon="6.59362">
        <ele>73.818072</ele>
        <time>2023-06-26T07:43:10.221Z</time>
      </trkpt>
      <trkpt lat="51.69466" lon="6.59363">
        <ele>73.763337</ele>
        <time>2023-06-26T07:43:12.221Z</time>
      </trkpt>
      <trkpt lat="51.69454" lon="6.59366">
        <ele>73.69405</ele>
        <time>2023-06-26T07:43:15.230Z</time>
      </trkpt>
      <trkpt lat="51.69443" lon="6.59367">
        <ele>73.628136</ele>
        <time>2023-06-26T07:43:18.224Z</time>
      </trkpt>
      <trkpt lat="51.6943" lon="6.59369">
        <ele>73.554119</ele>
        <time>2023-06-26T07:43:21.242Z</time>
      </trkpt>
      <trkpt lat="51.69421" lon="6.59371">
        <ele>73.499913</ele>
        <time>2023-06-26T07:43:23.220Z</time>
      </trkpt>
      <trkpt lat="51.69408" lon="6.59375">
        <ele>73.425883</ele>
        <time>2023-06-26T07:43:26.229Z</time>
      </trkpt>
      <trkpt lat="51.69396" lon="6.59378">
        <ele>73.354133</ele>
        <time>2023-06-26T07:43:29.224Z</time>
      </trkpt>
      <trkpt lat="51.69383" lon="6.59383">
        <ele>73.278408</ele>
        <time>2023-06-26T07:43:32.222Z</time>
      </trkpt>
      <trkpt lat="51.69374" lon="6.59386">
        <ele>73.212022</ele>
        <time>2023-06-26T07:43:34.239Z</time>
      </trkpt>
      <trkpt lat="51.69365" lon="6.59389">
        <ele>73.147602</ele>
        <time>2023-06-26T07:43:36.217Z</time>
      </trkpt>
      <trkpt lat="51.69352" lon="6.59394">
        <ele>73.054011</ele>
        <time>2023-06-26T07:43:39.221Z</time>
      </trkpt>
      <trkpt lat="51.69342" lon="6.59396">
        <ele>72.988669</ele>
        <time>2023-06-26T07:43:41.233Z</time>
      </trkpt>
      <trkpt lat="51.69333" lon="6.59398">
        <ele>72.925048</ele>
        <time>2023-06-26T07:43:43.205Z</time>
      </trkpt>
      <trkpt lat="51.69324" lon="6.594">
        <ele>72.85983</ele>
        <time>2023-06-26T07:43:45.226Z</time>
      </trkpt>
      <trkpt lat="51.69314" lon="6.59403">
        <ele>72.792</ele>
        <time>2023-06-26T07:43:47.226Z</time>
      </trkpt>
      <trkpt lat="51.69301" lon="6.59407">
        <ele>72.697279</ele>
        <time>2023-06-26T07:43:50.222Z</time>
      </trkpt>
      <trkpt lat="51.69288" lon="6.5941">
        <ele>72.604336</ele>
        <time>2023-06-26T07:43:53.221Z</time>
      </trkpt>
      <trkpt lat="51.69279" lon="6.59412">
        <ele>72.540553</ele>
        <time>2023-06-26T07:43:55.233Z</time>
      </trkpt>
      <trkpt lat="51.69266" lon="6.59415">
        <ele>72.44941</ele>
        <time>2023-06-26T07:43:58.221Z</time>
      </trkpt>
      <trkpt lat="51.69257" lon="6.59417">
        <ele>72.385228</ele>
        <time>2023-06-26T07:44:00.224Z</time>
      </trkpt>
      <trkpt lat="51.69248" lon="6.5942">
        <ele>72.322579</ele>
        <time>2023-06-26T07:44:02.215Z</time>
      </trkpt>
      <trkpt lat="51.69235" lon="6.59425">
        <ele>72.23286</ele>
        <time>2023-06-26T07:44:05.217Z</time>
      </trkpt>
      <trkpt lat="51.69222" lon="6.59429">
        <ele>72.139584</ele>
        <time>2023-06-26T07:44:08.211Z</time>
      </trkpt>
      <trkpt lat="51.6921" lon="6.59432">
        <ele>72.053743</ele>
        <time>2023-06-26T07:44:11.228Z</time>
      </trkpt>
      <trkpt lat="51.69197" lon="6.59437">
        <ele>72.012255</ele>
        <time>2023-06-26T07:44:14.227Z</time>
      </trkpt>
      <trkpt lat="51.69188" lon="6.59442">
        <ele>71.987168</ele>
        <time>2023-06-26T07:44:16.239Z</time>
      </trkpt>
      <trkpt lat="51.69179" lon="6.59446">
        <ele>71.962027</ele>
        <time>2023-06-26T07:44:18.240Z</time>
      </trkpt>
      <trkpt lat="51.69167" lon="6.59453">
        <ele>71.926169</ele>
        <time>2023-06-26T07:44:21.220Z</time>
      </trkpt>
      <trkpt lat="51.69158" lon="6.59458">
        <ele>71.9016</ele>
        <time>2023-06-26T07:44:23.231Z</time>
      </trkpt>
      <trkpt lat="51.69145" lon="6.59462">
        <ele>71.86521</ele>
        <time>2023-06-26T07:44:26.222Z</time>
      </trkpt>
      <trkpt lat="51.69136" lon="6.59467">
        <ele>71.837574</ele>
        <time>2023-06-26T07:44:28.224Z</time>
      </trkpt>
      <trkpt lat="51.69127" lon="6.59473">
        <ele>71.812025</ele>
        <time>2023-06-26T07:44:30.245Z</time>
      </trkpt>
      <trkpt lat="51.69118" lon="6.59478">
        <ele>71.786085</ele>
        <time>2023-06-26T07:44:32.220Z</time>
      </trkpt>
      <trkpt lat="51.69108" lon="6.59483">
        <ele>71.75844</ele>
        <time>2023-06-26T07:44:34.228Z</time>
      </trkpt>
      <trkpt lat="51.69099" lon="6.59488">
        <ele>71.731949</ele>
        <time>2023-06-26T07:44:36.231Z</time>
      </trkpt>
      <trkpt lat="51.6909" lon="6.59492">
        <ele>71.705718</ele>
        <time>2023-06-26T07:44:38.219Z</time>
      </trkpt>
      <trkpt lat="51.69077" lon="6.59499">
        <ele>71.668436</ele>
        <time>2023-06-26T07:44:41.221Z</time>
      </trkpt>
      <trkpt lat="51.69064" lon="6.59506">
        <ele>71.63065</ele>
        <time>2023-06-26T07:44:44.223Z</time>
      </trkpt>
      <trkpt lat="51.69055" lon="6.5951">
        <ele>71.605697</ele>
        <time>2023-06-26T07:44:46.220Z</time>
      </trkpt>
      <trkpt lat="51.69046" lon="6.59514">
        <ele>71.579507</ele>
        <time>2023-06-26T07:44:48.222Z</time>
      </trkpt>
      <trkpt lat="51.69037" lon="6.59518">
        <ele>71.553671</ele>
        <time>2023-06-26T07:44:50.219Z</time>
      </trkpt>
      <trkpt lat="51.69028" lon="6.59522">
        <ele>71.584788</ele>
        <time>2023-06-26T07:44:52.222Z</time>
      </trkpt>
      <trkpt lat="51.69019" lon="6.59528">
        <ele>71.61848</ele>
        <time>2023-06-26T07:44:54.223Z</time>
      </trkpt>
      <trkpt lat="51.69009" lon="6.59534">
        <ele>71.651841</ele>
        <time>2023-06-26T07:44:56.230Z</time>
      </trkpt>
      <trkpt lat="51.68999" lon="6.59539">
        <ele>71.686676</ele>
        <time>2023-06-26T07:44:58.217Z</time>
      </trkpt>
      <trkpt lat="51.6899" lon="6.59543">
        <ele>71.719219</ele>
        <time>2023-06-26T07:45:00.221Z</time>
      </trkpt>
      <trkpt lat="51.68981" lon="6.59548">
        <ele>71.751681</ele>
        <time>2023-06-26T07:45:02.225Z</time>
      </trkpt>
      <trkpt lat="51.68972" lon="6.59553">
        <ele>71.783666</ele>
        <time>2023-06-26T07:45:04.230Z</time>
      </trkpt>
      <trkpt lat="51.68962" lon="6.59558">
        <ele>71.819144</ele>
        <time>2023-06-26T07:45:06.228Z</time>
      </trkpt>
      <trkpt lat="51.68952" lon="6.59563">
        <ele>71.852891</ele>
        <time>2023-06-26T07:45:08.220Z</time>
      </trkpt>
      <trkpt lat="51.68943" lon="6.59569">
        <ele>71.887753</ele>
        <time>2023-06-26T07:45:10.226Z</time>
      </trkpt>
      <trkpt lat="51.68934" lon="6.59574">
        <ele>71.920159</ele>
        <time>2023-06-26T07:45:12.224Z</time>
      </trkpt>
      <trkpt lat="51.68924" lon="6.59579">
        <ele>71.953388</ele>
        <time>2023-06-26T07:45:14.210Z</time>
      </trkpt>
      <trkpt lat="51.68914" lon="6.59584">
        <ele>71.988526</ele>
        <time>2023-06-26T07:45:16.227Z</time>
      </trkpt>
      <trkpt lat="51.68905" lon="6.59589">
        <ele>72.022272</ele>
        <time>2023-06-26T07:45:18.210Z</time>
      </trkpt>
      <trkpt lat="51.68895" lon="6.59593">
        <ele>72.05455</ele>
        <time>2023-06-26T07:45:20.208Z</time>
      </trkpt>
      <trkpt lat="51.68886" lon="6.59598">
        <ele>72.08823</ele>
        <time>2023-06-26T07:45:22.214Z</time>
      </trkpt>
      <trkpt lat="51.68876" lon="6.59603">
        <ele>72.122299</ele>
        <time>2023-06-26T07:45:24.221Z</time>
      </trkpt>
      <trkpt lat="51.68865" lon="6.59607">
        <ele>72.153976</ele>
        <time>2023-06-26T07:45:26.220Z</time>
      </trkpt>
      <trkpt lat="51.68855" lon="6.59612">
        <ele>72.03959</ele>
        <time>2023-06-26T07:45:28.220Z</time>
      </trkpt>
      <trkpt lat="51.68843" lon="6.59618">
        <ele>71.918682</ele>
        <time>2023-06-26T07:45:30.202Z</time>
      </trkpt>
      <trkpt lat="51.68833" lon="6.59623">
        <ele>71.81099</ele>
        <time>2023-06-26T07:45:32.216Z</time>
      </trkpt>
      <trkpt lat="51.68824" lon="6.59629">
        <ele>71.707713</ele>
        <time>2023-06-26T07:45:34.218Z</time>
      </trkpt>
      <trkpt lat="51.68815" lon="6.59634">
        <ele>71.614583</ele>
        <time>2023-06-26T07:45:36.211Z</time>
      </trkpt>
      <trkpt lat="51.68806" lon="6.59639">
        <ele>71.51488</ele>
        <time>2023-06-26T07:45:38.218Z</time>
      </trkpt>
      <trkpt lat="51.68797" lon="6.59644">
        <ele>71.422278</ele>
        <time>2023-06-26T07:45:40.225Z</time>
      </trkpt>
      <trkpt lat="51.68785" lon="6.59652">
        <ele>71.289696</ele>
        <time>2023-06-26T07:45:43.210Z</time>
      </trkpt>
      <trkpt lat="51.68774" lon="6.59659">
        <ele>71.162784</ele>
        <time>2023-06-26T07:45:46.242Z</time>
      </trkpt>
      <trkpt lat="51.68762" lon="6.59666">
        <ele>71.033876</ele>
        <time>2023-06-26T07:45:49.207Z</time>
      </trkpt>
      <trkpt lat="51.68749" lon="6.59673">
        <ele>70.897596</ele>
        <time>2023-06-26T07:45:52.218Z</time>
      </trkpt>
      <trkpt lat="51.6874" lon="6.59678">
        <ele>70.800942</ele>
        <time>2023-06-26T07:45:54.220Z</time>
      </trkpt>
      <trkpt lat="51.68732" lon="6.59682">
        <ele>70.70857</ele>
        <time>2023-06-26T07:45:56.217Z</time>
      </trkpt>
      <trkpt lat="51.68718" lon="6.59689">
        <ele>70.565133</ele>
        <time>2023-06-26T07:45:59.237Z</time>
      </trkpt>
      <trkpt lat="51.68709" lon="6.59694">
        <ele>70.460762</ele>
        <time>2023-06-26T07:46:01.230Z</time>
      </trkpt>
      <trkpt lat="51.68698" lon="6.59699">
        <ele>70.343719</ele>
        <time>2023-06-26T07:46:03.224Z</time>
      </trkpt>
      <trkpt lat="51.68688" lon="6.59704">
        <ele>70.340088</ele>
        <time>2023-06-26T07:46:05.198Z</time>
      </trkpt>
      <trkpt lat="51.68678" lon="6.5971">
        <ele>70.362492</ele>
        <time>2023-06-26T07:46:07.223Z</time>
      </trkpt>
      <trkpt lat="51.68667" lon="6.59716">
        <ele>70.38709</ele>
        <time>2023-06-26T07:46:09.238Z</time>
      </trkpt>
      <trkpt lat="51.68657" lon="6.59722">
        <ele>70.411346</ele>
        <time>2023-06-26T07:46:11.232Z</time>
      </trkpt>
      <trkpt lat="51.68647" lon="6.59728">
        <ele>70.435122</ele>
        <time>2023-06-26T07:46:13.208Z</time>
      </trkpt>
      <trkpt lat="51.68636" lon="6.59732">
        <ele>70.458245</ele>
        <time>2023-06-26T07:46:15.234Z</time>
      </trkpt>
      <trkpt lat="51.68627" lon="6.59738">
        <ele>70.481505</ele>
        <time>2023-06-26T07:46:17.259Z</time>
      </trkpt>
      <trkpt lat="51.68617" lon="6.59744">
        <ele>70.504463</ele>
        <time>2023-06-26T07:46:19.216Z</time>
      </trkpt>
      <trkpt lat="51.68606" lon="6.59749">
        <ele>70.527858</ele>
        <time>2023-06-26T07:46:21.226Z</time>
      </trkpt>
      <trkpt lat="51.68597" lon="6.59753">
        <ele>70.549217</ele>
        <time>2023-06-26T07:46:23.254Z</time>
      </trkpt>
      <trkpt lat="51.68588" lon="6.59757">
        <ele>70.569065</ele>
        <time>2023-06-26T07:46:25.224Z</time>
      </trkpt>
      <trkpt lat="51.6858" lon="6.59765">
        <ele>70.590754</ele>
        <time>2023-06-26T07:46:28.219Z</time>
      </trkpt>
      <trkpt lat="51.6857" lon="6.59773">
        <ele>70.615458</ele>
        <time>2023-06-26T07:46:32.217Z</time>
      </trkpt>
      <trkpt lat="51.68561" lon="6.59784">
        <ele>70.638085</ele>
        <time>2023-06-26T07:46:37.228Z</time>
      </trkpt>
      <trkpt lat="51.68553" lon="6.59794">
        <ele>70.660967</ele>
        <time>2023-06-26T07:46:42.215Z</time>
      </trkpt>
      <trkpt lat="51.68547" lon="6.59809">
        <ele>70.686366</ele>
        <time>2023-06-26T07:46:46.228Z</time>
      </trkpt>
      <trkpt lat="51.68538" lon="6.59823">
        <ele>70.712722</ele>
        <time>2023-06-26T07:46:50.223Z</time>
      </trkpt>
      <trkpt lat="51.68528" lon="6.59829">
        <ele>70.840079</ele>
        <time>2023-06-26T07:46:53.227Z</time>
      </trkpt>
      <trkpt lat="51.68518" lon="6.59831">
        <ele>70.98463</ele>
        <time>2023-06-26T07:46:56.211Z</time>
      </trkpt>
      <trkpt lat="51.68508" lon="6.59837">
        <ele>71.131302</ele>
        <time>2023-06-26T07:46:59.211Z</time>
      </trkpt>
      <trkpt lat="51.68497" lon="6.59842">
        <ele>71.283256</ele>
        <time>2023-06-26T07:47:02.216Z</time>
      </trkpt>
      <trkpt lat="51.68487" lon="6.59849">
        <ele>71.438052</ele>
        <time>2023-06-26T07:47:05.220Z</time>
      </trkpt>
      <trkpt lat="51.6848" lon="6.59862">
        <ele>71.582916</ele>
        <time>2023-06-26T07:47:08.220Z</time>
      </trkpt>
      <trkpt lat="51.68475" lon="6.59878">
        <ele>71.736073</ele>
        <time>2023-06-26T07:47:11.279Z</time>
      </trkpt>
      <trkpt lat="51.68468" lon="6.59894">
        <ele>71.906473</ele>
        <time>2023-06-26T07:47:14.223Z</time>
      </trkpt>
      <trkpt lat="51.68461" lon="6.59913">
        <ele>72.087739</ele>
        <time>2023-06-26T07:47:17.226Z</time>
      </trkpt>
      <trkpt lat="51.68457" lon="6.59926">
        <ele>72.216989</ele>
        <time>2023-06-26T07:47:19.248Z</time>
      </trkpt>
      <trkpt lat="51.68451" lon="6.59939">
        <ele>72.351894</ele>
        <time>2023-06-26T07:47:21.224Z</time>
      </trkpt>
      <trkpt lat="51.68446" lon="6.59952">
        <ele>72.481676</ele>
        <time>2023-06-26T07:47:23.235Z</time>
      </trkpt>
      <trkpt lat="51.68442" lon="6.59966">
        <ele>72.617335</ele>
        <time>2023-06-26T07:47:25.223Z</time>
      </trkpt>
      <trkpt lat="51.68436" lon="6.59979">
        <ele>72.750888</ele>
        <time>2023-06-26T07:47:27.238Z</time>
      </trkpt>
      <trkpt lat="51.6843" lon="6.59993">
        <ele>72.896267</ele>
        <time>2023-06-26T07:47:29.225Z</time>
      </trkpt>
      <trkpt lat="51.68423" lon="6.60007">
        <ele>73.049169</ele>
        <time>2023-06-26T07:47:31.248Z</time>
      </trkpt>
      <trkpt lat="51.68416" lon="6.60022">
        <ele>73.179119</ele>
        <time>2023-06-26T07:47:33.218Z</time>
      </trkpt>
      <trkpt lat="51.6841" lon="6.60036">
        <ele>73.071027</ele>
        <time>2023-06-26T07:47:35.230Z</time>
      </trkpt>
      <trkpt lat="51.68403" lon="6.6005">
        <ele>72.964498</ele>
        <time>2023-06-26T07:47:37.224Z</time>
      </trkpt>
      <trkpt lat="51.68397" lon="6.60064">
        <ele>72.857079</ele>
        <time>2023-06-26T07:47:39.228Z</time>
      </trkpt>
      <trkpt lat="51.6839" lon="6.6008">
        <ele>72.741493</ele>
        <time>2023-06-26T07:47:41.228Z</time>
      </trkpt>
      <trkpt lat="51.68383" lon="6.60094">
        <ele>72.629563</ele>
        <time>2023-06-26T07:47:43.231Z</time>
      </trkpt>
      <trkpt lat="51.68376" lon="6.6011">
        <ele>72.512273</ele>
        <time>2023-06-26T07:47:45.224Z</time>
      </trkpt>
      <trkpt lat="51.6837" lon="6.60125">
        <ele>72.401493</ele>
        <time>2023-06-26T07:47:47.245Z</time>
      </trkpt>
      <trkpt lat="51.68364" lon="6.60139">
        <ele>72.298431</ele>
        <time>2023-06-26T07:47:49.229Z</time>
      </trkpt>
      <trkpt lat="51.68358" lon="6.60154">
        <ele>72.190187</ele>
        <time>2023-06-26T07:47:51.237Z</time>
      </trkpt>
      <trkpt lat="51.68351" lon="6.60166">
        <ele>72.091169</ele>
        <time>2023-06-26T07:47:53.238Z</time>
      </trkpt>
      <trkpt lat="51.68343" lon="6.60176">
        <ele>71.987878</ele>
        <time>2023-06-26T07:47:55.225Z</time>
      </trkpt>
      <trkpt lat="51.68336" lon="6.60189">
        <ele>71.886591</ele>
        <time>2023-06-26T07:47:57.232Z</time>
      </trkpt>
      <trkpt lat="51.6833" lon="6.602">
        <ele>71.794579</ele>
        <time>2023-06-26T07:47:59.239Z</time>
      </trkpt>
      <trkpt lat="51.68324" lon="6.60211">
        <ele>71.703508</ele>
        <time>2023-06-26T07:48:01.239Z</time>
      </trkpt>
      <trkpt lat="51.68314" lon="6.60223">
        <ele>71.580699</ele>
        <time>2023-06-26T07:48:04.218Z</time>
      </trkpt>
      <trkpt lat="51.68304" lon="6.60235">
        <ele>71.458305</ele>
        <time>2023-06-26T07:48:07.227Z</time>
      </trkpt>
      <trkpt lat="51.68293" lon="6.60247">
        <ele>71.452964</ele>
        <time>2023-06-26T07:48:10.227Z</time>
      </trkpt>
      <trkpt lat="51.68282" lon="6.60257">
        <ele>71.490343</ele>
        <time>2023-06-26T07:48:13.223Z</time>
      </trkpt>
      <trkpt lat="51.68272" lon="6.60262">
        <ele>71.52461</ele>
        <time>2023-06-26T07:48:17.223Z</time>
      </trkpt>
      <trkpt lat="51.68262" lon="6.60257">
        <ele>71.557403</ele>
        <time>2023-06-26T07:48:23.220Z</time>
      </trkpt>
      <trkpt lat="51.68252" lon="6.60266">
        <ele>71.592025</ele>
        <time>2023-06-26T07:48:27.224Z</time>
      </trkpt>
      <trkpt lat="51.68245" lon="6.60277">
        <ele>71.62146</ele>
        <time>2023-06-26T07:48:30.214Z</time>
      </trkpt>
      <trkpt lat="51.68235" lon="6.60287">
        <ele>71.656993</ele>
        <time>2023-06-26T07:48:33.221Z</time>
      </trkpt>
      <trkpt lat="51.68224" lon="6.60292">
        <ele>71.694288</ele>
        <time>2023-06-26T07:48:36.216Z</time>
      </trkpt>
      <trkpt lat="51.68212" lon="6.60299">
        <ele>71.734097</ele>
        <time>2023-06-26T07:48:39.231Z</time>
      </trkpt>
      <trkpt lat="51.682" lon="6.60308">
        <ele>71.775572</ele>
        <time>2023-06-26T07:48:42.223Z</time>
      </trkpt>
      <trkpt lat="51.68188" lon="6.60317">
        <ele>71.816685</ele>
        <time>2023-06-26T07:48:45.228Z</time>
      </trkpt>
      <trkpt lat="51.68175" lon="6.60322">
        <ele>71.856232</ele>
        <time>2023-06-26T07:48:48.224Z</time>
      </trkpt>
      <trkpt lat="51.68163" lon="6.60328">
        <ele>71.895671</ele>
        <time>2023-06-26T07:48:51.227Z</time>
      </trkpt>
      <trkpt lat="51.68154" lon="6.60332">
        <ele>71.924151</ele>
        <time>2023-06-26T07:48:53.208Z</time>
      </trkpt>
      <trkpt lat="51.68142" lon="6.60339">
        <ele>71.964579</ele>
        <time>2023-06-26T07:48:56.232Z</time>
      </trkpt>
      <trkpt lat="51.68133" lon="6.60343">
        <ele>71.947533</ele>
        <time>2023-06-26T07:48:58.233Z</time>
      </trkpt>
      <trkpt lat="51.68121" lon="6.6035">
        <ele>71.816121</ele>
        <time>2023-06-26T07:49:01.226Z</time>
      </trkpt>
      <trkpt lat="51.68108" lon="6.60356">
        <ele>71.689362</ele>
        <time>2023-06-26T07:49:04.223Z</time>
      </trkpt>
      <trkpt lat="51.68097" lon="6.60362">
        <ele>71.568235</ele>
        <time>2023-06-26T07:49:07.239Z</time>
      </trkpt>
      <trkpt lat="51.68085" lon="6.6037">
        <ele>71.440689</ele>
        <time>2023-06-26T07:49:10.210Z</time>
      </trkpt>
      <trkpt lat="51.68074" lon="6.60382">
        <ele>71.312648</ele>
        <time>2023-06-26T07:49:13.231Z</time>
      </trkpt>
      <trkpt lat="51.68066" lon="6.60389">
        <ele>71.224136</ele>
        <time>2023-06-26T07:49:15.225Z</time>
      </trkpt>
      <trkpt lat="51.68054" lon="6.60399">
        <ele>71.094747</ele>
        <time>2023-06-26T07:49:18.206Z</time>
      </trkpt>
      <trkpt lat="51.68045" lon="6.60405">
        <ele>71.001626</ele>
        <time>2023-06-26T07:49:20.226Z</time>
      </trkpt>
      <trkpt lat="51.68036" lon="6.60412">
        <ele>70.902653</ele>
        <time>2023-06-26T07:49:22.218Z</time>
      </trkpt>
      <trkpt lat="51.68028" lon="6.60419">
        <ele>70.811376</ele>
        <time>2023-06-26T07:49:24.232Z</time>
      </trkpt>
      <trkpt lat="51.68016" lon="6.60428">
        <ele>70.682508</ele>
        <time>2023-06-26T07:49:27.225Z</time>
      </trkpt>
      <trkpt lat="51.68008" lon="6.60435">
        <ele>70.588088</ele>
        <time>2023-06-26T07:49:29.233Z</time>
      </trkpt>
      <trkpt lat="51.67999" lon="6.60442">
        <ele>70.496206</ele>
        <time>2023-06-26T07:49:31.225Z</time>
      </trkpt>
      <trkpt lat="51.67991" lon="6.60449">
        <ele>70.403502</ele>
        <time>2023-06-26T07:49:33.216Z</time>
      </trkpt>
      <trkpt lat="51.67983" lon="6.60455">
        <ele>70.314183</ele>
        <time>2023-06-26T07:49:35.240Z</time>
      </trkpt>
      <trkpt lat="51.67974" lon="6.60462">
        <ele>70.219763</ele>
        <time>2023-06-26T07:49:37.221Z</time>
      </trkpt>
      <trkpt lat="51.67966" lon="6.60469">
        <ele>70.259168</ele>
        <time>2023-06-26T07:49:39.226Z</time>
      </trkpt>
      <trkpt lat="51.67957" lon="6.60476">
        <ele>70.302724</ele>
        <time>2023-06-26T07:49:41.242Z</time>
      </trkpt>
      <trkpt lat="51.67945" lon="6.60485">
        <ele>70.361513</ele>
        <time>2023-06-26T07:49:44.223Z</time>
      </trkpt>
      <trkpt lat="51.67933" lon="6.60494">
        <ele>70.421662</ele>
        <time>2023-06-26T07:49:47.243Z</time>
      </trkpt>
      <trkpt lat="51.67921" lon="6.60504">
        <ele>70.479973</ele>
        <time>2023-06-26T07:49:50.232Z</time>
      </trkpt>
      <trkpt lat="51.67909" lon="6.60511">
        <ele>70.537626</ele>
        <time>2023-06-26T07:49:53.214Z</time>
      </trkpt>
      <trkpt lat="51.679" lon="6.60518">
        <ele>70.582154</ele>
        <time>2023-06-26T07:49:55.215Z</time>
      </trkpt>
      <trkpt lat="51.67891" lon="6.60523">
        <ele>70.62382</ele>
        <time>2023-06-26T07:49:57.238Z</time>
      </trkpt>
      <trkpt lat="51.67878" lon="6.60527">
        <ele>70.679964</ele>
        <time>2023-06-26T07:50:00.219Z</time>
      </trkpt>
      <trkpt lat="51.67865" lon="6.60532">
        <ele>70.739996</ele>
        <time>2023-06-26T07:50:03.212Z</time>
      </trkpt>
      <trkpt lat="51.67853" lon="6.60537">
        <ele>70.796951</ele>
        <time>2023-06-26T07:50:06.222Z</time>
      </trkpt>
      <trkpt lat="51.67841" lon="6.60542">
        <ele>70.853633</ele>
        <time>2023-06-26T07:50:09.217Z</time>
      </trkpt>
      <trkpt lat="51.67828" lon="6.60549">
        <ele>70.911015</ele>
        <time>2023-06-26T07:50:12.224Z</time>
      </trkpt>
      <trkpt lat="51.67815" lon="6.60555">
        <ele>70.970764</ele>
        <time>2023-06-26T07:50:15.240Z</time>
      </trkpt>
      <trkpt lat="51.67803" lon="6.60561">
        <ele>71.044463</ele>
        <time>2023-06-26T07:50:18.248Z</time>
      </trkpt>
      <trkpt lat="51.67793" lon="6.60566">
        <ele>71.193874</ele>
        <time>2023-06-26T07:50:21.224Z</time>
      </trkpt>
      <trkpt lat="51.67783" lon="6.60578">
        <ele>71.359337</ele>
        <time>2023-06-26T07:50:24.215Z</time>
      </trkpt>
      <trkpt lat="51.67775" lon="6.60588">
        <ele>71.487094</ele>
        <time>2023-06-26T07:50:26.209Z</time>
      </trkpt>
      <trkpt lat="51.67768" lon="6.60599">
        <ele>71.614568</ele>
        <time>2023-06-26T07:50:28.220Z</time>
      </trkpt>
      <trkpt lat="51.67762" lon="6.6061">
        <ele>71.734325</ele>
        <time>2023-06-26T07:50:30.224Z</time>
      </trkpt>
      <trkpt lat="51.67757" lon="6.60623">
        <ele>71.860027</ele>
        <time>2023-06-26T07:50:32.243Z</time>
      </trkpt>
      <trkpt lat="51.67751" lon="6.60634">
        <ele>71.984129</ele>
        <time>2023-06-26T07:50:34.222Z</time>
      </trkpt>
      <trkpt lat="51.67744" lon="6.60645">
        <ele>72.112128</ele>
        <time>2023-06-26T07:50:36.206Z</time>
      </trkpt>
      <trkpt lat="51.67737" lon="6.60658">
        <ele>72.249474</ele>
        <time>2023-06-26T07:50:38.236Z</time>
      </trkpt>
      <trkpt lat="51.67731" lon="6.6067">
        <ele>72.378515</ele>
        <time>2023-06-26T07:50:40.229Z</time>
      </trkpt>
      <trkpt lat="51.67724" lon="6.60681">
        <ele>72.505614</ele>
        <time>2023-06-26T07:50:42.235Z</time>
      </trkpt>
      <trkpt lat="51.67718" lon="6.60694">
        <ele>72.642084</ele>
        <time>2023-06-26T07:50:44.201Z</time>
      </trkpt>
      <trkpt lat="51.67711" lon="6.60706">
        <ele>72.770906</ele>
        <time>2023-06-26T07:50:46.236Z</time>
      </trkpt>
      <trkpt lat="51.67705" lon="6.60718">
        <ele>72.901673</ele>
        <time>2023-06-26T07:50:48.232Z</time>
      </trkpt>
      <trkpt lat="51.67699" lon="6.60731">
        <ele>73.037082</ele>
        <time>2023-06-26T07:50:50.224Z</time>
      </trkpt>
      <trkpt lat="51.67692" lon="6.60743">
        <ele>73.173205</ele>
        <time>2023-06-26T07:50:52.237Z</time>
      </trkpt>
      <trkpt lat="51.67685" lon="6.60755">
        <ele>73.308723</ele>
        <time>2023-06-26T07:50:54.214Z</time>
      </trkpt>
      <trkpt lat="51.67678" lon="6.60768">
        <ele>73.344546</ele>
        <time>2023-06-26T07:50:56.221Z</time>
      </trkpt>
      <trkpt lat="51.67672" lon="6.60779">
        <ele>73.221635</ele>
        <time>2023-06-26T07:50:58.225Z</time>
      </trkpt>
      <trkpt lat="51.67665" lon="6.6079">
        <ele>73.093806</ele>
        <time>2023-06-26T07:51:00.229Z</time>
      </trkpt>
      <trkpt lat="51.67657" lon="6.60806">
        <ele>72.913765</ele>
        <time>2023-06-26T07:51:03.225Z</time>
      </trkpt>
      <trkpt lat="51.67648" lon="6.60821">
        <ele>72.741931</ele>
        <time>2023-06-26T07:51:06.223Z</time>
      </trkpt>
      <trkpt lat="51.67642" lon="6.60832">
        <ele>72.61932</ele>
        <time>2023-06-26T07:51:08.226Z</time>
      </trkpt>
      <trkpt lat="51.67633" lon="6.60844">
        <ele>72.4591</ele>
        <time>2023-06-26T07:51:11.221Z</time>
      </trkpt>
      <trkpt lat="51.67623" lon="6.60856">
        <ele>72.295767</ele>
        <time>2023-06-26T07:51:14.224Z</time>
      </trkpt>
      <trkpt lat="51.67614" lon="6.60867">
        <ele>72.137471</ele>
        <time>2023-06-26T07:51:17.239Z</time>
      </trkpt>
      <trkpt lat="51.67603" lon="6.60876">
        <ele>71.982453</ele>
        <time>2023-06-26T07:51:20.238Z</time>
      </trkpt>
      <trkpt lat="51.67594" lon="6.60884">
        <ele>71.832629</ele>
        <time>2023-06-26T07:51:23.220Z</time>
      </trkpt>
      <trkpt lat="51.67583" lon="6.60893">
        <ele>71.665949</ele>
        <time>2023-06-26T07:51:26.219Z</time>
      </trkpt>
      <trkpt lat="51.67571" lon="6.609">
        <ele>71.502755</ele>
        <time>2023-06-26T07:51:29.226Z</time>
      </trkpt>
      <trkpt lat="51.6756" lon="6.60905">
        <ele>71.339555</ele>
        <time>2023-06-26T07:51:32.224Z</time>
      </trkpt>
      <trkpt lat="51.67549" lon="6.60908">
        <ele>71.1853</ele>
        <time>2023-06-26T07:51:35.221Z</time>
      </trkpt>
      <trkpt lat="51.67538" lon="6.60911">
        <ele>71.041761</ele>
        <time>2023-06-26T07:51:38.239Z</time>
      </trkpt>
      <trkpt lat="51.67529" lon="6.60914">
        <ele>70.919313</ele>
        <time>2023-06-26T07:51:41.231Z</time>
      </trkpt>
      <trkpt lat="51.67517" lon="6.60915">
        <ele>70.766627</ele>
        <time>2023-06-26T07:51:45.224Z</time>
      </trkpt>
      <trkpt lat="51.67508" lon="6.60916">
        <ele>70.646312</ele>
        <time>2023-06-26T07:51:48.221Z</time>
      </trkpt>
      <trkpt lat="51.67497" lon="6.60918">
        <ele>70.504643</ele>
        <time>2023-06-26T07:51:51.202Z</time>
      </trkpt>
      <trkpt lat="51.67486" lon="6.6092">
        <ele>70.363508</ele>
        <time>2023-06-26T07:51:54.240Z</time>
      </trkpt>
      <trkpt lat="51.67474" lon="6.60924">
        <ele>70.204015</ele>
        <time>2023-06-26T07:51:57.222Z</time>
      </trkpt>
      <trkpt lat="51.67462" lon="6.60927">
        <ele>70.040571</ele>
        <time>2023-06-26T07:52:00.212Z</time>
      </trkpt>
      <trkpt lat="51.6745" lon="6.60929">
        <ele>69.893385</ele>
        <time>2023-06-26T07:52:03.212Z</time>
      </trkpt>
      <trkpt lat="51.67438" lon="6.60931">
        <ele>69.73348</ele>
        <time>2023-06-26T07:52:06.359Z</time>
      </trkpt>
      <trkpt lat="51.67425" lon="6.60932">
        <ele>69.57205</ele>
        <time>2023-06-26T07:52:09.227Z</time>
      </trkpt>
      <trkpt lat="51.67413" lon="6.6093">
        <ele>69.414157</ele>
        <time>2023-06-26T07:52:12.230Z</time>
      </trkpt>
      <trkpt lat="51.67401" lon="6.60928">
        <ele>69.258282</ele>
        <time>2023-06-26T07:52:15.216Z</time>
      </trkpt>
      <trkpt lat="51.6739" lon="6.60929">
        <ele>69.112039</ele>
        <time>2023-06-26T07:52:18.221Z</time>
      </trkpt>
      <trkpt lat="51.67378" lon="6.60929">
        <ele>68.954391</ele>
        <time>2023-06-26T07:52:21.237Z</time>
      </trkpt>
      <trkpt lat="51.67366" lon="6.60927">
        <ele>68.798896</ele>
        <time>2023-06-26T07:52:24.251Z</time>
      </trkpt>
      <trkpt lat="51.67354" lon="6.60925">
        <ele>68.644215</ele>
        <time>2023-06-26T07:52:27.226Z</time>
      </trkpt>
      <trkpt lat="51.67343" lon="6.60923">
        <ele>68.656875</ele>
        <time>2023-06-26T07:52:30.255Z</time>
      </trkpt>
      <trkpt lat="51.67332" lon="6.60918">
        <ele>68.673775</ele>
        <time>2023-06-26T07:52:33.222Z</time>
      </trkpt>
      <trkpt lat="51.67324" lon="6.60909">
        <ele>68.689207</ele>
        <time>2023-06-26T07:52:36.288Z</time>
      </trkpt>
      <trkpt lat="51.67318" lon="6.60893">
        <ele>68.707033</ele>
        <time>2023-06-26T07:52:40.214Z</time>
      </trkpt>
      <trkpt lat="51.67314" lon="6.60879">
        <ele>68.722328</ele>
        <time>2023-06-26T07:52:44.222Z</time>
      </trkpt>
      <trkpt lat="51.67304" lon="6.60875">
        <ele>68.737539</ele>
        <time>2023-06-26T07:52:50.215Z</time>
      </trkpt>
      <trkpt lat="51.67294" lon="6.60879">
        <ele>68.753008</ele>
        <time>2023-06-26T07:52:54.219Z</time>
      </trkpt>
      <trkpt lat="51.67285" lon="6.60884">
        <ele>68.767893</ele>
        <time>2023-06-26T07:52:59.217Z</time>
      </trkpt>
      <trkpt lat="51.67282" lon="6.60868">
        <ele>68.783801</ele>
        <time>2023-06-26T07:53:06.215Z</time>
      </trkpt>
      <trkpt lat="51.67276" lon="6.60852">
        <ele>68.800847</ele>
        <time>2023-06-26T07:53:11.215Z</time>
      </trkpt>
      <trkpt lat="51.67265" lon="6.60852">
        <ele>68.818449</ele>
        <time>2023-06-26T07:53:16.208Z</time>
      </trkpt>
      <trkpt lat="51.67254" lon="6.60858">
        <ele>68.835753</ele>
        <time>2023-06-26T07:53:19.224Z</time>
      </trkpt>
      <trkpt lat="51.67241" lon="6.6086">
        <ele>68.856669</ele>
        <time>2023-06-26T07:53:22.221Z</time>
      </trkpt>
      <trkpt lat="51.67228" lon="6.60866">
        <ele>68.876299</ele>
        <time>2023-06-26T07:53:25.223Z</time>
      </trkpt>
      <trkpt lat="51.67216" lon="6.60872">
        <ele>68.896019</ele>
        <time>2023-06-26T07:53:28.215Z</time>
      </trkpt>
      <trkpt lat="51.67206" lon="6.60875">
        <ele>68.910915</ele>
        <time>2023-06-26T07:53:30.204Z</time>
      </trkpt>
      <trkpt lat="51.67196" lon="6.60878">
        <ele>68.937587</ele>
        <time>2023-06-26T07:53:32.218Z</time>
      </trkpt>
      <trkpt lat="51.67187" lon="6.60885">
        <ele>68.969391</ele>
        <time>2023-06-26T07:53:34.214Z</time>
      </trkpt>
      <trkpt lat="51.67179" lon="6.60892">
        <ele>69.000198</ele>
        <time>2023-06-26T07:53:36.211Z</time>
      </trkpt>
      <trkpt lat="51.6717" lon="6.60897">
        <ele>69.030461</ele>
        <time>2023-06-26T07:53:38.223Z</time>
      </trkpt>
      <trkpt lat="51.6716" lon="6.60901">
        <ele>69.062725</ele>
        <time>2023-06-26T07:53:40.218Z</time>
      </trkpt>
      <trkpt lat="51.67151" lon="6.60905">
        <ele>69.093483</ele>
        <time>2023-06-26T07:53:42.218Z</time>
      </trkpt>
      <trkpt lat="51.67142" lon="6.60908">
        <ele>69.122624</ele>
        <time>2023-06-26T07:53:44.231Z</time>
      </trkpt>
      <trkpt lat="51.67133" lon="6.60911">
        <ele>69.152057</ele>
        <time>2023-06-26T07:53:46.226Z</time>
      </trkpt>
      <trkpt lat="51.67123" lon="6.60914">
        <ele>69.182099</ele>
        <time>2023-06-26T07:53:48.217Z</time>
      </trkpt>
      <trkpt lat="51.67114" lon="6.60916">
        <ele>69.212669</ele>
        <time>2023-06-26T07:53:50.222Z</time>
      </trkpt>
      <trkpt lat="51.67104" lon="6.60918">
        <ele>69.244599</ele>
        <time>2023-06-26T07:53:52.225Z</time>
      </trkpt>
      <trkpt lat="51.67094" lon="6.60919">
        <ele>69.274294</ele>
        <time>2023-06-26T07:53:54.234Z</time>
      </trkpt>
      <trkpt lat="51.67085" lon="6.60921">
        <ele>69.305698</ele>
        <time>2023-06-26T07:53:56.224Z</time>
      </trkpt>
      <trkpt lat="51.67075" lon="6.60923">
        <ele>69.33666</ele>
        <time>2023-06-26T07:53:58.225Z</time>
      </trkpt>
      <trkpt lat="51.67065" lon="6.60924">
        <ele>69.367891</ele>
        <time>2023-06-26T07:54:00.226Z</time>
      </trkpt>
      <trkpt lat="51.67056" lon="6.60925">
        <ele>69.398475</ele>
        <time>2023-06-26T07:54:02.219Z</time>
      </trkpt>
      <trkpt lat="51.67046" lon="6.60925">
        <ele>69.429026</ele>
        <time>2023-06-26T07:54:04.224Z</time>
      </trkpt>
      <trkpt lat="51.67036" lon="6.60925">
        <ele>69.459552</ele>
        <time>2023-06-26T07:54:06.230Z</time>
      </trkpt>
      <trkpt lat="51.67027" lon="6.60924">
        <ele>69.479516</ele>
        <time>2023-06-26T07:54:08.230Z</time>
      </trkpt>
      <trkpt lat="51.67017" lon="6.60925">
        <ele>69.381357</ele>
        <time>2023-06-26T07:54:10.217Z</time>
      </trkpt>
      <trkpt lat="51.67007" lon="6.60925">
        <ele>69.280207</ele>
        <time>2023-06-26T07:54:12.204Z</time>
      </trkpt>
      <trkpt lat="51.66997" lon="6.60925">
        <ele>69.179057</ele>
        <time>2023-06-26T07:54:14.239Z</time>
      </trkpt>
      <trkpt lat="51.66988" lon="6.60925">
        <ele>69.080939</ele>
        <time>2023-06-26T07:54:16.245Z</time>
      </trkpt>
      <trkpt lat="51.66978" lon="6.60925">
        <ele>68.98081</ele>
        <time>2023-06-26T07:54:18.226Z</time>
      </trkpt>
      <trkpt lat="51.66968" lon="6.60925">
        <ele>68.879563</ele>
        <time>2023-06-26T07:54:20.220Z</time>
      </trkpt>
      <trkpt lat="51.66958" lon="6.60925">
        <ele>68.776352</ele>
        <time>2023-06-26T07:54:22.220Z</time>
      </trkpt>
      <trkpt lat="51.66948" lon="6.60925">
        <ele>68.678258</ele>
        <time>2023-06-26T07:54:24.226Z</time>
      </trkpt>
      <trkpt lat="51.66939" lon="6.60922">
        <ele>68.584229</ele>
        <time>2023-06-26T07:54:26.227Z</time>
      </trkpt>
      <trkpt lat="51.66931" lon="6.60916">
        <ele>68.491358</ele>
        <time>2023-06-26T07:54:28.230Z</time>
      </trkpt>
      <trkpt lat="51.66919" lon="6.60916">
        <ele>68.364663</ele>
        <time>2023-06-26T07:54:31.222Z</time>
      </trkpt>
      <trkpt lat="51.66907" lon="6.6092">
        <ele>68.244188</ele>
        <time>2023-06-26T07:54:34.225Z</time>
      </trkpt>
      <trkpt lat="51.66897" lon="6.60925">
        <ele>68.133722</ele>
        <time>2023-06-26T07:54:37.206Z</time>
      </trkpt>
      <trkpt lat="51.66887" lon="6.60927">
        <ele>68.037211</ele>
        <time>2023-06-26T07:54:40.213Z</time>
      </trkpt>
      <trkpt lat="51.66876" lon="6.60928">
        <ele>67.918609</ele>
        <time>2023-06-26T07:54:44.221Z</time>
      </trkpt>
      <trkpt lat="51.66866" lon="6.60927">
        <ele>67.817409</ele>
        <time>2023-06-26T07:54:48.239Z</time>
      </trkpt>
      <trkpt lat="51.66855" lon="6.60927">
        <ele>67.708078</ele>
        <time>2023-06-26T07:54:53.222Z</time>
      </trkpt>
      <trkpt lat="51.66845" lon="6.60928">
        <ele>67.678598</ele>
        <time>2023-06-26T07:54:58.242Z</time>
      </trkpt>
      <trkpt lat="51.66835" lon="6.60928">
        <ele>67.741137</ele>
        <time>2023-06-26T07:55:02.227Z</time>
      </trkpt>
      <trkpt lat="51.66825" lon="6.60929">
        <ele>67.806371</ele>
        <time>2023-06-26T07:55:06.220Z</time>
      </trkpt>
      <trkpt lat="51.66815" lon="6.60928">
        <ele>67.874857</ele>
        <time>2023-06-26T07:55:11.234Z</time>
      </trkpt>
      <trkpt lat="51.66805" lon="6.6093">
        <ele>67.937069</ele>
        <time>2023-06-26T07:55:16.241Z</time>
      </trkpt>
      <trkpt lat="51.66796" lon="6.60929">
        <ele>68.000376</ele>
        <time>2023-06-26T07:55:21.220Z</time>
      </trkpt>
      <trkpt lat="51.66787" lon="6.60929">
        <ele>68.059714</ele>
        <time>2023-06-26T07:55:26.215Z</time>
      </trkpt>
      <trkpt lat="51.66775" lon="6.60929">
        <ele>68.134634</ele>
        <time>2023-06-26T07:55:30.212Z</time>
      </trkpt>
      <trkpt lat="51.66765" lon="6.60929">
        <ele>68.202402</ele>
        <time>2023-06-26T07:55:33.244Z</time>
      </trkpt>
      <trkpt lat="51.66754" lon="6.6093">
        <ele>68.272755</ele>
        <time>2023-06-26T07:55:36.221Z</time>
      </trkpt>
      <trkpt lat="51.66742" lon="6.6093">
        <ele>68.351567</ele>
        <time>2023-06-26T07:55:39.224Z</time>
      </trkpt>
      <trkpt lat="51.6673" lon="6.60929">
        <ele>68.428461</ele>
        <time>2023-06-26T07:55:42.219Z</time>
      </trkpt>
      <trkpt lat="51.66717" lon="6.60929">
        <ele>68.511188</ele>
        <time>2023-06-26T07:55:45.223Z</time>
      </trkpt>
      <trkpt lat="51.66704" lon="6.60929">
        <ele>68.595218</ele>
        <time>2023-06-26T07:55:48.225Z</time>
      </trkpt>
      <trkpt lat="51.66691" lon="6.6093">
        <ele>68.683259</ele>
        <time>2023-06-26T07:55:51.211Z</time>
      </trkpt>
      <trkpt lat="51.66681" lon="6.6093">
        <ele>68.748391</ele>
        <time>2023-06-26T07:55:53.224Z</time>
      </trkpt>
      <trkpt lat="51.66671" lon="6.6093">
        <ele>68.812222</ele>
        <time>2023-06-26T07:55:55.233Z</time>
      </trkpt>
      <trkpt lat="51.66661" lon="6.60931">
        <ele>68.83286</ele>
        <time>2023-06-26T07:55:57.224Z</time>
      </trkpt>
      <trkpt lat="51.66652" lon="6.60932">
        <ele>68.845717</ele>
        <time>2023-06-26T07:55:59.226Z</time>
      </trkpt>
      <trkpt lat="51.66642" lon="6.60933">
        <ele>68.85911</ele>
        <time>2023-06-26T07:56:01.235Z</time>
      </trkpt>
      <trkpt lat="51.66633" lon="6.60933">
        <ele>68.871662</ele>
        <time>2023-06-26T07:56:03.219Z</time>
      </trkpt>
      <trkpt lat="51.66624" lon="6.60932">
        <ele>68.884938</ele>
        <time>2023-06-26T07:56:05.233Z</time>
      </trkpt>
      <trkpt lat="51.6661" lon="6.60933">
        <ele>68.903725</ele>
        <time>2023-06-26T07:56:08.222Z</time>
      </trkpt>
      <trkpt lat="51.66597" lon="6.60933">
        <ele>68.922212</ele>
        <time>2023-06-26T07:56:11.225Z</time>
      </trkpt>
      <trkpt lat="51.66587" lon="6.60933">
        <ele>68.935737</ele>
        <time>2023-06-26T07:56:13.221Z</time>
      </trkpt>
      <trkpt lat="51.66574" lon="6.6093">
        <ele>68.953903</ele>
        <time>2023-06-26T07:56:16.220Z</time>
      </trkpt>
      <trkpt lat="51.66561" lon="6.60926">
        <ele>68.97192</ele>
        <time>2023-06-26T07:56:19.227Z</time>
      </trkpt>
      <trkpt lat="51.66549" lon="6.60926">
        <ele>68.988336</ele>
        <time>2023-06-26T07:56:22.215Z</time>
      </trkpt>
      <trkpt lat="51.6654" lon="6.60928">
        <ele>69.001278</ele>
        <time>2023-06-26T07:56:25.207Z</time>
      </trkpt>
      <trkpt lat="51.6653" lon="6.60929">
        <ele>69.014966</ele>
        <time>2023-06-26T07:56:28.220Z</time>
      </trkpt>
      <trkpt lat="51.66517" lon="6.6093">
        <ele>69.032765</ele>
        <time>2023-06-26T07:56:31.228Z</time>
      </trkpt>
      <trkpt lat="51.66504" lon="6.60932">
        <ele>69.050933</ele>
        <time>2023-06-26T07:56:34.218Z</time>
      </trkpt>
      <trkpt lat="51.66491" lon="6.60933">
        <ele>69.068602</ele>
        <time>2023-06-26T07:56:37.211Z</time>
      </trkpt>
      <trkpt lat="51.66478" lon="6.60933">
        <ele>69.16405</ele>
        <time>2023-06-26T07:56:40.230Z</time>
      </trkpt>
      <trkpt lat="51.66465" lon="6.60935">
        <ele>69.266533</ele>
        <time>2023-06-26T07:56:43.220Z</time>
      </trkpt>
      <trkpt lat="51.66452" lon="6.60938">
        <ele>69.370015</ele>
        <time>2023-06-26T07:56:46.242Z</time>
      </trkpt>
      <trkpt lat="51.6644" lon="6.60942">
        <ele>69.471963</ele>
        <time>2023-06-26T07:56:49.225Z</time>
      </trkpt>
      <trkpt lat="51.66431" lon="6.60946">
        <ele>69.544023</ele>
        <time>2023-06-26T07:56:51.222Z</time>
      </trkpt>
      <trkpt lat="51.66418" lon="6.6095">
        <ele>69.647401</ele>
        <time>2023-06-26T07:56:54.222Z</time>
      </trkpt>
      <trkpt lat="51.66405" lon="6.60956">
        <ele>69.750377</ele>
        <time>2023-06-26T07:56:57.224Z</time>
      </trkpt>
      <trkpt lat="51.66393" lon="6.6096">
        <ele>69.849264</ele>
        <time>2023-06-26T07:57:00.229Z</time>
      </trkpt>
      <trkpt lat="51.66383" lon="6.60964">
        <ele>69.925013</ele>
        <time>2023-06-26T07:57:02.219Z</time>
      </trkpt>
      <trkpt lat="51.66374" lon="6.60967">
        <ele>70.004082</ele>
        <time>2023-06-26T07:57:04.218Z</time>
      </trkpt>
      <trkpt lat="51.66364" lon="6.60971">
        <ele>70.08431</ele>
        <time>2023-06-26T07:57:06.223Z</time>
      </trkpt>
      <trkpt lat="51.66353" lon="6.60974">
        <ele>70.164829</ele>
        <time>2023-06-26T07:57:08.212Z</time>
      </trkpt>
      <trkpt lat="51.6634" lon="6.60977">
        <ele>70.272658</ele>
        <time>2023-06-26T07:57:11.237Z</time>
      </trkpt>
      <trkpt lat="51.6633" lon="6.6098">
        <ele>70.350005</ele>
        <time>2023-06-26T07:57:13.205Z</time>
      </trkpt>
      <trkpt lat="51.66321" lon="6.60981">
        <ele>70.424843</ele>
        <time>2023-06-26T07:57:15.213Z</time>
      </trkpt>
      <trkpt lat="51.6631" lon="6.60984">
        <ele>70.488537</ele>
        <time>2023-06-26T07:57:17.227Z</time>
      </trkpt>
      <trkpt lat="51.66301" lon="6.60984">
        <ele>70.514085</ele>
        <time>2023-06-26T07:57:19.202Z</time>
      </trkpt>
      <trkpt lat="51.66291" lon="6.60984">
        <ele>70.540142</ele>
        <time>2023-06-26T07:57:21.224Z</time>
      </trkpt>
      <trkpt lat="51.66281" lon="6.60983">
        <ele>70.56595</ele>
        <time>2023-06-26T07:57:23.216Z</time>
      </trkpt>
      <trkpt lat="51.66271" lon="6.60983">
        <ele>70.590966</ele>
        <time>2023-06-26T07:57:25.214Z</time>
      </trkpt>
      <trkpt lat="51.66261" lon="6.6098">
        <ele>70.616887</ele>
        <time>2023-06-26T07:57:27.221Z</time>
      </trkpt>
      <trkpt lat="51.66251" lon="6.60975">
        <ele>70.644015</ele>
        <time>2023-06-26T07:57:29.231Z</time>
      </trkpt>
      <trkpt lat="51.66242" lon="6.6097">
        <ele>70.670689</ele>
        <time>2023-06-26T07:57:31.232Z</time>
      </trkpt>
      <trkpt lat="51.66233" lon="6.60965">
        <ele>70.694833</ele>
        <time>2023-06-26T07:57:33.226Z</time>
      </trkpt>
      <trkpt lat="51.66224" lon="6.60959">
        <ele>70.720803</ele>
        <time>2023-06-26T07:57:35.226Z</time>
      </trkpt>
      <trkpt lat="51.66215" lon="6.60952">
        <ele>70.746432</ele>
        <time>2023-06-26T07:57:37.215Z</time>
      </trkpt>
      <trkpt lat="51.66205" lon="6.60946">
        <ele>70.77252</ele>
        <time>2023-06-26T07:57:39.218Z</time>
      </trkpt>
      <trkpt lat="51.66197" lon="6.60941">
        <ele>70.796198</ele>
        <time>2023-06-26T07:57:41.222Z</time>
      </trkpt>
      <trkpt lat="51.66188" lon="6.60935">
        <ele>70.82042</ele>
        <time>2023-06-26T07:57:43.218Z</time>
      </trkpt>
      <trkpt lat="51.6618" lon="6.60928">
        <ele>70.845439</ele>
        <time>2023-06-26T07:57:45.221Z</time>
      </trkpt>
      <trkpt lat="51.66171" lon="6.60921">
        <ele>70.871159</ele>
        <time>2023-06-26T07:57:47.236Z</time>
      </trkpt>
      <trkpt lat="51.66162" lon="6.60916">
        <ele>70.896714</ele>
        <time>2023-06-26T07:57:49.225Z</time>
      </trkpt>
      <trkpt lat="51.66153" lon="6.60911">
        <ele>70.921007</ele>
        <time>2023-06-26T07:57:51.221Z</time>
      </trkpt>
      <trkpt lat="51.66143" lon="6.6091">
        <ele>70.946645</ele>
        <time>2023-06-26T07:57:53.218Z</time>
      </trkpt>
      <trkpt lat="51.66133" lon="6.60908">
        <ele>70.912666</ele>
        <time>2023-06-26T07:57:55.210Z</time>
      </trkpt>
      <trkpt lat="51.66123" lon="6.60905">
        <ele>70.874534</ele>
        <time>2023-06-26T07:57:57.240Z</time>
      </trkpt>
      <trkpt lat="51.66114" lon="6.609">
        <ele>70.836511</ele>
        <time>2023-06-26T07:57:59.216Z</time>
      </trkpt>
      <trkpt lat="51.66105" lon="6.60895">
        <ele>70.800525</ele>
        <time>2023-06-26T07:58:01.222Z</time>
      </trkpt>
      <trkpt lat="51.66096" lon="6.6089">
        <ele>70.76404</ele>
        <time>2023-06-26T07:58:03.224Z</time>
      </trkpt>
      <trkpt lat="51.66087" lon="6.60886">
        <ele>70.728632</ele>
        <time>2023-06-26T07:58:05.237Z</time>
      </trkpt>
      <trkpt lat="51.66078" lon="6.60881">
        <ele>70.694084</ele>
        <time>2023-06-26T07:58:07.232Z</time>
      </trkpt>
      <trkpt lat="51.6607" lon="6.60877">
        <ele>70.65847</ele>
        <time>2023-06-26T07:58:09.221Z</time>
      </trkpt>
      <trkpt lat="51.6606" lon="6.60873">
        <ele>70.620241</ele>
        <time>2023-06-26T07:58:11.225Z</time>
      </trkpt>
      <trkpt lat="51.6605" lon="6.60868">
        <ele>70.581766</ele>
        <time>2023-06-26T07:58:13.210Z</time>
      </trkpt>
      <trkpt lat="51.66041" lon="6.60864">
        <ele>70.545752</ele>
        <time>2023-06-26T07:58:15.222Z</time>
      </trkpt>
      <trkpt lat="51.66032" lon="6.6086">
        <ele>70.50814</ele>
        <time>2023-06-26T07:58:17.223Z</time>
      </trkpt>
      <trkpt lat="51.66022" lon="6.60858">
        <ele>70.471937</ele>
        <time>2023-06-26T07:58:19.226Z</time>
      </trkpt>
      <trkpt lat="51.66012" lon="6.60855">
        <ele>70.431555</ele>
        <time>2023-06-26T07:58:21.219Z</time>
      </trkpt>
      <trkpt lat="51.66001" lon="6.60851">
        <ele>70.390194</ele>
        <time>2023-06-26T07:58:23.219Z</time>
      </trkpt>
      <trkpt lat="51.65991" lon="6.60847">
        <ele>70.351166</ele>
        <time>2023-06-26T07:58:25.211Z</time>
      </trkpt>
      <trkpt lat="51.65981" lon="6.60842">
        <ele>70.309591</ele>
        <time>2023-06-26T07:58:27.230Z</time>
      </trkpt>
      <trkpt lat="51.65971" lon="6.60837">
        <ele>70.27069</ele>
        <time>2023-06-26T07:58:29.229Z</time>
      </trkpt>
      <trkpt lat="51.65961" lon="6.60833">
        <ele>70.10081</ele>
        <time>2023-06-26T07:58:31.236Z</time>
      </trkpt>
      <trkpt lat="51.6595" lon="6.6083">
        <ele>69.890933</ele>
        <time>2023-06-26T07:58:33.215Z</time>
      </trkpt>
      <trkpt lat="51.65939" lon="6.60826">
        <ele>69.669812</ele>
        <time>2023-06-26T07:58:35.207Z</time>
      </trkpt>
      <trkpt lat="51.65928" lon="6.60823">
        <ele>69.474136</ele>
        <time>2023-06-26T07:58:37.230Z</time>
      </trkpt>
      <trkpt lat="51.65918" lon="6.60821">
        <ele>69.267972</ele>
        <time>2023-06-26T07:58:39.222Z</time>
      </trkpt>
      <trkpt lat="51.65907" lon="6.60819">
        <ele>69.060978</ele>
        <time>2023-06-26T07:58:41.224Z</time>
      </trkpt>
      <trkpt lat="51.65896" lon="6.60818">
        <ele>68.859608</ele>
        <time>2023-06-26T07:58:43.222Z</time>
      </trkpt>
      <trkpt lat="51.65886" lon="6.60817">
        <ele>68.667654</ele>
        <time>2023-06-26T07:58:45.225Z</time>
      </trkpt>
      <trkpt lat="51.65876" lon="6.60815">
        <ele>68.467471</ele>
        <time>2023-06-26T07:58:47.224Z</time>
      </trkpt>
      <trkpt lat="51.65866" lon="6.60812">
        <ele>68.268729</ele>
        <time>2023-06-26T07:58:49.237Z</time>
      </trkpt>
      <trkpt lat="51.65855" lon="6.60811">
        <ele>68.068936</ele>
        <time>2023-06-26T07:58:51.219Z</time>
      </trkpt>
      <trkpt lat="51.65845" lon="6.60809">
        <ele>67.863058</ele>
        <time>2023-06-26T07:58:53.213Z</time>
      </trkpt>
      <trkpt lat="51.65834" lon="6.60807">
        <ele>67.655657</ele>
        <time>2023-06-26T07:58:55.239Z</time>
      </trkpt>
      <trkpt lat="51.65823" lon="6.60805">
        <ele>67.446113</ele>
        <time>2023-06-26T07:58:57.223Z</time>
      </trkpt>
      <trkpt lat="51.65812" lon="6.60803">
        <ele>67.233005</ele>
        <time>2023-06-26T07:58:59.222Z</time>
      </trkpt>
      <trkpt lat="51.65801" lon="6.60803">
        <ele>67.02069</ele>
        <time>2023-06-26T07:59:01.223Z</time>
      </trkpt>
      <trkpt lat="51.6579" lon="6.60801">
        <ele>66.826652</ele>
        <time>2023-06-26T07:59:03.218Z</time>
      </trkpt>
      <trkpt lat="51.65779" lon="6.60799">
        <ele>66.870699</ele>
        <time>2023-06-26T07:59:05.241Z</time>
      </trkpt>
      <trkpt lat="51.65769" lon="6.60798">
        <ele>66.913916</ele>
        <time>2023-06-26T07:59:07.232Z</time>
      </trkpt>
      <trkpt lat="51.65759" lon="6.60797">
        <ele>66.955736</ele>
        <time>2023-06-26T07:59:09.226Z</time>
      </trkpt>
      <trkpt lat="51.65749" lon="6.60796">
        <ele>66.997514</ele>
        <time>2023-06-26T07:59:11.214Z</time>
      </trkpt>
      <trkpt lat="51.65738" lon="6.60795">
        <ele>67.043058</ele>
        <time>2023-06-26T07:59:13.235Z</time>
      </trkpt>
      <trkpt lat="51.65727" lon="6.60795">
        <ele>67.089832</ele>
        <time>2023-06-26T07:59:15.232Z</time>
      </trkpt>
      <trkpt lat="51.65716" lon="6.60794">
        <ele>67.136221</ele>
        <time>2023-06-26T07:59:17.221Z</time>
      </trkpt>
      <trkpt lat="51.65705" lon="6.60793">
        <ele>67.182995</ele>
        <time>2023-06-26T07:59:19.221Z</time>
      </trkpt>
      <trkpt lat="51.65694" lon="6.60794">
        <ele>67.228086</ele>
        <time>2023-06-26T07:59:21.224Z</time>
      </trkpt>
      <trkpt lat="51.65684" lon="6.60795">
        <ele>67.269489</ele>
        <time>2023-06-26T07:59:23.212Z</time>
      </trkpt>
      <trkpt lat="51.65674" lon="6.60794">
        <ele>67.310892</ele>
        <time>2023-06-26T07:59:25.236Z</time>
      </trkpt>
      <trkpt lat="51.65664" lon="6.60793">
        <ele>67.351409</ele>
        <time>2023-06-26T07:59:27.219Z</time>
      </trkpt>
      <trkpt lat="51.6565" lon="6.60791">
        <ele>67.410426</ele>
        <time>2023-06-26T07:59:30.229Z</time>
      </trkpt>
      <trkpt lat="51.65638" lon="6.6079">
        <ele>67.463095</ele>
        <time>2023-06-26T07:59:33.226Z</time>
      </trkpt>
      <trkpt lat="51.65625" lon="6.60789">
        <ele>67.514083</ele>
        <time>2023-06-26T07:59:36.225Z</time>
      </trkpt>
      <trkpt lat="51.65613" lon="6.60789">
        <ele>67.566263</ele>
        <time>2023-06-26T07:59:39.223Z</time>
      </trkpt>
      <trkpt lat="51.65601" lon="6.60789">
        <ele>67.678363</ele>
        <time>2023-06-26T07:59:42.222Z</time>
      </trkpt>
      <trkpt lat="51.65591" lon="6.6079">
        <ele>67.792635</ele>
        <time>2023-06-26T07:59:45.197Z</time>
      </trkpt>
      <trkpt lat="51.6558" lon="6.60788">
        <ele>67.902993</ele>
        <time>2023-06-26T07:59:48.209Z</time>
      </trkpt>
      <trkpt lat="51.65571" lon="6.60788">
        <ele>68.002064</ele>
        <time>2023-06-26T07:59:51.231Z</time>
      </trkpt>
      <trkpt lat="51.65561" lon="6.60789">
        <ele>68.1079</ele>
        <time>2023-06-26T07:59:55.219Z</time>
      </trkpt>
      <trkpt lat="51.65552" lon="6.60789">
        <ele>68.212431</ele>
        <time>2023-06-26T07:59:59.232Z</time>
      </trkpt>
      <trkpt lat="51.65543" lon="6.60788">
        <ele>68.310482</ele>
        <time>2023-06-26T08:00:03.219Z</time>
      </trkpt>
      <trkpt lat="51.65531" lon="6.60789">
        <ele>68.436538</ele>
        <time>2023-06-26T08:00:08.217Z</time>
      </trkpt>
      <trkpt lat="51.65521" lon="6.6079">
        <ele>68.547968</ele>
        <time>2023-06-26T08:00:11.234Z</time>
      </trkpt>
      <trkpt lat="51.65509" lon="6.60792">
        <ele>68.668938</ele>
        <time>2023-06-26T08:00:14.219Z</time>
      </trkpt>
      <trkpt lat="51.65498" lon="6.60793">
        <ele>68.790981</ele>
        <time>2023-06-26T08:00:17.222Z</time>
      </trkpt>
      <trkpt lat="51.65485" lon="6.60795">
        <ele>68.931813</ele>
        <time>2023-06-26T08:00:20.241Z</time>
      </trkpt>
      <trkpt lat="51.65473" lon="6.60796">
        <ele>69.066501</ele>
        <time>2023-06-26T08:00:23.214Z</time>
      </trkpt>
      <trkpt lat="51.6546" lon="6.60798">
        <ele>69.200572</ele>
        <time>2023-06-26T08:00:26.232Z</time>
      </trkpt>
      <trkpt lat="51.65447" lon="6.60799">
        <ele>69.341831</ele>
        <time>2023-06-26T08:00:29.222Z</time>
      </trkpt>
      <trkpt lat="51.65434" lon="6.60802">
        <ele>69.481638</ele>
        <time>2023-06-26T08:00:32.219Z</time>
      </trkpt>
      <trkpt lat="51.65425" lon="6.60806">
        <ele>69.542823</ele>
        <time>2023-06-26T08:00:34.220Z</time>
      </trkpt>
      <trkpt lat="51.65414" lon="6.60809">
        <ele>69.600713</ele>
        <time>2023-06-26T08:00:37.227Z</time>
      </trkpt>
      <trkpt lat="51.65403" lon="6.60812">
        <ele>69.653028</ele>
        <time>2023-06-26T08:00:40.240Z</time>
      </trkpt>
      <trkpt lat="51.65392" lon="6.60815">
        <ele>69.712339</ele>
        <time>2023-06-26T08:00:43.212Z</time>
      </trkpt>
      <trkpt lat="51.65379" lon="6.60818">
        <ele>69.777113</ele>
        <time>2023-06-26T08:00:46.241Z</time>
      </trkpt>
      <trkpt lat="51.65366" lon="6.60821">
        <ele>69.838999</ele>
        <time>2023-06-26T08:00:49.222Z</time>
      </trkpt>
      <trkpt lat="51.65354" lon="6.60823">
        <ele>69.899736</ele>
        <time>2023-06-26T08:00:52.220Z</time>
      </trkpt>
      <trkpt lat="51.65341" lon="6.60827">
        <ele>69.962947</ele>
        <time>2023-06-26T08:00:55.228Z</time>
      </trkpt>
      <trkpt lat="51.65328" lon="6.60831">
        <ele>70.029074</ele>
        <time>2023-06-26T08:00:58.244Z</time>
      </trkpt>
      <trkpt lat="51.65319" lon="6.60832">
        <ele>70.074712</ele>
        <time>2023-06-26T08:01:00.224Z</time>
      </trkpt>
      <trkpt lat="51.6531" lon="6.60833">
        <ele>70.120202</ele>
        <time>2023-06-26T08:01:02.220Z</time>
      </trkpt>
      <trkpt lat="51.65301" lon="6.60833">
        <ele>70.165116</ele>
        <time>2023-06-26T08:01:04.220Z</time>
      </trkpt>
      <trkpt lat="51.65291" lon="6.60834">
        <ele>70.213155</ele>
        <time>2023-06-26T08:01:06.219Z</time>
      </trkpt>
      <trkpt lat="51.65282" lon="6.60839">
        <ele>70.260907</ele>
        <time>2023-06-26T08:01:08.235Z</time>
      </trkpt>
      <trkpt lat="51.65273" lon="6.60846">
        <ele>70.308879</ele>
        <time>2023-06-26T08:01:10.211Z</time>
      </trkpt>
      <trkpt lat="51.65263" lon="6.60859">
        <ele>70.373058</ele>
        <time>2023-06-26T08:01:13.222Z</time>
      </trkpt>
      <trkpt lat="51.65257" lon="6.60872">
        <ele>70.488749</ele>
        <time>2023-06-26T08:01:15.221Z</time>
      </trkpt>
      <trkpt lat="51.65252" lon="6.60886">
        <ele>70.695927</ele>
        <time>2023-06-26T08:01:17.222Z</time>
      </trkpt>
      <trkpt lat="51.65247" lon="6.60901">
        <ele>70.912515</ele>
        <time>2023-06-26T08:01:19.227Z</time>
      </trkpt>
      <trkpt lat="51.65242" lon="6.60914">
        <ele>71.115111</ele>
        <time>2023-06-26T08:01:21.227Z</time>
      </trkpt>
      <trkpt lat="51.65237" lon="6.60928">
        <ele>71.313839</ele>
        <time>2023-06-26T08:01:23.217Z</time>
      </trkpt>
      <trkpt lat="51.65231" lon="6.6094">
        <ele>71.505729</ele>
        <time>2023-06-26T08:01:25.243Z</time>
      </trkpt>
      <trkpt lat="51.65225" lon="6.60953">
        <ele>71.703644</ele>
        <time>2023-06-26T08:01:27.226Z</time>
      </trkpt>
      <trkpt lat="51.65218" lon="6.60971">
        <ele>71.986951</ele>
        <time>2023-06-26T08:01:30.221Z</time>
      </trkpt>
      <trkpt lat="51.65212" lon="6.60983">
        <ele>72.176598</ele>
        <time>2023-06-26T08:01:32.235Z</time>
      </trkpt>
      <trkpt lat="51.65206" lon="6.60995">
        <ele>72.363788</ele>
        <time>2023-06-26T08:01:34.238Z</time>
      </trkpt>
      <trkpt lat="51.65199" lon="6.61012">
        <ele>72.623231</ele>
        <time>2023-06-26T08:01:37.237Z</time>
      </trkpt>
      <trkpt lat="51.65192" lon="6.61029">
        <ele>72.887998</ele>
        <time>2023-06-26T08:01:40.224Z</time>
      </trkpt>
      <trkpt lat="51.65184" lon="6.61045">
        <ele>73.145948</ele>
        <time>2023-06-26T08:01:43.208Z</time>
      </trkpt>
      <trkpt lat="51.65176" lon="6.61063">
        <ele>73.412063</ele>
        <time>2023-06-26T08:01:46.230Z</time>
      </trkpt>
      <trkpt lat="51.6517" lon="6.6108">
        <ele>73.669408</ele>
        <time>2023-06-26T08:01:49.229Z</time>
      </trkpt>
      <trkpt lat="51.65165" lon="6.61093">
        <ele>73.858212</ele>
        <time>2023-06-26T08:01:51.227Z</time>
      </trkpt>
      <trkpt lat="51.65158" lon="6.61109">
        <ele>74.074406</ele>
        <time>2023-06-26T08:01:54.244Z</time>
      </trkpt>
      <trkpt lat="51.6515" lon="6.61125">
        <ele>74.167697</ele>
        <time>2023-06-26T08:01:57.230Z</time>
      </trkpt>
      <trkpt lat="51.65142" lon="6.61141">
        <ele>74.266345</ele>
        <time>2023-06-26T08:02:00.222Z</time>
      </trkpt>
      <trkpt lat="51.65134" lon="6.61157">
        <ele>74.358638</ele>
        <time>2023-06-26T08:02:03.210Z</time>
      </trkpt>
      <trkpt lat="51.65129" lon="6.61168">
        <ele>74.426261</ele>
        <time>2023-06-26T08:02:05.226Z</time>
      </trkpt>
      <trkpt lat="51.65122" lon="6.61184">
        <ele>74.515723</ele>
        <time>2023-06-26T08:02:08.216Z</time>
      </trkpt>
      <trkpt lat="51.65114" lon="6.612">
        <ele>74.608761</ele>
        <time>2023-06-26T08:02:11.220Z</time>
      </trkpt>
      <trkpt lat="51.65107" lon="6.61217">
        <ele>74.702292</ele>
        <time>2023-06-26T08:02:14.226Z</time>
      </trkpt>
      <trkpt lat="51.65101" lon="6.61234">
        <ele>74.797777</ele>
        <time>2023-06-26T08:02:17.226Z</time>
      </trkpt>
      <trkpt lat="51.65094" lon="6.61249">
        <ele>74.884734</ele>
        <time>2023-06-26T08:02:20.224Z</time>
      </trkpt>
      <trkpt lat="51.65087" lon="6.61266">
        <ele>74.9771</ele>
        <time>2023-06-26T08:02:23.215Z</time>
      </trkpt>
      <trkpt lat="51.65079" lon="6.61282">
        <ele>75.074298</ele>
        <time>2023-06-26T08:02:26.203Z</time>
      </trkpt>
      <trkpt lat="51.65073" lon="6.61294">
        <ele>75.146124</ele>
        <time>2023-06-26T08:02:28.221Z</time>
      </trkpt>
      <trkpt lat="51.65067" lon="6.61306">
        <ele>75.217584</ele>
        <time>2023-06-26T08:02:30.235Z</time>
      </trkpt>
      <trkpt lat="51.65061" lon="6.61319">
        <ele>75.288052</ele>
        <time>2023-06-26T08:02:32.235Z</time>
      </trkpt>
      <trkpt lat="51.65054" lon="6.61337">
        <ele>75.390668</ele>
        <time>2023-06-26T08:02:35.224Z</time>
      </trkpt>
      <trkpt lat="51.65048" lon="6.61349">
        <ele>75.319534</ele>
        <time>2023-06-26T08:02:37.240Z</time>
      </trkpt>
      <trkpt lat="51.65044" lon="6.61363">
        <ele>75.215365</ele>
        <time>2023-06-26T08:02:39.223Z</time>
      </trkpt>
      <trkpt lat="51.65039" lon="6.61377">
        <ele>75.115202</ele>
        <time>2023-06-26T08:02:41.225Z</time>
      </trkpt>
      <trkpt lat="51.65033" lon="6.61389">
        <ele>75.011899</ele>
        <time>2023-06-26T08:02:43.230Z</time>
      </trkpt>
      <trkpt lat="51.65027" lon="6.61402">
        <ele>74.908476</ele>
        <time>2023-06-26T08:02:45.220Z</time>
      </trkpt>
      <trkpt lat="51.65022" lon="6.61415">
        <ele>74.803334</ele>
        <time>2023-06-26T08:02:47.227Z</time>
      </trkpt>
      <trkpt lat="51.65016" lon="6.61427">
        <ele>74.704022</ele>
        <time>2023-06-26T08:02:49.222Z</time>
      </trkpt>
      <trkpt lat="51.6501" lon="6.61439">
        <ele>74.603675</ele>
        <time>2023-06-26T08:02:51.229Z</time>
      </trkpt>
      <trkpt lat="51.65004" lon="6.61451">
        <ele>74.502984</ele>
        <time>2023-06-26T08:02:53.220Z</time>
      </trkpt>
      <trkpt lat="51.64996" lon="6.61461">
        <ele>74.397023</ele>
        <time>2023-06-26T08:02:55.220Z</time>
      </trkpt>
      <trkpt lat="51.64988" lon="6.61472">
        <ele>74.286538</ele>
        <time>2023-06-26T08:02:57.223Z</time>
      </trkpt>
      <trkpt lat="51.64979" lon="6.61479">
        <ele>74.183086</ele>
        <time>2023-06-26T08:02:59.218Z</time>
      </trkpt>
      <trkpt lat="51.64967" lon="6.61487">
        <ele>74.047092</ele>
        <time>2023-06-26T08:03:02.220Z</time>
      </trkpt>
      <trkpt lat="51.64956" lon="6.61491">
        <ele>73.9233</ele>
        <time>2023-06-26T08:03:05.207Z</time>
      </trkpt>
      <trkpt lat="51.64946" lon="6.61489">
        <ele>73.818437</ele>
        <time>2023-06-26T08:03:17.219Z</time>
      </trkpt>
      <trkpt lat="51.64938" lon="6.61479">
        <ele>73.713721</ele>
        <time>2023-06-26T08:03:22.240Z</time>
      </trkpt>
      <trkpt lat="51.64929" lon="6.61466">
        <ele>73.585463</ele>
        <time>2023-06-26T08:03:26.220Z</time>
      </trkpt>
      <trkpt lat="51.6492" lon="6.61452">
        <ele>73.525793</ele>
        <time>2023-06-26T08:03:29.237Z</time>
      </trkpt>
      <trkpt lat="51.64912" lon="6.61436">
        <ele>73.584547</ele>
        <time>2023-06-26T08:03:32.223Z</time>
      </trkpt>
      <trkpt lat="51.64904" lon="6.61426">
        <ele>73.627368</ele>
        <time>2023-06-26T08:03:34.220Z</time>
      </trkpt>
      <trkpt lat="51.64896" lon="6.6141">
        <ele>73.687016</ele>
        <time>2023-06-26T08:03:37.216Z</time>
      </trkpt>
      <trkpt lat="51.64888" lon="6.61402">
        <ele>73.728704</ele>
        <time>2023-06-26T08:03:39.204Z</time>
      </trkpt>
      <trkpt lat="51.64881" lon="6.61392">
        <ele>73.770309</ele>
        <time>2023-06-26T08:03:41.229Z</time>
      </trkpt>
      <trkpt lat="51.64873" lon="6.61383">
        <ele>73.814558</ele>
        <time>2023-06-26T08:03:43.219Z</time>
      </trkpt>
      <trkpt lat="51.64866" lon="6.61374">
        <ele>73.855293</ele>
        <time>2023-06-26T08:03:45.227Z</time>
      </trkpt>
      <trkpt lat="51.64855" lon="6.6136">
        <ele>73.915246</ele>
        <time>2023-06-26T08:03:48.220Z</time>
      </trkpt>
      <trkpt lat="51.64849" lon="6.6135">
        <ele>73.95643</ele>
        <time>2023-06-26T08:03:50.236Z</time>
      </trkpt>
      <trkpt lat="51.64839" lon="6.61337">
        <ele>74.014813</ele>
        <time>2023-06-26T08:03:53.219Z</time>
      </trkpt>
      <trkpt lat="51.64829" lon="6.61323">
        <ele>74.073268</ele>
        <time>2023-06-26T08:03:56.240Z</time>
      </trkpt>
      <trkpt lat="51.64818" lon="6.6131">
        <ele>74.132563</ele>
        <time>2023-06-26T08:03:59.228Z</time>
      </trkpt>
      <trkpt lat="51.64808" lon="6.61296">
        <ele>74.192528</ele>
        <time>2023-06-26T08:04:02.209Z</time>
      </trkpt>
      <trkpt lat="51.64801" lon="6.61286">
        <ele>74.234479</ele>
        <time>2023-06-26T08:04:04.222Z</time>
      </trkpt>
      <trkpt lat="51.64794" lon="6.61278">
        <ele>74.275273</ele>
        <time>2023-06-26T08:04:06.231Z</time>
      </trkpt>
      <trkpt lat="51.64787" lon="6.61268">
        <ele>74.318102</ele>
        <time>2023-06-26T08:04:08.240Z</time>
      </trkpt>
      <trkpt lat="51.6478" lon="6.61258">
        <ele>74.383887</ele>
        <time>2023-06-26T08:04:10.244Z</time>
      </trkpt>
      <trkpt lat="51.64772" lon="6.61248">
        <ele>74.448467</ele>
        <time>2023-06-26T08:04:12.220Z</time>
      </trkpt>
      <trkpt lat="51.64765" lon="6.61239">
        <ele>74.509968</ele>
        <time>2023-06-26T08:04:14.220Z</time>
      </trkpt>
      <trkpt lat="51.64758" lon="6.61229">
        <ele>74.571629</ele>
        <time>2023-06-26T08:04:16.216Z</time>
      </trkpt>
      <trkpt lat="51.64752" lon="6.6122">
        <ele>74.633635</ele>
        <time>2023-06-26T08:04:18.220Z</time>
      </trkpt>
      <trkpt lat="51.64745" lon="6.6121">
        <ele>74.69542</ele>
        <time>2023-06-26T08:04:20.216Z</time>
      </trkpt>
      <trkpt lat="51.64738" lon="6.612">
        <ele>74.757623</ele>
        <time>2023-06-26T08:04:22.204Z</time>
      </trkpt>
      <trkpt lat="51.6473" lon="6.61191">
        <ele>74.82148</ele>
        <time>2023-06-26T08:04:24.198Z</time>
      </trkpt>
      <trkpt lat="51.64723" lon="6.6118">
        <ele>74.891479</ele>
        <time>2023-06-26T08:04:26.237Z</time>
      </trkpt>
      <trkpt lat="51.64712" lon="6.61167">
        <ele>74.981996</ele>
        <time>2023-06-26T08:04:29.239Z</time>
      </trkpt>
      <trkpt lat="51.64705" lon="6.61157">
        <ele>75.04451</ele>
        <time>2023-06-26T08:04:31.242Z</time>
      </trkpt>
      <trkpt lat="51.64698" lon="6.61148">
        <ele>75.106705</ele>
        <time>2023-06-26T08:04:33.217Z</time>
      </trkpt>
      <trkpt lat="51.64691" lon="6.61138">
        <ele>75.168279</ele>
        <time>2023-06-26T08:04:35.216Z</time>
      </trkpt>
      <trkpt lat="51.64682" lon="6.61125">
        <ele>75.255119</ele>
        <time>2023-06-26T08:04:38.222Z</time>
      </trkpt>
      <trkpt lat="51.64674" lon="6.61115">
        <ele>75.318109</ele>
        <time>2023-06-26T08:04:40.220Z</time>
      </trkpt>
      <trkpt lat="51.64664" lon="6.61102">
        <ele>75.407032</ele>
        <time>2023-06-26T08:04:43.226Z</time>
      </trkpt>
      <trkpt lat="51.64656" lon="6.6109">
        <ele>75.481817</ele>
        <time>2023-06-26T08:04:46.219Z</time>
      </trkpt>
      <trkpt lat="51.64647" lon="6.61079">
        <ele>75.542887</ele>
        <time>2023-06-26T08:04:50.220Z</time>
      </trkpt>
      <trkpt lat="51.6464" lon="6.61069">
        <ele>75.564519</ele>
        <time>2023-06-26T08:04:55.206Z</time>
      </trkpt>
      <trkpt lat="51.64635" lon="6.61056">
        <ele>75.584462</ele>
        <time>2023-06-26T08:04:58.217Z</time>
      </trkpt>
      <trkpt lat="51.6463" lon="6.61041">
        <ele>75.607021</ele>
        <time>2023-06-26T08:05:01.231Z</time>
      </trkpt>
      <trkpt lat="51.64624" lon="6.61027">
        <ele>75.63045</ele>
        <time>2023-06-26T08:05:04.216Z</time>
      </trkpt>
      <trkpt lat="51.64617" lon="6.61015">
        <ele>75.652987</ele>
        <time>2023-06-26T08:05:07.229Z</time>
      </trkpt>
      <trkpt lat="51.64612" lon="6.61">
        <ele>75.676147</ele>
        <time>2023-06-26T08:05:11.226Z</time>
      </trkpt>
      <trkpt lat="51.64608" lon="6.60986">
        <ele>75.696943</ele>
        <time>2023-06-26T08:05:15.213Z</time>
      </trkpt>
      <trkpt lat="51.64606" lon="6.60968">
        <ele>75.721417</ele>
        <time>2023-06-26T08:05:20.232Z</time>
      </trkpt>
      <trkpt lat="51.64604" lon="6.60953">
        <ele>75.742271</ele>
        <time>2023-06-26T08:05:24.221Z</time>
      </trkpt>
      <trkpt lat="51.64602" lon="6.60938">
        <ele>75.762749</ele>
        <time>2023-06-26T08:05:28.222Z</time>
      </trkpt>
      <trkpt lat="51.64602" lon="6.60921">
        <ele>75.785998</ele>
        <time>2023-06-26T08:05:32.224Z</time>
      </trkpt>
      <trkpt lat="51.646" lon="6.60903">
        <ele>75.810027</ele>
        <time>2023-06-26T08:05:36.214Z</time>
      </trkpt>
      <trkpt lat="51.646" lon="6.60884">
        <ele>75.836601</ele>
        <time>2023-06-26T08:05:40.220Z</time>
      </trkpt>
      <trkpt lat="51.64598" lon="6.60866">
        <ele>75.861873</ele>
        <time>2023-06-26T08:05:44.220Z</time>
      </trkpt>
      <trkpt lat="51.64595" lon="6.60852">
        <ele>75.881749</ele>
        <time>2023-06-26T08:05:47.244Z</time>
      </trkpt>
      <trkpt lat="51.64592" lon="6.60834">
        <ele>75.907093</ele>
        <time>2023-06-26T08:05:51.230Z</time>
      </trkpt>
      <trkpt lat="51.6459" lon="6.60815">
        <ele>76.006541</ele>
        <time>2023-06-26T08:05:55.237Z</time>
      </trkpt>
      <trkpt lat="51.64589" lon="6.608">
        <ele>76.332793</ele>
        <time>2023-06-26T08:05:58.220Z</time>
      </trkpt>
      <trkpt lat="51.64587" lon="6.60785">
        <ele>76.664515</ele>
        <time>2023-06-26T08:06:01.249Z</time>
      </trkpt>
      <trkpt lat="51.64586" lon="6.6077">
        <ele>77.005953</ele>
        <time>2023-06-26T08:06:04.218Z</time>
      </trkpt>
      <trkpt lat="51.64585" lon="6.60755">
        <ele>77.333753</ele>
        <time>2023-06-26T08:06:07.225Z</time>
      </trkpt>
      <trkpt lat="51.64583" lon="6.6074">
        <ele>77.6646</ele>
        <time>2023-06-26T08:06:10.227Z</time>
      </trkpt>
      <trkpt lat="51.64582" lon="6.60726">
        <ele>77.98552</ele>
        <time>2023-06-26T08:06:13.225Z</time>
      </trkpt>
      <trkpt lat="51.64581" lon="6.60709">
        <ele>78.347782</ele>
        <time>2023-06-26T08:06:18.223Z</time>
      </trkpt>
      <trkpt lat="51.64581" lon="6.60701">
        <ele>78.538636</ele>
        <time>2023-06-26T08:06:26.829Z</time>
      </trkpt>
      <trkpt lat="51.64578" lon="6.60685">
        <ele>78.887838</ele>
        <time>2023-06-26T08:08:54.203Z</time>
      </trkpt>
      <trkpt lat="51.64576" lon="6.6067">
        <ele>79.220409</ele>
        <time>2023-06-26T08:08:57.212Z</time>
      </trkpt>
      <trkpt lat="51.64574" lon="6.60655">
        <ele>79.562805</ele>
        <time>2023-06-26T08:09:00.244Z</time>
      </trkpt>
      <trkpt lat="51.64572" lon="6.60638">
        <ele>79.942715</ele>
        <time>2023-06-26T08:09:03.229Z</time>
      </trkpt>
      <trkpt lat="51.6457" lon="6.60622">
        <ele>80.302572</ele>
        <time>2023-06-26T08:09:06.235Z</time>
      </trkpt>
      <trkpt lat="51.64568" lon="6.60604">
        <ele>80.710136</ele>
        <time>2023-06-26T08:09:09.241Z</time>
      </trkpt>
      <trkpt lat="51.64565" lon="6.60587">
        <ele>81.093558</ele>
        <time>2023-06-26T08:09:12.225Z</time>
      </trkpt>
      <trkpt lat="51.64562" lon="6.6057">
        <ele>81.482765</ele>
        <time>2023-06-26T08:09:15.227Z</time>
      </trkpt>
      <trkpt lat="51.64561" lon="6.60552">
        <ele>81.878206</ele>
        <time>2023-06-26T08:09:18.255Z</time>
      </trkpt>
      <trkpt lat="51.6456" lon="6.60537">
        <ele>82.197551</ele>
        <time>2023-06-26T08:09:20.214Z</time>
      </trkpt>
      <trkpt lat="51.64558" lon="6.60518">
        <ele>82.327834</ele>
        <time>2023-06-26T08:09:23.220Z</time>
      </trkpt>
      <trkpt lat="51.64556" lon="6.60501">
        <ele>82.37554</ele>
        <time>2023-06-26T08:09:26.219Z</time>
      </trkpt>
      <trkpt lat="51.64553" lon="6.60483">
        <ele>82.424112</ele>
        <time>2023-06-26T08:09:29.241Z</time>
      </trkpt>
      <trkpt lat="51.64552" lon="6.60463">
        <ele>82.476242</ele>
        <time>2023-06-26T08:09:32.223Z</time>
      </trkpt>
      <trkpt lat="51.6455" lon="6.60445">
        <ele>82.524912</ele>
        <time>2023-06-26T08:09:35.241Z</time>
      </trkpt>
      <trkpt lat="51.64547" lon="6.60427">
        <ele>82.574095</ele>
        <time>2023-06-26T08:09:38.221Z</time>
      </trkpt>
      <trkpt lat="51.64545" lon="6.60407">
        <ele>82.627334</ele>
        <time>2023-06-26T08:09:41.225Z</time>
      </trkpt>
      <trkpt lat="51.64544" lon="6.60388">
        <ele>82.678826</ele>
        <time>2023-06-26T08:09:44.226Z</time>
      </trkpt>
      <trkpt lat="51.64543" lon="6.60373">
        <ele>82.717349</ele>
        <time>2023-06-26T08:09:46.220Z</time>
      </trkpt>
      <trkpt lat="51.64542" lon="6.60353">
        <ele>82.771786</ele>
        <time>2023-06-26T08:09:49.219Z</time>
      </trkpt>
      <trkpt lat="51.64539" lon="6.60332">
        <ele>82.828359</ele>
        <time>2023-06-26T08:09:52.239Z</time>
      </trkpt>
      <trkpt lat="51.64538" lon="6.60312">
        <ele>82.882062</ele>
        <time>2023-06-26T08:09:55.245Z</time>
      </trkpt>
      <trkpt lat="51.64537" lon="6.60297">
        <ele>82.92143</ele>
        <time>2023-06-26T08:09:57.239Z</time>
      </trkpt>
      <trkpt lat="51.64535" lon="6.60277">
        <ele>82.974712</ele>
        <time>2023-06-26T08:10:00.244Z</time>
      </trkpt>
      <trkpt lat="51.64534" lon="6.60262">
        <ele>83.014411</ele>
        <time>2023-06-26T08:10:02.239Z</time>
      </trkpt>
      <trkpt lat="51.64532" lon="6.60247">
        <ele>83.053874</ele>
        <time>2023-06-26T08:10:04.226Z</time>
      </trkpt>
      <trkpt lat="51.64531" lon="6.60226">
        <ele>83.038367</ele>
        <time>2023-06-26T08:10:07.249Z</time>
      </trkpt>
      <trkpt lat="51.64529" lon="6.60206">
        <ele>83.024055</ele>
        <time>2023-06-26T08:10:10.232Z</time>
      </trkpt>
      <trkpt lat="51.64528" lon="6.60185">
        <ele>83.00833</ele>
        <time>2023-06-26T08:10:13.220Z</time>
      </trkpt>
      <trkpt lat="51.64527" lon="6.6017">
        <ele>82.997595</ele>
        <time>2023-06-26T08:10:15.221Z</time>
      </trkpt>
      <trkpt lat="51.64525" lon="6.60155">
        <ele>82.986155</ele>
        <time>2023-06-26T08:10:17.241Z</time>
      </trkpt>
      <trkpt lat="51.64524" lon="6.6014">
        <ele>82.97522</ele>
        <time>2023-06-26T08:10:19.241Z</time>
      </trkpt>
      <trkpt lat="51.64523" lon="6.60125">
        <ele>82.964357</ele>
        <time>2023-06-26T08:10:21.230Z</time>
      </trkpt>
      <trkpt lat="51.64522" lon="6.6011">
        <ele>82.953726</ele>
        <time>2023-06-26T08:10:23.216Z</time>
      </trkpt>
      <trkpt lat="51.6452" lon="6.60095">
        <ele>82.942647</ele>
        <time>2023-06-26T08:10:25.243Z</time>
      </trkpt>
      <trkpt lat="51.64519" lon="6.6008">
        <ele>82.93112</ele>
        <time>2023-06-26T08:10:27.235Z</time>
      </trkpt>
      <trkpt lat="51.64518" lon="6.60064">
        <ele>82.919854</ele>
        <time>2023-06-26T08:10:29.233Z</time>
      </trkpt>
      <trkpt lat="51.64517" lon="6.60049">
        <ele>82.908848</ele>
        <time>2023-06-26T08:10:31.243Z</time>
      </trkpt>
      <trkpt lat="51.64515" lon="6.60033">
        <ele>82.897231</ele>
        <time>2023-06-26T08:10:33.226Z</time>
      </trkpt>
      <trkpt lat="51.64513" lon="6.60018">
        <ele>82.88574</ele>
        <time>2023-06-26T08:10:35.234Z</time>
      </trkpt>
      <trkpt lat="51.64512" lon="6.60002">
        <ele>82.874229</ele>
        <time>2023-06-26T08:10:37.245Z</time>
      </trkpt>
      <trkpt lat="51.6451" lon="6.59988">
        <ele>82.863483</ele>
        <time>2023-06-26T08:10:39.228Z</time>
      </trkpt>
      <trkpt lat="51.64509" lon="6.59972">
        <ele>82.852332</ele>
        <time>2023-06-26T08:10:41.219Z</time>
      </trkpt>
      <trkpt lat="51.64508" lon="6.59951">
        <ele>82.794183</ele>
        <time>2023-06-26T08:10:44.227Z</time>
      </trkpt>
      <trkpt lat="51.64506" lon="6.59929">
        <ele>82.677962</ele>
        <time>2023-06-26T08:10:47.208Z</time>
      </trkpt>
      <trkpt lat="51.64505" lon="6.59915">
        <ele>82.59999</ele>
        <time>2023-06-26T08:10:49.225Z</time>
      </trkpt>
      <trkpt lat="51.64502" lon="6.59894">
        <ele>82.487822</ele>
        <time>2023-06-26T08:10:52.230Z</time>
      </trkpt>
      <trkpt lat="51.64501" lon="6.59879">
        <ele>82.409607</ele>
        <time>2023-06-26T08:10:54.232Z</time>
      </trkpt>
      <trkpt lat="51.64499" lon="6.59858">
        <ele>82.297751</ele>
        <time>2023-06-26T08:10:57.230Z</time>
      </trkpt>
      <trkpt lat="51.64497" lon="6.59838">
        <ele>82.188136</ele>
        <time>2023-06-26T08:11:00.225Z</time>
      </trkpt>
      <trkpt lat="51.64495" lon="6.59818">
        <ele>82.084734</ele>
        <time>2023-06-26T08:11:03.218Z</time>
      </trkpt>
      <trkpt lat="51.64493" lon="6.59798">
        <ele>81.976959</ele>
        <time>2023-06-26T08:11:06.220Z</time>
      </trkpt>
      <trkpt lat="51.64491" lon="6.59778">
        <ele>81.869839</ele>
        <time>2023-06-26T08:11:09.256Z</time>
      </trkpt>
      <trkpt lat="51.6449" lon="6.59758">
        <ele>81.76045</ele>
        <time>2023-06-26T08:11:12.217Z</time>
      </trkpt>
      <trkpt lat="51.64488" lon="6.59737">
        <ele>81.649586</ele>
        <time>2023-06-26T08:11:15.220Z</time>
      </trkpt>
      <trkpt lat="51.64486" lon="6.59717">
        <ele>81.540535</ele>
        <time>2023-06-26T08:11:18.232Z</time>
      </trkpt>
      <trkpt lat="51.64484" lon="6.59696">
        <ele>81.427919</ele>
        <time>2023-06-26T08:11:21.228Z</time>
      </trkpt>
      <trkpt lat="51.64482" lon="6.59675">
        <ele>81.315271</ele>
        <time>2023-06-26T08:11:24.231Z</time>
      </trkpt>
      <trkpt lat="51.6448" lon="6.59654">
        <ele>80.9371</ele>
        <time>2023-06-26T08:11:27.219Z</time>
      </trkpt>
      <trkpt lat="51.64479" lon="6.5964">
        <ele>80.656838</ele>
        <time>2023-06-26T08:11:29.228Z</time>
      </trkpt>
      <trkpt lat="51.64477" lon="6.59625">
        <ele>80.375956</ele>
        <time>2023-06-26T08:11:31.223Z</time>
      </trkpt>
      <trkpt lat="51.64476" lon="6.59611">
        <ele>80.088148</ele>
        <time>2023-06-26T08:11:33.217Z</time>
      </trkpt>
      <trkpt lat="51.64474" lon="6.59589">
        <ele>79.675605</ele>
        <time>2023-06-26T08:11:36.210Z</time>
      </trkpt>
      <trkpt lat="51.64473" lon="6.59574">
        <ele>79.385996</ele>
        <time>2023-06-26T08:11:38.225Z</time>
      </trkpt>
      <trkpt lat="51.64471" lon="6.59559">
        <ele>79.094964</ele>
        <time>2023-06-26T08:11:40.319Z</time>
      </trkpt>
      <trkpt lat="51.64468" lon="6.59538">
        <ele>78.689851</ele>
        <time>2023-06-26T08:11:43.225Z</time>
      </trkpt>
      <trkpt lat="51.64466" lon="6.59524">
        <ele>78.412082</ele>
        <time>2023-06-26T08:11:45.236Z</time>
      </trkpt>
      <trkpt lat="51.64464" lon="6.59504">
        <ele>78.010031</ele>
        <time>2023-06-26T08:11:48.234Z</time>
      </trkpt>
      <trkpt lat="51.6446" lon="6.59486">
        <ele>77.65934</ele>
        <time>2023-06-26T08:11:51.237Z</time>
      </trkpt>
      <trkpt lat="51.6446" lon="6.59467">
        <ele>77.286454</ele>
        <time>2023-06-26T08:11:54.225Z</time>
      </trkpt>
      <trkpt lat="51.64458" lon="6.59451">
        <ele>76.981217</ele>
        <time>2023-06-26T08:11:56.241Z</time>
      </trkpt>
      <trkpt lat="51.64456" lon="6.59433">
        <ele>76.632686</ele>
        <time>2023-06-26T08:11:59.231Z</time>
      </trkpt>
      <trkpt lat="51.64464" lon="6.59446">
        <ele>76.271579</ele>
        <time>2023-06-26T08:12:07.219Z</time>
      </trkpt>
      <trkpt lat="51.64469" lon="6.59467">
        <ele>75.852802</ele>
        <time>2023-06-26T08:12:10.216Z</time>
      </trkpt>
      <trkpt lat="51.64474" lon="6.59483">
        <ele>75.612045</ele>
        <time>2023-06-26T08:12:13.225Z</time>
      </trkpt>
      <trkpt lat="51.64466" lon="6.59494">
        <ele>75.414665</ele>
        <time>2023-06-26T08:12:17.263Z</time>
      </trkpt>
      <trkpt lat="51.64454" lon="6.59499">
        <ele>75.179631</ele>
        <time>2023-06-26T08:12:20.222Z</time>
      </trkpt>
      <trkpt lat="51.64444" lon="6.59503">
        <ele>74.994118</ele>
        <time>2023-06-26T08:12:22.230Z</time>
      </trkpt>
      <trkpt lat="51.64434" lon="6.59505">
        <ele>74.80497</ele>
        <time>2023-06-26T08:12:24.237Z</time>
      </trkpt>
      <trkpt lat="51.64425" lon="6.59508">
        <ele>74.622407</ele>
        <time>2023-06-26T08:12:26.213Z</time>
      </trkpt>
      <trkpt lat="51.64416" lon="6.5951">
        <ele>74.451878</ele>
        <time>2023-06-26T08:12:28.226Z</time>
      </trkpt>
      <trkpt lat="51.64404" lon="6.59513">
        <ele>74.217919</ele>
        <time>2023-06-26T08:12:31.234Z</time>
      </trkpt>
      <trkpt lat="51.64393" lon="6.59515">
        <ele>74.008122</ele>
        <time>2023-06-26T08:12:34.241Z</time>
      </trkpt>
      <trkpt lat="51.64381" lon="6.59516">
        <ele>73.787275</ele>
        <time>2023-06-26T08:12:37.235Z</time>
      </trkpt>
      <trkpt lat="51.64368" lon="6.59512">
        <ele>73.53346</ele>
        <time>2023-06-26T08:12:40.244Z</time>
      </trkpt>
      <trkpt lat="51.64359" lon="6.59505">
        <ele>73.341298</ele>
        <time>2023-06-26T08:12:42.218Z</time>
      </trkpt>
      <trkpt lat="51.64352" lon="6.59493">
        <ele>73.145489</ele>
        <time>2023-06-26T08:12:44.212Z</time>
      </trkpt>
      <trkpt lat="51.64345" lon="6.5948">
        <ele>72.941079</ele>
        <time>2023-06-26T08:12:46.214Z</time>
      </trkpt>
      <trkpt lat="51.64337" lon="6.59468">
        <ele>72.744028</ele>
        <time>2023-06-26T08:12:48.217Z</time>
      </trkpt>
      <trkpt lat="51.6433" lon="6.59455">
        <ele>72.52973</ele>
        <time>2023-06-26T08:12:50.219Z</time>
      </trkpt>
      <trkpt lat="51.64322" lon="6.59442">
        <ele>72.345392</ele>
        <time>2023-06-26T08:12:52.221Z</time>
      </trkpt>
      <trkpt lat="51.64314" lon="6.59429">
        <ele>72.303648</ele>
        <time>2023-06-26T08:12:54.247Z</time>
      </trkpt>
      <trkpt lat="51.64306" lon="6.59416">
        <ele>72.261485</ele>
        <time>2023-06-26T08:12:56.221Z</time>
      </trkpt>
      <trkpt lat="51.64297" lon="6.59403">
        <ele>72.219719</ele>
        <time>2023-06-26T08:12:58.221Z</time>
      </trkpt>
      <trkpt lat="51.64287" lon="6.59392">
        <ele>72.175487</ele>
        <time>2023-06-26T08:13:00.207Z</time>
      </trkpt>
      <trkpt lat="51.64276" lon="6.59386">
        <ele>72.133601</ele>
        <time>2023-06-26T08:13:02.214Z</time>
      </trkpt>
      <trkpt lat="51.64265" lon="6.59389">
        <ele>72.092603</ele>
        <time>2023-06-26T08:13:04.212Z</time>
      </trkpt>
      <trkpt lat="51.64256" lon="6.594">
        <ele>72.05068</ele>
        <time>2023-06-26T08:13:06.216Z</time>
      </trkpt>
      <trkpt lat="51.6425" lon="6.59414">
        <ele>72.012612</ele>
        <time>2023-06-26T08:13:08.232Z</time>
      </trkpt>
      <trkpt lat="51.64245" lon="6.59428">
        <ele>71.974935</ele>
        <time>2023-06-26T08:13:10.226Z</time>
      </trkpt>
      <trkpt lat="51.6424" lon="6.59443">
        <ele>71.937811</ele>
        <time>2023-06-26T08:13:12.238Z</time>
      </trkpt>
      <trkpt lat="51.64235" lon="6.59456">
        <ele>71.902276</ele>
        <time>2023-06-26T08:13:14.241Z</time>
      </trkpt>
      <trkpt lat="51.64231" lon="6.5947">
        <ele>71.867531</ele>
        <time>2023-06-26T08:13:16.240Z</time>
      </trkpt>
      <trkpt lat="51.64227" lon="6.59484">
        <ele>71.833815</ele>
        <time>2023-06-26T08:13:18.220Z</time>
      </trkpt>
      <trkpt lat="51.64223" lon="6.59497">
        <ele>71.800454</ele>
        <time>2023-06-26T08:13:20.237Z</time>
      </trkpt>
      <trkpt lat="51.64217" lon="6.59516">
        <ele>71.752297</ele>
        <time>2023-06-26T08:13:23.220Z</time>
      </trkpt>
      <trkpt lat="51.64211" lon="6.59528">
        <ele>71.717629</ele>
        <time>2023-06-26T08:13:25.246Z</time>
      </trkpt>
      <trkpt lat="51.64203" lon="6.59536">
        <ele>71.655451</ele>
        <time>2023-06-26T08:13:27.234Z</time>
      </trkpt>
      <trkpt lat="51.64194" lon="6.59542">
        <ele>71.552162</ele>
        <time>2023-06-26T08:13:29.224Z</time>
      </trkpt>
      <trkpt lat="51.64185" lon="6.59543">
        <ele>71.449976</ele>
        <time>2023-06-26T08:13:31.222Z</time>
      </trkpt>
      <trkpt lat="51.64175" lon="6.59543">
        <ele>71.348318</ele>
        <time>2023-06-26T08:13:33.222Z</time>
      </trkpt>
      <trkpt lat="51.64164" lon="6.5954">
        <ele>71.227144</ele>
        <time>2023-06-26T08:13:35.227Z</time>
      </trkpt>
      <trkpt lat="51.64153" lon="6.59538">
        <ele>71.098571</ele>
        <time>2023-06-26T08:13:37.229Z</time>
      </trkpt>
      <trkpt lat="51.6414" lon="6.59535">
        <ele>70.963568</ele>
        <time>2023-06-26T08:13:39.247Z</time>
      </trkpt>
      <trkpt lat="51.64128" lon="6.59532">
        <ele>70.832764</ele>
        <time>2023-06-26T08:13:41.244Z</time>
      </trkpt>
      <trkpt lat="51.64117" lon="6.59531">
        <ele>70.70902</ele>
        <time>2023-06-26T08:13:43.221Z</time>
      </trkpt>
      <trkpt lat="51.64106" lon="6.59531">
        <ele>70.592277</ele>
        <time>2023-06-26T08:13:45.234Z</time>
      </trkpt>
      <trkpt lat="51.64094" lon="6.59531">
        <ele>70.467997</ele>
        <time>2023-06-26T08:13:47.235Z</time>
      </trkpt>
      <trkpt lat="51.64083" lon="6.5953">
        <ele>70.339188</ele>
        <time>2023-06-26T08:13:49.285Z</time>
      </trkpt>
      <trkpt lat="51.64071" lon="6.59529">
        <ele>70.213785</ele>
        <time>2023-06-26T08:13:51.222Z</time>
      </trkpt>
      <trkpt lat="51.6406" lon="6.59528">
        <ele>70.094798</ele>
        <time>2023-06-26T08:13:53.232Z</time>
      </trkpt>
      <trkpt lat="51.64051" lon="6.59529">
        <ele>69.996408</ele>
        <time>2023-06-26T08:13:55.229Z</time>
      </trkpt>
      <trkpt lat="51.6404" lon="6.59535">
        <ele>69.874157</ele>
        <time>2023-06-26T08:13:58.233Z</time>
      </trkpt>
      <trkpt lat="51.64038" lon="6.59551">
        <ele>69.768451</ele>
        <time>2023-06-26T08:14:02.225Z</time>
      </trkpt>
      <trkpt lat="51.64044" lon="6.59568">
        <ele>69.910239</ele>
        <time>2023-06-26T08:14:06.234Z</time>
      </trkpt>
      <trkpt lat="51.64053" lon="6.59578">
        <ele>70.064408</ele>
        <time>2023-06-26T08:14:09.250Z</time>
      </trkpt>
      <trkpt lat="51.6406" lon="6.59589">
        <ele>70.209304</ele>
        <time>2023-06-26T08:14:12.219Z</time>
      </trkpt>
      <trkpt lat="51.64068" lon="6.596">
        <ele>70.355862</ele>
        <time>2023-06-26T08:14:15.231Z</time>
      </trkpt>
      <trkpt lat="51.64072" lon="6.59617">
        <ele>70.512747</ele>
        <time>2023-06-26T08:14:18.234Z</time>
      </trkpt>
      <trkpt lat="51.64074" lon="6.59631">
        <ele>70.644973</ele>
        <time>2023-06-26T08:14:20.214Z</time>
      </trkpt>
      <trkpt lat="51.64077" lon="6.59645">
        <ele>70.776475</ele>
        <time>2023-06-26T08:14:22.240Z</time>
      </trkpt>
      <trkpt lat="51.64083" lon="6.59663">
        <ele>70.958933</ele>
        <time>2023-06-26T08:14:25.242Z</time>
      </trkpt>
      <trkpt lat="51.64087" lon="6.59679">
        <ele>71.112227</ele>
        <time>2023-06-26T08:14:28.207Z</time>
      </trkpt>
      <trkpt lat="51.64091" lon="6.59694">
        <ele>71.252633</ele>
        <time>2023-06-26T08:14:31.224Z</time>
      </trkpt>
      <trkpt lat="51.64095" lon="6.59707">
        <ele>71.382398</ele>
        <time>2023-06-26T08:14:34.226Z</time>
      </trkpt>
      <trkpt lat="51.641" lon="6.59724">
        <ele>71.551777</ele>
        <time>2023-06-26T08:14:38.228Z</time>
      </trkpt>
      <trkpt lat="51.64101" lon="6.5974">
        <ele>71.695264</ele>
        <time>2023-06-26T08:14:41.235Z</time>
      </trkpt>
      <trkpt lat="51.64096" lon="6.59756">
        <ele>71.856736</ele>
        <time>2023-06-26T08:14:44.224Z</time>
      </trkpt>
      <trkpt lat="51.64087" lon="6.59769">
        <ele>72.023824</ele>
        <time>2023-06-26T08:14:47.235Z</time>
      </trkpt>
      <trkpt lat="51.64077" lon="6.59773">
        <ele>72.179249</ele>
        <time>2023-06-26T08:14:50.234Z</time>
      </trkpt>
      <trkpt lat="51.64065" lon="6.59773">
        <ele>72.337687</ele>
        <time>2023-06-26T08:14:53.199Z</time>
      </trkpt>
      <trkpt lat="51.64053" lon="6.59769">
        <ele>72.416087</ele>
        <time>2023-06-26T08:14:56.222Z</time>
      </trkpt>
      <trkpt lat="51.64044" lon="6.59766">
        <ele>72.473002</ele>
        <time>2023-06-26T08:14:58.239Z</time>
      </trkpt>
      <trkpt lat="51.64031" lon="6.59762">
        <ele>72.555867</ele>
        <time>2023-06-26T08:15:01.229Z</time>
      </trkpt>
      <trkpt lat="51.64018" lon="6.59759">
        <ele>72.638345</ele>
        <time>2023-06-26T08:15:04.231Z</time>
      </trkpt>
      <trkpt lat="51.64006" lon="6.59753">
        <ele>72.721906</ele>
        <time>2023-06-26T08:15:07.228Z</time>
      </trkpt>
      <trkpt lat="51.63993" lon="6.59749">
        <ele>72.805109</ele>
        <time>2023-06-26T08:15:10.243Z</time>
      </trkpt>
      <trkpt lat="51.6398" lon="6.59742">
        <ele>72.887789</ele>
        <time>2023-06-26T08:15:13.231Z</time>
      </trkpt>
      <trkpt lat="51.63968" lon="6.59735">
        <ele>72.96985</ele>
        <time>2023-06-26T08:15:16.223Z</time>
      </trkpt>
      <trkpt lat="51.63957" lon="6.59729">
        <ele>73.045589</ele>
        <time>2023-06-26T08:15:19.224Z</time>
      </trkpt>
      <trkpt lat="51.63944" lon="6.59723">
        <ele>73.126241</ele>
        <time>2023-06-26T08:15:22.236Z</time>
      </trkpt>
      <trkpt lat="51.63934" lon="6.59714">
        <ele>73.198214</ele>
        <time>2023-06-26T08:15:25.232Z</time>
      </trkpt>
      <trkpt lat="51.63924" lon="6.59707">
        <ele>73.270813</ele>
        <time>2023-06-26T08:15:28.220Z</time>
      </trkpt>
      <trkpt lat="51.63913" lon="6.597">
        <ele>73.342076</ele>
        <time>2023-06-26T08:15:31.239Z</time>
      </trkpt>
      <trkpt lat="51.63903" lon="6.59693">
        <ele>73.41175</ele>
        <time>2023-06-26T08:15:34.224Z</time>
      </trkpt>
      <trkpt lat="51.63893" lon="6.59685">
        <ele>73.461993</ele>
        <time>2023-06-26T08:15:37.241Z</time>
      </trkpt>
      <trkpt lat="51.63883" lon="6.59677">
        <ele>73.453071</ele>
        <time>2023-06-26T08:15:40.246Z</time>
      </trkpt>
      <trkpt lat="51.63873" lon="6.59669">
        <ele>73.443769</ele>
        <time>2023-06-26T08:15:43.232Z</time>
      </trkpt>
      <trkpt lat="51.63862" lon="6.59661">
        <ele>73.434345</ele>
        <time>2023-06-26T08:15:46.218Z</time>
      </trkpt>
      <trkpt lat="51.63851" lon="6.59652">
        <ele>73.424884</ele>
        <time>2023-06-26T08:15:49.226Z</time>
      </trkpt>
      <trkpt lat="51.63841" lon="6.59644">
        <ele>73.415696</ele>
        <time>2023-06-26T08:15:52.227Z</time>
      </trkpt>
      <trkpt lat="51.6383" lon="6.59637">
        <ele>73.406286</ele>
        <time>2023-06-26T08:15:55.234Z</time>
      </trkpt>
      <trkpt lat="51.63819" lon="6.59629">
        <ele>73.396831</ele>
        <time>2023-06-26T08:15:58.230Z</time>
      </trkpt>
      <trkpt lat="51.63808" lon="6.59622">
        <ele>73.387013</ele>
        <time>2023-06-26T08:16:01.224Z</time>
      </trkpt>
      <trkpt lat="51.63797" lon="6.59613">
        <ele>73.377272</ele>
        <time>2023-06-26T08:16:04.221Z</time>
      </trkpt>
      <trkpt lat="51.63786" lon="6.59605">
        <ele>73.367565</ele>
        <time>2023-06-26T08:16:07.242Z</time>
      </trkpt>
      <trkpt lat="51.63775" lon="6.59597">
        <ele>73.358223</ele>
        <time>2023-06-26T08:16:10.225Z</time>
      </trkpt>
      <trkpt lat="51.63763" lon="6.59589">
        <ele>73.348177</ele>
        <time>2023-06-26T08:16:13.231Z</time>
      </trkpt>
      <trkpt lat="51.63752" lon="6.59581">
        <ele>73.338543</ele>
        <time>2023-06-26T08:16:16.221Z</time>
      </trkpt>
      <trkpt lat="51.63742" lon="6.59574">
        <ele>73.329791</ele>
        <time>2023-06-26T08:16:19.235Z</time>
      </trkpt>
      <trkpt lat="51.63733" lon="6.59566">
        <ele>73.321362</ele>
        <time>2023-06-26T08:16:22.228Z</time>
      </trkpt>
      <trkpt lat="51.63724" lon="6.59559">
        <ele>73.365871</ele>
        <time>2023-06-26T08:16:25.227Z</time>
      </trkpt>
      <trkpt lat="51.63715" lon="6.59553">
        <ele>73.414683</ele>
        <time>2023-06-26T08:16:28.240Z</time>
      </trkpt>
      <trkpt lat="51.63705" lon="6.59549">
        <ele>73.466159</ele>
        <time>2023-06-26T08:16:31.242Z</time>
      </trkpt>
      <trkpt lat="51.63695" lon="6.5954">
        <ele>73.518526</ele>
        <time>2023-06-26T08:16:34.250Z</time>
      </trkpt>
      <trkpt lat="51.63686" lon="6.59533">
        <ele>73.570921</ele>
        <time>2023-06-26T08:16:37.233Z</time>
      </trkpt>
      <trkpt lat="51.63675" lon="6.59525">
        <ele>73.627217</ele>
        <time>2023-06-26T08:16:40.229Z</time>
      </trkpt>
      <trkpt lat="51.63665" lon="6.59517">
        <ele>73.684143</ele>
        <time>2023-06-26T08:16:43.227Z</time>
      </trkpt>
      <trkpt lat="51.63654" lon="6.5951">
        <ele>73.740942</ele>
        <time>2023-06-26T08:16:46.221Z</time>
      </trkpt>
      <trkpt lat="51.63643" lon="6.59501">
        <ele>73.800615</ele>
        <time>2023-06-26T08:16:49.241Z</time>
      </trkpt>
      <trkpt lat="51.63632" lon="6.59494">
        <ele>73.860785</ele>
        <time>2023-06-26T08:16:52.220Z</time>
      </trkpt>
      <trkpt lat="51.63622" lon="6.59486">
        <ele>73.917658</ele>
        <time>2023-06-26T08:16:55.227Z</time>
      </trkpt>
      <trkpt lat="51.63611" lon="6.59478">
        <ele>73.974656</ele>
        <time>2023-06-26T08:16:58.238Z</time>
      </trkpt>
      <trkpt lat="51.636" lon="6.59471">
        <ele>74.032657</ele>
        <time>2023-06-26T08:17:01.241Z</time>
      </trkpt>
      <trkpt lat="51.6359" lon="6.59463">
        <ele>74.089663</ele>
        <time>2023-06-26T08:17:04.224Z</time>
      </trkpt>
      <trkpt lat="51.6358" lon="6.59455">
        <ele>74.143655</ele>
        <time>2023-06-26T08:17:07.240Z</time>
      </trkpt>
      <trkpt lat="51.6357" lon="6.59448">
        <ele>74.197962</ele>
        <time>2023-06-26T08:17:10.230Z</time>
      </trkpt>
      <trkpt lat="51.6356" lon="6.5944">
        <ele>74.142137</ele>
        <time>2023-06-26T08:17:13.226Z</time>
      </trkpt>
      <trkpt lat="51.6355" lon="6.59432">
        <ele>74.06834</ele>
        <time>2023-06-26T08:17:16.219Z</time>
      </trkpt>
      <trkpt lat="51.63541" lon="6.59423">
        <ele>73.998005</ele>
        <time>2023-06-26T08:17:19.232Z</time>
      </trkpt>
      <trkpt lat="51.63532" lon="6.59414">
        <ele>73.92872</ele>
        <time>2023-06-26T08:17:22.234Z</time>
      </trkpt>
      <trkpt lat="51.63524" lon="6.59406">
        <ele>73.864744</ele>
        <time>2023-06-26T08:17:25.210Z</time>
      </trkpt>
      <trkpt lat="51.63515" lon="6.59397">
        <ele>73.793913</ele>
        <time>2023-06-26T08:17:29.234Z</time>
      </trkpt>
      <trkpt lat="51.63508" lon="6.59388">
        <ele>73.733251</ele>
        <time>2023-06-26T08:17:34.223Z</time>
      </trkpt>
      <trkpt lat="51.63504" lon="6.59383">
        <ele>73.696854</ele>
        <time>2023-06-26T08:17:40.536Z</time>
      </trkpt>
      <trkpt lat="51.63495" lon="6.59374">
        <ele>73.629252</ele>
        <time>2023-06-26T08:36:42.215Z</time>
      </trkpt>
      <trkpt lat="51.63487" lon="6.59365">
        <ele>73.565201</ele>
        <time>2023-06-26T08:36:47.238Z</time>
      </trkpt>
      <trkpt lat="51.6348" lon="6.59354">
        <ele>73.498205</ele>
        <time>2023-06-26T08:36:52.226Z</time>
      </trkpt>
      <trkpt lat="51.63472" lon="6.59342">
        <ele>73.424672</ele>
        <time>2023-06-26T08:36:56.204Z</time>
      </trkpt>
      <trkpt lat="51.63464" lon="6.59327">
        <ele>73.342934</ele>
        <time>2023-06-26T08:37:00.231Z</time>
      </trkpt>
      <trkpt lat="51.63457" lon="6.59315">
        <ele>73.273606</ele>
        <time>2023-06-26T08:37:03.212Z</time>
      </trkpt>
      <trkpt lat="51.63451" lon="6.59302">
        <ele>73.206207</ele>
        <time>2023-06-26T08:37:06.239Z</time>
      </trkpt>
      <trkpt lat="51.63445" lon="6.5929">
        <ele>73.140301</ele>
        <time>2023-06-26T08:37:09.235Z</time>
      </trkpt>
      <trkpt lat="51.63438" lon="6.59277">
        <ele>73.070765</ele>
        <time>2023-06-26T08:37:12.239Z</time>
      </trkpt>
      <trkpt lat="51.63431" lon="6.59264">
        <ele>73.001271</ele>
        <time>2023-06-26T08:37:15.225Z</time>
      </trkpt>
      <trkpt lat="51.63423" lon="6.59253">
        <ele>73.032202</ele>
        <time>2023-06-26T08:37:18.220Z</time>
      </trkpt>
      <trkpt lat="51.63415" lon="6.5924">
        <ele>73.0662</ele>
        <time>2023-06-26T08:37:21.234Z</time>
      </trkpt>
      <trkpt lat="51.63406" lon="6.5923">
        <ele>73.098204</ele>
        <time>2023-06-26T08:37:24.224Z</time>
      </trkpt>
      <trkpt lat="51.63397" lon="6.59221">
        <ele>73.128937</ele>
        <time>2023-06-26T08:37:27.245Z</time>
      </trkpt>
      <trkpt lat="51.63387" lon="6.59214">
        <ele>73.161203</ele>
        <time>2023-06-26T08:37:30.231Z</time>
      </trkpt>
      <trkpt lat="51.63377" lon="6.59206">
        <ele>73.193323</ele>
        <time>2023-06-26T08:37:33.220Z</time>
      </trkpt>
      <trkpt lat="51.63367" lon="6.59201">
        <ele>73.224452</ele>
        <time>2023-06-26T08:37:36.230Z</time>
      </trkpt>
      <trkpt lat="51.63357" lon="6.59194">
        <ele>73.256908</ele>
        <time>2023-06-26T08:37:39.245Z</time>
      </trkpt>
      <trkpt lat="51.63346" lon="6.59189">
        <ele>73.291065</ele>
        <time>2023-06-26T08:37:42.243Z</time>
      </trkpt>
      <trkpt lat="51.63335" lon="6.59183">
        <ele>73.325836</ele>
        <time>2023-06-26T08:37:45.258Z</time>
      </trkpt>
      <trkpt lat="51.63322" lon="6.59177">
        <ele>73.365478</ele>
        <time>2023-06-26T08:37:48.240Z</time>
      </trkpt>
      <trkpt lat="51.63312" lon="6.59173">
        <ele>73.396823</ele>
        <time>2023-06-26T08:37:50.235Z</time>
      </trkpt>
      <trkpt lat="51.633" lon="6.59168">
        <ele>73.431865</ele>
        <time>2023-06-26T08:37:52.228Z</time>
      </trkpt>
      <trkpt lat="51.63288" lon="6.59163">
        <ele>73.468819</ele>
        <time>2023-06-26T08:37:54.231Z</time>
      </trkpt>
      <trkpt lat="51.63276" lon="6.5916">
        <ele>73.505679</ele>
        <time>2023-06-26T08:37:56.223Z</time>
      </trkpt>
      <trkpt lat="51.63264" lon="6.59156">
        <ele>73.520959</ele>
        <time>2023-06-26T08:37:58.224Z</time>
      </trkpt>
      <trkpt lat="51.63252" lon="6.59153">
        <ele>73.488907</ele>
        <time>2023-06-26T08:38:00.234Z</time>
      </trkpt>
      <trkpt lat="51.6324" lon="6.5915">
        <ele>73.45789</ele>
        <time>2023-06-26T08:38:02.227Z</time>
      </trkpt>
      <trkpt lat="51.63228" lon="6.59148">
        <ele>73.426405</ele>
        <time>2023-06-26T08:38:04.225Z</time>
      </trkpt>
      <trkpt lat="51.63217" lon="6.59146">
        <ele>73.395728</ele>
        <time>2023-06-26T08:38:06.222Z</time>
      </trkpt>
      <trkpt lat="51.63205" lon="6.59144">
        <ele>73.365597</ele>
        <time>2023-06-26T08:38:08.216Z</time>
      </trkpt>
      <trkpt lat="51.63194" lon="6.59143">
        <ele>73.335299</ele>
        <time>2023-06-26T08:38:10.238Z</time>
      </trkpt>
      <trkpt lat="51.63183" lon="6.59141">
        <ele>73.30492</ele>
        <time>2023-06-26T08:38:12.227Z</time>
      </trkpt>
      <trkpt lat="51.63172" lon="6.59138">
        <ele>73.275797</ele>
        <time>2023-06-26T08:38:14.238Z</time>
      </trkpt>
      <trkpt lat="51.63162" lon="6.5913">
        <ele>73.245968</ele>
        <time>2023-06-26T08:38:16.215Z</time>
      </trkpt>
      <trkpt lat="51.63153" lon="6.59119">
        <ele>73.217049</ele>
        <time>2023-06-26T08:38:18.227Z</time>
      </trkpt>
      <trkpt lat="51.63144" lon="6.59109">
        <ele>73.188734</ele>
        <time>2023-06-26T08:38:20.240Z</time>
      </trkpt>
      <trkpt lat="51.63136" lon="6.59099">
        <ele>73.160003</ele>
        <time>2023-06-26T08:38:22.224Z</time>
      </trkpt>
      <trkpt lat="51.63127" lon="6.59088">
        <ele>73.13065</ele>
        <time>2023-06-26T08:38:24.232Z</time>
      </trkpt>
      <trkpt lat="51.63118" lon="6.59078">
        <ele>73.100771</ele>
        <time>2023-06-26T08:38:26.229Z</time>
      </trkpt>
      <trkpt lat="51.63109" lon="6.59066">
        <ele>73.071845</ele>
        <time>2023-06-26T08:38:28.223Z</time>
      </trkpt>
      <trkpt lat="51.63102" lon="6.59053">
        <ele>73.083665</ele>
        <time>2023-06-26T08:38:30.214Z</time>
      </trkpt>
      <trkpt lat="51.63096" lon="6.5904">
        <ele>73.165525</ele>
        <time>2023-06-26T08:38:32.237Z</time>
      </trkpt>
      <trkpt lat="51.6309" lon="6.59027">
        <ele>73.244337</ele>
        <time>2023-06-26T08:38:34.226Z</time>
      </trkpt>
      <trkpt lat="51.63083" lon="6.59013">
        <ele>73.328273</ele>
        <time>2023-06-26T08:38:36.275Z</time>
      </trkpt>
      <trkpt lat="51.63076" lon="6.59">
        <ele>73.408789</ele>
        <time>2023-06-26T08:38:38.231Z</time>
      </trkpt>
      <trkpt lat="51.6307" lon="6.58987">
        <ele>73.484976</ele>
        <time>2023-06-26T08:38:40.220Z</time>
      </trkpt>
      <trkpt lat="51.63064" lon="6.58975">
        <ele>73.561749</ele>
        <time>2023-06-26T08:38:42.235Z</time>
      </trkpt>
      <trkpt lat="51.63057" lon="6.58964">
        <ele>73.637252</ele>
        <time>2023-06-26T08:38:44.234Z</time>
      </trkpt>
      <trkpt lat="51.63048" lon="6.5895">
        <ele>73.733013</ele>
        <time>2023-06-26T08:38:47.228Z</time>
      </trkpt>
      <trkpt lat="51.6304" lon="6.58939">
        <ele>73.809404</ele>
        <time>2023-06-26T08:38:50.242Z</time>
      </trkpt>
      <trkpt lat="51.63033" lon="6.5893">
        <ele>73.881951</ele>
        <time>2023-06-26T08:38:53.224Z</time>
      </trkpt>
      <trkpt lat="51.63026" lon="6.58919">
        <ele>73.957609</ele>
        <time>2023-06-26T08:38:56.214Z</time>
      </trkpt>
      <trkpt lat="51.63018" lon="6.58909">
        <ele>74.036151</ele>
        <time>2023-06-26T08:38:59.239Z</time>
      </trkpt>
      <trkpt lat="51.6301" lon="6.58898">
        <ele>74.117745</ele>
        <time>2023-06-26T08:39:02.219Z</time>
      </trkpt>
      <trkpt lat="51.63001" lon="6.58888">
        <ele>74.19787</ele>
        <time>2023-06-26T08:39:05.231Z</time>
      </trkpt>
      <trkpt lat="51.62993" lon="6.58877">
        <ele>74.280324</ele>
        <time>2023-06-26T08:39:08.223Z</time>
      </trkpt>
      <trkpt lat="51.62983" lon="6.58864">
        <ele>74.37625</ele>
        <time>2023-06-26T08:39:11.239Z</time>
      </trkpt>
      <trkpt lat="51.62973" lon="6.58852">
        <ele>74.452791</ele>
        <time>2023-06-26T08:39:14.220Z</time>
      </trkpt>
      <trkpt lat="51.62963" lon="6.5884">
        <ele>74.488295</ele>
        <time>2023-06-26T08:39:17.230Z</time>
      </trkpt>
      <trkpt lat="51.62954" lon="6.58828">
        <ele>74.520837</ele>
        <time>2023-06-26T08:39:20.225Z</time>
      </trkpt>
      <trkpt lat="51.62946" lon="6.58816">
        <ele>74.553996</ele>
        <time>2023-06-26T08:39:23.223Z</time>
      </trkpt>
      <trkpt lat="51.62937" lon="6.58804">
        <ele>74.588236</ele>
        <time>2023-06-26T08:39:26.242Z</time>
      </trkpt>
      <trkpt lat="51.62927" lon="6.58791">
        <ele>74.6245</ele>
        <time>2023-06-26T08:39:29.231Z</time>
      </trkpt>
      <trkpt lat="51.62918" lon="6.58779">
        <ele>74.658849</ele>
        <time>2023-06-26T08:39:32.234Z</time>
      </trkpt>
      <trkpt lat="51.62908" lon="6.58767">
        <ele>74.694542</ele>
        <time>2023-06-26T08:39:35.230Z</time>
      </trkpt>
      <trkpt lat="51.62898" lon="6.58754">
        <ele>74.730585</ele>
        <time>2023-06-26T08:39:38.241Z</time>
      </trkpt>
      <trkpt lat="51.62889" lon="6.58741">
        <ele>74.766292</ele>
        <time>2023-06-26T08:39:41.221Z</time>
      </trkpt>
      <trkpt lat="51.62879" lon="6.5873">
        <ele>74.801613</ele>
        <time>2023-06-26T08:39:44.245Z</time>
      </trkpt>
      <trkpt lat="51.62869" lon="6.58718">
        <ele>74.83697</ele>
        <time>2023-06-26T08:39:47.228Z</time>
      </trkpt>
      <trkpt lat="51.6286" lon="6.58705">
        <ele>74.871888</ele>
        <time>2023-06-26T08:39:50.224Z</time>
      </trkpt>
      <trkpt lat="51.6285" lon="6.58694">
        <ele>74.906397</ele>
        <time>2023-06-26T08:39:53.230Z</time>
      </trkpt>
      <trkpt lat="51.62842" lon="6.58682">
        <ele>74.937976</ele>
        <time>2023-06-26T08:39:56.226Z</time>
      </trkpt>
      <trkpt lat="51.62833" lon="6.58671">
        <ele>74.922908</ele>
        <time>2023-06-26T08:39:59.227Z</time>
      </trkpt>
      <trkpt lat="51.62824" lon="6.58658">
        <ele>74.834694</ele>
        <time>2023-06-26T08:40:02.227Z</time>
      </trkpt>
      <trkpt lat="51.62814" lon="6.58646">
        <ele>74.742467</ele>
        <time>2023-06-26T08:40:05.210Z</time>
      </trkpt>
      <trkpt lat="51.62804" lon="6.58634">
        <ele>74.649476</ele>
        <time>2023-06-26T08:40:08.221Z</time>
      </trkpt>
      <trkpt lat="51.62793" lon="6.58623">
        <ele>74.557061</ele>
        <time>2023-06-26T08:40:11.226Z</time>
      </trkpt>
      <trkpt lat="51.62785" lon="6.58616">
        <ele>74.489239</ele>
        <time>2023-06-26T08:40:13.231Z</time>
      </trkpt>
      <trkpt lat="51.62772" lon="6.58608">
        <ele>74.389643</ele>
        <time>2023-06-26T08:40:16.236Z</time>
      </trkpt>
      <trkpt lat="51.62762" lon="6.58603">
        <ele>74.310402</ele>
        <time>2023-06-26T08:40:18.229Z</time>
      </trkpt>
      <trkpt lat="51.62751" lon="6.58595">
        <ele>74.219329</ele>
        <time>2023-06-26T08:40:20.229Z</time>
      </trkpt>
      <trkpt lat="51.6274" lon="6.58584">
        <ele>74.123314</ele>
        <time>2023-06-26T08:40:22.227Z</time>
      </trkpt>
      <trkpt lat="51.62728" lon="6.58572">
        <ele>74.018554</ele>
        <time>2023-06-26T08:40:24.223Z</time>
      </trkpt>
      <trkpt lat="51.62716" lon="6.5856">
        <ele>73.915591</ele>
        <time>2023-06-26T08:40:26.220Z</time>
      </trkpt>
      <trkpt lat="51.62705" lon="6.58548">
        <ele>73.816444</ele>
        <time>2023-06-26T08:40:28.222Z</time>
      </trkpt>
      <trkpt lat="51.62694" lon="6.58535">
        <ele>73.718698</ele>
        <time>2023-06-26T08:40:30.246Z</time>
      </trkpt>
      <trkpt lat="51.62684" lon="6.58523">
        <ele>73.632687</ele>
        <time>2023-06-26T08:40:32.240Z</time>
      </trkpt>
      <trkpt lat="51.62674" lon="6.58512">
        <ele>73.657672</ele>
        <time>2023-06-26T08:40:34.227Z</time>
      </trkpt>
      <trkpt lat="51.62665" lon="6.58503">
        <ele>73.680762</ele>
        <time>2023-06-26T08:40:36.224Z</time>
      </trkpt>
      <trkpt lat="51.62656" lon="6.58495">
        <ele>73.700541</ele>
        <time>2023-06-26T08:40:38.204Z</time>
      </trkpt>
      <trkpt lat="51.62646" lon="6.58484">
        <ele>73.725869</ele>
        <time>2023-06-26T08:40:41.251Z</time>
      </trkpt>
      <trkpt lat="51.62637" lon="6.58475">
        <ele>73.747314</ele>
        <time>2023-06-26T08:40:45.239Z</time>
      </trkpt>
      <trkpt lat="51.62627" lon="6.58467">
        <ele>73.76971</ele>
        <time>2023-06-26T08:40:51.221Z</time>
      </trkpt>
      <trkpt lat="51.62618" lon="6.58457">
        <ele>73.792908</ele>
        <time>2023-06-26T08:40:54.247Z</time>
      </trkpt>
      <trkpt lat="51.62607" lon="6.58448">
        <ele>73.818849</ele>
        <time>2023-06-26T08:40:57.227Z</time>
      </trkpt>
      <trkpt lat="51.62599" lon="6.58439">
        <ele>73.837666</ele>
        <time>2023-06-26T08:40:59.230Z</time>
      </trkpt>
      <trkpt lat="51.62591" lon="6.58432">
        <ele>73.8567</ele>
        <time>2023-06-26T08:41:01.237Z</time>
      </trkpt>
      <trkpt lat="51.62583" lon="6.58424">
        <ele>73.875341</ele>
        <time>2023-06-26T08:41:03.216Z</time>
      </trkpt>
      <trkpt lat="51.62575" lon="6.58416">
        <ele>73.894842</ele>
        <time>2023-06-26T08:41:05.248Z</time>
      </trkpt>
      <trkpt lat="51.62567" lon="6.58408">
        <ele>73.914489</ele>
        <time>2023-06-26T08:41:07.230Z</time>
      </trkpt>
      <trkpt lat="51.62559" lon="6.58399">
        <ele>73.933508</ele>
        <time>2023-06-26T08:41:09.241Z</time>
      </trkpt>
      <trkpt lat="51.62551" lon="6.58391">
        <ele>73.953492</ele>
        <time>2023-06-26T08:41:11.233Z</time>
      </trkpt>
      <trkpt lat="51.62543" lon="6.58383">
        <ele>73.97354</ele>
        <time>2023-06-26T08:41:13.236Z</time>
      </trkpt>
      <trkpt lat="51.62535" lon="6.58376">
        <ele>73.992397</ele>
        <time>2023-06-26T08:41:15.250Z</time>
      </trkpt>
      <trkpt lat="51.62527" lon="6.58367">
        <ele>74.044107</ele>
        <time>2023-06-26T08:41:17.244Z</time>
      </trkpt>
      <trkpt lat="51.62518" lon="6.58358">
        <ele>74.115209</ele>
        <time>2023-06-26T08:41:19.245Z</time>
      </trkpt>
      <trkpt lat="51.6251" lon="6.58351">
        <ele>74.183433</ele>
        <time>2023-06-26T08:41:21.234Z</time>
      </trkpt>
      <trkpt lat="51.62502" lon="6.58343">
        <ele>74.252585</ele>
        <time>2023-06-26T08:41:23.232Z</time>
      </trkpt>
      <trkpt lat="51.62494" lon="6.58335">
        <ele>74.318699</ele>
        <time>2023-06-26T08:41:25.237Z</time>
      </trkpt>
      <trkpt lat="51.62486" lon="6.58328">
        <ele>74.387152</ele>
        <time>2023-06-26T08:41:27.240Z</time>
      </trkpt>
      <trkpt lat="51.62478" lon="6.5832">
        <ele>74.455447</ele>
        <time>2023-06-26T08:41:29.211Z</time>
      </trkpt>
      <trkpt lat="51.6247" lon="6.58311">
        <ele>74.528502</ele>
        <time>2023-06-26T08:41:31.243Z</time>
      </trkpt>
      <trkpt lat="51.62461" lon="6.58303">
        <ele>74.600612</ele>
        <time>2023-06-26T08:41:33.227Z</time>
      </trkpt>
      <trkpt lat="51.62453" lon="6.58293">
        <ele>74.67498</ele>
        <time>2023-06-26T08:41:35.238Z</time>
      </trkpt>
      <trkpt lat="51.62446" lon="6.58283">
        <ele>74.743679</ele>
        <time>2023-06-26T08:41:37.232Z</time>
      </trkpt>
      <trkpt lat="51.62436" lon="6.5827">
        <ele>74.835337</ele>
        <time>2023-06-26T08:41:40.235Z</time>
      </trkpt>
      <trkpt lat="51.62428" lon="6.58256">
        <ele>74.924203</ele>
        <time>2023-06-26T08:41:43.232Z</time>
      </trkpt>
      <trkpt lat="51.62419" lon="6.58242">
        <ele>75.014669</ele>
        <time>2023-06-26T08:41:46.228Z</time>
      </trkpt>
      <trkpt lat="51.6241" lon="6.58229">
        <ele>75.102111</ele>
        <time>2023-06-26T08:41:49.235Z</time>
      </trkpt>
      <trkpt lat="51.62401" lon="6.58215">
        <ele>75.192021</ele>
        <time>2023-06-26T08:41:52.234Z</time>
      </trkpt>
      <trkpt lat="51.62392" lon="6.58201">
        <ele>75.28122</ele>
        <time>2023-06-26T08:41:55.233Z</time>
      </trkpt>
      <trkpt lat="51.62384" lon="6.58188">
        <ele>75.342909</ele>
        <time>2023-06-26T08:41:58.231Z</time>
      </trkpt>
      <trkpt lat="51.62374" lon="6.58175">
        <ele>75.394906</ele>
        <time>2023-06-26T08:42:01.238Z</time>
      </trkpt>
      <trkpt lat="51.62365" lon="6.58162">
        <ele>75.446903</ele>
        <time>2023-06-26T08:42:04.229Z</time>
      </trkpt>
      <trkpt lat="51.62356" lon="6.58148">
        <ele>75.498728</ele>
        <time>2023-06-26T08:42:07.236Z</time>
      </trkpt>
      <trkpt lat="51.62346" lon="6.58137">
        <ele>75.549212</ele>
        <time>2023-06-26T08:42:10.240Z</time>
      </trkpt>
      <trkpt lat="51.62335" lon="6.58128">
        <ele>75.601585</ele>
        <time>2023-06-26T08:42:13.232Z</time>
      </trkpt>
      <trkpt lat="51.62326" lon="6.5812">
        <ele>75.646933</ele>
        <time>2023-06-26T08:42:16.227Z</time>
      </trkpt>
      <trkpt lat="51.62316" lon="6.58112">
        <ele>75.692938</ele>
        <time>2023-06-26T08:42:19.229Z</time>
      </trkpt>
      <trkpt lat="51.62305" lon="6.58107">
        <ele>75.738143</ele>
        <time>2023-06-26T08:42:22.229Z</time>
      </trkpt>
      <trkpt lat="51.62295" lon="6.58102">
        <ele>75.782719</ele>
        <time>2023-06-26T08:42:25.230Z</time>
      </trkpt>
      <trkpt lat="51.62284" lon="6.58097">
        <ele>75.830393</ele>
        <time>2023-06-26T08:42:28.226Z</time>
      </trkpt>
      <trkpt lat="51.62274" lon="6.58091">
        <ele>75.874891</ele>
        <time>2023-06-26T08:42:31.254Z</time>
      </trkpt>
      <trkpt lat="51.62264" lon="6.58087">
        <ele>75.919186</ele>
        <time>2023-06-26T08:42:34.245Z</time>
      </trkpt>
      <trkpt lat="51.62254" lon="6.58082">
        <ele>75.961276</ele>
        <time>2023-06-26T08:42:37.239Z</time>
      </trkpt>
      <trkpt lat="51.62245" lon="6.58078">
        <ele>76.000885</ele>
        <time>2023-06-26T08:42:40.232Z</time>
      </trkpt>
      <trkpt lat="51.62235" lon="6.58072">
        <ele>76.0484</ele>
        <time>2023-06-26T08:42:43.218Z</time>
      </trkpt>
      <trkpt lat="51.62223" lon="6.58068">
        <ele>76.060775</ele>
        <time>2023-06-26T08:42:46.231Z</time>
      </trkpt>
      <trkpt lat="51.62211" lon="6.58061">
        <ele>76.05619</ele>
        <time>2023-06-26T08:42:49.239Z</time>
      </trkpt>
      <trkpt lat="51.62199" lon="6.58054">
        <ele>76.051459</ele>
        <time>2023-06-26T08:42:52.237Z</time>
      </trkpt>
      <trkpt lat="51.62186" lon="6.58046">
        <ele>76.046844</ele>
        <time>2023-06-26T08:42:55.248Z</time>
      </trkpt>
      <trkpt lat="51.62174" lon="6.58038">
        <ele>76.042088</ele>
        <time>2023-06-26T08:42:58.239Z</time>
      </trkpt>
      <trkpt lat="51.62165" lon="6.58032">
        <ele>76.03884</ele>
        <time>2023-06-26T08:43:00.241Z</time>
      </trkpt>
      <trkpt lat="51.62157" lon="6.58026">
        <ele>76.035445</ele>
        <time>2023-06-26T08:43:02.228Z</time>
      </trkpt>
      <trkpt lat="51.62148" lon="6.5802">
        <ele>76.032035</ele>
        <time>2023-06-26T08:43:04.228Z</time>
      </trkpt>
      <trkpt lat="51.62139" lon="6.58014">
        <ele>76.028633</ele>
        <time>2023-06-26T08:43:06.245Z</time>
      </trkpt>
      <trkpt lat="51.6213" lon="6.58008">
        <ele>76.025207</ele>
        <time>2023-06-26T08:43:08.250Z</time>
      </trkpt>
      <trkpt lat="51.62121" lon="6.58003">
        <ele>76.021753</ele>
        <time>2023-06-26T08:43:10.228Z</time>
      </trkpt>
      <trkpt lat="51.62112" lon="6.57998">
        <ele>76.018399</ele>
        <time>2023-06-26T08:43:12.243Z</time>
      </trkpt>
      <trkpt lat="51.62102" lon="6.57992">
        <ele>76.014897</ele>
        <time>2023-06-26T08:43:14.246Z</time>
      </trkpt>
      <trkpt lat="51.62093" lon="6.57988">
        <ele>76.011425</ele>
        <time>2023-06-26T08:43:16.226Z</time>
      </trkpt>
      <trkpt lat="51.62084" lon="6.57981">
        <ele>76.007943</ele>
        <time>2023-06-26T08:43:18.240Z</time>
      </trkpt>
      <trkpt lat="51.62075" lon="6.57975">
        <ele>76.004492</ele>
        <time>2023-06-26T08:43:20.247Z</time>
      </trkpt>
      <trkpt lat="51.62066" lon="6.57969">
        <ele>76.000917</ele>
        <time>2023-06-26T08:43:22.239Z</time>
      </trkpt>
      <trkpt lat="51.62058" lon="6.57961">
        <ele>76</ele>
        <time>2023-06-26T08:43:24.223Z</time>
      </trkpt>
      <trkpt lat="51.62049" lon="6.57954">
        <ele>76</ele>
        <time>2023-06-26T08:43:26.230Z</time>
      </trkpt>
      <trkpt lat="51.62041" lon="6.57947">
        <ele>76</ele>
        <time>2023-06-26T08:43:28.247Z</time>
      </trkpt>
      <trkpt lat="51.62029" lon="6.57936">
        <ele>76</ele>
        <time>2023-06-26T08:43:31.234Z</time>
      </trkpt>
      <trkpt lat="51.62021" lon="6.57929">
        <ele>76</ele>
        <time>2023-06-26T08:43:33.238Z</time>
      </trkpt>
      <trkpt lat="51.6201" lon="6.57915">
        <ele>76</ele>
        <time>2023-06-26T08:43:36.250Z</time>
      </trkpt>
      <trkpt lat="51.62003" lon="6.57906">
        <ele>76</ele>
        <time>2023-06-26T08:43:38.219Z</time>
      </trkpt>
      <trkpt lat="51.61996" lon="6.57896">
        <ele>76</ele>
        <time>2023-06-26T08:43:40.251Z</time>
      </trkpt>
      <trkpt lat="51.61989" lon="6.57886">
        <ele>76</ele>
        <time>2023-06-26T08:43:42.245Z</time>
      </trkpt>
      <trkpt lat="51.61982" lon="6.57876">
        <ele>76</ele>
        <time>2023-06-26T08:43:44.250Z</time>
      </trkpt>
      <trkpt lat="51.61975" lon="6.57865">
        <ele>76</ele>
        <time>2023-06-26T08:43:46.226Z</time>
      </trkpt>
      <trkpt lat="51.61969" lon="6.57855">
        <ele>76</ele>
        <time>2023-06-26T08:43:48.231Z</time>
      </trkpt>
      <trkpt lat="51.6196" lon="6.57839">
        <ele>76</ele>
        <time>2023-06-26T08:43:51.231Z</time>
      </trkpt>
      <trkpt lat="51.61952" lon="6.57824">
        <ele>76</ele>
        <time>2023-06-26T08:43:54.247Z</time>
      </trkpt>
      <trkpt lat="51.61944" lon="6.57808">
        <ele>76</ele>
        <time>2023-06-26T08:43:57.229Z</time>
      </trkpt>
      <trkpt lat="51.61937" lon="6.57791">
        <ele>76</ele>
        <time>2023-06-26T08:44:00.213Z</time>
      </trkpt>
      <trkpt lat="51.61929" lon="6.57774">
        <ele>75.995783</ele>
        <time>2023-06-26T08:44:03.234Z</time>
      </trkpt>
      <trkpt lat="51.61923" lon="6.57757">
        <ele>75.971822</ele>
        <time>2023-06-26T08:44:06.227Z</time>
      </trkpt>
      <trkpt lat="51.61916" lon="6.5774">
        <ele>75.947857</ele>
        <time>2023-06-26T08:44:09.237Z</time>
      </trkpt>
      <trkpt lat="51.61909" lon="6.57722">
        <ele>75.923085</ele>
        <time>2023-06-26T08:44:12.247Z</time>
      </trkpt>
      <trkpt lat="51.61902" lon="6.57705">
        <ele>75.899024</ele>
        <time>2023-06-26T08:44:15.239Z</time>
      </trkpt>
      <trkpt lat="51.61897" lon="6.57692">
        <ele>75.881578</ele>
        <time>2023-06-26T08:44:17.232Z</time>
      </trkpt>
      <trkpt lat="51.6189" lon="6.57675">
        <ele>75.857919</ele>
        <time>2023-06-26T08:44:20.233Z</time>
      </trkpt>
      <trkpt lat="51.61883" lon="6.57658">
        <ele>75.833022</ele>
        <time>2023-06-26T08:44:23.223Z</time>
      </trkpt>
      <trkpt lat="51.61876" lon="6.57641">
        <ele>75.808962</ele>
        <time>2023-06-26T08:44:26.244Z</time>
      </trkpt>
      <trkpt lat="51.6187" lon="6.57626">
        <ele>75.787172</ele>
        <time>2023-06-26T08:44:29.228Z</time>
      </trkpt>
      <trkpt lat="51.61864" lon="6.57611">
        <ele>75.766617</ele>
        <time>2023-06-26T08:44:32.243Z</time>
      </trkpt>
      <trkpt lat="51.61858" lon="6.57598">
        <ele>75.748551</ele>
        <time>2023-06-26T08:44:35.243Z</time>
      </trkpt>
      <trkpt lat="51.61852" lon="6.57583">
        <ele>75.72719</ele>
        <time>2023-06-26T08:44:39.231Z</time>
      </trkpt>
      <trkpt lat="51.61851" lon="6.57568">
        <ele>75.70919</ele>
        <time>2023-06-26T08:44:52.217Z</time>
      </trkpt>
      <trkpt lat="51.61844" lon="6.57556">
        <ele>75.689584</ele>
        <time>2023-06-26T08:44:57.230Z</time>
      </trkpt>
      <trkpt lat="51.61837" lon="6.57544">
        <ele>75.670194</ele>
        <time>2023-06-26T08:45:03.231Z</time>
      </trkpt>
      <trkpt lat="51.61831" lon="6.57534">
        <ele>75.578557</ele>
        <time>2023-06-26T08:45:10.214Z</time>
      </trkpt>
      <trkpt lat="51.61837" lon="6.57548">
        <ele>75.281973</ele>
        <time>2023-06-26T08:45:23.219Z</time>
      </trkpt>
      <trkpt lat="51.61844" lon="6.57558">
        <ele>75.003248</ele>
        <time>2023-06-26T08:45:26.231Z</time>
      </trkpt>
      <trkpt lat="51.61851" lon="6.57569">
        <ele>74.714768</ele>
        <time>2023-06-26T08:45:29.230Z</time>
      </trkpt>
      <trkpt lat="51.61857" lon="6.57581">
        <ele>74.436796</ele>
        <time>2023-06-26T08:45:32.238Z</time>
      </trkpt>
      <trkpt lat="51.61865" lon="6.57596">
        <ele>74.083772</ele>
        <time>2023-06-26T08:45:35.251Z</time>
      </trkpt>
      <trkpt lat="51.61872" lon="6.57608">
        <ele>73.785045</ele>
        <time>2023-06-26T08:45:37.244Z</time>
      </trkpt>
      <trkpt lat="51.61881" lon="6.57622">
        <ele>73.441439</ele>
        <time>2023-06-26T08:45:39.233Z</time>
      </trkpt>
      <trkpt lat="51.61889" lon="6.57635">
        <ele>73.110088</ele>
        <time>2023-06-26T08:45:41.231Z</time>
      </trkpt>
      <trkpt lat="51.61896" lon="6.57648">
        <ele>72.791883</ele>
        <time>2023-06-26T08:45:43.233Z</time>
      </trkpt>
      <trkpt lat="51.61906" lon="6.57657">
        <ele>72.462616</ele>
        <time>2023-06-26T08:45:45.219Z</time>
      </trkpt>
      <trkpt lat="51.61917" lon="6.57659">
        <ele>72.145563</ele>
        <time>2023-06-26T08:45:47.232Z</time>
      </trkpt>
      <trkpt lat="51.61929" lon="6.57655">
        <ele>71.798895</ele>
        <time>2023-06-26T08:45:49.217Z</time>
      </trkpt>
      <trkpt lat="51.6194" lon="6.57645">
        <ele>71.440024</ele>
        <time>2023-06-26T08:45:51.273Z</time>
      </trkpt>
      <trkpt lat="51.61952" lon="6.57635">
        <ele>71.059137</ele>
        <time>2023-06-26T08:45:53.245Z</time>
      </trkpt>
      <trkpt lat="51.61964" lon="6.57626">
        <ele>70.677945</ele>
        <time>2023-06-26T08:45:55.261Z</time>
      </trkpt>
      <trkpt lat="51.61974" lon="6.57617">
        <ele>70.475153</ele>
        <time>2023-06-26T08:45:57.220Z</time>
      </trkpt>
      <trkpt lat="51.61985" lon="6.57607">
        <ele>70.476413</ele>
        <time>2023-06-26T08:45:59.248Z</time>
      </trkpt>
      <trkpt lat="51.61994" lon="6.57598">
        <ele>70.477545</ele>
        <time>2023-06-26T08:46:01.230Z</time>
      </trkpt>
      <trkpt lat="51.62001" lon="6.57591">
        <ele>70.478517</ele>
        <time>2023-06-26T08:46:03.231Z</time>
      </trkpt>
      <trkpt lat="51.6201" lon="6.57583">
        <ele>70.479538</ele>
        <time>2023-06-26T08:46:06.243Z</time>
      </trkpt>
      <trkpt lat="51.62019" lon="6.57576">
        <ele>70.480615</ele>
        <time>2023-06-26T08:46:15.243Z</time>
      </trkpt>
      <trkpt lat="51.62023" lon="6.5756">
        <ele>70.481788</ele>
        <time>2023-06-26T08:46:20.233Z</time>
      </trkpt>
      <trkpt lat="51.62024" lon="6.57544">
        <ele>70.482888</ele>
        <time>2023-06-26T08:46:23.232Z</time>
      </trkpt>
      <trkpt lat="51.62021" lon="6.57525">
        <ele>70.484127</ele>
        <time>2023-06-26T08:46:26.244Z</time>
      </trkpt>
      <trkpt lat="51.62017" lon="6.57505">
        <ele>70.485558</ele>
        <time>2023-06-26T08:46:29.228Z</time>
      </trkpt>
      <trkpt lat="51.62014" lon="6.5749">
        <ele>70.486566</ele>
        <time>2023-06-26T08:46:31.250Z</time>
      </trkpt>
      <trkpt lat="51.62013" lon="6.57475">
        <ele>70.487561</ele>
        <time>2023-06-26T08:46:33.238Z</time>
      </trkpt>
      <trkpt lat="51.62011" lon="6.5746">
        <ele>70.488584</ele>
        <time>2023-06-26T08:46:35.231Z</time>
      </trkpt>
      <trkpt lat="51.62009" lon="6.57445">
        <ele>70.489628</ele>
        <time>2023-06-26T08:46:37.222Z</time>
      </trkpt>
      <trkpt lat="51.62006" lon="6.57429">
        <ele>70.490723</ele>
        <time>2023-06-26T08:46:39.237Z</time>
      </trkpt>
      <trkpt lat="51.62003" lon="6.57414">
        <ele>70.491768</ele>
        <time>2023-06-26T08:46:41.238Z</time>
      </trkpt>
      <trkpt lat="51.62004" lon="6.57391">
        <ele>70.493252</ele>
        <time>2023-06-26T08:46:44.233Z</time>
      </trkpt>
      <trkpt lat="51.62007" lon="6.57376">
        <ele>70.468065</ele>
        <time>2023-06-26T08:46:46.236Z</time>
      </trkpt>
      <trkpt lat="51.62015" lon="6.57358">
        <ele>70.402986</ele>
        <time>2023-06-26T08:46:49.247Z</time>
      </trkpt>
      <trkpt lat="51.62024" lon="6.57344">
        <ele>70.339058</ele>
        <time>2023-06-26T08:46:52.244Z</time>
      </trkpt>
      <trkpt lat="51.62034" lon="6.5733">
        <ele>70.274525</ele>
        <time>2023-06-26T08:46:55.224Z</time>
      </trkpt>
      <trkpt lat="51.62041" lon="6.57319">
        <ele>70.228336</ele>
        <time>2023-06-26T08:46:57.252Z</time>
      </trkpt>
      <trkpt lat="51.62047" lon="6.57307">
        <ele>70.180725</ele>
        <time>2023-06-26T08:46:59.238Z</time>
      </trkpt>
      <trkpt lat="51.62053" lon="6.57288">
        <ele>70.115081</ele>
        <time>2023-06-26T08:47:02.231Z</time>
      </trkpt>
      <trkpt lat="51.62057" lon="6.57267">
        <ele>70.049188</ele>
        <time>2023-06-26T08:47:05.248Z</time>
      </trkpt>
      <trkpt lat="51.62059" lon="6.57253">
        <ele>70.004635</ele>
        <time>2023-06-26T08:47:07.238Z</time>
      </trkpt>
      <trkpt lat="51.6206" lon="6.57238">
        <ele>69.960041</ele>
        <time>2023-06-26T08:47:09.224Z</time>
      </trkpt>
      <trkpt lat="51.62062" lon="6.57224">
        <ele>69.915578</ele>
        <time>2023-06-26T08:47:11.250Z</time>
      </trkpt>
      <trkpt lat="51.62064" lon="6.57204">
        <ele>69.853782</ele>
        <time>2023-06-26T08:47:14.244Z</time>
      </trkpt>
      <trkpt lat="51.62065" lon="6.57185">
        <ele>69.796708</ele>
        <time>2023-06-26T08:47:17.251Z</time>
      </trkpt>
      <trkpt lat="51.62067" lon="6.57167">
        <ele>69.741429</ele>
        <time>2023-06-26T08:47:20.250Z</time>
      </trkpt>
      <trkpt lat="51.62069" lon="6.5715">
        <ele>69.688035</ele>
        <time>2023-06-26T08:47:23.231Z</time>
      </trkpt>
      <trkpt lat="51.6207" lon="6.57133">
        <ele>69.634923</ele>
        <time>2023-06-26T08:47:26.236Z</time>
      </trkpt>
      <trkpt lat="51.62071" lon="6.57116">
        <ele>69.570987</ele>
        <time>2023-06-26T08:47:29.242Z</time>
      </trkpt>
      <trkpt lat="51.62073" lon="6.571">
        <ele>69.498841</ele>
        <time>2023-06-26T08:47:32.231Z</time>
      </trkpt>
      <trkpt lat="51.62075" lon="6.57085">
        <ele>69.431056</ele>
        <time>2023-06-26T08:47:35.251Z</time>
      </trkpt>
      <trkpt lat="51.62078" lon="6.57071">
        <ele>69.366011</ele>
        <time>2023-06-26T08:47:38.234Z</time>
      </trkpt>
      <trkpt lat="51.62081" lon="6.57056">
        <ele>69.291109</ele>
        <time>2023-06-26T08:47:42.228Z</time>
      </trkpt>
      <trkpt lat="51.62085" lon="6.57038">
        <ele>69.210301</ele>
        <time>2023-06-26T08:47:47.248Z</time>
      </trkpt>
      <trkpt lat="51.62077" lon="6.57029">
        <ele>69.139131</ele>
        <time>2023-06-26T08:47:50.219Z</time>
      </trkpt>
      <trkpt lat="51.62068" lon="6.57019">
        <ele>69.063478</ele>
        <time>2023-06-26T08:47:53.227Z</time>
      </trkpt>
      <trkpt lat="51.62059" lon="6.57007">
        <ele>68.978621</ele>
        <time>2023-06-26T08:47:56.236Z</time>
      </trkpt>
      <trkpt lat="51.62049" lon="6.56995">
        <ele>68.890514</ele>
        <time>2023-06-26T08:47:59.253Z</time>
      </trkpt>
      <trkpt lat="51.62039" lon="6.56982">
        <ele>68.798864</ele>
        <time>2023-06-26T08:48:02.235Z</time>
      </trkpt>
      <trkpt lat="51.62032" lon="6.56973">
        <ele>68.73332</ele>
        <time>2023-06-26T08:48:04.237Z</time>
      </trkpt>
      <trkpt lat="51.62025" lon="6.56964">
        <ele>68.667225</ele>
        <time>2023-06-26T08:48:06.235Z</time>
      </trkpt>
      <trkpt lat="51.62018" lon="6.56954">
        <ele>68.601107</ele>
        <time>2023-06-26T08:48:08.236Z</time>
      </trkpt>
      <trkpt lat="51.62011" lon="6.56944">
        <ele>68.534171</ele>
        <time>2023-06-26T08:48:10.252Z</time>
      </trkpt>
      <trkpt lat="51.62" lon="6.56932">
        <ele>68.438584</ele>
        <time>2023-06-26T08:48:13.229Z</time>
      </trkpt>
      <trkpt lat="51.6199" lon="6.56917">
        <ele>68.339318</ele>
        <time>2023-06-26T08:48:16.236Z</time>
      </trkpt>
      <trkpt lat="51.61982" lon="6.56907">
        <ele>68.313947</ele>
        <time>2023-06-26T08:48:18.246Z</time>
      </trkpt>
      <trkpt lat="51.61975" lon="6.56898">
        <ele>68.306463</ele>
        <time>2023-06-26T08:48:20.253Z</time>
      </trkpt>
      <trkpt lat="51.61968" lon="6.56888">
        <ele>68.298845</ele>
        <time>2023-06-26T08:48:22.234Z</time>
      </trkpt>
      <trkpt lat="51.6196" lon="6.56879">
        <ele>68.291105</ele>
        <time>2023-06-26T08:48:24.239Z</time>
      </trkpt>
      <trkpt lat="51.61953" lon="6.56869">
        <ele>68.283809</ele>
        <time>2023-06-26T08:48:26.230Z</time>
      </trkpt>
      <trkpt lat="51.61945" lon="6.5686">
        <ele>68.275686</ele>
        <time>2023-06-26T08:48:28.244Z</time>
      </trkpt>
      <trkpt lat="51.61937" lon="6.56852">
        <ele>68.268141</ele>
        <time>2023-06-26T08:48:30.233Z</time>
      </trkpt>
      <trkpt lat="51.61929" lon="6.56841">
        <ele>68.260185</ele>
        <time>2023-06-26T08:48:32.241Z</time>
      </trkpt>
      <trkpt lat="51.61921" lon="6.56832">
        <ele>68.252381</ele>
        <time>2023-06-26T08:48:34.308Z</time>
      </trkpt>
      <trkpt lat="51.61913" lon="6.56822">
        <ele>68.243925</ele>
        <time>2023-06-26T08:48:36.212Z</time>
      </trkpt>
      <trkpt lat="51.61905" lon="6.56811">
        <ele>68.235626</ele>
        <time>2023-06-26T08:48:38.245Z</time>
      </trkpt>
      <trkpt lat="51.61898" lon="6.56801">
        <ele>68.228188</ele>
        <time>2023-06-26T08:48:40.245Z</time>
      </trkpt>
      <trkpt lat="51.61888" lon="6.56788">
        <ele>68.217446</ele>
        <time>2023-06-26T08:48:43.232Z</time>
      </trkpt>
      <trkpt lat="51.6188" lon="6.56778">
        <ele>68.20974</ele>
        <time>2023-06-26T08:48:45.243Z</time>
      </trkpt>
      <trkpt lat="51.6187" lon="6.56765">
        <ele>68.198842</ele>
        <time>2023-06-26T08:48:48.231Z</time>
      </trkpt>
      <trkpt lat="51.61862" lon="6.56756">
        <ele>68.191146</ele>
        <time>2023-06-26T08:48:50.245Z</time>
      </trkpt>
      <trkpt lat="51.61854" lon="6.56746">
        <ele>68.183097</ele>
        <time>2023-06-26T08:48:52.246Z</time>
      </trkpt>
      <trkpt lat="51.61846" lon="6.56736">
        <ele>68.17539</ele>
        <time>2023-06-26T08:48:54.238Z</time>
      </trkpt>
      <trkpt lat="51.6184" lon="6.56726">
        <ele>68.191769</ele>
        <time>2023-06-26T08:48:56.237Z</time>
      </trkpt>
      <trkpt lat="51.61829" lon="6.56713">
        <ele>68.216925</ele>
        <time>2023-06-26T08:48:59.246Z</time>
      </trkpt>
      <trkpt lat="51.61821" lon="6.56704">
        <ele>68.234915</ele>
        <time>2023-06-26T08:49:01.249Z</time>
      </trkpt>
      <trkpt lat="51.61813" lon="6.56693">
        <ele>68.254067</ele>
        <time>2023-06-26T08:49:03.234Z</time>
      </trkpt>
      <trkpt lat="51.61806" lon="6.56684">
        <ele>68.272419</ele>
        <time>2023-06-26T08:49:05.238Z</time>
      </trkpt>
      <trkpt lat="51.61798" lon="6.56674">
        <ele>68.29077</ele>
        <time>2023-06-26T08:49:07.226Z</time>
      </trkpt>
      <trkpt lat="51.6179" lon="6.56663">
        <ele>68.309705</ele>
        <time>2023-06-26T08:49:09.231Z</time>
      </trkpt>
      <trkpt lat="51.61782" lon="6.56654">
        <ele>68.328429</ele>
        <time>2023-06-26T08:49:11.248Z</time>
      </trkpt>
      <trkpt lat="51.61775" lon="6.56644">
        <ele>68.346562</ele>
        <time>2023-06-26T08:49:13.236Z</time>
      </trkpt>
      <trkpt lat="51.61767" lon="6.56633">
        <ele>68.365641</ele>
        <time>2023-06-26T08:49:15.242Z</time>
      </trkpt>
      <trkpt lat="51.61759" lon="6.56623">
        <ele>68.384868</ele>
        <time>2023-06-26T08:49:17.244Z</time>
      </trkpt>
      <trkpt lat="51.61751" lon="6.56613">
        <ele>68.403223</ele>
        <time>2023-06-26T08:49:19.238Z</time>
      </trkpt>
      <trkpt lat="51.61743" lon="6.56602">
        <ele>68.423105</ele>
        <time>2023-06-26T08:49:21.239Z</time>
      </trkpt>
      <trkpt lat="51.61735" lon="6.56592">
        <ele>68.441899</ele>
        <time>2023-06-26T08:49:23.235Z</time>
      </trkpt>
      <trkpt lat="51.61726" lon="6.56583">
        <ele>68.460765</ele>
        <time>2023-06-26T08:49:25.233Z</time>
      </trkpt>
      <trkpt lat="51.61718" lon="6.56571">
        <ele>68.481467</ele>
        <time>2023-06-26T08:49:27.232Z</time>
      </trkpt>
      <trkpt lat="51.61709" lon="6.5656">
        <ele>68.502664</ele>
        <time>2023-06-26T08:49:29.252Z</time>
      </trkpt>
      <trkpt lat="51.61701" lon="6.5655">
        <ele>68.465</ele>
        <time>2023-06-26T08:49:31.231Z</time>
      </trkpt>
      <trkpt lat="51.61693" lon="6.5654">
        <ele>68.378033</ele>
        <time>2023-06-26T08:49:33.224Z</time>
      </trkpt>
      <trkpt lat="51.61686" lon="6.5653">
        <ele>68.299861</ele>
        <time>2023-06-26T08:49:35.251Z</time>
      </trkpt>
      <trkpt lat="51.61679" lon="6.5652">
        <ele>68.222294</ele>
        <time>2023-06-26T08:49:37.244Z</time>
      </trkpt>
      <trkpt lat="51.61672" lon="6.56511">
        <ele>68.146408</ele>
        <time>2023-06-26T08:49:39.247Z</time>
      </trkpt>
      <trkpt lat="51.61662" lon="6.56499">
        <ele>68.046096</ele>
        <time>2023-06-26T08:49:42.246Z</time>
      </trkpt>
      <trkpt lat="51.61653" lon="6.56489">
        <ele>67.954743</ele>
        <time>2023-06-26T08:49:45.252Z</time>
      </trkpt>
      <trkpt lat="51.61645" lon="6.56477">
        <ele>67.861903</ele>
        <time>2023-06-26T08:49:48.254Z</time>
      </trkpt>
      <trkpt lat="51.61637" lon="6.56467">
        <ele>67.776899</ele>
        <time>2023-06-26T08:49:51.238Z</time>
      </trkpt>
      <trkpt lat="51.61629" lon="6.56457">
        <ele>67.694134</ele>
        <time>2023-06-26T08:49:54.239Z</time>
      </trkpt>
      <trkpt lat="51.61621" lon="6.56448">
        <ele>67.60731</ele>
        <time>2023-06-26T08:49:58.236Z</time>
      </trkpt>
      <trkpt lat="51.61611" lon="6.56437">
        <ele>67.511174</ele>
        <time>2023-06-26T08:50:02.239Z</time>
      </trkpt>
      <trkpt lat="51.61604" lon="6.56427">
        <ele>67.433333</ele>
        <time>2023-06-26T08:50:05.242Z</time>
      </trkpt>
      <trkpt lat="51.61596" lon="6.56417">
        <ele>67.346671</ele>
        <time>2023-06-26T08:50:08.237Z</time>
      </trkpt>
      <trkpt lat="51.61589" lon="6.56406">
        <ele>67.260936</ele>
        <time>2023-06-26T08:50:11.239Z</time>
      </trkpt>
      <trkpt lat="51.61579" lon="6.56394">
        <ele>67.1629</ele>
        <time>2023-06-26T08:50:14.243Z</time>
      </trkpt>
      <trkpt lat="51.61571" lon="6.56383">
        <ele>67.072355</ele>
        <time>2023-06-26T08:50:17.245Z</time>
      </trkpt>
      <trkpt lat="51.61564" lon="6.56371">
        <ele>67.010212</ele>
        <time>2023-06-26T08:50:20.236Z</time>
      </trkpt>
      <trkpt lat="51.61555" lon="6.56359">
        <ele>67.023387</ele>
        <time>2023-06-26T08:50:23.238Z</time>
      </trkpt>
      <trkpt lat="51.61547" lon="6.56348">
        <ele>67.036219</ele>
        <time>2023-06-26T08:50:26.235Z</time>
      </trkpt>
      <trkpt lat="51.61538" lon="6.56337">
        <ele>67.049289</ele>
        <time>2023-06-26T08:50:29.238Z</time>
      </trkpt>
      <trkpt lat="51.61528" lon="6.56327">
        <ele>67.063279</ele>
        <time>2023-06-26T08:50:32.236Z</time>
      </trkpt>
      <trkpt lat="51.61519" lon="6.56316">
        <ele>67.07653</ele>
        <time>2023-06-26T08:50:35.250Z</time>
      </trkpt>
      <trkpt lat="51.6151" lon="6.56305">
        <ele>67.089959</ele>
        <time>2023-06-26T08:50:38.245Z</time>
      </trkpt>
      <trkpt lat="51.61502" lon="6.56295">
        <ele>67.101653</ele>
        <time>2023-06-26T08:50:41.235Z</time>
      </trkpt>
      <trkpt lat="51.61494" lon="6.56285">
        <ele>67.11434</ele>
        <time>2023-06-26T08:50:45.234Z</time>
      </trkpt>
      <trkpt lat="51.61485" lon="6.56275">
        <ele>67.126365</ele>
        <time>2023-06-26T08:50:51.237Z</time>
      </trkpt>
      <trkpt lat="51.61482" lon="6.56272">
        <ele>67.130492</ele>
        <time>2023-06-26T08:51:00.265Z</time>
      </trkpt>
      <trkpt lat="51.61474" lon="6.56278">
        <ele>67.141503</ele>
        <time>2023-06-26T08:52:59.237Z</time>
      </trkpt>
      <trkpt lat="51.61465" lon="6.56277">
        <ele>67.152482</ele>
        <time>2023-06-26T08:53:03.227Z</time>
      </trkpt>
      <trkpt lat="51.61456" lon="6.56278">
        <ele>67.163115</ele>
        <time>2023-06-26T08:53:06.224Z</time>
      </trkpt>
      <trkpt lat="51.61445" lon="6.56284">
        <ele>67.176496</ele>
        <time>2023-06-26T08:53:09.234Z</time>
      </trkpt>
      <trkpt lat="51.61432" lon="6.56289">
        <ele>67.191652</ele>
        <time>2023-06-26T08:53:12.219Z</time>
      </trkpt>
      <trkpt lat="51.61419" lon="6.56293">
        <ele>67.20753</ele>
        <time>2023-06-26T08:53:15.230Z</time>
      </trkpt>
      <trkpt lat="51.6141" lon="6.56296">
        <ele>67.218277</ele>
        <time>2023-06-26T08:53:17.235Z</time>
      </trkpt>
      <trkpt lat="51.614" lon="6.56298">
        <ele>67.274453</ele>
        <time>2023-06-26T08:53:19.246Z</time>
      </trkpt>
      <trkpt lat="51.61391" lon="6.563">
        <ele>67.330166</ele>
        <time>2023-06-26T08:53:21.234Z</time>
      </trkpt>
      <trkpt lat="51.61382" lon="6.56303">
        <ele>67.387015</ele>
        <time>2023-06-26T08:53:23.238Z</time>
      </trkpt>
      <trkpt lat="51.61373" lon="6.56307">
        <ele>67.444204</ele>
        <time>2023-06-26T08:53:25.242Z</time>
      </trkpt>
      <trkpt lat="51.61364" lon="6.56312">
        <ele>67.499054</ele>
        <time>2023-06-26T08:53:27.229Z</time>
      </trkpt>
      <trkpt lat="51.61356" lon="6.5632">
        <ele>67.557621</ele>
        <time>2023-06-26T08:53:29.235Z</time>
      </trkpt>
      <trkpt lat="51.61348" lon="6.56331">
        <ele>67.618388</ele>
        <time>2023-06-26T08:53:31.247Z</time>
      </trkpt>
      <trkpt lat="51.6134" lon="6.56341">
        <ele>67.679181</ele>
        <time>2023-06-26T08:53:33.230Z</time>
      </trkpt>
      <trkpt lat="51.61332" lon="6.56352">
        <ele>67.743708</ele>
        <time>2023-06-26T08:53:35.250Z</time>
      </trkpt>
      <trkpt lat="51.61324" lon="6.56363">
        <ele>67.808226</ele>
        <time>2023-06-26T08:53:37.237Z</time>
      </trkpt>
      <trkpt lat="51.61315" lon="6.56374">
        <ele>67.873905</ele>
        <time>2023-06-26T08:53:39.248Z</time>
      </trkpt>
      <trkpt lat="51.61306" lon="6.56385">
        <ele>67.939602</ele>
        <time>2023-06-26T08:53:41.246Z</time>
      </trkpt>
      <trkpt lat="51.61298" lon="6.56396">
        <ele>68.004161</ele>
        <time>2023-06-26T08:53:43.219Z</time>
      </trkpt>
      <trkpt lat="51.61289" lon="6.56407">
        <ele>68.073582</ele>
        <time>2023-06-26T08:53:45.247Z</time>
      </trkpt>
      <trkpt lat="51.6128" lon="6.56419">
        <ele>68.141605</ele>
        <time>2023-06-26T08:53:47.207Z</time>
      </trkpt>
      <trkpt lat="51.61271" lon="6.56431">
        <ele>68.21243</ele>
        <time>2023-06-26T08:53:49.243Z</time>
      </trkpt>
      <trkpt lat="51.61263" lon="6.56443">
        <ele>68.278735</ele>
        <time>2023-06-26T08:53:51.241Z</time>
      </trkpt>
      <trkpt lat="51.61254" lon="6.56454">
        <ele>68.2919</ele>
        <time>2023-06-26T08:53:53.240Z</time>
      </trkpt>
      <trkpt lat="51.61245" lon="6.56464">
        <ele>68.282417</ele>
        <time>2023-06-26T08:53:55.249Z</time>
      </trkpt>
      <trkpt lat="51.61236" lon="6.56477">
        <ele>68.272935</ele>
        <time>2023-06-26T08:53:57.242Z</time>
      </trkpt>
      <trkpt lat="51.61228" lon="6.56488">
        <ele>68.263458</ele>
        <time>2023-06-26T08:53:59.232Z</time>
      </trkpt>
      <trkpt lat="51.61219" lon="6.56499">
        <ele>68.25417</ele>
        <time>2023-06-26T08:54:01.247Z</time>
      </trkpt>
      <trkpt lat="51.6121" lon="6.56511">
        <ele>68.244856</ele>
        <time>2023-06-26T08:54:03.242Z</time>
      </trkpt>
      <trkpt lat="51.61201" lon="6.56521">
        <ele>68.235762</ele>
        <time>2023-06-26T08:54:05.235Z</time>
      </trkpt>
      <trkpt lat="51.61191" lon="6.5653">
        <ele>68.226347</ele>
        <time>2023-06-26T08:54:07.240Z</time>
      </trkpt>
      <trkpt lat="51.61181" lon="6.56536">
        <ele>68.217394</ele>
        <time>2023-06-26T08:54:09.231Z</time>
      </trkpt>
      <trkpt lat="51.61171" lon="6.56543">
        <ele>68.208228</ele>
        <time>2023-06-26T08:54:11.230Z</time>
      </trkpt>
      <trkpt lat="51.61161" lon="6.56549">
        <ele>68.198906</ele>
        <time>2023-06-26T08:54:13.232Z</time>
      </trkpt>
      <trkpt lat="51.6115" lon="6.56556">
        <ele>68.189625</ele>
        <time>2023-06-26T08:54:15.252Z</time>
      </trkpt>
      <trkpt lat="51.6114" lon="6.56562">
        <ele>68.180357</ele>
        <time>2023-06-26T08:54:17.243Z</time>
      </trkpt>
      <trkpt lat="51.61129" lon="6.56569">
        <ele>68.170749</ele>
        <time>2023-06-26T08:54:19.247Z</time>
      </trkpt>
      <trkpt lat="51.61119" lon="6.56576">
        <ele>68.161654</ele>
        <time>2023-06-26T08:54:21.251Z</time>
      </trkpt>
      <trkpt lat="51.61108" lon="6.56583">
        <ele>68.152332</ele>
        <time>2023-06-26T08:54:23.245Z</time>
      </trkpt>
      <trkpt lat="51.61098" lon="6.56589">
        <ele>68.131804</ele>
        <time>2023-06-26T08:54:25.246Z</time>
      </trkpt>
      <trkpt lat="51.61088" lon="6.56595">
        <ele>68.104673</ele>
        <time>2023-06-26T08:54:27.234Z</time>
      </trkpt>
      <trkpt lat="51.61078" lon="6.56602">
        <ele>68.07691</ele>
        <time>2023-06-26T08:54:29.248Z</time>
      </trkpt>
      <trkpt lat="51.61069" lon="6.56608">
        <ele>68.050772</ele>
        <time>2023-06-26T08:54:31.240Z</time>
      </trkpt>
      <trkpt lat="51.61058" lon="6.56615">
        <ele>68.023182</ele>
        <time>2023-06-26T08:54:33.233Z</time>
      </trkpt>
      <trkpt lat="51.61048" lon="6.56622">
        <ele>67.995536</ele>
        <time>2023-06-26T08:54:35.253Z</time>
      </trkpt>
      <trkpt lat="51.61038" lon="6.56628">
        <ele>67.968458</ele>
        <time>2023-06-26T08:54:37.243Z</time>
      </trkpt>
      <trkpt lat="51.61028" lon="6.56634">
        <ele>67.941161</ele>
        <time>2023-06-26T08:54:39.233Z</time>
      </trkpt>
      <trkpt lat="51.61018" lon="6.5664">
        <ele>67.914211</ele>
        <time>2023-06-26T08:54:41.240Z</time>
      </trkpt>
      <trkpt lat="51.61008" lon="6.56646">
        <ele>67.886842</ele>
        <time>2023-06-26T08:54:43.257Z</time>
      </trkpt>
      <trkpt lat="51.60997" lon="6.56653">
        <ele>67.857785</ele>
        <time>2023-06-26T08:54:45.231Z</time>
      </trkpt>
      <trkpt lat="51.60987" lon="6.5666">
        <ele>67.829779</ele>
        <time>2023-06-26T08:54:47.234Z</time>
      </trkpt>
      <trkpt lat="51.60977" lon="6.56667">
        <ele>67.801957</ele>
        <time>2023-06-26T08:54:49.216Z</time>
      </trkpt>
      <trkpt lat="51.60967" lon="6.56674">
        <ele>67.774538</ele>
        <time>2023-06-26T08:54:51.234Z</time>
      </trkpt>
      <trkpt lat="51.60957" lon="6.5668">
        <ele>67.747417</ele>
        <time>2023-06-26T08:54:53.239Z</time>
      </trkpt>
      <trkpt lat="51.60947" lon="6.56686">
        <ele>67.721104</ele>
        <time>2023-06-26T08:54:55.234Z</time>
      </trkpt>
      <trkpt lat="51.60937" lon="6.56693">
        <ele>67.693404</ele>
        <time>2023-06-26T08:54:57.243Z</time>
      </trkpt>
      <trkpt lat="51.60927" lon="6.56699">
        <ele>67.659594</ele>
        <time>2023-06-26T08:54:59.241Z</time>
      </trkpt>
      <trkpt lat="51.60918" lon="6.56705">
        <ele>67.626316</ele>
        <time>2023-06-26T08:55:01.242Z</time>
      </trkpt>
      <trkpt lat="51.60908" lon="6.56711">
        <ele>67.593038</ele>
        <time>2023-06-26T08:55:03.229Z</time>
      </trkpt>
      <trkpt lat="51.60899" lon="6.56717">
        <ele>67.558852</ele>
        <time>2023-06-26T08:55:05.236Z</time>
      </trkpt>
      <trkpt lat="51.60889" lon="6.56723">
        <ele>67.525391</ele>
        <time>2023-06-26T08:55:07.244Z</time>
      </trkpt>
      <trkpt lat="51.60879" lon="6.56728">
        <ele>67.492677</ele>
        <time>2023-06-26T08:55:09.241Z</time>
      </trkpt>
      <trkpt lat="51.6087" lon="6.56735">
        <ele>67.460203</ele>
        <time>2023-06-26T08:55:11.249Z</time>
      </trkpt>
      <trkpt lat="51.60861" lon="6.5674">
        <ele>67.427825</ele>
        <time>2023-06-26T08:55:13.230Z</time>
      </trkpt>
      <trkpt lat="51.60852" lon="6.56746">
        <ele>67.396809</ele>
        <time>2023-06-26T08:55:15.223Z</time>
      </trkpt>
      <trkpt lat="51.6084" lon="6.56754">
        <ele>67.353262</ele>
        <time>2023-06-26T08:55:18.224Z</time>
      </trkpt>
      <trkpt lat="51.60827" lon="6.56762">
        <ele>67.309568</ele>
        <time>2023-06-26T08:55:21.246Z</time>
      </trkpt>
      <trkpt lat="51.60819" lon="6.56768">
        <ele>67.279685</ele>
        <time>2023-06-26T08:55:23.236Z</time>
      </trkpt>
      <trkpt lat="51.60807" lon="6.56776">
        <ele>67.236433</ele>
        <time>2023-06-26T08:55:26.225Z</time>
      </trkpt>
      <trkpt lat="51.60798" lon="6.56782">
        <ele>67.206626</ele>
        <time>2023-06-26T08:55:28.230Z</time>
      </trkpt>
      <trkpt lat="51.60786" lon="6.56789">
        <ele>67.165709</ele>
        <time>2023-06-26T08:55:31.259Z</time>
      </trkpt>
      <trkpt lat="51.60776" lon="6.56797">
        <ele>67.127323</ele>
        <time>2023-06-26T08:55:34.248Z</time>
      </trkpt>
      <trkpt lat="51.60765" lon="6.56805">
        <ele>67.083395</ele>
        <time>2023-06-26T08:55:37.243Z</time>
      </trkpt>
      <trkpt lat="51.60754" lon="6.56811">
        <ele>67.039847</ele>
        <time>2023-06-26T08:55:40.224Z</time>
      </trkpt>
      <trkpt lat="51.60746" lon="6.5682">
        <ele>67.00178</ele>
        <time>2023-06-26T08:55:43.232Z</time>
      </trkpt>
      <trkpt lat="51.60747" lon="6.56835">
        <ele>66.965564</ele>
        <time>2023-06-26T08:55:46.236Z</time>
      </trkpt>
      <trkpt lat="51.60755" lon="6.5685">
        <ele>66.917769</ele>
        <time>2023-06-26T08:55:49.235Z</time>
      </trkpt>
      <trkpt lat="51.60762" lon="6.56866">
        <ele>66.871512</ele>
        <time>2023-06-26T08:55:52.232Z</time>
      </trkpt>
      <trkpt lat="51.6077" lon="6.56882">
        <ele>66.822797</ele>
        <time>2023-06-26T08:55:55.241Z</time>
      </trkpt>
      <trkpt lat="51.60777" lon="6.56899">
        <ele>66.772932</ele>
        <time>2023-06-26T08:55:58.256Z</time>
      </trkpt>
      <trkpt lat="51.60783" lon="6.5691">
        <ele>66.737784</ele>
        <time>2023-06-26T08:56:00.224Z</time>
      </trkpt>
      <trkpt lat="51.60791" lon="6.56927">
        <ele>66.686068</ele>
        <time>2023-06-26T08:56:03.237Z</time>
      </trkpt>
      <trkpt lat="51.60798" lon="6.56944">
        <ele>66.637419</ele>
        <time>2023-06-26T08:56:06.235Z</time>
      </trkpt>
      <trkpt lat="51.60805" lon="6.56959">
        <ele>66.591813</ele>
        <time>2023-06-26T08:56:09.240Z</time>
      </trkpt>
      <trkpt lat="51.60812" lon="6.56975">
        <ele>66.545288</ele>
        <time>2023-06-26T08:56:12.230Z</time>
      </trkpt>
      <trkpt lat="51.60819" lon="6.56992">
        <ele>66.494698</ele>
        <time>2023-06-26T08:56:15.254Z</time>
      </trkpt>
      <trkpt lat="51.60827" lon="6.57009">
        <ele>66.444448</ele>
        <time>2023-06-26T08:56:18.221Z</time>
      </trkpt>
      <trkpt lat="51.60834" lon="6.57027">
        <ele>66.394445</ele>
        <time>2023-06-26T08:56:21.231Z</time>
      </trkpt>
      <trkpt lat="51.60841" lon="6.57043">
        <ele>66.349203</ele>
        <time>2023-06-26T08:56:24.228Z</time>
      </trkpt>
      <trkpt lat="51.60848" lon="6.57059">
        <ele>66.303102</ele>
        <time>2023-06-26T08:56:27.229Z</time>
      </trkpt>
      <trkpt lat="51.60856" lon="6.57077">
        <ele>66.253772</ele>
        <time>2023-06-26T08:56:30.243Z</time>
      </trkpt>
      <trkpt lat="51.60863" lon="6.57094">
        <ele>66.205617</ele>
        <time>2023-06-26T08:56:33.231Z</time>
      </trkpt>
      <trkpt lat="51.60871" lon="6.57111">
        <ele>66.155803</ele>
        <time>2023-06-26T08:56:36.225Z</time>
      </trkpt>
      <trkpt lat="51.60877" lon="6.57123">
        <ele>66.121894</ele>
        <time>2023-06-26T08:56:38.222Z</time>
      </trkpt>
      <trkpt lat="51.60884" lon="6.57139">
        <ele>66.076484</ele>
        <time>2023-06-26T08:56:41.206Z</time>
      </trkpt>
      <trkpt lat="51.60891" lon="6.57156">
        <ele>66.02971</ele>
        <time>2023-06-26T08:56:44.225Z</time>
      </trkpt>
      <trkpt lat="51.60898" lon="6.57174">
        <ele>65.982174</ele>
        <time>2023-06-26T08:56:47.231Z</time>
      </trkpt>
      <trkpt lat="51.60908" lon="6.57187">
        <ele>65.934877</ele>
        <time>2023-06-26T08:56:50.233Z</time>
      </trkpt>
      <trkpt lat="51.60915" lon="6.57196">
        <ele>65.900208</ele>
        <time>2023-06-26T08:56:52.214Z</time>
      </trkpt>
      <trkpt lat="51.60922" lon="6.57206">
        <ele>65.866826</ele>
        <time>2023-06-26T08:56:54.234Z</time>
      </trkpt>
      <trkpt lat="51.60933" lon="6.57218">
        <ele>65.818391</ele>
        <time>2023-06-26T08:56:57.223Z</time>
      </trkpt>
      <trkpt lat="51.60941" lon="6.57225">
        <ele>65.784221</ele>
        <time>2023-06-26T08:56:59.235Z</time>
      </trkpt>
      <trkpt lat="51.60952" lon="6.57236">
        <ele>65.818443</ele>
        <time>2023-06-26T08:57:02.228Z</time>
      </trkpt>
      <trkpt lat="51.60963" lon="6.57246">
        <ele>66.103887</ele>
        <time>2023-06-26T08:57:05.220Z</time>
      </trkpt>
      <trkpt lat="51.60973" lon="6.57258">
        <ele>66.377246</ele>
        <time>2023-06-26T08:57:08.226Z</time>
      </trkpt>
      <trkpt lat="51.60984" lon="6.57269">
        <ele>66.675427</ele>
        <time>2023-06-26T08:57:11.228Z</time>
      </trkpt>
      <trkpt lat="51.60995" lon="6.5728">
        <ele>66.960871</ele>
        <time>2023-06-26T08:57:14.259Z</time>
      </trkpt>
      <trkpt lat="51.61006" lon="6.5729">
        <ele>67.246675</ele>
        <time>2023-06-26T08:57:17.248Z</time>
      </trkpt>
      <trkpt lat="51.61016" lon="6.573">
        <ele>67.509819</ele>
        <time>2023-06-26T08:57:20.226Z</time>
      </trkpt>
      <trkpt lat="51.61024" lon="6.5731">
        <ele>67.742093</ele>
        <time>2023-06-26T08:57:23.227Z</time>
      </trkpt>
      <trkpt lat="51.61032" lon="6.57324">
        <ele>68.000319</ele>
        <time>2023-06-26T08:57:27.221Z</time>
      </trkpt>
      <trkpt lat="51.61035" lon="6.57337">
        <ele>68.203302</ele>
        <time>2023-06-26T08:57:31.232Z</time>
      </trkpt>
      <trkpt lat="51.61032" lon="6.57355">
        <ele>68.451924</ele>
        <time>2023-06-26T08:57:36.231Z</time>
      </trkpt>
      <trkpt lat="51.61026" lon="6.57368">
        <ele>68.687102</ele>
        <time>2023-06-26T08:57:41.312Z</time>
      </trkpt>
      <trkpt lat="51.61017" lon="6.57374">
        <ele>68.889007</ele>
        <time>2023-06-26T08:57:44.232Z</time>
      </trkpt>
      <trkpt lat="51.61008" lon="6.57377">
        <ele>69.101625</ele>
        <time>2023-06-26T08:57:47.233Z</time>
      </trkpt>
      <trkpt lat="51.60998" lon="6.57378">
        <ele>69.326638</ele>
        <time>2023-06-26T08:57:50.227Z</time>
      </trkpt>
      <trkpt lat="51.60987" lon="6.57376">
        <ele>69.567952</ele>
        <time>2023-06-26T08:57:53.218Z</time>
      </trkpt>
      <trkpt lat="51.60977" lon="6.57374">
        <ele>69.779555</ele>
        <time>2023-06-26T08:57:56.224Z</time>
      </trkpt>
      <trkpt lat="51.60967" lon="6.57372">
        <ele>69.780914</ele>
        <time>2023-06-26T08:57:59.236Z</time>
      </trkpt>
      <trkpt lat="51.60958" lon="6.5737">
        <ele>69.782185</ele>
        <time>2023-06-26T08:58:02.233Z</time>
      </trkpt>
      <trkpt lat="51.60947" lon="6.57366">
        <ele>69.783774</ele>
        <time>2023-06-26T08:58:06.226Z</time>
      </trkpt>
      <trkpt lat="51.60936" lon="6.57362">
        <ele>69.785183</ele>
        <time>2023-06-26T08:58:11.233Z</time>
      </trkpt>
      <trkpt lat="51.60946" lon="6.57364">
        <ele>69.78645</ele>
        <time>2023-06-26T08:59:03.220Z</time>
      </trkpt>
      <trkpt lat="51.60955" lon="6.57368">
        <ele>69.787767</ele>
        <time>2023-06-26T08:59:06.231Z</time>
      </trkpt>
      <trkpt lat="51.60966" lon="6.57371">
        <ele>69.789258</ele>
        <time>2023-06-26T08:59:09.225Z</time>
      </trkpt>
      <trkpt lat="51.60977" lon="6.57374">
        <ele>69.79082</ele>
        <time>2023-06-26T08:59:12.223Z</time>
      </trkpt>
      <trkpt lat="51.60988" lon="6.57377">
        <ele>69.792333</ele>
        <time>2023-06-26T08:59:15.240Z</time>
      </trkpt>
      <trkpt lat="51.60999" lon="6.57377">
        <ele>69.793835</ele>
        <time>2023-06-26T08:59:18.239Z</time>
      </trkpt>
      <trkpt lat="51.6101" lon="6.57376">
        <ele>69.795231</ele>
        <time>2023-06-26T08:59:21.231Z</time>
      </trkpt>
      <trkpt lat="51.6102" lon="6.57372">
        <ele>69.796646</ele>
        <time>2023-06-26T08:59:24.223Z</time>
      </trkpt>
      <trkpt lat="51.61028" lon="6.57363">
        <ele>69.797966</ele>
        <time>2023-06-26T08:59:27.224Z</time>
      </trkpt>
      <trkpt lat="51.61034" lon="6.5735">
        <ele>69.799323</ele>
        <time>2023-06-26T08:59:30.230Z</time>
      </trkpt>
      <trkpt lat="51.61034" lon="6.57328">
        <ele>69.801131</ele>
        <time>2023-06-26T08:59:33.229Z</time>
      </trkpt>
      <trkpt lat="51.61027" lon="6.57311">
        <ele>69.802902</ele>
        <time>2023-06-26T08:59:35.211Z</time>
      </trkpt>
      <trkpt lat="51.61016" lon="6.57296">
        <ele>69.79747</ele>
        <time>2023-06-26T08:59:37.226Z</time>
      </trkpt>
      <trkpt lat="51.61004" lon="6.57284">
        <ele>69.785237</ele>
        <time>2023-06-26T08:59:39.224Z</time>
      </trkpt>
      <trkpt lat="51.60992" lon="6.57272">
        <ele>69.773981</ele>
        <time>2023-06-26T08:59:41.218Z</time>
      </trkpt>
      <trkpt lat="51.60981" lon="6.57262">
        <ele>69.763014</ele>
        <time>2023-06-26T08:59:43.224Z</time>
      </trkpt>
      <trkpt lat="51.60971" lon="6.57251">
        <ele>69.752947</ele>
        <time>2023-06-26T08:59:45.233Z</time>
      </trkpt>
      <trkpt lat="51.60961" lon="6.57242">
        <ele>69.743359</ele>
        <time>2023-06-26T08:59:47.241Z</time>
      </trkpt>
      <trkpt lat="51.60952" lon="6.57232">
        <ele>69.733717</ele>
        <time>2023-06-26T08:59:49.246Z</time>
      </trkpt>
      <trkpt lat="51.60942" lon="6.57222">
        <ele>69.724018</ele>
        <time>2023-06-26T08:59:51.245Z</time>
      </trkpt>
      <trkpt lat="51.60933" lon="6.57213">
        <ele>69.714934</ele>
        <time>2023-06-26T08:59:53.233Z</time>
      </trkpt>
      <trkpt lat="51.60924" lon="6.57203">
        <ele>69.705697</ele>
        <time>2023-06-26T08:59:55.243Z</time>
      </trkpt>
      <trkpt lat="51.60914" lon="6.57191">
        <ele>69.695756</ele>
        <time>2023-06-26T08:59:57.235Z</time>
      </trkpt>
      <trkpt lat="51.60905" lon="6.57179">
        <ele>69.685811</ele>
        <time>2023-06-26T08:59:59.257Z</time>
      </trkpt>
      <trkpt lat="51.60898" lon="6.57165">
        <ele>69.676204</ele>
        <time>2023-06-26T09:00:01.250Z</time>
      </trkpt>
      <trkpt lat="51.60891" lon="6.57151">
        <ele>69.666864</ele>
        <time>2023-06-26T09:00:03.229Z</time>
      </trkpt>
      <trkpt lat="51.60886" lon="6.57136">
        <ele>69.657932</ele>
        <time>2023-06-26T09:00:05.233Z</time>
      </trkpt>
      <trkpt lat="51.6088" lon="6.57123">
        <ele>69.665107</ele>
        <time>2023-06-26T09:00:07.233Z</time>
      </trkpt>
      <trkpt lat="51.60873" lon="6.57109">
        <ele>69.703559</ele>
        <time>2023-06-26T09:00:09.244Z</time>
      </trkpt>
      <trkpt lat="51.60867" lon="6.57095">
        <ele>69.741473</ele>
        <time>2023-06-26T09:00:11.248Z</time>
      </trkpt>
      <trkpt lat="51.60861" lon="6.57082">
        <ele>69.77778</ele>
        <time>2023-06-26T09:00:13.248Z</time>
      </trkpt>
      <trkpt lat="51.60855" lon="6.57068">
        <ele>69.813925</ele>
        <time>2023-06-26T09:00:15.230Z</time>
      </trkpt>
      <trkpt lat="51.6085" lon="6.57055">
        <ele>69.849295</ele>
        <time>2023-06-26T09:00:17.237Z</time>
      </trkpt>
      <trkpt lat="51.60844" lon="6.57043">
        <ele>69.883216</ele>
        <time>2023-06-26T09:00:19.233Z</time>
      </trkpt>
      <trkpt lat="51.60839" lon="6.5703">
        <ele>69.918185</ele>
        <time>2023-06-26T09:00:21.249Z</time>
      </trkpt>
      <trkpt lat="51.60833" lon="6.57017">
        <ele>69.952439</ele>
        <time>2023-06-26T09:00:23.227Z</time>
      </trkpt>
      <trkpt lat="51.60828" lon="6.57004">
        <ele>69.987966</ele>
        <time>2023-06-26T09:00:25.229Z</time>
      </trkpt>
      <trkpt lat="51.60822" lon="6.5699">
        <ele>70.025702</ele>
        <time>2023-06-26T09:00:27.228Z</time>
      </trkpt>
      <trkpt lat="51.60816" lon="6.56977">
        <ele>70.06146</ele>
        <time>2023-06-26T09:00:29.244Z</time>
      </trkpt>
      <trkpt lat="51.6081" lon="6.56964">
        <ele>70.097305</ele>
        <time>2023-06-26T09:00:31.263Z</time>
      </trkpt>
      <trkpt lat="51.60804" lon="6.56951">
        <ele>70.134903</ele>
        <time>2023-06-26T09:00:33.229Z</time>
      </trkpt>
      <trkpt lat="51.60798" lon="6.56937">
        <ele>70.171185</ele>
        <time>2023-06-26T09:00:35.258Z</time>
      </trkpt>
      <trkpt lat="51.60791" lon="6.56923">
        <ele>70.211169</ele>
        <time>2023-06-26T09:00:37.234Z</time>
      </trkpt>
      <trkpt lat="51.60785" lon="6.56909">
        <ele>70.250656</ele>
        <time>2023-06-26T09:00:39.234Z</time>
      </trkpt>
      <trkpt lat="51.60779" lon="6.56895">
        <ele>70.287166</ele>
        <time>2023-06-26T09:00:41.245Z</time>
      </trkpt>
      <trkpt lat="51.60773" lon="6.56882">
        <ele>70.26528</ele>
        <time>2023-06-26T09:00:43.242Z</time>
      </trkpt>
      <trkpt lat="51.60767" lon="6.5687">
        <ele>70.223674</ele>
        <time>2023-06-26T09:00:45.250Z</time>
      </trkpt>
      <trkpt lat="51.60761" lon="6.56858">
        <ele>70.184622</ele>
        <time>2023-06-26T09:00:47.231Z</time>
      </trkpt>
      <trkpt lat="51.60756" lon="6.56846">
        <ele>70.145513</ele>
        <time>2023-06-26T09:00:49.226Z</time>
      </trkpt>
      <trkpt lat="51.6075" lon="6.56834">
        <ele>70.105724</ele>
        <time>2023-06-26T09:00:51.235Z</time>
      </trkpt>
      <trkpt lat="51.60742" lon="6.56818">
        <ele>70.051917</ele>
        <time>2023-06-26T09:00:54.203Z</time>
      </trkpt>
      <trkpt lat="51.60733" lon="6.56804">
        <ele>69.999198</ele>
        <time>2023-06-26T09:00:57.232Z</time>
      </trkpt>
      <trkpt lat="51.60726" lon="6.56795">
        <ele>69.960879</ele>
        <time>2023-06-26T09:00:59.235Z</time>
      </trkpt>
      <trkpt lat="51.60719" lon="6.56785">
        <ele>69.922252</ele>
        <time>2023-06-26T09:01:01.228Z</time>
      </trkpt>
      <trkpt lat="51.60712" lon="6.56774">
        <ele>69.881269</ele>
        <time>2023-06-26T09:01:03.218Z</time>
      </trkpt>
      <trkpt lat="51.60705" lon="6.56764">
        <ele>69.842516</ele>
        <time>2023-06-26T09:01:05.230Z</time>
      </trkpt>
      <trkpt lat="51.60698" lon="6.56753">
        <ele>69.80096</ele>
        <time>2023-06-26T09:01:07.214Z</time>
      </trkpt>
      <trkpt lat="51.60691" lon="6.56743">
        <ele>69.760168</ele>
        <time>2023-06-26T09:01:09.214Z</time>
      </trkpt>
      <trkpt lat="51.60684" lon="6.56733">
        <ele>69.721961</ele>
        <time>2023-06-26T09:01:11.237Z</time>
      </trkpt>
      <trkpt lat="51.60675" lon="6.56718">
        <ele>69.665804</ele>
        <time>2023-06-26T09:01:14.247Z</time>
      </trkpt>
      <trkpt lat="51.60668" lon="6.56708">
        <ele>69.625717</ele>
        <time>2023-06-26T09:01:16.252Z</time>
      </trkpt>
      <trkpt lat="51.60658" lon="6.56694">
        <ele>69.572316</ele>
        <time>2023-06-26T09:01:19.249Z</time>
      </trkpt>
      <trkpt lat="51.60649" lon="6.56679">
        <ele>69.521941</ele>
        <time>2023-06-26T09:01:22.233Z</time>
      </trkpt>
      <trkpt lat="51.60639" lon="6.56665">
        <ele>69.481163</ele>
        <time>2023-06-26T09:01:25.248Z</time>
      </trkpt>
      <trkpt lat="51.60629" lon="6.5665">
        <ele>69.440545</ele>
        <time>2023-06-26T09:01:28.250Z</time>
      </trkpt>
      <trkpt lat="51.60622" lon="6.5664">
        <ele>69.412443</ele>
        <time>2023-06-26T09:01:30.233Z</time>
      </trkpt>
      <trkpt lat="51.60615" lon="6.56629">
        <ele>69.383613</ele>
        <time>2023-06-26T09:01:32.229Z</time>
      </trkpt>
      <trkpt lat="51.60608" lon="6.56619">
        <ele>69.355861</ele>
        <time>2023-06-26T09:01:34.235Z</time>
      </trkpt>
      <trkpt lat="51.60598" lon="6.56605">
        <ele>69.315781</ele>
        <time>2023-06-26T09:01:37.221Z</time>
      </trkpt>
      <trkpt lat="51.60592" lon="6.56595">
        <ele>69.288082</ele>
        <time>2023-06-26T09:01:39.219Z</time>
      </trkpt>
      <trkpt lat="51.60585" lon="6.56585">
        <ele>69.260724</ele>
        <time>2023-06-26T09:01:41.231Z</time>
      </trkpt>
      <trkpt lat="51.60578" lon="6.56575">
        <ele>69.233322</ele>
        <time>2023-06-26T09:01:43.233Z</time>
      </trkpt>
      <trkpt lat="51.60571" lon="6.56565">
        <ele>69.206068</ele>
        <time>2023-06-26T09:01:45.225Z</time>
      </trkpt>
      <trkpt lat="51.60564" lon="6.56555">
        <ele>69.17711</ele>
        <time>2023-06-26T09:01:47.237Z</time>
      </trkpt>
      <trkpt lat="51.60557" lon="6.56545">
        <ele>69.148785</ele>
        <time>2023-06-26T09:01:49.254Z</time>
      </trkpt>
      <trkpt lat="51.60547" lon="6.5653">
        <ele>69.107881</ele>
        <time>2023-06-26T09:01:52.231Z</time>
      </trkpt>
      <trkpt lat="51.6054" lon="6.56521">
        <ele>69.080299</ele>
        <time>2023-06-26T09:01:54.237Z</time>
      </trkpt>
      <trkpt lat="51.60529" lon="6.56511">
        <ele>69.040823</ele>
        <time>2023-06-26T09:01:57.243Z</time>
      </trkpt>
      <trkpt lat="51.6052" lon="6.56507">
        <ele>69.012335</ele>
        <time>2023-06-26T09:01:59.228Z</time>
      </trkpt>
      <trkpt lat="51.6051" lon="6.56506">
        <ele>68.952723</ele>
        <time>2023-06-26T09:02:01.247Z</time>
      </trkpt>
      <trkpt lat="51.605" lon="6.56511">
        <ele>68.850999</ele>
        <time>2023-06-26T09:02:03.227Z</time>
      </trkpt>
      <trkpt lat="51.60492" lon="6.56517">
        <ele>68.757738</ele>
        <time>2023-06-26T09:02:05.244Z</time>
      </trkpt>
      <trkpt lat="51.60482" lon="6.5653">
        <ele>68.619272</ele>
        <time>2023-06-26T09:02:08.236Z</time>
      </trkpt>
      <trkpt lat="51.60472" lon="6.56545">
        <ele>68.48343</ele>
        <time>2023-06-26T09:02:11.234Z</time>
      </trkpt>
      <trkpt lat="51.60464" lon="6.56558">
        <ele>68.365048</ele>
        <time>2023-06-26T09:02:14.238Z</time>
      </trkpt>
      <trkpt lat="51.60458" lon="6.56569">
        <ele>68.267679</ele>
        <time>2023-06-26T09:02:17.234Z</time>
      </trkpt>
      <trkpt lat="51.60462" lon="6.56556">
        <ele>68.173488</ele>
        <time>2023-06-26T09:03:20.223Z</time>
      </trkpt>
      <trkpt lat="51.60455" lon="6.56545">
        <ele>68.069172</ele>
        <time>2023-06-26T09:03:23.238Z</time>
      </trkpt>
      <trkpt lat="51.60446" lon="6.56535">
        <ele>67.955779</ele>
        <time>2023-06-26T09:03:26.250Z</time>
      </trkpt>
      <trkpt lat="51.60436" lon="6.56522">
        <ele>67.825435</ele>
        <time>2023-06-26T09:03:29.238Z</time>
      </trkpt>
      <trkpt lat="51.60427" lon="6.56508">
        <ele>67.697377</ele>
        <time>2023-06-26T09:03:32.245Z</time>
      </trkpt>
      <trkpt lat="51.60418" lon="6.56494">
        <ele>67.561794</ele>
        <time>2023-06-26T09:03:35.231Z</time>
      </trkpt>
      <trkpt lat="51.60407" lon="6.56479">
        <ele>67.42097</ele>
        <time>2023-06-26T09:03:38.253Z</time>
      </trkpt>
      <trkpt lat="51.60398" lon="6.56464">
        <ele>67.279044</ele>
        <time>2023-06-26T09:03:41.247Z</time>
      </trkpt>
      <trkpt lat="51.60388" lon="6.5645">
        <ele>67.144116</ele>
        <time>2023-06-26T09:03:44.233Z</time>
      </trkpt>
      <trkpt lat="51.60379" lon="6.56435">
        <ele>67.092508</ele>
        <time>2023-06-26T09:03:47.237Z</time>
      </trkpt>
      <trkpt lat="51.60372" lon="6.56425">
        <ele>67.06298</ele>
        <time>2023-06-26T09:03:49.219Z</time>
      </trkpt>
      <trkpt lat="51.60365" lon="6.56414">
        <ele>67.03255</ele>
        <time>2023-06-26T09:03:51.219Z</time>
      </trkpt>
      <trkpt lat="51.60359" lon="6.56405">
        <ele>67.003763</ele>
        <time>2023-06-26T09:03:53.229Z</time>
      </trkpt>
      <trkpt lat="51.60349" lon="6.5639">
        <ele>66.961573</ele>
        <time>2023-06-26T09:03:56.239Z</time>
      </trkpt>
      <trkpt lat="51.60342" lon="6.5638">
        <ele>66.932385</ele>
        <time>2023-06-26T09:03:58.233Z</time>
      </trkpt>
      <trkpt lat="51.60336" lon="6.5637">
        <ele>66.903096</ele>
        <time>2023-06-26T09:04:00.232Z</time>
      </trkpt>
      <trkpt lat="51.60329" lon="6.56361">
        <ele>66.874441</ele>
        <time>2023-06-26T09:04:02.234Z</time>
      </trkpt>
      <trkpt lat="51.60322" lon="6.56352">
        <ele>66.845694</ele>
        <time>2023-06-26T09:04:04.239Z</time>
      </trkpt>
      <trkpt lat="51.60314" lon="6.56343">
        <ele>66.816302</ele>
        <time>2023-06-26T09:04:06.236Z</time>
      </trkpt>
      <trkpt lat="51.60306" lon="6.56334">
        <ele>66.785144</ele>
        <time>2023-06-26T09:04:08.253Z</time>
      </trkpt>
      <trkpt lat="51.60298" lon="6.56326">
        <ele>66.754065</ele>
        <time>2023-06-26T09:04:10.232Z</time>
      </trkpt>
      <trkpt lat="51.60289" lon="6.5632">
        <ele>66.721967</ele>
        <time>2023-06-26T09:04:12.235Z</time>
      </trkpt>
      <trkpt lat="51.6028" lon="6.56315">
        <ele>66.69155</ele>
        <time>2023-06-26T09:04:14.239Z</time>
      </trkpt>
      <trkpt lat="51.6027" lon="6.5631">
        <ele>66.660287</ele>
        <time>2023-06-26T09:04:16.248Z</time>
      </trkpt>
      <trkpt lat="51.60261" lon="6.56305">
        <ele>66.628634</ele>
        <time>2023-06-26T09:04:18.247Z</time>
      </trkpt>
      <trkpt lat="51.60251" lon="6.563">
        <ele>66.596399</ele>
        <time>2023-06-26T09:04:20.242Z</time>
      </trkpt>
      <trkpt lat="51.60242" lon="6.56294">
        <ele>66.563798</ele>
        <time>2023-06-26T09:04:22.237Z</time>
      </trkpt>
      <trkpt lat="51.60232" lon="6.5629">
        <ele>66.538595</ele>
        <time>2023-06-26T09:04:24.227Z</time>
      </trkpt>
      <trkpt lat="51.60223" lon="6.56285">
        <ele>66.516836</ele>
        <time>2023-06-26T09:04:26.248Z</time>
      </trkpt>
      <trkpt lat="51.60214" lon="6.56281">
        <ele>66.495639</ele>
        <time>2023-06-26T09:04:28.245Z</time>
      </trkpt>
      <trkpt lat="51.60205" lon="6.56276">
        <ele>66.474083</ele>
        <time>2023-06-26T09:04:30.246Z</time>
      </trkpt>
      <trkpt lat="51.60196" lon="6.56272">
        <ele>66.452272</ele>
        <time>2023-06-26T09:04:32.244Z</time>
      </trkpt>
      <trkpt lat="51.60187" lon="6.56267">
        <ele>66.43038</ele>
        <time>2023-06-26T09:04:34.233Z</time>
      </trkpt>
      <trkpt lat="51.60178" lon="6.56261">
        <ele>66.40861</ele>
        <time>2023-06-26T09:04:36.233Z</time>
      </trkpt>
      <trkpt lat="51.60168" lon="6.56256">
        <ele>66.384987</ele>
        <time>2023-06-26T09:04:38.251Z</time>
      </trkpt>
      <trkpt lat="51.60159" lon="6.56251">
        <ele>66.363644</ele>
        <time>2023-06-26T09:04:40.236Z</time>
      </trkpt>
      <trkpt lat="51.60147" lon="6.56248">
        <ele>66.334509</ele>
        <time>2023-06-26T09:04:43.236Z</time>
      </trkpt>
      <trkpt lat="51.60134" lon="6.56246">
        <ele>66.305255</ele>
        <time>2023-06-26T09:04:46.235Z</time>
      </trkpt>
      <trkpt lat="51.60121" lon="6.56249">
        <ele>66.275223</ele>
        <time>2023-06-26T09:04:49.242Z</time>
      </trkpt>
      <trkpt lat="51.60113" lon="6.56257">
        <ele>66.25361</ele>
        <time>2023-06-26T09:04:51.233Z</time>
      </trkpt>
      <trkpt lat="51.60106" lon="6.56267">
        <ele>66.2325</ele>
        <time>2023-06-26T09:04:53.242Z</time>
      </trkpt>
      <trkpt lat="51.60099" lon="6.56277">
        <ele>66.211077</ele>
        <time>2023-06-26T09:04:55.250Z</time>
      </trkpt>
      <trkpt lat="51.60092" lon="6.56289">
        <ele>66.188363</ele>
        <time>2023-06-26T09:04:57.246Z</time>
      </trkpt>
      <trkpt lat="51.60085" lon="6.563">
        <ele>66.166103</ele>
        <time>2023-06-26T09:04:59.245Z</time>
      </trkpt>
      <trkpt lat="51.60078" lon="6.56313">
        <ele>66.147587</ele>
        <time>2023-06-26T09:05:01.235Z</time>
      </trkpt>
      <trkpt lat="51.60072" lon="6.56325">
        <ele>66.181986</ele>
        <time>2023-06-26T09:05:03.251Z</time>
      </trkpt>
      <trkpt lat="51.60065" lon="6.56337">
        <ele>66.216294</ele>
        <time>2023-06-26T09:05:05.251Z</time>
      </trkpt>
      <trkpt lat="51.60058" lon="6.56348">
        <ele>66.249612</ele>
        <time>2023-06-26T09:05:07.237Z</time>
      </trkpt>
      <trkpt lat="51.60052" lon="6.5636">
        <ele>66.283458</ele>
        <time>2023-06-26T09:05:09.251Z</time>
      </trkpt>
      <trkpt lat="51.60045" lon="6.56372">
        <ele>66.316764</ele>
        <time>2023-06-26T09:05:11.245Z</time>
      </trkpt>
      <trkpt lat="51.60038" lon="6.56384">
        <ele>66.34923</ele>
        <time>2023-06-26T09:05:13.250Z</time>
      </trkpt>
      <trkpt lat="51.60029" lon="6.56399">
        <ele>66.39492</ele>
        <time>2023-06-26T09:05:16.241Z</time>
      </trkpt>
      <trkpt lat="51.60023" lon="6.5641">
        <ele>66.425996</ele>
        <time>2023-06-26T09:05:18.240Z</time>
      </trkpt>
      <trkpt lat="51.60017" lon="6.56423">
        <ele>66.458601</ele>
        <time>2023-06-26T09:05:20.227Z</time>
      </trkpt>
      <trkpt lat="51.60011" lon="6.56435">
        <ele>66.491833</ele>
        <time>2023-06-26T09:05:22.251Z</time>
      </trkpt>
      <trkpt lat="51.60004" lon="6.56446">
        <ele>66.524526</ele>
        <time>2023-06-26T09:05:24.231Z</time>
      </trkpt>
      <trkpt lat="51.59998" lon="6.56458">
        <ele>66.557913</ele>
        <time>2023-06-26T09:05:26.236Z</time>
      </trkpt>
      <trkpt lat="51.59991" lon="6.5647">
        <ele>66.592409</ele>
        <time>2023-06-26T09:05:28.237Z</time>
      </trkpt>
      <trkpt lat="51.59985" lon="6.56482">
        <ele>66.625506</ele>
        <time>2023-06-26T09:05:30.231Z</time>
      </trkpt>
      <trkpt lat="51.59978" lon="6.56495">
        <ele>66.660222</ele>
        <time>2023-06-26T09:05:32.247Z</time>
      </trkpt>
      <trkpt lat="51.59972" lon="6.56507">
        <ele>66.693479</ele>
        <time>2023-06-26T09:05:34.240Z</time>
      </trkpt>
      <trkpt lat="51.59965" lon="6.56519">
        <ele>66.727787</ele>
        <time>2023-06-26T09:05:36.230Z</time>
      </trkpt>
      <trkpt lat="51.59958" lon="6.5653">
        <ele>66.772195</ele>
        <time>2023-06-26T09:05:38.231Z</time>
      </trkpt>
      <trkpt lat="51.59952" lon="6.56542">
        <ele>66.86835</ele>
        <time>2023-06-26T09:05:40.236Z</time>
      </trkpt>
      <trkpt lat="51.59945" lon="6.56554">
        <ele>66.963388</ele>
        <time>2023-06-26T09:05:42.247Z</time>
      </trkpt>
      <trkpt lat="51.59939" lon="6.56565">
        <ele>67.056907</ele>
        <time>2023-06-26T09:05:44.246Z</time>
      </trkpt>
      <trkpt lat="51.59932" lon="6.56576">
        <ele>67.155976</ele>
        <time>2023-06-26T09:05:46.243Z</time>
      </trkpt>
      <trkpt lat="51.59925" lon="6.56589">
        <ele>67.256492</ele>
        <time>2023-06-26T09:05:48.240Z</time>
      </trkpt>
      <trkpt lat="51.59918" lon="6.56601">
        <ele>67.359584</ele>
        <time>2023-06-26T09:05:50.228Z</time>
      </trkpt>
      <trkpt lat="51.59911" lon="6.56614">
        <ele>67.463867</ele>
        <time>2023-06-26T09:05:52.231Z</time>
      </trkpt>
      <trkpt lat="51.59905" lon="6.56626">
        <ele>67.559802</ele>
        <time>2023-06-26T09:05:54.236Z</time>
      </trkpt>
      <trkpt lat="51.59898" lon="6.56639">
        <ele>67.664004</ele>
        <time>2023-06-26T09:05:56.229Z</time>
      </trkpt>
      <trkpt lat="51.5989" lon="6.56652">
        <ele>67.771137</ele>
        <time>2023-06-26T09:05:58.227Z</time>
      </trkpt>
      <trkpt lat="51.59883" lon="6.56666">
        <ele>67.880116</ele>
        <time>2023-06-26T09:06:00.243Z</time>
      </trkpt>
      <trkpt lat="51.59876" lon="6.56679">
        <ele>67.984399</ele>
        <time>2023-06-26T09:06:02.228Z</time>
      </trkpt>
      <trkpt lat="51.59869" lon="6.56691">
        <ele>68.088148</ele>
        <time>2023-06-26T09:06:04.229Z</time>
      </trkpt>
      <trkpt lat="51.59863" lon="6.56703">
        <ele>68.186171</ele>
        <time>2023-06-26T09:06:06.239Z</time>
      </trkpt>
      <trkpt lat="51.59857" lon="6.56715">
        <ele>68.278419</ele>
        <time>2023-06-26T09:06:08.238Z</time>
      </trkpt>
      <trkpt lat="51.59848" lon="6.56731">
        <ele>68.405623</ele>
        <time>2023-06-26T09:06:11.224Z</time>
      </trkpt>
      <trkpt lat="51.5984" lon="6.56745">
        <ele>68.522049</ele>
        <time>2023-06-26T09:06:14.250Z</time>
      </trkpt>
      <trkpt lat="51.59833" lon="6.56757">
        <ele>68.614228</ele>
        <time>2023-06-26T09:06:17.245Z</time>
      </trkpt>
      <trkpt lat="51.59826" lon="6.56769">
        <ele>68.704005</ele>
        <time>2023-06-26T09:06:20.238Z</time>
      </trkpt>
      <trkpt lat="51.59819" lon="6.5678">
        <ele>68.786835</ele>
        <time>2023-06-26T09:06:23.224Z</time>
      </trkpt>
      <trkpt lat="51.59812" lon="6.56793">
        <ele>68.884429</ele>
        <time>2023-06-26T09:06:27.240Z</time>
      </trkpt>
      <trkpt lat="51.59806" lon="6.56804">
        <ele>68.966969</ele>
        <time>2023-06-26T09:06:31.217Z</time>
      </trkpt>
      <trkpt lat="51.59791" lon="6.56806">
        <ele>69.097661</ele>
        <time>2023-06-26T09:07:11.248Z</time>
      </trkpt>
      <trkpt lat="51.59781" lon="6.56799">
        <ele>69.196845</ele>
        <time>2023-06-26T09:07:15.246Z</time>
      </trkpt>
      <trkpt lat="51.59773" lon="6.5679">
        <ele>69.279896</ele>
        <time>2023-06-26T09:07:18.235Z</time>
      </trkpt>
      <trkpt lat="51.59763" lon="6.56778">
        <ele>69.389111</ele>
        <time>2023-06-26T09:07:22.230Z</time>
      </trkpt>
      <trkpt lat="51.59754" lon="6.56769">
        <ele>69.485482</ele>
        <time>2023-06-26T09:07:25.237Z</time>
      </trkpt>
      <trkpt lat="51.59743" lon="6.56761">
        <ele>69.586646</ele>
        <time>2023-06-26T09:07:28.254Z</time>
      </trkpt>
      <trkpt lat="51.59733" lon="6.56753">
        <ele>69.688703</ele>
        <time>2023-06-26T09:07:31.244Z</time>
      </trkpt>
      <trkpt lat="51.59722" lon="6.56742">
        <ele>69.798912</ele>
        <time>2023-06-26T09:07:34.249Z</time>
      </trkpt>
      <trkpt lat="51.59713" lon="6.56733">
        <ele>69.896485</ele>
        <time>2023-06-26T09:07:37.243Z</time>
      </trkpt>
      <trkpt lat="51.59703" lon="6.56724">
        <ele>69.998785</ele>
        <time>2023-06-26T09:07:40.237Z</time>
      </trkpt>
      <trkpt lat="51.59693" lon="6.56716">
        <ele>70.096704</ele>
        <time>2023-06-26T09:07:43.223Z</time>
      </trkpt>
      <trkpt lat="51.59683" lon="6.56706">
        <ele>70.09356</ele>
        <time>2023-06-26T09:07:46.236Z</time>
      </trkpt>
      <trkpt lat="51.59673" lon="6.56697">
        <ele>70.080079</ele>
        <time>2023-06-26T09:07:49.248Z</time>
      </trkpt>
      <trkpt lat="51.59663" lon="6.56689">
        <ele>70.066109</ele>
        <time>2023-06-26T09:07:52.235Z</time>
      </trkpt>
      <trkpt lat="51.59652" lon="6.5668">
        <ele>70.052146</ele>
        <time>2023-06-26T09:07:55.237Z</time>
      </trkpt>
      <trkpt lat="51.59642" lon="6.56672">
        <ele>70.038514</ele>
        <time>2023-06-26T09:07:58.238Z</time>
      </trkpt>
      <trkpt lat="51.59632" lon="6.56662">
        <ele>70.025073</ele>
        <time>2023-06-26T09:08:01.236Z</time>
      </trkpt>
      <trkpt lat="51.59621" lon="6.56652">
        <ele>70.01048</ele>
        <time>2023-06-26T09:08:04.228Z</time>
      </trkpt>
      <trkpt lat="51.59611" lon="6.5664">
        <ele>69.995452</ele>
        <time>2023-06-26T09:08:07.251Z</time>
      </trkpt>
      <trkpt lat="51.59599" lon="6.56629">
        <ele>69.979741</ele>
        <time>2023-06-26T09:08:10.250Z</time>
      </trkpt>
      <trkpt lat="51.59588" lon="6.56619">
        <ele>69.964092</ele>
        <time>2023-06-26T09:08:13.248Z</time>
      </trkpt>
      <trkpt lat="51.5958" lon="6.56611">
        <ele>69.953078</ele>
        <time>2023-06-26T09:08:15.239Z</time>
      </trkpt>
      <trkpt lat="51.59571" lon="6.56604">
        <ele>69.942287</ele>
        <time>2023-06-26T09:08:17.232Z</time>
      </trkpt>
      <trkpt lat="51.59563" lon="6.56597">
        <ele>69.931152</ele>
        <time>2023-06-26T09:08:19.230Z</time>
      </trkpt>
      <trkpt lat="51.59555" lon="6.56588">
        <ele>69.919961</ele>
        <time>2023-06-26T09:08:21.254Z</time>
      </trkpt>
      <trkpt lat="51.59547" lon="6.5658">
        <ele>69.908947</ele>
        <time>2023-06-26T09:08:23.236Z</time>
      </trkpt>
      <trkpt lat="51.59539" lon="6.56573">
        <ele>69.897433</ele>
        <time>2023-06-26T09:08:25.235Z</time>
      </trkpt>
      <trkpt lat="51.5953" lon="6.56566">
        <ele>69.903593</ele>
        <time>2023-06-26T09:08:27.244Z</time>
      </trkpt>
      <trkpt lat="51.59517" lon="6.56556">
        <ele>69.921039</ele>
        <time>2023-06-26T09:08:30.239Z</time>
      </trkpt>
      <trkpt lat="51.59509" lon="6.56548">
        <ele>69.93335</ele>
        <time>2023-06-26T09:08:32.232Z</time>
      </trkpt>
      <trkpt lat="51.59501" lon="6.5654">
        <ele>69.945633</ele>
        <time>2023-06-26T09:08:34.246Z</time>
      </trkpt>
      <trkpt lat="51.59492" lon="6.56532">
        <ele>69.957944</ele>
        <time>2023-06-26T09:08:36.253Z</time>
      </trkpt>
      <trkpt lat="51.59484" lon="6.56525">
        <ele>69.969875</ele>
        <time>2023-06-26T09:08:38.231Z</time>
      </trkpt>
      <trkpt lat="51.59477" lon="6.56516">
        <ele>69.981565</ele>
        <time>2023-06-26T09:08:40.249Z</time>
      </trkpt>
      <trkpt lat="51.59468" lon="6.56508">
        <ele>69.993658</ele>
        <time>2023-06-26T09:08:42.244Z</time>
      </trkpt>
      <trkpt lat="51.5946" lon="6.56501">
        <ele>70.005852</ele>
        <time>2023-06-26T09:08:44.245Z</time>
      </trkpt>
      <trkpt lat="51.59453" lon="6.56492">
        <ele>70.017401</ele>
        <time>2023-06-26T09:08:46.239Z</time>
      </trkpt>
      <trkpt lat="51.59444" lon="6.56484">
        <ele>70.029779</ele>
        <time>2023-06-26T09:08:48.235Z</time>
      </trkpt>
      <trkpt lat="51.59435" lon="6.56478">
        <ele>70.041802</ele>
        <time>2023-06-26T09:08:50.240Z</time>
      </trkpt>
      <trkpt lat="51.59427" lon="6.5647">
        <ele>70.053612</ele>
        <time>2023-06-26T09:08:52.239Z</time>
      </trkpt>
      <trkpt lat="51.59416" lon="6.56459">
        <ele>70.070453</ele>
        <time>2023-06-26T09:08:55.247Z</time>
      </trkpt>
      <trkpt lat="51.59405" lon="6.56449">
        <ele>70.08642</ele>
        <time>2023-06-26T09:08:58.242Z</time>
      </trkpt>
      <trkpt lat="51.59395" lon="6.56438">
        <ele>70.102061</ele>
        <time>2023-06-26T09:09:01.241Z</time>
      </trkpt>
      <trkpt lat="51.59385" lon="6.56429">
        <ele>70.116458</ele>
        <time>2023-06-26T09:09:04.251Z</time>
      </trkpt>
      <trkpt lat="51.59376" lon="6.5642">
        <ele>70.051347</ele>
        <time>2023-06-26T09:09:09.245Z</time>
      </trkpt>
      <trkpt lat="51.59363" lon="6.56416">
        <ele>69.893467</ele>
        <time>2023-06-26T09:09:59.239Z</time>
      </trkpt>
      <trkpt lat="51.59352" lon="6.56409">
        <ele>69.752619</ele>
        <time>2023-06-26T09:10:03.232Z</time>
      </trkpt>
      <trkpt lat="51.59346" lon="6.56395">
        <ele>69.625481</ele>
        <time>2023-06-26T09:10:06.232Z</time>
      </trkpt>
      <trkpt lat="51.59341" lon="6.56381">
        <ele>69.503292</ele>
        <time>2023-06-26T09:10:09.238Z</time>
      </trkpt>
      <trkpt lat="51.59334" lon="6.56364">
        <ele>69.360038</ele>
        <time>2023-06-26T09:10:12.233Z</time>
      </trkpt>
      <trkpt lat="51.59327" lon="6.56346">
        <ele>69.206091</ele>
        <time>2023-06-26T09:10:15.252Z</time>
      </trkpt>
      <trkpt lat="51.5932" lon="6.56331">
        <ele>69.065735</ele>
        <time>2023-06-26T09:10:18.233Z</time>
      </trkpt>
      <trkpt lat="51.59312" lon="6.56315">
        <ele>68.91122</ele>
        <time>2023-06-26T09:10:21.236Z</time>
      </trkpt>
      <trkpt lat="51.59306" lon="6.56303">
        <ele>68.800505</ele>
        <time>2023-06-26T09:10:23.230Z</time>
      </trkpt>
      <trkpt lat="51.593" lon="6.56291">
        <ele>68.688622</ele>
        <time>2023-06-26T09:10:25.239Z</time>
      </trkpt>
      <trkpt lat="51.59294" lon="6.56278">
        <ele>68.572263</ele>
        <time>2023-06-26T09:10:27.248Z</time>
      </trkpt>
      <trkpt lat="51.59288" lon="6.56265">
        <ele>68.454023</ele>
        <time>2023-06-26T09:10:29.239Z</time>
      </trkpt>
      <trkpt lat="51.59282" lon="6.56253">
        <ele>68.335639</ele>
        <time>2023-06-26T09:10:31.235Z</time>
      </trkpt>
      <trkpt lat="51.59276" lon="6.56241">
        <ele>68.226929</ele>
        <time>2023-06-26T09:10:33.231Z</time>
      </trkpt>
      <trkpt lat="51.5927" lon="6.56229">
        <ele>68.115911</ele>
        <time>2023-06-26T09:10:35.270Z</time>
      </trkpt>
      <trkpt lat="51.59265" lon="6.56217">
        <ele>68.007912</ele>
        <time>2023-06-26T09:10:37.238Z</time>
      </trkpt>
      <trkpt lat="51.59259" lon="6.56206">
        <ele>68.067531</ele>
        <time>2023-06-26T09:10:39.237Z</time>
      </trkpt>
      <trkpt lat="51.59252" lon="6.56194">
        <ele>68.143107</ele>
        <time>2023-06-26T09:10:41.240Z</time>
      </trkpt>
      <trkpt lat="51.59247" lon="6.56182">
        <ele>68.218008</ele>
        <time>2023-06-26T09:10:43.234Z</time>
      </trkpt>
      <trkpt lat="51.59241" lon="6.5617">
        <ele>68.291981</ele>
        <time>2023-06-26T09:10:45.238Z</time>
      </trkpt>
      <trkpt lat="51.59235" lon="6.56158">
        <ele>68.366412</ele>
        <time>2023-06-26T09:10:47.241Z</time>
      </trkpt>
      <trkpt lat="51.5923" lon="6.56145">
        <ele>68.43988</ele>
        <time>2023-06-26T09:10:49.238Z</time>
      </trkpt>
      <trkpt lat="51.59224" lon="6.56132">
        <ele>68.516652</ele>
        <time>2023-06-26T09:10:51.248Z</time>
      </trkpt>
      <trkpt lat="51.59219" lon="6.5612">
        <ele>68.590877</ele>
        <time>2023-06-26T09:10:53.219Z</time>
      </trkpt>
      <trkpt lat="51.59214" lon="6.56107">
        <ele>68.664454</ele>
        <time>2023-06-26T09:10:55.233Z</time>
      </trkpt>
      <trkpt lat="51.59206" lon="6.56091">
        <ele>68.767104</ele>
        <time>2023-06-26T09:10:58.239Z</time>
      </trkpt>
      <trkpt lat="51.59198" lon="6.56074">
        <ele>68.869733</ele>
        <time>2023-06-26T09:11:01.240Z</time>
      </trkpt>
      <trkpt lat="51.5919" lon="6.56059">
        <ele>68.96623</ele>
        <time>2023-06-26T09:11:04.241Z</time>
      </trkpt>
      <trkpt lat="51.59183" lon="6.56044">
        <ele>69.059624</ele>
        <time>2023-06-26T09:11:07.241Z</time>
      </trkpt>
      <trkpt lat="51.59176" lon="6.56029">
        <ele>69.152537</ele>
        <time>2023-06-26T09:11:10.236Z</time>
      </trkpt>
      <trkpt lat="51.59168" lon="6.56014">
        <ele>69.247517</ele>
        <time>2023-06-26T09:11:13.231Z</time>
      </trkpt>
      <trkpt lat="51.59161" lon="6.55999">
        <ele>69.33706</ele>
        <time>2023-06-26T09:11:16.253Z</time>
      </trkpt>
      <trkpt lat="51.59154" lon="6.55986">
        <ele>69.420233</ele>
        <time>2023-06-26T09:11:19.242Z</time>
      </trkpt>
      <trkpt lat="51.59147" lon="6.55974">
        <ele>69.474174</ele>
        <time>2023-06-26T09:11:22.227Z</time>
      </trkpt>
      <trkpt lat="51.5914" lon="6.5596">
        <ele>69.53628</ele>
        <time>2023-06-26T09:11:26.227Z</time>
      </trkpt>
      <trkpt lat="51.59126" lon="6.55967">
        <ele>69.618064</ele>
        <time>2023-06-26T09:11:43.232Z</time>
      </trkpt>
      <trkpt lat="51.59117" lon="6.55973">
        <ele>69.67349</ele>
        <time>2023-06-26T09:11:46.213Z</time>
      </trkpt>
      <trkpt lat="51.59107" lon="6.5598">
        <ele>69.734935</ele>
        <time>2023-06-26T09:11:49.242Z</time>
      </trkpt>
      <trkpt lat="51.59097" lon="6.5599">
        <ele>69.799608</ele>
        <time>2023-06-26T09:11:52.232Z</time>
      </trkpt>
      <trkpt lat="51.59088" lon="6.55998">
        <ele>69.859658</ele>
        <time>2023-06-26T09:11:55.261Z</time>
      </trkpt>
      <trkpt lat="51.59077" lon="6.56008">
        <ele>69.927964</ele>
        <time>2023-06-26T09:11:58.254Z</time>
      </trkpt>
      <trkpt lat="51.59067" lon="6.56021">
        <ele>69.999993</ele>
        <time>2023-06-26T09:12:01.234Z</time>
      </trkpt>
      <trkpt lat="51.5906" lon="6.5603">
        <ele>70.050115</ele>
        <time>2023-06-26T09:12:03.237Z</time>
      </trkpt>
      <trkpt lat="51.59052" lon="6.56039">
        <ele>70.102384</ele>
        <time>2023-06-26T09:12:05.237Z</time>
      </trkpt>
      <trkpt lat="51.59043" lon="6.56046">
        <ele>70.156557</ele>
        <time>2023-06-26T09:12:07.242Z</time>
      </trkpt>
      <trkpt lat="51.59035" lon="6.56052">
        <ele>70.207121</ele>
        <time>2023-06-26T09:12:09.249Z</time>
      </trkpt>
      <trkpt lat="51.59028" lon="6.56061">
        <ele>70.257159</ele>
        <time>2023-06-26T09:12:11.251Z</time>
      </trkpt>
      <trkpt lat="51.59021" lon="6.56071">
        <ele>70.307962</ele>
        <time>2023-06-26T09:12:13.237Z</time>
      </trkpt>
      <trkpt lat="51.59014" lon="6.56081">
        <ele>70.361663</ele>
        <time>2023-06-26T09:12:15.239Z</time>
      </trkpt>
      <trkpt lat="51.59005" lon="6.56097">
        <ele>70.444042</ele>
        <time>2023-06-26T09:12:18.248Z</time>
      </trkpt>
      <trkpt lat="51.58998" lon="6.56108">
        <ele>70.512947</ele>
        <time>2023-06-26T09:12:20.236Z</time>
      </trkpt>
      <trkpt lat="51.58991" lon="6.56119">
        <ele>70.583837</ele>
        <time>2023-06-26T09:12:22.237Z</time>
      </trkpt>
      <trkpt lat="51.58985" lon="6.5613">
        <ele>70.652048</ele>
        <time>2023-06-26T09:12:24.232Z</time>
      </trkpt>
      <trkpt lat="51.58978" lon="6.5614">
        <ele>70.718375</ele>
        <time>2023-06-26T09:12:26.234Z</time>
      </trkpt>
      <trkpt lat="51.58971" lon="6.56151">
        <ele>70.788245</ele>
        <time>2023-06-26T09:12:28.248Z</time>
      </trkpt>
      <trkpt lat="51.58964" lon="6.56161">
        <ele>70.857666</ele>
        <time>2023-06-26T09:12:30.231Z</time>
      </trkpt>
      <trkpt lat="51.58958" lon="6.56173">
        <ele>70.930824</ele>
        <time>2023-06-26T09:12:32.232Z</time>
      </trkpt>
      <trkpt lat="51.58951" lon="6.56185">
        <ele>71.003329</ele>
        <time>2023-06-26T09:12:34.242Z</time>
      </trkpt>
      <trkpt lat="51.58944" lon="6.56197">
        <ele>71.075183</ele>
        <time>2023-06-26T09:12:36.240Z</time>
      </trkpt>
      <trkpt lat="51.58935" lon="6.56212">
        <ele>71.172974</ele>
        <time>2023-06-26T09:12:39.236Z</time>
      </trkpt>
      <trkpt lat="51.58928" lon="6.56222">
        <ele>71.239575</ele>
        <time>2023-06-26T09:12:41.242Z</time>
      </trkpt>
      <trkpt lat="51.58921" lon="6.56233">
        <ele>71.308364</ele>
        <time>2023-06-26T09:12:43.237Z</time>
      </trkpt>
      <trkpt lat="51.58911" lon="6.56247">
        <ele>71.403239</ele>
        <time>2023-06-26T09:12:46.249Z</time>
      </trkpt>
      <trkpt lat="51.58903" lon="6.56254">
        <ele>71.469835</ele>
        <time>2023-06-26T09:12:48.254Z</time>
      </trkpt>
      <trkpt lat="51.58896" lon="6.56262">
        <ele>71.536112</ele>
        <time>2023-06-26T09:12:50.245Z</time>
      </trkpt>
      <trkpt lat="51.5889" lon="6.56273">
        <ele>71.603166</ele>
        <time>2023-06-26T09:12:52.235Z</time>
      </trkpt>
      <trkpt lat="51.58883" lon="6.56284">
        <ele>71.670876</ele>
        <time>2023-06-26T09:12:54.228Z</time>
      </trkpt>
      <trkpt lat="51.58877" lon="6.56296">
        <ele>71.718861</ele>
        <time>2023-06-26T09:12:56.222Z</time>
      </trkpt>
      <trkpt lat="51.58869" lon="6.56306">
        <ele>71.707823</ele>
        <time>2023-06-26T09:12:58.252Z</time>
      </trkpt>
      <trkpt lat="51.58861" lon="6.56316">
        <ele>71.696278</ele>
        <time>2023-06-26T09:13:00.216Z</time>
      </trkpt>
      <trkpt lat="51.58854" lon="6.56327">
        <ele>71.684723</ele>
        <time>2023-06-26T09:13:02.253Z</time>
      </trkpt>
      <trkpt lat="51.58847" lon="6.56338">
        <ele>71.67398</ele>
        <time>2023-06-26T09:13:04.218Z</time>
      </trkpt>
      <trkpt lat="51.58839" lon="6.56349">
        <ele>71.662503</ele>
        <time>2023-06-26T09:13:06.233Z</time>
      </trkpt>
      <trkpt lat="51.58831" lon="6.56358">
        <ele>71.651365</ele>
        <time>2023-06-26T09:13:08.242Z</time>
      </trkpt>
      <trkpt lat="51.58823" lon="6.56369">
        <ele>71.640085</ele>
        <time>2023-06-26T09:13:10.239Z</time>
      </trkpt>
      <trkpt lat="51.58816" lon="6.5638">
        <ele>71.62858</ele>
        <time>2023-06-26T09:13:12.250Z</time>
      </trkpt>
      <trkpt lat="51.58809" lon="6.56392">
        <ele>71.616946</ele>
        <time>2023-06-26T09:13:14.245Z</time>
      </trkpt>
      <trkpt lat="51.588" lon="6.56404">
        <ele>71.604493</ele>
        <time>2023-06-26T09:13:16.251Z</time>
      </trkpt>
      <trkpt lat="51.58793" lon="6.56415">
        <ele>71.592585</ele>
        <time>2023-06-26T09:13:18.234Z</time>
      </trkpt>
      <trkpt lat="51.58785" lon="6.56428">
        <ele>71.580623</ele>
        <time>2023-06-26T09:13:20.233Z</time>
      </trkpt>
      <trkpt lat="51.58778" lon="6.5644">
        <ele>71.568841</ele>
        <time>2023-06-26T09:13:22.237Z</time>
      </trkpt>
      <trkpt lat="51.58771" lon="6.56452">
        <ele>71.556829</ele>
        <time>2023-06-26T09:13:24.232Z</time>
      </trkpt>
      <trkpt lat="51.58763" lon="6.56465">
        <ele>71.544843</ele>
        <time>2023-06-26T09:13:26.231Z</time>
      </trkpt>
      <trkpt lat="51.58756" lon="6.56476">
        <ele>71.533468</ele>
        <time>2023-06-26T09:13:28.239Z</time>
      </trkpt>
      <trkpt lat="51.58749" lon="6.56487">
        <ele>71.522078</ele>
        <time>2023-06-26T09:13:30.234Z</time>
      </trkpt>
      <trkpt lat="51.5874" lon="6.565">
        <ele>71.551292</ele>
        <time>2023-06-26T09:13:32.231Z</time>
      </trkpt>
      <trkpt lat="51.58732" lon="6.56513">
        <ele>71.590138</ele>
        <time>2023-06-26T09:13:34.254Z</time>
      </trkpt>
      <trkpt lat="51.58725" lon="6.56525">
        <ele>71.624987</ele>
        <time>2023-06-26T09:13:36.234Z</time>
      </trkpt>
      <trkpt lat="51.58718" lon="6.56537">
        <ele>71.659454</ele>
        <time>2023-06-26T09:13:38.235Z</time>
      </trkpt>
      <trkpt lat="51.5871" lon="6.56549">
        <ele>71.695662</ele>
        <time>2023-06-26T09:13:40.250Z</time>
      </trkpt>
      <trkpt lat="51.58702" lon="6.56562">
        <ele>71.734691</ele>
        <time>2023-06-26T09:13:42.235Z</time>
      </trkpt>
      <trkpt lat="51.58694" lon="6.56575">
        <ele>71.771757</ele>
        <time>2023-06-26T09:13:44.259Z</time>
      </trkpt>
      <trkpt lat="51.58686" lon="6.56588">
        <ele>71.808824</ele>
        <time>2023-06-26T09:13:46.240Z</time>
      </trkpt>
      <trkpt lat="51.58678" lon="6.56601">
        <ele>71.846955</ele>
        <time>2023-06-26T09:13:48.237Z</time>
      </trkpt>
      <trkpt lat="51.5867" lon="6.56613">
        <ele>71.884169</ele>
        <time>2023-06-26T09:13:50.254Z</time>
      </trkpt>
      <trkpt lat="51.58663" lon="6.56626">
        <ele>71.921532</ele>
        <time>2023-06-26T09:13:52.242Z</time>
      </trkpt>
      <trkpt lat="51.58655" lon="6.56638">
        <ele>71.958013</ele>
        <time>2023-06-26T09:13:54.231Z</time>
      </trkpt>
      <trkpt lat="51.58647" lon="6.56652">
        <ele>71.997297</ele>
        <time>2023-06-26T09:13:56.236Z</time>
      </trkpt>
      <trkpt lat="51.58638" lon="6.56665">
        <ele>72.037498</ele>
        <time>2023-06-26T09:13:58.228Z</time>
      </trkpt>
      <trkpt lat="51.5863" lon="6.56679">
        <ele>72.07691</ele>
        <time>2023-06-26T09:14:00.231Z</time>
      </trkpt>
      <trkpt lat="51.58622" lon="6.56693">
        <ele>72.116553</ele>
        <time>2023-06-26T09:14:02.234Z</time>
      </trkpt>
      <trkpt lat="51.58614" lon="6.56706">
        <ele>72.12295</ele>
        <time>2023-06-26T09:14:04.240Z</time>
      </trkpt>
      <trkpt lat="51.58606" lon="6.56719">
        <ele>72.122871</ele>
        <time>2023-06-26T09:14:06.231Z</time>
      </trkpt>
      <trkpt lat="51.58598" lon="6.56732">
        <ele>72.122796</ele>
        <time>2023-06-26T09:14:08.243Z</time>
      </trkpt>
      <trkpt lat="51.5859" lon="6.56744">
        <ele>72.122722</ele>
        <time>2023-06-26T09:14:10.233Z</time>
      </trkpt>
      <trkpt lat="51.58582" lon="6.56757">
        <ele>72.122646</ele>
        <time>2023-06-26T09:14:12.245Z</time>
      </trkpt>
      <trkpt lat="51.58574" lon="6.5677">
        <ele>72.122568</ele>
        <time>2023-06-26T09:14:14.258Z</time>
      </trkpt>
      <trkpt lat="51.58566" lon="6.56784">
        <ele>72.122488</ele>
        <time>2023-06-26T09:14:16.232Z</time>
      </trkpt>
      <trkpt lat="51.58558" lon="6.56796">
        <ele>72.122411</ele>
        <time>2023-06-26T09:14:18.249Z</time>
      </trkpt>
      <trkpt lat="51.5855" lon="6.5681">
        <ele>72.122333</ele>
        <time>2023-06-26T09:14:20.237Z</time>
      </trkpt>
      <trkpt lat="51.58541" lon="6.56822">
        <ele>72.122258</ele>
        <time>2023-06-26T09:14:22.249Z</time>
      </trkpt>
      <trkpt lat="51.58534" lon="6.56834">
        <ele>72.122186</ele>
        <time>2023-06-26T09:14:24.235Z</time>
      </trkpt>
      <trkpt lat="51.58526" lon="6.56846">
        <ele>72.122112</ele>
        <time>2023-06-26T09:14:26.242Z</time>
      </trkpt>
      <trkpt lat="51.58518" lon="6.56859">
        <ele>72.122036</ele>
        <time>2023-06-26T09:14:28.247Z</time>
      </trkpt>
      <trkpt lat="51.5851" lon="6.56873">
        <ele>72.121957</ele>
        <time>2023-06-26T09:14:30.230Z</time>
      </trkpt>
      <trkpt lat="51.58502" lon="6.56886">
        <ele>72.121879</ele>
        <time>2023-06-26T09:14:32.235Z</time>
      </trkpt>
      <trkpt lat="51.58495" lon="6.56899">
        <ele>72.121804</ele>
        <time>2023-06-26T09:14:34.235Z</time>
      </trkpt>
      <trkpt lat="51.58486" lon="6.56912">
        <ele>72.095403</ele>
        <time>2023-06-26T09:14:36.237Z</time>
      </trkpt>
      <trkpt lat="51.58478" lon="6.56924">
        <ele>72.067018</ele>
        <time>2023-06-26T09:14:38.239Z</time>
      </trkpt>
      <trkpt lat="51.5847" lon="6.56938">
        <ele>72.037507</ele>
        <time>2023-06-26T09:14:40.248Z</time>
      </trkpt>
      <trkpt lat="51.58462" lon="6.56951">
        <ele>72.008952</ele>
        <time>2023-06-26T09:14:42.237Z</time>
      </trkpt>
      <trkpt lat="51.58453" lon="6.56964">
        <ele>71.9798</ele>
        <time>2023-06-26T09:14:44.238Z</time>
      </trkpt>
      <trkpt lat="51.58445" lon="6.56978">
        <ele>71.95118</ele>
        <time>2023-06-26T09:14:46.245Z</time>
      </trkpt>
      <trkpt lat="51.58437" lon="6.56991">
        <ele>71.923142</ele>
        <time>2023-06-26T09:14:48.235Z</time>
      </trkpt>
      <trkpt lat="51.5843" lon="6.57004">
        <ele>71.895495</ele>
        <time>2023-06-26T09:14:50.236Z</time>
      </trkpt>
      <trkpt lat="51.58422" lon="6.57015">
        <ele>71.8685</ele>
        <time>2023-06-26T09:14:52.226Z</time>
      </trkpt>
      <trkpt lat="51.58415" lon="6.57027">
        <ele>71.84357</ele>
        <time>2023-06-26T09:14:54.233Z</time>
      </trkpt>
      <trkpt lat="51.58408" lon="6.57039">
        <ele>71.818239</ele>
        <time>2023-06-26T09:14:56.238Z</time>
      </trkpt>
      <trkpt lat="51.584" lon="6.57051">
        <ele>71.791482</ele>
        <time>2023-06-26T09:14:58.255Z</time>
      </trkpt>
      <trkpt lat="51.58392" lon="6.57064">
        <ele>71.762222</ele>
        <time>2023-06-26T09:15:00.228Z</time>
      </trkpt>
      <trkpt lat="51.58384" lon="6.57077">
        <ele>71.73384</ele>
        <time>2023-06-26T09:15:02.235Z</time>
      </trkpt>
      <trkpt lat="51.58375" lon="6.5709">
        <ele>71.704902</ele>
        <time>2023-06-26T09:15:04.255Z</time>
      </trkpt>
      <trkpt lat="51.58368" lon="6.57104">
        <ele>71.675832</ele>
        <time>2023-06-26T09:15:06.242Z</time>
      </trkpt>
      <trkpt lat="51.58359" lon="6.57118">
        <ele>71.650608</ele>
        <time>2023-06-26T09:15:08.252Z</time>
      </trkpt>
      <trkpt lat="51.5835" lon="6.57131">
        <ele>71.626105</ele>
        <time>2023-06-26T09:15:10.228Z</time>
      </trkpt>
      <trkpt lat="51.58342" lon="6.57145">
        <ele>71.601569</ele>
        <time>2023-06-26T09:15:12.228Z</time>
      </trkpt>
      <trkpt lat="51.58334" lon="6.57159">
        <ele>71.577412</ele>
        <time>2023-06-26T09:15:14.234Z</time>
      </trkpt>
      <trkpt lat="51.58326" lon="6.57173">
        <ele>71.553147</ele>
        <time>2023-06-26T09:15:16.252Z</time>
      </trkpt>
      <trkpt lat="51.58317" lon="6.57185">
        <ele>71.529156</ele>
        <time>2023-06-26T09:15:18.237Z</time>
      </trkpt>
      <trkpt lat="51.58309" lon="6.57199">
        <ele>71.505137</ele>
        <time>2023-06-26T09:15:20.249Z</time>
      </trkpt>
      <trkpt lat="51.583" lon="6.57213">
        <ele>71.479819</ele>
        <time>2023-06-26T09:15:22.235Z</time>
      </trkpt>
      <trkpt lat="51.58291" lon="6.57227">
        <ele>71.454994</ele>
        <time>2023-06-26T09:15:24.256Z</time>
      </trkpt>
      <trkpt lat="51.58283" lon="6.57239">
        <ele>71.432081</ele>
        <time>2023-06-26T09:15:26.234Z</time>
      </trkpt>
      <trkpt lat="51.58275" lon="6.57252">
        <ele>71.408642</ele>
        <time>2023-06-26T09:15:28.249Z</time>
      </trkpt>
      <trkpt lat="51.58267" lon="6.57264">
        <ele>71.385852</ele>
        <time>2023-06-26T09:15:30.249Z</time>
      </trkpt>
      <trkpt lat="51.58259" lon="6.57277">
        <ele>71.362856</ele>
        <time>2023-06-26T09:15:32.227Z</time>
      </trkpt>
      <trkpt lat="51.58251" lon="6.5729">
        <ele>71.339904</ele>
        <time>2023-06-26T09:15:34.229Z</time>
      </trkpt>
      <trkpt lat="51.58243" lon="6.57302">
        <ele>71.316792</ele>
        <time>2023-06-26T09:15:36.241Z</time>
      </trkpt>
      <trkpt lat="51.58235" lon="6.57315">
        <ele>71.266786</ele>
        <time>2023-06-26T09:15:38.232Z</time>
      </trkpt>
      <trkpt lat="51.58227" lon="6.57327">
        <ele>71.195213</ele>
        <time>2023-06-26T09:15:40.242Z</time>
      </trkpt>
      <trkpt lat="51.58219" lon="6.57341">
        <ele>71.119738</ele>
        <time>2023-06-26T09:15:42.251Z</time>
      </trkpt>
      <trkpt lat="51.58211" lon="6.57354">
        <ele>71.0459</ele>
        <time>2023-06-26T09:15:44.236Z</time>
      </trkpt>
      <trkpt lat="51.58204" lon="6.57367">
        <ele>70.973241</ele>
        <time>2023-06-26T09:15:46.230Z</time>
      </trkpt>
      <trkpt lat="51.58196" lon="6.5738">
        <ele>70.900709</ele>
        <time>2023-06-26T09:15:48.233Z</time>
      </trkpt>
      <trkpt lat="51.58188" lon="6.57392">
        <ele>70.828002</ele>
        <time>2023-06-26T09:15:50.229Z</time>
      </trkpt>
      <trkpt lat="51.5818" lon="6.57405">
        <ele>70.756243</ele>
        <time>2023-06-26T09:15:52.237Z</time>
      </trkpt>
      <trkpt lat="51.58173" lon="6.57418">
        <ele>70.686563</ele>
        <time>2023-06-26T09:15:54.235Z</time>
      </trkpt>
      <trkpt lat="51.58165" lon="6.5743">
        <ele>70.614238</ele>
        <time>2023-06-26T09:15:56.261Z</time>
      </trkpt>
      <trkpt lat="51.58157" lon="6.57442">
        <ele>70.542383</ele>
        <time>2023-06-26T09:15:58.222Z</time>
      </trkpt>
      <trkpt lat="51.5815" lon="6.57456">
        <ele>70.468544</ele>
        <time>2023-06-26T09:16:00.225Z</time>
      </trkpt>
      <trkpt lat="51.58142" lon="6.57468">
        <ele>70.398659</ele>
        <time>2023-06-26T09:16:02.248Z</time>
      </trkpt>
      <trkpt lat="51.58134" lon="6.5748">
        <ele>70.330095</ele>
        <time>2023-06-26T09:16:04.218Z</time>
      </trkpt>
      <trkpt lat="51.58128" lon="6.57492">
        <ele>70.263683</ele>
        <time>2023-06-26T09:16:06.235Z</time>
      </trkpt>
      <trkpt lat="51.5812" lon="6.57504">
        <ele>70.196217</ele>
        <time>2023-06-26T09:16:08.254Z</time>
      </trkpt>
      <trkpt lat="51.58113" lon="6.57516">
        <ele>70.137231</ele>
        <time>2023-06-26T09:16:10.239Z</time>
      </trkpt>
      <trkpt lat="51.58105" lon="6.57528">
        <ele>70.283907</ele>
        <time>2023-06-26T09:16:12.234Z</time>
      </trkpt>
      <trkpt lat="51.58098" lon="6.5754">
        <ele>70.433179</ele>
        <time>2023-06-26T09:16:14.229Z</time>
      </trkpt>
      <trkpt lat="51.58091" lon="6.57552">
        <ele>70.577825</ele>
        <time>2023-06-26T09:16:16.235Z</time>
      </trkpt>
      <trkpt lat="51.58084" lon="6.57564">
        <ele>70.719944</ele>
        <time>2023-06-26T09:16:18.241Z</time>
      </trkpt>
      <trkpt lat="51.58076" lon="6.57575">
        <ele>70.859807</ele>
        <time>2023-06-26T09:16:20.251Z</time>
      </trkpt>
      <trkpt lat="51.58069" lon="6.57586">
        <ele>71.000865</ele>
        <time>2023-06-26T09:16:22.239Z</time>
      </trkpt>
      <trkpt lat="51.58062" lon="6.57598">
        <ele>71.142524</ele>
        <time>2023-06-26T09:16:24.230Z</time>
      </trkpt>
      <trkpt lat="51.58055" lon="6.57609">
        <ele>71.276727</ele>
        <time>2023-06-26T09:16:26.248Z</time>
      </trkpt>
      <trkpt lat="51.58045" lon="6.57623">
        <ele>71.464643</ele>
        <time>2023-06-26T09:16:29.239Z</time>
      </trkpt>
      <trkpt lat="51.58036" lon="6.57639">
        <ele>71.645057</ele>
        <time>2023-06-26T09:16:32.236Z</time>
      </trkpt>
      <trkpt lat="51.58027" lon="6.57653">
        <ele>71.824188</ele>
        <time>2023-06-26T09:16:35.248Z</time>
      </trkpt>
      <trkpt lat="51.58017" lon="6.57667">
        <ele>72.006022</ele>
        <time>2023-06-26T09:16:38.246Z</time>
      </trkpt>
      <trkpt lat="51.58008" lon="6.57682">
        <ele>72.188018</ele>
        <time>2023-06-26T09:16:41.247Z</time>
      </trkpt>
      <trkpt lat="51.58" lon="6.57697">
        <ele>72.361301</ele>
        <time>2023-06-26T09:16:44.239Z</time>
      </trkpt>
      <trkpt lat="51.57992" lon="6.5771">
        <ele>72.521219</ele>
        <time>2023-06-26T09:16:47.251Z</time>
      </trkpt>
      <trkpt lat="51.57984" lon="6.57722">
        <ele>72.605948</ele>
        <time>2023-06-26T09:16:50.235Z</time>
      </trkpt>
      <trkpt lat="51.57977" lon="6.57735">
        <ele>72.477114</ele>
        <time>2023-06-26T09:16:53.231Z</time>
      </trkpt>
      <trkpt lat="51.57969" lon="6.57745">
        <ele>72.361256</ele>
        <time>2023-06-26T09:16:56.237Z</time>
      </trkpt>
      <trkpt lat="51.57963" lon="6.57756">
        <ele>72.247095</ele>
        <time>2023-06-26T09:16:59.256Z</time>
      </trkpt>
      <trkpt lat="51.57954" lon="6.57768">
        <ele>72.116881</ele>
        <time>2023-06-26T09:17:03.234Z</time>
      </trkpt>
      <trkpt lat="51.57946" lon="6.5778">
        <ele>71.98152</ele>
        <time>2023-06-26T09:17:08.239Z</time>
      </trkpt>
      <trkpt lat="51.57936" lon="6.57793">
        <ele>71.83978</ele>
        <time>2023-06-26T09:17:12.233Z</time>
      </trkpt>
      <trkpt lat="51.57927" lon="6.57808">
        <ele>71.682303</ele>
        <time>2023-06-26T09:17:15.242Z</time>
      </trkpt>
      <trkpt lat="51.5792" lon="6.57818">
        <ele>71.569815</ele>
        <time>2023-06-26T09:17:17.241Z</time>
      </trkpt>
      <trkpt lat="51.57913" lon="6.57829">
        <ele>71.457328</ele>
        <time>2023-06-26T09:17:19.242Z</time>
      </trkpt>
      <trkpt lat="51.57905" lon="6.57839">
        <ele>71.337724</ele>
        <time>2023-06-26T09:17:21.245Z</time>
      </trkpt>
      <trkpt lat="51.57897" lon="6.5785">
        <ele>71.214683</ele>
        <time>2023-06-26T09:17:23.230Z</time>
      </trkpt>
      <trkpt lat="51.5789" lon="6.57862">
        <ele>71.087419</ele>
        <time>2023-06-26T09:17:25.236Z</time>
      </trkpt>
      <trkpt lat="51.57881" lon="6.57873">
        <ele>70.958994</ele>
        <time>2023-06-26T09:17:27.239Z</time>
      </trkpt>
      <trkpt lat="51.57872" lon="6.57885">
        <ele>70.821927</ele>
        <time>2023-06-26T09:17:29.229Z</time>
      </trkpt>
      <trkpt lat="51.57863" lon="6.57897">
        <ele>70.679238</ele>
        <time>2023-06-26T09:17:31.231Z</time>
      </trkpt>
      <trkpt lat="51.57854" lon="6.5791">
        <ele>70.54401</ele>
        <time>2023-06-26T09:17:33.231Z</time>
      </trkpt>
      <trkpt lat="51.57845" lon="6.57924">
        <ele>70.499622</ele>
        <time>2023-06-26T09:17:35.238Z</time>
      </trkpt>
      <trkpt lat="51.57835" lon="6.57937">
        <ele>70.484896</ele>
        <time>2023-06-26T09:17:37.234Z</time>
      </trkpt>
      <trkpt lat="51.57826" lon="6.5795">
        <ele>70.470897</ele>
        <time>2023-06-26T09:17:39.235Z</time>
      </trkpt>
      <trkpt lat="51.57817" lon="6.57963">
        <ele>70.457017</ele>
        <time>2023-06-26T09:17:41.247Z</time>
      </trkpt>
      <trkpt lat="51.57808" lon="6.57976">
        <ele>70.443125</ele>
        <time>2023-06-26T09:17:43.219Z</time>
      </trkpt>
      <trkpt lat="51.57799" lon="6.57988">
        <ele>70.42913</ele>
        <time>2023-06-26T09:17:45.233Z</time>
      </trkpt>
      <trkpt lat="51.5779" lon="6.58">
        <ele>70.415542</ele>
        <time>2023-06-26T09:17:47.244Z</time>
      </trkpt>
      <trkpt lat="51.57781" lon="6.58012">
        <ele>70.402129</ele>
        <time>2023-06-26T09:17:49.238Z</time>
      </trkpt>
      <trkpt lat="51.57773" lon="6.58023">
        <ele>70.389668</ele>
        <time>2023-06-26T09:17:51.243Z</time>
      </trkpt>
      <trkpt lat="51.57765" lon="6.58033">
        <ele>70.377614</ele>
        <time>2023-06-26T09:17:53.214Z</time>
      </trkpt>
      <trkpt lat="51.57756" lon="6.58042">
        <ele>70.365804</ele>
        <time>2023-06-26T09:17:55.235Z</time>
      </trkpt>
      <trkpt lat="51.57748" lon="6.58051">
        <ele>70.35467</ele>
        <time>2023-06-26T09:17:57.258Z</time>
      </trkpt>
      <trkpt lat="51.5774" lon="6.58058">
        <ele>70.343831</ele>
        <time>2023-06-26T09:17:59.233Z</time>
      </trkpt>
      <trkpt lat="51.57729" lon="6.5807">
        <ele>70.328452</ele>
        <time>2023-06-26T09:18:02.258Z</time>
      </trkpt>
      <trkpt lat="51.57718" lon="6.58079">
        <ele>70.314423</ele>
        <time>2023-06-26T09:18:05.245Z</time>
      </trkpt>
      <trkpt lat="51.57708" lon="6.58086">
        <ele>70.32251</ele>
        <time>2023-06-26T09:18:08.238Z</time>
      </trkpt>
      <trkpt lat="51.577" lon="6.58096">
        <ele>70.573814</ele>
        <time>2023-06-26T09:18:12.255Z</time>
      </trkpt>
      <trkpt lat="51.5771" lon="6.58103">
        <ele>70.839019</ele>
        <time>2023-06-26T09:18:17.240Z</time>
      </trkpt>
      <trkpt lat="51.57712" lon="6.58122">
        <ele>71.128692</ele>
        <time>2023-06-26T09:18:21.221Z</time>
      </trkpt>
      <trkpt lat="51.57708" lon="6.58136">
        <ele>71.376215</ele>
        <time>2023-06-26T09:18:24.227Z</time>
      </trkpt>
      <trkpt lat="51.57705" lon="6.58152">
        <ele>71.617464</ele>
        <time>2023-06-26T09:18:27.222Z</time>
      </trkpt>
      <trkpt lat="51.57698" lon="6.58165">
        <ele>71.884326</ele>
        <time>2023-06-26T09:18:30.227Z</time>
      </trkpt>
      <trkpt lat="51.57691" lon="6.5818">
        <ele>72.1643</ele>
        <time>2023-06-26T09:18:33.215Z</time>
      </trkpt>
      <trkpt lat="51.57683" lon="6.58192">
        <ele>72.441434</ele>
        <time>2023-06-26T09:18:36.210Z</time>
      </trkpt>
      <trkpt lat="51.57675" lon="6.58204">
        <ele>72.704123</ele>
        <time>2023-06-26T09:18:39.229Z</time>
      </trkpt>
      <trkpt lat="51.57666" lon="6.58217">
        <ele>72.984762</ele>
        <time>2023-06-26T09:18:42.232Z</time>
      </trkpt>
      <trkpt lat="51.57658" lon="6.58226">
        <ele>73.236967</ele>
        <time>2023-06-26T09:18:45.243Z</time>
      </trkpt>
      <trkpt lat="51.57651" lon="6.58238">
        <ele>73.472804</ele>
        <time>2023-06-26T09:18:48.228Z</time>
      </trkpt>
      <trkpt lat="51.57643" lon="6.58249">
        <ele>73.739529</ele>
        <time>2023-06-26T09:18:51.245Z</time>
      </trkpt>
      <trkpt lat="51.57635" lon="6.58261">
        <ele>74.012727</ele>
        <time>2023-06-26T09:18:54.233Z</time>
      </trkpt>
      <trkpt lat="51.57627" lon="6.58276">
        <ele>74.30738</ele>
        <time>2023-06-26T09:18:57.228Z</time>
      </trkpt>
      <trkpt lat="51.57617" lon="6.58288">
        <ele>74.613633</ele>
        <time>2023-06-26T09:19:00.231Z</time>
      </trkpt>
      <trkpt lat="51.57607" lon="6.58302">
        <ele>74.75904</ele>
        <time>2023-06-26T09:19:03.224Z</time>
      </trkpt>
      <trkpt lat="51.57596" lon="6.58316">
        <ele>74.847597</ele>
        <time>2023-06-26T09:19:06.220Z</time>
      </trkpt>
      <trkpt lat="51.57589" lon="6.58326">
        <ele>74.911582</ele>
        <time>2023-06-26T09:19:08.221Z</time>
      </trkpt>
      <trkpt lat="51.57581" lon="6.58336">
        <ele>74.975301</ele>
        <time>2023-06-26T09:19:10.239Z</time>
      </trkpt>
      <trkpt lat="51.57574" lon="6.58347">
        <ele>75.043159</ele>
        <time>2023-06-26T09:19:12.218Z</time>
      </trkpt>
      <trkpt lat="51.57566" lon="6.58358">
        <ele>75.109433</ele>
        <time>2023-06-26T09:19:14.227Z</time>
      </trkpt>
      <trkpt lat="51.57558" lon="6.58369">
        <ele>75.176272</ele>
        <time>2023-06-26T09:19:16.213Z</time>
      </trkpt>
      <trkpt lat="51.5755" lon="6.58381">
        <ele>75.247001</ele>
        <time>2023-06-26T09:19:18.235Z</time>
      </trkpt>
      <trkpt lat="51.57542" lon="6.58392">
        <ele>75.317352</ele>
        <time>2023-06-26T09:19:20.242Z</time>
      </trkpt>
      <trkpt lat="51.57534" lon="6.58403">
        <ele>75.385969</ele>
        <time>2023-06-26T09:19:22.246Z</time>
      </trkpt>
      <trkpt lat="51.57525" lon="6.58414">
        <ele>75.458875</ele>
        <time>2023-06-26T09:19:24.227Z</time>
      </trkpt>
      <trkpt lat="51.57517" lon="6.58425">
        <ele>75.532281</ele>
        <time>2023-06-26T09:19:26.250Z</time>
      </trkpt>
      <trkpt lat="51.57508" lon="6.58437">
        <ele>75.605503</ele>
        <time>2023-06-26T09:19:28.244Z</time>
      </trkpt>
      <trkpt lat="51.575" lon="6.58449">
        <ele>75.67819</ele>
        <time>2023-06-26T09:19:30.230Z</time>
      </trkpt>
      <trkpt lat="51.57492" lon="6.58461">
        <ele>75.749893</ele>
        <time>2023-06-26T09:19:32.226Z</time>
      </trkpt>
      <trkpt lat="51.57483" lon="6.58471">
        <ele>75.82024</ele>
        <time>2023-06-26T09:19:34.250Z</time>
      </trkpt>
      <trkpt lat="51.57475" lon="6.58482">
        <ele>75.869619</ele>
        <time>2023-06-26T09:19:36.230Z</time>
      </trkpt>
      <trkpt lat="51.57467" lon="6.58494">
        <ele>75.867299</ele>
        <time>2023-06-26T09:19:38.230Z</time>
      </trkpt>
      <trkpt lat="51.57458" lon="6.58506">
        <ele>75.864924</ele>
        <time>2023-06-26T09:19:40.232Z</time>
      </trkpt>
      <trkpt lat="51.57449" lon="6.58517">
        <ele>75.862567</ele>
        <time>2023-06-26T09:19:42.230Z</time>
      </trkpt>
      <trkpt lat="51.57441" lon="6.58529">
        <ele>75.860143</ele>
        <time>2023-06-26T09:19:44.226Z</time>
      </trkpt>
      <trkpt lat="51.57432" lon="6.58541">
        <ele>75.857783</ele>
        <time>2023-06-26T09:19:46.230Z</time>
      </trkpt>
      <trkpt lat="51.57424" lon="6.58553">
        <ele>75.855324</ele>
        <time>2023-06-26T09:19:48.233Z</time>
      </trkpt>
      <trkpt lat="51.57415" lon="6.58566">
        <ele>75.852915</ele>
        <time>2023-06-26T09:19:50.225Z</time>
      </trkpt>
      <trkpt lat="51.57406" lon="6.58577">
        <ele>75.85054</ele>
        <time>2023-06-26T09:19:52.241Z</time>
      </trkpt>
      <trkpt lat="51.57397" lon="6.5859">
        <ele>75.848014</ele>
        <time>2023-06-26T09:19:54.239Z</time>
      </trkpt>
      <trkpt lat="51.57388" lon="6.58602">
        <ele>75.845542</ele>
        <time>2023-06-26T09:19:56.245Z</time>
      </trkpt>
      <trkpt lat="51.57379" lon="6.58614">
        <ele>75.84306</ele>
        <time>2023-06-26T09:19:58.228Z</time>
      </trkpt>
      <trkpt lat="51.57371" lon="6.58626">
        <ele>75.840694</ele>
        <time>2023-06-26T09:20:00.228Z</time>
      </trkpt>
      <trkpt lat="51.57362" lon="6.58638">
        <ele>75.838161</ele>
        <time>2023-06-26T09:20:02.230Z</time>
      </trkpt>
      <trkpt lat="51.57353" lon="6.58651">
        <ele>75.835717</ele>
        <time>2023-06-26T09:20:04.225Z</time>
      </trkpt>
      <trkpt lat="51.57344" lon="6.58663">
        <ele>75.833195</ele>
        <time>2023-06-26T09:20:06.229Z</time>
      </trkpt>
      <trkpt lat="51.57335" lon="6.58676">
        <ele>75.829287</ele>
        <time>2023-06-26T09:20:08.234Z</time>
      </trkpt>
      <trkpt lat="51.57326" lon="6.58688">
        <ele>75.824547</ele>
        <time>2023-06-26T09:20:10.228Z</time>
      </trkpt>
      <trkpt lat="51.57318" lon="6.587">
        <ele>75.819804</ele>
        <time>2023-06-26T09:20:12.250Z</time>
      </trkpt>
      <trkpt lat="51.57309" lon="6.58712">
        <ele>75.815144</ele>
        <time>2023-06-26T09:20:14.226Z</time>
      </trkpt>
      <trkpt lat="51.573" lon="6.58725">
        <ele>75.810292</ele>
        <time>2023-06-26T09:20:16.228Z</time>
      </trkpt>
      <trkpt lat="51.57291" lon="6.58737">
        <ele>75.805691</ele>
        <time>2023-06-26T09:20:18.225Z</time>
      </trkpt>
      <trkpt lat="51.57282" lon="6.58749">
        <ele>75.800967</ele>
        <time>2023-06-26T09:20:20.235Z</time>
      </trkpt>
      <trkpt lat="51.57274" lon="6.58761">
        <ele>75.796382</ele>
        <time>2023-06-26T09:20:22.244Z</time>
      </trkpt>
      <trkpt lat="51.57266" lon="6.58772">
        <ele>75.791989</ele>
        <time>2023-06-26T09:20:24.215Z</time>
      </trkpt>
      <trkpt lat="51.57257" lon="6.58783">
        <ele>75.787565</ele>
        <time>2023-06-26T09:20:26.225Z</time>
      </trkpt>
      <trkpt lat="51.57249" lon="6.58794">
        <ele>75.783235</ele>
        <time>2023-06-26T09:20:28.238Z</time>
      </trkpt>
      <trkpt lat="51.57241" lon="6.58805">
        <ele>75.77903</ele>
        <time>2023-06-26T09:20:30.231Z</time>
      </trkpt>
      <trkpt lat="51.57234" lon="6.58816">
        <ele>75.774911</ele>
        <time>2023-06-26T09:20:32.228Z</time>
      </trkpt>
      <trkpt lat="51.57227" lon="6.58827">
        <ele>75.771119</ele>
        <time>2023-06-26T09:20:34.218Z</time>
      </trkpt>
      <trkpt lat="51.5722" lon="6.58837">
        <ele>75.767345</ele>
        <time>2023-06-26T09:20:36.229Z</time>
      </trkpt>
      <trkpt lat="51.5721" lon="6.58852">
        <ele>75.761776</ele>
        <time>2023-06-26T09:20:39.229Z</time>
      </trkpt>
      <trkpt lat="51.57203" lon="6.58861">
        <ele>75.750754</ele>
        <time>2023-06-26T09:20:41.243Z</time>
      </trkpt>
      <trkpt lat="51.57196" lon="6.5887">
        <ele>75.726746</ele>
        <time>2023-06-26T09:20:43.226Z</time>
      </trkpt>
      <trkpt lat="51.57186" lon="6.58885">
        <ele>75.692434</ele>
        <time>2023-06-26T09:20:46.206Z</time>
      </trkpt>
      <trkpt lat="51.57176" lon="6.58898">
        <ele>75.658301</ele>
        <time>2023-06-26T09:20:49.236Z</time>
      </trkpt>
      <trkpt lat="51.57168" lon="6.58907">
        <ele>75.63449</ele>
        <time>2023-06-26T09:20:51.228Z</time>
      </trkpt>
      <trkpt lat="51.57161" lon="6.58916">
        <ele>75.609842</ele>
        <time>2023-06-26T09:20:53.218Z</time>
      </trkpt>
      <trkpt lat="51.57153" lon="6.58925">
        <ele>75.584518</ele>
        <time>2023-06-26T09:20:55.225Z</time>
      </trkpt>
      <trkpt lat="51.57145" lon="6.58934">
        <ele>75.559658</ele>
        <time>2023-06-26T09:20:57.231Z</time>
      </trkpt>
      <trkpt lat="51.57136" lon="6.58943">
        <ele>75.532975</ele>
        <time>2023-06-26T09:20:59.229Z</time>
      </trkpt>
      <trkpt lat="51.57127" lon="6.5895">
        <ele>75.506475</ele>
        <time>2023-06-26T09:21:01.215Z</time>
      </trkpt>
      <trkpt lat="51.57118" lon="6.58957">
        <ele>75.479095</ele>
        <time>2023-06-26T09:21:03.238Z</time>
      </trkpt>
      <trkpt lat="51.57107" lon="6.58959">
        <ele>75.450258</ele>
        <time>2023-06-26T09:21:05.223Z</time>
      </trkpt>
      <trkpt lat="51.57096" lon="6.58959">
        <ele>75.421632</ele>
        <time>2023-06-26T09:21:07.230Z</time>
      </trkpt>
      <trkpt lat="51.57085" lon="6.58957">
        <ele>75.393922</ele>
        <time>2023-06-26T09:21:09.211Z</time>
      </trkpt>
      <trkpt lat="51.57074" lon="6.58952">
        <ele>75.36517</ele>
        <time>2023-06-26T09:21:11.235Z</time>
      </trkpt>
      <trkpt lat="51.57065" lon="6.58944">
        <ele>75.3376</ele>
        <time>2023-06-26T09:21:13.236Z</time>
      </trkpt>
      <trkpt lat="51.57058" lon="6.58934">
        <ele>75.31313</ele>
        <time>2023-06-26T09:21:15.227Z</time>
      </trkpt>
      <trkpt lat="51.57052" lon="6.58924">
        <ele>75.287489</ele>
        <time>2023-06-26T09:21:17.235Z</time>
      </trkpt>
      <trkpt lat="51.57043" lon="6.58911">
        <ele>75.227441</ele>
        <time>2023-06-26T09:21:20.222Z</time>
      </trkpt>
      <trkpt lat="51.57035" lon="6.58901">
        <ele>75.174858</ele>
        <time>2023-06-26T09:21:23.219Z</time>
      </trkpt>
      <trkpt lat="51.57026" lon="6.58908">
        <ele>75.126678</ele>
        <time>2023-06-26T09:21:26.223Z</time>
      </trkpt>
      <trkpt lat="51.5702" lon="6.5892">
        <ele>75.075195</ele>
        <time>2023-06-26T09:21:30.223Z</time>
      </trkpt>
      <trkpt lat="51.57012" lon="6.58928">
        <ele>75.027288</ele>
        <time>2023-06-26T09:21:48.219Z</time>
      </trkpt>
      <trkpt lat="51.57002" lon="6.58935">
        <ele>74.970301</ele>
        <time>2023-06-26T09:21:51.231Z</time>
      </trkpt>
      <trkpt lat="51.56992" lon="6.58935">
        <ele>74.922482</ele>
        <time>2023-06-26T09:21:53.227Z</time>
      </trkpt>
      <trkpt lat="51.56983" lon="6.58932">
        <ele>74.873412</ele>
        <time>2023-06-26T09:21:55.215Z</time>
      </trkpt>
      <trkpt lat="51.56974" lon="6.5893">
        <ele>74.826074</ele>
        <time>2023-06-26T09:21:57.218Z</time>
      </trkpt>
      <trkpt lat="51.56965" lon="6.58926">
        <ele>74.776764</ele>
        <time>2023-06-26T09:21:59.218Z</time>
      </trkpt>
      <trkpt lat="51.56955" lon="6.58922">
        <ele>74.727108</ele>
        <time>2023-06-26T09:22:01.228Z</time>
      </trkpt>
      <trkpt lat="51.56946" lon="6.58918">
        <ele>74.677785</ele>
        <time>2023-06-26T09:22:03.218Z</time>
      </trkpt>
      <trkpt lat="51.56937" lon="6.58914">
        <ele>74.628231</ele>
        <time>2023-06-26T09:22:05.235Z</time>
      </trkpt>
      <trkpt lat="51.56928" lon="6.58909">
        <ele>74.578908</ele>
        <time>2023-06-26T09:22:07.236Z</time>
      </trkpt>
      <trkpt lat="51.56918" lon="6.58906">
        <ele>74.526749</ele>
        <time>2023-06-26T09:22:09.232Z</time>
      </trkpt>
      <trkpt lat="51.56908" lon="6.58901">
        <ele>74.477047</ele>
        <time>2023-06-26T09:22:11.235Z</time>
      </trkpt>
      <trkpt lat="51.56898" lon="6.58896">
        <ele>74.423418</ele>
        <time>2023-06-26T09:22:13.222Z</time>
      </trkpt>
      <trkpt lat="51.56889" lon="6.5889">
        <ele>74.372633</ele>
        <time>2023-06-26T09:22:15.225Z</time>
      </trkpt>
      <trkpt lat="51.5688" lon="6.58886">
        <ele>74.306887</ele>
        <time>2023-06-26T09:22:17.247Z</time>
      </trkpt>
      <trkpt lat="51.5687" lon="6.5888">
        <ele>74.235853</ele>
        <time>2023-06-26T09:22:19.226Z</time>
      </trkpt>
      <trkpt lat="51.5686" lon="6.58873">
        <ele>74.164298</ele>
        <time>2023-06-26T09:22:21.233Z</time>
      </trkpt>
      <trkpt lat="51.5685" lon="6.58867">
        <ele>74.091373</ele>
        <time>2023-06-26T09:22:23.216Z</time>
      </trkpt>
      <trkpt lat="51.5684" lon="6.58861">
        <ele>74.020339</ele>
        <time>2023-06-26T09:22:25.238Z</time>
      </trkpt>
      <trkpt lat="51.5683" lon="6.58856">
        <ele>73.949945</ele>
        <time>2023-06-26T09:22:27.244Z</time>
      </trkpt>
      <trkpt lat="51.56821" lon="6.58851">
        <ele>73.882889</ele>
        <time>2023-06-26T09:22:29.234Z</time>
      </trkpt>
      <trkpt lat="51.56811" lon="6.58846">
        <ele>73.815406</ele>
        <time>2023-06-26T09:22:31.239Z</time>
      </trkpt>
      <trkpt lat="51.56801" lon="6.58841">
        <ele>73.744629</ele>
        <time>2023-06-26T09:22:33.224Z</time>
      </trkpt>
      <trkpt lat="51.56792" lon="6.58835">
        <ele>73.674665</ele>
        <time>2023-06-26T09:22:35.234Z</time>
      </trkpt>
      <trkpt lat="51.56782" lon="6.58829">
        <ele>73.602803</ele>
        <time>2023-06-26T09:22:37.242Z</time>
      </trkpt>
      <trkpt lat="51.56772" lon="6.58822">
        <ele>73.529392</ele>
        <time>2023-06-26T09:22:39.226Z</time>
      </trkpt>
      <trkpt lat="51.56761" lon="6.58817">
        <ele>73.457586</ele>
        <time>2023-06-26T09:22:41.228Z</time>
      </trkpt>
      <trkpt lat="51.56751" lon="6.58811">
        <ele>73.386419</ele>
        <time>2023-06-26T09:22:43.237Z</time>
      </trkpt>
      <trkpt lat="51.56742" lon="6.58807">
        <ele>73.320898</ele>
        <time>2023-06-26T09:22:45.230Z</time>
      </trkpt>
      <trkpt lat="51.56732" lon="6.58803">
        <ele>73.253339</ele>
        <time>2023-06-26T09:22:47.228Z</time>
      </trkpt>
      <trkpt lat="51.56722" lon="6.58799">
        <ele>73.182701</ele>
        <time>2023-06-26T09:22:49.230Z</time>
      </trkpt>
      <trkpt lat="51.56713" lon="6.58794">
        <ele>73.176105</ele>
        <time>2023-06-26T09:22:51.234Z</time>
      </trkpt>
      <trkpt lat="51.56703" lon="6.58791">
        <ele>73.212191</ele>
        <time>2023-06-26T09:22:53.229Z</time>
      </trkpt>
      <trkpt lat="51.56694" lon="6.58788">
        <ele>73.247788</ele>
        <time>2023-06-26T09:22:55.229Z</time>
      </trkpt>
      <trkpt lat="51.56681" lon="6.58785">
        <ele>73.297699</ele>
        <time>2023-06-26T09:22:58.233Z</time>
      </trkpt>
      <trkpt lat="51.56668" lon="6.5878">
        <ele>73.345852</ele>
        <time>2023-06-26T09:23:01.231Z</time>
      </trkpt>
      <trkpt lat="51.56656" lon="6.58775">
        <ele>73.394545</ele>
        <time>2023-06-26T09:23:04.240Z</time>
      </trkpt>
      <trkpt lat="51.56643" lon="6.58771">
        <ele>73.444401</ele>
        <time>2023-06-26T09:23:07.232Z</time>
      </trkpt>
      <trkpt lat="51.5663" lon="6.58767">
        <ele>73.492778</ele>
        <time>2023-06-26T09:23:10.238Z</time>
      </trkpt>
      <trkpt lat="51.56618" lon="6.58765">
        <ele>73.538175</ele>
        <time>2023-06-26T09:23:13.238Z</time>
      </trkpt>
      <trkpt lat="51.56608" lon="6.58763">
        <ele>73.577629</ele>
        <time>2023-06-26T09:23:16.226Z</time>
      </trkpt>
      <trkpt lat="51.56599" lon="6.5876">
        <ele>73.613084</ele>
        <time>2023-06-26T09:23:19.238Z</time>
      </trkpt>
      <trkpt lat="51.5659" lon="6.58757">
        <ele>73.647782</ele>
        <time>2023-06-26T09:23:22.238Z</time>
      </trkpt>
      <trkpt lat="51.56579" lon="6.58753">
        <ele>73.689793</ele>
        <time>2023-06-26T09:23:25.238Z</time>
      </trkpt>
      <trkpt lat="51.56566" lon="6.58749">
        <ele>73.738778</ele>
        <time>2023-06-26T09:23:28.221Z</time>
      </trkpt>
      <trkpt lat="51.56553" lon="6.58746">
        <ele>73.788215</ele>
        <time>2023-06-26T09:23:31.210Z</time>
      </trkpt>
      <trkpt lat="51.56544" lon="6.58743">
        <ele>73.823253</ele>
        <time>2023-06-26T09:23:33.228Z</time>
      </trkpt>
      <trkpt lat="51.56535" lon="6.5874">
        <ele>73.858291</ele>
        <time>2023-06-26T09:23:35.225Z</time>
      </trkpt>
      <trkpt lat="51.56526" lon="6.58737">
        <ele>73.894557</ele>
        <time>2023-06-26T09:23:37.230Z</time>
      </trkpt>
      <trkpt lat="51.56517" lon="6.58734">
        <ele>73.930602</ele>
        <time>2023-06-26T09:23:39.234Z</time>
      </trkpt>
      <trkpt lat="51.56507" lon="6.5873">
        <ele>73.968259</ele>
        <time>2023-06-26T09:23:41.231Z</time>
      </trkpt>
      <trkpt lat="51.56498" lon="6.58727">
        <ele>74.004526</ele>
        <time>2023-06-26T09:23:43.231Z</time>
      </trkpt>
      <trkpt lat="51.56488" lon="6.58725">
        <ele>74.041747</ele>
        <time>2023-06-26T09:23:45.231Z</time>
      </trkpt>
      <trkpt lat="51.56479" lon="6.58721">
        <ele>74.080708</ele>
        <time>2023-06-26T09:23:47.221Z</time>
      </trkpt>
      <trkpt lat="51.56469" lon="6.58719">
        <ele>74.119111</ele>
        <time>2023-06-26T09:23:49.246Z</time>
      </trkpt>
      <trkpt lat="51.56459" lon="6.58715">
        <ele>74.159351</ele>
        <time>2023-06-26T09:23:51.232Z</time>
      </trkpt>
      <trkpt lat="51.56448" lon="6.58712">
        <ele>74.199197</ele>
        <time>2023-06-26T09:23:53.222Z</time>
      </trkpt>
      <trkpt lat="51.56438" lon="6.58709">
        <ele>74.239963</ele>
        <time>2023-06-26T09:23:55.233Z</time>
      </trkpt>
      <trkpt lat="51.56428" lon="6.58706">
        <ele>74.280106</ele>
        <time>2023-06-26T09:23:57.226Z</time>
      </trkpt>
      <trkpt lat="51.56417" lon="6.58703">
        <ele>74.320959</ele>
        <time>2023-06-26T09:23:59.227Z</time>
      </trkpt>
      <trkpt lat="51.56407" lon="6.587">
        <ele>74.362192</ele>
        <time>2023-06-26T09:24:01.230Z</time>
      </trkpt>
      <trkpt lat="51.56396" lon="6.58697">
        <ele>74.403718</ele>
        <time>2023-06-26T09:24:03.221Z</time>
      </trkpt>
      <trkpt lat="51.56386" lon="6.58693">
        <ele>74.445243</ele>
        <time>2023-06-26T09:24:05.254Z</time>
      </trkpt>
      <trkpt lat="51.56375" lon="6.58689">
        <ele>74.487042</ele>
        <time>2023-06-26T09:24:07.238Z</time>
      </trkpt>
      <trkpt lat="51.56365" lon="6.58686">
        <ele>74.521735</ele>
        <time>2023-06-26T09:24:09.234Z</time>
      </trkpt>
      <trkpt lat="51.56354" lon="6.58684">
        <ele>74.470722</ele>
        <time>2023-06-26T09:24:11.226Z</time>
      </trkpt>
      <trkpt lat="51.56343" lon="6.58681">
        <ele>74.417318</ele>
        <time>2023-06-26T09:24:13.221Z</time>
      </trkpt>
      <trkpt lat="51.56332" lon="6.58678">
        <ele>74.365789</ele>
        <time>2023-06-26T09:24:15.226Z</time>
      </trkpt>
      <trkpt lat="51.56321" lon="6.58674">
        <ele>74.312421</ele>
        <time>2023-06-26T09:24:17.222Z</time>
      </trkpt>
      <trkpt lat="51.56311" lon="6.58671">
        <ele>74.261828</ele>
        <time>2023-06-26T09:24:19.255Z</time>
      </trkpt>
      <trkpt lat="51.563" lon="6.58668">
        <ele>74.211021</ele>
        <time>2023-06-26T09:24:21.230Z</time>
      </trkpt>
      <trkpt lat="51.5629" lon="6.58664">
        <ele>74.16143</ele>
        <time>2023-06-26T09:24:23.214Z</time>
      </trkpt>
      <trkpt lat="51.5628" lon="6.58662">
        <ele>74.113969</ele>
        <time>2023-06-26T09:24:25.242Z</time>
      </trkpt>
      <trkpt lat="51.5627" lon="6.58659">
        <ele>74.065195</ele>
        <time>2023-06-26T09:24:27.244Z</time>
      </trkpt>
      <trkpt lat="51.5626" lon="6.58655">
        <ele>74.01686</ele>
        <time>2023-06-26T09:24:29.240Z</time>
      </trkpt>
      <trkpt lat="51.56251" lon="6.58653">
        <ele>73.972812</ele>
        <time>2023-06-26T09:24:31.247Z</time>
      </trkpt>
      <trkpt lat="51.56241" lon="6.58651">
        <ele>73.927273</ele>
        <time>2023-06-26T09:24:33.216Z</time>
      </trkpt>
      <trkpt lat="51.56232" lon="6.58649">
        <ele>73.882318</ele>
        <time>2023-06-26T09:24:35.231Z</time>
      </trkpt>
      <trkpt lat="51.56222" lon="6.58648">
        <ele>73.835211</ele>
        <time>2023-06-26T09:24:37.235Z</time>
      </trkpt>
      <trkpt lat="51.56212" lon="6.58647">
        <ele>73.788537</ele>
        <time>2023-06-26T09:24:39.232Z</time>
      </trkpt>
      <trkpt lat="51.56202" lon="6.58647">
        <ele>73.741998</ele>
        <time>2023-06-26T09:24:41.239Z</time>
      </trkpt>
      <trkpt lat="51.56193" lon="6.58648">
        <ele>73.69591</ele>
        <time>2023-06-26T09:24:43.235Z</time>
      </trkpt>
      <trkpt lat="51.56184" lon="6.5865">
        <ele>73.677697</ele>
        <time>2023-06-26T09:24:45.233Z</time>
      </trkpt>
      <trkpt lat="51.56175" lon="6.58653">
        <ele>73.692367</ele>
        <time>2023-06-26T09:24:47.241Z</time>
      </trkpt>
      <trkpt lat="51.56165" lon="6.58655">
        <ele>73.70755</ele>
        <time>2023-06-26T09:24:49.245Z</time>
      </trkpt>
      <trkpt lat="51.56156" lon="6.58656">
        <ele>73.722639</ele>
        <time>2023-06-26T09:24:51.234Z</time>
      </trkpt>
      <trkpt lat="51.56146" lon="6.58658">
        <ele>73.737741</ele>
        <time>2023-06-26T09:24:53.214Z</time>
      </trkpt>
      <trkpt lat="51.56137" lon="6.58661">
        <ele>73.753124</ele>
        <time>2023-06-26T09:24:55.202Z</time>
      </trkpt>
      <trkpt lat="51.56127" lon="6.58664">
        <ele>73.768728</ele>
        <time>2023-06-26T09:24:57.232Z</time>
      </trkpt>
      <trkpt lat="51.56117" lon="6.58666">
        <ele>73.784213</ele>
        <time>2023-06-26T09:24:59.231Z</time>
      </trkpt>
      <trkpt lat="51.56107" lon="6.58667">
        <ele>73.80046</ele>
        <time>2023-06-26T09:25:01.233Z</time>
      </trkpt>
      <trkpt lat="51.56097" lon="6.5867">
        <ele>73.815771</ele>
        <time>2023-06-26T09:25:03.265Z</time>
      </trkpt>
      <trkpt lat="51.56088" lon="6.58673">
        <ele>73.831566</ele>
        <time>2023-06-26T09:25:05.217Z</time>
      </trkpt>
      <trkpt lat="51.56078" lon="6.58676">
        <ele>73.84692</ele>
        <time>2023-06-26T09:25:07.229Z</time>
      </trkpt>
      <trkpt lat="51.56069" lon="6.58678">
        <ele>73.861476</ele>
        <time>2023-06-26T09:25:09.234Z</time>
      </trkpt>
      <trkpt lat="51.5606" lon="6.5868">
        <ele>73.875782</ele>
        <time>2023-06-26T09:25:11.249Z</time>
      </trkpt>
      <trkpt lat="51.56051" lon="6.58681">
        <ele>73.890705</ele>
        <time>2023-06-26T09:25:13.229Z</time>
      </trkpt>
      <trkpt lat="51.56041" lon="6.58683">
        <ele>73.906372</ele>
        <time>2023-06-26T09:25:15.231Z</time>
      </trkpt>
      <trkpt lat="51.56032" lon="6.58685">
        <ele>73.920829</ele>
        <time>2023-06-26T09:25:17.236Z</time>
      </trkpt>
      <trkpt lat="51.56023" lon="6.58686">
        <ele>73.935295</ele>
        <time>2023-06-26T09:25:19.230Z</time>
      </trkpt>
      <trkpt lat="51.56013" lon="6.58685">
        <ele>73.950376</ele>
        <time>2023-06-26T09:25:21.236Z</time>
      </trkpt>
      <trkpt lat="51.56001" lon="6.58676">
        <ele>73.955228</ele>
        <time>2023-06-26T09:25:24.233Z</time>
      </trkpt>
      <trkpt lat="51.55992" lon="6.58663">
        <ele>73.954047</ele>
        <time>2023-06-26T09:25:27.228Z</time>
      </trkpt>
      <trkpt lat="51.55987" lon="6.58648">
        <ele>73.953027</ele>
        <time>2023-06-26T09:25:30.229Z</time>
      </trkpt>
      <trkpt lat="51.5598" lon="6.58636">
        <ele>73.952052</ele>
        <time>2023-06-26T09:25:33.250Z</time>
      </trkpt>
      <trkpt lat="51.55969" lon="6.58626">
        <ele>73.95086</ele>
        <time>2023-06-26T09:25:37.233Z</time>
      </trkpt>
      <trkpt lat="51.5596" lon="6.58635">
        <ele>73.949767</ele>
        <time>2023-06-26T09:25:40.239Z</time>
      </trkpt>
      <trkpt lat="51.5595" lon="6.58648">
        <ele>73.948524</ele>
        <time>2023-06-26T09:25:43.240Z</time>
      </trkpt>
      <trkpt lat="51.55938" lon="6.58661">
        <ele>73.947214</ele>
        <time>2023-06-26T09:25:46.231Z</time>
      </trkpt>
      <trkpt lat="51.55927" lon="6.58673">
        <ele>73.945903</ele>
        <time>2023-06-26T09:25:49.235Z</time>
      </trkpt>
      <trkpt lat="51.55918" lon="6.58681">
        <ele>73.94493</ele>
        <time>2023-06-26T09:25:51.207Z</time>
      </trkpt>
      <trkpt lat="51.55909" lon="6.5869">
        <ele>73.943924</ele>
        <time>2023-06-26T09:25:53.225Z</time>
      </trkpt>
      <trkpt lat="51.55901" lon="6.58699">
        <ele>73.942951</ele>
        <time>2023-06-26T09:25:55.229Z</time>
      </trkpt>
      <trkpt lat="51.55892" lon="6.58707">
        <ele>73.941983</ele>
        <time>2023-06-26T09:25:57.231Z</time>
      </trkpt>
      <trkpt lat="51.55884" lon="6.58716">
        <ele>73.941021</ele>
        <time>2023-06-26T09:25:59.250Z</time>
      </trkpt>
      <trkpt lat="51.55875" lon="6.58724">
        <ele>73.940036</ele>
        <time>2023-06-26T09:26:01.227Z</time>
      </trkpt>
      <trkpt lat="51.55866" lon="6.58733">
        <ele>73.939035</ele>
        <time>2023-06-26T09:26:03.238Z</time>
      </trkpt>
      <trkpt lat="51.55857" lon="6.58741">
        <ele>73.953049</ele>
        <time>2023-06-26T09:26:05.228Z</time>
      </trkpt>
      <trkpt lat="51.55848" lon="6.58749">
        <ele>73.971338</ele>
        <time>2023-06-26T09:26:07.237Z</time>
      </trkpt>
      <trkpt lat="51.5584" lon="6.58758">
        <ele>73.989306</ele>
        <time>2023-06-26T09:26:09.235Z</time>
      </trkpt>
      <trkpt lat="51.55831" lon="6.58767">
        <ele>74.007628</ele>
        <time>2023-06-26T09:26:11.233Z</time>
      </trkpt>
      <trkpt lat="51.55821" lon="6.58775">
        <ele>74.027352</ele>
        <time>2023-06-26T09:26:13.222Z</time>
      </trkpt>
      <trkpt lat="51.55811" lon="6.58785">
        <ele>74.046533</ele>
        <time>2023-06-26T09:26:15.238Z</time>
      </trkpt>
      <trkpt lat="51.55802" lon="6.58794">
        <ele>74.065959</ele>
        <time>2023-06-26T09:26:17.235Z</time>
      </trkpt>
      <trkpt lat="51.55792" lon="6.58804">
        <ele>74.087103</ele>
        <time>2023-06-26T09:26:19.233Z</time>
      </trkpt>
      <trkpt lat="51.55782" lon="6.58813">
        <ele>74.10664</ele>
        <time>2023-06-26T09:26:21.231Z</time>
      </trkpt>
      <trkpt lat="51.55772" lon="6.58823">
        <ele>74.126197</ele>
        <time>2023-06-26T09:26:23.244Z</time>
      </trkpt>
      <trkpt lat="51.55763" lon="6.58833">
        <ele>74.146018</ele>
        <time>2023-06-26T09:26:25.216Z</time>
      </trkpt>
      <trkpt lat="51.55753" lon="6.58841">
        <ele>74.165184</ele>
        <time>2023-06-26T09:26:27.243Z</time>
      </trkpt>
      <trkpt lat="51.55744" lon="6.58851">
        <ele>74.184445</ele>
        <time>2023-06-26T09:26:29.230Z</time>
      </trkpt>
      <trkpt lat="51.55735" lon="6.58859">
        <ele>74.202789</ele>
        <time>2023-06-26T09:26:31.238Z</time>
      </trkpt>
      <trkpt lat="51.55725" lon="6.58869">
        <ele>74.222627</ele>
        <time>2023-06-26T09:26:33.226Z</time>
      </trkpt>
      <trkpt lat="51.55715" lon="6.58877">
        <ele>74.242093</ele>
        <time>2023-06-26T09:26:35.312Z</time>
      </trkpt>
      <trkpt lat="51.55705" lon="6.58888">
        <ele>74.273565</ele>
        <time>2023-06-26T09:26:37.248Z</time>
      </trkpt>
      <trkpt lat="51.55695" lon="6.58898">
        <ele>74.317827</ele>
        <time>2023-06-26T09:26:39.216Z</time>
      </trkpt>
      <trkpt lat="51.55686" lon="6.58907">
        <ele>74.359299</ele>
        <time>2023-06-26T09:26:41.237Z</time>
      </trkpt>
      <trkpt lat="51.55675" lon="6.58916">
        <ele>74.403474</ele>
        <time>2023-06-26T09:26:43.251Z</time>
      </trkpt>
      <trkpt lat="51.55664" lon="6.58925">
        <ele>74.448761</ele>
        <time>2023-06-26T09:26:45.228Z</time>
      </trkpt>
      <trkpt lat="51.55653" lon="6.58932">
        <ele>74.492874</ele>
        <time>2023-06-26T09:26:47.234Z</time>
      </trkpt>
      <trkpt lat="51.55642" lon="6.58938">
        <ele>74.536456</ele>
        <time>2023-06-26T09:26:49.273Z</time>
      </trkpt>
      <trkpt lat="51.55631" lon="6.58942">
        <ele>74.57906</ele>
        <time>2023-06-26T09:26:51.225Z</time>
      </trkpt>
      <trkpt lat="51.55622" lon="6.5895">
        <ele>74.61868</ele>
        <time>2023-06-26T09:26:53.270Z</time>
      </trkpt>
      <trkpt lat="51.55613" lon="6.58959">
        <ele>74.656729</ele>
        <time>2023-06-26T09:26:55.220Z</time>
      </trkpt>
      <trkpt lat="51.55605" lon="6.5897">
        <ele>74.698494</ele>
        <time>2023-06-26T09:26:57.274Z</time>
      </trkpt>
      <trkpt lat="51.55596" lon="6.58981">
        <ele>74.737652</ele>
        <time>2023-06-26T09:26:59.220Z</time>
      </trkpt>
      <trkpt lat="51.55588" lon="6.58993">
        <ele>74.779161</ele>
        <time>2023-06-26T09:27:01.214Z</time>
      </trkpt>
      <trkpt lat="51.5558" lon="6.59004">
        <ele>74.819372</ele>
        <time>2023-06-26T09:27:03.225Z</time>
      </trkpt>
      <trkpt lat="51.55571" lon="6.59016">
        <ele>74.861618</ele>
        <time>2023-06-26T09:27:05.232Z</time>
      </trkpt>
      <trkpt lat="51.55563" lon="6.59028">
        <ele>74.902415</ele>
        <time>2023-06-26T09:27:07.232Z</time>
      </trkpt>
      <trkpt lat="51.55555" lon="6.59039">
        <ele>74.943746</ele>
        <time>2023-06-26T09:27:09.233Z</time>
      </trkpt>
      <trkpt lat="51.55546" lon="6.59051">
        <ele>74.987891</ele>
        <time>2023-06-26T09:27:11.239Z</time>
      </trkpt>
      <trkpt lat="51.55537" lon="6.59064">
        <ele>75.032687</ele>
        <time>2023-06-26T09:27:13.239Z</time>
      </trkpt>
      <trkpt lat="51.55528" lon="6.59076">
        <ele>75.076696</ele>
        <time>2023-06-26T09:27:15.258Z</time>
      </trkpt>
      <trkpt lat="51.5552" lon="6.59088">
        <ele>75.120706</ele>
        <time>2023-06-26T09:27:17.232Z</time>
      </trkpt>
      <trkpt lat="51.55512" lon="6.59101">
        <ele>75.163935</ele>
        <time>2023-06-26T09:27:19.219Z</time>
      </trkpt>
      <trkpt lat="51.55503" lon="6.59113">
        <ele>75.208573</ele>
        <time>2023-06-26T09:27:21.219Z</time>
      </trkpt>
      <trkpt lat="51.55494" lon="6.59126">
        <ele>75.253343</ele>
        <time>2023-06-26T09:27:23.225Z</time>
      </trkpt>
      <trkpt lat="51.55486" lon="6.59138">
        <ele>75.296649</ele>
        <time>2023-06-26T09:27:25.237Z</time>
      </trkpt>
      <trkpt lat="51.55478" lon="6.59152">
        <ele>75.34186</ele>
        <time>2023-06-26T09:27:27.248Z</time>
      </trkpt>
      <trkpt lat="51.55469" lon="6.59165">
        <ele>75.387182</ele>
        <time>2023-06-26T09:27:29.234Z</time>
      </trkpt>
      <trkpt lat="51.55461" lon="6.59178">
        <ele>75.431551</ele>
        <time>2023-06-26T09:27:31.233Z</time>
      </trkpt>
      <trkpt lat="51.55454" lon="6.59193">
        <ele>75.476446</ele>
        <time>2023-06-26T09:27:33.232Z</time>
      </trkpt>
      <trkpt lat="51.55447" lon="6.59207">
        <ele>75.519122</ele>
        <time>2023-06-26T09:27:35.235Z</time>
      </trkpt>
      <trkpt lat="51.55439" lon="6.59221">
        <ele>75.562104</ele>
        <time>2023-06-26T09:27:37.251Z</time>
      </trkpt>
      <trkpt lat="51.55434" lon="6.59236">
        <ele>75.603944</ele>
        <time>2023-06-26T09:27:39.222Z</time>
      </trkpt>
      <trkpt lat="51.55428" lon="6.59251">
        <ele>75.613785</ele>
        <time>2023-06-26T09:27:41.236Z</time>
      </trkpt>
      <trkpt lat="51.55422" lon="6.59265">
        <ele>75.617006</ele>
        <time>2023-06-26T09:27:43.222Z</time>
      </trkpt>
      <trkpt lat="51.55418" lon="6.59279">
        <ele>75.620182</ele>
        <time>2023-06-26T09:27:45.244Z</time>
      </trkpt>
      <trkpt lat="51.55413" lon="6.59293">
        <ele>75.623267</ele>
        <time>2023-06-26T09:27:47.226Z</time>
      </trkpt>
      <trkpt lat="51.55409" lon="6.59307">
        <ele>75.626196</ele>
        <time>2023-06-26T09:27:49.233Z</time>
      </trkpt>
      <trkpt lat="51.55404" lon="6.59326">
        <ele>75.630279</ele>
        <time>2023-06-26T09:27:52.230Z</time>
      </trkpt>
      <trkpt lat="51.55399" lon="6.59344">
        <ele>75.634003</ele>
        <time>2023-06-26T09:27:55.243Z</time>
      </trkpt>
      <trkpt lat="51.55396" lon="6.5936">
        <ele>75.637326</ele>
        <time>2023-06-26T09:27:58.231Z</time>
      </trkpt>
      <trkpt lat="51.55393" lon="6.59374">
        <ele>75.64016</ele>
        <time>2023-06-26T09:28:02.210Z</time>
      </trkpt>
      <trkpt lat="51.55384" lon="6.59375">
        <ele>75.643025</ele>
        <time>2023-06-26T09:28:10.219Z</time>
      </trkpt>
      <trkpt lat="51.55376" lon="6.59363">
        <ele>75.646504</ele>
        <time>2023-06-26T09:28:15.220Z</time>
      </trkpt>
      <trkpt lat="51.55369" lon="6.59353">
        <ele>75.649335</ele>
        <time>2023-06-26T09:28:18.239Z</time>
      </trkpt>
      <trkpt lat="51.5536" lon="6.59347">
        <ele>75.65247</ele>
        <time>2023-06-26T09:28:21.227Z</time>
      </trkpt>
      <trkpt lat="51.55349" lon="6.59345">
        <ele>75.655876</ele>
        <time>2023-06-26T09:28:24.234Z</time>
      </trkpt>
      <trkpt lat="51.55338" lon="6.59345">
        <ele>75.659348</ele>
        <time>2023-06-26T09:28:27.228Z</time>
      </trkpt>
      <trkpt lat="51.55326" lon="6.5935">
        <ele>75.663109</ele>
        <time>2023-06-26T09:28:30.233Z</time>
      </trkpt>
      <trkpt lat="51.55316" lon="6.59362">
        <ele>75.66701</ele>
        <time>2023-06-26T09:28:33.231Z</time>
      </trkpt>
      <trkpt lat="51.55307" lon="6.59377">
        <ele>75.731478</ele>
        <time>2023-06-26T09:28:36.221Z</time>
      </trkpt>
      <trkpt lat="51.55297" lon="6.5939">
        <ele>75.795863</ele>
        <time>2023-06-26T09:28:39.246Z</time>
      </trkpt>
      <trkpt lat="51.55286" lon="6.59399">
        <ele>75.856129</ele>
        <time>2023-06-26T09:28:42.221Z</time>
      </trkpt>
      <trkpt lat="51.55277" lon="6.59412">
        <ele>75.921065</ele>
        <time>2023-06-26T09:28:45.233Z</time>
      </trkpt>
      <trkpt lat="51.5527" lon="6.59422">
        <ele>75.9679</ele>
        <time>2023-06-26T09:28:47.251Z</time>
      </trkpt>
      <trkpt lat="51.55263" lon="6.59431">
        <ele>76.014083</ele>
        <time>2023-06-26T09:28:49.264Z</time>
      </trkpt>
      <trkpt lat="51.55255" lon="6.59441">
        <ele>76.062247</ele>
        <time>2023-06-26T09:28:51.249Z</time>
      </trkpt>
      <trkpt lat="51.55248" lon="6.5945">
        <ele>76.110602</ele>
        <time>2023-06-26T09:28:53.236Z</time>
      </trkpt>
      <trkpt lat="51.55241" lon="6.59461">
        <ele>76.160418</ele>
        <time>2023-06-26T09:28:55.222Z</time>
      </trkpt>
      <trkpt lat="51.55233" lon="6.59471">
        <ele>76.209564</ele>
        <time>2023-06-26T09:28:57.231Z</time>
      </trkpt>
      <trkpt lat="51.55222" lon="6.59484">
        <ele>76.278061</ele>
        <time>2023-06-26T09:29:00.230Z</time>
      </trkpt>
      <trkpt lat="51.55214" lon="6.59497">
        <ele>76.334862</ele>
        <time>2023-06-26T09:29:03.239Z</time>
      </trkpt>
      <trkpt lat="51.55205" lon="6.59498">
        <ele>76.381196</ele>
        <time>2023-06-26T09:29:12.230Z</time>
      </trkpt>
      <trkpt lat="51.55196" lon="6.59497">
        <ele>76.428957</ele>
        <time>2023-06-26T09:29:16.227Z</time>
      </trkpt>
      <trkpt lat="51.55188" lon="6.59509">
        <ele>76.481012</ele>
        <time>2023-06-26T09:29:19.238Z</time>
      </trkpt>
      <trkpt lat="51.55178" lon="6.5952">
        <ele>76.542378</ele>
        <time>2023-06-26T09:29:22.342Z</time>
      </trkpt>
      <trkpt lat="51.55169" lon="6.59532">
        <ele>76.640933</ele>
        <time>2023-06-26T09:29:25.231Z</time>
      </trkpt>
      <trkpt lat="51.55159" lon="6.59545">
        <ele>76.795286</ele>
        <time>2023-06-26T09:29:28.234Z</time>
      </trkpt>
      <trkpt lat="51.5515" lon="6.59558">
        <ele>76.949467</ele>
        <time>2023-06-26T09:29:31.208Z</time>
      </trkpt>
      <trkpt lat="51.55143" lon="6.59567">
        <ele>77.06447</ele>
        <time>2023-06-26T09:29:33.226Z</time>
      </trkpt>
      <trkpt lat="51.55133" lon="6.59582">
        <ele>77.229993</ele>
        <time>2023-06-26T09:29:36.240Z</time>
      </trkpt>
      <trkpt lat="51.55125" lon="6.59591">
        <ele>77.345378</ele>
        <time>2023-06-26T09:29:38.245Z</time>
      </trkpt>
      <trkpt lat="51.55118" lon="6.59601">
        <ele>77.461412</ele>
        <time>2023-06-26T09:29:40.244Z</time>
      </trkpt>
      <trkpt lat="51.55111" lon="6.59611">
        <ele>77.577356</ele>
        <time>2023-06-26T09:29:42.223Z</time>
      </trkpt>
      <trkpt lat="51.55104" lon="6.59621">
        <ele>77.692302</ele>
        <time>2023-06-26T09:29:44.231Z</time>
      </trkpt>
      <trkpt lat="51.55094" lon="6.59635">
        <ele>77.858757</ele>
        <time>2023-06-26T09:29:47.233Z</time>
      </trkpt>
      <trkpt lat="51.55083" lon="6.59647">
        <ele>78.025233</ele>
        <time>2023-06-26T09:29:50.227Z</time>
      </trkpt>
      <trkpt lat="51.55076" lon="6.59658">
        <ele>78.141736</ele>
        <time>2023-06-26T09:29:52.236Z</time>
      </trkpt>
      <trkpt lat="51.55069" lon="6.59668">
        <ele>78.260995</ele>
        <time>2023-06-26T09:29:54.266Z</time>
      </trkpt>
      <trkpt lat="51.55059" lon="6.59681">
        <ele>78.421713</ele>
        <time>2023-06-26T09:29:57.232Z</time>
      </trkpt>
      <trkpt lat="51.55052" lon="6.59692">
        <ele>78.540102</ele>
        <time>2023-06-26T09:29:59.240Z</time>
      </trkpt>
      <trkpt lat="51.55044" lon="6.59701">
        <ele>78.652148</ele>
        <time>2023-06-26T09:30:01.253Z</time>
      </trkpt>
      <trkpt lat="51.55038" lon="6.5971">
        <ele>78.763724</ele>
        <time>2023-06-26T09:30:03.225Z</time>
      </trkpt>
      <trkpt lat="51.55031" lon="6.5972">
        <ele>78.673061</ele>
        <time>2023-06-26T09:30:05.231Z</time>
      </trkpt>
      <trkpt lat="51.55024" lon="6.59731">
        <ele>78.498256</ele>
        <time>2023-06-26T09:30:07.234Z</time>
      </trkpt>
      <trkpt lat="51.55016" lon="6.5974">
        <ele>78.334592</ele>
        <time>2023-06-26T09:30:09.227Z</time>
      </trkpt>
      <trkpt lat="51.5501" lon="6.59751">
        <ele>78.167122</ele>
        <time>2023-06-26T09:30:11.248Z</time>
      </trkpt>
      <trkpt lat="51.55001" lon="6.59766">
        <ele>77.927319</ele>
        <time>2023-06-26T09:30:14.242Z</time>
      </trkpt>
      <trkpt lat="51.54994" lon="6.59783">
        <ele>77.696995</ele>
        <time>2023-06-26T09:30:17.249Z</time>
      </trkpt>
      <trkpt lat="51.54986" lon="6.59799">
        <ele>77.459966</ele>
        <time>2023-06-26T09:30:20.227Z</time>
      </trkpt>
      <trkpt lat="51.54977" lon="6.59816">
        <ele>77.217134</ele>
        <time>2023-06-26T09:30:23.238Z</time>
      </trkpt>
      <trkpt lat="51.54969" lon="6.5983">
        <ele>77.002595</ele>
        <time>2023-06-26T09:30:26.219Z</time>
      </trkpt>
      <trkpt lat="51.54959" lon="6.59819">
        <ele>76.781042</ele>
        <time>2023-06-26T09:30:29.228Z</time>
      </trkpt>
      <trkpt lat="51.54952" lon="6.5981">
        <ele>76.61585</ele>
        <time>2023-06-26T09:30:31.260Z</time>
      </trkpt>
      <trkpt lat="51.54944" lon="6.59799">
        <ele>76.418865</ele>
        <time>2023-06-26T09:30:33.230Z</time>
      </trkpt>
      <trkpt lat="51.54934" lon="6.59789">
        <ele>76.218558</ele>
        <time>2023-06-26T09:30:35.221Z</time>
      </trkpt>
      <trkpt lat="51.54926" lon="6.59781">
        <ele>76.03384</ele>
        <time>2023-06-26T09:30:37.234Z</time>
      </trkpt>
      <trkpt lat="51.54917" lon="6.59775">
        <ele>75.85839</ele>
        <time>2023-06-26T09:30:39.250Z</time>
      </trkpt>
      <trkpt lat="51.54908" lon="6.59768">
        <ele>75.682331</ele>
        <time>2023-06-26T09:30:41.252Z</time>
      </trkpt>
      <trkpt lat="51.54899" lon="6.59762">
        <ele>75.518945</ele>
        <time>2023-06-26T09:30:43.227Z</time>
      </trkpt>
      <trkpt lat="51.5489" lon="6.59755">
        <ele>75.463147</ele>
        <time>2023-06-26T09:30:45.218Z</time>
      </trkpt>
      <trkpt lat="51.54882" lon="6.59747">
        <ele>75.407773</ele>
        <time>2023-06-26T09:30:47.209Z</time>
      </trkpt>
      <trkpt lat="51.54873" lon="6.59737">
        <ele>75.349904</ele>
        <time>2023-06-26T09:30:49.219Z</time>
      </trkpt>
      <trkpt lat="51.54865" lon="6.59727">
        <ele>75.29091</ele>
        <time>2023-06-26T09:30:51.234Z</time>
      </trkpt>
      <trkpt lat="51.54856" lon="6.59716">
        <ele>75.229207</ele>
        <time>2023-06-26T09:30:53.243Z</time>
      </trkpt>
      <trkpt lat="51.54848" lon="6.59704">
        <ele>75.169027</ele>
        <time>2023-06-26T09:30:55.235Z</time>
      </trkpt>
      <trkpt lat="51.54841" lon="6.59692">
        <ele>75.108545</ele>
        <time>2023-06-26T09:30:57.225Z</time>
      </trkpt>
      <trkpt lat="51.54836" lon="6.59677">
        <ele>75.050193</ele>
        <time>2023-06-26T09:30:59.224Z</time>
      </trkpt>
      <trkpt lat="51.54831" lon="6.59663">
        <ele>74.993315</ele>
        <time>2023-06-26T09:31:01.236Z</time>
      </trkpt>
      <trkpt lat="51.54824" lon="6.59645">
        <ele>74.917728</ele>
        <time>2023-06-26T09:31:04.253Z</time>
      </trkpt>
      <trkpt lat="51.54819" lon="6.59632">
        <ele>74.866244</ele>
        <time>2023-06-26T09:31:06.239Z</time>
      </trkpt>
      <trkpt lat="51.54814" lon="6.59619">
        <ele>74.811483</ele>
        <time>2023-06-26T09:31:08.229Z</time>
      </trkpt>
      <trkpt lat="51.54807" lon="6.59605">
        <ele>74.747784</ele>
        <time>2023-06-26T09:31:10.243Z</time>
      </trkpt>
      <trkpt lat="51.54798" lon="6.59591">
        <ele>74.676671</ele>
        <time>2023-06-26T09:31:12.244Z</time>
      </trkpt>
      <trkpt lat="51.54789" lon="6.59577">
        <ele>74.605362</ele>
        <time>2023-06-26T09:31:14.248Z</time>
      </trkpt>
      <trkpt lat="51.54778" lon="6.59565">
        <ele>74.531702</ele>
        <time>2023-06-26T09:31:16.233Z</time>
      </trkpt>
      <trkpt lat="51.54768" lon="6.59554">
        <ele>74.411113</ele>
        <time>2023-06-26T09:31:18.227Z</time>
      </trkpt>
      <trkpt lat="51.54757" lon="6.59547">
        <ele>74.279009</ele>
        <time>2023-06-26T09:31:20.232Z</time>
      </trkpt>
      <trkpt lat="51.54746" lon="6.5954">
        <ele>74.147069</ele>
        <time>2023-06-26T09:31:22.224Z</time>
      </trkpt>
      <trkpt lat="51.54734" lon="6.59537">
        <ele>74.015931</ele>
        <time>2023-06-26T09:31:24.233Z</time>
      </trkpt>
      <trkpt lat="51.54723" lon="6.59536">
        <ele>73.889254</ele>
        <time>2023-06-26T09:31:26.233Z</time>
      </trkpt>
      <trkpt lat="51.54713" lon="6.59537">
        <ele>73.769079</ele>
        <time>2023-06-26T09:31:28.234Z</time>
      </trkpt>
      <trkpt lat="51.54703" lon="6.59542">
        <ele>73.652471</ele>
        <time>2023-06-26T09:31:31.239Z</time>
      </trkpt>
      <trkpt lat="51.54694" lon="6.59546">
        <ele>73.546402</ele>
        <time>2023-06-26T09:31:39.232Z</time>
      </trkpt>
      <trkpt lat="51.54683" lon="6.59551">
        <ele>73.423547</ele>
        <time>2023-06-26T09:31:43.229Z</time>
      </trkpt>
      <trkpt lat="51.54674" lon="6.59557">
        <ele>73.30733</ele>
        <time>2023-06-26T09:31:46.234Z</time>
      </trkpt>
      <trkpt lat="51.54665" lon="6.59561">
        <ele>73.204066</ele>
        <time>2023-06-26T09:31:48.235Z</time>
      </trkpt>
      <trkpt lat="51.54656" lon="6.59567">
        <ele>73.097648</ele>
        <time>2023-06-26T09:31:50.224Z</time>
      </trkpt>
      <trkpt lat="51.54644" lon="6.59574">
        <ele>72.951047</ele>
        <time>2023-06-26T09:31:53.228Z</time>
      </trkpt>
      <trkpt lat="51.54632" lon="6.59582">
        <ele>72.805059</ele>
        <time>2023-06-26T09:31:56.220Z</time>
      </trkpt>
      <trkpt lat="51.5462" lon="6.59583">
        <ele>72.670508</ele>
        <time>2023-06-26T09:31:59.229Z</time>
      </trkpt>
      <trkpt lat="51.5461" lon="6.59574">
        <ele>72.541338</ele>
        <time>2023-06-26T09:32:02.224Z</time>
      </trkpt>
      <trkpt lat="51.54599" lon="6.59563">
        <ele>72.51904</ele>
        <time>2023-06-26T09:32:05.243Z</time>
      </trkpt>
      <trkpt lat="51.54589" lon="6.59552">
        <ele>72.573608</ele>
        <time>2023-06-26T09:32:08.242Z</time>
      </trkpt>
      <trkpt lat="51.5458" lon="6.59544">
        <ele>72.62145</ele>
        <time>2023-06-26T09:32:11.215Z</time>
      </trkpt>
      <trkpt lat="51.5457" lon="6.59534">
        <ele>72.676347</ele>
        <time>2023-06-26T09:32:14.245Z</time>
      </trkpt>
      <trkpt lat="51.54559" lon="6.59524">
        <ele>72.733655</ele>
        <time>2023-06-26T09:32:17.235Z</time>
      </trkpt>
      <trkpt lat="51.54547" lon="6.59517">
        <ele>72.790247</ele>
        <time>2023-06-26T09:32:20.241Z</time>
      </trkpt>
      <trkpt lat="51.54539" lon="6.59511">
        <ele>72.832631</ele>
        <time>2023-06-26T09:32:22.232Z</time>
      </trkpt>
      <trkpt lat="51.54529" lon="6.59501">
        <ele>72.885546</ele>
        <time>2023-06-26T09:32:25.231Z</time>
      </trkpt>
      <trkpt lat="51.54519" lon="6.5949">
        <ele>72.944033</ele>
        <time>2023-06-26T09:32:28.244Z</time>
      </trkpt>
      <trkpt lat="51.5451" lon="6.59484">
        <ele>72.988108</ele>
        <time>2023-06-26T09:32:30.232Z</time>
      </trkpt>
      <trkpt lat="51.545" lon="6.59478">
        <ele>73.034958</ele>
        <time>2023-06-26T09:32:32.229Z</time>
      </trkpt>
      <trkpt lat="51.54489" lon="6.59467">
        <ele>73.094714</ele>
        <time>2023-06-26T09:32:35.297Z</time>
      </trkpt>
      <trkpt lat="51.5448" lon="6.59457">
        <ele>73.146687</ele>
        <time>2023-06-26T09:32:38.225Z</time>
      </trkpt>
      <trkpt lat="51.5447" lon="6.59449">
        <ele>73.198043</ele>
        <time>2023-06-26T09:32:41.244Z</time>
      </trkpt>
      <trkpt lat="51.54462" lon="6.59441">
        <ele>73.241094</ele>
        <time>2023-06-26T09:32:45.228Z</time>
      </trkpt>
      <trkpt lat="51.54454" lon="6.59433">
        <ele>73.282607</ele>
        <time>2023-06-26T09:32:51.223Z</time>
      </trkpt>
      <trkpt lat="51.54446" lon="6.59438">
        <ele>73.346765</ele>
        <time>2023-06-26T09:32:55.232Z</time>
      </trkpt>
      <trkpt lat="51.54437" lon="6.59447">
        <ele>73.469126</ele>
        <time>2023-06-26T09:32:59.244Z</time>
      </trkpt>
      <trkpt lat="51.54427" lon="6.59457">
        <ele>73.608467</ele>
        <time>2023-06-26T09:33:03.223Z</time>
      </trkpt>
      <trkpt lat="51.54418" lon="6.59466">
        <ele>73.737985</ele>
        <time>2023-06-26T09:33:07.247Z</time>
      </trkpt>
      <trkpt lat="51.5441" lon="6.59474">
        <ele>73.844194</ele>
        <time>2023-06-26T09:33:10.227Z</time>
      </trkpt>
      <trkpt lat="51.54401" lon="6.59483">
        <ele>73.96705</ele>
        <time>2023-06-26T09:33:13.231Z</time>
      </trkpt>
      <trkpt lat="51.54393" lon="6.59492">
        <ele>74.089311</ele>
        <time>2023-06-26T09:33:16.238Z</time>
      </trkpt>
      <trkpt lat="51.54383" lon="6.59502">
        <ele>74.224111</ele>
        <time>2023-06-26T09:33:19.209Z</time>
      </trkpt>
      <trkpt lat="51.54373" lon="6.59513">
        <ele>74.364785</ele>
        <time>2023-06-26T09:33:22.228Z</time>
      </trkpt>
      <trkpt lat="51.54363" lon="6.5952">
        <ele>74.500129</ele>
        <time>2023-06-26T09:33:25.239Z</time>
      </trkpt>
      <trkpt lat="51.54351" lon="6.59527">
        <ele>74.649649</ele>
        <time>2023-06-26T09:33:28.220Z</time>
      </trkpt>
      <trkpt lat="51.54337" lon="6.5953">
        <ele>74.807389</ele>
        <time>2023-06-26T09:33:31.234Z</time>
      </trkpt>
      <trkpt lat="51.54325" lon="6.59531">
        <ele>74.957252</ele>
        <time>2023-06-26T09:33:34.246Z</time>
      </trkpt>
      <trkpt lat="51.54312" lon="6.59532">
        <ele>75.103389</ele>
        <time>2023-06-26T09:33:37.245Z</time>
      </trkpt>
      <trkpt lat="51.54301" lon="6.59533">
        <ele>75.238984</ele>
        <time>2023-06-26T09:33:40.234Z</time>
      </trkpt>
      <trkpt lat="51.54292" lon="6.59538">
        <ele>75.348842</ele>
        <time>2023-06-26T09:33:43.233Z</time>
      </trkpt>
      <trkpt lat="51.54283" lon="6.59542">
        <ele>75.451177</ele>
        <time>2023-06-26T09:33:47.232Z</time>
      </trkpt>
      <trkpt lat="51.54273" lon="6.5953">
        <ele>75.558199</ele>
        <time>2023-06-26T09:33:51.228Z</time>
      </trkpt>
      <trkpt lat="51.54265" lon="6.5952">
        <ele>75.652032</ele>
        <time>2023-06-26T09:33:54.221Z</time>
      </trkpt>
      <trkpt lat="51.54257" lon="6.59512">
        <ele>75.733705</ele>
        <time>2023-06-26T09:33:56.223Z</time>
      </trkpt>
      <trkpt lat="51.54247" lon="6.59499">
        <ele>75.8466</ele>
        <time>2023-06-26T09:33:59.237Z</time>
      </trkpt>
      <trkpt lat="51.54239" lon="6.59491">
        <ele>75.925809</ele>
        <time>2023-06-26T09:34:01.230Z</time>
      </trkpt>
      <trkpt lat="51.54229" lon="6.59478">
        <ele>76.039678</ele>
        <time>2023-06-26T09:34:04.244Z</time>
      </trkpt>
      <trkpt lat="51.54218" lon="6.59467">
        <ele>76.152108</ele>
        <time>2023-06-26T09:34:07.235Z</time>
      </trkpt>
      <trkpt lat="51.54207" lon="6.59455">
        <ele>76.267012</ele>
        <time>2023-06-26T09:34:10.250Z</time>
      </trkpt>
      <trkpt lat="51.54197" lon="6.59443">
        <ele>76.382031</ele>
        <time>2023-06-26T09:34:13.223Z</time>
      </trkpt>
      <trkpt lat="51.54189" lon="6.59435">
        <ele>76.461037</ele>
        <time>2023-06-26T09:34:15.233Z</time>
      </trkpt>
      <trkpt lat="51.54179" lon="6.59423">
        <ele>76.567773</ele>
        <time>2023-06-26T09:34:18.225Z</time>
      </trkpt>
      <trkpt lat="51.5417" lon="6.59412">
        <ele>76.67139</ele>
        <time>2023-06-26T09:34:21.226Z</time>
      </trkpt>
      <trkpt lat="51.5416" lon="6.594">
        <ele>76.775374</ele>
        <time>2023-06-26T09:34:24.251Z</time>
      </trkpt>
      <trkpt lat="51.54151" lon="6.5939">
        <ele>76.87618</ele>
        <time>2023-06-26T09:34:27.241Z</time>
      </trkpt>
      <trkpt lat="51.54143" lon="6.59381">
        <ele>76.962277</ele>
        <time>2023-06-26T09:34:30.232Z</time>
      </trkpt>
      <trkpt lat="51.54132" lon="6.5937">
        <ele>76.957681</ele>
        <time>2023-06-26T09:34:33.234Z</time>
      </trkpt>
      <trkpt lat="51.54124" lon="6.59362">
        <ele>76.906603</ele>
        <time>2023-06-26T09:34:35.222Z</time>
      </trkpt>
      <trkpt lat="51.54117" lon="6.59353">
        <ele>76.855305</ele>
        <time>2023-06-26T09:34:37.239Z</time>
      </trkpt>
      <trkpt lat="51.5411" lon="6.59343">
        <ele>76.804428</ele>
        <time>2023-06-26T09:34:39.230Z</time>
      </trkpt>
      <trkpt lat="51.54099" lon="6.59332">
        <ele>76.732058</ele>
        <time>2023-06-26T09:34:42.232Z</time>
      </trkpt>
      <trkpt lat="51.54092" lon="6.59322">
        <ele>76.681652</ele>
        <time>2023-06-26T09:34:44.249Z</time>
      </trkpt>
      <trkpt lat="51.54085" lon="6.59313">
        <ele>76.631005</ele>
        <time>2023-06-26T09:34:46.234Z</time>
      </trkpt>
      <trkpt lat="51.54076" lon="6.59307">
        <ele>76.577958</ele>
        <time>2023-06-26T09:34:48.225Z</time>
      </trkpt>
      <trkpt lat="51.54068" lon="6.59299">
        <ele>76.527206</ele>
        <time>2023-06-26T09:34:50.223Z</time>
      </trkpt>
      <trkpt lat="51.5406" lon="6.5929">
        <ele>76.470247</ele>
        <time>2023-06-26T09:34:52.208Z</time>
      </trkpt>
      <trkpt lat="51.54051" lon="6.5928">
        <ele>76.412387</ele>
        <time>2023-06-26T09:34:54.214Z</time>
      </trkpt>
      <trkpt lat="51.54043" lon="6.5927">
        <ele>76.353874</ele>
        <time>2023-06-26T09:34:56.223Z</time>
      </trkpt>
      <trkpt lat="51.54035" lon="6.5926">
        <ele>76.298486</ele>
        <time>2023-06-26T09:34:58.234Z</time>
      </trkpt>
      <trkpt lat="51.54027" lon="6.59252">
        <ele>76.244413</ele>
        <time>2023-06-26T09:35:00.217Z</time>
      </trkpt>
      <trkpt lat="51.5402" lon="6.59242">
        <ele>76.192889</ele>
        <time>2023-06-26T09:35:02.252Z</time>
      </trkpt>
      <trkpt lat="51.54016" lon="6.5922">
        <ele>76.115414</ele>
        <time>2023-06-26T09:35:05.230Z</time>
      </trkpt>
      <trkpt lat="51.54012" lon="6.59205">
        <ele>76.059702</ele>
        <time>2023-06-26T09:35:07.227Z</time>
      </trkpt>
      <trkpt lat="51.54003" lon="6.59198">
        <ele>76.004581</ele>
        <time>2023-06-26T09:35:09.223Z</time>
      </trkpt>
      <trkpt lat="51.53995" lon="6.59187">
        <ele>76.032582</ele>
        <time>2023-06-26T09:35:11.245Z</time>
      </trkpt>
      <trkpt lat="51.53989" lon="6.59174">
        <ele>76.058777</ele>
        <time>2023-06-26T09:35:13.215Z</time>
      </trkpt>
      <trkpt lat="51.53984" lon="6.5916">
        <ele>76.085854</ele>
        <time>2023-06-26T09:35:15.235Z</time>
      </trkpt>
      <trkpt lat="51.53981" lon="6.59145">
        <ele>76.111922</ele>
        <time>2023-06-26T09:35:17.223Z</time>
      </trkpt>
      <trkpt lat="51.53982" lon="6.5913">
        <ele>76.136496</ele>
        <time>2023-06-26T09:35:19.217Z</time>
      </trkpt>
      <trkpt lat="51.5398" lon="6.5911">
        <ele>76.169839</ele>
        <time>2023-06-26T09:35:22.227Z</time>
      </trkpt>
      <trkpt lat="51.53978" lon="6.59089">
        <ele>76.205423</ele>
        <time>2023-06-26T09:35:25.231Z</time>
      </trkpt>
      <trkpt lat="51.53978" lon="6.59069">
        <ele>76.238982</ele>
        <time>2023-06-26T09:35:28.232Z</time>
      </trkpt>
      <trkpt lat="51.53976" lon="6.59049">
        <ele>76.272312</ele>
        <time>2023-06-26T09:35:31.229Z</time>
      </trkpt>
      <trkpt lat="51.53975" lon="6.59035">
        <ele>76.296317</ele>
        <time>2023-06-26T09:35:33.225Z</time>
      </trkpt>
      <trkpt lat="51.53973" lon="6.59014">
        <ele>76.331177</ele>
        <time>2023-06-26T09:35:36.232Z</time>
      </trkpt>
      <trkpt lat="51.53971" lon="6.58993">
        <ele>76.366492</ele>
        <time>2023-06-26T09:35:39.244Z</time>
      </trkpt>
      <trkpt lat="51.53969" lon="6.58973">
        <ele>76.400091</ele>
        <time>2023-06-26T09:35:42.244Z</time>
      </trkpt>
      <trkpt lat="51.53966" lon="6.58954">
        <ele>76.432667</ele>
        <time>2023-06-26T09:35:45.246Z</time>
      </trkpt>
      <trkpt lat="51.53962" lon="6.58939">
        <ele>76.458998</ele>
        <time>2023-06-26T09:35:48.222Z</time>
      </trkpt>
      <trkpt lat="51.53954" lon="6.5893">
        <ele>76.477667</ele>
        <time>2023-06-26T09:35:53.219Z</time>
      </trkpt>
      <trkpt lat="51.53948" lon="6.58944">
        <ele>76.389659</ele>
        <time>2023-06-26T09:35:57.233Z</time>
      </trkpt>
      <trkpt lat="51.53939" lon="6.58953">
        <ele>76.293457</ele>
        <time>2023-06-26T09:36:01.218Z</time>
      </trkpt>
      <trkpt lat="51.5393" lon="6.58951">
        <ele>76.214266</ele>
        <time>2023-06-26T09:36:04.218Z</time>
      </trkpt>
      <trkpt lat="51.5392" lon="6.5895">
        <ele>76.1269</ele>
        <time>2023-06-26T09:36:07.236Z</time>
      </trkpt>
      <trkpt lat="51.5391" lon="6.5896">
        <ele>76.026757</ele>
        <time>2023-06-26T09:36:10.235Z</time>
      </trkpt>
      <trkpt lat="51.53902" lon="6.58975">
        <ele>75.916855</ele>
        <time>2023-06-26T09:36:13.220Z</time>
      </trkpt>
      <trkpt lat="51.53893" lon="6.58991">
        <ele>75.801502</ele>
        <time>2023-06-26T09:36:16.241Z</time>
      </trkpt>
      <trkpt lat="51.53887" lon="6.59003">
        <ele>75.720604</ele>
        <time>2023-06-26T09:36:18.219Z</time>
      </trkpt>
      <trkpt lat="51.53881" lon="6.59013">
        <ele>75.639907</ele>
        <time>2023-06-26T09:36:20.223Z</time>
      </trkpt>
      <trkpt lat="51.53874" lon="6.59025">
        <ele>75.55601</ele>
        <time>2023-06-26T09:36:22.226Z</time>
      </trkpt>
      <trkpt lat="51.53868" lon="6.59037">
        <ele>75.468922</ele>
        <time>2023-06-26T09:36:24.223Z</time>
      </trkpt>
      <trkpt lat="51.53861" lon="6.59048">
        <ele>75.381976</ele>
        <time>2023-06-26T09:36:26.235Z</time>
      </trkpt>
      <trkpt lat="51.53854" lon="6.59059">
        <ele>75.299506</ele>
        <time>2023-06-26T09:36:28.238Z</time>
      </trkpt>
      <trkpt lat="51.53846" lon="6.5907">
        <ele>75.211502</ele>
        <time>2023-06-26T09:36:30.229Z</time>
      </trkpt>
      <trkpt lat="51.53839" lon="6.59081">
        <ele>75.123451</ele>
        <time>2023-06-26T09:36:32.241Z</time>
      </trkpt>
      <trkpt lat="51.53831" lon="6.5909">
        <ele>75.035037</ele>
        <time>2023-06-26T09:36:34.236Z</time>
      </trkpt>
      <trkpt lat="51.53822" lon="6.59099">
        <ele>74.942078</ele>
        <time>2023-06-26T09:36:36.224Z</time>
      </trkpt>
      <trkpt lat="51.53812" lon="6.59108">
        <ele>74.978169</ele>
        <time>2023-06-26T09:36:38.231Z</time>
      </trkpt>
      <trkpt lat="51.53802" lon="6.59115">
        <ele>75.06221</ele>
        <time>2023-06-26T09:36:40.232Z</time>
      </trkpt>
      <trkpt lat="51.53792" lon="6.59121">
        <ele>75.14575</ele>
        <time>2023-06-26T09:36:42.234Z</time>
      </trkpt>
      <trkpt lat="51.53782" lon="6.59129">
        <ele>75.234138</ele>
        <time>2023-06-26T09:36:44.235Z</time>
      </trkpt>
      <trkpt lat="51.53771" lon="6.59135">
        <ele>75.319273</ele>
        <time>2023-06-26T09:36:46.231Z</time>
      </trkpt>
      <trkpt lat="51.53761" lon="6.59141">
        <ele>75.40572</ele>
        <time>2023-06-26T09:36:48.227Z</time>
      </trkpt>
      <trkpt lat="51.53751" lon="6.59148">
        <ele>75.489079</ele>
        <time>2023-06-26T09:36:50.249Z</time>
      </trkpt>
      <trkpt lat="51.53742" lon="6.59154">
        <ele>75.561669</ele>
        <time>2023-06-26T09:36:52.219Z</time>
      </trkpt>
      <trkpt lat="51.5373" lon="6.59161">
        <ele>75.66359</ele>
        <time>2023-06-26T09:36:55.218Z</time>
      </trkpt>
      <trkpt lat="51.53718" lon="6.59169">
        <ele>75.766691</ele>
        <time>2023-06-26T09:36:58.226Z</time>
      </trkpt>
      <trkpt lat="51.53709" lon="6.59175">
        <ele>75.839572</ele>
        <time>2023-06-26T09:37:00.218Z</time>
      </trkpt>
      <trkpt lat="51.53701" lon="6.59183">
        <ele>75.91237</ele>
        <time>2023-06-26T09:37:02.229Z</time>
      </trkpt>
      <trkpt lat="51.53692" lon="6.59188">
        <ele>75.983156</ele>
        <time>2023-06-26T09:37:04.215Z</time>
      </trkpt>
      <trkpt lat="51.53683" lon="6.59193">
        <ele>76.059575</ele>
        <time>2023-06-26T09:37:06.224Z</time>
      </trkpt>
      <trkpt lat="51.53674" lon="6.59198">
        <ele>76.133232</ele>
        <time>2023-06-26T09:37:08.224Z</time>
      </trkpt>
      <trkpt lat="51.53665" lon="6.59205">
        <ele>76.211978</ele>
        <time>2023-06-26T09:37:10.230Z</time>
      </trkpt>
      <trkpt lat="51.53657" lon="6.59212">
        <ele>76.284109</ele>
        <time>2023-06-26T09:37:12.230Z</time>
      </trkpt>
      <trkpt lat="51.53647" lon="6.59218">
        <ele>76.260828</ele>
        <time>2023-06-26T09:37:14.249Z</time>
      </trkpt>
      <trkpt lat="51.53639" lon="6.59226">
        <ele>76.191068</ele>
        <time>2023-06-26T09:37:16.222Z</time>
      </trkpt>
      <trkpt lat="51.5363" lon="6.59233">
        <ele>76.12256</ele>
        <time>2023-06-26T09:37:18.234Z</time>
      </trkpt>
      <trkpt lat="51.53621" lon="6.59239">
        <ele>76.050789</ele>
        <time>2023-06-26T09:37:20.203Z</time>
      </trkpt>
      <trkpt lat="51.53612" lon="6.59245">
        <ele>75.979619</ele>
        <time>2023-06-26T09:37:22.239Z</time>
      </trkpt>
      <trkpt lat="51.53603" lon="6.59252">
        <ele>75.904675</ele>
        <time>2023-06-26T09:37:24.231Z</time>
      </trkpt>
      <trkpt lat="51.53593" lon="6.59258">
        <ele>75.8299</ele>
        <time>2023-06-26T09:37:26.226Z</time>
      </trkpt>
      <trkpt lat="51.53583" lon="6.59265">
        <ele>75.753403</ele>
        <time>2023-06-26T09:37:28.226Z</time>
      </trkpt>
      <trkpt lat="51.53574" lon="6.59271">
        <ele>75.678135</ele>
        <time>2023-06-26T09:37:30.211Z</time>
      </trkpt>
      <trkpt lat="51.53564" lon="6.59277">
        <ele>75.603002</ele>
        <time>2023-06-26T09:37:32.221Z</time>
      </trkpt>
      <trkpt lat="51.53554" lon="6.59283">
        <ele>75.527734</ele>
        <time>2023-06-26T09:37:34.245Z</time>
      </trkpt>
      <trkpt lat="51.53544" lon="6.59291">
        <ele>75.448153</ele>
        <time>2023-06-26T09:37:36.226Z</time>
      </trkpt>
      <trkpt lat="51.53533" lon="6.59296">
        <ele>75.366911</ele>
        <time>2023-06-26T09:37:38.223Z</time>
      </trkpt>
      <trkpt lat="51.53523" lon="6.59303">
        <ele>75.289138</ele>
        <time>2023-06-26T09:37:40.225Z</time>
      </trkpt>
      <trkpt lat="51.53513" lon="6.59309">
        <ele>75.210318</ele>
        <time>2023-06-26T09:37:42.234Z</time>
      </trkpt>
      <trkpt lat="51.53503" lon="6.59315">
        <ele>75.133004</ele>
        <time>2023-06-26T09:37:44.234Z</time>
      </trkpt>
      <trkpt lat="51.53494" lon="6.59321">
        <ele>75.059864</ele>
        <time>2023-06-26T09:37:46.226Z</time>
      </trkpt>
      <trkpt lat="51.53484" lon="6.59327">
        <ele>75.014662</ele>
        <time>2023-06-26T09:37:48.239Z</time>
      </trkpt>
      <trkpt lat="51.53474" lon="6.59333">
        <ele>75.013767</ele>
        <time>2023-06-26T09:37:50.224Z</time>
      </trkpt>
      <trkpt lat="51.53464" lon="6.59338">
        <ele>75.012955</ele>
        <time>2023-06-26T09:37:52.231Z</time>
      </trkpt>
      <trkpt lat="51.53455" lon="6.59344">
        <ele>75.012107</ele>
        <time>2023-06-26T09:37:54.233Z</time>
      </trkpt>
      <trkpt lat="51.53446" lon="6.5935">
        <ele>75.011263</ele>
        <time>2023-06-26T09:37:56.233Z</time>
      </trkpt>
      <trkpt lat="51.53437" lon="6.59357">
        <ele>75.010434</ele>
        <time>2023-06-26T09:37:58.224Z</time>
      </trkpt>
      <trkpt lat="51.53428" lon="6.59363">
        <ele>75.009611</ele>
        <time>2023-06-26T09:38:00.210Z</time>
      </trkpt>
      <trkpt lat="51.53418" lon="6.59369">
        <ele>75.008753</ele>
        <time>2023-06-26T09:38:02.238Z</time>
      </trkpt>
      <trkpt lat="51.53409" lon="6.59375">
        <ele>75.007911</ele>
        <time>2023-06-26T09:38:04.244Z</time>
      </trkpt>
      <trkpt lat="51.53399" lon="6.59381">
        <ele>75.007065</ele>
        <time>2023-06-26T09:38:06.226Z</time>
      </trkpt>
      <trkpt lat="51.5339" lon="6.59387">
        <ele>75.006207</ele>
        <time>2023-06-26T09:38:08.225Z</time>
      </trkpt>
      <trkpt lat="51.5338" lon="6.59394">
        <ele>75.005317</ele>
        <time>2023-06-26T09:38:10.232Z</time>
      </trkpt>
      <trkpt lat="51.5337" lon="6.594">
        <ele>75.004443</ele>
        <time>2023-06-26T09:38:12.223Z</time>
      </trkpt>
      <trkpt lat="51.53361" lon="6.59406">
        <ele>75.00363</ele>
        <time>2023-06-26T09:38:14.222Z</time>
      </trkpt>
      <trkpt lat="51.53352" lon="6.59412">
        <ele>75.002774</ele>
        <time>2023-06-26T09:38:16.229Z</time>
      </trkpt>
      <trkpt lat="51.53342" lon="6.59419">
        <ele>75.001913</ele>
        <time>2023-06-26T09:38:18.231Z</time>
      </trkpt>
      <trkpt lat="51.53333" lon="6.59425">
        <ele>75.001097</ele>
        <time>2023-06-26T09:38:20.230Z</time>
      </trkpt>
      <trkpt lat="51.53324" lon="6.59431">
        <ele>75.000241</ele>
        <time>2023-06-26T09:38:22.226Z</time>
      </trkpt>
      <trkpt lat="51.53315" lon="6.59437">
        <ele>74.993282</ele>
        <time>2023-06-26T09:38:24.226Z</time>
      </trkpt>
      <trkpt lat="51.53306" lon="6.59444">
        <ele>74.983871</ele>
        <time>2023-06-26T09:38:26.233Z</time>
      </trkpt>
      <trkpt lat="51.53296" lon="6.5945">
        <ele>74.974213</ele>
        <time>2023-06-26T09:38:28.227Z</time>
      </trkpt>
      <trkpt lat="51.53286" lon="6.59456">
        <ele>74.963953</ele>
        <time>2023-06-26T09:38:30.229Z</time>
      </trkpt>
      <trkpt lat="51.53276" lon="6.59462">
        <ele>74.953584</ele>
        <time>2023-06-26T09:38:32.221Z</time>
      </trkpt>
      <trkpt lat="51.53266" lon="6.59469">
        <ele>74.943126</ele>
        <time>2023-06-26T09:38:34.226Z</time>
      </trkpt>
      <trkpt lat="51.53256" lon="6.59475">
        <ele>74.932913</ele>
        <time>2023-06-26T09:38:36.232Z</time>
      </trkpt>
      <trkpt lat="51.53247" lon="6.59482">
        <ele>74.92261</ele>
        <time>2023-06-26T09:38:38.222Z</time>
      </trkpt>
      <trkpt lat="51.53237" lon="6.59489">
        <ele>74.91235</ele>
        <time>2023-06-26T09:38:40.240Z</time>
      </trkpt>
      <trkpt lat="51.53227" lon="6.59495">
        <ele>74.902201</ele>
        <time>2023-06-26T09:38:42.226Z</time>
      </trkpt>
      <trkpt lat="51.53218" lon="6.59502">
        <ele>74.892388</ele>
        <time>2023-06-26T09:38:44.224Z</time>
      </trkpt>
      <trkpt lat="51.53208" lon="6.59508">
        <ele>74.882508</ele>
        <time>2023-06-26T09:38:46.233Z</time>
      </trkpt>
      <trkpt lat="51.53199" lon="6.59514">
        <ele>74.87283</ele>
        <time>2023-06-26T09:38:48.232Z</time>
      </trkpt>
      <trkpt lat="51.53189" lon="6.5952">
        <ele>74.862792</ele>
        <time>2023-06-26T09:38:50.228Z</time>
      </trkpt>
      <trkpt lat="51.53179" lon="6.59527">
        <ele>74.852619</ele>
        <time>2023-06-26T09:38:52.248Z</time>
      </trkpt>
      <trkpt lat="51.5317" lon="6.59533">
        <ele>74.842741</ele>
        <time>2023-06-26T09:38:54.228Z</time>
      </trkpt>
      <trkpt lat="51.5316" lon="6.59539">
        <ele>74.832928</ele>
        <time>2023-06-26T09:38:56.205Z</time>
      </trkpt>
      <trkpt lat="51.5315" lon="6.59545">
        <ele>74.833011</ele>
        <time>2023-06-26T09:38:58.218Z</time>
      </trkpt>
      <trkpt lat="51.53141" lon="6.59551">
        <ele>74.846235</ele>
        <time>2023-06-26T09:39:00.210Z</time>
      </trkpt>
      <trkpt lat="51.53131" lon="6.59558">
        <ele>74.859964</ele>
        <time>2023-06-26T09:39:02.225Z</time>
      </trkpt>
      <trkpt lat="51.53122" lon="6.59564">
        <ele>74.872856</ele>
        <time>2023-06-26T09:39:04.220Z</time>
      </trkpt>
      <trkpt lat="51.53112" lon="6.5957">
        <ele>74.885894</ele>
        <time>2023-06-26T09:39:06.228Z</time>
      </trkpt>
      <trkpt lat="51.53103" lon="6.59576">
        <ele>74.899112</ele>
        <time>2023-06-26T09:39:08.228Z</time>
      </trkpt>
      <trkpt lat="51.53093" lon="6.59582">
        <ele>74.912631</ele>
        <time>2023-06-26T09:39:10.239Z</time>
      </trkpt>
      <trkpt lat="51.53084" lon="6.59589">
        <ele>74.925973</ele>
        <time>2023-06-26T09:39:12.223Z</time>
      </trkpt>
      <trkpt lat="51.53074" lon="6.59595">
        <ele>74.938865</ele>
        <time>2023-06-26T09:39:14.224Z</time>
      </trkpt>
      <trkpt lat="51.53065" lon="6.59602">
        <ele>74.952271</ele>
        <time>2023-06-26T09:39:16.226Z</time>
      </trkpt>
      <trkpt lat="51.53055" lon="6.59608">
        <ele>74.965288</ele>
        <time>2023-06-26T09:39:18.228Z</time>
      </trkpt>
      <trkpt lat="51.53045" lon="6.59614">
        <ele>74.979135</ele>
        <time>2023-06-26T09:39:20.231Z</time>
      </trkpt>
      <trkpt lat="51.53035" lon="6.59621">
        <ele>74.993489</ele>
        <time>2023-06-26T09:39:22.230Z</time>
      </trkpt>
      <trkpt lat="51.53025" lon="6.59627">
        <ele>75.007668</ele>
        <time>2023-06-26T09:39:24.220Z</time>
      </trkpt>
      <trkpt lat="51.53015" lon="6.59634">
        <ele>75.021978</ele>
        <time>2023-06-26T09:39:26.228Z</time>
      </trkpt>
      <trkpt lat="51.53005" lon="6.59641">
        <ele>75.035584</ele>
        <time>2023-06-26T09:39:28.230Z</time>
      </trkpt>
      <trkpt lat="51.52995" lon="6.59647">
        <ele>75.050028</ele>
        <time>2023-06-26T09:39:30.231Z</time>
      </trkpt>
      <trkpt lat="51.52984" lon="6.59653">
        <ele>75.044174</ele>
        <time>2023-06-26T09:39:32.227Z</time>
      </trkpt>
      <trkpt lat="51.52974" lon="6.5966">
        <ele>75.005287</ele>
        <time>2023-06-26T09:39:34.242Z</time>
      </trkpt>
      <trkpt lat="51.52964" lon="6.59666">
        <ele>74.965735</ele>
        <time>2023-06-26T09:39:36.227Z</time>
      </trkpt>
      <trkpt lat="51.52953" lon="6.59674">
        <ele>74.92536</ele>
        <time>2023-06-26T09:39:38.234Z</time>
      </trkpt>
      <trkpt lat="51.52943" lon="6.59681">
        <ele>74.885388</ele>
        <time>2023-06-26T09:39:40.241Z</time>
      </trkpt>
      <trkpt lat="51.52933" lon="6.59688">
        <ele>74.845918</ele>
        <time>2023-06-26T09:39:42.246Z</time>
      </trkpt>
      <trkpt lat="51.52923" lon="6.59694">
        <ele>74.806532</ele>
        <time>2023-06-26T09:39:44.239Z</time>
      </trkpt>
      <trkpt lat="51.52913" lon="6.597">
        <ele>74.767859</ele>
        <time>2023-06-26T09:39:46.234Z</time>
      </trkpt>
      <trkpt lat="51.52902" lon="6.59707">
        <ele>74.728719</ele>
        <time>2023-06-26T09:39:48.242Z</time>
      </trkpt>
      <trkpt lat="51.52893" lon="6.59713">
        <ele>74.690741</ele>
        <time>2023-06-26T09:39:50.225Z</time>
      </trkpt>
      <trkpt lat="51.52883" lon="6.59719">
        <ele>74.652588</ele>
        <time>2023-06-26T09:39:52.233Z</time>
      </trkpt>
      <trkpt lat="51.52873" lon="6.59725">
        <ele>74.614529</ele>
        <time>2023-06-26T09:39:54.230Z</time>
      </trkpt>
      <trkpt lat="51.52863" lon="6.59732">
        <ele>74.57738</ele>
        <time>2023-06-26T09:39:56.221Z</time>
      </trkpt>
      <trkpt lat="51.52853" lon="6.59739">
        <ele>74.539314</ele>
        <time>2023-06-26T09:39:58.229Z</time>
      </trkpt>
      <trkpt lat="51.52843" lon="6.59744">
        <ele>74.501406</ele>
        <time>2023-06-26T09:40:00.237Z</time>
      </trkpt>
      <trkpt lat="51.52834" lon="6.5975">
        <ele>74.464172</ele>
        <time>2023-06-26T09:40:02.228Z</time>
      </trkpt>
      <trkpt lat="51.52824" lon="6.59756">
        <ele>74.428003</ele>
        <time>2023-06-26T09:40:04.235Z</time>
      </trkpt>
      <trkpt lat="51.52814" lon="6.59762">
        <ele>74.461704</ele>
        <time>2023-06-26T09:40:06.240Z</time>
      </trkpt>
      <trkpt lat="51.52804" lon="6.5977">
        <ele>74.528938</ele>
        <time>2023-06-26T09:40:08.233Z</time>
      </trkpt>
      <trkpt lat="51.52794" lon="6.59776">
        <ele>74.595076</ele>
        <time>2023-06-26T09:40:10.223Z</time>
      </trkpt>
      <trkpt lat="51.52785" lon="6.59782">
        <ele>74.660643</ele>
        <time>2023-06-26T09:40:12.224Z</time>
      </trkpt>
      <trkpt lat="51.52775" lon="6.59789">
        <ele>74.72621</ele>
        <time>2023-06-26T09:40:14.222Z</time>
      </trkpt>
      <trkpt lat="51.52765" lon="6.59795">
        <ele>74.791084</ele>
        <time>2023-06-26T09:40:16.246Z</time>
      </trkpt>
      <trkpt lat="51.52755" lon="6.59801">
        <ele>74.856501</ele>
        <time>2023-06-26T09:40:18.224Z</time>
      </trkpt>
      <trkpt lat="51.52745" lon="6.59807">
        <ele>74.923646</ele>
        <time>2023-06-26T09:40:20.219Z</time>
      </trkpt>
      <trkpt lat="51.52735" lon="6.59814">
        <ele>74.993548</ele>
        <time>2023-06-26T09:40:22.232Z</time>
      </trkpt>
      <trkpt lat="51.52725" lon="6.59821">
        <ele>75.05844</ele>
        <time>2023-06-26T09:40:24.225Z</time>
      </trkpt>
      <trkpt lat="51.52715" lon="6.59827">
        <ele>75.126019</ele>
        <time>2023-06-26T09:40:26.237Z</time>
      </trkpt>
      <trkpt lat="51.52706" lon="6.59833">
        <ele>75.191577</ele>
        <time>2023-06-26T09:40:28.227Z</time>
      </trkpt>
      <trkpt lat="51.52696" lon="6.5984">
        <ele>75.259472</ele>
        <time>2023-06-26T09:40:30.226Z</time>
      </trkpt>
      <trkpt lat="51.52685" lon="6.59846">
        <ele>75.327281</ele>
        <time>2023-06-26T09:40:32.226Z</time>
      </trkpt>
      <trkpt lat="51.52675" lon="6.59853">
        <ele>75.396892</ele>
        <time>2023-06-26T09:40:34.226Z</time>
      </trkpt>
      <trkpt lat="51.52665" lon="6.59859">
        <ele>75.461871</ele>
        <time>2023-06-26T09:40:36.231Z</time>
      </trkpt>
      <trkpt lat="51.52655" lon="6.59866">
        <ele>75.529593</ele>
        <time>2023-06-26T09:40:38.223Z</time>
      </trkpt>
      <trkpt lat="51.52645" lon="6.59872">
        <ele>75.603119</ele>
        <time>2023-06-26T09:40:40.230Z</time>
      </trkpt>
      <trkpt lat="51.52635" lon="6.59879">
        <ele>75.676644</ele>
        <time>2023-06-26T09:40:42.230Z</time>
      </trkpt>
      <trkpt lat="51.52625" lon="6.59885">
        <ele>75.752082</ele>
        <time>2023-06-26T09:40:44.227Z</time>
      </trkpt>
      <trkpt lat="51.52616" lon="6.59892">
        <ele>75.820899</ele>
        <time>2023-06-26T09:40:46.232Z</time>
      </trkpt>
      <trkpt lat="51.52606" lon="6.59898">
        <ele>75.89141</ele>
        <time>2023-06-26T09:40:48.214Z</time>
      </trkpt>
      <trkpt lat="51.52597" lon="6.59904">
        <ele>75.960797</ele>
        <time>2023-06-26T09:40:50.216Z</time>
      </trkpt>
      <trkpt lat="51.52588" lon="6.5991">
        <ele>76.030818</ele>
        <time>2023-06-26T09:40:52.227Z</time>
      </trkpt>
      <trkpt lat="51.52578" lon="6.59916">
        <ele>76.100044</ele>
        <time>2023-06-26T09:40:54.211Z</time>
      </trkpt>
      <trkpt lat="51.5257" lon="6.59922">
        <ele>76.165303</ele>
        <time>2023-06-26T09:40:56.230Z</time>
      </trkpt>
      <trkpt lat="51.52561" lon="6.59928">
        <ele>76.232292</ele>
        <time>2023-06-26T09:40:58.225Z</time>
      </trkpt>
      <trkpt lat="51.52551" lon="6.59934">
        <ele>76.299928</ele>
        <time>2023-06-26T09:41:00.213Z</time>
      </trkpt>
      <trkpt lat="51.52542" lon="6.59939">
        <ele>76.366436</ele>
        <time>2023-06-26T09:41:02.228Z</time>
      </trkpt>
      <trkpt lat="51.52533" lon="6.59945">
        <ele>76.43536</ele>
        <time>2023-06-26T09:41:04.220Z</time>
      </trkpt>
      <trkpt lat="51.52524" lon="6.59951">
        <ele>76.502395</ele>
        <time>2023-06-26T09:41:06.230Z</time>
      </trkpt>
      <trkpt lat="51.52515" lon="6.59958">
        <ele>76.571149</ele>
        <time>2023-06-26T09:41:08.217Z</time>
      </trkpt>
      <trkpt lat="51.52506" lon="6.59964">
        <ele>76.636856</ele>
        <time>2023-06-26T09:41:10.242Z</time>
      </trkpt>
      <trkpt lat="51.52497" lon="6.59972">
        <ele>76.707827</ele>
        <time>2023-06-26T09:41:12.228Z</time>
      </trkpt>
      <trkpt lat="51.52488" lon="6.59979">
        <ele>76.774051</ele>
        <time>2023-06-26T09:41:14.211Z</time>
      </trkpt>
      <trkpt lat="51.5248" lon="6.59987">
        <ele>76.8203</ele>
        <time>2023-06-26T09:41:16.227Z</time>
      </trkpt>
      <trkpt lat="51.52472" lon="6.59997">
        <ele>76.865484</ele>
        <time>2023-06-26T09:41:18.235Z</time>
      </trkpt>
      <trkpt lat="51.52464" lon="6.60006">
        <ele>76.910989</ele>
        <time>2023-06-26T09:41:20.214Z</time>
      </trkpt>
      <trkpt lat="51.52456" lon="6.60015">
        <ele>76.954719</ele>
        <time>2023-06-26T09:41:22.226Z</time>
      </trkpt>
      <trkpt lat="51.5245" lon="6.60027">
        <ele>76.998923</ele>
        <time>2023-06-26T09:41:24.216Z</time>
      </trkpt>
      <trkpt lat="51.52444" lon="6.60039">
        <ele>77.043568</ele>
        <time>2023-06-26T09:41:26.210Z</time>
      </trkpt>
      <trkpt lat="51.52439" lon="6.60051">
        <ele>77.086402</ele>
        <time>2023-06-26T09:41:28.233Z</time>
      </trkpt>
      <trkpt lat="51.5243" lon="6.60067">
        <ele>77.147094</ele>
        <time>2023-06-26T09:41:31.227Z</time>
      </trkpt>
      <trkpt lat="51.52423" lon="6.60082">
        <ele>77.199681</ele>
        <time>2023-06-26T09:41:34.231Z</time>
      </trkpt>
      <trkpt lat="51.52419" lon="6.60099">
        <ele>77.252275</ele>
        <time>2023-06-26T09:41:37.234Z</time>
      </trkpt>
      <trkpt lat="51.52415" lon="6.60116">
        <ele>77.302627</ele>
        <time>2023-06-26T09:41:40.225Z</time>
      </trkpt>
      <trkpt lat="51.52413" lon="6.60132">
        <ele>77.351173</ele>
        <time>2023-06-26T09:41:43.228Z</time>
      </trkpt>
      <trkpt lat="51.5241" lon="6.60151">
        <ele>77.407616</ele>
        <time>2023-06-26T09:41:46.231Z</time>
      </trkpt>
      <trkpt lat="51.52407" lon="6.60171">
        <ele>77.464877</ele>
        <time>2023-06-26T09:41:49.225Z</time>
      </trkpt>
      <trkpt lat="51.52407" lon="6.60189">
        <ele>77.516891</ele>
        <time>2023-06-26T09:41:52.242Z</time>
      </trkpt>
      <trkpt lat="51.52407" lon="6.60206">
        <ele>77.566559</ele>
        <time>2023-06-26T09:41:56.226Z</time>
      </trkpt>
      <trkpt lat="51.52397" lon="6.60204">
        <ele>77.596012</ele>
        <time>2023-06-26T09:42:01.216Z</time>
      </trkpt>
      <trkpt lat="51.52386" lon="6.60202">
        <ele>77.563868</ele>
        <time>2023-06-26T09:42:05.237Z</time>
      </trkpt>
      <trkpt lat="51.52375" lon="6.602">
        <ele>77.532526</ele>
        <time>2023-06-26T09:42:09.231Z</time>
      </trkpt>
      <trkpt lat="51.52367" lon="6.60197">
        <ele>77.506294</ele>
        <time>2023-06-26T09:42:14.202Z</time>
      </trkpt>
      <trkpt lat="51.52357" lon="6.60197">
        <ele>77.478184</ele>
        <time>2023-06-26T09:43:36.237Z</time>
      </trkpt>
      <trkpt lat="51.52346" lon="6.60196">
        <ele>77.446152</ele>
        <time>2023-06-26T09:43:40.221Z</time>
      </trkpt>
      <trkpt lat="51.52336" lon="6.60194">
        <ele>77.415994</ele>
        <time>2023-06-26T09:43:43.232Z</time>
      </trkpt>
      <trkpt lat="51.52325" lon="6.60194">
        <ele>77.384078</ele>
        <time>2023-06-26T09:43:46.237Z</time>
      </trkpt>
      <trkpt lat="51.52313" lon="6.60193">
        <ele>77.348345</ele>
        <time>2023-06-26T09:43:49.229Z</time>
      </trkpt>
      <trkpt lat="51.52302" lon="6.60193">
        <ele>77.316137</ele>
        <time>2023-06-26T09:43:52.232Z</time>
      </trkpt>
      <trkpt lat="51.52293" lon="6.60195">
        <ele>77.289062</ele>
        <time>2023-06-26T09:43:55.234Z</time>
      </trkpt>
      <trkpt lat="51.52282" lon="6.60196">
        <ele>77.257982</ele>
        <time>2023-06-26T09:43:59.248Z</time>
      </trkpt>
      <trkpt lat="51.52272" lon="6.60197">
        <ele>77.228062</ele>
        <time>2023-06-26T09:44:03.211Z</time>
      </trkpt>
      <trkpt lat="51.52262" lon="6.60198">
        <ele>77.199029</ele>
        <time>2023-06-26T09:44:06.222Z</time>
      </trkpt>
      <trkpt lat="51.52252" lon="6.602">
        <ele>77.168412</ele>
        <time>2023-06-26T09:44:09.219Z</time>
      </trkpt>
      <trkpt lat="51.52241" lon="6.60203">
        <ele>77.137474</ele>
        <time>2023-06-26T09:44:12.245Z</time>
      </trkpt>
      <trkpt lat="51.52232" lon="6.60207">
        <ele>77.108481</ele>
        <time>2023-06-26T09:44:15.239Z</time>
      </trkpt>
      <trkpt lat="51.52222" lon="6.6021">
        <ele>77.079248</ele>
        <time>2023-06-26T09:44:18.225Z</time>
      </trkpt>
      <trkpt lat="51.52211" lon="6.60215">
        <ele>77.232889</ele>
        <time>2023-06-26T09:44:21.241Z</time>
      </trkpt>
      <trkpt lat="51.522" lon="6.6022">
        <ele>77.429337</ele>
        <time>2023-06-26T09:44:24.233Z</time>
      </trkpt>
      <trkpt lat="51.52188" lon="6.60225">
        <ele>77.621556</ele>
        <time>2023-06-26T09:44:27.233Z</time>
      </trkpt>
      <trkpt lat="51.52176" lon="6.6023">
        <ele>77.821901</ele>
        <time>2023-06-26T09:44:30.233Z</time>
      </trkpt>
      <trkpt lat="51.52165" lon="6.60236">
        <ele>78.021303</ele>
        <time>2023-06-26T09:44:33.222Z</time>
      </trkpt>
      <trkpt lat="51.52153" lon="6.60244">
        <ele>78.225858</ele>
        <time>2023-06-26T09:44:36.238Z</time>
      </trkpt>
      <trkpt lat="51.52142" lon="6.60252">
        <ele>78.424923</ele>
        <time>2023-06-26T09:44:39.243Z</time>
      </trkpt>
      <trkpt lat="51.52131" lon="6.6026">
        <ele>78.625476</ele>
        <time>2023-06-26T09:44:42.206Z</time>
      </trkpt>
      <trkpt lat="51.52119" lon="6.60267">
        <ele>78.830422</ele>
        <time>2023-06-26T09:44:45.251Z</time>
      </trkpt>
      <trkpt lat="51.5211" lon="6.60276">
        <ele>79.012812</ele>
        <time>2023-06-26T09:44:48.244Z</time>
      </trkpt>
      <trkpt lat="51.52099" lon="6.60285">
        <ele>79.206664</ele>
        <time>2023-06-26T09:44:51.227Z</time>
      </trkpt>
      <trkpt lat="51.52088" lon="6.60296">
        <ele>79.413839</ele>
        <time>2023-06-26T09:44:54.231Z</time>
      </trkpt>
      <trkpt lat="51.52077" lon="6.60307">
        <ele>79.627123</ele>
        <time>2023-06-26T09:44:57.231Z</time>
      </trkpt>
      <trkpt lat="51.52066" lon="6.60318">
        <ele>79.842189</ele>
        <time>2023-06-26T09:45:00.227Z</time>
      </trkpt>
      <trkpt lat="51.52058" lon="6.60325">
        <ele>79.99049</ele>
        <time>2023-06-26T09:45:02.227Z</time>
      </trkpt>
      <trkpt lat="51.5205" lon="6.60333">
        <ele>79.907345</ele>
        <time>2023-06-26T09:45:04.247Z</time>
      </trkpt>
      <trkpt lat="51.52043" lon="6.60341">
        <ele>79.779987</ele>
        <time>2023-06-26T09:45:06.230Z</time>
      </trkpt>
      <trkpt lat="51.52035" lon="6.60349">
        <ele>79.652837</ele>
        <time>2023-06-26T09:45:08.245Z</time>
      </trkpt>
      <trkpt lat="51.52027" lon="6.60358">
        <ele>79.519936</ele>
        <time>2023-06-26T09:45:10.237Z</time>
      </trkpt>
      <trkpt lat="51.52019" lon="6.60366">
        <ele>79.391827</ele>
        <time>2023-06-26T09:45:12.237Z</time>
      </trkpt>
      <trkpt lat="51.52011" lon="6.60374">
        <ele>79.265387</ele>
        <time>2023-06-26T09:45:14.224Z</time>
      </trkpt>
      <trkpt lat="51.52004" lon="6.60383">
        <ele>79.133868</ele>
        <time>2023-06-26T09:45:16.240Z</time>
      </trkpt>
      <trkpt lat="51.51996" lon="6.60392">
        <ele>79.003741</ele>
        <time>2023-06-26T09:45:18.248Z</time>
      </trkpt>
      <trkpt lat="51.51988" lon="6.604">
        <ele>78.87079</ele>
        <time>2023-06-26T09:45:20.231Z</time>
      </trkpt>
      <trkpt lat="51.5198" lon="6.60409">
        <ele>78.739505</ele>
        <time>2023-06-26T09:45:22.225Z</time>
      </trkpt>
      <trkpt lat="51.51971" lon="6.60417">
        <ele>78.609121</ele>
        <time>2023-06-26T09:45:24.235Z</time>
      </trkpt>
      <trkpt lat="51.51963" lon="6.60426">
        <ele>78.472459</ele>
        <time>2023-06-26T09:45:26.253Z</time>
      </trkpt>
      <trkpt lat="51.51955" lon="6.60434">
        <ele>78.338375</ele>
        <time>2023-06-26T09:45:28.223Z</time>
      </trkpt>
      <trkpt lat="51.51947" lon="6.60444">
        <ele>78.204671</ele>
        <time>2023-06-26T09:45:30.231Z</time>
      </trkpt>
      <trkpt lat="51.51939" lon="6.60453">
        <ele>78.072849</ele>
        <time>2023-06-26T09:45:32.230Z</time>
      </trkpt>
      <trkpt lat="51.51931" lon="6.60462">
        <ele>77.935329</ele>
        <time>2023-06-26T09:45:34.225Z</time>
      </trkpt>
      <trkpt lat="51.51923" lon="6.60471">
        <ele>77.804473</ele>
        <time>2023-06-26T09:45:36.231Z</time>
      </trkpt>
      <trkpt lat="51.51916" lon="6.6048">
        <ele>77.676107</ele>
        <time>2023-06-26T09:45:38.225Z</time>
      </trkpt>
      <trkpt lat="51.51906" lon="6.60492">
        <ele>77.53372</ele>
        <time>2023-06-26T09:45:41.247Z</time>
      </trkpt>
      <trkpt lat="51.51896" lon="6.60502">
        <ele>77.486824</ele>
        <time>2023-06-26T09:45:44.238Z</time>
      </trkpt>
      <trkpt lat="51.51886" lon="6.60512">
        <ele>77.440002</ele>
        <time>2023-06-26T09:45:47.231Z</time>
      </trkpt>
      <trkpt lat="51.51877" lon="6.60521">
        <ele>77.400228</ele>
        <time>2023-06-26T09:45:50.226Z</time>
      </trkpt>
      <trkpt lat="51.5187" lon="6.60529">
        <ele>77.363516</ele>
        <time>2023-06-26T09:45:53.231Z</time>
      </trkpt>
      <trkpt lat="51.51862" lon="6.60537">
        <ele>77.327709</ele>
        <time>2023-06-26T09:45:56.249Z</time>
      </trkpt>
      <trkpt lat="51.5185" lon="6.60552">
        <ele>77.269312</ele>
        <time>2023-06-26T09:46:25.259Z</time>
      </trkpt>
      <trkpt lat="51.5184" lon="6.60561">
        <ele>77.22373</ele>
        <time>2023-06-26T09:46:29.232Z</time>
      </trkpt>
      <trkpt lat="51.5183" lon="6.60571">
        <ele>77.175099</ele>
        <time>2023-06-26T09:46:32.227Z</time>
      </trkpt>
      <trkpt lat="51.51823" lon="6.6058">
        <ele>77.138577</ele>
        <time>2023-06-26T09:46:34.231Z</time>
      </trkpt>
      <trkpt lat="51.51812" lon="6.60592">
        <ele>77.088292</ele>
        <time>2023-06-26T09:46:37.242Z</time>
      </trkpt>
      <trkpt lat="51.51805" lon="6.60601">
        <ele>77.051928</ele>
        <time>2023-06-26T09:46:39.243Z</time>
      </trkpt>
      <trkpt lat="51.51794" lon="6.60613">
        <ele>76.999882</ele>
        <time>2023-06-26T09:46:42.226Z</time>
      </trkpt>
      <trkpt lat="51.51786" lon="6.60621">
        <ele>76.96196</ele>
        <time>2023-06-26T09:46:44.222Z</time>
      </trkpt>
      <trkpt lat="51.51775" lon="6.60632">
        <ele>76.909885</ele>
        <time>2023-06-26T09:46:47.235Z</time>
      </trkpt>
      <trkpt lat="51.51767" lon="6.60641">
        <ele>76.872839</ele>
        <time>2023-06-26T09:46:49.248Z</time>
      </trkpt>
      <trkpt lat="51.51759" lon="6.6065">
        <ele>76.835837</ele>
        <time>2023-06-26T09:46:51.240Z</time>
      </trkpt>
      <trkpt lat="51.51748" lon="6.60662">
        <ele>76.879164</ele>
        <time>2023-06-26T09:46:54.243Z</time>
      </trkpt>
      <trkpt lat="51.5174" lon="6.60671">
        <ele>76.91007</ele>
        <time>2023-06-26T09:46:56.213Z</time>
      </trkpt>
      <trkpt lat="51.51733" lon="6.60679">
        <ele>76.940441</ele>
        <time>2023-06-26T09:46:58.209Z</time>
      </trkpt>
      <trkpt lat="51.51725" lon="6.60688">
        <ele>76.972204</ele>
        <time>2023-06-26T09:47:00.241Z</time>
      </trkpt>
      <trkpt lat="51.51717" lon="6.60696">
        <ele>77.002375</ele>
        <time>2023-06-26T09:47:02.233Z</time>
      </trkpt>
      <trkpt lat="51.51708" lon="6.60706">
        <ele>77.038032</ele>
        <time>2023-06-26T09:47:04.227Z</time>
      </trkpt>
      <trkpt lat="51.517" lon="6.60714">
        <ele>77.07097</ele>
        <time>2023-06-26T09:47:06.247Z</time>
      </trkpt>
      <trkpt lat="51.51691" lon="6.60724">
        <ele>77.1052</ele>
        <time>2023-06-26T09:47:08.231Z</time>
      </trkpt>
      <trkpt lat="51.51683" lon="6.60733">
        <ele>77.137406</ele>
        <time>2023-06-26T09:47:10.227Z</time>
      </trkpt>
      <trkpt lat="51.51674" lon="6.60742">
        <ele>77.171609</ele>
        <time>2023-06-26T09:47:12.238Z</time>
      </trkpt>
      <trkpt lat="51.51666" lon="6.60751">
        <ele>77.205195</ele>
        <time>2023-06-26T09:47:14.235Z</time>
      </trkpt>
      <trkpt lat="51.51657" lon="6.60761">
        <ele>77.238804</ele>
        <time>2023-06-26T09:47:16.229Z</time>
      </trkpt>
      <trkpt lat="51.51649" lon="6.6077">
        <ele>77.272297</ele>
        <time>2023-06-26T09:47:18.225Z</time>
      </trkpt>
      <trkpt lat="51.5164" lon="6.6078">
        <ele>77.307105</ele>
        <time>2023-06-26T09:47:20.223Z</time>
      </trkpt>
      <trkpt lat="51.51631" lon="6.60788">
        <ele>77.340712</ele>
        <time>2023-06-26T09:47:22.235Z</time>
      </trkpt>
      <trkpt lat="51.51622" lon="6.60799">
        <ele>77.378121</ele>
        <time>2023-06-26T09:47:24.225Z</time>
      </trkpt>
      <trkpt lat="51.51613" lon="6.60808">
        <ele>77.414801</ele>
        <time>2023-06-26T09:47:26.232Z</time>
      </trkpt>
      <trkpt lat="51.51604" lon="6.60819">
        <ele>77.479062</ele>
        <time>2023-06-26T09:47:28.234Z</time>
      </trkpt>
      <trkpt lat="51.51595" lon="6.6083">
        <ele>77.55466</ele>
        <time>2023-06-26T09:47:30.245Z</time>
      </trkpt>
      <trkpt lat="51.51585" lon="6.60839">
        <ele>77.629403</ele>
        <time>2023-06-26T09:47:32.231Z</time>
      </trkpt>
      <trkpt lat="51.51576" lon="6.6085">
        <ele>77.703361</ele>
        <time>2023-06-26T09:47:34.225Z</time>
      </trkpt>
      <trkpt lat="51.51567" lon="6.6086">
        <ele>77.77769</ele>
        <time>2023-06-26T09:47:36.250Z</time>
      </trkpt>
      <trkpt lat="51.51559" lon="6.6087">
        <ele>77.850613</ele>
        <time>2023-06-26T09:47:38.227Z</time>
      </trkpt>
      <trkpt lat="51.5155" lon="6.60879">
        <ele>77.918618</ele>
        <time>2023-06-26T09:47:40.229Z</time>
      </trkpt>
      <trkpt lat="51.51541" lon="6.60889">
        <ele>77.991128</ele>
        <time>2023-06-26T09:47:42.247Z</time>
      </trkpt>
      <trkpt lat="51.51533" lon="6.609">
        <ele>78.06293</ele>
        <time>2023-06-26T09:47:44.231Z</time>
      </trkpt>
      <trkpt lat="51.51524" lon="6.60909">
        <ele>78.137218</ele>
        <time>2023-06-26T09:47:46.249Z</time>
      </trkpt>
      <trkpt lat="51.51515" lon="6.60919">
        <ele>78.209966</ele>
        <time>2023-06-26T09:47:48.240Z</time>
      </trkpt>
      <trkpt lat="51.51506" lon="6.60928">
        <ele>78.281431</ele>
        <time>2023-06-26T09:47:50.236Z</time>
      </trkpt>
      <trkpt lat="51.51497" lon="6.60938">
        <ele>78.353707</ele>
        <time>2023-06-26T09:47:52.245Z</time>
      </trkpt>
      <trkpt lat="51.51488" lon="6.60948">
        <ele>78.427799</ele>
        <time>2023-06-26T09:47:54.229Z</time>
      </trkpt>
      <trkpt lat="51.51479" lon="6.60958">
        <ele>78.501215</ele>
        <time>2023-06-26T09:47:56.230Z</time>
      </trkpt>
      <trkpt lat="51.5147" lon="6.60968">
        <ele>78.572794</ele>
        <time>2023-06-26T09:47:58.218Z</time>
      </trkpt>
      <trkpt lat="51.51461" lon="6.60977">
        <ele>78.631488</ele>
        <time>2023-06-26T09:48:00.224Z</time>
      </trkpt>
      <trkpt lat="51.51452" lon="6.60988">
        <ele>78.612264</ele>
        <time>2023-06-26T09:48:02.215Z</time>
      </trkpt>
      <trkpt lat="51.51442" lon="6.60998">
        <ele>78.593041</ele>
        <time>2023-06-26T09:48:04.230Z</time>
      </trkpt>
      <trkpt lat="51.51433" lon="6.61007">
        <ele>78.573789</ele>
        <time>2023-06-26T09:48:06.227Z</time>
      </trkpt>
      <trkpt lat="51.51424" lon="6.61017">
        <ele>78.555028</ele>
        <time>2023-06-26T09:48:08.242Z</time>
      </trkpt>
      <trkpt lat="51.51415" lon="6.61026">
        <ele>78.536818</ele>
        <time>2023-06-26T09:48:10.228Z</time>
      </trkpt>
      <trkpt lat="51.51406" lon="6.61036">
        <ele>78.518839</ele>
        <time>2023-06-26T09:48:12.238Z</time>
      </trkpt>
      <trkpt lat="51.51397" lon="6.61045">
        <ele>78.500765</ele>
        <time>2023-06-26T09:48:14.215Z</time>
      </trkpt>
      <trkpt lat="51.51389" lon="6.61055">
        <ele>78.482307</ele>
        <time>2023-06-26T09:48:16.243Z</time>
      </trkpt>
      <trkpt lat="51.5138" lon="6.61065">
        <ele>78.464313</ele>
        <time>2023-06-26T09:48:18.225Z</time>
      </trkpt>
      <trkpt lat="51.51372" lon="6.61075">
        <ele>78.447012</ele>
        <time>2023-06-26T09:48:20.240Z</time>
      </trkpt>
      <trkpt lat="51.51363" lon="6.61084">
        <ele>78.429696</ele>
        <time>2023-06-26T09:48:22.232Z</time>
      </trkpt>
      <trkpt lat="51.51355" lon="6.61093">
        <ele>78.412346</ele>
        <time>2023-06-26T09:48:24.234Z</time>
      </trkpt>
      <trkpt lat="51.51347" lon="6.61101">
        <ele>78.395433</ele>
        <time>2023-06-26T09:48:26.235Z</time>
      </trkpt>
      <trkpt lat="51.51338" lon="6.61111">
        <ele>78.37764</ele>
        <time>2023-06-26T09:48:28.229Z</time>
      </trkpt>
      <trkpt lat="51.5133" lon="6.6112">
        <ele>78.360372</ele>
        <time>2023-06-26T09:48:30.234Z</time>
      </trkpt>
      <trkpt lat="51.51322" lon="6.61129">
        <ele>78.343567</ele>
        <time>2023-06-26T09:48:32.235Z</time>
      </trkpt>
      <trkpt lat="51.51313" lon="6.61139">
        <ele>78.325321</ele>
        <time>2023-06-26T09:48:34.238Z</time>
      </trkpt>
      <trkpt lat="51.51305" lon="6.61148">
        <ele>78.307894</ele>
        <time>2023-06-26T09:48:36.232Z</time>
      </trkpt>
      <trkpt lat="51.51297" lon="6.61156">
        <ele>78.290105</ele>
        <time>2023-06-26T09:48:38.230Z</time>
      </trkpt>
      <trkpt lat="51.51289" lon="6.61165">
        <ele>78.272127</ele>
        <time>2023-06-26T09:48:40.256Z</time>
      </trkpt>
      <trkpt lat="51.5128" lon="6.61175">
        <ele>78.253384</ele>
        <time>2023-06-26T09:48:42.239Z</time>
      </trkpt>
      <trkpt lat="51.51272" lon="6.61184">
        <ele>78.23517</ele>
        <time>2023-06-26T09:48:44.241Z</time>
      </trkpt>
      <trkpt lat="51.51263" lon="6.61193">
        <ele>78.216107</ele>
        <time>2023-06-26T09:48:46.230Z</time>
      </trkpt>
      <trkpt lat="51.51255" lon="6.61202">
        <ele>78.198256</ele>
        <time>2023-06-26T09:48:48.227Z</time>
      </trkpt>
      <trkpt lat="51.51247" lon="6.61211">
        <ele>78.181104</ele>
        <time>2023-06-26T09:48:50.227Z</time>
      </trkpt>
      <trkpt lat="51.51238" lon="6.6122">
        <ele>78.1618</ele>
        <time>2023-06-26T09:48:52.233Z</time>
      </trkpt>
      <trkpt lat="51.5123" lon="6.61229">
        <ele>78.144182</ele>
        <time>2023-06-26T09:48:54.212Z</time>
      </trkpt>
      <trkpt lat="51.51222" lon="6.61238">
        <ele>78.126859</ele>
        <time>2023-06-26T09:48:56.231Z</time>
      </trkpt>
      <trkpt lat="51.51214" lon="6.61247">
        <ele>78.109156</ele>
        <time>2023-06-26T09:48:58.231Z</time>
      </trkpt>
      <trkpt lat="51.51206" lon="6.61257">
        <ele>78.091211</ele>
        <time>2023-06-26T09:49:00.234Z</time>
      </trkpt>
      <trkpt lat="51.51198" lon="6.61265">
        <ele>78.073302</ele>
        <time>2023-06-26T09:49:02.231Z</time>
      </trkpt>
      <trkpt lat="51.51189" lon="6.61274">
        <ele>78.054751</ele>
        <time>2023-06-26T09:49:04.212Z</time>
      </trkpt>
      <trkpt lat="51.51181" lon="6.61285">
        <ele>78.034851</ele>
        <time>2023-06-26T09:49:06.213Z</time>
      </trkpt>
      <trkpt lat="51.51171" lon="6.61294">
        <ele>78.015323</ele>
        <time>2023-06-26T09:49:08.225Z</time>
      </trkpt>
      <trkpt lat="51.51162" lon="6.61305">
        <ele>77.978352</ele>
        <time>2023-06-26T09:49:10.219Z</time>
      </trkpt>
      <trkpt lat="51.51153" lon="6.61314">
        <ele>77.906529</ele>
        <time>2023-06-26T09:49:12.226Z</time>
      </trkpt>
      <trkpt lat="51.51144" lon="6.61324">
        <ele>77.833601</ele>
        <time>2023-06-26T09:49:14.215Z</time>
      </trkpt>
      <trkpt lat="51.51135" lon="6.61335">
        <ele>77.757492</ele>
        <time>2023-06-26T09:49:16.246Z</time>
      </trkpt>
      <trkpt lat="51.51125" lon="6.61345">
        <ele>77.681538</ele>
        <time>2023-06-26T09:49:18.231Z</time>
      </trkpt>
      <trkpt lat="51.51116" lon="6.61355">
        <ele>77.606749</ele>
        <time>2023-06-26T09:49:20.227Z</time>
      </trkpt>
      <trkpt lat="51.51107" lon="6.61366">
        <ele>77.534297</ele>
        <time>2023-06-26T09:49:22.228Z</time>
      </trkpt>
      <trkpt lat="51.51098" lon="6.61375">
        <ele>77.460589</ele>
        <time>2023-06-26T09:49:24.206Z</time>
      </trkpt>
      <trkpt lat="51.51088" lon="6.61386">
        <ele>77.38573</ele>
        <time>2023-06-26T09:49:26.243Z</time>
      </trkpt>
      <trkpt lat="51.51079" lon="6.61396">
        <ele>77.309544</ele>
        <time>2023-06-26T09:49:28.241Z</time>
      </trkpt>
      <trkpt lat="51.5107" lon="6.61406">
        <ele>77.236285</ele>
        <time>2023-06-26T09:49:30.223Z</time>
      </trkpt>
      <trkpt lat="51.5106" lon="6.61416">
        <ele>77.160879</ele>
        <time>2023-06-26T09:49:32.248Z</time>
      </trkpt>
      <trkpt lat="51.51051" lon="6.61427">
        <ele>77.084292</ele>
        <time>2023-06-26T09:49:34.238Z</time>
      </trkpt>
      <trkpt lat="51.51041" lon="6.61437">
        <ele>77.005674</ele>
        <time>2023-06-26T09:49:36.207Z</time>
      </trkpt>
      <trkpt lat="51.51031" lon="6.61447">
        <ele>76.927049</ele>
        <time>2023-06-26T09:49:38.245Z</time>
      </trkpt>
      <trkpt lat="51.51021" lon="6.61458">
        <ele>76.848882</ele>
        <time>2023-06-26T09:49:40.224Z</time>
      </trkpt>
      <trkpt lat="51.51012" lon="6.61468">
        <ele>76.782996</ele>
        <time>2023-06-26T09:49:42.227Z</time>
      </trkpt>
      <trkpt lat="51.51002" lon="6.61479">
        <ele>76.723759</ele>
        <time>2023-06-26T09:49:44.245Z</time>
      </trkpt>
      <trkpt lat="51.50992" lon="6.6149">
        <ele>76.666814</ele>
        <time>2023-06-26T09:49:46.231Z</time>
      </trkpt>
      <trkpt lat="51.50982" lon="6.61502">
        <ele>76.605474</ele>
        <time>2023-06-26T09:49:48.240Z</time>
      </trkpt>
      <trkpt lat="51.50972" lon="6.61513">
        <ele>76.548705</ele>
        <time>2023-06-26T09:49:50.248Z</time>
      </trkpt>
      <trkpt lat="51.50963" lon="6.61523">
        <ele>76.491355</ele>
        <time>2023-06-26T09:49:52.245Z</time>
      </trkpt>
      <trkpt lat="51.50953" lon="6.61535">
        <ele>76.434218</ele>
        <time>2023-06-26T09:49:54.229Z</time>
      </trkpt>
      <trkpt lat="51.50944" lon="6.61545">
        <ele>76.379496</ele>
        <time>2023-06-26T09:49:56.242Z</time>
      </trkpt>
      <trkpt lat="51.50934" lon="6.61554">
        <ele>76.325175</ele>
        <time>2023-06-26T09:49:58.229Z</time>
      </trkpt>
      <trkpt lat="51.50925" lon="6.61565">
        <ele>76.268803</ele>
        <time>2023-06-26T09:50:00.222Z</time>
      </trkpt>
      <trkpt lat="51.50915" lon="6.61575">
        <ele>76.213172</ele>
        <time>2023-06-26T09:50:02.232Z</time>
      </trkpt>
      <trkpt lat="51.50906" lon="6.61585">
        <ele>76.157605</ele>
        <time>2023-06-26T09:50:04.230Z</time>
      </trkpt>
      <trkpt lat="51.50897" lon="6.61595">
        <ele>76.105073</ele>
        <time>2023-06-26T09:50:06.234Z</time>
      </trkpt>
      <trkpt lat="51.50888" lon="6.61606">
        <ele>76.050129</ele>
        <time>2023-06-26T09:50:08.253Z</time>
      </trkpt>
      <trkpt lat="51.50878" lon="6.61616">
        <ele>75.99433</ele>
        <time>2023-06-26T09:50:10.229Z</time>
      </trkpt>
      <trkpt lat="51.50869" lon="6.61625">
        <ele>75.939068</ele>
        <time>2023-06-26T09:50:12.224Z</time>
      </trkpt>
      <trkpt lat="51.50859" lon="6.61635">
        <ele>75.953864</ele>
        <time>2023-06-26T09:50:14.216Z</time>
      </trkpt>
      <trkpt lat="51.50849" lon="6.61645">
        <ele>75.974573</ele>
        <time>2023-06-26T09:50:16.223Z</time>
      </trkpt>
      <trkpt lat="51.50839" lon="6.61655">
        <ele>75.996546</ele>
        <time>2023-06-26T09:50:18.247Z</time>
      </trkpt>
      <trkpt lat="51.50829" lon="6.61665">
        <ele>76.017561</ele>
        <time>2023-06-26T09:50:20.227Z</time>
      </trkpt>
      <trkpt lat="51.50821" lon="6.61675">
        <ele>76.037195</ele>
        <time>2023-06-26T09:50:22.228Z</time>
      </trkpt>
      <trkpt lat="51.50811" lon="6.61682">
        <ele>76.057445</ele>
        <time>2023-06-26T09:50:24.222Z</time>
      </trkpt>
      <trkpt lat="51.50801" lon="6.61691">
        <ele>76.078659</ele>
        <time>2023-06-26T09:50:26.226Z</time>
      </trkpt>
      <trkpt lat="51.50791" lon="6.61701">
        <ele>76.099303</ele>
        <time>2023-06-26T09:50:28.227Z</time>
      </trkpt>
      <trkpt lat="51.50782" lon="6.61711">
        <ele>76.120195</ele>
        <time>2023-06-26T09:50:30.227Z</time>
      </trkpt>
      <trkpt lat="51.50772" lon="6.61722">
        <ele>76.141259</ele>
        <time>2023-06-26T09:50:32.237Z</time>
      </trkpt>
      <trkpt lat="51.50764" lon="6.61731">
        <ele>76.160084</ele>
        <time>2023-06-26T09:50:34.230Z</time>
      </trkpt>
      <trkpt lat="51.50755" lon="6.61741">
        <ele>76.179038</ele>
        <time>2023-06-26T09:50:36.241Z</time>
      </trkpt>
      <trkpt lat="51.50748" lon="6.61752">
        <ele>76.197023</ele>
        <time>2023-06-26T09:50:38.232Z</time>
      </trkpt>
      <trkpt lat="51.50742" lon="6.61763">
        <ele>76.214416</ele>
        <time>2023-06-26T09:50:40.213Z</time>
      </trkpt>
      <trkpt lat="51.50732" lon="6.61776">
        <ele>76.238568</ele>
        <time>2023-06-26T09:50:43.228Z</time>
      </trkpt>
      <trkpt lat="51.5072" lon="6.61787">
        <ele>76.263725</ele>
        <time>2023-06-26T09:50:46.245Z</time>
      </trkpt>
      <trkpt lat="51.50712" lon="6.61797">
        <ele>76.304967</ele>
        <time>2023-06-26T09:50:48.249Z</time>
      </trkpt>
      <trkpt lat="51.50701" lon="6.61809">
        <ele>76.363583</ele>
        <time>2023-06-26T09:50:51.234Z</time>
      </trkpt>
      <trkpt lat="51.5069" lon="6.6182">
        <ele>76.421088</ele>
        <time>2023-06-26T09:50:54.236Z</time>
      </trkpt>
      <trkpt lat="51.50679" lon="6.61832">
        <ele>76.478625</ele>
        <time>2023-06-26T09:50:57.233Z</time>
      </trkpt>
      <trkpt lat="51.50668" lon="6.61845">
        <ele>76.536675</ele>
        <time>2023-06-26T09:51:00.218Z</time>
      </trkpt>
      <trkpt lat="51.50658" lon="6.61855">
        <ele>76.590496</ele>
        <time>2023-06-26T09:51:03.228Z</time>
      </trkpt>
      <trkpt lat="51.50647" lon="6.61866">
        <ele>76.6466</ele>
        <time>2023-06-26T09:51:06.213Z</time>
      </trkpt>
      <trkpt lat="51.50636" lon="6.61878">
        <ele>76.704342</ele>
        <time>2023-06-26T09:51:09.249Z</time>
      </trkpt>
      <trkpt lat="51.50629" lon="6.61887">
        <ele>76.743899</ele>
        <time>2023-06-26T09:51:11.231Z</time>
      </trkpt>
      <trkpt lat="51.50618" lon="6.61899">
        <ele>76.801078</ele>
        <time>2023-06-26T09:51:14.221Z</time>
      </trkpt>
      <trkpt lat="51.50607" lon="6.6191">
        <ele>76.858212</ele>
        <time>2023-06-26T09:51:17.240Z</time>
      </trkpt>
      <trkpt lat="51.50596" lon="6.61922">
        <ele>76.915953</ele>
        <time>2023-06-26T09:51:20.227Z</time>
      </trkpt>
      <trkpt lat="51.50589" lon="6.6193">
        <ele>76.955808</ele>
        <time>2023-06-26T09:51:22.207Z</time>
      </trkpt>
      <trkpt lat="51.50578" lon="6.61942">
        <ele>77.014171</ele>
        <time>2023-06-26T09:51:25.244Z</time>
      </trkpt>
      <trkpt lat="51.50567" lon="6.61954">
        <ele>77.044849</ele>
        <time>2023-06-26T09:51:28.226Z</time>
      </trkpt>
      <trkpt lat="51.50557" lon="6.61964">
        <ele>77.027818</ele>
        <time>2023-06-26T09:51:31.244Z</time>
      </trkpt>
      <trkpt lat="51.50546" lon="6.61976">
        <ele>77.010105</ele>
        <time>2023-06-26T09:51:34.229Z</time>
      </trkpt>
      <trkpt lat="51.50536" lon="6.61987">
        <ele>76.993326</ele>
        <time>2023-06-26T09:51:37.207Z</time>
      </trkpt>
      <trkpt lat="51.50526" lon="6.61999">
        <ele>76.975785</ele>
        <time>2023-06-26T09:51:40.211Z</time>
      </trkpt>
      <trkpt lat="51.50515" lon="6.6201">
        <ele>76.958548</ele>
        <time>2023-06-26T09:51:43.239Z</time>
      </trkpt>
      <trkpt lat="51.50505" lon="6.62022">
        <ele>76.940856</ele>
        <time>2023-06-26T09:51:46.228Z</time>
      </trkpt>
      <trkpt lat="51.50493" lon="6.62035">
        <ele>76.922372</ele>
        <time>2023-06-26T09:51:49.220Z</time>
      </trkpt>
      <trkpt lat="51.50486" lon="6.62043">
        <ele>76.910006</ele>
        <time>2023-06-26T09:51:51.225Z</time>
      </trkpt>
      <trkpt lat="51.50478" lon="6.62051">
        <ele>76.897112</ele>
        <time>2023-06-26T09:51:53.228Z</time>
      </trkpt>
      <trkpt lat="51.5047" lon="6.62059">
        <ele>76.884302</ele>
        <time>2023-06-26T09:51:55.236Z</time>
      </trkpt>
      <trkpt lat="51.50463" lon="6.62068">
        <ele>76.871554</ele>
        <time>2023-06-26T09:51:57.229Z</time>
      </trkpt>
      <trkpt lat="51.50454" lon="6.62076">
        <ele>76.858476</ele>
        <time>2023-06-26T09:51:59.249Z</time>
      </trkpt>
      <trkpt lat="51.50446" lon="6.62085">
        <ele>76.845237</ele>
        <time>2023-06-26T09:52:01.226Z</time>
      </trkpt>
      <trkpt lat="51.50439" lon="6.62094">
        <ele>76.832078</ele>
        <time>2023-06-26T09:52:03.237Z</time>
      </trkpt>
      <trkpt lat="51.50431" lon="6.62102">
        <ele>76.81923</ele>
        <time>2023-06-26T09:52:05.232Z</time>
      </trkpt>
      <trkpt lat="51.50422" lon="6.62111">
        <ele>76.805616</ele>
        <time>2023-06-26T09:52:07.230Z</time>
      </trkpt>
      <trkpt lat="51.50414" lon="6.62121">
        <ele>76.790347</ele>
        <time>2023-06-26T09:52:09.208Z</time>
      </trkpt>
      <trkpt lat="51.50406" lon="6.62129">
        <ele>76.775579</ele>
        <time>2023-06-26T09:52:11.225Z</time>
      </trkpt>
      <trkpt lat="51.50398" lon="6.62139">
        <ele>76.76011</ele>
        <time>2023-06-26T09:52:13.227Z</time>
      </trkpt>
      <trkpt lat="51.5039" lon="6.62148">
        <ele>76.744464</ele>
        <time>2023-06-26T09:52:15.225Z</time>
      </trkpt>
      <trkpt lat="51.50381" lon="6.62155">
        <ele>76.72902</ele>
        <time>2023-06-26T09:52:17.231Z</time>
      </trkpt>
      <trkpt lat="51.50372" lon="6.62164">
        <ele>76.713891</ele>
        <time>2023-06-26T09:52:19.248Z</time>
      </trkpt>
      <trkpt lat="51.50364" lon="6.62172">
        <ele>76.699071</ele>
        <time>2023-06-26T09:52:21.232Z</time>
      </trkpt>
      <trkpt lat="51.50356" lon="6.62181">
        <ele>76.684056</ele>
        <time>2023-06-26T09:52:23.211Z</time>
      </trkpt>
      <trkpt lat="51.50348" lon="6.6219">
        <ele>76.669029</ele>
        <time>2023-06-26T09:52:25.238Z</time>
      </trkpt>
      <trkpt lat="51.5034" lon="6.62197">
        <ele>76.654354</ele>
        <time>2023-06-26T09:52:27.240Z</time>
      </trkpt>
      <trkpt lat="51.50332" lon="6.62205">
        <ele>76.640564</ele>
        <time>2023-06-26T09:52:29.243Z</time>
      </trkpt>
      <trkpt lat="51.50324" lon="6.62214">
        <ele>76.626379</ele>
        <time>2023-06-26T09:52:31.238Z</time>
      </trkpt>
      <trkpt lat="51.50317" lon="6.62223">
        <ele>76.611924</ele>
        <time>2023-06-26T09:52:33.220Z</time>
      </trkpt>
      <trkpt lat="51.50307" lon="6.62237">
        <ele>76.591323</ele>
        <time>2023-06-26T09:52:36.225Z</time>
      </trkpt>
      <trkpt lat="51.50298" lon="6.62245">
        <ele>76.576193</ele>
        <time>2023-06-26T09:52:38.242Z</time>
      </trkpt>
      <trkpt lat="51.5029" lon="6.62254">
        <ele>76.560826</ele>
        <time>2023-06-26T09:52:40.233Z</time>
      </trkpt>
      <trkpt lat="51.5028" lon="6.62262">
        <ele>76.544529</ele>
        <time>2023-06-26T09:52:42.223Z</time>
      </trkpt>
      <trkpt lat="51.50272" lon="6.62273">
        <ele>76.521153</ele>
        <time>2023-06-26T09:52:44.228Z</time>
      </trkpt>
      <trkpt lat="51.50265" lon="6.62284">
        <ele>76.445125</ele>
        <time>2023-06-26T09:52:46.222Z</time>
      </trkpt>
      <trkpt lat="51.50256" lon="6.62294">
        <ele>76.362624</ele>
        <time>2023-06-26T09:52:48.240Z</time>
      </trkpt>
      <trkpt lat="51.50248" lon="6.62305">
        <ele>76.279528</ele>
        <time>2023-06-26T09:52:50.230Z</time>
      </trkpt>
      <trkpt lat="51.50239" lon="6.62315">
        <ele>76.195131</ele>
        <time>2023-06-26T09:52:52.240Z</time>
      </trkpt>
      <trkpt lat="51.5023" lon="6.62326">
        <ele>76.111981</ele>
        <time>2023-06-26T09:52:54.234Z</time>
      </trkpt>
      <trkpt lat="51.50222" lon="6.62336">
        <ele>76.027299</ele>
        <time>2023-06-26T09:52:56.204Z</time>
      </trkpt>
      <trkpt lat="51.50213" lon="6.62346">
        <ele>75.944024</ele>
        <time>2023-06-26T09:52:58.227Z</time>
      </trkpt>
      <trkpt lat="51.50204" lon="6.62356">
        <ele>75.858088</ele>
        <time>2023-06-26T09:53:00.221Z</time>
      </trkpt>
      <trkpt lat="51.50195" lon="6.62367">
        <ele>75.771361</ele>
        <time>2023-06-26T09:53:02.215Z</time>
      </trkpt>
      <trkpt lat="51.50186" lon="6.62377">
        <ele>75.686325</ele>
        <time>2023-06-26T09:53:04.223Z</time>
      </trkpt>
      <trkpt lat="51.50177" lon="6.62388">
        <ele>75.600445</ele>
        <time>2023-06-26T09:53:06.215Z</time>
      </trkpt>
      <trkpt lat="51.50168" lon="6.62399">
        <ele>75.510995</ele>
        <time>2023-06-26T09:53:08.226Z</time>
      </trkpt>
      <trkpt lat="51.50159" lon="6.62409">
        <ele>75.425059</ele>
        <time>2023-06-26T09:53:10.232Z</time>
      </trkpt>
      <trkpt lat="51.50149" lon="6.6242">
        <ele>75.332719</ele>
        <time>2023-06-26T09:53:12.234Z</time>
      </trkpt>
      <trkpt lat="51.50139" lon="6.62431">
        <ele>75.240182</ele>
        <time>2023-06-26T09:53:14.247Z</time>
      </trkpt>
      <trkpt lat="51.5013" lon="6.62442">
        <ele>75.151284</ele>
        <time>2023-06-26T09:53:16.223Z</time>
      </trkpt>
      <trkpt lat="51.50121" lon="6.62452">
        <ele>75.122434</ele>
        <time>2023-06-26T09:53:18.231Z</time>
      </trkpt>
      <trkpt lat="51.50112" lon="6.62461">
        <ele>75.106149</ele>
        <time>2023-06-26T09:53:20.214Z</time>
      </trkpt>
      <trkpt lat="51.50103" lon="6.62471">
        <ele>75.089804</ele>
        <time>2023-06-26T09:53:22.218Z</time>
      </trkpt>
      <trkpt lat="51.50094" lon="6.62482">
        <ele>75.073072</ele>
        <time>2023-06-26T09:53:24.220Z</time>
      </trkpt>
      <trkpt lat="51.50085" lon="6.62492">
        <ele>75.055758</ele>
        <time>2023-06-26T09:53:26.228Z</time>
      </trkpt>
      <trkpt lat="51.50076" lon="6.62503">
        <ele>75.038892</ele>
        <time>2023-06-26T09:53:28.227Z</time>
      </trkpt>
      <trkpt lat="51.50067" lon="6.62514">
        <ele>75.022955</ele>
        <time>2023-06-26T09:53:30.247Z</time>
      </trkpt>
      <trkpt lat="51.50058" lon="6.62524">
        <ele>75.006451</ele>
        <time>2023-06-26T09:53:32.220Z</time>
      </trkpt>
      <trkpt lat="51.50049" lon="6.62534">
        <ele>74.989558</ele>
        <time>2023-06-26T09:53:34.229Z</time>
      </trkpt>
      <trkpt lat="51.5004" lon="6.62544">
        <ele>74.973788</ele>
        <time>2023-06-26T09:53:36.235Z</time>
      </trkpt>
      <trkpt lat="51.50032" lon="6.62555">
        <ele>74.957741</ele>
        <time>2023-06-26T09:53:38.219Z</time>
      </trkpt>
      <trkpt lat="51.50024" lon="6.62565">
        <ele>74.942155</ele>
        <time>2023-06-26T09:53:40.244Z</time>
      </trkpt>
      <trkpt lat="51.50015" lon="6.62574">
        <ele>74.926845</ele>
        <time>2023-06-26T09:53:42.241Z</time>
      </trkpt>
      <trkpt lat="51.50007" lon="6.62584">
        <ele>74.911927</ele>
        <time>2023-06-26T09:53:44.227Z</time>
      </trkpt>
      <trkpt lat="51.49999" lon="6.62593">
        <ele>74.896332</ele>
        <time>2023-06-26T09:53:46.233Z</time>
      </trkpt>
      <trkpt lat="51.4999" lon="6.62602">
        <ele>74.881321</ele>
        <time>2023-06-26T09:53:48.243Z</time>
      </trkpt>
      <trkpt lat="51.49982" lon="6.62612">
        <ele>74.866373</ele>
        <time>2023-06-26T09:53:50.227Z</time>
      </trkpt>
      <trkpt lat="51.49974" lon="6.62622">
        <ele>74.744451</ele>
        <time>2023-06-26T09:53:52.230Z</time>
      </trkpt>
      <trkpt lat="51.49965" lon="6.62631">
        <ele>74.618447</ele>
        <time>2023-06-26T09:53:54.224Z</time>
      </trkpt>
      <trkpt lat="51.49957" lon="6.62641">
        <ele>74.496241</ele>
        <time>2023-06-26T09:53:56.216Z</time>
      </trkpt>
      <trkpt lat="51.49949" lon="6.62651">
        <ele>74.379365</ele>
        <time>2023-06-26T09:53:58.228Z</time>
      </trkpt>
      <trkpt lat="51.49941" lon="6.6266">
        <ele>74.260952</ele>
        <time>2023-06-26T09:54:00.237Z</time>
      </trkpt>
      <trkpt lat="51.49933" lon="6.62669">
        <ele>74.136639</ele>
        <time>2023-06-26T09:54:02.240Z</time>
      </trkpt>
      <trkpt lat="51.49925" lon="6.62678">
        <ele>74.02342</ele>
        <time>2023-06-26T09:54:04.229Z</time>
      </trkpt>
      <trkpt lat="51.49918" lon="6.62688">
        <ele>73.910259</ele>
        <time>2023-06-26T09:54:06.220Z</time>
      </trkpt>
      <trkpt lat="51.49908" lon="6.62701">
        <ele>73.756457</ele>
        <time>2023-06-26T09:54:09.218Z</time>
      </trkpt>
      <trkpt lat="51.49896" lon="6.62706">
        <ele>73.610856</ele>
        <time>2023-06-26T09:54:12.224Z</time>
      </trkpt>
      <trkpt lat="51.49886" lon="6.62717">
        <ele>73.460997</ele>
        <time>2023-06-26T09:54:15.232Z</time>
      </trkpt>
      <trkpt lat="51.49878" lon="6.62727">
        <ele>73.345926</ele>
        <time>2023-06-26T09:54:17.231Z</time>
      </trkpt>
      <trkpt lat="51.4987" lon="6.62735">
        <ele>73.232132</ele>
        <time>2023-06-26T09:54:19.229Z</time>
      </trkpt>
      <trkpt lat="51.49862" lon="6.62743">
        <ele>73.111675</ele>
        <time>2023-06-26T09:54:21.220Z</time>
      </trkpt>
      <trkpt lat="51.49854" lon="6.62753">
        <ele>72.993697</ele>
        <time>2023-06-26T09:54:23.234Z</time>
      </trkpt>
      <trkpt lat="51.49846" lon="6.62761">
        <ele>72.882224</ele>
        <time>2023-06-26T09:54:25.250Z</time>
      </trkpt>
      <trkpt lat="51.49839" lon="6.62771">
        <ele>72.768612</ele>
        <time>2023-06-26T09:54:27.249Z</time>
      </trkpt>
      <trkpt lat="51.49831" lon="6.62779">
        <ele>72.764492</ele>
        <time>2023-06-26T09:54:29.233Z</time>
      </trkpt>
      <trkpt lat="51.49823" lon="6.6279">
        <ele>72.881599</ele>
        <time>2023-06-26T09:54:31.232Z</time>
      </trkpt>
      <trkpt lat="51.49815" lon="6.62798">
        <ele>72.992059</ele>
        <time>2023-06-26T09:54:33.233Z</time>
      </trkpt>
      <trkpt lat="51.49808" lon="6.62807">
        <ele>73.103721</ele>
        <time>2023-06-26T09:54:35.239Z</time>
      </trkpt>
      <trkpt lat="51.498" lon="6.62816">
        <ele>73.2131</ele>
        <time>2023-06-26T09:54:37.228Z</time>
      </trkpt>
      <trkpt lat="51.49789" lon="6.62827">
        <ele>73.371834</ele>
        <time>2023-06-26T09:54:40.241Z</time>
      </trkpt>
      <trkpt lat="51.49778" lon="6.6284">
        <ele>73.531211</ele>
        <time>2023-06-26T09:54:43.231Z</time>
      </trkpt>
      <trkpt lat="51.4977" lon="6.62848">
        <ele>73.638635</ele>
        <time>2023-06-26T09:54:45.227Z</time>
      </trkpt>
      <trkpt lat="51.49762" lon="6.62857">
        <ele>73.751585</ele>
        <time>2023-06-26T09:54:47.233Z</time>
      </trkpt>
      <trkpt lat="51.49755" lon="6.62866">
        <ele>73.86187</ele>
        <time>2023-06-26T09:54:49.226Z</time>
      </trkpt>
      <trkpt lat="51.49747" lon="6.62875">
        <ele>73.971912</ele>
        <time>2023-06-26T09:54:51.240Z</time>
      </trkpt>
      <trkpt lat="51.49739" lon="6.62883">
        <ele>74.088602</ele>
        <time>2023-06-26T09:54:53.221Z</time>
      </trkpt>
      <trkpt lat="51.49731" lon="6.62893">
        <ele>74.203959</ele>
        <time>2023-06-26T09:54:55.244Z</time>
      </trkpt>
      <trkpt lat="51.49723" lon="6.62903">
        <ele>74.321977</ele>
        <time>2023-06-26T09:54:57.238Z</time>
      </trkpt>
      <trkpt lat="51.49715" lon="6.62912">
        <ele>74.435956</ele>
        <time>2023-06-26T09:54:59.236Z</time>
      </trkpt>
      <trkpt lat="51.49707" lon="6.62922">
        <ele>74.552162</ele>
        <time>2023-06-26T09:55:01.231Z</time>
      </trkpt>
      <trkpt lat="51.497" lon="6.62931">
        <ele>74.658906</ele>
        <time>2023-06-26T09:55:03.220Z</time>
      </trkpt>
      <trkpt lat="51.49693" lon="6.62941">
        <ele>74.770788</ele>
        <time>2023-06-26T09:55:05.232Z</time>
      </trkpt>
      <trkpt lat="51.49684" lon="6.62955">
        <ele>74.950422</ele>
        <time>2023-06-26T09:55:08.233Z</time>
      </trkpt>
      <trkpt lat="51.49676" lon="6.62962">
        <ele>75.099269</ele>
        <time>2023-06-26T09:55:10.217Z</time>
      </trkpt>
      <trkpt lat="51.49664" lon="6.6297">
        <ele>75.30938</ele>
        <time>2023-06-26T09:55:13.213Z</time>
      </trkpt>
      <trkpt lat="51.49656" lon="6.62979">
        <ele>75.46248</ele>
        <time>2023-06-26T09:55:15.234Z</time>
      </trkpt>
      <trkpt lat="51.49649" lon="6.62987">
        <ele>75.613108</ele>
        <time>2023-06-26T09:55:17.246Z</time>
      </trkpt>
      <trkpt lat="51.49639" lon="6.63">
        <ele>75.818788</ele>
        <time>2023-06-26T09:55:20.236Z</time>
      </trkpt>
      <trkpt lat="51.49628" lon="6.63011">
        <ele>76.019793</ele>
        <time>2023-06-26T09:55:23.232Z</time>
      </trkpt>
      <trkpt lat="51.49619" lon="6.63018">
        <ele>76.181177</ele>
        <time>2023-06-26T09:55:25.232Z</time>
      </trkpt>
      <trkpt lat="51.49612" lon="6.63027">
        <ele>76.327543</ele>
        <time>2023-06-26T09:55:27.234Z</time>
      </trkpt>
      <trkpt lat="51.49605" lon="6.63035">
        <ele>76.47418</ele>
        <time>2023-06-26T09:55:29.228Z</time>
      </trkpt>
      <trkpt lat="51.49595" lon="6.63047">
        <ele>76.679292</ele>
        <time>2023-06-26T09:55:32.337Z</time>
      </trkpt>
      <trkpt lat="51.49584" lon="6.63056">
        <ele>76.863875</ele>
        <time>2023-06-26T09:55:35.232Z</time>
      </trkpt>
      <trkpt lat="51.49575" lon="6.63063">
        <ele>77.039419</ele>
        <time>2023-06-26T09:55:38.224Z</time>
      </trkpt>
      <trkpt lat="51.49566" lon="6.6307">
        <ele>77.191965</ele>
        <time>2023-06-26T09:55:41.235Z</time>
      </trkpt>
      <trkpt lat="51.49559" lon="6.63083">
        <ele>77.3747</ele>
        <time>2023-06-26T09:55:45.215Z</time>
      </trkpt>
      <trkpt lat="51.49552" lon="6.63094">
        <ele>77.525265</ele>
        <time>2023-06-26T09:55:50.219Z</time>
      </trkpt>
      <trkpt lat="51.49542" lon="6.63103">
        <ele>77.711886</ele>
        <time>2023-06-26T09:55:54.227Z</time>
      </trkpt>
      <trkpt lat="51.49532" lon="6.63113">
        <ele>77.681138</ele>
        <time>2023-06-26T09:55:57.222Z</time>
      </trkpt>
      <trkpt lat="51.49522" lon="6.63125">
        <ele>77.622561</ele>
        <time>2023-06-26T09:56:00.218Z</time>
      </trkpt>
      <trkpt lat="51.49511" lon="6.63136">
        <ele>77.561464</ele>
        <time>2023-06-26T09:56:03.233Z</time>
      </trkpt>
      <trkpt lat="51.495" lon="6.63146">
        <ele>77.50122</ele>
        <time>2023-06-26T09:56:06.237Z</time>
      </trkpt>
      <trkpt lat="51.49488" lon="6.63156">
        <ele>77.437938</ele>
        <time>2023-06-26T09:56:09.242Z</time>
      </trkpt>
      <trkpt lat="51.4948" lon="6.63164">
        <ele>77.393483</ele>
        <time>2023-06-26T09:56:11.238Z</time>
      </trkpt>
      <trkpt lat="51.49469" lon="6.63175">
        <ele>77.331518</ele>
        <time>2023-06-26T09:56:14.245Z</time>
      </trkpt>
      <trkpt lat="51.49457" lon="6.63186">
        <ele>77.268787</ele>
        <time>2023-06-26T09:56:17.219Z</time>
      </trkpt>
      <trkpt lat="51.49445" lon="6.63193">
        <ele>77.207401</ele>
        <time>2023-06-26T09:56:20.216Z</time>
      </trkpt>
      <trkpt lat="51.49436" lon="6.63198">
        <ele>77.163802</ele>
        <time>2023-06-26T09:56:22.210Z</time>
      </trkpt>
      <trkpt lat="51.49423" lon="6.63202">
        <ele>77.103893</ele>
        <time>2023-06-26T09:56:25.216Z</time>
      </trkpt>
      <trkpt lat="51.49415" lon="6.63206">
        <ele>77.061552</ele>
        <time>2023-06-26T09:56:27.216Z</time>
      </trkpt>
      <trkpt lat="51.49404" lon="6.63216">
        <ele>77.0031</ele>
        <time>2023-06-26T09:56:30.207Z</time>
      </trkpt>
      <trkpt lat="51.49392" lon="6.63224">
        <ele>76.941923</ele>
        <time>2023-06-26T09:56:33.208Z</time>
      </trkpt>
      <trkpt lat="51.49383" lon="6.63229">
        <ele>76.899479</ele>
        <time>2023-06-26T09:56:35.200Z</time>
      </trkpt>
      <trkpt lat="51.49373" lon="6.63235">
        <ele>76.835569</ele>
        <time>2023-06-26T09:56:37.215Z</time>
      </trkpt>
      <trkpt lat="51.49365" lon="6.63242">
        <ele>76.77347</ele>
        <time>2023-06-26T09:56:39.218Z</time>
      </trkpt>
      <trkpt lat="51.49354" lon="6.63246">
        <ele>76.705074</ele>
        <time>2023-06-26T09:56:41.229Z</time>
      </trkpt>
      <trkpt lat="51.49345" lon="6.63252">
        <ele>76.642267</ele>
        <time>2023-06-26T09:56:43.216Z</time>
      </trkpt>
      <trkpt lat="51.49337" lon="6.63257">
        <ele>76.581706</ele>
        <time>2023-06-26T09:56:45.242Z</time>
      </trkpt>
      <trkpt lat="51.49328" lon="6.63263">
        <ele>76.522618</ele>
        <time>2023-06-26T09:56:47.237Z</time>
      </trkpt>
      <trkpt lat="51.49316" lon="6.63267">
        <ele>76.442994</ele>
        <time>2023-06-26T09:56:50.221Z</time>
      </trkpt>
      <trkpt lat="51.49306" lon="6.63268">
        <ele>76.376369</ele>
        <time>2023-06-26T09:56:53.230Z</time>
      </trkpt>
      <trkpt lat="51.49298" lon="6.63277">
        <ele>76.317068</ele>
        <time>2023-06-26T09:56:57.241Z</time>
      </trkpt>
      <trkpt lat="51.49285" lon="6.63285">
        <ele>76.227294</ele>
        <time>2023-06-26T09:58:05.212Z</time>
      </trkpt>
      <trkpt lat="51.49274" lon="6.6329">
        <ele>76.15215</ele>
        <time>2023-06-26T09:58:09.233Z</time>
      </trkpt>
      <trkpt lat="51.49264" lon="6.63297">
        <ele>76.083107</ele>
        <time>2023-06-26T09:58:13.214Z</time>
      </trkpt>
      <trkpt lat="51.49254" lon="6.63301">
        <ele>76.015526</ele>
        <time>2023-06-26T09:58:16.202Z</time>
      </trkpt>
      <trkpt lat="51.49243" lon="6.63304">
        <ele>75.944314</ele>
        <time>2023-06-26T09:58:19.227Z</time>
      </trkpt>
      <trkpt lat="51.49232" lon="6.63307">
        <ele>75.867248</ele>
        <time>2023-06-26T09:58:22.222Z</time>
      </trkpt>
      <trkpt lat="51.4922" lon="6.63311">
        <ele>75.788802</ele>
        <time>2023-06-26T09:58:25.222Z</time>
      </trkpt>
      <trkpt lat="51.49207" lon="6.63315">
        <ele>75.68563</ele>
        <time>2023-06-26T09:58:28.247Z</time>
      </trkpt>
      <trkpt lat="51.49194" lon="6.63318">
        <ele>75.53227</ele>
        <time>2023-06-26T09:58:31.232Z</time>
      </trkpt>
      <trkpt lat="51.49182" lon="6.63322">
        <ele>75.37385</ele>
        <time>2023-06-26T09:58:34.224Z</time>
      </trkpt>
      <trkpt lat="51.49173" lon="6.63326">
        <ele>75.262249</ele>
        <time>2023-06-26T09:58:36.246Z</time>
      </trkpt>
      <trkpt lat="51.49163" lon="6.63327">
        <ele>75.140367</ele>
        <time>2023-06-26T09:58:38.204Z</time>
      </trkpt>
      <trkpt lat="51.4915" lon="6.6333">
        <ele>74.981162</ele>
        <time>2023-06-26T09:58:41.234Z</time>
      </trkpt>
      <trkpt lat="51.49139" lon="6.63331">
        <ele>74.852678</ele>
        <time>2023-06-26T09:58:43.223Z</time>
      </trkpt>
      <trkpt lat="51.49129" lon="6.63333">
        <ele>74.72335</ele>
        <time>2023-06-26T09:58:45.236Z</time>
      </trkpt>
      <trkpt lat="51.49118" lon="6.63334">
        <ele>74.596615</ele>
        <time>2023-06-26T09:58:47.240Z</time>
      </trkpt>
      <trkpt lat="51.49108" lon="6.63335">
        <ele>74.475997</ele>
        <time>2023-06-26T09:58:49.231Z</time>
      </trkpt>
      <trkpt lat="51.49098" lon="6.63335">
        <ele>74.351947</ele>
        <time>2023-06-26T09:58:51.226Z</time>
      </trkpt>
      <trkpt lat="51.49088" lon="6.63336">
        <ele>74.22526</ele>
        <time>2023-06-26T09:58:53.230Z</time>
      </trkpt>
      <trkpt lat="51.49076" lon="6.63337">
        <ele>74.08279</ele>
        <time>2023-06-26T09:58:55.229Z</time>
      </trkpt>
      <trkpt lat="51.49063" lon="6.63337">
        <ele>73.929548</ele>
        <time>2023-06-26T09:58:57.226Z</time>
      </trkpt>
      <trkpt lat="51.49051" lon="6.63336">
        <ele>73.781152</ele>
        <time>2023-06-26T09:58:59.219Z</time>
      </trkpt>
      <trkpt lat="51.49039" lon="6.63334">
        <ele>73.627266</ele>
        <time>2023-06-26T09:59:01.244Z</time>
      </trkpt>
      <trkpt lat="51.49026" lon="6.63333">
        <ele>73.603554</ele>
        <time>2023-06-26T09:59:03.215Z</time>
      </trkpt>
      <trkpt lat="51.49014" lon="6.63332">
        <ele>73.745454</ele>
        <time>2023-06-26T09:59:05.226Z</time>
      </trkpt>
      <trkpt lat="51.49002" lon="6.6333">
        <ele>73.884131</ele>
        <time>2023-06-26T09:59:07.244Z</time>
      </trkpt>
      <trkpt lat="51.48991" lon="6.63328">
        <ele>74.014709</ele>
        <time>2023-06-26T09:59:09.232Z</time>
      </trkpt>
      <trkpt lat="51.48978" lon="6.63327">
        <ele>74.159016</ele>
        <time>2023-06-26T09:59:11.241Z</time>
      </trkpt>
      <trkpt lat="51.48966" lon="6.63325">
        <ele>74.298206</ele>
        <time>2023-06-26T09:59:13.222Z</time>
      </trkpt>
      <trkpt lat="51.48957" lon="6.63323">
        <ele>74.408929</ele>
        <time>2023-06-26T09:59:15.227Z</time>
      </trkpt>
      <trkpt lat="51.48947" lon="6.6332">
        <ele>74.526061</ele>
        <time>2023-06-26T09:59:18.209Z</time>
      </trkpt>
      <trkpt lat="51.48933" lon="6.63323">
        <ele>74.688657</ele>
        <time>2023-06-26T09:59:46.213Z</time>
      </trkpt>
      <trkpt lat="51.48924" lon="6.63322">
        <ele>74.793734</ele>
        <time>2023-06-26T09:59:49.238Z</time>
      </trkpt>
      <trkpt lat="51.48914" lon="6.63321">
        <ele>74.915689</ele>
        <time>2023-06-26T09:59:52.239Z</time>
      </trkpt>
      <trkpt lat="51.48902" lon="6.63322">
        <ele>75.046933</ele>
        <time>2023-06-26T09:59:55.246Z</time>
      </trkpt>
      <trkpt lat="51.48891" lon="6.6332">
        <ele>75.179604</ele>
        <time>2023-06-26T09:59:58.209Z</time>
      </trkpt>
      <trkpt lat="51.48879" lon="6.6332">
        <ele>75.316638</ele>
        <time>2023-06-26T10:00:01.234Z</time>
      </trkpt>
      <trkpt lat="51.48867" lon="6.6332">
        <ele>75.452578</ele>
        <time>2023-06-26T10:00:04.242Z</time>
      </trkpt>
      <trkpt lat="51.48856" lon="6.63319">
        <ele>75.584003</ele>
        <time>2023-06-26T10:00:07.238Z</time>
      </trkpt>
      <trkpt lat="51.48844" lon="6.63318">
        <ele>75.771537</ele>
        <time>2023-06-26T10:00:10.219Z</time>
      </trkpt>
      <trkpt lat="51.48833" lon="6.63317">
        <ele>75.979758</ele>
        <time>2023-06-26T10:00:13.232Z</time>
      </trkpt>
      <trkpt lat="51.48821" lon="6.63316">
        <ele>76.190752</ele>
        <time>2023-06-26T10:00:16.226Z</time>
      </trkpt>
      <trkpt lat="51.4881" lon="6.63317">
        <ele>76.403564</ele>
        <time>2023-06-26T10:00:19.240Z</time>
      </trkpt>
      <trkpt lat="51.48797" lon="6.63317">
        <ele>76.630901</ele>
        <time>2023-06-26T10:00:22.221Z</time>
      </trkpt>
      <trkpt lat="51.48785" lon="6.63316">
        <ele>76.84775</ele>
        <time>2023-06-26T10:00:25.230Z</time>
      </trkpt>
      <trkpt lat="51.48774" lon="6.63315">
        <ele>77.051697</ele>
        <time>2023-06-26T10:00:28.234Z</time>
      </trkpt>
      <trkpt lat="51.48763" lon="6.63313">
        <ele>77.257734</ele>
        <time>2023-06-26T10:00:31.232Z</time>
      </trkpt>
      <trkpt lat="51.48752" lon="6.63311">
        <ele>77.456023</ele>
        <time>2023-06-26T10:00:34.239Z</time>
      </trkpt>
      <trkpt lat="51.48741" lon="6.63312">
        <ele>77.649015</ele>
        <time>2023-06-26T10:00:37.235Z</time>
      </trkpt>
      <trkpt lat="51.4873" lon="6.6331">
        <ele>77.860859</ele>
        <time>2023-06-26T10:00:40.229Z</time>
      </trkpt>
      <trkpt lat="51.48719" lon="6.63309">
        <ele>78.065082</ele>
        <time>2023-06-26T10:00:43.225Z</time>
      </trkpt>
      <trkpt lat="51.48708" lon="6.63309">
        <ele>78.259684</ele>
        <time>2023-06-26T10:00:46.237Z</time>
      </trkpt>
      <trkpt lat="51.48698" lon="6.63307">
        <ele>78.449587</ele>
        <time>2023-06-26T10:00:49.215Z</time>
      </trkpt>
      <trkpt lat="51.48686" lon="6.63305">
        <ele>78.660083</ele>
        <time>2023-06-26T10:00:52.236Z</time>
      </trkpt>
      <trkpt lat="51.48673" lon="6.63305">
        <ele>78.889261</ele>
        <time>2023-06-26T10:00:55.230Z</time>
      </trkpt>
      <trkpt lat="51.48661" lon="6.63302">
        <ele>78.907881</ele>
        <time>2023-06-26T10:00:58.210Z</time>
      </trkpt>
      <trkpt lat="51.48649" lon="6.63295">
        <ele>78.916117</ele>
        <time>2023-06-26T10:01:01.215Z</time>
      </trkpt>
      <trkpt lat="51.48637" lon="6.63292">
        <ele>78.924533</ele>
        <time>2023-06-26T10:01:04.213Z</time>
      </trkpt>
      <trkpt lat="51.48628" lon="6.63294">
        <ele>78.930725</ele>
        <time>2023-06-26T10:01:06.247Z</time>
      </trkpt>
      <trkpt lat="51.48615" lon="6.63296">
        <ele>78.938951</ele>
        <time>2023-06-26T10:01:09.223Z</time>
      </trkpt>
      <trkpt lat="51.48602" lon="6.63295">
        <ele>78.947691</ele>
        <time>2023-06-26T10:01:12.226Z</time>
      </trkpt>
      <trkpt lat="51.4859" lon="6.63294">
        <ele>78.955709</ele>
        <time>2023-06-26T10:01:15.221Z</time>
      </trkpt>
      <trkpt lat="51.48579" lon="6.63292">
        <ele>78.963274</ele>
        <time>2023-06-26T10:01:18.234Z</time>
      </trkpt>
      <trkpt lat="51.48566" lon="6.63292">
        <ele>78.972077</ele>
        <time>2023-06-26T10:01:21.246Z</time>
      </trkpt>
      <trkpt lat="51.48557" lon="6.63292">
        <ele>78.978079</ele>
        <time>2023-06-26T10:01:23.231Z</time>
      </trkpt>
      <trkpt lat="51.48548" lon="6.63292">
        <ele>78.984154</ele>
        <time>2023-06-26T10:01:25.235Z</time>
      </trkpt>
      <trkpt lat="51.48539" lon="6.63291">
        <ele>78.99024</ele>
        <time>2023-06-26T10:01:27.221Z</time>
      </trkpt>
      <trkpt lat="51.48529" lon="6.6329">
        <ele>78.996381</ele>
        <time>2023-06-26T10:01:29.238Z</time>
      </trkpt>
      <trkpt lat="51.48516" lon="6.63288">
        <ele>79.005094</ele>
        <time>2023-06-26T10:01:32.239Z</time>
      </trkpt>
      <trkpt lat="51.48504" lon="6.63287">
        <ele>79.013507</ele>
        <time>2023-06-26T10:01:35.227Z</time>
      </trkpt>
      <trkpt lat="51.48491" lon="6.63286">
        <ele>79.031636</ele>
        <time>2023-06-26T10:01:38.227Z</time>
      </trkpt>
      <trkpt lat="51.48478" lon="6.63285">
        <ele>79.074104</ele>
        <time>2023-06-26T10:01:41.236Z</time>
      </trkpt>
      <trkpt lat="51.48465" lon="6.63285">
        <ele>79.119249</ele>
        <time>2023-06-26T10:01:44.239Z</time>
      </trkpt>
      <trkpt lat="51.48452" lon="6.63284">
        <ele>79.163756</ele>
        <time>2023-06-26T10:01:47.205Z</time>
      </trkpt>
      <trkpt lat="51.48439" lon="6.63283">
        <ele>79.205898</ele>
        <time>2023-06-26T10:01:50.235Z</time>
      </trkpt>
      <trkpt lat="51.48427" lon="6.63282">
        <ele>79.248338</ele>
        <time>2023-06-26T10:01:53.235Z</time>
      </trkpt>
      <trkpt lat="51.48414" lon="6.63281">
        <ele>79.290853</ele>
        <time>2023-06-26T10:01:56.220Z</time>
      </trkpt>
      <trkpt lat="51.48401" lon="6.6328">
        <ele>79.332956</ele>
        <time>2023-06-26T10:01:59.211Z</time>
      </trkpt>
      <trkpt lat="51.48391" lon="6.63279">
        <ele>79.368737</ele>
        <time>2023-06-26T10:02:02.231Z</time>
      </trkpt>
      <trkpt lat="51.48379" lon="6.63278">
        <ele>79.410218</ele>
        <time>2023-06-26T10:02:05.223Z</time>
      </trkpt>
      <trkpt lat="51.48366" lon="6.63276">
        <ele>79.451754</ele>
        <time>2023-06-26T10:02:08.241Z</time>
      </trkpt>
      <trkpt lat="51.48354" lon="6.63276">
        <ele>79.493844</ele>
        <time>2023-06-26T10:02:11.226Z</time>
      </trkpt>
      <trkpt lat="51.4834" lon="6.63275">
        <ele>79.538687</ele>
        <time>2023-06-26T10:02:14.235Z</time>
      </trkpt>
      <trkpt lat="51.48331" lon="6.63274">
        <ele>79.569847</ele>
        <time>2023-06-26T10:02:16.218Z</time>
      </trkpt>
      <trkpt lat="51.48322" lon="6.63272">
        <ele>79.601441</ele>
        <time>2023-06-26T10:02:18.230Z</time>
      </trkpt>
      <trkpt lat="51.48312" lon="6.63271">
        <ele>79.612696</ele>
        <time>2023-06-26T10:02:20.244Z</time>
      </trkpt>
      <trkpt lat="51.48303" lon="6.63269">
        <ele>79.563335</ele>
        <time>2023-06-26T10:02:22.224Z</time>
      </trkpt>
      <trkpt lat="51.48294" lon="6.63268">
        <ele>79.512639</ele>
        <time>2023-06-26T10:02:24.223Z</time>
      </trkpt>
      <trkpt lat="51.48285" lon="6.63267">
        <ele>79.461962</ele>
        <time>2023-06-26T10:02:26.223Z</time>
      </trkpt>
      <trkpt lat="51.48275" lon="6.63266">
        <ele>79.410659</ele>
        <time>2023-06-26T10:02:28.247Z</time>
      </trkpt>
      <trkpt lat="51.48265" lon="6.63265">
        <ele>79.358283</ele>
        <time>2023-06-26T10:02:30.226Z</time>
      </trkpt>
      <trkpt lat="51.48256" lon="6.63265">
        <ele>79.308214</ele>
        <time>2023-06-26T10:02:32.228Z</time>
      </trkpt>
      <trkpt lat="51.48246" lon="6.63264">
        <ele>79.255924</ele>
        <time>2023-06-26T10:02:34.235Z</time>
      </trkpt>
      <trkpt lat="51.48237" lon="6.63264">
        <ele>79.203702</ele>
        <time>2023-06-26T10:02:36.232Z</time>
      </trkpt>
      <trkpt lat="51.48226" lon="6.63263">
        <ele>79.148494</ele>
        <time>2023-06-26T10:02:38.223Z</time>
      </trkpt>
      <trkpt lat="51.48216" lon="6.63262">
        <ele>79.094554</ele>
        <time>2023-06-26T10:02:40.224Z</time>
      </trkpt>
      <trkpt lat="51.48207" lon="6.63261">
        <ele>79.043339</ele>
        <time>2023-06-26T10:02:42.235Z</time>
      </trkpt>
      <trkpt lat="51.48197" lon="6.6326">
        <ele>78.988389</ele>
        <time>2023-06-26T10:02:44.239Z</time>
      </trkpt>
      <trkpt lat="51.48187" lon="6.63259">
        <ele>78.933911</ele>
        <time>2023-06-26T10:02:46.224Z</time>
      </trkpt>
      <trkpt lat="51.48177" lon="6.63258">
        <ele>78.879361</ele>
        <time>2023-06-26T10:02:48.242Z</time>
      </trkpt>
      <trkpt lat="51.48166" lon="6.63257">
        <ele>78.824961</ele>
        <time>2023-06-26T10:02:50.220Z</time>
      </trkpt>
      <trkpt lat="51.48157" lon="6.63257">
        <ele>78.7722</ele>
        <time>2023-06-26T10:02:52.215Z</time>
      </trkpt>
      <trkpt lat="51.48147" lon="6.63256">
        <ele>78.719669</ele>
        <time>2023-06-26T10:02:54.208Z</time>
      </trkpt>
      <trkpt lat="51.48137" lon="6.63254">
        <ele>78.665682</ele>
        <time>2023-06-26T10:02:56.210Z</time>
      </trkpt>
      <trkpt lat="51.48127" lon="6.63252">
        <ele>78.558191</ele>
        <time>2023-06-26T10:02:58.224Z</time>
      </trkpt>
      <trkpt lat="51.48117" lon="6.63252">
        <ele>78.435667</ele>
        <time>2023-06-26T10:03:00.216Z</time>
      </trkpt>
      <trkpt lat="51.48107" lon="6.6325">
        <ele>78.31725</ele>
        <time>2023-06-26T10:03:02.227Z</time>
      </trkpt>
      <trkpt lat="51.48097" lon="6.63249">
        <ele>78.198167</ele>
        <time>2023-06-26T10:03:04.226Z</time>
      </trkpt>
      <trkpt lat="51.48086" lon="6.63248">
        <ele>78.072724</ele>
        <time>2023-06-26T10:03:06.225Z</time>
      </trkpt>
      <trkpt lat="51.48076" lon="6.63247">
        <ele>77.947576</ele>
        <time>2023-06-26T10:03:08.232Z</time>
      </trkpt>
      <trkpt lat="51.48067" lon="6.63246">
        <ele>77.835579</ele>
        <time>2023-06-26T10:03:10.218Z</time>
      </trkpt>
      <trkpt lat="51.48057" lon="6.63245">
        <ele>77.718871</ele>
        <time>2023-06-26T10:03:12.227Z</time>
      </trkpt>
      <trkpt lat="51.48047" lon="6.63244">
        <ele>77.597284</ele>
        <time>2023-06-26T10:03:14.229Z</time>
      </trkpt>
      <trkpt lat="51.48037" lon="6.63243">
        <ele>77.481879</ele>
        <time>2023-06-26T10:03:16.225Z</time>
      </trkpt>
      <trkpt lat="51.48026" lon="6.63243">
        <ele>77.352205</ele>
        <time>2023-06-26T10:03:18.224Z</time>
      </trkpt>
      <trkpt lat="51.48015" lon="6.63241">
        <ele>77.225267</ele>
        <time>2023-06-26T10:03:20.220Z</time>
      </trkpt>
      <trkpt lat="51.48005" lon="6.63239">
        <ele>77.096337</ele>
        <time>2023-06-26T10:03:22.219Z</time>
      </trkpt>
      <trkpt lat="51.47993" lon="6.63239">
        <ele>76.96415</ele>
        <time>2023-06-26T10:03:24.224Z</time>
      </trkpt>
      <trkpt lat="51.47982" lon="6.63237">
        <ele>76.828047</ele>
        <time>2023-06-26T10:03:26.225Z</time>
      </trkpt>
      <trkpt lat="51.47971" lon="6.63237">
        <ele>76.698406</ele>
        <time>2023-06-26T10:03:28.213Z</time>
      </trkpt>
      <trkpt lat="51.4796" lon="6.63234">
        <ele>76.568628</ele>
        <time>2023-06-26T10:03:30.232Z</time>
      </trkpt>
      <trkpt lat="51.4795" lon="6.63231">
        <ele>76.490605</ele>
        <time>2023-06-26T10:03:32.216Z</time>
      </trkpt>
      <trkpt lat="51.4794" lon="6.63231">
        <ele>76.44553</ele>
        <time>2023-06-26T10:03:34.221Z</time>
      </trkpt>
      <trkpt lat="51.47929" lon="6.6323">
        <ele>76.391783</ele>
        <time>2023-06-26T10:03:37.245Z</time>
      </trkpt>
      <trkpt lat="51.47917" lon="6.63229">
        <ele>76.338971</ele>
        <time>2023-06-26T10:03:40.227Z</time>
      </trkpt>
      <trkpt lat="51.47904" lon="6.63228">
        <ele>76.280213</ele>
        <time>2023-06-26T10:03:43.202Z</time>
      </trkpt>
      <trkpt lat="51.47891" lon="6.63229">
        <ele>76.22056</ele>
        <time>2023-06-26T10:03:46.218Z</time>
      </trkpt>
      <trkpt lat="51.47882" lon="6.63227">
        <ele>76.178437</ele>
        <time>2023-06-26T10:03:48.233Z</time>
      </trkpt>
      <trkpt lat="51.47873" lon="6.63227">
        <ele>76.136575</ele>
        <time>2023-06-26T10:03:50.218Z</time>
      </trkpt>
      <trkpt lat="51.47863" lon="6.63226">
        <ele>76.094452</ele>
        <time>2023-06-26T10:03:52.219Z</time>
      </trkpt>
      <trkpt lat="51.47854" lon="6.63224">
        <ele>76.05106</ele>
        <time>2023-06-26T10:03:54.217Z</time>
      </trkpt>
      <trkpt lat="51.47844" lon="6.63224">
        <ele>76.004634</ele>
        <time>2023-06-26T10:03:56.217Z</time>
      </trkpt>
      <trkpt lat="51.47833" lon="6.63222">
        <ele>75.95535</ele>
        <time>2023-06-26T10:03:58.229Z</time>
      </trkpt>
      <trkpt lat="51.47822" lon="6.63221">
        <ele>75.907771</ele>
        <time>2023-06-26T10:04:00.222Z</time>
      </trkpt>
      <trkpt lat="51.47812" lon="6.63219">
        <ele>75.858983</ele>
        <time>2023-06-26T10:04:02.220Z</time>
      </trkpt>
      <trkpt lat="51.47801" lon="6.63218">
        <ele>75.811556</ele>
        <time>2023-06-26T10:04:04.239Z</time>
      </trkpt>
      <trkpt lat="51.47791" lon="6.63218">
        <ele>75.763783</ele>
        <time>2023-06-26T10:04:06.214Z</time>
      </trkpt>
      <trkpt lat="51.47781" lon="6.63217">
        <ele>75.718696</ele>
        <time>2023-06-26T10:04:08.228Z</time>
      </trkpt>
      <trkpt lat="51.47771" lon="6.63216">
        <ele>75.69957</ele>
        <time>2023-06-26T10:04:10.244Z</time>
      </trkpt>
      <trkpt lat="51.47761" lon="6.63215">
        <ele>75.699164</ele>
        <time>2023-06-26T10:04:12.226Z</time>
      </trkpt>
      <trkpt lat="51.47751" lon="6.63214">
        <ele>75.698759</ele>
        <time>2023-06-26T10:04:14.237Z</time>
      </trkpt>
      <trkpt lat="51.47741" lon="6.63213">
        <ele>75.698346</ele>
        <time>2023-06-26T10:04:16.224Z</time>
      </trkpt>
      <trkpt lat="51.47731" lon="6.63212">
        <ele>75.69792</ele>
        <time>2023-06-26T10:04:18.227Z</time>
      </trkpt>
      <trkpt lat="51.47721" lon="6.63211">
        <ele>75.697506</ele>
        <time>2023-06-26T10:04:20.234Z</time>
      </trkpt>
      <trkpt lat="51.4771" lon="6.6321">
        <ele>75.697076</ele>
        <time>2023-06-26T10:04:22.242Z</time>
      </trkpt>
      <trkpt lat="51.47701" lon="6.63208">
        <ele>75.696675</ele>
        <time>2023-06-26T10:04:24.244Z</time>
      </trkpt>
      <trkpt lat="51.47691" lon="6.63207">
        <ele>75.696261</ele>
        <time>2023-06-26T10:04:26.216Z</time>
      </trkpt>
      <trkpt lat="51.47681" lon="6.63206">
        <ele>75.695859</ele>
        <time>2023-06-26T10:04:28.216Z</time>
      </trkpt>
      <trkpt lat="51.4767" lon="6.63204">
        <ele>75.695391</ele>
        <time>2023-06-26T10:04:30.223Z</time>
      </trkpt>
      <trkpt lat="51.4766" lon="6.63202">
        <ele>75.694979</ele>
        <time>2023-06-26T10:04:32.234Z</time>
      </trkpt>
      <trkpt lat="51.4765" lon="6.63202">
        <ele>75.694575</ele>
        <time>2023-06-26T10:04:34.228Z</time>
      </trkpt>
      <trkpt lat="51.47641" lon="6.63201">
        <ele>75.694182</ele>
        <time>2023-06-26T10:04:36.237Z</time>
      </trkpt>
      <trkpt lat="51.47631" lon="6.63199">
        <ele>75.693782</ele>
        <time>2023-06-26T10:04:38.222Z</time>
      </trkpt>
      <trkpt lat="51.47622" lon="6.63198">
        <ele>75.693403</ele>
        <time>2023-06-26T10:04:40.234Z</time>
      </trkpt>
      <trkpt lat="51.47612" lon="6.63197">
        <ele>75.693018</ele>
        <time>2023-06-26T10:04:42.218Z</time>
      </trkpt>
      <trkpt lat="51.47602" lon="6.63196">
        <ele>75.692601</ele>
        <time>2023-06-26T10:04:44.211Z</time>
      </trkpt>
      <trkpt lat="51.47593" lon="6.63194">
        <ele>75.727815</ele>
        <time>2023-06-26T10:04:46.232Z</time>
      </trkpt>
      <trkpt lat="51.47584" lon="6.63194">
        <ele>75.793667</ele>
        <time>2023-06-26T10:04:48.230Z</time>
      </trkpt>
      <trkpt lat="51.47575" lon="6.63192">
        <ele>75.859004</ele>
        <time>2023-06-26T10:04:50.223Z</time>
      </trkpt>
      <trkpt lat="51.47566" lon="6.63191">
        <ele>75.924302</ele>
        <time>2023-06-26T10:04:52.220Z</time>
      </trkpt>
      <trkpt lat="51.47554" lon="6.63189">
        <ele>76.005115</ele>
        <time>2023-06-26T10:04:55.228Z</time>
      </trkpt>
      <trkpt lat="51.47544" lon="6.63185">
        <ele>76.07963</ele>
        <time>2023-06-26T10:04:58.209Z</time>
      </trkpt>
      <trkpt lat="51.47537" lon="6.63175">
        <ele>76.150964</ele>
        <time>2023-06-26T10:05:03.229Z</time>
      </trkpt>
      <trkpt lat="51.47523" lon="6.63174">
        <ele>76.251613</ele>
        <time>2023-06-26T10:05:31.227Z</time>
      </trkpt>
      <trkpt lat="51.47511" lon="6.63174">
        <ele>76.334764</ele>
        <time>2023-06-26T10:05:35.247Z</time>
      </trkpt>
      <trkpt lat="51.47502" lon="6.63178">
        <ele>76.404303</ele>
        <time>2023-06-26T10:05:38.238Z</time>
      </trkpt>
      <trkpt lat="51.47493" lon="6.63182">
        <ele>76.475903</ele>
        <time>2023-06-26T10:05:41.224Z</time>
      </trkpt>
      <trkpt lat="51.47481" lon="6.63181">
        <ele>76.556946</ele>
        <time>2023-06-26T10:05:44.206Z</time>
      </trkpt>
      <trkpt lat="51.47468" lon="6.63178">
        <ele>76.651908</ele>
        <time>2023-06-26T10:05:47.246Z</time>
      </trkpt>
      <trkpt lat="51.47459" lon="6.63177">
        <ele>76.717206</ele>
        <time>2023-06-26T10:05:49.235Z</time>
      </trkpt>
      <trkpt lat="51.4745" lon="6.63176">
        <ele>76.782436</ele>
        <time>2023-06-26T10:05:51.240Z</time>
      </trkpt>
      <trkpt lat="51.47441" lon="6.63173">
        <ele>76.855199</ele>
        <time>2023-06-26T10:05:53.228Z</time>
      </trkpt>
      <trkpt lat="51.47428" lon="6.63175">
        <ele>76.946171</ele>
        <time>2023-06-26T10:05:56.220Z</time>
      </trkpt>
      <trkpt lat="51.47419" lon="6.63175">
        <ele>76.979601</ele>
        <time>2023-06-26T10:05:58.223Z</time>
      </trkpt>
      <trkpt lat="51.47409" lon="6.63174">
        <ele>76.936145</ele>
        <time>2023-06-26T10:06:00.235Z</time>
      </trkpt>
      <trkpt lat="51.474" lon="6.63173">
        <ele>76.894033</ele>
        <time>2023-06-26T10:06:02.228Z</time>
      </trkpt>
      <trkpt lat="51.47391" lon="6.63173">
        <ele>76.850099</ele>
        <time>2023-06-26T10:06:04.236Z</time>
      </trkpt>
      <trkpt lat="51.47382" lon="6.63172">
        <ele>76.807054</ele>
        <time>2023-06-26T10:06:06.247Z</time>
      </trkpt>
      <trkpt lat="51.47368" lon="6.63172">
        <ele>76.744474</ele>
        <time>2023-06-26T10:06:09.223Z</time>
      </trkpt>
      <trkpt lat="51.47359" lon="6.63172">
        <ele>76.701501</ele>
        <time>2023-06-26T10:06:11.239Z</time>
      </trkpt>
      <trkpt lat="51.4735" lon="6.6317">
        <ele>76.658343</ele>
        <time>2023-06-26T10:06:13.236Z</time>
      </trkpt>
      <trkpt lat="51.47341" lon="6.63169">
        <ele>76.615212</ele>
        <time>2023-06-26T10:06:15.236Z</time>
      </trkpt>
      <trkpt lat="51.47332" lon="6.63168">
        <ele>76.572571</ele>
        <time>2023-06-26T10:06:17.244Z</time>
      </trkpt>
      <trkpt lat="51.47319" lon="6.63166">
        <ele>76.510652</ele>
        <time>2023-06-26T10:06:20.233Z</time>
      </trkpt>
      <trkpt lat="51.47309" lon="6.63165">
        <ele>76.465683</ele>
        <time>2023-06-26T10:06:22.228Z</time>
      </trkpt>
      <trkpt lat="51.47299" lon="6.63164">
        <ele>76.420369</ele>
        <time>2023-06-26T10:06:24.225Z</time>
      </trkpt>
      <trkpt lat="51.47289" lon="6.63164">
        <ele>76.374593</ele>
        <time>2023-06-26T10:06:26.228Z</time>
      </trkpt>
      <trkpt lat="51.4728" lon="6.63163">
        <ele>76.331509</ele>
        <time>2023-06-26T10:06:28.226Z</time>
      </trkpt>
      <trkpt lat="51.47271" lon="6.63162">
        <ele>76.288976</ele>
        <time>2023-06-26T10:06:30.225Z</time>
      </trkpt>
      <trkpt lat="51.47262" lon="6.63161">
        <ele>76.246429</ele>
        <time>2023-06-26T10:06:32.228Z</time>
      </trkpt>
      <trkpt lat="51.47253" lon="6.6316">
        <ele>76.203298</ele>
        <time>2023-06-26T10:06:34.238Z</time>
      </trkpt>
      <trkpt lat="51.47243" lon="6.63158">
        <ele>76.158589</ele>
        <time>2023-06-26T10:06:36.213Z</time>
      </trkpt>
      <trkpt lat="51.47234" lon="6.63158">
        <ele>76.228296</ele>
        <time>2023-06-26T10:06:38.232Z</time>
      </trkpt>
      <trkpt lat="51.47224" lon="6.63156">
        <ele>76.319255</ele>
        <time>2023-06-26T10:06:40.240Z</time>
      </trkpt>
      <trkpt lat="51.47215" lon="6.63155">
        <ele>76.403169</ele>
        <time>2023-06-26T10:06:42.212Z</time>
      </trkpt>
      <trkpt lat="51.47206" lon="6.63155">
        <ele>76.486988</ele>
        <time>2023-06-26T10:06:44.234Z</time>
      </trkpt>
      <trkpt lat="51.47197" lon="6.63154">
        <ele>76.57189</ele>
        <time>2023-06-26T10:06:46.210Z</time>
      </trkpt>
      <trkpt lat="51.47187" lon="6.63152">
        <ele>76.65876</ele>
        <time>2023-06-26T10:06:48.214Z</time>
      </trkpt>
      <trkpt lat="51.47174" lon="6.63151">
        <ele>76.778901</ele>
        <time>2023-06-26T10:06:51.216Z</time>
      </trkpt>
      <trkpt lat="51.47165" lon="6.63149">
        <ele>76.866642</ele>
        <time>2023-06-26T10:06:53.228Z</time>
      </trkpt>
      <trkpt lat="51.47155" lon="6.63149">
        <ele>76.956921</ele>
        <time>2023-06-26T10:06:55.227Z</time>
      </trkpt>
      <trkpt lat="51.47145" lon="6.63148">
        <ele>77.045537</ele>
        <time>2023-06-26T10:06:57.227Z</time>
      </trkpt>
      <trkpt lat="51.47136" lon="6.63146">
        <ele>77.132634</ele>
        <time>2023-06-26T10:06:59.230Z</time>
      </trkpt>
      <trkpt lat="51.47127" lon="6.63144">
        <ele>77.218883</ele>
        <time>2023-06-26T10:07:01.224Z</time>
      </trkpt>
      <trkpt lat="51.47117" lon="6.63144">
        <ele>77.305526</ele>
        <time>2023-06-26T10:07:03.208Z</time>
      </trkpt>
      <trkpt lat="51.47108" lon="6.63143">
        <ele>77.391278</ele>
        <time>2023-06-26T10:07:05.217Z</time>
      </trkpt>
      <trkpt lat="51.47096" lon="6.63141">
        <ele>77.504856</ele>
        <time>2023-06-26T10:07:08.220Z</time>
      </trkpt>
      <trkpt lat="51.47084" lon="6.63139">
        <ele>77.611632</ele>
        <time>2023-06-26T10:07:11.201Z</time>
      </trkpt>
      <trkpt lat="51.47072" lon="6.63138">
        <ele>77.728737</ele>
        <time>2023-06-26T10:07:14.230Z</time>
      </trkpt>
      <trkpt lat="51.47059" lon="6.63136">
        <ele>77.82766</ele>
        <time>2023-06-26T10:07:17.234Z</time>
      </trkpt>
      <trkpt lat="51.47047" lon="6.63134">
        <ele>77.890374</ele>
        <time>2023-06-26T10:07:20.227Z</time>
      </trkpt>
      <trkpt lat="51.47036" lon="6.63133">
        <ele>77.951906</ele>
        <time>2023-06-26T10:07:23.232Z</time>
      </trkpt>
      <trkpt lat="51.47023" lon="6.63132">
        <ele>78.018643</ele>
        <time>2023-06-26T10:07:26.225Z</time>
      </trkpt>
      <trkpt lat="51.47011" lon="6.63131">
        <ele>78.081331</ele>
        <time>2023-06-26T10:07:29.241Z</time>
      </trkpt>
      <trkpt lat="51.46999" lon="6.6313">
        <ele>78.147076</ele>
        <time>2023-06-26T10:07:32.235Z</time>
      </trkpt>
      <trkpt lat="51.46986" lon="6.63129">
        <ele>78.213909</ele>
        <time>2023-06-26T10:07:35.222Z</time>
      </trkpt>
      <trkpt lat="51.46973" lon="6.63128">
        <ele>78.284331</ele>
        <time>2023-06-26T10:07:38.240Z</time>
      </trkpt>
      <trkpt lat="51.46963" lon="6.63127">
        <ele>78.332132</ele>
        <time>2023-06-26T10:07:40.226Z</time>
      </trkpt>
      <trkpt lat="51.46954" lon="6.63128">
        <ele>78.380452</ele>
        <time>2023-06-26T10:07:42.229Z</time>
      </trkpt>
      <trkpt lat="51.46944" lon="6.63127">
        <ele>78.431923</ele>
        <time>2023-06-26T10:07:44.233Z</time>
      </trkpt>
      <trkpt lat="51.46935" lon="6.63127">
        <ele>78.481883</ele>
        <time>2023-06-26T10:07:46.220Z</time>
      </trkpt>
      <trkpt lat="51.46921" lon="6.63125">
        <ele>78.553939</ele>
        <time>2023-06-26T10:07:49.234Z</time>
      </trkpt>
      <trkpt lat="51.46911" lon="6.63124">
        <ele>78.60675</ele>
        <time>2023-06-26T10:07:51.235Z</time>
      </trkpt>
      <trkpt lat="51.46901" lon="6.63121">
        <ele>78.661669</ele>
        <time>2023-06-26T10:07:53.220Z</time>
      </trkpt>
      <trkpt lat="51.46891" lon="6.63118">
        <ele>78.714979</ele>
        <time>2023-06-26T10:07:55.229Z</time>
      </trkpt>
      <trkpt lat="51.46881" lon="6.63117">
        <ele>78.752862</ele>
        <time>2023-06-26T10:07:57.218Z</time>
      </trkpt>
      <trkpt lat="51.46871" lon="6.63115">
        <ele>78.750079</ele>
        <time>2023-06-26T10:07:59.226Z</time>
      </trkpt>
      <trkpt lat="51.46861" lon="6.63114">
        <ele>78.747466</ele>
        <time>2023-06-26T10:08:01.220Z</time>
      </trkpt>
      <trkpt lat="51.46848" lon="6.63112">
        <ele>78.744014</ele>
        <time>2023-06-26T10:08:04.236Z</time>
      </trkpt>
      <trkpt lat="51.46836" lon="6.63112">
        <ele>78.740763</ele>
        <time>2023-06-26T10:08:07.222Z</time>
      </trkpt>
      <trkpt lat="51.46825" lon="6.6311">
        <ele>78.737688</ele>
        <time>2023-06-26T10:08:10.224Z</time>
      </trkpt>
      <trkpt lat="51.46813" lon="6.63109">
        <ele>78.734543</ele>
        <time>2023-06-26T10:08:13.214Z</time>
      </trkpt>
      <trkpt lat="51.46802" lon="6.63107">
        <ele>78.731729</ele>
        <time>2023-06-26T10:08:16.235Z</time>
      </trkpt>
      <trkpt lat="51.4679" lon="6.63106">
        <ele>78.728498</ele>
        <time>2023-06-26T10:08:20.226Z</time>
      </trkpt>
      <trkpt lat="51.46781" lon="6.63106">
        <ele>78.72592</ele>
        <time>2023-06-26T10:08:23.219Z</time>
      </trkpt>
      <trkpt lat="51.4677" lon="6.63104">
        <ele>78.723083</ele>
        <time>2023-06-26T10:08:26.229Z</time>
      </trkpt>
      <trkpt lat="51.46759" lon="6.63105">
        <ele>78.720152</ele>
        <time>2023-06-26T10:08:29.228Z</time>
      </trkpt>
      <trkpt lat="51.46749" lon="6.63105">
        <ele>78.717332</ele>
        <time>2023-06-26T10:08:32.239Z</time>
      </trkpt>
      <trkpt lat="51.46738" lon="6.63104">
        <ele>78.714454</ele>
        <time>2023-06-26T10:08:35.246Z</time>
      </trkpt>
      <trkpt lat="51.46727" lon="6.63103">
        <ele>78.71139</ele>
        <time>2023-06-26T10:08:38.229Z</time>
      </trkpt>
      <trkpt lat="51.46715" lon="6.63102">
        <ele>78.708184</ele>
        <time>2023-06-26T10:08:41.229Z</time>
      </trkpt>
      <trkpt lat="51.46704" lon="6.63101">
        <ele>78.707393</ele>
        <time>2023-06-26T10:08:44.235Z</time>
      </trkpt>
      <trkpt lat="51.46691" lon="6.63099">
        <ele>78.764973</ele>
        <time>2023-06-26T10:08:47.243Z</time>
      </trkpt>
      <trkpt lat="51.46678" lon="6.63098">
        <ele>78.819986</ele>
        <time>2023-06-26T10:08:50.225Z</time>
      </trkpt>
      <trkpt lat="51.46666" lon="6.63095">
        <ele>78.875216</ele>
        <time>2023-06-26T10:08:53.219Z</time>
      </trkpt>
      <trkpt lat="51.46653" lon="6.63095">
        <ele>78.93182</ele>
        <time>2023-06-26T10:08:56.237Z</time>
      </trkpt>
      <trkpt lat="51.4664" lon="6.63093">
        <ele>78.986467</ele>
        <time>2023-06-26T10:08:59.229Z</time>
      </trkpt>
      <trkpt lat="51.46628" lon="6.63091">
        <ele>79.040762</ele>
        <time>2023-06-26T10:09:02.218Z</time>
      </trkpt>
      <trkpt lat="51.46615" lon="6.63089">
        <ele>79.098857</ele>
        <time>2023-06-26T10:09:05.241Z</time>
      </trkpt>
      <trkpt lat="51.46602" lon="6.63089">
        <ele>79.153696</ele>
        <time>2023-06-26T10:09:08.245Z</time>
      </trkpt>
      <trkpt lat="51.46589" lon="6.63087">
        <ele>79.212848</ele>
        <time>2023-06-26T10:09:11.239Z</time>
      </trkpt>
      <trkpt lat="51.46576" lon="6.63087">
        <ele>79.268597</ele>
        <time>2023-06-26T10:09:14.225Z</time>
      </trkpt>
      <trkpt lat="51.46563" lon="6.63084">
        <ele>79.326729</ele>
        <time>2023-06-26T10:09:17.229Z</time>
      </trkpt>
      <trkpt lat="51.46554" lon="6.63083">
        <ele>79.36762</ele>
        <time>2023-06-26T10:09:19.198Z</time>
      </trkpt>
      <trkpt lat="51.46544" lon="6.63082">
        <ele>79.40909</ele>
        <time>2023-06-26T10:09:21.232Z</time>
      </trkpt>
      <trkpt lat="51.46535" lon="6.6308">
        <ele>79.451405</ele>
        <time>2023-06-26T10:09:23.198Z</time>
      </trkpt>
      <trkpt lat="51.46525" lon="6.6308">
        <ele>79.493968</ele>
        <time>2023-06-26T10:09:25.234Z</time>
      </trkpt>
      <trkpt lat="51.46516" lon="6.6308">
        <ele>79.457537</ele>
        <time>2023-06-26T10:09:27.230Z</time>
      </trkpt>
      <trkpt lat="51.46506" lon="6.6308">
        <ele>79.419131</ele>
        <time>2023-06-26T10:09:29.242Z</time>
      </trkpt>
      <trkpt lat="51.46496" lon="6.63078">
        <ele>79.379637</ele>
        <time>2023-06-26T10:09:31.241Z</time>
      </trkpt>
      <trkpt lat="51.46486" lon="6.63077">
        <ele>79.341253</ele>
        <time>2023-06-26T10:09:33.202Z</time>
      </trkpt>
      <trkpt lat="51.46476" lon="6.63076">
        <ele>79.302782</ele>
        <time>2023-06-26T10:09:35.240Z</time>
      </trkpt>
      <trkpt lat="51.46466" lon="6.63075">
        <ele>79.262357</ele>
        <time>2023-06-26T10:09:37.227Z</time>
      </trkpt>
      <trkpt lat="51.46456" lon="6.63075">
        <ele>79.224763</ele>
        <time>2023-06-26T10:09:39.220Z</time>
      </trkpt>
      <trkpt lat="51.46446" lon="6.63074">
        <ele>79.185822</ele>
        <time>2023-06-26T10:09:41.226Z</time>
      </trkpt>
      <trkpt lat="51.46437" lon="6.63073">
        <ele>79.148163</ele>
        <time>2023-06-26T10:09:43.217Z</time>
      </trkpt>
      <trkpt lat="51.46427" lon="6.63073">
        <ele>79.11096</ele>
        <time>2023-06-26T10:09:45.233Z</time>
      </trkpt>
      <trkpt lat="51.46418" lon="6.63072">
        <ele>79.073678</ele>
        <time>2023-06-26T10:09:47.219Z</time>
      </trkpt>
      <trkpt lat="51.46408" lon="6.63071">
        <ele>79.035672</ele>
        <time>2023-06-26T10:09:49.249Z</time>
      </trkpt>
      <trkpt lat="51.46398" lon="6.6307">
        <ele>78.995638</ele>
        <time>2023-06-26T10:09:51.239Z</time>
      </trkpt>
      <trkpt lat="51.46388" lon="6.63069">
        <ele>78.956025</ele>
        <time>2023-06-26T10:09:53.230Z</time>
      </trkpt>
      <trkpt lat="51.46378" lon="6.63067">
        <ele>78.916919</ele>
        <time>2023-06-26T10:09:55.226Z</time>
      </trkpt>
      <trkpt lat="51.46369" lon="6.63064">
        <ele>78.879523</ele>
        <time>2023-06-26T10:09:57.218Z</time>
      </trkpt>
      <trkpt lat="51.46357" lon="6.63061">
        <ele>78.835078</ele>
        <time>2023-06-26T10:10:00.223Z</time>
      </trkpt>
      <trkpt lat="51.4634" lon="6.63057">
        <ele>78.804333</ele>
        <time>2023-06-26T10:10:37.233Z</time>
      </trkpt>
      <trkpt lat="51.4633" lon="6.63057">
        <ele>78.829027</ele>
        <time>2023-06-26T10:10:40.223Z</time>
      </trkpt>
      <trkpt lat="51.46321" lon="6.63061">
        <ele>78.851544</ele>
        <time>2023-06-26T10:10:42.216Z</time>
      </trkpt>
      <trkpt lat="51.46309" lon="6.63065">
        <ele>78.882918</ele>
        <time>2023-06-26T10:10:45.219Z</time>
      </trkpt>
      <trkpt lat="51.46296" lon="6.63068">
        <ele>78.914773</ele>
        <time>2023-06-26T10:10:48.242Z</time>
      </trkpt>
      <trkpt lat="51.46282" lon="6.63071">
        <ele>78.948727</ele>
        <time>2023-06-26T10:10:51.230Z</time>
      </trkpt>
      <trkpt lat="51.46272" lon="6.63072">
        <ele>78.97327</ele>
        <time>2023-06-26T10:10:53.224Z</time>
      </trkpt>
      <trkpt lat="51.46262" lon="6.63074">
        <ele>78.998586</ele>
        <time>2023-06-26T10:10:55.225Z</time>
      </trkpt>
      <trkpt lat="51.46252" lon="6.63079">
        <ele>79.023637</ele>
        <time>2023-06-26T10:10:57.200Z</time>
      </trkpt>
      <trkpt lat="51.46243" lon="6.63085">
        <ele>79.04786</ele>
        <time>2023-06-26T10:10:59.225Z</time>
      </trkpt>
      <trkpt lat="51.46234" lon="6.6309">
        <ele>79.070965</ele>
        <time>2023-06-26T10:11:01.227Z</time>
      </trkpt>
      <trkpt lat="51.46226" lon="6.63096">
        <ele>79.093062</ele>
        <time>2023-06-26T10:11:03.230Z</time>
      </trkpt>
      <trkpt lat="51.46216" lon="6.63103">
        <ele>79.120082</ele>
        <time>2023-06-26T10:11:06.232Z</time>
      </trkpt>
      <trkpt lat="51.46206" lon="6.63107">
        <ele>79.143473</ele>
        <time>2023-06-26T10:11:10.232Z</time>
      </trkpt>
      <trkpt lat="51.46197" lon="6.63117">
        <ele>79.169948</ele>
        <time>2023-06-26T10:11:14.208Z</time>
      </trkpt>
      <trkpt lat="51.46189" lon="6.63127">
        <ele>79.195805</ele>
        <time>2023-06-26T10:11:17.223Z</time>
      </trkpt>
      <trkpt lat="51.46179" lon="6.63141">
        <ele>79.227753</ele>
        <time>2023-06-26T10:11:20.232Z</time>
      </trkpt>
      <trkpt lat="51.46172" lon="6.63151">
        <ele>79.249863</ele>
        <time>2023-06-26T10:11:22.226Z</time>
      </trkpt>
      <trkpt lat="51.46165" lon="6.6316">
        <ele>79.271514</ele>
        <time>2023-06-26T10:11:24.229Z</time>
      </trkpt>
      <trkpt lat="51.46157" lon="6.63169">
        <ele>79.29454</ele>
        <time>2023-06-26T10:11:26.236Z</time>
      </trkpt>
      <trkpt lat="51.46148" lon="6.63179">
        <ele>79.319662</ele>
        <time>2023-06-26T10:11:28.227Z</time>
      </trkpt>
      <trkpt lat="51.46139" lon="6.6319">
        <ele>79.345505</ele>
        <time>2023-06-26T10:11:30.238Z</time>
      </trkpt>
      <trkpt lat="51.4613" lon="6.632">
        <ele>79.371367</ele>
        <time>2023-06-26T10:11:32.206Z</time>
      </trkpt>
      <trkpt lat="51.46121" lon="6.63209">
        <ele>79.396453</ele>
        <time>2023-06-26T10:11:34.231Z</time>
      </trkpt>
      <trkpt lat="51.46112" lon="6.63218">
        <ele>79.421768</ele>
        <time>2023-06-26T10:11:36.209Z</time>
      </trkpt>
      <trkpt lat="51.46104" lon="6.63225">
        <ele>79.443227</ele>
        <time>2023-06-26T10:11:38.241Z</time>
      </trkpt>
      <trkpt lat="51.46095" lon="6.63233">
        <ele>79.466631</ele>
        <time>2023-06-26T10:11:41.245Z</time>
      </trkpt>
      <trkpt lat="51.46085" lon="6.6324">
        <ele>79.491942</ele>
        <time>2023-06-26T10:11:45.239Z</time>
      </trkpt>
      <trkpt lat="51.46076" lon="6.63245">
        <ele>79.513955</ele>
        <time>2023-06-26T10:11:48.241Z</time>
      </trkpt>
      <trkpt lat="51.46068" lon="6.63253">
        <ele>79.537739</ele>
        <time>2023-06-26T10:11:51.218Z</time>
      </trkpt>
      <trkpt lat="51.46057" lon="6.63263">
        <ele>79.565781</ele>
        <time>2023-06-26T10:11:54.233Z</time>
      </trkpt>
      <trkpt lat="51.46049" lon="6.6327">
        <ele>79.587051</ele>
        <time>2023-06-26T10:11:56.223Z</time>
      </trkpt>
      <trkpt lat="51.46041" lon="6.63277">
        <ele>79.608715</ele>
        <time>2023-06-26T10:11:58.217Z</time>
      </trkpt>
      <trkpt lat="51.46033" lon="6.63283">
        <ele>79.630134</ele>
        <time>2023-06-26T10:12:00.227Z</time>
      </trkpt>
      <trkpt lat="51.46025" lon="6.6329">
        <ele>79.650078</ele>
        <time>2023-06-26T10:12:02.220Z</time>
      </trkpt>
      <trkpt lat="51.46016" lon="6.63296">
        <ele>79.637659</ele>
        <time>2023-06-26T10:12:04.234Z</time>
      </trkpt>
      <trkpt lat="51.46008" lon="6.63303">
        <ele>79.624951</ele>
        <time>2023-06-26T10:12:06.234Z</time>
      </trkpt>
      <trkpt lat="51.45999" lon="6.63309">
        <ele>79.612116</ele>
        <time>2023-06-26T10:12:08.228Z</time>
      </trkpt>
      <trkpt lat="51.4599" lon="6.63317">
        <ele>79.598941</ele>
        <time>2023-06-26T10:12:10.225Z</time>
      </trkpt>
      <trkpt lat="51.45982" lon="6.63324">
        <ele>79.586233</ele>
        <time>2023-06-26T10:12:12.228Z</time>
      </trkpt>
      <trkpt lat="51.45974" lon="6.63332">
        <ele>79.573753</ele>
        <time>2023-06-26T10:12:14.229Z</time>
      </trkpt>
      <trkpt lat="51.45965" lon="6.63339">
        <ele>79.560726</ele>
        <time>2023-06-26T10:12:16.228Z</time>
      </trkpt>
      <trkpt lat="51.45956" lon="6.63345">
        <ele>79.547875</ele>
        <time>2023-06-26T10:12:18.238Z</time>
      </trkpt>
      <trkpt lat="51.45947" lon="6.63352">
        <ele>79.534416</ele>
        <time>2023-06-26T10:12:20.232Z</time>
      </trkpt>
      <trkpt lat="51.45938" lon="6.6336">
        <ele>79.52112</ele>
        <time>2023-06-26T10:12:22.222Z</time>
      </trkpt>
      <trkpt lat="51.4593" lon="6.63366">
        <ele>79.508943</ele>
        <time>2023-06-26T10:12:24.250Z</time>
      </trkpt>
      <trkpt lat="51.45922" lon="6.63373">
        <ele>79.497056</ele>
        <time>2023-06-26T10:12:26.237Z</time>
      </trkpt>
      <trkpt lat="51.45911" lon="6.63383">
        <ele>79.480088</ele>
        <time>2023-06-26T10:12:29.247Z</time>
      </trkpt>
      <trkpt lat="51.45902" lon="6.6339">
        <ele>79.466287</ele>
        <time>2023-06-26T10:12:32.227Z</time>
      </trkpt>
      <trkpt lat="51.45893" lon="6.63399">
        <ele>79.452312</ele>
        <time>2023-06-26T10:12:35.230Z</time>
      </trkpt>
      <trkpt lat="51.45881" lon="6.63408">
        <ele>79.435725</ele>
        <time>2023-06-26T10:12:38.219Z</time>
      </trkpt>
      <trkpt lat="51.45871" lon="6.63418">
        <ele>79.419713</ele>
        <time>2023-06-26T10:12:41.237Z</time>
      </trkpt>
      <trkpt lat="51.45861" lon="6.63427">
        <ele>79.396587</ele>
        <time>2023-06-26T10:12:44.234Z</time>
      </trkpt>
      <trkpt lat="51.45851" lon="6.63435">
        <ele>79.368205</ele>
        <time>2023-06-26T10:12:47.319Z</time>
      </trkpt>
      <trkpt lat="51.45841" lon="6.63441">
        <ele>79.339112</ele>
        <time>2023-06-26T10:12:51.235Z</time>
      </trkpt>
      <trkpt lat="51.45826" lon="6.63453">
        <ele>79.292679</ele>
        <time>2023-06-26T10:13:31.233Z</time>
      </trkpt>
      <trkpt lat="51.45819" lon="6.63467">
        <ele>79.261657</ele>
        <time>2023-06-26T10:13:35.234Z</time>
      </trkpt>
      <trkpt lat="51.4581" lon="6.63476">
        <ele>79.233562</ele>
        <time>2023-06-26T10:13:38.232Z</time>
      </trkpt>
      <trkpt lat="51.45802" lon="6.63484">
        <ele>79.209054</ele>
        <time>2023-06-26T10:13:40.224Z</time>
      </trkpt>
      <trkpt lat="51.45795" lon="6.63494">
        <ele>79.183895</ele>
        <time>2023-06-26T10:13:42.243Z</time>
      </trkpt>
      <trkpt lat="51.45786" lon="6.63506">
        <ele>79.152022</ele>
        <time>2023-06-26T10:13:45.248Z</time>
      </trkpt>
      <trkpt lat="51.45774" lon="6.63517">
        <ele>79.116007</ele>
        <time>2023-06-26T10:13:48.229Z</time>
      </trkpt>
      <trkpt lat="51.45764" lon="6.63528">
        <ele>79.081242</ele>
        <time>2023-06-26T10:13:51.228Z</time>
      </trkpt>
      <trkpt lat="51.45753" lon="6.6354">
        <ele>79.045339</ele>
        <time>2023-06-26T10:13:54.229Z</time>
      </trkpt>
      <trkpt lat="51.45745" lon="6.63549">
        <ele>79.020201</ele>
        <time>2023-06-26T10:13:56.237Z</time>
      </trkpt>
      <trkpt lat="51.45737" lon="6.63558">
        <ele>78.994393</ele>
        <time>2023-06-26T10:13:58.229Z</time>
      </trkpt>
      <trkpt lat="51.4573" lon="6.63567">
        <ele>78.969673</ele>
        <time>2023-06-26T10:14:00.224Z</time>
      </trkpt>
      <trkpt lat="51.45722" lon="6.63576">
        <ele>78.943799</ele>
        <time>2023-06-26T10:14:02.232Z</time>
      </trkpt>
      <trkpt lat="51.45714" lon="6.63585">
        <ele>78.934</ele>
        <time>2023-06-26T10:14:04.237Z</time>
      </trkpt>
      <trkpt lat="51.45707" lon="6.63595">
        <ele>78.955864</ele>
        <time>2023-06-26T10:14:06.231Z</time>
      </trkpt>
      <trkpt lat="51.45699" lon="6.63604">
        <ele>78.976961</ele>
        <time>2023-06-26T10:14:08.226Z</time>
      </trkpt>
      <trkpt lat="51.45691" lon="6.63614">
        <ele>78.999421</ele>
        <time>2023-06-26T10:14:10.226Z</time>
      </trkpt>
      <trkpt lat="51.4568" lon="6.63625">
        <ele>79.029023</ele>
        <time>2023-06-26T10:14:13.228Z</time>
      </trkpt>
      <trkpt lat="51.45672" lon="6.63635">
        <ele>79.049834</ele>
        <time>2023-06-26T10:14:15.233Z</time>
      </trkpt>
      <trkpt lat="51.45665" lon="6.63643">
        <ele>79.070195</ele>
        <time>2023-06-26T10:14:17.232Z</time>
      </trkpt>
      <trkpt lat="51.45657" lon="6.6365">
        <ele>79.090454</ele>
        <time>2023-06-26T10:14:19.240Z</time>
      </trkpt>
      <trkpt lat="51.45647" lon="6.63656">
        <ele>79.112693</ele>
        <time>2023-06-26T10:14:21.214Z</time>
      </trkpt>
      <trkpt lat="51.45639" lon="6.63663">
        <ele>79.133153</ele>
        <time>2023-06-26T10:14:23.231Z</time>
      </trkpt>
      <trkpt lat="51.45631" lon="6.6367">
        <ele>79.153216</ele>
        <time>2023-06-26T10:14:25.231Z</time>
      </trkpt>
      <trkpt lat="51.45623" lon="6.63678">
        <ele>79.175124</ele>
        <time>2023-06-26T10:14:27.236Z</time>
      </trkpt>
      <trkpt lat="51.45615" lon="6.63685">
        <ele>79.195708</ele>
        <time>2023-06-26T10:14:29.230Z</time>
      </trkpt>
      <trkpt lat="51.45603" lon="6.63694">
        <ele>79.224094</ele>
        <time>2023-06-26T10:14:32.220Z</time>
      </trkpt>
      <trkpt lat="51.45592" lon="6.63703">
        <ele>79.252787</ele>
        <time>2023-06-26T10:14:35.222Z</time>
      </trkpt>
      <trkpt lat="51.4558" lon="6.6371">
        <ele>79.280439</ele>
        <time>2023-06-26T10:14:38.230Z</time>
      </trkpt>
      <trkpt lat="51.45569" lon="6.63717">
        <ele>79.30771</ele>
        <time>2023-06-26T10:14:41.234Z</time>
      </trkpt>
      <trkpt lat="51.45555" lon="6.63722">
        <ele>79.324396</ele>
        <time>2023-06-26T10:14:44.239Z</time>
      </trkpt>
      <trkpt lat="51.45546" lon="6.63724">
        <ele>79.321134</ele>
        <time>2023-06-26T10:14:46.225Z</time>
      </trkpt>
      <trkpt lat="51.45537" lon="6.63726">
        <ele>79.317587</ele>
        <time>2023-06-26T10:14:48.239Z</time>
      </trkpt>
      <trkpt lat="51.45526" lon="6.63728">
        <ele>79.313793</ele>
        <time>2023-06-26T10:14:50.227Z</time>
      </trkpt>
      <trkpt lat="51.45516" lon="6.63729">
        <ele>79.310206</ele>
        <time>2023-06-26T10:14:52.213Z</time>
      </trkpt>
      <trkpt lat="51.45507" lon="6.63729">
        <ele>79.306946</ele>
        <time>2023-06-26T10:14:54.223Z</time>
      </trkpt>
      <trkpt lat="51.45498" lon="6.6373">
        <ele>79.303607</ele>
        <time>2023-06-26T10:14:56.245Z</time>
      </trkpt>
      <trkpt lat="51.45489" lon="6.63732">
        <ele>79.300297</ele>
        <time>2023-06-26T10:14:58.243Z</time>
      </trkpt>
      <trkpt lat="51.45479" lon="6.63733">
        <ele>79.297022</ele>
        <time>2023-06-26T10:15:00.232Z</time>
      </trkpt>
      <trkpt lat="51.4547" lon="6.63734">
        <ele>79.293683</ele>
        <time>2023-06-26T10:15:02.226Z</time>
      </trkpt>
      <trkpt lat="51.45461" lon="6.63735">
        <ele>79.290421</ele>
        <time>2023-06-26T10:15:04.220Z</time>
      </trkpt>
      <trkpt lat="51.45447" lon="6.63737">
        <ele>79.285532</ele>
        <time>2023-06-26T10:15:07.224Z</time>
      </trkpt>
      <trkpt lat="51.45438" lon="6.63738">
        <ele>79.282263</ele>
        <time>2023-06-26T10:15:09.227Z</time>
      </trkpt>
      <trkpt lat="51.45429" lon="6.6374">
        <ele>79.278956</ele>
        <time>2023-06-26T10:15:11.227Z</time>
      </trkpt>
      <trkpt lat="51.4542" lon="6.63743">
        <ele>79.275453</ele>
        <time>2023-06-26T10:15:13.219Z</time>
      </trkpt>
      <trkpt lat="51.4541" lon="6.63746">
        <ele>79.271969</ele>
        <time>2023-06-26T10:15:15.239Z</time>
      </trkpt>
      <trkpt lat="51.45401" lon="6.63749">
        <ele>79.268751</ele>
        <time>2023-06-26T10:15:17.231Z</time>
      </trkpt>
      <trkpt lat="51.45392" lon="6.63751">
        <ele>79.265467</ele>
        <time>2023-06-26T10:15:19.230Z</time>
      </trkpt>
      <trkpt lat="51.45379" lon="6.63754">
        <ele>79.225556</ele>
        <time>2023-06-26T10:15:22.207Z</time>
      </trkpt>
      <trkpt lat="51.45369" lon="6.63757">
        <ele>79.106839</ele>
        <time>2023-06-26T10:15:24.218Z</time>
      </trkpt>
      <trkpt lat="51.45359" lon="6.63759">
        <ele>78.994197</ele>
        <time>2023-06-26T10:15:26.217Z</time>
      </trkpt>
      <trkpt lat="51.4535" lon="6.63764">
        <ele>78.881229</ele>
        <time>2023-06-26T10:15:28.236Z</time>
      </trkpt>
      <trkpt lat="51.4534" lon="6.63767">
        <ele>78.768715</ele>
        <time>2023-06-26T10:15:30.225Z</time>
      </trkpt>
      <trkpt lat="51.45331" lon="6.63769">
        <ele>78.660543</ele>
        <time>2023-06-26T10:15:32.226Z</time>
      </trkpt>
      <trkpt lat="51.45321" lon="6.63771">
        <ele>78.54456</ele>
        <time>2023-06-26T10:15:34.225Z</time>
      </trkpt>
      <trkpt lat="51.45311" lon="6.63774">
        <ele>78.429887</ele>
        <time>2023-06-26T10:15:36.232Z</time>
      </trkpt>
      <trkpt lat="51.453" lon="6.63779">
        <ele>78.29729</ele>
        <time>2023-06-26T10:15:38.227Z</time>
      </trkpt>
      <trkpt lat="51.45289" lon="6.63784">
        <ele>78.166179</ele>
        <time>2023-06-26T10:15:40.243Z</time>
      </trkpt>
      <trkpt lat="51.45278" lon="6.63789">
        <ele>78.036307</ele>
        <time>2023-06-26T10:15:42.226Z</time>
      </trkpt>
      <trkpt lat="51.45269" lon="6.63794">
        <ele>77.918079</ele>
        <time>2023-06-26T10:15:44.224Z</time>
      </trkpt>
      <trkpt lat="51.45259" lon="6.63798">
        <ele>77.799376</ele>
        <time>2023-06-26T10:15:46.230Z</time>
      </trkpt>
      <trkpt lat="51.45249" lon="6.63803">
        <ele>77.683773</ele>
        <time>2023-06-26T10:15:48.222Z</time>
      </trkpt>
      <trkpt lat="51.45239" lon="6.63806">
        <ele>77.572113</ele>
        <time>2023-06-26T10:15:50.211Z</time>
      </trkpt>
      <trkpt lat="51.45227" lon="6.6381">
        <ele>77.422762</ele>
        <time>2023-06-26T10:15:53.217Z</time>
      </trkpt>
      <trkpt lat="51.45218" lon="6.63814">
        <ele>77.314811</ele>
        <time>2023-06-26T10:15:55.210Z</time>
      </trkpt>
      <trkpt lat="51.45209" lon="6.63819">
        <ele>77.211111</ele>
        <time>2023-06-26T10:15:57.222Z</time>
      </trkpt>
      <trkpt lat="51.45197" lon="6.63826">
        <ele>77.321913</ele>
        <time>2023-06-26T10:16:00.220Z</time>
      </trkpt>
      <trkpt lat="51.45188" lon="6.63831">
        <ele>77.42598</ele>
        <time>2023-06-26T10:16:02.243Z</time>
      </trkpt>
      <trkpt lat="51.45176" lon="6.63836">
        <ele>77.570633</ele>
        <time>2023-06-26T10:16:05.232Z</time>
      </trkpt>
      <trkpt lat="51.45163" lon="6.63841">
        <ele>77.726156</ele>
        <time>2023-06-26T10:16:08.219Z</time>
      </trkpt>
      <trkpt lat="51.45154" lon="6.63846">
        <ele>77.837192</ele>
        <time>2023-06-26T10:16:10.225Z</time>
      </trkpt>
      <trkpt lat="51.45145" lon="6.63851">
        <ele>77.943867</ele>
        <time>2023-06-26T10:16:12.238Z</time>
      </trkpt>
      <trkpt lat="51.45136" lon="6.63855">
        <ele>78.051431</ele>
        <time>2023-06-26T10:16:14.211Z</time>
      </trkpt>
      <trkpt lat="51.45126" lon="6.63859">
        <ele>78.163395</ele>
        <time>2023-06-26T10:16:16.229Z</time>
      </trkpt>
      <trkpt lat="51.45117" lon="6.63863">
        <ele>78.27387</ele>
        <time>2023-06-26T10:16:18.234Z</time>
      </trkpt>
      <trkpt lat="51.45104" lon="6.63866">
        <ele>78.426295</ele>
        <time>2023-06-26T10:16:21.191Z</time>
      </trkpt>
      <trkpt lat="51.45094" lon="6.63867">
        <ele>78.535451</ele>
        <time>2023-06-26T10:16:23.236Z</time>
      </trkpt>
      <trkpt lat="51.45082" lon="6.63869">
        <ele>78.679417</ele>
        <time>2023-06-26T10:16:26.227Z</time>
      </trkpt>
      <trkpt lat="51.45069" lon="6.63872">
        <ele>78.823383</ele>
        <time>2023-06-26T10:16:29.233Z</time>
      </trkpt>
      <trkpt lat="51.45057" lon="6.63874">
        <ele>78.965148</ele>
        <time>2023-06-26T10:16:32.216Z</time>
      </trkpt>
      <trkpt lat="51.45044" lon="6.63873">
        <ele>79.112998</ele>
        <time>2023-06-26T10:16:35.209Z</time>
      </trkpt>
      <trkpt lat="51.45032" lon="6.63874">
        <ele>79.245966</ele>
        <time>2023-06-26T10:16:38.239Z</time>
      </trkpt>
      <trkpt lat="51.45021" lon="6.63875">
        <ele>79.214438</ele>
        <time>2023-06-26T10:16:42.228Z</time>
      </trkpt>
      <trkpt lat="51.45011" lon="6.63876">
        <ele>79.181891</ele>
        <time>2023-06-26T10:16:49.229Z</time>
      </trkpt>
      <trkpt lat="51.45" lon="6.6388">
        <ele>79.143043</ele>
        <time>2023-06-26T10:17:28.232Z</time>
      </trkpt>
      <trkpt lat="51.44989" lon="6.63881">
        <ele>79.106877</ele>
        <time>2023-06-26T10:17:32.226Z</time>
      </trkpt>
      <trkpt lat="51.44979" lon="6.63881">
        <ele>79.075003</ele>
        <time>2023-06-26T10:17:35.238Z</time>
      </trkpt>
      <trkpt lat="51.44969" lon="6.63883">
        <ele>79.041066</ele>
        <time>2023-06-26T10:17:38.209Z</time>
      </trkpt>
      <trkpt lat="51.44959" lon="6.63884">
        <ele>79.007509</ele>
        <time>2023-06-26T10:17:41.231Z</time>
      </trkpt>
      <trkpt lat="51.44949" lon="6.63884">
        <ele>78.974649</ele>
        <time>2023-06-26T10:17:44.243Z</time>
      </trkpt>
      <trkpt lat="51.44939" lon="6.63886">
        <ele>78.941606</ele>
        <time>2023-06-26T10:17:47.238Z</time>
      </trkpt>
      <trkpt lat="51.44927" lon="6.63889">
        <ele>78.903678</ele>
        <time>2023-06-26T10:17:50.226Z</time>
      </trkpt>
      <trkpt lat="51.44918" lon="6.63892">
        <ele>78.872103</ele>
        <time>2023-06-26T10:17:53.247Z</time>
      </trkpt>
      <trkpt lat="51.44908" lon="6.63895">
        <ele>78.8381</ele>
        <time>2023-06-26T10:17:56.224Z</time>
      </trkpt>
      <trkpt lat="51.44898" lon="6.63895">
        <ele>78.806548</ele>
        <time>2023-06-26T10:17:59.240Z</time>
      </trkpt>
      <trkpt lat="51.44888" lon="6.63896">
        <ele>78.772664</ele>
        <time>2023-06-26T10:18:02.238Z</time>
      </trkpt>
      <trkpt lat="51.44876" lon="6.63897">
        <ele>78.7328</ele>
        <time>2023-06-26T10:18:05.224Z</time>
      </trkpt>
      <trkpt lat="51.44867" lon="6.63901">
        <ele>78.702959</ele>
        <time>2023-06-26T10:18:07.230Z</time>
      </trkpt>
      <trkpt lat="51.44854" lon="6.63902">
        <ele>78.661167</ele>
        <time>2023-06-26T10:18:10.221Z</time>
      </trkpt>
      <trkpt lat="51.44842" lon="6.63902">
        <ele>78.825558</ele>
        <time>2023-06-26T10:18:13.215Z</time>
      </trkpt>
      <trkpt lat="51.44831" lon="6.639">
        <ele>78.988713</ele>
        <time>2023-06-26T10:18:16.235Z</time>
      </trkpt>
      <trkpt lat="51.44818" lon="6.63902">
        <ele>79.171254</ele>
        <time>2023-06-26T10:18:19.239Z</time>
      </trkpt>
      <trkpt lat="51.44805" lon="6.63905">
        <ele>79.354992</ele>
        <time>2023-06-26T10:18:22.222Z</time>
      </trkpt>
      <trkpt lat="51.44793" lon="6.63906">
        <ele>79.530697</ele>
        <time>2023-06-26T10:18:25.208Z</time>
      </trkpt>
      <trkpt lat="51.44781" lon="6.63908">
        <ele>79.705465</ele>
        <time>2023-06-26T10:18:28.226Z</time>
      </trkpt>
      <trkpt lat="51.44769" lon="6.6391">
        <ele>79.879551</ele>
        <time>2023-06-26T10:18:31.229Z</time>
      </trkpt>
      <trkpt lat="51.44756" lon="6.63911">
        <ele>80.071009</ele>
        <time>2023-06-26T10:18:34.216Z</time>
      </trkpt>
      <trkpt lat="51.44746" lon="6.63912">
        <ele>80.206351</ele>
        <time>2023-06-26T10:18:36.237Z</time>
      </trkpt>
      <trkpt lat="51.44736" lon="6.63913">
        <ele>80.355761</ele>
        <time>2023-06-26T10:18:38.227Z</time>
      </trkpt>
      <trkpt lat="51.44726" lon="6.63914">
        <ele>80.498264</ele>
        <time>2023-06-26T10:18:40.227Z</time>
      </trkpt>
      <trkpt lat="51.44716" lon="6.63914">
        <ele>80.644746</ele>
        <time>2023-06-26T10:18:42.226Z</time>
      </trkpt>
      <trkpt lat="51.44703" lon="6.63914">
        <ele>80.832965</ele>
        <time>2023-06-26T10:18:45.228Z</time>
      </trkpt>
      <trkpt lat="51.44693" lon="6.63917">
        <ele>80.976485</ele>
        <time>2023-06-26T10:18:47.237Z</time>
      </trkpt>
      <trkpt lat="51.44682" lon="6.63918">
        <ele>81.126793</ele>
        <time>2023-06-26T10:18:49.238Z</time>
      </trkpt>
      <trkpt lat="51.4467" lon="6.63917">
        <ele>81.227831</ele>
        <time>2023-06-26T10:18:52.222Z</time>
      </trkpt>
      <trkpt lat="51.44659" lon="6.63914">
        <ele>81.189261</ele>
        <time>2023-06-26T10:18:55.222Z</time>
      </trkpt>
      <trkpt lat="51.44647" lon="6.63912">
        <ele>81.149748</ele>
        <time>2023-06-26T10:18:58.241Z</time>
      </trkpt>
      <trkpt lat="51.44637" lon="6.63907">
        <ele>81.113788</ele>
        <time>2023-06-26T10:19:01.227Z</time>
      </trkpt>
      <trkpt lat="51.44628" lon="6.63903">
        <ele>81.082634</ele>
        <time>2023-06-26T10:19:04.227Z</time>
      </trkpt>
      <trkpt lat="51.44619" lon="6.63897">
        <ele>81.050367</ele>
        <time>2023-06-26T10:19:07.232Z</time>
      </trkpt>
      <trkpt lat="51.44609" lon="6.63893">
        <ele>81.015052</ele>
        <time>2023-06-26T10:19:10.226Z</time>
      </trkpt>
      <trkpt lat="51.44598" lon="6.63888">
        <ele>80.976335</ele>
        <time>2023-06-26T10:19:13.213Z</time>
      </trkpt>
      <trkpt lat="51.44588" lon="6.63883">
        <ele>80.943453</ele>
        <time>2023-06-26T10:19:16.247Z</time>
      </trkpt>
      <trkpt lat="51.44579" lon="6.63876">
        <ele>80.907736</ele>
        <time>2023-06-26T10:19:19.215Z</time>
      </trkpt>
      <trkpt lat="51.4457" lon="6.6387">
        <ele>80.874453</ele>
        <time>2023-06-26T10:19:22.216Z</time>
      </trkpt>
      <trkpt lat="51.4456" lon="6.63865">
        <ele>80.840222</ele>
        <time>2023-06-26T10:19:25.240Z</time>
      </trkpt>
      <trkpt lat="51.4455" lon="6.63856">
        <ele>80.8037</ele>
        <time>2023-06-26T10:19:28.216Z</time>
      </trkpt>
      <trkpt lat="51.44541" lon="6.63846">
        <ele>80.766849</ele>
        <time>2023-06-26T10:19:31.245Z</time>
      </trkpt>
      <trkpt lat="51.44532" lon="6.63835">
        <ele>80.729232</ele>
        <time>2023-06-26T10:19:34.239Z</time>
      </trkpt>
      <trkpt lat="51.44524" lon="6.63824">
        <ele>80.690976</ele>
        <time>2023-06-26T10:19:37.227Z</time>
      </trkpt>
      <trkpt lat="51.44517" lon="6.63811">
        <ele>80.65672</ele>
        <time>2023-06-26T10:19:40.216Z</time>
      </trkpt>
      <trkpt lat="51.44511" lon="6.63798">
        <ele>80.717931</ele>
        <time>2023-06-26T10:19:43.227Z</time>
      </trkpt>
      <trkpt lat="51.44505" lon="6.63783">
        <ele>80.888348</ele>
        <time>2023-06-26T10:19:46.234Z</time>
      </trkpt>
      <trkpt lat="51.44499" lon="6.63768">
        <ele>81.057109</ele>
        <time>2023-06-26T10:19:49.229Z</time>
      </trkpt>
      <trkpt lat="51.44494" lon="6.63755">
        <ele>81.221018</ele>
        <time>2023-06-26T10:19:52.243Z</time>
      </trkpt>
      <trkpt lat="51.44486" lon="6.63743">
        <ele>81.383276</ele>
        <time>2023-06-26T10:19:56.214Z</time>
      </trkpt>
      <trkpt lat="51.44478" lon="6.63734">
        <ele>81.538529</ele>
        <time>2023-06-26T10:20:01.203Z</time>
      </trkpt>
      <trkpt lat="51.44467" lon="6.63727">
        <ele>81.723992</ele>
        <time>2023-06-26T10:20:05.224Z</time>
      </trkpt>
      <trkpt lat="51.44457" lon="6.63726">
        <ele>81.888592</ele>
        <time>2023-06-26T10:20:08.220Z</time>
      </trkpt>
      <trkpt lat="51.44445" lon="6.63728">
        <ele>82.083647</ele>
        <time>2023-06-26T10:20:11.224Z</time>
      </trkpt>
      <trkpt lat="51.44433" lon="6.63733">
        <ele>82.268915</ele>
        <time>2023-06-26T10:20:14.209Z</time>
      </trkpt>
      <trkpt lat="51.44422" lon="6.6374">
        <ele>82.460313</ele>
        <time>2023-06-26T10:20:17.233Z</time>
      </trkpt>
      <trkpt lat="51.4441" lon="6.63748">
        <ele>82.660106</ele>
        <time>2023-06-26T10:20:20.237Z</time>
      </trkpt>
      <trkpt lat="51.44402" lon="6.63764">
        <ele>82.871069</ele>
        <time>2023-06-26T10:20:23.243Z</time>
      </trkpt>
      <trkpt lat="51.44396" lon="6.63777">
        <ele>83.021001</ele>
        <time>2023-06-26T10:20:25.223Z</time>
      </trkpt>
      <trkpt lat="51.4439" lon="6.63787">
        <ele>83.163221</ele>
        <time>2023-06-26T10:20:27.232Z</time>
      </trkpt>
      <trkpt lat="51.44379" lon="6.63799">
        <ele>83.364142</ele>
        <time>2023-06-26T10:20:30.210Z</time>
      </trkpt>
      <trkpt lat="51.44367" lon="6.63807">
        <ele>83.48833</ele>
        <time>2023-06-26T10:20:33.222Z</time>
      </trkpt>
      <trkpt lat="51.4436" lon="6.63817">
        <ele>83.504218</ele>
        <time>2023-06-26T10:20:35.220Z</time>
      </trkpt>
      <trkpt lat="51.44352" lon="6.63829">
        <ele>83.520776</ele>
        <time>2023-06-26T10:20:37.219Z</time>
      </trkpt>
      <trkpt lat="51.44344" lon="6.63842">
        <ele>83.538842</ele>
        <time>2023-06-26T10:20:39.218Z</time>
      </trkpt>
      <trkpt lat="51.44336" lon="6.63853">
        <ele>83.556484</ele>
        <time>2023-06-26T10:20:41.237Z</time>
      </trkpt>
      <trkpt lat="51.44329" lon="6.63869">
        <ele>83.575715</ele>
        <time>2023-06-26T10:20:43.214Z</time>
      </trkpt>
      <trkpt lat="51.44322" lon="6.63882">
        <ele>83.592954</ele>
        <time>2023-06-26T10:20:45.250Z</time>
      </trkpt>
      <trkpt lat="51.44314" lon="6.63894">
        <ele>83.61009</ele>
        <time>2023-06-26T10:20:47.223Z</time>
      </trkpt>
      <trkpt lat="51.44306" lon="6.63906">
        <ele>83.627359</ele>
        <time>2023-06-26T10:20:49.214Z</time>
      </trkpt>
      <trkpt lat="51.44297" lon="6.63916">
        <ele>83.645304</ele>
        <time>2023-06-26T10:20:51.239Z</time>
      </trkpt>
      <trkpt lat="51.4429" lon="6.63929">
        <ele>83.662565</ele>
        <time>2023-06-26T10:20:53.227Z</time>
      </trkpt>
      <trkpt lat="51.44282" lon="6.63941">
        <ele>83.679938</ele>
        <time>2023-06-26T10:20:55.222Z</time>
      </trkpt>
      <trkpt lat="51.44274" lon="6.63951">
        <ele>83.696318</ele>
        <time>2023-06-26T10:20:57.208Z</time>
      </trkpt>
      <trkpt lat="51.44266" lon="6.63961">
        <ele>83.712544</ele>
        <time>2023-06-26T10:20:59.216Z</time>
      </trkpt>
      <trkpt lat="51.44258" lon="6.63972">
        <ele>83.729188</ele>
        <time>2023-06-26T10:21:01.233Z</time>
      </trkpt>
      <trkpt lat="51.4425" lon="6.63985">
        <ele>83.748418</ele>
        <time>2023-06-26T10:21:04.242Z</time>
      </trkpt>
      <trkpt lat="51.44241" lon="6.63998">
        <ele>83.766817</ele>
        <time>2023-06-26T10:21:07.231Z</time>
      </trkpt>
      <trkpt lat="51.44231" lon="6.6401">
        <ele>83.724837</ele>
        <time>2023-06-26T10:21:10.226Z</time>
      </trkpt>
      <trkpt lat="51.44221" lon="6.64023">
        <ele>83.682724</ele>
        <time>2023-06-26T10:21:13.221Z</time>
      </trkpt>
      <trkpt lat="51.4421" lon="6.64036">
        <ele>83.638388</ele>
        <time>2023-06-26T10:21:16.239Z</time>
      </trkpt>
      <trkpt lat="51.44202" lon="6.64043">
        <ele>83.607022</ele>
        <time>2023-06-26T10:21:18.220Z</time>
      </trkpt>
      <trkpt lat="51.44195" lon="6.64054">
        <ele>83.575131</ele>
        <time>2023-06-26T10:21:20.220Z</time>
      </trkpt>
      <trkpt lat="51.44188" lon="6.64063">
        <ele>83.544441</ele>
        <time>2023-06-26T10:21:22.240Z</time>
      </trkpt>
      <trkpt lat="51.44181" lon="6.64072">
        <ele>83.514249</ele>
        <time>2023-06-26T10:21:24.231Z</time>
      </trkpt>
      <trkpt lat="51.44171" lon="6.64085">
        <ele>83.471641</ele>
        <time>2023-06-26T10:21:27.239Z</time>
      </trkpt>
      <trkpt lat="51.44161" lon="6.64098">
        <ele>83.429157</ele>
        <time>2023-06-26T10:21:30.230Z</time>
      </trkpt>
      <trkpt lat="51.44152" lon="6.64113">
        <ele>83.386598</ele>
        <time>2023-06-26T10:21:33.222Z</time>
      </trkpt>
      <trkpt lat="51.44143" lon="6.64127">
        <ele>83.343446</ele>
        <time>2023-06-26T10:21:36.239Z</time>
      </trkpt>
      <trkpt lat="51.4413" lon="6.64137">
        <ele>83.297663</ele>
        <time>2023-06-26T10:21:39.230Z</time>
      </trkpt>
      <trkpt lat="51.4412" lon="6.64145">
        <ele>83.260798</ele>
        <time>2023-06-26T10:21:41.238Z</time>
      </trkpt>
      <trkpt lat="51.44108" lon="6.64152">
        <ele>83.218349</ele>
        <time>2023-06-26T10:21:44.228Z</time>
      </trkpt>
      <trkpt lat="51.44096" lon="6.6416">
        <ele>83.174512</ele>
        <time>2023-06-26T10:21:47.226Z</time>
      </trkpt>
      <trkpt lat="51.44084" lon="6.64167">
        <ele>83.193228</ele>
        <time>2023-06-26T10:21:50.228Z</time>
      </trkpt>
      <trkpt lat="51.44075" lon="6.64171">
        <ele>83.211761</ele>
        <time>2023-06-26T10:21:52.231Z</time>
      </trkpt>
      <trkpt lat="51.44066" lon="6.64174">
        <ele>83.230351</ele>
        <time>2023-06-26T10:21:54.233Z</time>
      </trkpt>
      <trkpt lat="51.44054" lon="6.64182">
        <ele>83.257722</ele>
        <time>2023-06-26T10:21:57.226Z</time>
      </trkpt>
      <trkpt lat="51.44042" lon="6.64189">
        <ele>83.283439</ele>
        <time>2023-06-26T10:22:00.235Z</time>
      </trkpt>
      <trkpt lat="51.44035" lon="6.64198">
        <ele>83.302016</ele>
        <time>2023-06-26T10:22:02.214Z</time>
      </trkpt>
      <trkpt lat="51.44025" lon="6.64205">
        <ele>83.324506</ele>
        <time>2023-06-26T10:22:04.226Z</time>
      </trkpt>
      <trkpt lat="51.44013" lon="6.64214">
        <ele>83.35138</ele>
        <time>2023-06-26T10:22:07.240Z</time>
      </trkpt>
      <trkpt lat="51.44001" lon="6.64223">
        <ele>83.378299</ele>
        <time>2023-06-26T10:22:10.225Z</time>
      </trkpt>
      <trkpt lat="51.4399" lon="6.64234">
        <ele>83.404969</ele>
        <time>2023-06-26T10:22:13.207Z</time>
      </trkpt>
      <trkpt lat="51.43978" lon="6.6424">
        <ele>83.431362</ele>
        <time>2023-06-26T10:22:16.244Z</time>
      </trkpt>
      <trkpt lat="51.43965" lon="6.64247">
        <ele>83.458215</ele>
        <time>2023-06-26T10:22:19.228Z</time>
      </trkpt>
      <trkpt lat="51.43953" lon="6.64256">
        <ele>83.486437</ele>
        <time>2023-06-26T10:22:22.245Z</time>
      </trkpt>
      <trkpt lat="51.43943" lon="6.64261">
        <ele>83.506462</ele>
        <time>2023-06-26T10:22:24.228Z</time>
      </trkpt>
      <trkpt lat="51.43932" lon="6.6427">
        <ele>83.532638</ele>
        <time>2023-06-26T10:22:27.237Z</time>
      </trkpt>
      <trkpt lat="51.43922" lon="6.64276">
        <ele>83.480833</ele>
        <time>2023-06-26T10:22:30.233Z</time>
      </trkpt>
      <trkpt lat="51.4391" lon="6.64283">
        <ele>83.395243</ele>
        <time>2023-06-26T10:22:33.213Z</time>
      </trkpt>
      <trkpt lat="51.439" lon="6.64286">
        <ele>83.331072</ele>
        <time>2023-06-26T10:22:35.220Z</time>
      </trkpt>
      <trkpt lat="51.43891" lon="6.64292">
        <ele>83.264131</ele>
        <time>2023-06-26T10:22:37.231Z</time>
      </trkpt>
      <trkpt lat="51.43882" lon="6.64297">
        <ele>83.203543</ele>
        <time>2023-06-26T10:22:39.232Z</time>
      </trkpt>
      <trkpt lat="51.4387" lon="6.64305">
        <ele>83.115962</ele>
        <time>2023-06-26T10:22:42.242Z</time>
      </trkpt>
      <trkpt lat="51.43858" lon="6.64313">
        <ele>83.027483</ele>
        <time>2023-06-26T10:22:45.230Z</time>
      </trkpt>
      <trkpt lat="51.43849" lon="6.64316">
        <ele>82.963876</ele>
        <time>2023-06-26T10:22:47.237Z</time>
      </trkpt>
      <trkpt lat="51.4384" lon="6.64322">
        <ele>82.898743</ele>
        <time>2023-06-26T10:22:49.236Z</time>
      </trkpt>
      <trkpt lat="51.43832" lon="6.64329">
        <ele>82.838271</ele>
        <time>2023-06-26T10:22:51.226Z</time>
      </trkpt>
      <trkpt lat="51.43823" lon="6.64335">
        <ele>82.777064</ele>
        <time>2023-06-26T10:22:53.214Z</time>
      </trkpt>
      <trkpt lat="51.43815" lon="6.64341">
        <ele>82.715379</ele>
        <time>2023-06-26T10:22:55.233Z</time>
      </trkpt>
      <trkpt lat="51.43806" lon="6.64347">
        <ele>82.652732</ele>
        <time>2023-06-26T10:22:57.242Z</time>
      </trkpt>
      <trkpt lat="51.43798" lon="6.64354">
        <ele>82.590269</ele>
        <time>2023-06-26T10:22:59.245Z</time>
      </trkpt>
      <trkpt lat="51.43789" lon="6.6436">
        <ele>82.527305</ele>
        <time>2023-06-26T10:23:01.236Z</time>
      </trkpt>
      <trkpt lat="51.43781" lon="6.64364">
        <ele>82.466866</ele>
        <time>2023-06-26T10:23:03.214Z</time>
      </trkpt>
      <trkpt lat="51.43769" lon="6.64372">
        <ele>82.38102</ele>
        <time>2023-06-26T10:23:06.227Z</time>
      </trkpt>
      <trkpt lat="51.43757" lon="6.64379">
        <ele>82.315422</ele>
        <time>2023-06-26T10:23:09.231Z</time>
      </trkpt>
      <trkpt lat="51.43745" lon="6.64386">
        <ele>82.267828</ele>
        <time>2023-06-26T10:23:12.242Z</time>
      </trkpt>
      <trkpt lat="51.43736" lon="6.64382">
        <ele>82.230614</ele>
        <time>2023-06-26T10:23:15.238Z</time>
      </trkpt>
      <trkpt lat="51.43716" lon="6.64384">
        <ele>82.15716</ele>
        <time>2023-06-26T10:24:49.217Z</time>
      </trkpt>
      <trkpt lat="51.43709" lon="6.64397">
        <ele>82.115336</ele>
        <time>2023-06-26T10:24:53.235Z</time>
      </trkpt>
      <trkpt lat="51.43703" lon="6.64411">
        <ele>82.075942</ele>
        <time>2023-06-26T10:24:56.222Z</time>
      </trkpt>
      <trkpt lat="51.43696" lon="6.6442">
        <ele>82.040679</ele>
        <time>2023-06-26T10:24:59.236Z</time>
      </trkpt>
      <trkpt lat="51.43687" lon="6.64426">
        <ele>82.005505</ele>
        <time>2023-06-26T10:25:02.215Z</time>
      </trkpt>
      <trkpt lat="51.43678" lon="6.6443">
        <ele>81.968557</ele>
        <time>2023-06-26T10:25:05.247Z</time>
      </trkpt>
      <trkpt lat="51.43669" lon="6.64436">
        <ele>81.931806</ele>
        <time>2023-06-26T10:25:08.248Z</time>
      </trkpt>
      <trkpt lat="51.4366" lon="6.64443">
        <ele>81.893555</ele>
        <time>2023-06-26T10:25:11.231Z</time>
      </trkpt>
      <trkpt lat="51.4365" lon="6.64449">
        <ele>81.854515</ele>
        <time>2023-06-26T10:25:14.232Z</time>
      </trkpt>
      <trkpt lat="51.43641" lon="6.64455">
        <ele>81.815738</ele>
        <time>2023-06-26T10:25:17.236Z</time>
      </trkpt>
      <trkpt lat="51.43631" lon="6.64462">
        <ele>81.77679</ele>
        <time>2023-06-26T10:25:20.227Z</time>
      </trkpt>
      <trkpt lat="51.43622" lon="6.64468">
        <ele>81.740298</ele>
        <time>2023-06-26T10:25:23.213Z</time>
      </trkpt>
      <trkpt lat="51.43613" lon="6.64475">
        <ele>81.701124</ele>
        <time>2023-06-26T10:25:26.225Z</time>
      </trkpt>
      <trkpt lat="51.43603" lon="6.64481">
        <ele>81.661456</ele>
        <time>2023-06-26T10:25:29.231Z</time>
      </trkpt>
      <trkpt lat="51.43591" lon="6.64489">
        <ele>81.675415</ele>
        <time>2023-06-26T10:25:32.231Z</time>
      </trkpt>
      <trkpt lat="51.43579" lon="6.64496">
        <ele>81.696528</ele>
        <time>2023-06-26T10:25:35.231Z</time>
      </trkpt>
      <trkpt lat="51.43566" lon="6.64503">
        <ele>81.717608</ele>
        <time>2023-06-26T10:25:38.230Z</time>
      </trkpt>
      <trkpt lat="51.43554" lon="6.64511">
        <ele>81.738383</ele>
        <time>2023-06-26T10:25:41.232Z</time>
      </trkpt>
      <trkpt lat="51.43545" lon="6.64517">
        <ele>81.753967</ele>
        <time>2023-06-26T10:25:43.219Z</time>
      </trkpt>
      <trkpt lat="51.43536" lon="6.64524">
        <ele>81.770032</ele>
        <time>2023-06-26T10:25:45.235Z</time>
      </trkpt>
      <trkpt lat="51.43527" lon="6.6453">
        <ele>81.785763</ele>
        <time>2023-06-26T10:25:47.233Z</time>
      </trkpt>
      <trkpt lat="51.43518" lon="6.64537">
        <ele>81.802137</ele>
        <time>2023-06-26T10:25:49.219Z</time>
      </trkpt>
      <trkpt lat="51.43508" lon="6.64544">
        <ele>81.819304</ele>
        <time>2023-06-26T10:25:51.227Z</time>
      </trkpt>
      <trkpt lat="51.43499" lon="6.64551">
        <ele>81.83664</ele>
        <time>2023-06-26T10:25:53.217Z</time>
      </trkpt>
      <trkpt lat="51.43488" lon="6.64557">
        <ele>81.854611</ele>
        <time>2023-06-26T10:25:55.232Z</time>
      </trkpt>
      <trkpt lat="51.43478" lon="6.64565">
        <ele>81.87205</ele>
        <time>2023-06-26T10:25:57.244Z</time>
      </trkpt>
      <trkpt lat="51.43469" lon="6.64571">
        <ele>81.888264</ele>
        <time>2023-06-26T10:25:59.224Z</time>
      </trkpt>
      <trkpt lat="51.43459" lon="6.64577">
        <ele>81.905035</ele>
        <time>2023-06-26T10:26:01.227Z</time>
      </trkpt>
      <trkpt lat="51.4345" lon="6.64584">
        <ele>81.921919</ele>
        <time>2023-06-26T10:26:03.218Z</time>
      </trkpt>
      <trkpt lat="51.4344" lon="6.64591">
        <ele>81.938085</ele>
        <time>2023-06-26T10:26:05.238Z</time>
      </trkpt>
      <trkpt lat="51.43431" lon="6.64598">
        <ele>82.06011</ele>
        <time>2023-06-26T10:26:07.237Z</time>
      </trkpt>
      <trkpt lat="51.43423" lon="6.64606">
        <ele>82.259505</ele>
        <time>2023-06-26T10:26:09.237Z</time>
      </trkpt>
      <trkpt lat="51.43414" lon="6.64614">
        <ele>82.451249</ele>
        <time>2023-06-26T10:26:11.249Z</time>
      </trkpt>
      <trkpt lat="51.43402" lon="6.64622">
        <ele>82.712602</ele>
        <time>2023-06-26T10:26:14.226Z</time>
      </trkpt>
      <trkpt lat="51.43393" lon="6.6463">
        <ele>82.917319</ele>
        <time>2023-06-26T10:26:16.232Z</time>
      </trkpt>
      <trkpt lat="51.43384" lon="6.64635">
        <ele>83.118342</ele>
        <time>2023-06-26T10:26:18.218Z</time>
      </trkpt>
      <trkpt lat="51.43375" lon="6.64642">
        <ele>83.311368</ele>
        <time>2023-06-26T10:26:20.223Z</time>
      </trkpt>
      <trkpt lat="51.43366" lon="6.64647">
        <ele>83.496025</ele>
        <time>2023-06-26T10:26:22.224Z</time>
      </trkpt>
      <trkpt lat="51.43354" lon="6.64656">
        <ele>83.756096</ele>
        <time>2023-06-26T10:26:25.254Z</time>
      </trkpt>
      <trkpt lat="51.43346" lon="6.64663">
        <ele>83.936187</ele>
        <time>2023-06-26T10:26:27.246Z</time>
      </trkpt>
      <trkpt lat="51.43334" lon="6.64671">
        <ele>84.199536</ele>
        <time>2023-06-26T10:26:30.217Z</time>
      </trkpt>
      <trkpt lat="51.43323" lon="6.64679">
        <ele>84.445609</ele>
        <time>2023-06-26T10:26:33.223Z</time>
      </trkpt>
      <trkpt lat="51.43312" lon="6.64686">
        <ele>84.687662</ele>
        <time>2023-06-26T10:26:36.208Z</time>
      </trkpt>
      <trkpt lat="51.43303" lon="6.64691">
        <ele>84.870971</ele>
        <time>2023-06-26T10:26:38.230Z</time>
      </trkpt>
      <trkpt lat="51.43294" lon="6.64696">
        <ele>85.052998</ele>
        <time>2023-06-26T10:26:40.263Z</time>
      </trkpt>
      <trkpt lat="51.43286" lon="6.64702">
        <ele>85.23443</ele>
        <time>2023-06-26T10:26:42.244Z</time>
      </trkpt>
      <trkpt lat="51.43274" lon="6.6471">
        <ele>85.488046</ele>
        <time>2023-06-26T10:26:45.237Z</time>
      </trkpt>
      <trkpt lat="51.43262" lon="6.64716">
        <ele>85.443817</ele>
        <time>2023-06-26T10:26:48.233Z</time>
      </trkpt>
      <trkpt lat="51.4325" lon="6.64724">
        <ele>85.343977</ele>
        <time>2023-06-26T10:26:51.211Z</time>
      </trkpt>
      <trkpt lat="51.4324" lon="6.6473">
        <ele>85.249608</ele>
        <time>2023-06-26T10:26:54.212Z</time>
      </trkpt>
      <trkpt lat="51.43228" lon="6.64737">
        <ele>85.14873</ele>
        <time>2023-06-26T10:26:57.215Z</time>
      </trkpt>
      <trkpt lat="51.43219" lon="6.64743">
        <ele>85.067932</ele>
        <time>2023-06-26T10:27:00.218Z</time>
      </trkpt>
      <trkpt lat="51.4321" lon="6.64754">
        <ele>84.97656</ele>
        <time>2023-06-26T10:27:04.231Z</time>
      </trkpt>
      <trkpt lat="51.432" lon="6.64758">
        <ele>84.89497</ele>
        <time>2023-06-26T10:27:07.250Z</time>
      </trkpt>
      <trkpt lat="51.43188" lon="6.64764">
        <ele>84.79272</ele>
        <time>2023-06-26T10:27:10.234Z</time>
      </trkpt>
      <trkpt lat="51.43176" lon="6.64766">
        <ele>84.691495</ele>
        <time>2023-06-26T10:27:13.224Z</time>
      </trkpt>
      <trkpt lat="51.43163" lon="6.64765">
        <ele>84.588858</ele>
        <time>2023-06-26T10:27:16.213Z</time>
      </trkpt>
      <trkpt lat="51.43154" lon="6.64768">
        <ele>84.515089</ele>
        <time>2023-06-26T10:27:19.227Z</time>
      </trkpt>
      <trkpt lat="51.43148" lon="6.64779">
        <ele>84.436159</ele>
        <time>2023-06-26T10:27:22.215Z</time>
      </trkpt>
      <trkpt lat="51.43139" lon="6.64785">
        <ele>84.355757</ele>
        <time>2023-06-26T10:27:25.223Z</time>
      </trkpt>
      <trkpt lat="51.43128" lon="6.64791">
        <ele>84.262625</ele>
        <time>2023-06-26T10:27:28.230Z</time>
      </trkpt>
      <trkpt lat="51.43119" lon="6.64801">
        <ele>84.173485</ele>
        <time>2023-06-26T10:27:31.228Z</time>
      </trkpt>
      <trkpt lat="51.43109" lon="6.64809">
        <ele>84.084757</ele>
        <time>2023-06-26T10:27:34.217Z</time>
      </trkpt>
      <trkpt lat="51.43098" lon="6.64814">
        <ele>83.94398</ele>
        <time>2023-06-26T10:27:37.240Z</time>
      </trkpt>
      <trkpt lat="51.43086" lon="6.64821">
        <ele>83.784367</ele>
        <time>2023-06-26T10:27:40.235Z</time>
      </trkpt>
      <trkpt lat="51.43078" lon="6.64827">
        <ele>83.6668</ele>
        <time>2023-06-26T10:27:42.248Z</time>
      </trkpt>
      <trkpt lat="51.43069" lon="6.64834">
        <ele>83.537147</ele>
        <time>2023-06-26T10:27:44.228Z</time>
      </trkpt>
      <trkpt lat="51.43061" lon="6.64842">
        <ele>83.415458</ele>
        <time>2023-06-26T10:27:46.248Z</time>
      </trkpt>
      <trkpt lat="51.43051" lon="6.64848">
        <ele>83.288356</ele>
        <time>2023-06-26T10:27:48.243Z</time>
      </trkpt>
      <trkpt lat="51.43042" lon="6.64855">
        <ele>83.155792</ele>
        <time>2023-06-26T10:27:50.225Z</time>
      </trkpt>
      <trkpt lat="51.43033" lon="6.64861">
        <ele>83.0227</ele>
        <time>2023-06-26T10:27:52.219Z</time>
      </trkpt>
      <trkpt lat="51.43024" lon="6.64868">
        <ele>82.896777</ele>
        <time>2023-06-26T10:27:54.242Z</time>
      </trkpt>
      <trkpt lat="51.43015" lon="6.64873">
        <ele>82.773375</ele>
        <time>2023-06-26T10:27:56.224Z</time>
      </trkpt>
      <trkpt lat="51.43006" lon="6.64879">
        <ele>82.650134</ele>
        <time>2023-06-26T10:27:58.224Z</time>
      </trkpt>
      <trkpt lat="51.42997" lon="6.64885">
        <ele>82.531068</ele>
        <time>2023-06-26T10:28:00.229Z</time>
      </trkpt>
      <trkpt lat="51.42988" lon="6.64891">
        <ele>82.402469</ele>
        <time>2023-06-26T10:28:02.227Z</time>
      </trkpt>
      <trkpt lat="51.42979" lon="6.64897">
        <ele>82.27801</ele>
        <time>2023-06-26T10:28:04.229Z</time>
      </trkpt>
      <trkpt lat="51.4297" lon="6.64903">
        <ele>82.150931</ele>
        <time>2023-06-26T10:28:06.239Z</time>
      </trkpt>
      <trkpt lat="51.42961" lon="6.64909">
        <ele>82.020834</ele>
        <time>2023-06-26T10:28:08.242Z</time>
      </trkpt>
      <trkpt lat="51.42951" lon="6.64915">
        <ele>81.891597</ele>
        <time>2023-06-26T10:28:10.222Z</time>
      </trkpt>
      <trkpt lat="51.42942" lon="6.64921">
        <ele>81.766301</ele>
        <time>2023-06-26T10:28:12.226Z</time>
      </trkpt>
      <trkpt lat="51.42933" lon="6.64927">
        <ele>81.855406</ele>
        <time>2023-06-26T10:28:14.232Z</time>
      </trkpt>
      <trkpt lat="51.42924" lon="6.64934">
        <ele>81.962766</ele>
        <time>2023-06-26T10:28:16.235Z</time>
      </trkpt>
      <trkpt lat="51.42915" lon="6.6494">
        <ele>82.073551</ele>
        <time>2023-06-26T10:28:18.236Z</time>
      </trkpt>
      <trkpt lat="51.42906" lon="6.64947">
        <ele>82.182075</ele>
        <time>2023-06-26T10:28:20.224Z</time>
      </trkpt>
      <trkpt lat="51.42897" lon="6.64952">
        <ele>82.284288</ele>
        <time>2023-06-26T10:28:22.243Z</time>
      </trkpt>
      <trkpt lat="51.42888" lon="6.64957">
        <ele>82.386971</ele>
        <time>2023-06-26T10:28:24.229Z</time>
      </trkpt>
      <trkpt lat="51.42879" lon="6.64964">
        <ele>82.493063</ele>
        <time>2023-06-26T10:28:26.242Z</time>
      </trkpt>
      <trkpt lat="51.42871" lon="6.64969">
        <ele>82.593542</ele>
        <time>2023-06-26T10:28:28.206Z</time>
      </trkpt>
      <trkpt lat="51.42857" lon="6.64975">
        <ele>82.746211</ele>
        <time>2023-06-26T10:28:31.228Z</time>
      </trkpt>
      <trkpt lat="51.42845" lon="6.64983">
        <ele>82.883155</ele>
        <time>2023-06-26T10:28:34.239Z</time>
      </trkpt>
      <trkpt lat="51.42835" lon="6.64994">
        <ele>83.017778</ele>
        <time>2023-06-26T10:28:37.238Z</time>
      </trkpt>
      <trkpt lat="51.42827" lon="6.65003">
        <ele>83.12647</ele>
        <time>2023-06-26T10:28:39.222Z</time>
      </trkpt>
      <trkpt lat="51.42818" lon="6.6501">
        <ele>83.234817</ele>
        <time>2023-06-26T10:28:41.223Z</time>
      </trkpt>
      <trkpt lat="51.42809" lon="6.65014">
        <ele>83.333828</ele>
        <time>2023-06-26T10:28:43.219Z</time>
      </trkpt>
      <trkpt lat="51.42797" lon="6.65023">
        <ele>83.480599</ele>
        <time>2023-06-26T10:28:46.212Z</time>
      </trkpt>
      <trkpt lat="51.42788" lon="6.65028">
        <ele>83.584565</ele>
        <time>2023-06-26T10:28:48.233Z</time>
      </trkpt>
      <trkpt lat="51.42779" lon="6.65033">
        <ele>83.685803</ele>
        <time>2023-06-26T10:28:50.236Z</time>
      </trkpt>
      <trkpt lat="51.4277" lon="6.65038">
        <ele>83.701544</ele>
        <time>2023-06-26T10:28:52.248Z</time>
      </trkpt>
      <trkpt lat="51.42758" lon="6.65046">
        <ele>83.688535</ele>
        <time>2023-06-26T10:28:55.235Z</time>
      </trkpt>
      <trkpt lat="51.4275" lon="6.65053">
        <ele>83.678943</ele>
        <time>2023-06-26T10:28:57.227Z</time>
      </trkpt>
      <trkpt lat="51.4274" lon="6.65061">
        <ele>83.667926</ele>
        <time>2023-06-26T10:28:59.223Z</time>
      </trkpt>
      <trkpt lat="51.42731" lon="6.65068">
        <ele>83.657838</ele>
        <time>2023-06-26T10:29:01.240Z</time>
      </trkpt>
      <trkpt lat="51.42719" lon="6.65075">
        <ele>83.644634</ele>
        <time>2023-06-26T10:29:04.233Z</time>
      </trkpt>
      <trkpt lat="51.4271" lon="6.65079">
        <ele>83.635323</ele>
        <time>2023-06-26T10:29:06.218Z</time>
      </trkpt>
      <trkpt lat="51.42701" lon="6.65085">
        <ele>83.626153</ele>
        <time>2023-06-26T10:29:08.227Z</time>
      </trkpt>
      <trkpt lat="51.42693" lon="6.6509">
        <ele>83.617081</ele>
        <time>2023-06-26T10:29:10.223Z</time>
      </trkpt>
      <trkpt lat="51.42684" lon="6.65097">
        <ele>83.607032</ele>
        <time>2023-06-26T10:29:12.228Z</time>
      </trkpt>
      <trkpt lat="51.42675" lon="6.65104">
        <ele>83.596983</ele>
        <time>2023-06-26T10:29:14.220Z</time>
      </trkpt>
      <trkpt lat="51.42665" lon="6.6511">
        <ele>83.58641</ele>
        <time>2023-06-26T10:29:16.226Z</time>
      </trkpt>
      <trkpt lat="51.42656" lon="6.65116">
        <ele>83.576414</ele>
        <time>2023-06-26T10:29:18.218Z</time>
      </trkpt>
      <trkpt lat="51.42647" lon="6.65123">
        <ele>83.565864</ele>
        <time>2023-06-26T10:29:20.242Z</time>
      </trkpt>
      <trkpt lat="51.42638" lon="6.65128">
        <ele>83.556158</ele>
        <time>2023-06-26T10:29:22.234Z</time>
      </trkpt>
      <trkpt lat="51.42628" lon="6.65133">
        <ele>83.546366</ele>
        <time>2023-06-26T10:29:24.220Z</time>
      </trkpt>
      <trkpt lat="51.42617" lon="6.65142">
        <ele>83.533329</ele>
        <time>2023-06-26T10:29:27.252Z</time>
      </trkpt>
      <trkpt lat="51.42609" lon="6.65148">
        <ele>83.538672</ele>
        <time>2023-06-26T10:29:29.229Z</time>
      </trkpt>
      <trkpt lat="51.42599" lon="6.65154">
        <ele>83.576022</ele>
        <time>2023-06-26T10:29:31.240Z</time>
      </trkpt>
      <trkpt lat="51.4259" lon="6.65159">
        <ele>83.612852</ele>
        <time>2023-06-26T10:29:33.234Z</time>
      </trkpt>
      <trkpt lat="51.42581" lon="6.65164">
        <ele>83.649043</ele>
        <time>2023-06-26T10:29:35.231Z</time>
      </trkpt>
      <trkpt lat="51.4257" lon="6.65173">
        <ele>83.699414</ele>
        <time>2023-06-26T10:29:38.236Z</time>
      </trkpt>
      <trkpt lat="51.4256" lon="6.65179">
        <ele>83.738339</ele>
        <time>2023-06-26T10:29:41.228Z</time>
      </trkpt>
      <trkpt lat="51.42549" lon="6.65188">
        <ele>83.784543</ele>
        <time>2023-06-26T10:29:44.228Z</time>
      </trkpt>
      <trkpt lat="51.42539" lon="6.65195">
        <ele>83.827169</ele>
        <time>2023-06-26T10:29:47.234Z</time>
      </trkpt>
      <trkpt lat="51.42531" lon="6.65201">
        <ele>83.862557</ele>
        <time>2023-06-26T10:29:50.225Z</time>
      </trkpt>
      <trkpt lat="51.42521" lon="6.65207">
        <ele>83.901996</ele>
        <time>2023-06-26T10:29:54.224Z</time>
      </trkpt>
      <trkpt lat="51.42511" lon="6.65213">
        <ele>83.943148</ele>
        <time>2023-06-26T10:29:59.221Z</time>
      </trkpt>
      <trkpt lat="51.42502" lon="6.65217">
        <ele>83.977711</ele>
        <time>2023-06-26T10:30:04.227Z</time>
      </trkpt>
      <trkpt lat="51.42493" lon="6.6522">
        <ele>84.012508</ele>
        <time>2023-06-26T10:30:09.230Z</time>
      </trkpt>
      <trkpt lat="51.42481" lon="6.65232">
        <ele>84.068468</ele>
        <time>2023-06-26T10:30:54.218Z</time>
      </trkpt>
      <trkpt lat="51.42471" lon="6.6524">
        <ele>84.111486</ele>
        <time>2023-06-26T10:30:59.231Z</time>
      </trkpt>
      <trkpt lat="51.42461" lon="6.65247">
        <ele>84.150091</ele>
        <time>2023-06-26T10:31:02.245Z</time>
      </trkpt>
      <trkpt lat="51.42452" lon="6.65254">
        <ele>84.191276</ele>
        <time>2023-06-26T10:31:05.242Z</time>
      </trkpt>
      <trkpt lat="51.42441" lon="6.65262">
        <ele>84.219288</ele>
        <time>2023-06-26T10:31:08.244Z</time>
      </trkpt>
      <trkpt lat="51.42428" lon="6.65269">
        <ele>84.230012</ele>
        <time>2023-06-26T10:31:11.239Z</time>
      </trkpt>
      <trkpt lat="51.42416" lon="6.65277">
        <ele>84.240582</ele>
        <time>2023-06-26T10:31:14.223Z</time>
      </trkpt>
      <trkpt lat="51.42408" lon="6.65283">
        <ele>84.24818</ele>
        <time>2023-06-26T10:31:16.242Z</time>
      </trkpt>
      <trkpt lat="51.42395" lon="6.65292">
        <ele>84.25933</ele>
        <time>2023-06-26T10:31:19.246Z</time>
      </trkpt>
      <trkpt lat="51.42386" lon="6.65297">
        <ele>84.267253</ele>
        <time>2023-06-26T10:31:21.239Z</time>
      </trkpt>
      <trkpt lat="51.42378" lon="6.65303">
        <ele>84.274779</ele>
        <time>2023-06-26T10:31:23.226Z</time>
      </trkpt>
      <trkpt lat="51.42368" lon="6.65309">
        <ele>84.283254</ele>
        <time>2023-06-26T10:31:25.231Z</time>
      </trkpt>
      <trkpt lat="51.42359" lon="6.65314">
        <ele>84.291431</ele>
        <time>2023-06-26T10:31:27.228Z</time>
      </trkpt>
      <trkpt lat="51.4235" lon="6.65319">
        <ele>84.298982</ele>
        <time>2023-06-26T10:31:29.234Z</time>
      </trkpt>
      <trkpt lat="51.42341" lon="6.65325">
        <ele>84.307125</ele>
        <time>2023-06-26T10:31:31.245Z</time>
      </trkpt>
      <trkpt lat="51.42333" lon="6.65332">
        <ele>84.314655</ele>
        <time>2023-06-26T10:31:33.238Z</time>
      </trkpt>
      <trkpt lat="51.42324" lon="6.65337">
        <ele>84.322345</ele>
        <time>2023-06-26T10:31:35.219Z</time>
      </trkpt>
      <trkpt lat="51.42315" lon="6.65343">
        <ele>84.330344</ele>
        <time>2023-06-26T10:31:37.230Z</time>
      </trkpt>
      <trkpt lat="51.42306" lon="6.6535">
        <ele>84.338934</ele>
        <time>2023-06-26T10:31:39.231Z</time>
      </trkpt>
      <trkpt lat="51.42296" lon="6.65357">
        <ele>84.347582</ele>
        <time>2023-06-26T10:31:41.254Z</time>
      </trkpt>
      <trkpt lat="51.42286" lon="6.65364">
        <ele>84.356749</ele>
        <time>2023-06-26T10:31:43.239Z</time>
      </trkpt>
      <trkpt lat="51.42276" lon="6.65373">
        <ele>84.236501</ele>
        <time>2023-06-26T10:31:45.231Z</time>
      </trkpt>
      <trkpt lat="51.42265" lon="6.65379">
        <ele>83.964662</ele>
        <time>2023-06-26T10:31:47.255Z</time>
      </trkpt>
      <trkpt lat="51.42254" lon="6.65385">
        <ele>83.680702</ele>
        <time>2023-06-26T10:31:49.230Z</time>
      </trkpt>
      <trkpt lat="51.42242" lon="6.65393">
        <ele>83.376127</ele>
        <time>2023-06-26T10:31:51.239Z</time>
      </trkpt>
      <trkpt lat="51.42232" lon="6.654">
        <ele>83.105402</ele>
        <time>2023-06-26T10:31:53.218Z</time>
      </trkpt>
      <trkpt lat="51.42221" lon="6.65408">
        <ele>82.82096</ele>
        <time>2023-06-26T10:31:55.226Z</time>
      </trkpt>
      <trkpt lat="51.4221" lon="6.65414">
        <ele>82.528658</ele>
        <time>2023-06-26T10:31:57.243Z</time>
      </trkpt>
      <trkpt lat="51.42199" lon="6.65423">
        <ele>82.233331</ele>
        <time>2023-06-26T10:31:59.253Z</time>
      </trkpt>
      <trkpt lat="51.42188" lon="6.65431">
        <ele>81.941836</ele>
        <time>2023-06-26T10:32:01.253Z</time>
      </trkpt>
      <trkpt lat="51.42176" lon="6.65439">
        <ele>81.630612</ele>
        <time>2023-06-26T10:32:03.230Z</time>
      </trkpt>
      <trkpt lat="51.42164" lon="6.65445">
        <ele>81.329156</ele>
        <time>2023-06-26T10:32:05.244Z</time>
      </trkpt>
      <trkpt lat="51.42153" lon="6.65452">
        <ele>81.029992</ele>
        <time>2023-06-26T10:32:07.231Z</time>
      </trkpt>
      <trkpt lat="51.4214" lon="6.65458">
        <ele>80.711907</ele>
        <time>2023-06-26T10:32:09.243Z</time>
      </trkpt>
      <trkpt lat="51.42128" lon="6.65464">
        <ele>80.399883</ele>
        <time>2023-06-26T10:32:11.231Z</time>
      </trkpt>
      <trkpt lat="51.42116" lon="6.6547">
        <ele>80.103517</ele>
        <time>2023-06-26T10:32:13.247Z</time>
      </trkpt>
      <trkpt lat="51.42107" lon="6.65475">
        <ele>79.949132</ele>
        <time>2023-06-26T10:32:15.227Z</time>
      </trkpt>
      <trkpt lat="51.42097" lon="6.65483">
        <ele>79.831769</ele>
        <time>2023-06-26T10:32:18.231Z</time>
      </trkpt>
      <trkpt lat="51.42085" lon="6.65488">
        <ele>79.7065</ele>
        <time>2023-06-26T10:32:21.236Z</time>
      </trkpt>
      <trkpt lat="51.42077" lon="6.65499">
        <ele>79.596679</ele>
        <time>2023-06-26T10:32:24.232Z</time>
      </trkpt>
      <trkpt lat="51.42065" lon="6.65504">
        <ele>79.464894</ele>
        <time>2023-06-26T10:32:27.231Z</time>
      </trkpt>
      <trkpt lat="51.42053" lon="6.6551">
        <ele>79.334538</ele>
        <time>2023-06-26T10:32:30.229Z</time>
      </trkpt>
      <trkpt lat="51.42044" lon="6.65515">
        <ele>79.240979</ele>
        <time>2023-06-26T10:32:32.241Z</time>
      </trkpt>
      <trkpt lat="51.42035" lon="6.65524">
        <ele>79.123366</ele>
        <time>2023-06-26T10:32:35.223Z</time>
      </trkpt>
      <trkpt lat="51.42023" lon="6.65534">
        <ele>78.990856</ele>
        <time>2023-06-26T10:32:38.210Z</time>
      </trkpt>
      <trkpt lat="51.42015" lon="6.65541">
        <ele>78.892238</ele>
        <time>2023-06-26T10:32:40.216Z</time>
      </trkpt>
      <trkpt lat="51.42006" lon="6.65548">
        <ele>78.792998</ele>
        <time>2023-06-26T10:32:42.228Z</time>
      </trkpt>
      <trkpt lat="51.41998" lon="6.65554">
        <ele>78.698928</ele>
        <time>2023-06-26T10:32:44.235Z</time>
      </trkpt>
      <trkpt lat="51.4199" lon="6.6556">
        <ele>78.601564</ele>
        <time>2023-06-26T10:32:46.233Z</time>
      </trkpt>
      <trkpt lat="51.4198" lon="6.65565">
        <ele>78.499816</ele>
        <time>2023-06-26T10:32:48.228Z</time>
      </trkpt>
      <trkpt lat="51.41971" lon="6.6557">
        <ele>78.397932</ele>
        <time>2023-06-26T10:32:50.231Z</time>
      </trkpt>
      <trkpt lat="51.41962" lon="6.65574">
        <ele>78.295052</ele>
        <time>2023-06-26T10:32:52.223Z</time>
      </trkpt>
      <trkpt lat="51.41951" lon="6.65577">
        <ele>78.184396</ele>
        <time>2023-06-26T10:32:54.215Z</time>
      </trkpt>
      <trkpt lat="51.41941" lon="6.65576">
        <ele>78.099315</ele>
        <time>2023-06-26T10:32:56.223Z</time>
      </trkpt>
      <trkpt lat="51.4193" lon="6.65568">
        <ele>78.010087</ele>
        <time>2023-06-26T10:32:59.219Z</time>
      </trkpt>
      <trkpt lat="51.41918" lon="6.65566">
        <ele>77.929787</ele>
        <time>2023-06-26T10:33:02.224Z</time>
      </trkpt>
      <trkpt lat="51.41913" lon="6.65583">
        <ele>77.848888</ele>
        <time>2023-06-26T10:33:05.236Z</time>
      </trkpt>
      <trkpt lat="51.4191" lon="6.65602">
        <ele>77.758965</ele>
        <time>2023-06-26T10:33:08.232Z</time>
      </trkpt>
      <trkpt lat="51.41902" lon="6.65618">
        <ele>77.667185</ele>
        <time>2023-06-26T10:33:11.215Z</time>
      </trkpt>
      <trkpt lat="51.41894" lon="6.65625">
        <ele>77.601414</ele>
        <time>2023-06-26T10:33:13.213Z</time>
      </trkpt>
      <trkpt lat="51.41884" lon="6.65631">
        <ele>77.527505</ele>
        <time>2023-06-26T10:33:15.234Z</time>
      </trkpt>
      <trkpt lat="51.41875" lon="6.65637">
        <ele>77.455087</ele>
        <time>2023-06-26T10:33:17.226Z</time>
      </trkpt>
      <trkpt lat="51.41865" lon="6.65643">
        <ele>77.383663</ele>
        <time>2023-06-26T10:33:19.242Z</time>
      </trkpt>
      <trkpt lat="51.41855" lon="6.65649">
        <ele>77.306744</ele>
        <time>2023-06-26T10:33:21.227Z</time>
      </trkpt>
      <trkpt lat="51.41845" lon="6.65655">
        <ele>77.2311</ele>
        <time>2023-06-26T10:33:23.206Z</time>
      </trkpt>
      <trkpt lat="51.41835" lon="6.6566">
        <ele>77.155158</ele>
        <time>2023-06-26T10:33:25.231Z</time>
      </trkpt>
      <trkpt lat="51.41825" lon="6.65667">
        <ele>77.077101</ele>
        <time>2023-06-26T10:33:27.211Z</time>
      </trkpt>
      <trkpt lat="51.41815" lon="6.65674">
        <ele>76.995722</ele>
        <time>2023-06-26T10:33:29.238Z</time>
      </trkpt>
      <trkpt lat="51.41805" lon="6.65683">
        <ele>76.911927</ele>
        <time>2023-06-26T10:33:31.229Z</time>
      </trkpt>
      <trkpt lat="51.41794" lon="6.65689">
        <ele>76.86972</ele>
        <time>2023-06-26T10:33:33.224Z</time>
      </trkpt>
      <trkpt lat="51.41784" lon="6.65696">
        <ele>76.914074</ele>
        <time>2023-06-26T10:33:35.230Z</time>
      </trkpt>
      <trkpt lat="51.41773" lon="6.65704">
        <ele>76.959788</ele>
        <time>2023-06-26T10:33:37.200Z</time>
      </trkpt>
      <trkpt lat="51.41763" lon="6.65711">
        <ele>77.004867</ele>
        <time>2023-06-26T10:33:39.238Z</time>
      </trkpt>
      <trkpt lat="51.41752" lon="6.65717">
        <ele>77.048672</ele>
        <time>2023-06-26T10:33:41.232Z</time>
      </trkpt>
      <trkpt lat="51.41742" lon="6.65725">
        <ele>77.092137</ele>
        <time>2023-06-26T10:33:43.240Z</time>
      </trkpt>
      <trkpt lat="51.41732" lon="6.65731">
        <ele>77.133291</ele>
        <time>2023-06-26T10:33:45.233Z</time>
      </trkpt>
      <trkpt lat="51.41722" lon="6.65737">
        <ele>77.176187</ele>
        <time>2023-06-26T10:33:47.220Z</time>
      </trkpt>
      <trkpt lat="51.41713" lon="6.65744">
        <ele>77.214955</ele>
        <time>2023-06-26T10:33:49.234Z</time>
      </trkpt>
      <trkpt lat="51.41704" lon="6.65749">
        <ele>77.253565</ele>
        <time>2023-06-26T10:33:51.241Z</time>
      </trkpt>
      <trkpt lat="51.41694" lon="6.65756">
        <ele>77.294449</ele>
        <time>2023-06-26T10:33:53.216Z</time>
      </trkpt>
      <trkpt lat="51.41685" lon="6.65762">
        <ele>77.334055</ele>
        <time>2023-06-26T10:33:55.226Z</time>
      </trkpt>
      <trkpt lat="51.41676" lon="6.65768">
        <ele>77.373394</ele>
        <time>2023-06-26T10:33:57.229Z</time>
      </trkpt>
      <trkpt lat="51.41667" lon="6.65774">
        <ele>77.413</ele>
        <time>2023-06-26T10:33:59.228Z</time>
      </trkpt>
      <trkpt lat="51.41657" lon="6.65781">
        <ele>77.455241</ele>
        <time>2023-06-26T10:34:01.237Z</time>
      </trkpt>
      <trkpt lat="51.41647" lon="6.65789">
        <ele>77.499725</ele>
        <time>2023-06-26T10:34:03.225Z</time>
      </trkpt>
      <trkpt lat="51.41636" lon="6.65795">
        <ele>77.543477</ele>
        <time>2023-06-26T10:34:05.226Z</time>
      </trkpt>
      <trkpt lat="51.41626" lon="6.65802">
        <ele>77.555441</ele>
        <time>2023-06-26T10:34:07.234Z</time>
      </trkpt>
      <trkpt lat="51.41617" lon="6.65809">
        <ele>77.539337</ele>
        <time>2023-06-26T10:34:09.234Z</time>
      </trkpt>
      <trkpt lat="51.41607" lon="6.65815">
        <ele>77.523265</ele>
        <time>2023-06-26T10:34:11.229Z</time>
      </trkpt>
      <trkpt lat="51.41598" lon="6.65822">
        <ele>77.507063</ele>
        <time>2023-06-26T10:34:13.211Z</time>
      </trkpt>
      <trkpt lat="51.41589" lon="6.65829">
        <ele>77.49174</ele>
        <time>2023-06-26T10:34:15.242Z</time>
      </trkpt>
      <trkpt lat="51.4158" lon="6.65835">
        <ele>77.476681</ele>
        <time>2023-06-26T10:34:17.219Z</time>
      </trkpt>
      <trkpt lat="51.4157" lon="6.65842">
        <ele>77.460818</ele>
        <time>2023-06-26T10:34:19.223Z</time>
      </trkpt>
      <trkpt lat="51.4156" lon="6.65846">
        <ele>77.444736</ele>
        <time>2023-06-26T10:34:21.210Z</time>
      </trkpt>
      <trkpt lat="51.4155" lon="6.65853">
        <ele>77.427769</ele>
        <time>2023-06-26T10:34:23.227Z</time>
      </trkpt>
      <trkpt lat="51.4154" lon="6.6586">
        <ele>77.410443</ele>
        <time>2023-06-26T10:34:25.224Z</time>
      </trkpt>
      <trkpt lat="51.4153" lon="6.65866">
        <ele>77.394116</ele>
        <time>2023-06-26T10:34:27.227Z</time>
      </trkpt>
      <trkpt lat="51.4152" lon="6.65873">
        <ele>77.377505</ele>
        <time>2023-06-26T10:34:29.246Z</time>
      </trkpt>
      <trkpt lat="51.4151" lon="6.6588">
        <ele>77.360071</ele>
        <time>2023-06-26T10:34:31.240Z</time>
      </trkpt>
      <trkpt lat="51.41499" lon="6.65886">
        <ele>77.34303</ele>
        <time>2023-06-26T10:34:33.226Z</time>
      </trkpt>
      <trkpt lat="51.41489" lon="6.65892">
        <ele>77.32583</ele>
        <time>2023-06-26T10:34:35.223Z</time>
      </trkpt>
      <trkpt lat="51.41479" lon="6.65898">
        <ele>77.308719</ele>
        <time>2023-06-26T10:34:37.230Z</time>
      </trkpt>
      <trkpt lat="51.41469" lon="6.65906">
        <ele>77.292434</ele>
        <time>2023-06-26T10:34:39.235Z</time>
      </trkpt>
      <trkpt lat="51.41459" lon="6.65913">
        <ele>77.247857</ele>
        <time>2023-06-26T10:34:41.248Z</time>
      </trkpt>
      <trkpt lat="51.41449" lon="6.65919">
        <ele>77.186712</ele>
        <time>2023-06-26T10:34:43.227Z</time>
      </trkpt>
      <trkpt lat="51.41438" lon="6.65925">
        <ele>77.124018</ele>
        <time>2023-06-26T10:34:45.237Z</time>
      </trkpt>
      <trkpt lat="51.41428" lon="6.65932">
        <ele>77.063021</ele>
        <time>2023-06-26T10:34:47.244Z</time>
      </trkpt>
      <trkpt lat="51.41418" lon="6.65939">
        <ele>76.998225</ele>
        <time>2023-06-26T10:34:49.245Z</time>
      </trkpt>
      <trkpt lat="51.41408" lon="6.65946">
        <ele>76.936655</ele>
        <time>2023-06-26T10:34:51.217Z</time>
      </trkpt>
      <trkpt lat="51.41398" lon="6.65952">
        <ele>76.878221</ele>
        <time>2023-06-26T10:34:53.232Z</time>
      </trkpt>
      <trkpt lat="51.41388" lon="6.65957">
        <ele>76.81864</ele>
        <time>2023-06-26T10:34:55.223Z</time>
      </trkpt>
      <trkpt lat="51.41378" lon="6.65963">
        <ele>76.760379</ele>
        <time>2023-06-26T10:34:57.228Z</time>
      </trkpt>
      <trkpt lat="51.41369" lon="6.65969">
        <ele>76.702379</ele>
        <time>2023-06-26T10:34:59.246Z</time>
      </trkpt>
      <trkpt lat="51.4136" lon="6.65976">
        <ele>76.647005</ele>
        <time>2023-06-26T10:35:01.238Z</time>
      </trkpt>
      <trkpt lat="51.41351" lon="6.65982">
        <ele>76.591987</ele>
        <time>2023-06-26T10:35:03.215Z</time>
      </trkpt>
      <trkpt lat="51.41341" lon="6.65989">
        <ele>76.53242</ele>
        <time>2023-06-26T10:35:05.235Z</time>
      </trkpt>
      <trkpt lat="51.41331" lon="6.65994">
        <ele>76.473798</ele>
        <time>2023-06-26T10:35:07.225Z</time>
      </trkpt>
      <trkpt lat="51.41322" lon="6.66">
        <ele>76.418796</ele>
        <time>2023-06-26T10:35:09.243Z</time>
      </trkpt>
      <trkpt lat="51.41312" lon="6.66008">
        <ele>76.35753</ele>
        <time>2023-06-26T10:35:11.234Z</time>
      </trkpt>
      <trkpt lat="51.41302" lon="6.66015">
        <ele>76.298068</ele>
        <time>2023-06-26T10:35:13.228Z</time>
      </trkpt>
      <trkpt lat="51.41292" lon="6.66022">
        <ele>76.314765</ele>
        <time>2023-06-26T10:35:15.236Z</time>
      </trkpt>
      <trkpt lat="51.41283" lon="6.66029">
        <ele>76.374484</ele>
        <time>2023-06-26T10:35:17.227Z</time>
      </trkpt>
      <trkpt lat="51.41274" lon="6.66035">
        <ele>76.431707</ele>
        <time>2023-06-26T10:35:19.236Z</time>
      </trkpt>
      <trkpt lat="51.41264" lon="6.66042">
        <ele>76.490882</ele>
        <time>2023-06-26T10:35:21.227Z</time>
      </trkpt>
      <trkpt lat="51.41255" lon="6.66048">
        <ele>76.548106</ele>
        <time>2023-06-26T10:35:23.220Z</time>
      </trkpt>
      <trkpt lat="51.41245" lon="6.66054">
        <ele>76.605849</ele>
        <time>2023-06-26T10:35:25.229Z</time>
      </trkpt>
      <trkpt lat="51.41236" lon="6.6606">
        <ele>76.660564</ele>
        <time>2023-06-26T10:35:27.249Z</time>
      </trkpt>
      <trkpt lat="51.41227" lon="6.66067">
        <ele>76.718587</ele>
        <time>2023-06-26T10:35:29.237Z</time>
      </trkpt>
      <trkpt lat="51.41218" lon="6.66073">
        <ele>76.774545</ele>
        <time>2023-06-26T10:35:31.208Z</time>
      </trkpt>
      <trkpt lat="51.41208" lon="6.66079">
        <ele>76.831536</ele>
        <time>2023-06-26T10:35:33.228Z</time>
      </trkpt>
      <trkpt lat="51.41199" lon="6.66084">
        <ele>76.88616</ele>
        <time>2023-06-26T10:35:35.255Z</time>
      </trkpt>
      <trkpt lat="51.4119" lon="6.6609">
        <ele>76.940615</ele>
        <time>2023-06-26T10:35:37.232Z</time>
      </trkpt>
      <trkpt lat="51.41182" lon="6.66095">
        <ele>76.994148</ele>
        <time>2023-06-26T10:35:39.216Z</time>
      </trkpt>
      <trkpt lat="51.41172" lon="6.66102">
        <ele>77.050576</ele>
        <time>2023-06-26T10:35:41.242Z</time>
      </trkpt>
      <trkpt lat="51.41163" lon="6.66108">
        <ele>77.106905</ele>
        <time>2023-06-26T10:35:43.239Z</time>
      </trkpt>
      <trkpt lat="51.41154" lon="6.66114">
        <ele>77.163605</ele>
        <time>2023-06-26T10:35:45.229Z</time>
      </trkpt>
      <trkpt lat="51.41145" lon="6.66119">
        <ele>77.216812</ele>
        <time>2023-06-26T10:35:47.230Z</time>
      </trkpt>
      <trkpt lat="51.41136" lon="6.66124">
        <ele>77.271319</ele>
        <time>2023-06-26T10:35:49.223Z</time>
      </trkpt>
      <trkpt lat="51.41126" lon="6.66128">
        <ele>77.298022</ele>
        <time>2023-06-26T10:35:51.235Z</time>
      </trkpt>
      <trkpt lat="51.41116" lon="6.66133">
        <ele>77.306962</ele>
        <time>2023-06-26T10:35:53.234Z</time>
      </trkpt>
      <trkpt lat="51.41106" lon="6.66138">
        <ele>77.316105</ele>
        <time>2023-06-26T10:35:55.244Z</time>
      </trkpt>
      <trkpt lat="51.41096" lon="6.66142">
        <ele>77.324948</ele>
        <time>2023-06-26T10:35:57.236Z</time>
      </trkpt>
      <trkpt lat="51.41087" lon="6.66146">
        <ele>77.33348</ele>
        <time>2023-06-26T10:35:59.230Z</time>
      </trkpt>
      <trkpt lat="51.41075" lon="6.66145">
        <ele>77.34341</ele>
        <time>2023-06-26T10:36:02.226Z</time>
      </trkpt>
      <trkpt lat="51.41055" lon="6.66145">
        <ele>77.360584</ele>
        <time>2023-06-26T10:36:40.216Z</time>
      </trkpt>
      <trkpt lat="51.41045" lon="6.66151">
        <ele>77.369778</ele>
        <time>2023-06-26T10:36:43.232Z</time>
      </trkpt>
      <trkpt lat="51.41037" lon="6.66155">
        <ele>77.377653</ele>
        <time>2023-06-26T10:36:45.223Z</time>
      </trkpt>
      <trkpt lat="51.41024" lon="6.66157">
        <ele>77.388985</ele>
        <time>2023-06-26T10:36:48.227Z</time>
      </trkpt>
      <trkpt lat="51.4101" lon="6.66155">
        <ele>77.400425</ele>
        <time>2023-06-26T10:36:51.216Z</time>
      </trkpt>
      <trkpt lat="51.41002" lon="6.66152">
        <ele>77.4082</ele>
        <time>2023-06-26T10:36:53.222Z</time>
      </trkpt>
      <trkpt lat="51.40993" lon="6.66149">
        <ele>77.416081</ele>
        <time>2023-06-26T10:36:55.211Z</time>
      </trkpt>
      <trkpt lat="51.40983" lon="6.66149">
        <ele>77.4242</ele>
        <time>2023-06-26T10:36:57.219Z</time>
      </trkpt>
      <trkpt lat="51.40974" lon="6.66148">
        <ele>77.432505</ele>
        <time>2023-06-26T10:36:59.220Z</time>
      </trkpt>
      <trkpt lat="51.40964" lon="6.66148">
        <ele>77.440788</ele>
        <time>2023-06-26T10:37:01.247Z</time>
      </trkpt>
      <trkpt lat="51.40955" lon="6.66145">
        <ele>77.453472</ele>
        <time>2023-06-26T10:37:03.217Z</time>
      </trkpt>
      <trkpt lat="51.40946" lon="6.66142">
        <ele>77.502977</ele>
        <time>2023-06-26T10:37:05.226Z</time>
      </trkpt>
      <trkpt lat="51.40937" lon="6.6614">
        <ele>77.551033</ele>
        <time>2023-06-26T10:37:07.243Z</time>
      </trkpt>
      <trkpt lat="51.40927" lon="6.66136">
        <ele>77.602583</ele>
        <time>2023-06-26T10:37:09.230Z</time>
      </trkpt>
      <trkpt lat="51.40918" lon="6.66134">
        <ele>77.650172</ele>
        <time>2023-06-26T10:37:11.221Z</time>
      </trkpt>
      <trkpt lat="51.40908" lon="6.66132">
        <ele>77.703918</ele>
        <time>2023-06-26T10:37:13.217Z</time>
      </trkpt>
      <trkpt lat="51.40898" lon="6.6613">
        <ele>77.757142</ele>
        <time>2023-06-26T10:37:15.235Z</time>
      </trkpt>
      <trkpt lat="51.40888" lon="6.66126">
        <ele>77.810978</ele>
        <time>2023-06-26T10:37:17.244Z</time>
      </trkpt>
      <trkpt lat="51.40878" lon="6.66124">
        <ele>77.865163</ele>
        <time>2023-06-26T10:37:19.227Z</time>
      </trkpt>
      <trkpt lat="51.40868" lon="6.66123">
        <ele>77.920195</ele>
        <time>2023-06-26T10:37:21.229Z</time>
      </trkpt>
      <trkpt lat="51.40857" lon="6.66122">
        <ele>77.975659</ele>
        <time>2023-06-26T10:37:23.212Z</time>
      </trkpt>
      <trkpt lat="51.40847" lon="6.6612">
        <ele>78.030817</ele>
        <time>2023-06-26T10:37:25.236Z</time>
      </trkpt>
      <trkpt lat="51.40837" lon="6.66117">
        <ele>78.085041</ele>
        <time>2023-06-26T10:37:27.228Z</time>
      </trkpt>
      <trkpt lat="51.40827" lon="6.66113">
        <ele>78.138056</ele>
        <time>2023-06-26T10:37:29.236Z</time>
      </trkpt>
      <trkpt lat="51.40817" lon="6.6611">
        <ele>78.192343</ele>
        <time>2023-06-26T10:37:31.235Z</time>
      </trkpt>
      <trkpt lat="51.40805" lon="6.66106">
        <ele>78.256261</ele>
        <time>2023-06-26T10:37:33.219Z</time>
      </trkpt>
      <trkpt lat="51.40793" lon="6.66103">
        <ele>78.317011</ele>
        <time>2023-06-26T10:37:35.217Z</time>
      </trkpt>
      <trkpt lat="51.40783" lon="6.661">
        <ele>78.373431</ele>
        <time>2023-06-26T10:37:37.229Z</time>
      </trkpt>
      <trkpt lat="51.40772" lon="6.66096">
        <ele>78.370007</ele>
        <time>2023-06-26T10:37:39.227Z</time>
      </trkpt>
      <trkpt lat="51.40761" lon="6.66093">
        <ele>78.325323</ele>
        <time>2023-06-26T10:37:41.233Z</time>
      </trkpt>
      <trkpt lat="51.4075" lon="6.6609">
        <ele>78.281421</ele>
        <time>2023-06-26T10:37:43.214Z</time>
      </trkpt>
      <trkpt lat="51.40739" lon="6.66088">
        <ele>78.237712</ele>
        <time>2023-06-26T10:37:45.229Z</time>
      </trkpt>
      <trkpt lat="51.40728" lon="6.66083">
        <ele>78.193019</ele>
        <time>2023-06-26T10:37:47.227Z</time>
      </trkpt>
      <trkpt lat="51.40718" lon="6.66079">
        <ele>78.148939</ele>
        <time>2023-06-26T10:37:49.231Z</time>
      </trkpt>
      <trkpt lat="51.40707" lon="6.66077">
        <ele>78.106725</ele>
        <time>2023-06-26T10:37:51.221Z</time>
      </trkpt>
      <trkpt lat="51.40696" lon="6.66075">
        <ele>78.064296</ele>
        <time>2023-06-26T10:37:53.225Z</time>
      </trkpt>
      <trkpt lat="51.40686" lon="6.66071">
        <ele>78.022889</ele>
        <time>2023-06-26T10:37:55.237Z</time>
      </trkpt>
      <trkpt lat="51.40676" lon="6.66069">
        <ele>77.983536</ele>
        <time>2023-06-26T10:37:57.246Z</time>
      </trkpt>
      <trkpt lat="51.40666" lon="6.66065">
        <ele>77.943008</ele>
        <time>2023-06-26T10:37:59.230Z</time>
      </trkpt>
      <trkpt lat="51.40655" lon="6.66062">
        <ele>77.89834</ele>
        <time>2023-06-26T10:38:01.256Z</time>
      </trkpt>
      <trkpt lat="51.40645" lon="6.66059">
        <ele>77.85495</ele>
        <time>2023-06-26T10:38:03.223Z</time>
      </trkpt>
      <trkpt lat="51.40634" lon="6.66057">
        <ele>77.813308</ele>
        <time>2023-06-26T10:38:05.235Z</time>
      </trkpt>
      <trkpt lat="51.40624" lon="6.66054">
        <ele>77.770663</ele>
        <time>2023-06-26T10:38:07.237Z</time>
      </trkpt>
      <trkpt lat="51.40613" lon="6.6605">
        <ele>77.725501</ele>
        <time>2023-06-26T10:38:09.226Z</time>
      </trkpt>
      <trkpt lat="51.40602" lon="6.66047">
        <ele>77.681857</ele>
        <time>2023-06-26T10:38:11.232Z</time>
      </trkpt>
      <trkpt lat="51.40591" lon="6.66043">
        <ele>77.59107</ele>
        <time>2023-06-26T10:38:13.216Z</time>
      </trkpt>
      <trkpt lat="51.40581" lon="6.6604">
        <ele>77.499981</ele>
        <time>2023-06-26T10:38:15.230Z</time>
      </trkpt>
      <trkpt lat="51.4057" lon="6.66038">
        <ele>77.406493</ele>
        <time>2023-06-26T10:38:17.246Z</time>
      </trkpt>
      <trkpt lat="51.4056" lon="6.66035">
        <ele>77.31923</ele>
        <time>2023-06-26T10:38:19.229Z</time>
      </trkpt>
      <trkpt lat="51.40549" lon="6.6603">
        <ele>77.230165</ele>
        <time>2023-06-26T10:38:21.250Z</time>
      </trkpt>
      <trkpt lat="51.4054" lon="6.66027">
        <ele>77.146638</ele>
        <time>2023-06-26T10:38:23.239Z</time>
      </trkpt>
      <trkpt lat="51.4053" lon="6.66023">
        <ele>77.065255</ele>
        <time>2023-06-26T10:38:25.242Z</time>
      </trkpt>
      <trkpt lat="51.40521" lon="6.66019">
        <ele>76.985429</ele>
        <time>2023-06-26T10:38:27.229Z</time>
      </trkpt>
      <trkpt lat="51.40511" lon="6.66018">
        <ele>76.90172</ele>
        <time>2023-06-26T10:38:29.224Z</time>
      </trkpt>
      <trkpt lat="51.40501" lon="6.66015">
        <ele>76.811241</ele>
        <time>2023-06-26T10:38:31.230Z</time>
      </trkpt>
      <trkpt lat="51.4049" lon="6.66014">
        <ele>76.71974</ele>
        <time>2023-06-26T10:38:33.230Z</time>
      </trkpt>
      <trkpt lat="51.4048" lon="6.66011">
        <ele>76.633354</ele>
        <time>2023-06-26T10:38:35.244Z</time>
      </trkpt>
      <trkpt lat="51.4047" lon="6.66008">
        <ele>76.549153</ele>
        <time>2023-06-26T10:38:37.211Z</time>
      </trkpt>
      <trkpt lat="51.40461" lon="6.66004">
        <ele>76.466835</ele>
        <time>2023-06-26T10:38:39.221Z</time>
      </trkpt>
      <trkpt lat="51.40452" lon="6.66">
        <ele>76.386414</ele>
        <time>2023-06-26T10:38:41.233Z</time>
      </trkpt>
      <trkpt lat="51.40442" lon="6.65995">
        <ele>76.303864</ele>
        <time>2023-06-26T10:38:43.228Z</time>
      </trkpt>
      <trkpt lat="51.40432" lon="6.65992">
        <ele>76.219299</ele>
        <time>2023-06-26T10:38:45.228Z</time>
      </trkpt>
      <trkpt lat="51.40422" lon="6.6599">
        <ele>76.146411</ele>
        <time>2023-06-26T10:38:47.245Z</time>
      </trkpt>
      <trkpt lat="51.40412" lon="6.65988">
        <ele>76.098817</ele>
        <time>2023-06-26T10:38:49.241Z</time>
      </trkpt>
      <trkpt lat="51.40401" lon="6.65984">
        <ele>76.048276</ele>
        <time>2023-06-26T10:38:51.231Z</time>
      </trkpt>
      <trkpt lat="51.40391" lon="6.65981">
        <ele>75.999826</ele>
        <time>2023-06-26T10:38:53.229Z</time>
      </trkpt>
      <trkpt lat="51.4038" lon="6.65978">
        <ele>75.948888</ele>
        <time>2023-06-26T10:38:55.231Z</time>
      </trkpt>
      <trkpt lat="51.4037" lon="6.65975">
        <ele>75.899717</ele>
        <time>2023-06-26T10:38:57.215Z</time>
      </trkpt>
      <trkpt lat="51.4036" lon="6.65972">
        <ele>75.85167</ele>
        <time>2023-06-26T10:38:59.233Z</time>
      </trkpt>
      <trkpt lat="51.40349" lon="6.65969">
        <ele>75.802408</ele>
        <time>2023-06-26T10:39:01.246Z</time>
      </trkpt>
      <trkpt lat="51.40338" lon="6.65966">
        <ele>75.750107</ele>
        <time>2023-06-26T10:39:03.224Z</time>
      </trkpt>
      <trkpt lat="51.40327" lon="6.65963">
        <ele>75.698714</ele>
        <time>2023-06-26T10:39:05.232Z</time>
      </trkpt>
      <trkpt lat="51.40316" lon="6.65958">
        <ele>75.647518</ele>
        <time>2023-06-26T10:39:07.243Z</time>
      </trkpt>
      <trkpt lat="51.40306" lon="6.65955">
        <ele>75.596635</ele>
        <time>2023-06-26T10:39:09.228Z</time>
      </trkpt>
      <trkpt lat="51.40294" lon="6.65953">
        <ele>75.545105</ele>
        <time>2023-06-26T10:39:11.227Z</time>
      </trkpt>
      <trkpt lat="51.40284" lon="6.65952">
        <ele>75.494497</ele>
        <time>2023-06-26T10:39:13.231Z</time>
      </trkpt>
      <trkpt lat="51.40273" lon="6.6595">
        <ele>75.445526</ele>
        <time>2023-06-26T10:39:15.231Z</time>
      </trkpt>
      <trkpt lat="51.40263" lon="6.65947">
        <ele>75.397986</ele>
        <time>2023-06-26T10:39:17.231Z</time>
      </trkpt>
      <trkpt lat="51.40253" lon="6.65943">
        <ele>75.351184</ele>
        <time>2023-06-26T10:39:19.233Z</time>
      </trkpt>
      <trkpt lat="51.40243" lon="6.65938">
        <ele>75.431987</ele>
        <time>2023-06-26T10:39:21.224Z</time>
      </trkpt>
      <trkpt lat="51.40233" lon="6.65933">
        <ele>75.586127</ele>
        <time>2023-06-26T10:39:23.228Z</time>
      </trkpt>
      <trkpt lat="51.40223" lon="6.65928">
        <ele>75.74783</ele>
        <time>2023-06-26T10:39:25.231Z</time>
      </trkpt>
      <trkpt lat="51.40214" lon="6.65925">
        <ele>75.889645</ele>
        <time>2023-06-26T10:39:27.229Z</time>
      </trkpt>
      <trkpt lat="51.40205" lon="6.65922">
        <ele>76.026866</ele>
        <time>2023-06-26T10:39:29.242Z</time>
      </trkpt>
      <trkpt lat="51.40196" lon="6.65918">
        <ele>76.173926</ele>
        <time>2023-06-26T10:39:31.237Z</time>
      </trkpt>
      <trkpt lat="51.40187" lon="6.65915">
        <ele>76.310708</ele>
        <time>2023-06-26T10:39:33.212Z</time>
      </trkpt>
      <trkpt lat="51.40174" lon="6.6591">
        <ele>76.517284</ele>
        <time>2023-06-26T10:39:36.231Z</time>
      </trkpt>
      <trkpt lat="51.40163" lon="6.65902">
        <ele>76.705439</ele>
        <time>2023-06-26T10:39:39.240Z</time>
      </trkpt>
      <trkpt lat="51.40152" lon="6.65897">
        <ele>76.874127</ele>
        <time>2023-06-26T10:39:42.220Z</time>
      </trkpt>
      <trkpt lat="51.40144" lon="6.65892">
        <ele>77.01709</ele>
        <time>2023-06-26T10:39:45.239Z</time>
      </trkpt>
      <trkpt lat="51.40134" lon="6.65889">
        <ele>77.159852</ele>
        <time>2023-06-26T10:39:50.229Z</time>
      </trkpt>
      <trkpt lat="51.40124" lon="6.65885">
        <ele>77.320808</ele>
        <time>2023-06-26T10:40:04.217Z</time>
      </trkpt>
      <trkpt lat="51.40112" lon="6.65881">
        <ele>77.51313</ele>
        <time>2023-06-26T10:40:08.228Z</time>
      </trkpt>
      <trkpt lat="51.40102" lon="6.65882">
        <ele>77.669669</ele>
        <time>2023-06-26T10:40:11.214Z</time>
      </trkpt>
      <trkpt lat="51.4009" lon="6.65885">
        <ele>77.846698</ele>
        <time>2023-06-26T10:40:14.224Z</time>
      </trkpt>
      <trkpt lat="51.40078" lon="6.65881">
        <ele>78.035548</ele>
        <time>2023-06-26T10:40:17.225Z</time>
      </trkpt>
      <trkpt lat="51.40066" lon="6.65877">
        <ele>78.097279</ele>
        <time>2023-06-26T10:40:20.244Z</time>
      </trkpt>
      <trkpt lat="51.40057" lon="6.65873">
        <ele>78.107073</ele>
        <time>2023-06-26T10:40:22.232Z</time>
      </trkpt>
      <trkpt lat="51.40048" lon="6.6587">
        <ele>78.117117</ele>
        <time>2023-06-26T10:40:24.220Z</time>
      </trkpt>
      <trkpt lat="51.40038" lon="6.65867">
        <ele>78.12787</ele>
        <time>2023-06-26T10:40:26.224Z</time>
      </trkpt>
      <trkpt lat="51.40028" lon="6.65863">
        <ele>78.138664</ele>
        <time>2023-06-26T10:40:28.234Z</time>
      </trkpt>
      <trkpt lat="51.40018" lon="6.6586">
        <ele>78.150076</ele>
        <time>2023-06-26T10:40:30.246Z</time>
      </trkpt>
      <trkpt lat="51.40008" lon="6.65858">
        <ele>78.160996</ele>
        <time>2023-06-26T10:40:32.226Z</time>
      </trkpt>
      <trkpt lat="51.39998" lon="6.65858">
        <ele>78.171766</ele>
        <time>2023-06-26T10:40:34.229Z</time>
      </trkpt>
      <trkpt lat="51.39988" lon="6.65858">
        <ele>78.182315</ele>
        <time>2023-06-26T10:40:36.230Z</time>
      </trkpt>
      <trkpt lat="51.39978" lon="6.65857">
        <ele>78.193423</ele>
        <time>2023-06-26T10:40:38.226Z</time>
      </trkpt>
      <trkpt lat="51.39968" lon="6.65855">
        <ele>78.204174</ele>
        <time>2023-06-26T10:40:40.225Z</time>
      </trkpt>
      <trkpt lat="51.39957" lon="6.65852">
        <ele>78.215378</ele>
        <time>2023-06-26T10:40:42.225Z</time>
      </trkpt>
      <trkpt lat="51.39948" lon="6.6585">
        <ele>78.226013</ele>
        <time>2023-06-26T10:40:44.227Z</time>
      </trkpt>
      <trkpt lat="51.39938" lon="6.65847">
        <ele>78.236192</ele>
        <time>2023-06-26T10:40:46.225Z</time>
      </trkpt>
      <trkpt lat="51.39929" lon="6.65843">
        <ele>78.246775</ele>
        <time>2023-06-26T10:40:48.229Z</time>
      </trkpt>
      <trkpt lat="51.39919" lon="6.65841">
        <ele>78.257011</ele>
        <time>2023-06-26T10:40:50.223Z</time>
      </trkpt>
      <trkpt lat="51.3991" lon="6.65837">
        <ele>78.267881</ele>
        <time>2023-06-26T10:40:52.227Z</time>
      </trkpt>
      <trkpt lat="51.39896" lon="6.65834">
        <ele>78.266083</ele>
        <time>2023-06-26T10:40:55.218Z</time>
      </trkpt>
      <trkpt lat="51.39887" lon="6.6583">
        <ele>78.182504</ele>
        <time>2023-06-26T10:40:57.230Z</time>
      </trkpt>
      <trkpt lat="51.39877" lon="6.65827">
        <ele>78.088165</ele>
        <time>2023-06-26T10:40:59.228Z</time>
      </trkpt>
      <trkpt lat="51.39867" lon="6.65824">
        <ele>77.986221</ele>
        <time>2023-06-26T10:41:01.244Z</time>
      </trkpt>
      <trkpt lat="51.39856" lon="6.65821">
        <ele>77.885982</ele>
        <time>2023-06-26T10:41:03.232Z</time>
      </trkpt>
      <trkpt lat="51.39846" lon="6.65817">
        <ele>77.79156</ele>
        <time>2023-06-26T10:41:05.249Z</time>
      </trkpt>
      <trkpt lat="51.39836" lon="6.65813">
        <ele>77.696995</ele>
        <time>2023-06-26T10:41:07.235Z</time>
      </trkpt>
      <trkpt lat="51.39827" lon="6.65808">
        <ele>77.609673</ele>
        <time>2023-06-26T10:41:09.226Z</time>
      </trkpt>
      <trkpt lat="51.39817" lon="6.65804">
        <ele>77.512261</ele>
        <time>2023-06-26T10:41:11.228Z</time>
      </trkpt>
      <trkpt lat="51.39808" lon="6.65798">
        <ele>77.419465</ele>
        <time>2023-06-26T10:41:13.223Z</time>
      </trkpt>
      <trkpt lat="51.39799" lon="6.65793">
        <ele>77.333052</ele>
        <time>2023-06-26T10:41:15.229Z</time>
      </trkpt>
      <trkpt lat="51.39791" lon="6.65785">
        <ele>77.241348</ele>
        <time>2023-06-26T10:41:17.235Z</time>
      </trkpt>
      <trkpt lat="51.39781" lon="6.65781">
        <ele>77.153351</ele>
        <time>2023-06-26T10:41:19.211Z</time>
      </trkpt>
      <trkpt lat="51.39772" lon="6.65778">
        <ele>77.063778</ele>
        <time>2023-06-26T10:41:21.213Z</time>
      </trkpt>
      <trkpt lat="51.39759" lon="6.65777">
        <ele>76.94875</ele>
        <time>2023-06-26T10:41:24.227Z</time>
      </trkpt>
      <trkpt lat="51.39749" lon="6.65778">
        <ele>76.848635</ele>
        <time>2023-06-26T10:41:27.223Z</time>
      </trkpt>
      <trkpt lat="51.39739" lon="6.65777">
        <ele>76.758745</ele>
        <time>2023-06-26T10:41:30.237Z</time>
      </trkpt>
      <trkpt lat="51.3973" lon="6.65775">
        <ele>76.671755</ele>
        <time>2023-06-26T10:41:33.219Z</time>
      </trkpt>
      <trkpt lat="51.39719" lon="6.65771">
        <ele>76.611981</ele>
        <time>2023-06-26T10:41:37.215Z</time>
      </trkpt>
      <trkpt lat="51.39708" lon="6.65767">
        <ele>76.605098</ele>
        <time>2023-06-26T10:41:40.221Z</time>
      </trkpt>
      <trkpt lat="51.39696" lon="6.65764">
        <ele>76.597578</ele>
        <time>2023-06-26T10:41:43.226Z</time>
      </trkpt>
      <trkpt lat="51.39683" lon="6.6576">
        <ele>76.589733</ele>
        <time>2023-06-26T10:41:46.226Z</time>
      </trkpt>
      <trkpt lat="51.3967" lon="6.65757">
        <ele>76.581426</ele>
        <time>2023-06-26T10:41:49.231Z</time>
      </trkpt>
      <trkpt lat="51.39661" lon="6.65755">
        <ele>76.575779</ele>
        <time>2023-06-26T10:41:51.231Z</time>
      </trkpt>
      <trkpt lat="51.39651" lon="6.65755">
        <ele>76.569856</ele>
        <time>2023-06-26T10:41:53.232Z</time>
      </trkpt>
      <trkpt lat="51.3964" lon="6.65753">
        <ele>76.563295</ele>
        <time>2023-06-26T10:41:55.239Z</time>
      </trkpt>
      <trkpt lat="51.3963" lon="6.6575">
        <ele>76.557053</ele>
        <time>2023-06-26T10:41:57.228Z</time>
      </trkpt>
      <trkpt lat="51.3962" lon="6.65748">
        <ele>76.550526</ele>
        <time>2023-06-26T10:41:59.242Z</time>
      </trkpt>
      <trkpt lat="51.39609" lon="6.65745">
        <ele>76.544271</ele>
        <time>2023-06-26T10:42:01.228Z</time>
      </trkpt>
      <trkpt lat="51.39599" lon="6.65742">
        <ele>76.537898</ele>
        <time>2023-06-26T10:42:03.207Z</time>
      </trkpt>
      <trkpt lat="51.39589" lon="6.6574">
        <ele>76.531572</ele>
        <time>2023-06-26T10:42:05.241Z</time>
      </trkpt>
      <trkpt lat="51.39579" lon="6.65737">
        <ele>76.525522</ele>
        <time>2023-06-26T10:42:07.235Z</time>
      </trkpt>
      <trkpt lat="51.39569" lon="6.65734">
        <ele>76.519447</ele>
        <time>2023-06-26T10:42:09.232Z</time>
      </trkpt>
      <trkpt lat="51.3956" lon="6.65731">
        <ele>76.51371</ele>
        <time>2023-06-26T10:42:11.234Z</time>
      </trkpt>
      <trkpt lat="51.39551" lon="6.65728">
        <ele>76.508123</ele>
        <time>2023-06-26T10:42:13.220Z</time>
      </trkpt>
      <trkpt lat="51.39542" lon="6.65725">
        <ele>76.59195</ele>
        <time>2023-06-26T10:42:15.228Z</time>
      </trkpt>
      <trkpt lat="51.39529" lon="6.6572">
        <ele>76.859749</ele>
        <time>2023-06-26T10:42:18.238Z</time>
      </trkpt>
      <trkpt lat="51.39516" lon="6.65716">
        <ele>77.131859</ele>
        <time>2023-06-26T10:42:21.232Z</time>
      </trkpt>
      <trkpt lat="51.39507" lon="6.65713">
        <ele>77.315308</ele>
        <time>2023-06-26T10:42:23.235Z</time>
      </trkpt>
      <trkpt lat="51.39495" lon="6.65708">
        <ele>77.575503</ele>
        <time>2023-06-26T10:42:26.240Z</time>
      </trkpt>
      <trkpt lat="51.39482" lon="6.65705">
        <ele>77.83692</ele>
        <time>2023-06-26T10:42:29.228Z</time>
      </trkpt>
      <trkpt lat="51.39471" lon="6.65701">
        <ele>78.074397</ele>
        <time>2023-06-26T10:42:32.245Z</time>
      </trkpt>
      <trkpt lat="51.3946" lon="6.65697">
        <ele>78.311344</ele>
        <time>2023-06-26T10:42:35.246Z</time>
      </trkpt>
      <trkpt lat="51.39449" lon="6.65696">
        <ele>78.531561</ele>
        <time>2023-06-26T10:42:38.227Z</time>
      </trkpt>
      <trkpt lat="51.39437" lon="6.65693">
        <ele>78.777994</ele>
        <time>2023-06-26T10:42:41.228Z</time>
      </trkpt>
      <trkpt lat="51.39425" lon="6.65692">
        <ele>79.020181</ele>
        <time>2023-06-26T10:42:44.202Z</time>
      </trkpt>
      <trkpt lat="51.39414" lon="6.6569">
        <ele>79.250122</ele>
        <time>2023-06-26T10:42:47.243Z</time>
      </trkpt>
      <trkpt lat="51.39402" lon="6.65685">
        <ele>79.499842</ele>
        <time>2023-06-26T10:42:50.233Z</time>
      </trkpt>
      <trkpt lat="51.3939" lon="6.65682">
        <ele>79.754007</ele>
        <time>2023-06-26T10:42:53.208Z</time>
      </trkpt>
      <trkpt lat="51.39378" lon="6.65679">
        <ele>79.99955</ele>
        <time>2023-06-26T10:42:56.223Z</time>
      </trkpt>
      <trkpt lat="51.39366" lon="6.65675">
        <ele>80.171978</ele>
        <time>2023-06-26T10:42:59.237Z</time>
      </trkpt>
      <trkpt lat="51.39356" lon="6.65673">
        <ele>80.191956</ele>
        <time>2023-06-26T10:43:02.221Z</time>
      </trkpt>
      <trkpt lat="51.39346" lon="6.65668">
        <ele>80.210568</ele>
        <time>2023-06-26T10:43:05.232Z</time>
      </trkpt>
      <trkpt lat="51.39336" lon="6.65665">
        <ele>80.229325</ele>
        <time>2023-06-26T10:43:08.226Z</time>
      </trkpt>
      <trkpt lat="51.39325" lon="6.65663">
        <ele>80.250827</ele>
        <time>2023-06-26T10:43:11.229Z</time>
      </trkpt>
      <trkpt lat="51.39313" lon="6.65659">
        <ele>80.273688</ele>
        <time>2023-06-26T10:43:14.238Z</time>
      </trkpt>
      <trkpt lat="51.39301" lon="6.65654">
        <ele>80.296601</ele>
        <time>2023-06-26T10:43:17.229Z</time>
      </trkpt>
      <trkpt lat="51.39291" lon="6.65649">
        <ele>80.317664</ele>
        <time>2023-06-26T10:43:20.248Z</time>
      </trkpt>
      <trkpt lat="51.39279" lon="6.65646">
        <ele>80.339241</ele>
        <time>2023-06-26T10:43:23.218Z</time>
      </trkpt>
      <trkpt lat="51.39268" lon="6.65643">
        <ele>80.36117</ele>
        <time>2023-06-26T10:43:26.224Z</time>
      </trkpt>
      <trkpt lat="51.39256" lon="6.65639">
        <ele>80.384288</ele>
        <time>2023-06-26T10:43:29.231Z</time>
      </trkpt>
      <trkpt lat="51.39243" lon="6.65634">
        <ele>80.409606</ele>
        <time>2023-06-26T10:43:32.243Z</time>
      </trkpt>
      <trkpt lat="51.3923" lon="6.6563">
        <ele>80.433435</ele>
        <time>2023-06-26T10:43:35.233Z</time>
      </trkpt>
      <trkpt lat="51.39217" lon="6.65628">
        <ele>80.457609</ele>
        <time>2023-06-26T10:43:38.225Z</time>
      </trkpt>
      <trkpt lat="51.39205" lon="6.65625">
        <ele>80.480467</ele>
        <time>2023-06-26T10:43:41.229Z</time>
      </trkpt>
      <trkpt lat="51.39194" lon="6.6562">
        <ele>80.503592</ele>
        <time>2023-06-26T10:43:44.231Z</time>
      </trkpt>
      <trkpt lat="51.39182" lon="6.65618">
        <ele>80.448671</ele>
        <time>2023-06-26T10:43:47.230Z</time>
      </trkpt>
      <trkpt lat="51.39172" lon="6.65617">
        <ele>80.398144</ele>
        <time>2023-06-26T10:43:50.228Z</time>
      </trkpt>
      <trkpt lat="51.39162" lon="6.65614">
        <ele>80.347268</ele>
        <time>2023-06-26T10:43:53.210Z</time>
      </trkpt>
      <trkpt lat="51.39152" lon="6.6561">
        <ele>80.293872</ele>
        <time>2023-06-26T10:43:56.248Z</time>
      </trkpt>
      <trkpt lat="51.39139" lon="6.65603">
        <ele>80.229828</ele>
        <time>2023-06-26T10:43:59.234Z</time>
      </trkpt>
      <trkpt lat="51.39128" lon="6.656">
        <ele>80.172536</ele>
        <time>2023-06-26T10:44:02.229Z</time>
      </trkpt>
      <trkpt lat="51.39117" lon="6.65597">
        <ele>80.116422</ele>
        <time>2023-06-26T10:44:05.231Z</time>
      </trkpt>
      <trkpt lat="51.39106" lon="6.65592">
        <ele>80.061911</ele>
        <time>2023-06-26T10:44:08.215Z</time>
      </trkpt>
      <trkpt lat="51.39098" lon="6.65586">
        <ele>80.015025</ele>
        <time>2023-06-26T10:44:11.237Z</time>
      </trkpt>
      <trkpt lat="51.39088" lon="6.65584">
        <ele>79.966753</ele>
        <time>2023-06-26T10:44:14.229Z</time>
      </trkpt>
      <trkpt lat="51.39079" lon="6.65582">
        <ele>79.920793</ele>
        <time>2023-06-26T10:44:17.244Z</time>
      </trkpt>
      <trkpt lat="51.39069" lon="6.65581">
        <ele>79.870581</ele>
        <time>2023-06-26T10:44:20.216Z</time>
      </trkpt>
      <trkpt lat="51.39057" lon="6.65575">
        <ele>79.810784</ele>
        <time>2023-06-26T10:44:23.235Z</time>
      </trkpt>
      <trkpt lat="51.39045" lon="6.65572">
        <ele>79.751921</ele>
        <time>2023-06-26T10:44:26.227Z</time>
      </trkpt>
      <trkpt lat="51.39034" lon="6.65568">
        <ele>79.692459</ele>
        <time>2023-06-26T10:44:29.232Z</time>
      </trkpt>
      <trkpt lat="51.39021" lon="6.65565">
        <ele>79.630618</ele>
        <time>2023-06-26T10:44:32.232Z</time>
      </trkpt>
      <trkpt lat="51.39009" lon="6.65562">
        <ele>79.643798</ele>
        <time>2023-06-26T10:44:35.230Z</time>
      </trkpt>
      <trkpt lat="51.38997" lon="6.65559">
        <ele>79.686355</ele>
        <time>2023-06-26T10:44:38.226Z</time>
      </trkpt>
      <trkpt lat="51.38984" lon="6.65555">
        <ele>79.73008</ele>
        <time>2023-06-26T10:44:41.244Z</time>
      </trkpt>
      <trkpt lat="51.38975" lon="6.65552">
        <ele>79.761478</ele>
        <time>2023-06-26T10:44:43.230Z</time>
      </trkpt>
      <trkpt lat="51.38962" lon="6.65546">
        <ele>79.806714</ele>
        <time>2023-06-26T10:44:46.231Z</time>
      </trkpt>
      <trkpt lat="51.38953" lon="6.65544">
        <ele>79.838044</ele>
        <time>2023-06-26T10:44:48.236Z</time>
      </trkpt>
      <trkpt lat="51.38941" lon="6.65539">
        <ele>79.881807</ele>
        <time>2023-06-26T10:44:51.231Z</time>
      </trkpt>
      <trkpt lat="51.38927" lon="6.65535">
        <ele>79.927574</ele>
        <time>2023-06-26T10:44:54.217Z</time>
      </trkpt>
      <trkpt lat="51.38915" lon="6.65532">
        <ele>79.969549</ele>
        <time>2023-06-26T10:44:57.240Z</time>
      </trkpt>
      <trkpt lat="51.38902" lon="6.65529">
        <ele>80.013942</ele>
        <time>2023-06-26T10:45:00.217Z</time>
      </trkpt>
      <trkpt lat="51.3889" lon="6.65525">
        <ele>80.057624</ele>
        <time>2023-06-26T10:45:03.210Z</time>
      </trkpt>
      <trkpt lat="51.38877" lon="6.65521">
        <ele>80.100853</ele>
        <time>2023-06-26T10:45:06.238Z</time>
      </trkpt>
      <trkpt lat="51.38865" lon="6.65517">
        <ele>80.142827</ele>
        <time>2023-06-26T10:45:09.229Z</time>
      </trkpt>
      <trkpt lat="51.38852" lon="6.65513">
        <ele>80.188219</ele>
        <time>2023-06-26T10:45:12.244Z</time>
      </trkpt>
      <trkpt lat="51.38839" lon="6.6551">
        <ele>80.2193</ele>
        <time>2023-06-26T10:45:15.229Z</time>
      </trkpt>
      <trkpt lat="51.38825" lon="6.65507">
        <ele>80.188768</ele>
        <time>2023-06-26T10:45:18.223Z</time>
      </trkpt>
      <trkpt lat="51.38813" lon="6.65503">
        <ele>80.159611</ele>
        <time>2023-06-26T10:45:21.205Z</time>
      </trkpt>
      <trkpt lat="51.388" lon="6.65498">
        <ele>80.129793</ele>
        <time>2023-06-26T10:45:24.227Z</time>
      </trkpt>
      <trkpt lat="51.38787" lon="6.65492">
        <ele>80.099529</ele>
        <time>2023-06-26T10:45:27.222Z</time>
      </trkpt>
      <trkpt lat="51.38775" lon="6.65488">
        <ele>80.07108</ele>
        <time>2023-06-26T10:45:30.233Z</time>
      </trkpt>
      <trkpt lat="51.38762" lon="6.65485">
        <ele>80.04142</ele>
        <time>2023-06-26T10:45:33.224Z</time>
      </trkpt>
      <trkpt lat="51.38749" lon="6.65479">
        <ele>80.011571</ele>
        <time>2023-06-26T10:45:36.243Z</time>
      </trkpt>
      <trkpt lat="51.38736" lon="6.65476">
        <ele>79.981417</ele>
        <time>2023-06-26T10:45:39.233Z</time>
      </trkpt>
      <trkpt lat="51.38727" lon="6.65474">
        <ele>79.96044</ele>
        <time>2023-06-26T10:45:41.241Z</time>
      </trkpt>
      <trkpt lat="51.38718" lon="6.65471">
        <ele>79.939827</ele>
        <time>2023-06-26T10:45:43.230Z</time>
      </trkpt>
      <trkpt lat="51.38705" lon="6.65468">
        <ele>79.910283</ele>
        <time>2023-06-26T10:45:46.226Z</time>
      </trkpt>
      <trkpt lat="51.38692" lon="6.65465">
        <ele>79.879823</ele>
        <time>2023-06-26T10:45:49.232Z</time>
      </trkpt>
      <trkpt lat="51.38679" lon="6.6546">
        <ele>79.85041</ele>
        <time>2023-06-26T10:45:52.239Z</time>
      </trkpt>
      <trkpt lat="51.38666" lon="6.65454">
        <ele>79.820417</ele>
        <time>2023-06-26T10:45:55.236Z</time>
      </trkpt>
      <trkpt lat="51.38653" lon="6.6545">
        <ele>79.815329</ele>
        <time>2023-06-26T10:45:58.228Z</time>
      </trkpt>
      <trkpt lat="51.38641" lon="6.65448">
        <ele>79.812523</ele>
        <time>2023-06-26T10:46:01.246Z</time>
      </trkpt>
      <trkpt lat="51.38632" lon="6.65444">
        <ele>79.810514</ele>
        <time>2023-06-26T10:46:03.224Z</time>
      </trkpt>
      <trkpt lat="51.38619" lon="6.65441">
        <ele>79.807691</ele>
        <time>2023-06-26T10:46:06.246Z</time>
      </trkpt>
      <trkpt lat="51.38607" lon="6.65438">
        <ele>79.805094</ele>
        <time>2023-06-26T10:46:09.239Z</time>
      </trkpt>
      <trkpt lat="51.38595" lon="6.65436">
        <ele>79.802354</ele>
        <time>2023-06-26T10:46:12.234Z</time>
      </trkpt>
      <trkpt lat="51.38583" lon="6.65431">
        <ele>79.799567</ele>
        <time>2023-06-26T10:46:15.232Z</time>
      </trkpt>
      <trkpt lat="51.3857" lon="6.65427">
        <ele>79.796649</ele>
        <time>2023-06-26T10:46:18.230Z</time>
      </trkpt>
      <trkpt lat="51.3856" lon="6.65424">
        <ele>79.794572</ele>
        <time>2023-06-26T10:46:20.222Z</time>
      </trkpt>
      <trkpt lat="51.38551" lon="6.6542">
        <ele>79.792496</ele>
        <time>2023-06-26T10:46:22.251Z</time>
      </trkpt>
      <trkpt lat="51.38542" lon="6.65416">
        <ele>79.790434</ele>
        <time>2023-06-26T10:46:24.220Z</time>
      </trkpt>
      <trkpt lat="51.38529" lon="6.65413">
        <ele>79.787539</ele>
        <time>2023-06-26T10:46:27.235Z</time>
      </trkpt>
      <trkpt lat="51.38516" lon="6.65409">
        <ele>79.784666</ele>
        <time>2023-06-26T10:46:30.237Z</time>
      </trkpt>
      <trkpt lat="51.38507" lon="6.65406">
        <ele>79.782682</ele>
        <time>2023-06-26T10:46:32.229Z</time>
      </trkpt>
      <trkpt lat="51.38494" lon="6.65403">
        <ele>79.779772</ele>
        <time>2023-06-26T10:46:35.231Z</time>
      </trkpt>
      <trkpt lat="51.38482" lon="6.65399">
        <ele>79.818494</ele>
        <time>2023-06-26T10:46:38.264Z</time>
      </trkpt>
      <trkpt lat="51.3847" lon="6.65393">
        <ele>79.893799</ele>
        <time>2023-06-26T10:46:41.242Z</time>
      </trkpt>
      <trkpt lat="51.38461" lon="6.65389">
        <ele>79.949164</ele>
        <time>2023-06-26T10:46:43.249Z</time>
      </trkpt>
      <trkpt lat="51.38448" lon="6.65385">
        <ele>80.023941</ele>
        <time>2023-06-26T10:46:46.230Z</time>
      </trkpt>
      <trkpt lat="51.38436" lon="6.65381">
        <ele>80.096804</ele>
        <time>2023-06-26T10:46:49.234Z</time>
      </trkpt>
      <trkpt lat="51.38424" lon="6.65378">
        <ele>80.166008</ele>
        <time>2023-06-26T10:46:52.231Z</time>
      </trkpt>
      <trkpt lat="51.38413" lon="6.65374">
        <ele>80.234206</ele>
        <time>2023-06-26T10:46:55.210Z</time>
      </trkpt>
      <trkpt lat="51.38403" lon="6.6537">
        <ele>80.295606</ele>
        <time>2023-06-26T10:46:58.239Z</time>
      </trkpt>
      <trkpt lat="51.38395" lon="6.6536">
        <ele>80.35371</ele>
        <time>2023-06-26T10:47:01.226Z</time>
      </trkpt>
      <trkpt lat="51.38387" lon="6.65351">
        <ele>80.411172</ele>
        <time>2023-06-26T10:47:05.225Z</time>
      </trkpt>
      <trkpt lat="51.38378" lon="6.65345">
        <ele>80.46489</ele>
        <time>2023-06-26T10:47:10.224Z</time>
      </trkpt>
      <trkpt lat="51.38367" lon="6.65343">
        <ele>80.530817</ele>
        <time>2023-06-26T10:47:14.233Z</time>
      </trkpt>
      <trkpt lat="51.38355" lon="6.65342">
        <ele>80.602406</ele>
        <time>2023-06-26T10:47:17.232Z</time>
      </trkpt>
      <trkpt lat="51.38344" lon="6.65339">
        <ele>80.669885</ele>
        <time>2023-06-26T10:47:20.239Z</time>
      </trkpt>
      <trkpt lat="51.38333" lon="6.65338">
        <ele>80.729059</ele>
        <time>2023-06-26T10:47:24.227Z</time>
      </trkpt>
      <trkpt lat="51.38323" lon="6.6534">
        <ele>80.787884</ele>
        <time>2023-06-26T10:47:33.218Z</time>
      </trkpt>
      <trkpt lat="51.38313" lon="6.65341">
        <ele>80.802713</ele>
        <time>2023-06-26T10:47:37.241Z</time>
      </trkpt>
      <trkpt lat="51.38305" lon="6.65338">
        <ele>80.696161</ele>
        <time>2023-06-26T10:47:42.248Z</time>
      </trkpt>
      <trkpt lat="51.38292" lon="6.65334">
        <ele>80.542539</ele>
        <time>2023-06-26T10:47:46.228Z</time>
      </trkpt>
      <trkpt lat="51.3828" lon="6.65333">
        <ele>80.406005</ele>
        <time>2023-06-26T10:47:49.226Z</time>
      </trkpt>
      <trkpt lat="51.38267" lon="6.65332">
        <ele>80.255619</ele>
        <time>2023-06-26T10:47:52.247Z</time>
      </trkpt>
      <trkpt lat="51.38255" lon="6.65327">
        <ele>80.104289</ele>
        <time>2023-06-26T10:47:55.239Z</time>
      </trkpt>
      <trkpt lat="51.38241" lon="6.65323">
        <ele>79.946163</ele>
        <time>2023-06-26T10:47:58.232Z</time>
      </trkpt>
      <trkpt lat="51.38232" lon="6.65321">
        <ele>79.835649</ele>
        <time>2023-06-26T10:48:00.231Z</time>
      </trkpt>
      <trkpt lat="51.38223" lon="6.65318">
        <ele>79.728088</ele>
        <time>2023-06-26T10:48:02.241Z</time>
      </trkpt>
      <trkpt lat="51.38214" lon="6.65316">
        <ele>79.617798</ele>
        <time>2023-06-26T10:48:04.225Z</time>
      </trkpt>
      <trkpt lat="51.38205" lon="6.65313">
        <ele>79.509352</ele>
        <time>2023-06-26T10:48:06.233Z</time>
      </trkpt>
      <trkpt lat="51.38196" lon="6.6531">
        <ele>79.400776</ele>
        <time>2023-06-26T10:48:08.244Z</time>
      </trkpt>
      <trkpt lat="51.38186" lon="6.65308">
        <ele>79.287317</ele>
        <time>2023-06-26T10:48:10.226Z</time>
      </trkpt>
      <trkpt lat="51.38176" lon="6.65305">
        <ele>79.164986</ele>
        <time>2023-06-26T10:48:12.232Z</time>
      </trkpt>
      <trkpt lat="51.38166" lon="6.65301">
        <ele>79.050298</ele>
        <time>2023-06-26T10:48:14.227Z</time>
      </trkpt>
      <trkpt lat="51.38157" lon="6.65298">
        <ele>78.936556</ele>
        <time>2023-06-26T10:48:16.228Z</time>
      </trkpt>
      <trkpt lat="51.38147" lon="6.65295">
        <ele>78.823232</ele>
        <time>2023-06-26T10:48:18.229Z</time>
      </trkpt>
      <trkpt lat="51.38138" lon="6.65292">
        <ele>78.723962</ele>
        <time>2023-06-26T10:48:20.237Z</time>
      </trkpt>
      <trkpt lat="51.38129" lon="6.65289">
        <ele>78.758651</ele>
        <time>2023-06-26T10:48:22.235Z</time>
      </trkpt>
      <trkpt lat="51.3812" lon="6.65285">
        <ele>78.794407</ele>
        <time>2023-06-26T10:48:24.258Z</time>
      </trkpt>
      <trkpt lat="51.38111" lon="6.65283">
        <ele>78.829177</ele>
        <time>2023-06-26T10:48:26.228Z</time>
      </trkpt>
      <trkpt lat="51.38098" lon="6.6528">
        <ele>78.879561</ele>
        <time>2023-06-26T10:48:29.230Z</time>
      </trkpt>
      <trkpt lat="51.38085" lon="6.65275">
        <ele>78.929914</ele>
        <time>2023-06-26T10:48:32.230Z</time>
      </trkpt>
      <trkpt lat="51.38076" lon="6.65272">
        <ele>78.964543</ele>
        <time>2023-06-26T10:48:34.227Z</time>
      </trkpt>
      <trkpt lat="51.38067" lon="6.65269">
        <ele>79.00024</ele>
        <time>2023-06-26T10:48:36.227Z</time>
      </trkpt>
      <trkpt lat="51.38058" lon="6.65266">
        <ele>79.036134</ele>
        <time>2023-06-26T10:48:38.223Z</time>
      </trkpt>
      <trkpt lat="51.38049" lon="6.65265">
        <ele>79.071969</ele>
        <time>2023-06-26T10:48:40.212Z</time>
      </trkpt>
      <trkpt lat="51.3804" lon="6.65262">
        <ele>79.106756</ele>
        <time>2023-06-26T10:48:42.236Z</time>
      </trkpt>
      <trkpt lat="51.38031" lon="6.65259">
        <ele>79.140915</ele>
        <time>2023-06-26T10:48:44.228Z</time>
      </trkpt>
      <trkpt lat="51.38021" lon="6.65256">
        <ele>79.177312</ele>
        <time>2023-06-26T10:48:46.226Z</time>
      </trkpt>
      <trkpt lat="51.38008" lon="6.65252">
        <ele>79.229181</ele>
        <time>2023-06-26T10:48:49.235Z</time>
      </trkpt>
      <trkpt lat="51.37998" lon="6.6525">
        <ele>79.265959</ele>
        <time>2023-06-26T10:48:51.242Z</time>
      </trkpt>
      <trkpt lat="51.37989" lon="6.65248">
        <ele>79.300444</ele>
        <time>2023-06-26T10:48:53.215Z</time>
      </trkpt>
      <trkpt lat="51.3798" lon="6.65244">
        <ele>79.338526</ele>
        <time>2023-06-26T10:48:55.230Z</time>
      </trkpt>
      <trkpt lat="51.37971" lon="6.65241">
        <ele>79.373314</ele>
        <time>2023-06-26T10:48:57.250Z</time>
      </trkpt>
      <trkpt lat="51.37958" lon="6.65237">
        <ele>79.365553</ele>
        <time>2023-06-26T10:49:00.228Z</time>
      </trkpt>
      <trkpt lat="51.37946" lon="6.65234">
        <ele>79.253396</ele>
        <time>2023-06-26T10:49:03.230Z</time>
      </trkpt>
      <trkpt lat="51.37937" lon="6.65231">
        <ele>79.167228</ele>
        <time>2023-06-26T10:49:05.233Z</time>
      </trkpt>
      <trkpt lat="51.37928" lon="6.65228">
        <ele>79.080954</ele>
        <time>2023-06-26T10:49:07.239Z</time>
      </trkpt>
      <trkpt lat="51.37918" lon="6.65225">
        <ele>78.988779</ele>
        <time>2023-06-26T10:49:09.240Z</time>
      </trkpt>
      <trkpt lat="51.37908" lon="6.65222">
        <ele>78.903415</ele>
        <time>2023-06-26T10:49:11.238Z</time>
      </trkpt>
      <trkpt lat="51.37899" lon="6.65218">
        <ele>78.814966</ele>
        <time>2023-06-26T10:49:13.224Z</time>
      </trkpt>
      <trkpt lat="51.37886" lon="6.65214">
        <ele>78.691766</ele>
        <time>2023-06-26T10:49:16.228Z</time>
      </trkpt>
      <trkpt lat="51.37876" lon="6.65212">
        <ele>78.604284</ele>
        <time>2023-06-26T10:49:18.239Z</time>
      </trkpt>
      <trkpt lat="51.37863" lon="6.65208">
        <ele>78.481633</ele>
        <time>2023-06-26T10:49:21.232Z</time>
      </trkpt>
      <trkpt lat="51.37854" lon="6.65205">
        <ele>78.395359</ele>
        <time>2023-06-26T10:49:23.220Z</time>
      </trkpt>
      <trkpt lat="51.37845" lon="6.65202">
        <ele>78.313027</ele>
        <time>2023-06-26T10:49:25.230Z</time>
      </trkpt>
      <trkpt lat="51.37836" lon="6.65199">
        <ele>78.225957</ele>
        <time>2023-06-26T10:49:27.227Z</time>
      </trkpt>
      <trkpt lat="51.37827" lon="6.65196">
        <ele>78.140051</ele>
        <time>2023-06-26T10:49:29.235Z</time>
      </trkpt>
      <trkpt lat="51.37813" lon="6.65193">
        <ele>78.013283</ele>
        <time>2023-06-26T10:49:32.233Z</time>
      </trkpt>
      <trkpt lat="51.37803" lon="6.65189">
        <ele>77.920102</ele>
        <time>2023-06-26T10:49:34.222Z</time>
      </trkpt>
      <trkpt lat="51.37792" lon="6.65186">
        <ele>77.82254</ele>
        <time>2023-06-26T10:49:36.241Z</time>
      </trkpt>
      <trkpt lat="51.37782" lon="6.65183">
        <ele>77.775841</ele>
        <time>2023-06-26T10:49:38.221Z</time>
      </trkpt>
      <trkpt lat="51.37773" lon="6.65179">
        <ele>77.809249</ele>
        <time>2023-06-26T10:49:40.229Z</time>
      </trkpt>
      <trkpt lat="51.3776" lon="6.65176">
        <ele>77.856906</ele>
        <time>2023-06-26T10:49:43.224Z</time>
      </trkpt>
      <trkpt lat="51.37751" lon="6.65173">
        <ele>77.889768</ele>
        <time>2023-06-26T10:49:45.233Z</time>
      </trkpt>
      <trkpt lat="51.37741" lon="6.65169">
        <ele>77.926456</ele>
        <time>2023-06-26T10:49:47.238Z</time>
      </trkpt>
      <trkpt lat="51.37731" lon="6.65168">
        <ele>77.961897</ele>
        <time>2023-06-26T10:49:49.227Z</time>
      </trkpt>
      <trkpt lat="51.37721" lon="6.65165">
        <ele>77.998839</ele>
        <time>2023-06-26T10:49:51.218Z</time>
      </trkpt>
      <trkpt lat="51.37711" lon="6.65162">
        <ele>78.034456</ele>
        <time>2023-06-26T10:49:53.225Z</time>
      </trkpt>
      <trkpt lat="51.37701" lon="6.65159">
        <ele>78.071952</ele>
        <time>2023-06-26T10:49:55.229Z</time>
      </trkpt>
      <trkpt lat="51.3769" lon="6.65156">
        <ele>78.110232</ele>
        <time>2023-06-26T10:49:57.229Z</time>
      </trkpt>
      <trkpt lat="51.3768" lon="6.65152">
        <ele>78.148659</ele>
        <time>2023-06-26T10:49:59.235Z</time>
      </trkpt>
      <trkpt lat="51.3767" lon="6.65149">
        <ele>78.185019</ele>
        <time>2023-06-26T10:50:01.224Z</time>
      </trkpt>
      <trkpt lat="51.37659" lon="6.65146">
        <ele>78.221648</ele>
        <time>2023-06-26T10:50:03.230Z</time>
      </trkpt>
      <trkpt lat="51.37649" lon="6.65144">
        <ele>78.260248</ele>
        <time>2023-06-26T10:50:05.234Z</time>
      </trkpt>
      <trkpt lat="51.37638" lon="6.6514">
        <ele>78.299974</ele>
        <time>2023-06-26T10:50:07.229Z</time>
      </trkpt>
      <trkpt lat="51.37628" lon="6.65136">
        <ele>78.337778</ele>
        <time>2023-06-26T10:50:09.220Z</time>
      </trkpt>
      <trkpt lat="51.37617" lon="6.65133">
        <ele>78.377599</ele>
        <time>2023-06-26T10:50:11.226Z</time>
      </trkpt>
      <trkpt lat="51.37607" lon="6.6513">
        <ele>78.407178</ele>
        <time>2023-06-26T10:50:13.219Z</time>
      </trkpt>
      <trkpt lat="51.37597" lon="6.65127">
        <ele>78.418697</ele>
        <time>2023-06-26T10:50:15.232Z</time>
      </trkpt>
      <trkpt lat="51.37586" lon="6.65123">
        <ele>78.431099</ele>
        <time>2023-06-26T10:50:17.246Z</time>
      </trkpt>
      <trkpt lat="51.37576" lon="6.6512">
        <ele>78.442814</ele>
        <time>2023-06-26T10:50:19.225Z</time>
      </trkpt>
      <trkpt lat="51.37566" lon="6.65117">
        <ele>78.454373</ele>
        <time>2023-06-26T10:50:21.233Z</time>
      </trkpt>
      <trkpt lat="51.37557" lon="6.65114">
        <ele>78.465742</ele>
        <time>2023-06-26T10:50:23.223Z</time>
      </trkpt>
      <trkpt lat="51.37546" lon="6.65111">
        <ele>78.478213</ele>
        <time>2023-06-26T10:50:25.207Z</time>
      </trkpt>
      <trkpt lat="51.37535" lon="6.65107">
        <ele>78.490757</ele>
        <time>2023-06-26T10:50:27.251Z</time>
      </trkpt>
      <trkpt lat="51.37525" lon="6.65103">
        <ele>78.50295</ele>
        <time>2023-06-26T10:50:29.232Z</time>
      </trkpt>
      <trkpt lat="51.37516" lon="6.65102">
        <ele>78.513436</ele>
        <time>2023-06-26T10:50:31.231Z</time>
      </trkpt>
      <trkpt lat="51.37505" lon="6.65099">
        <ele>78.525483</ele>
        <time>2023-06-26T10:50:33.220Z</time>
      </trkpt>
      <trkpt lat="51.37496" lon="6.65096">
        <ele>78.536777</ele>
        <time>2023-06-26T10:50:35.259Z</time>
      </trkpt>
      <trkpt lat="51.37485" lon="6.65094">
        <ele>78.549153</ele>
        <time>2023-06-26T10:50:37.230Z</time>
      </trkpt>
      <trkpt lat="51.37475" lon="6.6509">
        <ele>78.561189</ele>
        <time>2023-06-26T10:50:39.221Z</time>
      </trkpt>
      <trkpt lat="51.37465" lon="6.65087">
        <ele>78.572285</ele>
        <time>2023-06-26T10:50:41.229Z</time>
      </trkpt>
      <trkpt lat="51.37456" lon="6.65085">
        <ele>78.583191</ele>
        <time>2023-06-26T10:50:43.233Z</time>
      </trkpt>
      <trkpt lat="51.37447" lon="6.65082">
        <ele>78.593611</ele>
        <time>2023-06-26T10:50:45.229Z</time>
      </trkpt>
      <trkpt lat="51.37437" lon="6.65079">
        <ele>78.604567</ele>
        <time>2023-06-26T10:50:47.247Z</time>
      </trkpt>
      <trkpt lat="51.37428" lon="6.65076">
        <ele>78.591312</ele>
        <time>2023-06-26T10:50:49.246Z</time>
      </trkpt>
      <trkpt lat="51.37418" lon="6.65073">
        <ele>78.551897</ele>
        <time>2023-06-26T10:50:51.222Z</time>
      </trkpt>
      <trkpt lat="51.37408" lon="6.6507">
        <ele>78.511344</ele>
        <time>2023-06-26T10:50:53.223Z</time>
      </trkpt>
      <trkpt lat="51.37398" lon="6.65067">
        <ele>78.471176</ele>
        <time>2023-06-26T10:50:55.247Z</time>
      </trkpt>
      <trkpt lat="51.37388" lon="6.65065">
        <ele>78.43328</ele>
        <time>2023-06-26T10:50:57.229Z</time>
      </trkpt>
      <trkpt lat="51.37379" lon="6.65063">
        <ele>78.396637</ele>
        <time>2023-06-26T10:50:59.230Z</time>
      </trkpt>
      <trkpt lat="51.3737" lon="6.65059">
        <ele>78.359383</ele>
        <time>2023-06-26T10:51:01.232Z</time>
      </trkpt>
      <trkpt lat="51.3736" lon="6.65056">
        <ele>78.32191</ele>
        <time>2023-06-26T10:51:03.218Z</time>
      </trkpt>
      <trkpt lat="51.37351" lon="6.65054">
        <ele>78.285339</ele>
        <time>2023-06-26T10:51:05.220Z</time>
      </trkpt>
      <trkpt lat="51.37341" lon="6.65051">
        <ele>78.246619</ele>
        <time>2023-06-26T10:51:07.241Z</time>
      </trkpt>
      <trkpt lat="51.37332" lon="6.65047">
        <ele>78.207849</ele>
        <time>2023-06-26T10:51:09.245Z</time>
      </trkpt>
      <trkpt lat="51.37322" lon="6.65042">
        <ele>78.167564</ele>
        <time>2023-06-26T10:51:11.239Z</time>
      </trkpt>
      <trkpt lat="51.37312" lon="6.6504">
        <ele>78.12805</ele>
        <time>2023-06-26T10:51:13.225Z</time>
      </trkpt>
      <trkpt lat="51.37302" lon="6.65037">
        <ele>78.089038</ele>
        <time>2023-06-26T10:51:15.236Z</time>
      </trkpt>
      <trkpt lat="51.37292" lon="6.65033">
        <ele>78.050004</ele>
        <time>2023-06-26T10:51:17.220Z</time>
      </trkpt>
      <trkpt lat="51.37283" lon="6.65032">
        <ele>78.012945</ele>
        <time>2023-06-26T10:51:19.226Z</time>
      </trkpt>
      <trkpt lat="51.37273" lon="6.65029">
        <ele>77.974485</ele>
        <time>2023-06-26T10:51:21.222Z</time>
      </trkpt>
      <trkpt lat="51.37264" lon="6.65026">
        <ele>77.935562</ele>
        <time>2023-06-26T10:51:23.227Z</time>
      </trkpt>
      <trkpt lat="51.37254" lon="6.65022">
        <ele>77.927522</ele>
        <time>2023-06-26T10:51:25.238Z</time>
      </trkpt>
      <trkpt lat="51.37244" lon="6.65019">
        <ele>78.01992</ele>
        <time>2023-06-26T10:51:27.233Z</time>
      </trkpt>
      <trkpt lat="51.37234" lon="6.65016">
        <ele>78.111125</ele>
        <time>2023-06-26T10:51:29.222Z</time>
      </trkpt>
      <trkpt lat="51.37224" lon="6.65013">
        <ele>78.205631</ele>
        <time>2023-06-26T10:51:31.239Z</time>
      </trkpt>
      <trkpt lat="51.37214" lon="6.6501">
        <ele>78.298722</ele>
        <time>2023-06-26T10:51:33.227Z</time>
      </trkpt>
      <trkpt lat="51.37204" lon="6.65007">
        <ele>78.39112</ele>
        <time>2023-06-26T10:51:35.226Z</time>
      </trkpt>
      <trkpt lat="51.37194" lon="6.65005">
        <ele>78.480633</ele>
        <time>2023-06-26T10:51:37.235Z</time>
      </trkpt>
      <trkpt lat="51.37184" lon="6.65">
        <ele>78.574522</ele>
        <time>2023-06-26T10:51:39.243Z</time>
      </trkpt>
      <trkpt lat="51.37174" lon="6.64997">
        <ele>78.664065</ele>
        <time>2023-06-26T10:51:41.243Z</time>
      </trkpt>
      <trkpt lat="51.37165" lon="6.64994">
        <ele>78.752004</ele>
        <time>2023-06-26T10:51:43.229Z</time>
      </trkpt>
      <trkpt lat="51.37155" lon="6.64991">
        <ele>78.838452</ele>
        <time>2023-06-26T10:51:45.231Z</time>
      </trkpt>
      <trkpt lat="51.37145" lon="6.64989">
        <ele>78.932343</ele>
        <time>2023-06-26T10:51:47.238Z</time>
      </trkpt>
      <trkpt lat="51.37136" lon="6.64985">
        <ele>79.017966</ele>
        <time>2023-06-26T10:51:49.231Z</time>
      </trkpt>
      <trkpt lat="51.37126" lon="6.64982">
        <ele>79.10764</ele>
        <time>2023-06-26T10:51:51.240Z</time>
      </trkpt>
      <trkpt lat="51.37117" lon="6.6498">
        <ele>79.197293</ele>
        <time>2023-06-26T10:51:53.223Z</time>
      </trkpt>
      <trkpt lat="51.37106" lon="6.64978">
        <ele>79.290489</ele>
        <time>2023-06-26T10:51:55.231Z</time>
      </trkpt>
      <trkpt lat="51.37096" lon="6.64975">
        <ele>79.384219</ele>
        <time>2023-06-26T10:51:57.227Z</time>
      </trkpt>
      <trkpt lat="51.37086" lon="6.64971">
        <ele>79.477062</ele>
        <time>2023-06-26T10:51:59.229Z</time>
      </trkpt>
      <trkpt lat="51.37073" lon="6.64966">
        <ele>79.556399</ele>
        <time>2023-06-26T10:52:02.231Z</time>
      </trkpt>
      <trkpt lat="51.37065" lon="6.64961">
        <ele>79.58113</ele>
        <time>2023-06-26T10:52:04.232Z</time>
      </trkpt>
      <trkpt lat="51.37055" lon="6.64957">
        <ele>79.606672</ele>
        <time>2023-06-26T10:52:06.228Z</time>
      </trkpt>
      <trkpt lat="51.37046" lon="6.64956">
        <ele>79.632459</ele>
        <time>2023-06-26T10:52:08.216Z</time>
      </trkpt>
      <trkpt lat="51.37036" lon="6.64955">
        <ele>79.658147</ele>
        <time>2023-06-26T10:52:10.228Z</time>
      </trkpt>
      <trkpt lat="51.37027" lon="6.64951">
        <ele>79.683356</ele>
        <time>2023-06-26T10:52:12.241Z</time>
      </trkpt>
      <trkpt lat="51.37016" lon="6.64948">
        <ele>79.710533</ele>
        <time>2023-06-26T10:52:14.222Z</time>
      </trkpt>
      <trkpt lat="51.37007" lon="6.64946">
        <ele>79.735855</ele>
        <time>2023-06-26T10:52:16.244Z</time>
      </trkpt>
      <trkpt lat="51.36998" lon="6.64943">
        <ele>79.7607</ele>
        <time>2023-06-26T10:52:18.234Z</time>
      </trkpt>
      <trkpt lat="51.36988" lon="6.6494">
        <ele>79.785947</ele>
        <time>2023-06-26T10:52:20.230Z</time>
      </trkpt>
      <trkpt lat="51.3698" lon="6.64937">
        <ele>79.809949</ele>
        <time>2023-06-26T10:52:22.231Z</time>
      </trkpt>
      <trkpt lat="51.36971" lon="6.64933">
        <ele>79.83429</ele>
        <time>2023-06-26T10:52:24.221Z</time>
      </trkpt>
      <trkpt lat="51.36961" lon="6.6493">
        <ele>79.86002</ele>
        <time>2023-06-26T10:52:26.237Z</time>
      </trkpt>
      <trkpt lat="51.36952" lon="6.64928">
        <ele>79.885519</ele>
        <time>2023-06-26T10:52:28.221Z</time>
      </trkpt>
      <trkpt lat="51.36942" lon="6.64925">
        <ele>79.911367</ele>
        <time>2023-06-26T10:52:30.226Z</time>
      </trkpt>
      <trkpt lat="51.36932" lon="6.64922">
        <ele>79.937154</ele>
        <time>2023-06-26T10:52:32.219Z</time>
      </trkpt>
      <trkpt lat="51.36923" lon="6.64919">
        <ele>79.962942</ele>
        <time>2023-06-26T10:52:34.222Z</time>
      </trkpt>
      <trkpt lat="51.36913" lon="6.64915">
        <ele>79.988741</ele>
        <time>2023-06-26T10:52:36.228Z</time>
      </trkpt>
      <trkpt lat="51.36901" lon="6.6491">
        <ele>80.008554</ele>
        <time>2023-06-26T10:52:39.234Z</time>
      </trkpt>
      <trkpt lat="51.36889" lon="6.64909">
        <ele>79.977921</ele>
        <time>2023-06-26T10:52:42.230Z</time>
      </trkpt>
      <trkpt lat="51.3688" lon="6.64907">
        <ele>79.955047</ele>
        <time>2023-06-26T10:52:44.217Z</time>
      </trkpt>
      <trkpt lat="51.3687" lon="6.64903">
        <ele>79.931152</ele>
        <time>2023-06-26T10:52:46.215Z</time>
      </trkpt>
      <trkpt lat="51.36861" lon="6.64901">
        <ele>79.908208</ele>
        <time>2023-06-26T10:52:48.227Z</time>
      </trkpt>
      <trkpt lat="51.36852" lon="6.64899">
        <ele>79.885639</ele>
        <time>2023-06-26T10:52:50.246Z</time>
      </trkpt>
      <trkpt lat="51.36843" lon="6.64897">
        <ele>79.863206</ele>
        <time>2023-06-26T10:52:52.252Z</time>
      </trkpt>
      <trkpt lat="51.3683" lon="6.64892">
        <ele>79.830402</ele>
        <time>2023-06-26T10:52:55.219Z</time>
      </trkpt>
      <trkpt lat="51.36817" lon="6.64887">
        <ele>79.798336</ele>
        <time>2023-06-26T10:52:58.224Z</time>
      </trkpt>
      <trkpt lat="51.36808" lon="6.64883">
        <ele>79.774983</ele>
        <time>2023-06-26T10:53:00.225Z</time>
      </trkpt>
      <trkpt lat="51.36799" lon="6.6488">
        <ele>79.752596</ele>
        <time>2023-06-26T10:53:02.227Z</time>
      </trkpt>
      <trkpt lat="51.3679" lon="6.64878">
        <ele>79.729478</ele>
        <time>2023-06-26T10:53:04.243Z</time>
      </trkpt>
      <trkpt lat="51.36781" lon="6.64875">
        <ele>79.706845</ele>
        <time>2023-06-26T10:53:06.223Z</time>
      </trkpt>
      <trkpt lat="51.36772" lon="6.64872">
        <ele>79.684037</ele>
        <time>2023-06-26T10:53:08.213Z</time>
      </trkpt>
      <trkpt lat="51.36763" lon="6.64868">
        <ele>79.662036</ele>
        <time>2023-06-26T10:53:10.238Z</time>
      </trkpt>
      <trkpt lat="51.36754" lon="6.64866">
        <ele>79.638227</ele>
        <time>2023-06-26T10:53:12.204Z</time>
      </trkpt>
      <trkpt lat="51.36744" lon="6.64862">
        <ele>79.614125</ele>
        <time>2023-06-26T10:53:14.233Z</time>
      </trkpt>
      <trkpt lat="51.36735" lon="6.64859">
        <ele>79.591074</ele>
        <time>2023-06-26T10:53:16.229Z</time>
      </trkpt>
      <trkpt lat="51.36725" lon="6.64855">
        <ele>79.581437</ele>
        <time>2023-06-26T10:53:18.226Z</time>
      </trkpt>
      <trkpt lat="51.36714" lon="6.64852">
        <ele>79.62058</ele>
        <time>2023-06-26T10:53:20.219Z</time>
      </trkpt>
      <trkpt lat="51.36704" lon="6.64848">
        <ele>79.658581</ele>
        <time>2023-06-26T10:53:22.226Z</time>
      </trkpt>
      <trkpt lat="51.36694" lon="6.64846">
        <ele>79.693291</ele>
        <time>2023-06-26T10:53:24.238Z</time>
      </trkpt>
      <trkpt lat="51.36685" lon="6.64843">
        <ele>79.726659</ele>
        <time>2023-06-26T10:53:26.234Z</time>
      </trkpt>
      <trkpt lat="51.36672" lon="6.64839">
        <ele>79.775134</ele>
        <time>2023-06-26T10:53:29.218Z</time>
      </trkpt>
      <trkpt lat="51.3666" lon="6.64835">
        <ele>79.818311</ele>
        <time>2023-06-26T10:53:32.233Z</time>
      </trkpt>
      <trkpt lat="51.36651" lon="6.64829">
        <ele>79.852094</ele>
        <time>2023-06-26T10:53:35.231Z</time>
      </trkpt>
      <trkpt lat="51.36641" lon="6.64825">
        <ele>79.889593</ele>
        <time>2023-06-26T10:53:39.246Z</time>
      </trkpt>
      <trkpt lat="51.36632" lon="6.64822">
        <ele>79.924554</ele>
        <time>2023-06-26T10:53:43.224Z</time>
      </trkpt>
      <trkpt lat="51.36622" lon="6.64818">
        <ele>79.959462</ele>
        <time>2023-06-26T10:53:48.230Z</time>
      </trkpt>
      <trkpt lat="51.36612" lon="6.64817">
        <ele>79.994289</ele>
        <time>2023-06-26T10:53:54.219Z</time>
      </trkpt>
      <trkpt lat="51.36603" lon="6.64814">
        <ele>80.028438</ele>
        <time>2023-06-26T10:54:00.212Z</time>
      </trkpt>
      <trkpt lat="51.36594" lon="6.64811">
        <ele>80.061532</ele>
        <time>2023-06-26T10:54:06.219Z</time>
      </trkpt>
      <trkpt lat="51.36585" lon="6.64809">
        <ele>80.094548</ele>
        <time>2023-06-26T10:54:12.208Z</time>
      </trkpt>
      <trkpt lat="51.36571" lon="6.64804">
        <ele>80.145565</ele>
        <time>2023-06-26T10:55:01.248Z</time>
      </trkpt>
      <trkpt lat="51.36561" lon="6.64806">
        <ele>80.179012</ele>
        <time>2023-06-26T10:55:04.232Z</time>
      </trkpt>
      <trkpt lat="51.36551" lon="6.64807">
        <ele>80.210778</ele>
        <time>2023-06-26T10:55:07.247Z</time>
      </trkpt>
      <trkpt lat="51.36539" lon="6.64807">
        <ele>80.019906</ele>
        <time>2023-06-26T10:55:10.239Z</time>
      </trkpt>
      <trkpt lat="51.36526" lon="6.64811">
        <ele>79.800584</ele>
        <time>2023-06-26T10:55:13.220Z</time>
      </trkpt>
      <trkpt lat="51.36517" lon="6.64812">
        <ele>79.649226</ele>
        <time>2023-06-26T10:55:15.227Z</time>
      </trkpt>
      <trkpt lat="51.36508" lon="6.64812">
        <ele>79.491292</ele>
        <time>2023-06-26T10:55:17.242Z</time>
      </trkpt>
      <trkpt lat="51.36498" lon="6.64813">
        <ele>79.334971</ele>
        <time>2023-06-26T10:55:19.226Z</time>
      </trkpt>
      <trkpt lat="51.36488" lon="6.64813">
        <ele>79.170397</ele>
        <time>2023-06-26T10:55:21.231Z</time>
      </trkpt>
      <trkpt lat="51.36478" lon="6.64814">
        <ele>79.009145</ele>
        <time>2023-06-26T10:55:23.225Z</time>
      </trkpt>
      <trkpt lat="51.36469" lon="6.64814">
        <ele>78.85126</ele>
        <time>2023-06-26T10:55:25.247Z</time>
      </trkpt>
      <trkpt lat="51.36459" lon="6.64813">
        <ele>78.693296</ele>
        <time>2023-06-26T10:55:27.225Z</time>
      </trkpt>
      <trkpt lat="51.3645" lon="6.64814">
        <ele>78.536895</ele>
        <time>2023-06-26T10:55:29.218Z</time>
      </trkpt>
      <trkpt lat="51.3644" lon="6.64815">
        <ele>78.382136</ele>
        <time>2023-06-26T10:55:31.243Z</time>
      </trkpt>
      <trkpt lat="51.36427" lon="6.64814">
        <ele>78.16003</ele>
        <time>2023-06-26T10:55:34.230Z</time>
      </trkpt>
      <trkpt lat="51.36418" lon="6.64814">
        <ele>78.012003</ele>
        <time>2023-06-26T10:55:36.235Z</time>
      </trkpt>
      <trkpt lat="51.36408" lon="6.64814">
        <ele>77.854002</ele>
        <time>2023-06-26T10:55:38.209Z</time>
      </trkpt>
      <trkpt lat="51.36398" lon="6.64817">
        <ele>77.692737</ele>
        <time>2023-06-26T10:55:40.247Z</time>
      </trkpt>
      <trkpt lat="51.36389" lon="6.64818">
        <ele>77.537805</ele>
        <time>2023-06-26T10:55:42.224Z</time>
      </trkpt>
      <trkpt lat="51.36379" lon="6.64818">
        <ele>77.379804</ele>
        <time>2023-06-26T10:55:44.226Z</time>
      </trkpt>
      <trkpt lat="51.3637" lon="6.6482">
        <ele>77.314761</ele>
        <time>2023-06-26T10:55:46.244Z</time>
      </trkpt>
      <trkpt lat="51.3636" lon="6.64821">
        <ele>77.558045</ele>
        <time>2023-06-26T10:55:48.248Z</time>
      </trkpt>
      <trkpt lat="51.36351" lon="6.64821">
        <ele>77.795182</ele>
        <time>2023-06-26T10:55:50.231Z</time>
      </trkpt>
      <trkpt lat="51.36341" lon="6.64822">
        <ele>78.034981</ele>
        <time>2023-06-26T10:55:52.227Z</time>
      </trkpt>
      <trkpt lat="51.36328" lon="6.64824">
        <ele>78.376301</ele>
        <time>2023-06-26T10:55:55.244Z</time>
      </trkpt>
      <trkpt lat="51.36315" lon="6.64824">
        <ele>78.686792</ele>
        <time>2023-06-26T10:55:58.222Z</time>
      </trkpt>
      <trkpt lat="51.36305" lon="6.64824">
        <ele>78.939021</ele>
        <time>2023-06-26T10:56:01.227Z</time>
      </trkpt>
      <trkpt lat="51.36286" lon="6.64828">
        <ele>79.433936</ele>
        <time>2023-06-26T10:56:25.232Z</time>
      </trkpt>
      <trkpt lat="51.36276" lon="6.64827">
        <ele>79.683682</ele>
        <time>2023-06-26T10:56:29.230Z</time>
      </trkpt>
      <trkpt lat="51.36265" lon="6.64826">
        <ele>79.959618</ele>
        <time>2023-06-26T10:56:33.240Z</time>
      </trkpt>
      <trkpt lat="51.36253" lon="6.64826">
        <ele>80.262303</ele>
        <time>2023-06-26T10:56:37.216Z</time>
      </trkpt>
      <trkpt lat="51.36244" lon="6.64827">
        <ele>80.499728</ele>
        <time>2023-06-26T10:56:40.229Z</time>
      </trkpt>
      <trkpt lat="51.36235" lon="6.64832">
        <ele>80.732145</ele>
        <time>2023-06-26T10:56:43.227Z</time>
      </trkpt>
      <trkpt lat="51.36228" lon="6.64847">
        <ele>81.016011</ele>
        <time>2023-06-26T10:56:46.212Z</time>
      </trkpt>
      <trkpt lat="51.3622" lon="6.64858">
        <ele>81.289031</ele>
        <time>2023-06-26T10:56:49.252Z</time>
      </trkpt>
      <trkpt lat="51.36212" lon="6.64867">
        <ele>81.530725</ele>
        <time>2023-06-26T10:56:52.229Z</time>
      </trkpt>
      <trkpt lat="51.36203" lon="6.64876">
        <ele>81.80084</ele>
        <time>2023-06-26T10:56:56.215Z</time>
      </trkpt>
      <trkpt lat="51.36194" lon="6.64886">
        <ele>82.062098</ele>
        <time>2023-06-26T10:57:00.236Z</time>
      </trkpt>
      <trkpt lat="51.36186" lon="6.64894">
        <ele>82.296459</ele>
        <time>2023-06-26T10:57:04.228Z</time>
      </trkpt>
      <trkpt lat="51.36178" lon="6.64903">
        <ele>82.522065</ele>
        <time>2023-06-26T10:57:08.227Z</time>
      </trkpt>
      <trkpt lat="51.3617" lon="6.64912">
        <ele>82.754676</ele>
        <time>2023-06-26T10:57:12.247Z</time>
      </trkpt>
      <trkpt lat="51.36161" lon="6.6492">
        <ele>82.994606</ele>
        <time>2023-06-26T10:57:16.228Z</time>
      </trkpt>
      <trkpt lat="51.36152" lon="6.64927">
        <ele>83.2239</ele>
        <time>2023-06-26T10:57:20.231Z</time>
      </trkpt>
      <trkpt lat="51.36143" lon="6.64936">
        <ele>83.467888</ele>
        <time>2023-06-26T10:57:24.228Z</time>
      </trkpt>
      <trkpt lat="51.36134" lon="6.64943">
        <ele>83.707821</ele>
        <time>2023-06-26T10:57:28.229Z</time>
      </trkpt>
      <trkpt lat="51.36125" lon="6.64949">
        <ele>83.95023</ele>
        <time>2023-06-26T10:57:32.223Z</time>
      </trkpt>
      <trkpt lat="51.36115" lon="6.64954">
        <ele>84.203047</ele>
        <time>2023-06-26T10:57:36.230Z</time>
      </trkpt>
      <trkpt lat="51.36105" lon="6.64957">
        <ele>84.442561</ele>
        <time>2023-06-26T10:57:40.233Z</time>
      </trkpt>
      <trkpt lat="51.36094" lon="6.64959">
        <ele>84.702224</ele>
        <time>2023-06-26T10:57:44.208Z</time>
      </trkpt>
      <trkpt lat="51.36084" lon="6.64961">
        <ele>84.922584</ele>
        <time>2023-06-26T10:57:47.229Z</time>
      </trkpt>
      <trkpt lat="51.36073" lon="6.64961">
        <ele>85.203644</ele>
        <time>2023-06-26T10:57:51.247Z</time>
      </trkpt>
      <trkpt lat="51.36062" lon="6.64958">
        <ele>85.458432</ele>
        <time>2023-06-26T10:57:55.232Z</time>
      </trkpt>
      <trkpt lat="51.36052" lon="6.64955">
        <ele>85.689442</ele>
        <time>2023-06-26T10:57:58.246Z</time>
      </trkpt>
      <trkpt lat="51.36042" lon="6.64952">
        <ele>85.940137</ele>
        <time>2023-06-26T10:58:01.242Z</time>
      </trkpt>
      <trkpt lat="51.3603" lon="6.64948">
        <ele>85.83261</ele>
        <time>2023-06-26T10:58:04.228Z</time>
      </trkpt>
      <trkpt lat="51.36017" lon="6.64943">
        <ele>85.484097</ele>
        <time>2023-06-26T10:58:07.214Z</time>
      </trkpt>
      <trkpt lat="51.36007" lon="6.64938">
        <ele>85.225894</ele>
        <time>2023-06-26T10:58:09.234Z</time>
      </trkpt>
      <trkpt lat="51.35998" lon="6.64933">
        <ele>84.960903</ele>
        <time>2023-06-26T10:58:11.242Z</time>
      </trkpt>
      <trkpt lat="51.35987" lon="6.64927">
        <ele>84.668823</ele>
        <time>2023-06-26T10:58:13.218Z</time>
      </trkpt>
      <trkpt lat="51.35977" lon="6.6492">
        <ele>84.374516</ele>
        <time>2023-06-26T10:58:15.234Z</time>
      </trkpt>
      <trkpt lat="51.35966" lon="6.64912">
        <ele>84.06751</ele>
        <time>2023-06-26T10:58:17.211Z</time>
      </trkpt>
      <trkpt lat="51.35955" lon="6.64907">
        <ele>83.752118</ele>
        <time>2023-06-26T10:58:19.252Z</time>
      </trkpt>
      <trkpt lat="51.35943" lon="6.64902">
        <ele>83.429591</ele>
        <time>2023-06-26T10:58:21.223Z</time>
      </trkpt>
      <trkpt lat="51.35933" lon="6.64898">
        <ele>83.170947</ele>
        <time>2023-06-26T10:58:23.222Z</time>
      </trkpt>
      <trkpt lat="51.35925" lon="6.64895">
        <ele>82.934881</ele>
        <time>2023-06-26T10:58:25.247Z</time>
      </trkpt>
      <trkpt lat="51.35915" lon="6.64891">
        <ele>82.674378</ele>
        <time>2023-06-26T10:58:27.240Z</time>
      </trkpt>
      <trkpt lat="51.35904" lon="6.64887">
        <ele>82.386649</ele>
        <time>2023-06-26T10:58:29.231Z</time>
      </trkpt>
      <trkpt lat="51.35894" lon="6.64883">
        <ele>82.115376</ele>
        <time>2023-06-26T10:58:31.239Z</time>
      </trkpt>
      <trkpt lat="51.35885" lon="6.64876">
        <ele>81.838613</ele>
        <time>2023-06-26T10:58:33.220Z</time>
      </trkpt>
      <trkpt lat="51.35877" lon="6.64867">
        <ele>81.59017</ele>
        <time>2023-06-26T10:58:35.222Z</time>
      </trkpt>
      <trkpt lat="51.35868" lon="6.64855">
        <ele>81.330652</ele>
        <time>2023-06-26T10:58:38.226Z</time>
      </trkpt>
      <trkpt lat="51.3586" lon="6.64846">
        <ele>81.336299</ele>
        <time>2023-06-26T10:58:41.225Z</time>
      </trkpt>
      <trkpt lat="51.3585" lon="6.6484">
        <ele>81.34231</ele>
        <time>2023-06-26T10:58:44.239Z</time>
      </trkpt>
      <trkpt lat="51.35842" lon="6.6483">
        <ele>81.348</ele>
        <time>2023-06-26T10:58:48.235Z</time>
      </trkpt>
      <trkpt lat="51.35836" lon="6.64841">
        <ele>81.353481</ele>
        <time>2023-06-26T10:58:54.214Z</time>
      </trkpt>
      <trkpt lat="51.35829" lon="6.64852">
        <ele>81.359309</ele>
        <time>2023-06-26T10:58:59.235Z</time>
      </trkpt>
      <trkpt lat="51.35819" lon="6.64858">
        <ele>81.365046</ele>
        <time>2023-06-26T10:59:04.242Z</time>
      </trkpt>
      <trkpt lat="51.35815" lon="6.64875">
        <ele>81.371726</ele>
        <time>2023-06-26T10:59:08.211Z</time>
      </trkpt>
      <trkpt lat="51.35814" lon="6.64892">
        <ele>81.378092</ele>
        <time>2023-06-26T10:59:12.222Z</time>
      </trkpt>
      <trkpt lat="51.35817" lon="6.64907">
        <ele>81.383712</ele>
        <time>2023-06-26T10:59:15.208Z</time>
      </trkpt>
      <trkpt lat="51.35823" lon="6.64922">
        <ele>81.389989</ele>
        <time>2023-06-26T10:59:18.219Z</time>
      </trkpt>
      <trkpt lat="51.35829" lon="6.64937">
        <ele>81.396333</ele>
        <time>2023-06-26T10:59:21.246Z</time>
      </trkpt>
      <trkpt lat="51.35836" lon="6.64952">
        <ele>81.40302</ele>
        <time>2023-06-26T10:59:24.247Z</time>
      </trkpt>
      <trkpt lat="51.35844" lon="6.64966">
        <ele>81.410135</ele>
        <time>2023-06-26T10:59:27.209Z</time>
      </trkpt>
      <trkpt lat="51.35852" lon="6.64973">
        <ele>81.415494</ele>
        <time>2023-06-26T10:59:29.231Z</time>
      </trkpt>
      <trkpt lat="51.35858" lon="6.64989">
        <ele>81.421985</ele>
        <time>2023-06-26T10:59:32.220Z</time>
      </trkpt>
      <trkpt lat="51.35865" lon="6.65003">
        <ele>81.428673</ele>
        <time>2023-06-26T10:59:35.235Z</time>
      </trkpt>
      <trkpt lat="51.35873" lon="6.65016">
        <ele>81.372889</ele>
        <time>2023-06-26T10:59:38.224Z</time>
      </trkpt>
      <trkpt lat="51.35879" lon="6.65031">
        <ele>81.161299</ele>
        <time>2023-06-26T10:59:41.228Z</time>
      </trkpt>
      <trkpt lat="51.35867" lon="6.65036">
        <ele>80.918185</ele>
        <time>2023-06-26T10:59:44.211Z</time>
      </trkpt>
      <trkpt lat="51.35854" lon="6.65035">
        <ele>80.664335</ele>
        <time>2023-06-26T10:59:47.228Z</time>
      </trkpt>
      <trkpt lat="51.35841" lon="6.65035">
        <ele>80.396707</ele>
        <time>2023-06-26T10:59:50.240Z</time>
      </trkpt>
      <trkpt lat="51.35828" lon="6.65034">
        <ele>80.138809</ele>
        <time>2023-06-26T10:59:53.216Z</time>
      </trkpt>
      <trkpt lat="51.35816" lon="6.65033">
        <ele>79.890996</ele>
        <time>2023-06-26T10:59:56.216Z</time>
      </trkpt>
      <trkpt lat="51.35802" lon="6.65033">
        <ele>79.625409</ele>
        <time>2023-06-26T10:59:59.230Z</time>
      </trkpt>
      <trkpt lat="51.35789" lon="6.65033">
        <ele>79.359822</ele>
        <time>2023-06-26T11:00:02.217Z</time>
      </trkpt>
      <trkpt lat="51.35776" lon="6.65033">
        <ele>79.096188</ele>
        <time>2023-06-26T11:00:05.224Z</time>
      </trkpt>
      <trkpt lat="51.35763" lon="6.65034">
        <ele>78.834301</ele>
        <time>2023-06-26T11:00:08.217Z</time>
      </trkpt>
      <trkpt lat="51.3575" lon="6.65036">
        <ele>78.587293</ele>
        <time>2023-06-26T11:00:11.242Z</time>
      </trkpt>
      <trkpt lat="51.35737" lon="6.65037">
        <ele>78.320961</ele>
        <time>2023-06-26T11:00:14.233Z</time>
      </trkpt>
      <trkpt lat="51.35725" lon="6.65042">
        <ele>78.079027</ele>
        <time>2023-06-26T11:00:17.245Z</time>
      </trkpt>
      <trkpt lat="51.35714" lon="6.65048">
        <ele>77.845791</ele>
        <time>2023-06-26T11:00:20.227Z</time>
      </trkpt>
      <trkpt lat="51.35702" lon="6.6505">
        <ele>77.982691</ele>
        <time>2023-06-26T11:00:23.238Z</time>
      </trkpt>
      <trkpt lat="51.35693" lon="6.65051">
        <ele>78.088011</ele>
        <time>2023-06-26T11:00:26.227Z</time>
      </trkpt>
      <trkpt lat="51.35684" lon="6.65052">
        <ele>78.193199</ele>
        <time>2023-06-26T11:00:29.242Z</time>
      </trkpt>
      <trkpt lat="51.35676" lon="6.65064">
        <ele>78.317183</ele>
        <time>2023-06-26T11:00:33.224Z</time>
      </trkpt>
      <trkpt lat="51.3567" lon="6.65079">
        <ele>78.448786</ele>
        <time>2023-06-26T11:00:37.230Z</time>
      </trkpt>
      <trkpt lat="51.35661" lon="6.65085">
        <ele>78.557275</ele>
        <time>2023-06-26T11:00:40.231Z</time>
      </trkpt>
      <trkpt lat="51.35653" lon="6.65093">
        <ele>78.671744</ele>
        <time>2023-06-26T11:00:43.214Z</time>
      </trkpt>
      <trkpt lat="51.35645" lon="6.65101">
        <ele>78.778256</ele>
        <time>2023-06-26T11:00:46.214Z</time>
      </trkpt>
      <trkpt lat="51.35636" lon="6.65109">
        <ele>78.899845</ele>
        <time>2023-06-26T11:00:49.229Z</time>
      </trkpt>
      <trkpt lat="51.35626" lon="6.65116">
        <ele>79.024577</ele>
        <time>2023-06-26T11:00:52.227Z</time>
      </trkpt>
      <trkpt lat="51.35616" lon="6.65125">
        <ele>79.154389</ele>
        <time>2023-06-26T11:00:55.242Z</time>
      </trkpt>
      <trkpt lat="51.35607" lon="6.65135">
        <ele>79.29072</ele>
        <time>2023-06-26T11:00:58.239Z</time>
      </trkpt>
      <trkpt lat="51.35597" lon="6.65143">
        <ele>79.417472</ele>
        <time>2023-06-26T11:01:01.244Z</time>
      </trkpt>
      <trkpt lat="51.35589" lon="6.65149">
        <ele>79.523539</ele>
        <time>2023-06-26T11:01:04.221Z</time>
      </trkpt>
      <trkpt lat="51.35578" lon="6.65155">
        <ele>79.660614</ele>
        <time>2023-06-26T11:01:08.248Z</time>
      </trkpt>
      <trkpt lat="51.35569" lon="6.65162">
        <ele>79.769707</ele>
        <time>2023-06-26T11:01:11.232Z</time>
      </trkpt>
      <trkpt lat="51.35559" lon="6.65168">
        <ele>79.890546</ele>
        <time>2023-06-26T11:01:14.224Z</time>
      </trkpt>
      <trkpt lat="51.3555" lon="6.65173">
        <ele>79.963063</ele>
        <time>2023-06-26T11:01:17.227Z</time>
      </trkpt>
      <trkpt lat="51.35542" lon="6.6518">
        <ele>80.006965</ele>
        <time>2023-06-26T11:01:20.222Z</time>
      </trkpt>
      <trkpt lat="51.35532" lon="6.65185">
        <ele>80.055108</ele>
        <time>2023-06-26T11:01:23.240Z</time>
      </trkpt>
      <trkpt lat="51.35521" lon="6.6519">
        <ele>80.104193</ele>
        <time>2023-06-26T11:01:26.238Z</time>
      </trkpt>
      <trkpt lat="51.35512" lon="6.65196">
        <ele>80.15232</ele>
        <time>2023-06-26T11:01:29.230Z</time>
      </trkpt>
      <trkpt lat="51.35502" lon="6.65201">
        <ele>80.197841</ele>
        <time>2023-06-26T11:01:32.231Z</time>
      </trkpt>
      <trkpt lat="51.35492" lon="6.65205">
        <ele>80.246733</ele>
        <time>2023-06-26T11:01:35.213Z</time>
      </trkpt>
      <trkpt lat="51.35482" lon="6.65209">
        <ele>80.291485</ele>
        <time>2023-06-26T11:01:38.231Z</time>
      </trkpt>
      <trkpt lat="51.35473" lon="6.65212">
        <ele>80.335534</ele>
        <time>2023-06-26T11:01:42.213Z</time>
      </trkpt>
      <trkpt lat="51.35462" lon="6.65216">
        <ele>80.385763</ele>
        <time>2023-06-26T11:01:46.227Z</time>
      </trkpt>
      <trkpt lat="51.35452" lon="6.6522">
        <ele>80.431851</ele>
        <time>2023-06-26T11:01:49.232Z</time>
      </trkpt>
      <trkpt lat="51.35442" lon="6.65222">
        <ele>80.480776</ele>
        <time>2023-06-26T11:01:52.224Z</time>
      </trkpt>
      <trkpt lat="51.35431" lon="6.65225">
        <ele>80.531851</ele>
        <time>2023-06-26T11:01:55.248Z</time>
      </trkpt>
      <trkpt lat="51.35421" lon="6.65228">
        <ele>80.579427</ele>
        <time>2023-06-26T11:01:58.231Z</time>
      </trkpt>
      <trkpt lat="51.35411" lon="6.65232">
        <ele>80.625421</ele>
        <time>2023-06-26T11:02:01.243Z</time>
      </trkpt>
      <trkpt lat="51.35401" lon="6.65233">
        <ele>80.672654</ele>
        <time>2023-06-26T11:02:05.224Z</time>
      </trkpt>
      <trkpt lat="51.3539" lon="6.65236">
        <ele>80.721579</ele>
        <time>2023-06-26T11:02:11.224Z</time>
      </trkpt>
      <trkpt lat="51.35381" lon="6.6524">
        <ele>80.76452</ele>
        <time>2023-06-26T11:02:15.231Z</time>
      </trkpt>
      <trkpt lat="51.35372" lon="6.65242">
        <ele>80.816401</ele>
        <time>2023-06-26T11:02:20.219Z</time>
      </trkpt>
      <trkpt lat="51.35362" lon="6.65248">
        <ele>80.876008</ele>
        <time>2023-06-26T11:02:31.236Z</time>
      </trkpt>
      <trkpt lat="51.35352" lon="6.65249">
        <ele>80.930782</ele>
        <time>2023-06-26T11:02:37.220Z</time>
      </trkpt>
      <trkpt lat="51.35343" lon="6.65249">
        <ele>80.983777</ele>
        <time>2023-06-26T11:02:43.232Z</time>
      </trkpt>
      <trkpt lat="51.35335" lon="6.65256">
        <ele>81.038319</ele>
        <time>2023-06-26T11:02:52.226Z</time>
      </trkpt>
      <trkpt lat="51.35344" lon="6.65253">
        <ele>81.090369</ele>
        <time>2023-06-26T11:03:02.223Z</time>
      </trkpt>
      <trkpt lat="51.35353" lon="6.65248">
        <ele>81.14438</ele>
        <time>2023-06-26T11:03:06.250Z</time>
      </trkpt>
      <trkpt lat="51.35362" lon="6.65245">
        <ele>81.199944</ele>
        <time>2023-06-26T11:03:10.235Z</time>
      </trkpt>
      <trkpt lat="51.3537" lon="6.65236">
        <ele>81.253653</ele>
        <time>2023-06-26T11:03:14.236Z</time>
      </trkpt>
      <trkpt lat="51.35378" lon="6.65223">
        <ele>81.317561</ele>
        <time>2023-06-26T11:03:18.221Z</time>
      </trkpt>
      <trkpt lat="51.35384" lon="6.65211">
        <ele>81.372907</ele>
        <time>2023-06-26T11:03:22.228Z</time>
      </trkpt>
      <trkpt lat="51.35389" lon="6.65199">
        <ele>81.424804</ele>
        <time>2023-06-26T11:03:25.242Z</time>
      </trkpt>
      <trkpt lat="51.35394" lon="6.65186">
        <ele>81.47753</ele>
        <time>2023-06-26T11:03:28.227Z</time>
      </trkpt>
      <trkpt lat="51.35393" lon="6.65171">
        <ele>81.528255</ele>
        <time>2023-06-26T11:03:32.207Z</time>
      </trkpt>
      <trkpt lat="51.35393" lon="6.65156">
        <ele>81.582475</ele>
        <time>2023-06-26T11:03:36.213Z</time>
      </trkpt>
      <trkpt lat="51.35393" lon="6.65139">
        <ele>81.642015</ele>
        <time>2023-06-26T11:03:40.227Z</time>
      </trkpt>
      <trkpt lat="51.35393" lon="6.65121">
        <ele>81.704339</ele>
        <time>2023-06-26T11:03:44.218Z</time>
      </trkpt>
      <trkpt lat="51.35393" lon="6.65106">
        <ele>81.758934</ele>
        <time>2023-06-26T11:03:48.230Z</time>
      </trkpt>
      <trkpt lat="51.35398" lon="6.65091">
        <ele>81.541247</ele>
        <time>2023-06-26T11:03:56.215Z</time>
      </trkpt>
      <trkpt lat="51.35407" lon="6.65086">
        <ele>81.245296</ele>
        <time>2023-06-26T11:04:00.209Z</time>
      </trkpt>
      <trkpt lat="51.35411" lon="6.65082">
        <ele>81.106033</ele>
        <time>2023-06-26T11:04:12.519Z</time>
      </trkpt>
      <trkpt lat="51.35334" lon="6.65252">
        <ele>77.275615</ele>
        <time>2023-06-26T12:04:18.253Z</time>
      </trkpt>
      <trkpt lat="51.35323" lon="6.65254">
        <ele>76.948524</ele>
        <time>2023-06-26T12:04:24.251Z</time>
      </trkpt>
      <trkpt lat="51.35312" lon="6.65257">
        <ele>76.619163</ele>
        <time>2023-06-26T12:04:28.240Z</time>
      </trkpt>
      <trkpt lat="51.35303" lon="6.65258">
        <ele>76.546068</ele>
        <time>2023-06-26T12:04:31.229Z</time>
      </trkpt>
      <trkpt lat="51.35294" lon="6.65262">
        <ele>76.584611</ele>
        <time>2023-06-26T12:04:34.224Z</time>
      </trkpt>
      <trkpt lat="51.35284" lon="6.65265">
        <ele>76.624858</ele>
        <time>2023-06-26T12:04:37.222Z</time>
      </trkpt>
      <trkpt lat="51.35274" lon="6.65264">
        <ele>76.667313</ele>
        <time>2023-06-26T12:04:40.230Z</time>
      </trkpt>
      <trkpt lat="51.35264" lon="6.65267">
        <ele>76.712064</ele>
        <time>2023-06-26T12:04:43.225Z</time>
      </trkpt>
      <trkpt lat="51.35254" lon="6.6527">
        <ele>76.754184</ele>
        <time>2023-06-26T12:04:46.244Z</time>
      </trkpt>
      <trkpt lat="51.35244" lon="6.65271">
        <ele>76.795086</ele>
        <time>2023-06-26T12:04:49.243Z</time>
      </trkpt>
      <trkpt lat="51.35233" lon="6.65273">
        <ele>76.838205</ele>
        <time>2023-06-26T12:04:52.234Z</time>
      </trkpt>
      <trkpt lat="51.35221" lon="6.65274">
        <ele>76.888211</ele>
        <time>2023-06-26T12:04:55.219Z</time>
      </trkpt>
      <trkpt lat="51.3521" lon="6.65277">
        <ele>76.935345</ele>
        <time>2023-06-26T12:04:58.222Z</time>
      </trkpt>
      <trkpt lat="51.35199" lon="6.65279">
        <ele>76.981207</ele>
        <time>2023-06-26T12:05:01.230Z</time>
      </trkpt>
      <trkpt lat="51.3519" lon="6.65281">
        <ele>77.021844</ele>
        <time>2023-06-26T12:05:04.245Z</time>
      </trkpt>
      <trkpt lat="51.35179" lon="6.65281">
        <ele>77.065131</ele>
        <time>2023-06-26T12:05:07.244Z</time>
      </trkpt>
      <trkpt lat="51.35169" lon="6.6528">
        <ele>77.108877</ele>
        <time>2023-06-26T12:05:10.204Z</time>
      </trkpt>
      <trkpt lat="51.35159" lon="6.6528">
        <ele>77.149251</ele>
        <time>2023-06-26T12:05:13.234Z</time>
      </trkpt>
      <trkpt lat="51.3515" lon="6.6528">
        <ele>77.187961</ele>
        <time>2023-06-26T12:05:16.228Z</time>
      </trkpt>
      <trkpt lat="51.35139" lon="6.65281">
        <ele>77.232538</ele>
        <time>2023-06-26T12:05:20.238Z</time>
      </trkpt>
      <trkpt lat="51.35127" lon="6.65282">
        <ele>77.268348</ele>
        <time>2023-06-26T12:05:24.227Z</time>
      </trkpt>
      <trkpt lat="51.35126" lon="6.65265">
        <ele>77.261425</ele>
        <time>2023-06-26T12:05:28.222Z</time>
      </trkpt>
      <trkpt lat="51.35128" lon="6.65251">
        <ele>77.25517</ele>
        <time>2023-06-26T12:05:31.226Z</time>
      </trkpt>
      <trkpt lat="51.3513" lon="6.65235">
        <ele>77.24861</ele>
        <time>2023-06-26T12:05:34.223Z</time>
      </trkpt>
      <trkpt lat="51.35131" lon="6.65218">
        <ele>77.241383</ele>
        <time>2023-06-26T12:05:37.237Z</time>
      </trkpt>
      <trkpt lat="51.35131" lon="6.652">
        <ele>77.234122</ele>
        <time>2023-06-26T12:05:40.315Z</time>
      </trkpt>
      <trkpt lat="51.35132" lon="6.65182">
        <ele>77.226567</ele>
        <time>2023-06-26T12:05:43.226Z</time>
      </trkpt>
      <trkpt lat="51.35133" lon="6.65165">
        <ele>77.219528</ele>
        <time>2023-06-26T12:05:46.244Z</time>
      </trkpt>
      <trkpt lat="51.35134" lon="6.65149">
        <ele>77.212817</ele>
        <time>2023-06-26T12:05:49.230Z</time>
      </trkpt>
      <trkpt lat="51.35136" lon="6.65131">
        <ele>77.205308</ele>
        <time>2023-06-26T12:05:53.217Z</time>
      </trkpt>
      <trkpt lat="51.35131" lon="6.65119">
        <ele>77.199221</ele>
        <time>2023-06-26T12:05:57.227Z</time>
      </trkpt>
      <trkpt lat="51.35121" lon="6.65118">
        <ele>77.192835</ele>
        <time>2023-06-26T12:06:00.220Z</time>
      </trkpt>
      <trkpt lat="51.35112" lon="6.65116">
        <ele>77.186789</ele>
        <time>2023-06-26T12:06:03.233Z</time>
      </trkpt>
      <trkpt lat="51.35108" lon="6.65103">
        <ele>77.180798</ele>
        <time>2023-06-26T12:06:08.231Z</time>
      </trkpt>
      <trkpt lat="51.35115" lon="6.65089">
        <ele>77.173429</ele>
        <time>2023-06-26T12:06:12.219Z</time>
      </trkpt>
      <trkpt lat="51.35121" lon="6.65073">
        <ele>77.165722</ele>
        <time>2023-06-26T12:06:16.247Z</time>
      </trkpt>
      <trkpt lat="51.35127" lon="6.65056">
        <ele>77.157767</ele>
        <time>2023-06-26T12:06:20.225Z</time>
      </trkpt>
      <trkpt lat="51.3513" lon="6.65042">
        <ele>77.151412</ele>
        <time>2023-06-26T12:06:23.226Z</time>
      </trkpt>
      <trkpt lat="51.35132" lon="6.65026">
        <ele>77.314772</ele>
        <time>2023-06-26T12:06:26.226Z</time>
      </trkpt>
      <trkpt lat="51.35135" lon="6.65012">
        <ele>77.484501</ele>
        <time>2023-06-26T12:06:29.222Z</time>
      </trkpt>
      <trkpt lat="51.35137" lon="6.64998">
        <ele>77.649278</ele>
        <time>2023-06-26T12:06:32.224Z</time>
      </trkpt>
      <trkpt lat="51.35137" lon="6.64982">
        <ele>77.827067</ele>
        <time>2023-06-26T12:06:36.207Z</time>
      </trkpt>
      <trkpt lat="51.3513" lon="6.6497">
        <ele>78.017183</ele>
        <time>2023-06-26T12:06:40.218Z</time>
      </trkpt>
      <trkpt lat="51.35121" lon="6.64966">
        <ele>78.19819</ele>
        <time>2023-06-26T12:06:43.211Z</time>
      </trkpt>
      <trkpt lat="51.35109" lon="6.64964">
        <ele>78.412048</ele>
        <time>2023-06-26T12:06:46.247Z</time>
      </trkpt>
      <trkpt lat="51.35096" lon="6.64965">
        <ele>78.647438</ele>
        <time>2023-06-26T12:06:49.239Z</time>
      </trkpt>
      <trkpt lat="51.35083" lon="6.64963">
        <ele>78.889376</ele>
        <time>2023-06-26T12:06:52.202Z</time>
      </trkpt>
      <trkpt lat="51.35073" lon="6.64962">
        <ele>79.063027</ele>
        <time>2023-06-26T12:06:54.226Z</time>
      </trkpt>
      <trkpt lat="51.35064" lon="6.64961">
        <ele>79.23274</ele>
        <time>2023-06-26T12:06:56.220Z</time>
      </trkpt>
      <trkpt lat="51.35055" lon="6.6496">
        <ele>79.4029</ele>
        <time>2023-06-26T12:06:58.223Z</time>
      </trkpt>
      <trkpt lat="51.35041" lon="6.6496">
        <ele>79.647541</ele>
        <time>2023-06-26T12:07:01.219Z</time>
      </trkpt>
      <trkpt lat="51.35032" lon="6.6496">
        <ele>79.8192</ele>
        <time>2023-06-26T12:07:03.203Z</time>
      </trkpt>
      <trkpt lat="51.35022" lon="6.6496">
        <ele>79.990727</ele>
        <time>2023-06-26T12:07:05.223Z</time>
      </trkpt>
      <trkpt lat="51.35013" lon="6.64961">
        <ele>80.16044</ele>
        <time>2023-06-26T12:07:07.221Z</time>
      </trkpt>
      <trkpt lat="51.35004" lon="6.64961">
        <ele>80.326504</ele>
        <time>2023-06-26T12:07:09.229Z</time>
      </trkpt>
      <trkpt lat="51.34991" lon="6.6496">
        <ele>80.371725</ele>
        <time>2023-06-26T12:07:12.234Z</time>
      </trkpt>
      <trkpt lat="51.34978" lon="6.64959">
        <ele>80.256778</ele>
        <time>2023-06-26T12:07:15.237Z</time>
      </trkpt>
      <trkpt lat="51.34965" lon="6.64957">
        <ele>80.142644</ele>
        <time>2023-06-26T12:07:18.217Z</time>
      </trkpt>
      <trkpt lat="51.34952" lon="6.64957">
        <ele>80.033866</ele>
        <time>2023-06-26T12:07:21.210Z</time>
      </trkpt>
      <trkpt lat="51.3494" lon="6.64955">
        <ele>79.922916</ele>
        <time>2023-06-26T12:07:24.220Z</time>
      </trkpt>
      <trkpt lat="51.34931" lon="6.64954">
        <ele>79.84361</ele>
        <time>2023-06-26T12:07:26.219Z</time>
      </trkpt>
      <trkpt lat="51.34917" lon="6.64952">
        <ele>79.724909</ele>
        <time>2023-06-26T12:07:29.236Z</time>
      </trkpt>
      <trkpt lat="51.34908" lon="6.64952">
        <ele>79.645738</ele>
        <time>2023-06-26T12:07:31.233Z</time>
      </trkpt>
      <trkpt lat="51.34899" lon="6.64952">
        <ele>79.565696</ele>
        <time>2023-06-26T12:07:33.226Z</time>
      </trkpt>
      <trkpt lat="51.34886" lon="6.64953">
        <ele>79.451736</ele>
        <time>2023-06-26T12:07:36.218Z</time>
      </trkpt>
      <trkpt lat="51.34877" lon="6.64951">
        <ele>79.37318</ele>
        <time>2023-06-26T12:07:38.220Z</time>
      </trkpt>
      <trkpt lat="51.34867" lon="6.64949">
        <ele>79.28659</ele>
        <time>2023-06-26T12:07:41.222Z</time>
      </trkpt>
      <trkpt lat="51.34857" lon="6.64947">
        <ele>79.196719</ele>
        <time>2023-06-26T12:07:44.218Z</time>
      </trkpt>
      <trkpt lat="51.34847" lon="6.64945">
        <ele>79.115458</ele>
        <time>2023-06-26T12:07:47.207Z</time>
      </trkpt>
      <trkpt lat="51.34838" lon="6.64938">
        <ele>79.027988</ele>
        <time>2023-06-26T12:07:51.211Z</time>
      </trkpt>
      <trkpt lat="51.34829" lon="6.64931">
        <ele>78.941273</ele>
        <time>2023-06-26T12:07:55.199Z</time>
      </trkpt>
      <trkpt lat="51.34818" lon="6.6493">
        <ele>78.806318</ele>
        <time>2023-06-26T12:07:59.223Z</time>
      </trkpt>
      <trkpt lat="51.3481" lon="6.64922">
        <ele>78.567991</ele>
        <time>2023-06-26T12:08:03.212Z</time>
      </trkpt>
      <trkpt lat="51.34812" lon="6.64907">
        <ele>78.329021</ele>
        <time>2023-06-26T12:08:07.223Z</time>
      </trkpt>
      <trkpt lat="51.34816" lon="6.64889">
        <ele>78.037129</ele>
        <time>2023-06-26T12:08:11.218Z</time>
      </trkpt>
      <trkpt lat="51.34818" lon="6.64873">
        <ele>77.78161</ele>
        <time>2023-06-26T12:08:14.216Z</time>
      </trkpt>
      <trkpt lat="51.34818" lon="6.64856">
        <ele>77.523974</ele>
        <time>2023-06-26T12:08:17.227Z</time>
      </trkpt>
      <trkpt lat="51.34819" lon="6.64841">
        <ele>77.293903</ele>
        <time>2023-06-26T12:08:20.218Z</time>
      </trkpt>
      <trkpt lat="51.34819" lon="6.64825">
        <ele>77.050317</ele>
        <time>2023-06-26T12:08:23.227Z</time>
      </trkpt>
      <trkpt lat="51.34813" lon="6.64811">
        <ele>76.771227</ele>
        <time>2023-06-26T12:08:27.237Z</time>
      </trkpt>
      <trkpt lat="51.34802" lon="6.64808">
        <ele>76.506546</ele>
        <time>2023-06-26T12:08:30.227Z</time>
      </trkpt>
      <trkpt lat="51.34792" lon="6.64805">
        <ele>76.254057</ele>
        <time>2023-06-26T12:08:33.224Z</time>
      </trkpt>
      <trkpt lat="51.34781" lon="6.64802">
        <ele>75.976464</ele>
        <time>2023-06-26T12:08:36.223Z</time>
      </trkpt>
      <trkpt lat="51.34772" lon="6.64799">
        <ele>75.748575</ele>
        <time>2023-06-26T12:08:39.209Z</time>
      </trkpt>
      <trkpt lat="51.34763" lon="6.64799">
        <ele>75.519028</ele>
        <time>2023-06-26T12:08:44.204Z</time>
      </trkpt>
      <trkpt lat="51.34756" lon="6.64789">
        <ele>75.290089</ele>
        <time>2023-06-26T12:08:57.227Z</time>
      </trkpt>
      <trkpt lat="51.34758" lon="6.64773">
        <ele>75.035829</ele>
        <time>2023-06-26T12:09:05.226Z</time>
      </trkpt>
      <trkpt lat="51.34748" lon="6.64772">
        <ele>74.790778</ele>
        <time>2023-06-26T12:09:11.226Z</time>
      </trkpt>
      <trkpt lat="51.34736" lon="6.64772">
        <ele>74.497026</ele>
        <time>2023-06-26T12:09:15.204Z</time>
      </trkpt>
      <trkpt lat="51.34725" lon="6.64772">
        <ele>74.368934</ele>
        <time>2023-06-26T12:09:18.223Z</time>
      </trkpt>
      <trkpt lat="51.34715" lon="6.64772">
        <ele>74.30807</ele>
        <time>2023-06-26T12:09:20.229Z</time>
      </trkpt>
      <trkpt lat="51.34705" lon="6.64772">
        <ele>74.241931</ele>
        <time>2023-06-26T12:09:22.221Z</time>
      </trkpt>
      <trkpt lat="51.34695" lon="6.64772">
        <ele>74.178454</ele>
        <time>2023-06-26T12:09:24.219Z</time>
      </trkpt>
      <trkpt lat="51.34686" lon="6.64772">
        <ele>74.116281</ele>
        <time>2023-06-26T12:09:26.189Z</time>
      </trkpt>
      <trkpt lat="51.34672" lon="6.64769">
        <ele>74.025201</ele>
        <time>2023-06-26T12:09:28.207Z</time>
      </trkpt>
      <trkpt lat="51.34657" lon="6.64773">
        <ele>73.926769</ele>
        <time>2023-06-26T12:09:30.235Z</time>
      </trkpt>
      <trkpt lat="51.34647" lon="6.64776">
        <ele>73.859313</ele>
        <time>2023-06-26T12:09:32.220Z</time>
      </trkpt>
      <trkpt lat="51.34637" lon="6.64778">
        <ele>73.789745</ele>
        <time>2023-06-26T12:09:34.237Z</time>
      </trkpt>
      <trkpt lat="51.34626" lon="6.64779">
        <ele>73.722193</ele>
        <time>2023-06-26T12:09:36.228Z</time>
      </trkpt>
      <trkpt lat="51.34616" lon="6.6478">
        <ele>73.657118</ele>
        <time>2023-06-26T12:09:38.244Z</time>
      </trkpt>
      <trkpt lat="51.34607" lon="6.64781">
        <ele>73.59668</ele>
        <time>2023-06-26T12:09:40.222Z</time>
      </trkpt>
      <trkpt lat="51.34595" lon="6.64782">
        <ele>73.517432</ele>
        <time>2023-06-26T12:09:43.223Z</time>
      </trkpt>
      <trkpt lat="51.34586" lon="6.64784">
        <ele>73.457567</ele>
        <time>2023-06-26T12:09:46.219Z</time>
      </trkpt>
      <trkpt lat="51.34574" lon="6.64782">
        <ele>73.380137</ele>
        <time>2023-06-26T12:09:50.224Z</time>
      </trkpt>
      <trkpt lat="51.34565" lon="6.64782">
        <ele>73.316661</ele>
        <time>2023-06-26T12:09:53.225Z</time>
      </trkpt>
      <trkpt lat="51.34555" lon="6.64784">
        <ele>73.252806</ele>
        <time>2023-06-26T12:09:56.224Z</time>
      </trkpt>
      <trkpt lat="51.34545" lon="6.64785">
        <ele>73.383722</ele>
        <time>2023-06-26T12:09:59.224Z</time>
      </trkpt>
      <trkpt lat="51.34534" lon="6.64785">
        <ele>73.520478</ele>
        <time>2023-06-26T12:10:02.236Z</time>
      </trkpt>
      <trkpt lat="51.34523" lon="6.64783">
        <ele>73.659072</ele>
        <time>2023-06-26T12:10:05.242Z</time>
      </trkpt>
      <trkpt lat="51.34513" lon="6.6478">
        <ele>73.800151</ele>
        <time>2023-06-26T12:10:08.223Z</time>
      </trkpt>
      <trkpt lat="51.34503" lon="6.64776">
        <ele>73.932282</ele>
        <time>2023-06-26T12:10:11.225Z</time>
      </trkpt>
      <trkpt lat="51.34494" lon="6.64771">
        <ele>74.057748</ele>
        <time>2023-06-26T12:10:14.222Z</time>
      </trkpt>
      <trkpt lat="51.34486" lon="6.6476">
        <ele>74.187511</ele>
        <time>2023-06-26T12:10:17.210Z</time>
      </trkpt>
      <trkpt lat="51.34477" lon="6.64753">
        <ele>74.321523</ele>
        <time>2023-06-26T12:10:20.218Z</time>
      </trkpt>
      <trkpt lat="51.34467" lon="6.64748">
        <ele>74.453518</ele>
        <time>2023-06-26T12:10:23.230Z</time>
      </trkpt>
      <trkpt lat="51.34458" lon="6.64745">
        <ele>74.572928</ele>
        <time>2023-06-26T12:10:26.233Z</time>
      </trkpt>
      <trkpt lat="51.3445" lon="6.64736">
        <ele>74.706876</ele>
        <time>2023-06-26T12:10:29.214Z</time>
      </trkpt>
      <trkpt lat="51.34442" lon="6.64726">
        <ele>74.84415</ele>
        <time>2023-06-26T12:10:32.227Z</time>
      </trkpt>
      <trkpt lat="51.34434" lon="6.64715">
        <ele>74.975116</ele>
        <time>2023-06-26T12:10:35.230Z</time>
      </trkpt>
      <trkpt lat="51.34426" lon="6.64703">
        <ele>75.115502</ele>
        <time>2023-06-26T12:10:38.238Z</time>
      </trkpt>
      <trkpt lat="51.34418" lon="6.64692">
        <ele>75.259378</ele>
        <time>2023-06-26T12:10:41.214Z</time>
      </trkpt>
      <trkpt lat="51.34409" lon="6.64682">
        <ele>75.399187</ele>
        <time>2023-06-26T12:10:44.221Z</time>
      </trkpt>
      <trkpt lat="51.34402" lon="6.6467">
        <ele>75.531893</ele>
        <time>2023-06-26T12:10:47.223Z</time>
      </trkpt>
      <trkpt lat="51.34395" lon="6.64658">
        <ele>75.606786</ele>
        <time>2023-06-26T12:10:50.217Z</time>
      </trkpt>
      <trkpt lat="51.34387" lon="6.64644">
        <ele>75.63223</ele>
        <time>2023-06-26T12:10:53.218Z</time>
      </trkpt>
      <trkpt lat="51.34379" lon="6.6463">
        <ele>75.659347</ele>
        <time>2023-06-26T12:10:56.216Z</time>
      </trkpt>
      <trkpt lat="51.34371" lon="6.64616">
        <ele>75.685396</ele>
        <time>2023-06-26T12:10:59.222Z</time>
      </trkpt>
      <trkpt lat="51.34362" lon="6.64601">
        <ele>75.71305</ele>
        <time>2023-06-26T12:11:02.235Z</time>
      </trkpt>
      <trkpt lat="51.34354" lon="6.64586">
        <ele>75.740789</ele>
        <time>2023-06-26T12:11:05.235Z</time>
      </trkpt>
      <trkpt lat="51.34346" lon="6.64572">
        <ele>75.767808</ele>
        <time>2023-06-26T12:11:08.224Z</time>
      </trkpt>
      <trkpt lat="51.34337" lon="6.64558">
        <ele>75.794251</ele>
        <time>2023-06-26T12:11:11.240Z</time>
      </trkpt>
      <trkpt lat="51.3433" lon="6.64544">
        <ele>75.820324</ele>
        <time>2023-06-26T12:11:14.233Z</time>
      </trkpt>
      <trkpt lat="51.34322" lon="6.6453">
        <ele>75.846314</ele>
        <time>2023-06-26T12:11:17.237Z</time>
      </trkpt>
      <trkpt lat="51.34314" lon="6.64517">
        <ele>75.871802</ele>
        <time>2023-06-26T12:11:20.218Z</time>
      </trkpt>
      <trkpt lat="51.34306" lon="6.64504">
        <ele>75.896428</ele>
        <time>2023-06-26T12:11:23.193Z</time>
      </trkpt>
      <trkpt lat="51.34299" lon="6.64491">
        <ele>75.919812</ele>
        <time>2023-06-26T12:11:26.197Z</time>
      </trkpt>
      <trkpt lat="51.34292" lon="6.64478">
        <ele>75.943488</ele>
        <time>2023-06-26T12:11:29.228Z</time>
      </trkpt>
      <trkpt lat="51.34285" lon="6.64466">
        <ele>75.966754</ele>
        <time>2023-06-26T12:11:32.218Z</time>
      </trkpt>
      <trkpt lat="51.34278" lon="6.64452">
        <ele>75.991588</ele>
        <time>2023-06-26T12:11:35.219Z</time>
      </trkpt>
      <trkpt lat="51.3427" lon="6.64441">
        <ele>75.922076</ele>
        <time>2023-06-26T12:11:38.220Z</time>
      </trkpt>
      <trkpt lat="51.34262" lon="6.64429">
        <ele>75.850426</ele>
        <time>2023-06-26T12:11:41.215Z</time>
      </trkpt>
      <trkpt lat="51.34254" lon="6.64417">
        <ele>75.776317</ele>
        <time>2023-06-26T12:11:44.220Z</time>
      </trkpt>
      <trkpt lat="51.34246" lon="6.64405">
        <ele>75.702406</ele>
        <time>2023-06-26T12:11:47.201Z</time>
      </trkpt>
      <trkpt lat="51.34237" lon="6.64395">
        <ele>75.626666</ele>
        <time>2023-06-26T12:11:50.231Z</time>
      </trkpt>
      <trkpt lat="51.34226" lon="6.64384">
        <ele>75.542558</ele>
        <time>2023-06-26T12:11:53.205Z</time>
      </trkpt>
      <trkpt lat="51.34217" lon="6.64373">
        <ele>75.465682</ele>
        <time>2023-06-26T12:11:56.210Z</time>
      </trkpt>
      <trkpt lat="51.34208" lon="6.64361">
        <ele>75.385941</ele>
        <time>2023-06-26T12:11:59.220Z</time>
      </trkpt>
      <trkpt lat="51.34199" lon="6.64349">
        <ele>75.306989</ele>
        <time>2023-06-26T12:12:02.222Z</time>
      </trkpt>
      <trkpt lat="51.34188" lon="6.64336">
        <ele>75.217772</ele>
        <time>2023-06-26T12:12:05.240Z</time>
      </trkpt>
      <trkpt lat="51.34178" lon="6.64323">
        <ele>75.126635</ele>
        <time>2023-06-26T12:12:08.224Z</time>
      </trkpt>
      <trkpt lat="51.3417" lon="6.64315">
        <ele>75.066322</ele>
        <time>2023-06-26T12:12:10.221Z</time>
      </trkpt>
      <trkpt lat="51.34163" lon="6.64305">
        <ele>75.003905</ele>
        <time>2023-06-26T12:12:12.221Z</time>
      </trkpt>
      <trkpt lat="51.34157" lon="6.64295">
        <ele>74.94021</ele>
        <time>2023-06-26T12:12:14.215Z</time>
      </trkpt>
      <trkpt lat="51.34146" lon="6.64281">
        <ele>74.849675</ele>
        <time>2023-06-26T12:12:17.223Z</time>
      </trkpt>
      <trkpt lat="51.34136" lon="6.6427">
        <ele>74.8113</ele>
        <time>2023-06-26T12:12:20.233Z</time>
      </trkpt>
      <trkpt lat="51.34128" lon="6.64257">
        <ele>74.987678</ele>
        <time>2023-06-26T12:12:23.230Z</time>
      </trkpt>
      <trkpt lat="51.34119" lon="6.64246">
        <ele>75.151763</ele>
        <time>2023-06-26T12:12:26.226Z</time>
      </trkpt>
      <trkpt lat="51.34111" lon="6.64235">
        <ele>75.324787</ele>
        <time>2023-06-26T12:12:29.223Z</time>
      </trkpt>
      <trkpt lat="51.34102" lon="6.64224">
        <ele>75.496727</ele>
        <time>2023-06-26T12:12:32.221Z</time>
      </trkpt>
      <trkpt lat="51.34093" lon="6.64215">
        <ele>75.660055</ele>
        <time>2023-06-26T12:12:35.222Z</time>
      </trkpt>
      <trkpt lat="51.34083" lon="6.64204">
        <ele>75.836032</ele>
        <time>2023-06-26T12:12:38.225Z</time>
      </trkpt>
      <trkpt lat="51.34075" lon="6.64193">
        <ele>76.009077</ele>
        <time>2023-06-26T12:12:41.230Z</time>
      </trkpt>
      <trkpt lat="51.34065" lon="6.6418">
        <ele>76.192363</ele>
        <time>2023-06-26T12:12:44.225Z</time>
      </trkpt>
      <trkpt lat="51.34057" lon="6.64167">
        <ele>76.377981</ele>
        <time>2023-06-26T12:12:47.233Z</time>
      </trkpt>
      <trkpt lat="51.34047" lon="6.64155">
        <ele>76.563035</ele>
        <time>2023-06-26T12:12:50.219Z</time>
      </trkpt>
      <trkpt lat="51.34037" lon="6.64145">
        <ele>76.740285</ele>
        <time>2023-06-26T12:12:53.218Z</time>
      </trkpt>
      <trkpt lat="51.34029" lon="6.64133">
        <ele>76.918832</ele>
        <time>2023-06-26T12:12:56.229Z</time>
      </trkpt>
      <trkpt lat="51.3402" lon="6.64121">
        <ele>77.095464</ele>
        <time>2023-06-26T12:12:59.223Z</time>
      </trkpt>
      <trkpt lat="51.3401" lon="6.6411">
        <ele>77.2775</ele>
        <time>2023-06-26T12:13:02.224Z</time>
      </trkpt>
      <trkpt lat="51.34002" lon="6.64098">
        <ele>77.45295</ele>
        <time>2023-06-26T12:13:05.228Z</time>
      </trkpt>
      <trkpt lat="51.33992" lon="6.64087">
        <ele>77.574061</ele>
        <time>2023-06-26T12:13:08.245Z</time>
      </trkpt>
      <trkpt lat="51.33983" lon="6.64076">
        <ele>77.641197</ele>
        <time>2023-06-26T12:13:11.237Z</time>
      </trkpt>
      <trkpt lat="51.33974" lon="6.64065">
        <ele>77.710539</ele>
        <time>2023-06-26T12:13:14.222Z</time>
      </trkpt>
      <trkpt lat="51.33964" lon="6.64053">
        <ele>77.782956</ele>
        <time>2023-06-26T12:13:17.218Z</time>
      </trkpt>
      <trkpt lat="51.33954" lon="6.6404">
        <ele>77.859109</ele>
        <time>2023-06-26T12:13:20.211Z</time>
      </trkpt>
      <trkpt lat="51.33945" lon="6.64028">
        <ele>77.93083</ele>
        <time>2023-06-26T12:13:23.218Z</time>
      </trkpt>
      <trkpt lat="51.33936" lon="6.64017">
        <ele>77.997709</ele>
        <time>2023-06-26T12:13:26.218Z</time>
      </trkpt>
      <trkpt lat="51.33927" lon="6.64006">
        <ele>78.064793</ele>
        <time>2023-06-26T12:13:29.234Z</time>
      </trkpt>
      <trkpt lat="51.33917" lon="6.63994">
        <ele>78.139581</ele>
        <time>2023-06-26T12:13:32.218Z</time>
      </trkpt>
      <trkpt lat="51.33907" lon="6.63981">
        <ele>78.217164</ele>
        <time>2023-06-26T12:13:35.240Z</time>
      </trkpt>
      <trkpt lat="51.339" lon="6.63971">
        <ele>78.271286</ele>
        <time>2023-06-26T12:13:37.234Z</time>
      </trkpt>
      <trkpt lat="51.33893" lon="6.63962">
        <ele>78.327687</ele>
        <time>2023-06-26T12:13:39.222Z</time>
      </trkpt>
      <trkpt lat="51.33885" lon="6.63952">
        <ele>78.385719</ele>
        <time>2023-06-26T12:13:41.228Z</time>
      </trkpt>
      <trkpt lat="51.33878" lon="6.63943">
        <ele>78.442121</ele>
        <time>2023-06-26T12:13:43.229Z</time>
      </trkpt>
      <trkpt lat="51.3387" lon="6.63933">
        <ele>78.497594</ele>
        <time>2023-06-26T12:13:45.219Z</time>
      </trkpt>
      <trkpt lat="51.33863" lon="6.63924">
        <ele>78.554925</ele>
        <time>2023-06-26T12:13:47.219Z</time>
      </trkpt>
      <trkpt lat="51.33852" lon="6.6391">
        <ele>78.579741</ele>
        <time>2023-06-26T12:13:50.223Z</time>
      </trkpt>
      <trkpt lat="51.33844" lon="6.63901">
        <ele>78.522566</ele>
        <time>2023-06-26T12:13:52.222Z</time>
      </trkpt>
      <trkpt lat="51.33837" lon="6.63891">
        <ele>78.462841</ele>
        <time>2023-06-26T12:13:54.204Z</time>
      </trkpt>
      <trkpt lat="51.33829" lon="6.63881">
        <ele>78.405643</ele>
        <time>2023-06-26T12:13:56.228Z</time>
      </trkpt>
      <trkpt lat="51.33822" lon="6.63871">
        <ele>78.348239</ele>
        <time>2023-06-26T12:13:58.235Z</time>
      </trkpt>
      <trkpt lat="51.33814" lon="6.63862">
        <ele>78.291699</ele>
        <time>2023-06-26T12:14:00.213Z</time>
      </trkpt>
      <trkpt lat="51.33807" lon="6.63852">
        <ele>78.234707</ele>
        <time>2023-06-26T12:14:02.215Z</time>
      </trkpt>
      <trkpt lat="51.33799" lon="6.63843">
        <ele>78.1793</ele>
        <time>2023-06-26T12:14:04.246Z</time>
      </trkpt>
      <trkpt lat="51.33791" lon="6.63834">
        <ele>78.121177</ele>
        <time>2023-06-26T12:14:06.221Z</time>
      </trkpt>
      <trkpt lat="51.33784" lon="6.63825">
        <ele>78.064453</ele>
        <time>2023-06-26T12:14:08.221Z</time>
      </trkpt>
      <trkpt lat="51.33776" lon="6.63815">
        <ele>78.005652</ele>
        <time>2023-06-26T12:14:10.248Z</time>
      </trkpt>
      <trkpt lat="51.33769" lon="6.63806">
        <ele>77.950571</ele>
        <time>2023-06-26T12:14:12.217Z</time>
      </trkpt>
      <trkpt lat="51.33761" lon="6.63797">
        <ele>77.894093</ele>
        <time>2023-06-26T12:14:14.220Z</time>
      </trkpt>
      <trkpt lat="51.33753" lon="6.63788">
        <ele>77.835934</ele>
        <time>2023-06-26T12:14:16.230Z</time>
      </trkpt>
      <trkpt lat="51.33746" lon="6.63778">
        <ele>77.776905</ele>
        <time>2023-06-26T12:14:18.228Z</time>
      </trkpt>
      <trkpt lat="51.33738" lon="6.63767">
        <ele>77.716651</ele>
        <time>2023-06-26T12:14:20.227Z</time>
      </trkpt>
      <trkpt lat="51.3373" lon="6.63757">
        <ele>77.655283</ele>
        <time>2023-06-26T12:14:22.221Z</time>
      </trkpt>
      <trkpt lat="51.33721" lon="6.63746">
        <ele>77.592064</ele>
        <time>2023-06-26T12:14:24.237Z</time>
      </trkpt>
      <trkpt lat="51.33713" lon="6.63736">
        <ele>77.519199</ele>
        <time>2023-06-26T12:14:26.222Z</time>
      </trkpt>
      <trkpt lat="51.33705" lon="6.63726">
        <ele>77.359493</ele>
        <time>2023-06-26T12:14:28.227Z</time>
      </trkpt>
      <trkpt lat="51.33696" lon="6.63714">
        <ele>77.196875</ele>
        <time>2023-06-26T12:14:30.225Z</time>
      </trkpt>
      <trkpt lat="51.33688" lon="6.63704">
        <ele>77.040154</ele>
        <time>2023-06-26T12:14:32.221Z</time>
      </trkpt>
      <trkpt lat="51.3368" lon="6.63693">
        <ele>76.886805</ele>
        <time>2023-06-26T12:14:34.218Z</time>
      </trkpt>
      <trkpt lat="51.33673" lon="6.63683">
        <ele>76.742251</ele>
        <time>2023-06-26T12:14:36.208Z</time>
      </trkpt>
      <trkpt lat="51.33666" lon="6.63674">
        <ele>76.608161</ele>
        <time>2023-06-26T12:14:38.234Z</time>
      </trkpt>
      <trkpt lat="51.33658" lon="6.63666">
        <ele>76.473111</ele>
        <time>2023-06-26T12:14:40.222Z</time>
      </trkpt>
      <trkpt lat="51.33651" lon="6.63656">
        <ele>76.330635</ele>
        <time>2023-06-26T12:14:42.237Z</time>
      </trkpt>
      <trkpt lat="51.33644" lon="6.63647">
        <ele>76.195391</ele>
        <time>2023-06-26T12:14:44.240Z</time>
      </trkpt>
      <trkpt lat="51.33634" lon="6.63633">
        <ele>76.003142</ele>
        <time>2023-06-26T12:14:47.236Z</time>
      </trkpt>
      <trkpt lat="51.33627" lon="6.63616">
        <ele>75.806682</ele>
        <time>2023-06-26T12:14:50.209Z</time>
      </trkpt>
      <trkpt lat="51.3362" lon="6.63605">
        <ele>75.668404</ele>
        <time>2023-06-26T12:14:52.221Z</time>
      </trkpt>
      <trkpt lat="51.33613" lon="6.63595">
        <ele>75.521527</ele>
        <time>2023-06-26T12:14:54.222Z</time>
      </trkpt>
      <trkpt lat="51.33605" lon="6.63587">
        <ele>75.3842</ele>
        <time>2023-06-26T12:14:56.225Z</time>
      </trkpt>
      <trkpt lat="51.33598" lon="6.63578">
        <ele>75.248365</ele>
        <time>2023-06-26T12:14:58.227Z</time>
      </trkpt>
      <trkpt lat="51.3359" lon="6.63569">
        <ele>75.106473</ele>
        <time>2023-06-26T12:15:00.218Z</time>
      </trkpt>
      <trkpt lat="51.33578" lon="6.63559">
        <ele>74.907068</ele>
        <time>2023-06-26T12:15:03.231Z</time>
      </trkpt>
      <trkpt lat="51.3357" lon="6.6355">
        <ele>74.902367</ele>
        <time>2023-06-26T12:15:05.222Z</time>
      </trkpt>
      <trkpt lat="51.33562" lon="6.63542">
        <ele>74.957529</ele>
        <time>2023-06-26T12:15:07.224Z</time>
      </trkpt>
      <trkpt lat="51.33553" lon="6.63534">
        <ele>75.01115</ele>
        <time>2023-06-26T12:15:09.222Z</time>
      </trkpt>
      <trkpt lat="51.33545" lon="6.63527">
        <ele>75.06352</ele>
        <time>2023-06-26T12:15:11.207Z</time>
      </trkpt>
      <trkpt lat="51.33537" lon="6.63518">
        <ele>75.119977</ele>
        <time>2023-06-26T12:15:13.219Z</time>
      </trkpt>
      <trkpt lat="51.33529" lon="6.63509">
        <ele>75.173087</ele>
        <time>2023-06-26T12:15:15.223Z</time>
      </trkpt>
      <trkpt lat="51.33525" lon="6.63495">
        <ele>75.229619</ele>
        <time>2023-06-26T12:15:17.218Z</time>
      </trkpt>
      <trkpt lat="51.3352" lon="6.6348">
        <ele>75.287597</ele>
        <time>2023-06-26T12:15:19.225Z</time>
      </trkpt>
      <trkpt lat="51.33515" lon="6.63467">
        <ele>75.342873</ele>
        <time>2023-06-26T12:15:21.240Z</time>
      </trkpt>
      <trkpt lat="51.33507" lon="6.63451">
        <ele>75.41663</ele>
        <time>2023-06-26T12:15:24.223Z</time>
      </trkpt>
      <trkpt lat="51.33505" lon="6.63436">
        <ele>75.471156</ele>
        <time>2023-06-26T12:15:26.215Z</time>
      </trkpt>
      <trkpt lat="51.33506" lon="6.63421">
        <ele>75.523267</ele>
        <time>2023-06-26T12:15:28.220Z</time>
      </trkpt>
      <trkpt lat="51.33508" lon="6.63401">
        <ele>75.595704</ele>
        <time>2023-06-26T12:15:31.224Z</time>
      </trkpt>
      <trkpt lat="51.33509" lon="6.6338">
        <ele>75.668089</ele>
        <time>2023-06-26T12:15:34.231Z</time>
      </trkpt>
      <trkpt lat="51.3351" lon="6.63361">
        <ele>75.736467</ele>
        <time>2023-06-26T12:15:37.241Z</time>
      </trkpt>
      <trkpt lat="51.33512" lon="6.63342">
        <ele>75.803861</ele>
        <time>2023-06-26T12:15:40.232Z</time>
      </trkpt>
      <trkpt lat="51.33513" lon="6.63324">
        <ele>75.869194</ele>
        <time>2023-06-26T12:15:43.211Z</time>
      </trkpt>
      <trkpt lat="51.33514" lon="6.63305">
        <ele>75.901837</ele>
        <time>2023-06-26T12:15:46.224Z</time>
      </trkpt>
      <trkpt lat="51.33515" lon="6.63286">
        <ele>75.928852</ele>
        <time>2023-06-26T12:15:49.225Z</time>
      </trkpt>
      <trkpt lat="51.33516" lon="6.63268">
        <ele>75.953078</ele>
        <time>2023-06-26T12:15:52.219Z</time>
      </trkpt>
      <trkpt lat="51.33519" lon="6.63251">
        <ele>75.978559</ele>
        <time>2023-06-26T12:15:55.207Z</time>
      </trkpt>
      <trkpt lat="51.33523" lon="6.63235">
        <ele>76.000892</ele>
        <time>2023-06-26T12:15:58.219Z</time>
      </trkpt>
      <trkpt lat="51.33525" lon="6.63218">
        <ele>76.025084</ele>
        <time>2023-06-26T12:16:01.228Z</time>
      </trkpt>
      <trkpt lat="51.33529" lon="6.63201">
        <ele>76.049875</ele>
        <time>2023-06-26T12:16:04.220Z</time>
      </trkpt>
      <trkpt lat="51.33531" lon="6.63184">
        <ele>76.074034</ele>
        <time>2023-06-26T12:16:07.230Z</time>
      </trkpt>
      <trkpt lat="51.33528" lon="6.63167">
        <ele>76.098403</ele>
        <time>2023-06-26T12:16:11.224Z</time>
      </trkpt>
      <trkpt lat="51.33523" lon="6.63154">
        <ele>76.11965</ele>
        <time>2023-06-26T12:16:16.227Z</time>
      </trkpt>
      <trkpt lat="51.33525" lon="6.63136">
        <ele>76.144941</ele>
        <time>2023-06-26T12:17:13.214Z</time>
      </trkpt>
      <trkpt lat="51.33527" lon="6.6312">
        <ele>76.166946</ele>
        <time>2023-06-26T12:17:18.234Z</time>
      </trkpt>
      <trkpt lat="51.33512" lon="6.63107">
        <ele>76.202924</ele>
        <time>2023-06-26T12:19:24.241Z</time>
      </trkpt>
      <trkpt lat="51.33504" lon="6.631">
        <ele>76.224105</ele>
        <time>2023-06-26T12:19:29.224Z</time>
      </trkpt>
      <trkpt lat="51.33494" lon="6.63092">
        <ele>76.248076</ele>
        <time>2023-06-26T12:19:33.211Z</time>
      </trkpt>
      <trkpt lat="51.33487" lon="6.63081">
        <ele>76.270626</ele>
        <time>2023-06-26T12:19:37.227Z</time>
      </trkpt>
      <trkpt lat="51.33481" lon="6.63068">
        <ele>76.356732</ele>
        <time>2023-06-26T12:19:41.211Z</time>
      </trkpt>
      <trkpt lat="51.33477" lon="6.63053">
        <ele>76.473396</ele>
        <time>2023-06-26T12:19:45.223Z</time>
      </trkpt>
      <trkpt lat="51.33473" lon="6.63036">
        <ele>76.598764</ele>
        <time>2023-06-26T12:19:49.224Z</time>
      </trkpt>
      <trkpt lat="51.33477" lon="6.63051">
        <ele>76.714786</ele>
        <time>2023-06-26T12:20:02.233Z</time>
      </trkpt>
      <trkpt lat="51.3347" lon="6.6306">
        <ele>76.816926</ele>
        <time>2023-06-26T12:20:07.215Z</time>
      </trkpt>
      <trkpt lat="51.33462" lon="6.6305">
        <ele>76.929153</ele>
        <time>2023-06-26T12:20:10.201Z</time>
      </trkpt>
      <trkpt lat="51.33455" lon="6.63038">
        <ele>77.039303</ele>
        <time>2023-06-26T12:20:13.218Z</time>
      </trkpt>
      <trkpt lat="51.33449" lon="6.63024">
        <ele>77.162346</ele>
        <time>2023-06-26T12:20:16.229Z</time>
      </trkpt>
      <trkpt lat="51.33444" lon="6.63009">
        <ele>77.284685</ele>
        <time>2023-06-26T12:20:19.225Z</time>
      </trkpt>
      <trkpt lat="51.33438" lon="6.62994">
        <ele>77.411783</ele>
        <time>2023-06-26T12:20:22.222Z</time>
      </trkpt>
      <trkpt lat="51.33434" lon="6.62975">
        <ele>77.551812</ele>
        <time>2023-06-26T12:20:25.226Z</time>
      </trkpt>
      <trkpt lat="51.33429" lon="6.6296">
        <ele>77.674804</ele>
        <time>2023-06-26T12:20:28.218Z</time>
      </trkpt>
      <trkpt lat="51.33425" lon="6.62944">
        <ele>77.79502</ele>
        <time>2023-06-26T12:20:31.214Z</time>
      </trkpt>
      <trkpt lat="51.33422" lon="6.62927">
        <ele>77.919183</ele>
        <time>2023-06-26T12:20:34.234Z</time>
      </trkpt>
      <trkpt lat="51.33419" lon="6.62911">
        <ele>78.036458</ele>
        <time>2023-06-26T12:20:37.225Z</time>
      </trkpt>
      <trkpt lat="51.33416" lon="6.62893">
        <ele>78.171409</ele>
        <time>2023-06-26T12:20:40.219Z</time>
      </trkpt>
      <trkpt lat="51.33412" lon="6.62876">
        <ele>78.295721</ele>
        <time>2023-06-26T12:20:43.221Z</time>
      </trkpt>
      <trkpt lat="51.33407" lon="6.62859">
        <ele>78.301423</ele>
        <time>2023-06-26T12:20:46.224Z</time>
      </trkpt>
      <trkpt lat="51.33401" lon="6.62843">
        <ele>78.288611</ele>
        <time>2023-06-26T12:20:49.224Z</time>
      </trkpt>
      <trkpt lat="51.33393" lon="6.62828">
        <ele>78.275524</ele>
        <time>2023-06-26T12:20:52.221Z</time>
      </trkpt>
      <trkpt lat="51.33384" lon="6.62816">
        <ele>78.262039</ele>
        <time>2023-06-26T12:20:55.227Z</time>
      </trkpt>
      <trkpt lat="51.33375" lon="6.62804">
        <ele>78.249497</ele>
        <time>2023-06-26T12:20:58.236Z</time>
      </trkpt>
      <trkpt lat="51.33365" lon="6.62793">
        <ele>78.236654</ele>
        <time>2023-06-26T12:21:01.236Z</time>
      </trkpt>
      <trkpt lat="51.33354" lon="6.62786">
        <ele>78.223687</ele>
        <time>2023-06-26T12:21:04.213Z</time>
      </trkpt>
      <trkpt lat="51.33342" lon="6.62783">
        <ele>78.210352</ele>
        <time>2023-06-26T12:21:07.236Z</time>
      </trkpt>
      <trkpt lat="51.33331" lon="6.62779">
        <ele>78.197521</ele>
        <time>2023-06-26T12:21:10.215Z</time>
      </trkpt>
      <trkpt lat="51.33319" lon="6.62777">
        <ele>78.184613</ele>
        <time>2023-06-26T12:21:13.212Z</time>
      </trkpt>
      <trkpt lat="51.33306" lon="6.62779">
        <ele>78.171041</ele>
        <time>2023-06-26T12:21:16.236Z</time>
      </trkpt>
      <trkpt lat="51.33294" lon="6.62784">
        <ele>78.157603</ele>
        <time>2023-06-26T12:21:19.224Z</time>
      </trkpt>
      <trkpt lat="51.33283" lon="6.6279">
        <ele>78.144219</ele>
        <time>2023-06-26T12:21:22.214Z</time>
      </trkpt>
      <trkpt lat="51.33271" lon="6.62797">
        <ele>78.130569</ele>
        <time>2023-06-26T12:21:25.226Z</time>
      </trkpt>
      <trkpt lat="51.3326" lon="6.62806">
        <ele>78.116956</ele>
        <time>2023-06-26T12:21:28.223Z</time>
      </trkpt>
      <trkpt lat="51.3325" lon="6.62814">
        <ele>78.064709</ele>
        <time>2023-06-26T12:21:31.221Z</time>
      </trkpt>
      <trkpt lat="51.33238" lon="6.62822">
        <ele>78.006271</ele>
        <time>2023-06-26T12:21:34.233Z</time>
      </trkpt>
      <trkpt lat="51.33228" lon="6.62828">
        <ele>77.953614</ele>
        <time>2023-06-26T12:21:37.209Z</time>
      </trkpt>
      <trkpt lat="51.33216" lon="6.62838">
        <ele>77.890203</ele>
        <time>2023-06-26T12:21:40.219Z</time>
      </trkpt>
      <trkpt lat="51.33205" lon="6.62845">
        <ele>77.837546</ele>
        <time>2023-06-26T12:21:43.219Z</time>
      </trkpt>
      <trkpt lat="51.33195" lon="6.62853">
        <ele>77.785296</ele>
        <time>2023-06-26T12:21:46.238Z</time>
      </trkpt>
      <trkpt lat="51.33184" lon="6.62862">
        <ele>77.724375</ele>
        <time>2023-06-26T12:21:49.238Z</time>
      </trkpt>
      <trkpt lat="51.33173" lon="6.6287">
        <ele>77.669578</ele>
        <time>2023-06-26T12:21:52.240Z</time>
      </trkpt>
      <trkpt lat="51.33162" lon="6.62878">
        <ele>77.612665</ele>
        <time>2023-06-26T12:21:55.228Z</time>
      </trkpt>
      <trkpt lat="51.33151" lon="6.62885">
        <ele>77.555539</ele>
        <time>2023-06-26T12:21:58.219Z</time>
      </trkpt>
      <trkpt lat="51.3314" lon="6.62894">
        <ele>77.49793</ele>
        <time>2023-06-26T12:22:01.221Z</time>
      </trkpt>
      <trkpt lat="51.33128" lon="6.62902">
        <ele>77.436412</ele>
        <time>2023-06-26T12:22:04.207Z</time>
      </trkpt>
      <trkpt lat="51.33116" lon="6.6291">
        <ele>77.37688</ele>
        <time>2023-06-26T12:22:07.208Z</time>
      </trkpt>
      <trkpt lat="51.33105" lon="6.62918">
        <ele>77.31781</ele>
        <time>2023-06-26T12:22:10.218Z</time>
      </trkpt>
      <trkpt lat="51.33096" lon="6.62923">
        <ele>77.275275</ele>
        <time>2023-06-26T12:22:12.235Z</time>
      </trkpt>
      <trkpt lat="51.33088" lon="6.62929">
        <ele>77.346426</ele>
        <time>2023-06-26T12:22:14.223Z</time>
      </trkpt>
      <trkpt lat="51.33076" lon="6.62938">
        <ele>77.463956</ele>
        <time>2023-06-26T12:22:17.244Z</time>
      </trkpt>
      <trkpt lat="51.33064" lon="6.62944">
        <ele>77.574232</ele>
        <time>2023-06-26T12:22:20.224Z</time>
      </trkpt>
      <trkpt lat="51.33053" lon="6.62951">
        <ele>77.683288</ele>
        <time>2023-06-26T12:22:23.225Z</time>
      </trkpt>
      <trkpt lat="51.33041" lon="6.62957">
        <ele>77.791602</ele>
        <time>2023-06-26T12:22:26.219Z</time>
      </trkpt>
      <trkpt lat="51.33029" lon="6.62965">
        <ele>77.910174</ele>
        <time>2023-06-26T12:22:29.204Z</time>
      </trkpt>
      <trkpt lat="51.33016" lon="6.62971">
        <ele>78.026463</ele>
        <time>2023-06-26T12:22:32.244Z</time>
      </trkpt>
      <trkpt lat="51.33004" lon="6.62977">
        <ele>78.14291</ele>
        <time>2023-06-26T12:22:35.222Z</time>
      </trkpt>
      <trkpt lat="51.32995" lon="6.62981">
        <ele>78.223572</ele>
        <time>2023-06-26T12:22:37.222Z</time>
      </trkpt>
      <trkpt lat="51.32986" lon="6.62983">
        <ele>78.306713</ele>
        <time>2023-06-26T12:22:39.222Z</time>
      </trkpt>
      <trkpt lat="51.32976" lon="6.62982">
        <ele>78.390568</ele>
        <time>2023-06-26T12:22:41.232Z</time>
      </trkpt>
      <trkpt lat="51.32968" lon="6.62977">
        <ele>78.471547</ele>
        <time>2023-06-26T12:22:43.211Z</time>
      </trkpt>
      <trkpt lat="51.3296" lon="6.62966">
        <ele>78.566572</ele>
        <time>2023-06-26T12:22:46.213Z</time>
      </trkpt>
      <trkpt lat="51.32951" lon="6.62962">
        <ele>78.648799</ele>
        <time>2023-06-26T12:22:55.226Z</time>
      </trkpt>
      <trkpt lat="51.32946" lon="6.62977">
        <ele>78.739678</ele>
        <time>2023-06-26T12:22:59.208Z</time>
      </trkpt>
      <trkpt lat="51.32939" lon="6.62991">
        <ele>78.840932</ele>
        <time>2023-06-26T12:23:03.214Z</time>
      </trkpt>
      <trkpt lat="51.32932" lon="6.63002">
        <ele>78.881762</ele>
        <time>2023-06-26T12:23:06.217Z</time>
      </trkpt>
      <trkpt lat="51.32923" lon="6.63013">
        <ele>78.895845</ele>
        <time>2023-06-26T12:23:09.208Z</time>
      </trkpt>
      <trkpt lat="51.32911" lon="6.6302">
        <ele>78.911521</ele>
        <time>2023-06-26T12:23:12.232Z</time>
      </trkpt>
      <trkpt lat="51.32898" lon="6.63024">
        <ele>78.926318</ele>
        <time>2023-06-26T12:23:15.231Z</time>
      </trkpt>
      <trkpt lat="51.32885" lon="6.63022">
        <ele>78.942137</ele>
        <time>2023-06-26T12:23:18.221Z</time>
      </trkpt>
      <trkpt lat="51.32872" lon="6.63022">
        <ele>78.95805</ele>
        <time>2023-06-26T12:23:21.218Z</time>
      </trkpt>
      <trkpt lat="51.32863" lon="6.63024">
        <ele>78.968944</ele>
        <time>2023-06-26T12:23:23.227Z</time>
      </trkpt>
      <trkpt lat="51.32854" lon="6.63024">
        <ele>78.980278</ele>
        <time>2023-06-26T12:23:25.196Z</time>
      </trkpt>
      <trkpt lat="51.32845" lon="6.63024">
        <ele>78.991381</ele>
        <time>2023-06-26T12:23:27.215Z</time>
      </trkpt>
      <trkpt lat="51.32831" lon="6.63026">
        <ele>79.007613</ele>
        <time>2023-06-26T12:23:30.229Z</time>
      </trkpt>
      <trkpt lat="51.32822" lon="6.63028">
        <ele>79.018547</ele>
        <time>2023-06-26T12:23:32.219Z</time>
      </trkpt>
      <trkpt lat="51.32813" lon="6.63031">
        <ele>79.029785</ele>
        <time>2023-06-26T12:23:34.216Z</time>
      </trkpt>
      <trkpt lat="51.32804" lon="6.63032">
        <ele>79.040949</ele>
        <time>2023-06-26T12:23:36.215Z</time>
      </trkpt>
      <trkpt lat="51.32794" lon="6.63035">
        <ele>79.05245</ele>
        <time>2023-06-26T12:23:38.219Z</time>
      </trkpt>
      <trkpt lat="51.32785" lon="6.63037">
        <ele>79.064044</ele>
        <time>2023-06-26T12:23:40.224Z</time>
      </trkpt>
      <trkpt lat="51.32775" lon="6.63041">
        <ele>79.076401</ele>
        <time>2023-06-26T12:23:42.237Z</time>
      </trkpt>
      <trkpt lat="51.32765" lon="6.63043">
        <ele>79.088182</ele>
        <time>2023-06-26T12:23:44.221Z</time>
      </trkpt>
      <trkpt lat="51.32755" lon="6.63046">
        <ele>79.037987</ele>
        <time>2023-06-26T12:23:46.233Z</time>
      </trkpt>
      <trkpt lat="51.32745" lon="6.63049">
        <ele>78.966825</ele>
        <time>2023-06-26T12:23:48.217Z</time>
      </trkpt>
      <trkpt lat="51.32735" lon="6.63052">
        <ele>78.896021</ele>
        <time>2023-06-26T12:23:50.220Z</time>
      </trkpt>
      <trkpt lat="51.32725" lon="6.63055">
        <ele>78.825217</ele>
        <time>2023-06-26T12:23:52.226Z</time>
      </trkpt>
      <trkpt lat="51.32715" lon="6.63058">
        <ele>78.754937</ele>
        <time>2023-06-26T12:23:54.241Z</time>
      </trkpt>
      <trkpt lat="51.32706" lon="6.6306">
        <ele>78.684449</ele>
        <time>2023-06-26T12:23:56.217Z</time>
      </trkpt>
      <trkpt lat="51.32696" lon="6.63063">
        <ele>78.615418</ele>
        <time>2023-06-26T12:23:58.224Z</time>
      </trkpt>
      <trkpt lat="51.32686" lon="6.63066">
        <ele>78.547453</ele>
        <time>2023-06-26T12:24:00.219Z</time>
      </trkpt>
      <trkpt lat="51.32677" lon="6.63069">
        <ele>78.483872</ele>
        <time>2023-06-26T12:24:02.229Z</time>
      </trkpt>
      <trkpt lat="51.32668" lon="6.63072">
        <ele>78.415349</ele>
        <time>2023-06-26T12:24:04.222Z</time>
      </trkpt>
      <trkpt lat="51.32659" lon="6.63075">
        <ele>78.348929</ele>
        <time>2023-06-26T12:24:06.217Z</time>
      </trkpt>
      <trkpt lat="51.32649" lon="6.63077">
        <ele>78.281882</ele>
        <time>2023-06-26T12:24:08.241Z</time>
      </trkpt>
      <trkpt lat="51.3264" lon="6.63079">
        <ele>78.21602</ele>
        <time>2023-06-26T12:24:10.223Z</time>
      </trkpt>
      <trkpt lat="51.32631" lon="6.63081">
        <ele>78.150035</ele>
        <time>2023-06-26T12:24:12.240Z</time>
      </trkpt>
      <trkpt lat="51.32622" lon="6.63085">
        <ele>78.084474</ele>
        <time>2023-06-26T12:24:14.217Z</time>
      </trkpt>
      <trkpt lat="51.32609" lon="6.63094">
        <ele>77.988156</ele>
        <time>2023-06-26T12:24:17.219Z</time>
      </trkpt>
      <trkpt lat="51.326" lon="6.63101">
        <ele>77.920028</ele>
        <time>2023-06-26T12:24:19.225Z</time>
      </trkpt>
      <trkpt lat="51.32592" lon="6.6311">
        <ele>77.847194</ele>
        <time>2023-06-26T12:24:21.221Z</time>
      </trkpt>
      <trkpt lat="51.32583" lon="6.6312">
        <ele>77.630617</ele>
        <time>2023-06-26T12:24:23.242Z</time>
      </trkpt>
      <trkpt lat="51.32577" lon="6.63132">
        <ele>77.366698</ele>
        <time>2023-06-26T12:24:25.220Z</time>
      </trkpt>
      <trkpt lat="51.3257" lon="6.63144">
        <ele>77.112826</ele>
        <time>2023-06-26T12:24:27.216Z</time>
      </trkpt>
      <trkpt lat="51.32563" lon="6.63157">
        <ele>76.847212</ele>
        <time>2023-06-26T12:24:29.222Z</time>
      </trkpt>
      <trkpt lat="51.32556" lon="6.63169">
        <ele>76.589068</ele>
        <time>2023-06-26T12:24:31.222Z</time>
      </trkpt>
      <trkpt lat="51.32549" lon="6.63182">
        <ele>76.297199</ele>
        <time>2023-06-26T12:24:33.204Z</time>
      </trkpt>
      <trkpt lat="51.32541" lon="6.63197">
        <ele>75.988962</ele>
        <time>2023-06-26T12:24:35.208Z</time>
      </trkpt>
      <trkpt lat="51.32533" lon="6.63211">
        <ele>75.695624</ele>
        <time>2023-06-26T12:24:37.204Z</time>
      </trkpt>
      <trkpt lat="51.32526" lon="6.63224">
        <ele>75.404404</ele>
        <time>2023-06-26T12:24:39.205Z</time>
      </trkpt>
      <trkpt lat="51.32518" lon="6.63238">
        <ele>75.102097</ele>
        <time>2023-06-26T12:24:41.209Z</time>
      </trkpt>
      <trkpt lat="51.32509" lon="6.63252">
        <ele>74.778093</ele>
        <time>2023-06-26T12:24:43.204Z</time>
      </trkpt>
      <trkpt lat="51.32499" lon="6.63266">
        <ele>74.434196</ele>
        <time>2023-06-26T12:24:45.202Z</time>
      </trkpt>
      <trkpt lat="51.32487" lon="6.63276">
        <ele>74.096125</ele>
        <time>2023-06-26T12:24:47.216Z</time>
      </trkpt>
      <trkpt lat="51.32475" lon="6.63285">
        <ele>73.773166</ele>
        <time>2023-06-26T12:24:49.222Z</time>
      </trkpt>
      <trkpt lat="51.32463" lon="6.63293">
        <ele>73.436773</ele>
        <time>2023-06-26T12:24:51.222Z</time>
      </trkpt>
      <trkpt lat="51.32452" lon="6.633">
        <ele>73.277339</ele>
        <time>2023-06-26T12:24:53.223Z</time>
      </trkpt>
      <trkpt lat="51.3244" lon="6.63306">
        <ele>73.431099</ele>
        <time>2023-06-26T12:24:55.213Z</time>
      </trkpt>
      <trkpt lat="51.32429" lon="6.63314">
        <ele>73.583798</ele>
        <time>2023-06-26T12:24:57.204Z</time>
      </trkpt>
      <trkpt lat="51.32418" lon="6.63322">
        <ele>73.734979</ele>
        <time>2023-06-26T12:24:59.207Z</time>
      </trkpt>
      <trkpt lat="51.32407" lon="6.63329">
        <ele>73.885701</ele>
        <time>2023-06-26T12:25:01.207Z</time>
      </trkpt>
      <trkpt lat="51.32396" lon="6.63334">
        <ele>74.022244</ele>
        <time>2023-06-26T12:25:03.211Z</time>
      </trkpt>
      <trkpt lat="51.32386" lon="6.63341">
        <ele>74.160399</ele>
        <time>2023-06-26T12:25:05.202Z</time>
      </trkpt>
      <trkpt lat="51.32377" lon="6.6335">
        <ele>74.295221</ele>
        <time>2023-06-26T12:25:07.205Z</time>
      </trkpt>
      <trkpt lat="51.32368" lon="6.63356">
        <ele>74.419922</ele>
        <time>2023-06-26T12:25:09.229Z</time>
      </trkpt>
      <trkpt lat="51.32359" lon="6.63362">
        <ele>74.540841</ele>
        <time>2023-06-26T12:25:11.235Z</time>
      </trkpt>
      <trkpt lat="51.3235" lon="6.63368">
        <ele>74.660122</ele>
        <time>2023-06-26T12:25:13.209Z</time>
      </trkpt>
      <trkpt lat="51.32342" lon="6.63375">
        <ele>74.780812</ele>
        <time>2023-06-26T12:25:15.222Z</time>
      </trkpt>
      <trkpt lat="51.32333" lon="6.63381">
        <ele>74.902651</ele>
        <time>2023-06-26T12:25:17.216Z</time>
      </trkpt>
      <trkpt lat="51.32323" lon="6.63387">
        <ele>75.027351</ele>
        <time>2023-06-26T12:25:19.239Z</time>
      </trkpt>
      <trkpt lat="51.32315" lon="6.63393">
        <ele>75.14888</ele>
        <time>2023-06-26T12:25:21.217Z</time>
      </trkpt>
      <trkpt lat="51.32306" lon="6.63398">
        <ele>75.269805</ele>
        <time>2023-06-26T12:25:23.216Z</time>
      </trkpt>
      <trkpt lat="51.32297" lon="6.63404">
        <ele>75.387254</ele>
        <time>2023-06-26T12:25:25.206Z</time>
      </trkpt>
      <trkpt lat="51.32285" lon="6.63412">
        <ele>75.501468</ele>
        <time>2023-06-26T12:25:28.219Z</time>
      </trkpt>
      <trkpt lat="51.32274" lon="6.63419">
        <ele>75.544978</ele>
        <time>2023-06-26T12:25:31.211Z</time>
      </trkpt>
      <trkpt lat="51.32263" lon="6.63428">
        <ele>75.589651</ele>
        <time>2023-06-26T12:25:34.218Z</time>
      </trkpt>
      <trkpt lat="51.32251" lon="6.63435">
        <ele>75.635859</ele>
        <time>2023-06-26T12:25:37.206Z</time>
      </trkpt>
      <trkpt lat="51.32239" lon="6.63447">
        <ele>75.686051</ele>
        <time>2023-06-26T12:25:40.212Z</time>
      </trkpt>
      <trkpt lat="51.32231" lon="6.63455">
        <ele>75.721642</ele>
        <time>2023-06-26T12:25:42.208Z</time>
      </trkpt>
      <trkpt lat="51.32223" lon="6.63464">
        <ele>75.755487</ele>
        <time>2023-06-26T12:25:44.204Z</time>
      </trkpt>
      <trkpt lat="51.32215" lon="6.63473">
        <ele>75.791021</ele>
        <time>2023-06-26T12:25:46.223Z</time>
      </trkpt>
      <trkpt lat="51.32207" lon="6.63483">
        <ele>75.827686</ele>
        <time>2023-06-26T12:25:48.218Z</time>
      </trkpt>
      <trkpt lat="51.32195" lon="6.63495">
        <ele>75.877586</ele>
        <time>2023-06-26T12:25:51.216Z</time>
      </trkpt>
      <trkpt lat="51.32184" lon="6.63506">
        <ele>75.925953</ele>
        <time>2023-06-26T12:25:54.240Z</time>
      </trkpt>
      <trkpt lat="51.32176" lon="6.63516">
        <ele>75.961644</ele>
        <time>2023-06-26T12:25:56.238Z</time>
      </trkpt>
      <trkpt lat="51.32168" lon="6.63525">
        <ele>75.997226</ele>
        <time>2023-06-26T12:25:58.218Z</time>
      </trkpt>
      <trkpt lat="51.3216" lon="6.63535">
        <ele>76.033329</ele>
        <time>2023-06-26T12:26:00.204Z</time>
      </trkpt>
      <trkpt lat="51.3215" lon="6.63545">
        <ele>76.075429</ele>
        <time>2023-06-26T12:26:03.219Z</time>
      </trkpt>
      <trkpt lat="51.3214" lon="6.63538">
        <ele>76.115425</ele>
        <time>2023-06-26T12:26:07.216Z</time>
      </trkpt>
      <trkpt lat="51.32137" lon="6.63522">
        <ele>76.220374</ele>
        <time>2023-06-26T12:26:10.208Z</time>
      </trkpt>
      <trkpt lat="51.32134" lon="6.63506">
        <ele>76.377016</ele>
        <time>2023-06-26T12:26:13.216Z</time>
      </trkpt>
      <trkpt lat="51.32132" lon="6.6349">
        <ele>76.529012</ele>
        <time>2023-06-26T12:26:16.202Z</time>
      </trkpt>
      <trkpt lat="51.32128" lon="6.63474">
        <ele>76.686708</ele>
        <time>2023-06-26T12:26:19.224Z</time>
      </trkpt>
      <trkpt lat="51.32125" lon="6.63458">
        <ele>76.840829</ele>
        <time>2023-06-26T12:26:22.206Z</time>
      </trkpt>
      <trkpt lat="51.32123" lon="6.63442">
        <ele>76.996032</ele>
        <time>2023-06-26T12:26:25.240Z</time>
      </trkpt>
      <trkpt lat="51.3212" lon="6.63426">
        <ele>77.153295</ele>
        <time>2023-06-26T12:26:28.228Z</time>
      </trkpt>
      <trkpt lat="51.32117" lon="6.6341">
        <ele>77.307235</ele>
        <time>2023-06-26T12:26:31.236Z</time>
      </trkpt>
      <trkpt lat="51.32114" lon="6.63393">
        <ele>77.463132</ele>
        <time>2023-06-26T12:26:34.214Z</time>
      </trkpt>
      <trkpt lat="51.32112" lon="6.63377">
        <ele>77.622471</ele>
        <time>2023-06-26T12:26:37.217Z</time>
      </trkpt>
      <trkpt lat="51.3211" lon="6.63359">
        <ele>77.784476</ele>
        <time>2023-06-26T12:26:40.218Z</time>
      </trkpt>
      <trkpt lat="51.32107" lon="6.63342">
        <ele>77.94688</ele>
        <time>2023-06-26T12:26:43.296Z</time>
      </trkpt>
      <trkpt lat="51.32105" lon="6.63326">
        <ele>78.108035</ele>
        <time>2023-06-26T12:26:46.220Z</time>
      </trkpt>
      <trkpt lat="51.32104" lon="6.63308">
        <ele>78.273375</ele>
        <time>2023-06-26T12:26:49.226Z</time>
      </trkpt>
      <trkpt lat="51.32104" lon="6.63292">
        <ele>78.42203</ele>
        <time>2023-06-26T12:26:52.216Z</time>
      </trkpt>
      <trkpt lat="51.32103" lon="6.63275">
        <ele>78.574473</ele>
        <time>2023-06-26T12:26:55.215Z</time>
      </trkpt>
      <trkpt lat="51.32102" lon="6.63257">
        <ele>78.745234</ele>
        <time>2023-06-26T12:26:58.224Z</time>
      </trkpt>
      <trkpt lat="51.321" lon="6.63239">
        <ele>78.847854</ele>
        <time>2023-06-26T12:27:01.221Z</time>
      </trkpt>
      <trkpt lat="51.32099" lon="6.6322">
        <ele>78.922351</ele>
        <time>2023-06-26T12:27:04.270Z</time>
      </trkpt>
      <trkpt lat="51.32098" lon="6.63206">
        <ele>78.978246</ele>
        <time>2023-06-26T12:27:07.226Z</time>
      </trkpt>
      <trkpt lat="51.32097" lon="6.63188">
        <ele>79.047915</ele>
        <time>2023-06-26T12:27:11.240Z</time>
      </trkpt>
      <trkpt lat="51.32096" lon="6.63169">
        <ele>79.119575</ele>
        <time>2023-06-26T12:27:15.222Z</time>
      </trkpt>
      <trkpt lat="51.32096" lon="6.63155">
        <ele>79.17635</ele>
        <time>2023-06-26T12:27:18.236Z</time>
      </trkpt>
      <trkpt lat="51.32095" lon="6.6314">
        <ele>79.232468</ele>
        <time>2023-06-26T12:27:21.222Z</time>
      </trkpt>
      <trkpt lat="51.32094" lon="6.63122">
        <ele>79.305127</ele>
        <time>2023-06-26T12:27:25.239Z</time>
      </trkpt>
      <trkpt lat="51.32093" lon="6.63106">
        <ele>79.364418</ele>
        <time>2023-06-26T12:27:28.215Z</time>
      </trkpt>
      <trkpt lat="51.32094" lon="6.63091">
        <ele>79.425226</ele>
        <time>2023-06-26T12:27:31.228Z</time>
      </trkpt>
      <trkpt lat="51.32093" lon="6.63074">
        <ele>79.489765</ele>
        <time>2023-06-26T12:27:34.226Z</time>
      </trkpt>
      <trkpt lat="51.32093" lon="6.63057">
        <ele>79.554791</ele>
        <time>2023-06-26T12:27:37.217Z</time>
      </trkpt>
      <trkpt lat="51.32093" lon="6.63038">
        <ele>79.629117</ele>
        <time>2023-06-26T12:27:40.238Z</time>
      </trkpt>
      <trkpt lat="51.32094" lon="6.63018">
        <ele>79.707874</ele>
        <time>2023-06-26T12:27:43.230Z</time>
      </trkpt>
      <trkpt lat="51.32094" lon="6.62996">
        <ele>79.793867</ele>
        <time>2023-06-26T12:27:46.236Z</time>
      </trkpt>
      <trkpt lat="51.32095" lon="6.62978">
        <ele>79.863981</ele>
        <time>2023-06-26T12:27:48.217Z</time>
      </trkpt>
      <trkpt lat="51.32096" lon="6.62959">
        <ele>79.910308</ele>
        <time>2023-06-26T12:27:50.238Z</time>
      </trkpt>
      <trkpt lat="51.32097" lon="6.62941">
        <ele>79.888391</ele>
        <time>2023-06-26T12:27:52.234Z</time>
      </trkpt>
      <trkpt lat="51.321" lon="6.62922">
        <ele>79.865077</ele>
        <time>2023-06-26T12:27:54.232Z</time>
      </trkpt>
      <trkpt lat="51.32102" lon="6.62902">
        <ele>79.841447</ele>
        <time>2023-06-26T12:27:56.220Z</time>
      </trkpt>
      <trkpt lat="51.32103" lon="6.62882">
        <ele>79.817815</ele>
        <time>2023-06-26T12:27:58.219Z</time>
      </trkpt>
      <trkpt lat="51.32105" lon="6.62862">
        <ele>79.794311</ele>
        <time>2023-06-26T12:28:00.207Z</time>
      </trkpt>
      <trkpt lat="51.32105" lon="6.62843">
        <ele>79.771005</ele>
        <time>2023-06-26T12:28:02.223Z</time>
      </trkpt>
      <trkpt lat="51.32105" lon="6.62824">
        <ele>79.749126</ele>
        <time>2023-06-26T12:28:04.221Z</time>
      </trkpt>
      <trkpt lat="51.32104" lon="6.62807">
        <ele>79.728545</ele>
        <time>2023-06-26T12:28:06.233Z</time>
      </trkpt>
      <trkpt lat="51.32102" lon="6.6279">
        <ele>79.708671</ele>
        <time>2023-06-26T12:28:08.211Z</time>
      </trkpt>
      <trkpt lat="51.321" lon="6.62775">
        <ele>79.689571</ele>
        <time>2023-06-26T12:28:10.218Z</time>
      </trkpt>
      <trkpt lat="51.32096" lon="6.6276">
        <ele>79.670504</ele>
        <time>2023-06-26T12:28:12.220Z</time>
      </trkpt>
      <trkpt lat="51.32091" lon="6.62746">
        <ele>79.651335</ele>
        <time>2023-06-26T12:28:14.309Z</time>
      </trkpt>
      <trkpt lat="51.32085" lon="6.62732">
        <ele>79.632681</ele>
        <time>2023-06-26T12:28:16.225Z</time>
      </trkpt>
      <trkpt lat="51.32078" lon="6.62715">
        <ele>79.607198</ele>
        <time>2023-06-26T12:28:19.237Z</time>
      </trkpt>
      <trkpt lat="51.32071" lon="6.62699">
        <ele>79.584503</ele>
        <time>2023-06-26T12:28:22.217Z</time>
      </trkpt>
      <trkpt lat="51.32065" lon="6.62684">
        <ele>79.59399</ele>
        <time>2023-06-26T12:28:26.236Z</time>
      </trkpt>
      <trkpt lat="51.32055" lon="6.62684">
        <ele>79.623676</ele>
        <time>2023-06-26T12:28:30.226Z</time>
      </trkpt>
      <trkpt lat="51.32048" lon="6.62694">
        <ele>79.650803</ele>
        <time>2023-06-26T12:28:33.224Z</time>
      </trkpt>
      <trkpt lat="51.32041" lon="6.62703">
        <ele>79.676937</ele>
        <time>2023-06-26T12:28:36.217Z</time>
      </trkpt>
      <trkpt lat="51.32032" lon="6.62714">
        <ele>79.711434</ele>
        <time>2023-06-26T12:28:39.208Z</time>
      </trkpt>
      <trkpt lat="51.32022" lon="6.62723">
        <ele>79.744002</ele>
        <time>2023-06-26T12:28:42.221Z</time>
      </trkpt>
      <trkpt lat="51.32013" lon="6.62735">
        <ele>79.780138</ele>
        <time>2023-06-26T12:28:45.204Z</time>
      </trkpt>
      <trkpt lat="51.32002" lon="6.62745">
        <ele>79.816346</ele>
        <time>2023-06-26T12:28:48.200Z</time>
      </trkpt>
      <trkpt lat="51.31989" lon="6.62748">
        <ele>79.852674</ele>
        <time>2023-06-26T12:28:51.212Z</time>
      </trkpt>
      <trkpt lat="51.31977" lon="6.62752">
        <ele>79.889168</ele>
        <time>2023-06-26T12:28:54.217Z</time>
      </trkpt>
      <trkpt lat="51.31964" lon="6.62752">
        <ele>79.927586</ele>
        <time>2023-06-26T12:28:57.220Z</time>
      </trkpt>
      <trkpt lat="51.31951" lon="6.62746">
        <ele>79.966206</ele>
        <time>2023-06-26T12:29:00.221Z</time>
      </trkpt>
      <trkpt lat="51.3194" lon="6.62735">
        <ele>80.004797</ele>
        <time>2023-06-26T12:29:03.214Z</time>
      </trkpt>
      <trkpt lat="51.31932" lon="6.62726">
        <ele>80.032708</ele>
        <time>2023-06-26T12:29:05.226Z</time>
      </trkpt>
      <trkpt lat="51.31925" lon="6.62716">
        <ele>80.059205</ele>
        <time>2023-06-26T12:29:07.219Z</time>
      </trkpt>
      <trkpt lat="51.31918" lon="6.62699">
        <ele>80.098266</ele>
        <time>2023-06-26T12:29:10.214Z</time>
      </trkpt>
      <trkpt lat="51.31913" lon="6.6268">
        <ele>79.949142</ele>
        <time>2023-06-26T12:29:13.212Z</time>
      </trkpt>
      <trkpt lat="51.31906" lon="6.62667">
        <ele>79.811653</ele>
        <time>2023-06-26T12:29:16.216Z</time>
      </trkpt>
      <trkpt lat="51.31896" lon="6.62663">
        <ele>79.682226</ele>
        <time>2023-06-26T12:29:19.220Z</time>
      </trkpt>
      <trkpt lat="51.31885" lon="6.6267">
        <ele>79.536496</ele>
        <time>2023-06-26T12:29:22.218Z</time>
      </trkpt>
      <trkpt lat="51.31876" lon="6.62683">
        <ele>79.384652</ele>
        <time>2023-06-26T12:29:25.241Z</time>
      </trkpt>
      <trkpt lat="51.31867" lon="6.62696">
        <ele>79.229896</ele>
        <time>2023-06-26T12:29:28.233Z</time>
      </trkpt>
      <trkpt lat="51.31859" lon="6.62709">
        <ele>79.092578</ele>
        <time>2023-06-26T12:29:31.227Z</time>
      </trkpt>
      <trkpt lat="51.31852" lon="6.6272">
        <ele>78.962283</ele>
        <time>2023-06-26T12:29:34.218Z</time>
      </trkpt>
      <trkpt lat="51.31845" lon="6.62736">
        <ele>78.814952</ele>
        <time>2023-06-26T12:29:37.233Z</time>
      </trkpt>
      <trkpt lat="51.31837" lon="6.62748">
        <ele>78.670749</ele>
        <time>2023-06-26T12:29:40.200Z</time>
      </trkpt>
      <trkpt lat="51.31831" lon="6.6276">
        <ele>78.557402</ele>
        <time>2023-06-26T12:29:42.193Z</time>
      </trkpt>
      <trkpt lat="51.31824" lon="6.62769">
        <ele>78.442148</ele>
        <time>2023-06-26T12:29:44.227Z</time>
      </trkpt>
      <trkpt lat="51.31815" lon="6.62783">
        <ele>78.285406</ele>
        <time>2023-06-26T12:29:47.230Z</time>
      </trkpt>
      <trkpt lat="51.31805" lon="6.62794">
        <ele>78.139177</ele>
        <time>2023-06-26T12:29:50.244Z</time>
      </trkpt>
      <trkpt lat="51.31795" lon="6.62805">
        <ele>77.985174</ele>
        <time>2023-06-26T12:29:53.217Z</time>
      </trkpt>
      <trkpt lat="51.31785" lon="6.62819">
        <ele>77.838935</ele>
        <time>2023-06-26T12:29:56.215Z</time>
      </trkpt>
      <trkpt lat="51.31774" lon="6.62831">
        <ele>77.825667</ele>
        <time>2023-06-26T12:29:59.238Z</time>
      </trkpt>
      <trkpt lat="51.31763" lon="6.62843">
        <ele>77.811993</ele>
        <time>2023-06-26T12:30:02.220Z</time>
      </trkpt>
      <trkpt lat="51.31755" lon="6.62851">
        <ele>77.802567</ele>
        <time>2023-06-26T12:30:04.228Z</time>
      </trkpt>
      <trkpt lat="51.31746" lon="6.62859">
        <ele>77.792481</ele>
        <time>2023-06-26T12:30:06.240Z</time>
      </trkpt>
      <trkpt lat="51.31738" lon="6.62866">
        <ele>77.782752</ele>
        <time>2023-06-26T12:30:08.225Z</time>
      </trkpt>
      <trkpt lat="51.31729" lon="6.62873">
        <ele>77.773055</ele>
        <time>2023-06-26T12:30:10.204Z</time>
      </trkpt>
      <trkpt lat="51.31721" lon="6.62882">
        <ele>77.763016</ele>
        <time>2023-06-26T12:30:12.232Z</time>
      </trkpt>
      <trkpt lat="51.31712" lon="6.6289">
        <ele>77.7524</ele>
        <time>2023-06-26T12:30:14.238Z</time>
      </trkpt>
      <trkpt lat="51.31703" lon="6.62899">
        <ele>77.741895</ele>
        <time>2023-06-26T12:30:16.223Z</time>
      </trkpt>
      <trkpt lat="51.31693" lon="6.62907">
        <ele>77.730921</ele>
        <time>2023-06-26T12:30:18.214Z</time>
      </trkpt>
      <trkpt lat="51.31684" lon="6.62915">
        <ele>77.720392</ele>
        <time>2023-06-26T12:30:20.221Z</time>
      </trkpt>
      <trkpt lat="51.31675" lon="6.62924">
        <ele>77.710028</ele>
        <time>2023-06-26T12:30:22.220Z</time>
      </trkpt>
      <trkpt lat="51.31667" lon="6.62931">
        <ele>77.700299</ele>
        <time>2023-06-26T12:30:24.219Z</time>
      </trkpt>
      <trkpt lat="51.31659" lon="6.62939">
        <ele>77.690831</ele>
        <time>2023-06-26T12:30:26.220Z</time>
      </trkpt>
      <trkpt lat="51.31651" lon="6.62946">
        <ele>77.681665</ele>
        <time>2023-06-26T12:30:28.218Z</time>
      </trkpt>
      <trkpt lat="51.31643" lon="6.62952">
        <ele>77.672574</ele>
        <time>2023-06-26T12:30:30.217Z</time>
      </trkpt>
      <trkpt lat="51.31634" lon="6.62958">
        <ele>77.663353</ele>
        <time>2023-06-26T12:30:32.220Z</time>
      </trkpt>
      <trkpt lat="51.31623" lon="6.62965">
        <ele>77.758565</ele>
        <time>2023-06-26T12:30:35.214Z</time>
      </trkpt>
      <trkpt lat="51.31611" lon="6.62972">
        <ele>77.899006</ele>
        <time>2023-06-26T12:30:38.236Z</time>
      </trkpt>
      <trkpt lat="51.316" lon="6.62979">
        <ele>78.042409</ele>
        <time>2023-06-26T12:30:41.227Z</time>
      </trkpt>
      <trkpt lat="51.31589" lon="6.62984">
        <ele>78.172988</ele>
        <time>2023-06-26T12:30:44.217Z</time>
      </trkpt>
      <trkpt lat="51.31577" lon="6.6299">
        <ele>78.318118</ele>
        <time>2023-06-26T12:30:47.226Z</time>
      </trkpt>
      <trkpt lat="51.31565" lon="6.62996">
        <ele>78.459613</ele>
        <time>2023-06-26T12:30:50.220Z</time>
      </trkpt>
      <trkpt lat="51.31553" lon="6.63001">
        <ele>78.601616</ele>
        <time>2023-06-26T12:30:53.218Z</time>
      </trkpt>
      <trkpt lat="51.31541" lon="6.63007">
        <ele>78.745072</ele>
        <time>2023-06-26T12:30:56.217Z</time>
      </trkpt>
      <trkpt lat="51.3153" lon="6.63011">
        <ele>78.873564</ele>
        <time>2023-06-26T12:30:59.307Z</time>
      </trkpt>
      <trkpt lat="51.31521" lon="6.63017">
        <ele>78.981511</ele>
        <time>2023-06-26T12:31:01.204Z</time>
      </trkpt>
      <trkpt lat="51.31512" lon="6.63021">
        <ele>79.093263</ele>
        <time>2023-06-26T12:31:03.226Z</time>
      </trkpt>
      <trkpt lat="51.31503" lon="6.63026">
        <ele>79.202824</ele>
        <time>2023-06-26T12:31:05.223Z</time>
      </trkpt>
      <trkpt lat="51.31494" lon="6.63031">
        <ele>79.306793</ele>
        <time>2023-06-26T12:31:07.224Z</time>
      </trkpt>
      <trkpt lat="51.31484" lon="6.63037">
        <ele>79.435787</ele>
        <time>2023-06-26T12:31:10.222Z</time>
      </trkpt>
      <trkpt lat="51.31473" lon="6.63044">
        <ele>79.566654</ele>
        <time>2023-06-26T12:31:13.216Z</time>
      </trkpt>
      <trkpt lat="51.31462" lon="6.63049">
        <ele>79.702357</ele>
        <time>2023-06-26T12:31:16.222Z</time>
      </trkpt>
      <trkpt lat="51.31451" lon="6.63054">
        <ele>80.020929</ele>
        <time>2023-06-26T12:31:19.227Z</time>
      </trkpt>
      <trkpt lat="51.31442" lon="6.63059">
        <ele>80.337562</ele>
        <time>2023-06-26T12:31:22.211Z</time>
      </trkpt>
      <trkpt lat="51.31434" lon="6.63064">
        <ele>80.634747</ele>
        <time>2023-06-26T12:31:25.232Z</time>
      </trkpt>
      <trkpt lat="51.31423" lon="6.63065">
        <ele>80.978359</ele>
        <time>2023-06-26T12:31:29.248Z</time>
      </trkpt>
      <trkpt lat="51.31412" lon="6.63068">
        <ele>81.334253</ele>
        <time>2023-06-26T12:31:33.224Z</time>
      </trkpt>
      <trkpt lat="51.31403" lon="6.63078">
        <ele>81.702156</ele>
        <time>2023-06-26T12:31:38.213Z</time>
      </trkpt>
      <trkpt lat="51.31397" lon="6.6309">
        <ele>81.99941</ele>
        <time>2023-06-26T12:31:41.223Z</time>
      </trkpt>
      <trkpt lat="51.31391" lon="6.63101">
        <ele>82.320803</ele>
        <time>2023-06-26T12:31:44.215Z</time>
      </trkpt>
      <trkpt lat="51.31383" lon="6.63111">
        <ele>82.642155</ele>
        <time>2023-06-26T12:31:47.262Z</time>
      </trkpt>
      <trkpt lat="51.31376" lon="6.63122">
        <ele>82.958667</ele>
        <time>2023-06-26T12:31:50.224Z</time>
      </trkpt>
      <trkpt lat="51.31369" lon="6.63137">
        <ele>83.330562</ele>
        <time>2023-06-26T12:31:54.236Z</time>
      </trkpt>
      <trkpt lat="51.31362" lon="6.6315">
        <ele>83.672915</ele>
        <time>2023-06-26T12:31:58.236Z</time>
      </trkpt>
      <trkpt lat="51.31356" lon="6.63165">
        <ele>84.040916</ele>
        <time>2023-06-26T12:32:02.221Z</time>
      </trkpt>
      <trkpt lat="51.31351" lon="6.63178">
        <ele>84.359208</ele>
        <time>2023-06-26T12:32:05.225Z</time>
      </trkpt>
      <trkpt lat="51.31345" lon="6.63192">
        <ele>84.687239</ele>
        <time>2023-06-26T12:32:08.224Z</time>
      </trkpt>
      <trkpt lat="51.3134" lon="6.63209">
        <ele>85.075944</ele>
        <time>2023-06-26T12:32:12.199Z</time>
      </trkpt>
      <trkpt lat="51.31335" lon="6.63222">
        <ele>85.371803</ele>
        <time>2023-06-26T12:32:15.221Z</time>
      </trkpt>
      <trkpt lat="51.3133" lon="6.63238">
        <ele>85.454947</ele>
        <time>2023-06-26T12:32:19.223Z</time>
      </trkpt>
      <trkpt lat="51.31325" lon="6.63252">
        <ele>85.283597</ele>
        <time>2023-06-26T12:32:24.223Z</time>
      </trkpt>
      <trkpt lat="51.31321" lon="6.63267">
        <ele>85.110309</ele>
        <time>2023-06-26T12:32:50.220Z</time>
      </trkpt>
      <trkpt lat="51.31316" lon="6.63282">
        <ele>84.936307</ele>
        <time>2023-06-26T12:32:56.221Z</time>
      </trkpt>
      <trkpt lat="51.31312" lon="6.63296">
        <ele>84.775298</ele>
        <time>2023-06-26T12:33:01.220Z</time>
      </trkpt>
      <trkpt lat="51.31307" lon="6.63312">
        <ele>84.578131</ele>
        <time>2023-06-26T12:33:06.226Z</time>
      </trkpt>
      <trkpt lat="51.31301" lon="6.6333">
        <ele>84.374358</ele>
        <time>2023-06-26T12:33:10.221Z</time>
      </trkpt>
      <trkpt lat="51.31297" lon="6.63345">
        <ele>84.194784</ele>
        <time>2023-06-26T12:33:13.225Z</time>
      </trkpt>
      <trkpt lat="51.3129" lon="6.63363">
        <ele>83.973624</ele>
        <time>2023-06-26T12:33:16.219Z</time>
      </trkpt>
      <trkpt lat="51.31286" lon="6.63376">
        <ele>83.821861</ele>
        <time>2023-06-26T12:33:18.221Z</time>
      </trkpt>
      <trkpt lat="51.31281" lon="6.63389">
        <ele>83.664971</ele>
        <time>2023-06-26T12:33:20.223Z</time>
      </trkpt>
      <trkpt lat="51.31276" lon="6.63402">
        <ele>83.498329</ele>
        <time>2023-06-26T12:33:22.220Z</time>
      </trkpt>
      <trkpt lat="51.31269" lon="6.63415">
        <ele>83.326107</ele>
        <time>2023-06-26T12:33:24.220Z</time>
      </trkpt>
      <trkpt lat="51.31262" lon="6.63426">
        <ele>83.154009</ele>
        <time>2023-06-26T12:33:26.224Z</time>
      </trkpt>
      <trkpt lat="51.31255" lon="6.63438">
        <ele>82.98224</ele>
        <time>2023-06-26T12:33:28.242Z</time>
      </trkpt>
      <trkpt lat="51.31246" lon="6.6345">
        <ele>82.784668</ele>
        <time>2023-06-26T12:33:30.224Z</time>
      </trkpt>
      <trkpt lat="51.31237" lon="6.63462">
        <ele>82.589687</ele>
        <time>2023-06-26T12:33:32.218Z</time>
      </trkpt>
      <trkpt lat="51.31226" lon="6.63474">
        <ele>82.325325</ele>
        <time>2023-06-26T12:33:34.223Z</time>
      </trkpt>
      <trkpt lat="51.31215" lon="6.63484">
        <ele>82.046734</ele>
        <time>2023-06-26T12:33:36.221Z</time>
      </trkpt>
      <trkpt lat="51.31205" lon="6.63495">
        <ele>81.770174</ele>
        <time>2023-06-26T12:33:38.226Z</time>
      </trkpt>
      <trkpt lat="51.31193" lon="6.63506">
        <ele>81.478611</ele>
        <time>2023-06-26T12:33:40.220Z</time>
      </trkpt>
      <trkpt lat="51.31183" lon="6.63515">
        <ele>81.210634</ele>
        <time>2023-06-26T12:33:42.222Z</time>
      </trkpt>
      <trkpt lat="51.31171" lon="6.63523">
        <ele>80.9321</ele>
        <time>2023-06-26T12:33:44.216Z</time>
      </trkpt>
      <trkpt lat="51.31159" lon="6.63531">
        <ele>80.647057</ele>
        <time>2023-06-26T12:33:46.197Z</time>
      </trkpt>
      <trkpt lat="51.31147" lon="6.63537">
        <ele>80.375822</ele>
        <time>2023-06-26T12:33:48.231Z</time>
      </trkpt>
      <trkpt lat="51.31135" lon="6.63544">
        <ele>80.084826</ele>
        <time>2023-06-26T12:33:50.243Z</time>
      </trkpt>
      <trkpt lat="51.31122" lon="6.63548">
        <ele>79.798864</ele>
        <time>2023-06-26T12:33:52.194Z</time>
      </trkpt>
      <trkpt lat="51.3111" lon="6.63554">
        <ele>79.528771</ele>
        <time>2023-06-26T12:33:54.225Z</time>
      </trkpt>
      <trkpt lat="51.31099" lon="6.63558">
        <ele>79.268235</ele>
        <time>2023-06-26T12:33:56.217Z</time>
      </trkpt>
      <trkpt lat="51.31087" lon="6.63562">
        <ele>79.001716</ele>
        <time>2023-06-26T12:33:58.219Z</time>
      </trkpt>
      <trkpt lat="51.31076" lon="6.63564">
        <ele>78.75137</ele>
        <time>2023-06-26T12:34:00.217Z</time>
      </trkpt>
      <trkpt lat="51.31064" lon="6.63565">
        <ele>78.570279</ele>
        <time>2023-06-26T12:34:02.222Z</time>
      </trkpt>
      <trkpt lat="51.31053" lon="6.63566">
        <ele>78.56912</ele>
        <time>2023-06-26T12:34:04.208Z</time>
      </trkpt>
      <trkpt lat="51.31042" lon="6.63565">
        <ele>78.56796</ele>
        <time>2023-06-26T12:34:06.220Z</time>
      </trkpt>
      <trkpt lat="51.31031" lon="6.63563">
        <ele>78.566826</ele>
        <time>2023-06-26T12:34:08.220Z</time>
      </trkpt>
      <trkpt lat="51.31021" lon="6.6356">
        <ele>78.565714</ele>
        <time>2023-06-26T12:34:10.240Z</time>
      </trkpt>
      <trkpt lat="51.31011" lon="6.63556">
        <ele>78.564663</ele>
        <time>2023-06-26T12:34:12.221Z</time>
      </trkpt>
      <trkpt lat="51.31001" lon="6.63552">
        <ele>78.563581</ele>
        <time>2023-06-26T12:34:14.231Z</time>
      </trkpt>
      <trkpt lat="51.30992" lon="6.63546">
        <ele>78.562538</ele>
        <time>2023-06-26T12:34:16.211Z</time>
      </trkpt>
      <trkpt lat="51.30983" lon="6.6354">
        <ele>78.561511</ele>
        <time>2023-06-26T12:34:18.223Z</time>
      </trkpt>
      <trkpt lat="51.30974" lon="6.63536">
        <ele>78.560537</ele>
        <time>2023-06-26T12:34:20.216Z</time>
      </trkpt>
      <trkpt lat="51.30966" lon="6.63531">
        <ele>78.559576</ele>
        <time>2023-06-26T12:34:22.235Z</time>
      </trkpt>
      <trkpt lat="51.30953" lon="6.63526">
        <ele>78.558222</ele>
        <time>2023-06-26T12:34:25.228Z</time>
      </trkpt>
      <trkpt lat="51.3094" lon="6.63521">
        <ele>78.556832</ele>
        <time>2023-06-26T12:34:28.221Z</time>
      </trkpt>
      <trkpt lat="51.30927" lon="6.63518">
        <ele>78.555457</ele>
        <time>2023-06-26T12:34:31.220Z</time>
      </trkpt>
      <trkpt lat="51.30918" lon="6.63516">
        <ele>78.554482</ele>
        <time>2023-06-26T12:34:33.220Z</time>
      </trkpt>
      <trkpt lat="51.30909" lon="6.63516">
        <ele>78.553534</ele>
        <time>2023-06-26T12:34:35.223Z</time>
      </trkpt>
      <trkpt lat="51.30896" lon="6.63517">
        <ele>78.552121</ele>
        <time>2023-06-26T12:34:38.221Z</time>
      </trkpt>
      <trkpt lat="51.30886" lon="6.63518">
        <ele>78.527819</ele>
        <time>2023-06-26T12:34:40.213Z</time>
      </trkpt>
      <trkpt lat="51.30877" lon="6.63521">
        <ele>78.488043</ele>
        <time>2023-06-26T12:34:42.224Z</time>
      </trkpt>
      <trkpt lat="51.30868" lon="6.63523">
        <ele>78.449143</ele>
        <time>2023-06-26T12:34:44.208Z</time>
      </trkpt>
      <trkpt lat="51.30859" lon="6.63525">
        <ele>78.41104</ele>
        <time>2023-06-26T12:34:46.237Z</time>
      </trkpt>
      <trkpt lat="51.3085" lon="6.63527">
        <ele>78.371601</ele>
        <time>2023-06-26T12:34:48.238Z</time>
      </trkpt>
      <trkpt lat="51.3084" lon="6.6353">
        <ele>78.332027</ele>
        <time>2023-06-26T12:34:50.225Z</time>
      </trkpt>
      <trkpt lat="51.30831" lon="6.63533">
        <ele>78.291523</ele>
        <time>2023-06-26T12:34:52.316Z</time>
      </trkpt>
      <trkpt lat="51.30821" lon="6.63535">
        <ele>78.248739</ele>
        <time>2023-06-26T12:34:54.210Z</time>
      </trkpt>
      <trkpt lat="51.30807" lon="6.63537">
        <ele>78.190558</ele>
        <time>2023-06-26T12:34:57.226Z</time>
      </trkpt>
      <trkpt lat="51.30798" lon="6.63539">
        <ele>78.151431</ele>
        <time>2023-06-26T12:34:59.217Z</time>
      </trkpt>
      <trkpt lat="51.30785" lon="6.63542">
        <ele>78.094403</ele>
        <time>2023-06-26T12:35:02.220Z</time>
      </trkpt>
      <trkpt lat="51.30776" lon="6.63544">
        <ele>78.056259</ele>
        <time>2023-06-26T12:35:04.232Z</time>
      </trkpt>
      <trkpt lat="51.30766" lon="6.63546">
        <ele>78.015299</ele>
        <time>2023-06-26T12:35:06.218Z</time>
      </trkpt>
      <trkpt lat="51.30757" lon="6.63549">
        <ele>77.975442</ele>
        <time>2023-06-26T12:35:08.217Z</time>
      </trkpt>
      <trkpt lat="51.30743" lon="6.63552">
        <ele>77.91746</ele>
        <time>2023-06-26T12:35:11.233Z</time>
      </trkpt>
      <trkpt lat="51.30734" lon="6.63553">
        <ele>77.878665</ele>
        <time>2023-06-26T12:35:13.216Z</time>
      </trkpt>
      <trkpt lat="51.30725" lon="6.63557">
        <ele>77.837947</ele>
        <time>2023-06-26T12:35:15.240Z</time>
      </trkpt>
      <trkpt lat="51.30715" lon="6.63559">
        <ele>77.79629</ele>
        <time>2023-06-26T12:35:17.222Z</time>
      </trkpt>
      <trkpt lat="51.30706" lon="6.63561">
        <ele>77.828899</ele>
        <time>2023-06-26T12:35:19.226Z</time>
      </trkpt>
      <trkpt lat="51.30696" lon="6.63563">
        <ele>77.874713</ele>
        <time>2023-06-26T12:35:21.225Z</time>
      </trkpt>
      <trkpt lat="51.30686" lon="6.63568">
        <ele>77.920394</ele>
        <time>2023-06-26T12:35:23.224Z</time>
      </trkpt>
      <trkpt lat="51.30675" lon="6.63573">
        <ele>77.969762</ele>
        <time>2023-06-26T12:35:25.219Z</time>
      </trkpt>
      <trkpt lat="51.30665" lon="6.63579">
        <ele>78.020048</ele>
        <time>2023-06-26T12:35:27.219Z</time>
      </trkpt>
      <trkpt lat="51.30654" lon="6.63585">
        <ele>78.072098</ele>
        <time>2023-06-26T12:35:29.223Z</time>
      </trkpt>
      <trkpt lat="51.30643" lon="6.6359">
        <ele>78.123552</ele>
        <time>2023-06-26T12:35:31.222Z</time>
      </trkpt>
      <trkpt lat="51.30632" lon="6.63594">
        <ele>78.174117</ele>
        <time>2023-06-26T12:35:33.218Z</time>
      </trkpt>
      <trkpt lat="51.30622" lon="6.63599">
        <ele>78.224611</ele>
        <time>2023-06-26T12:35:35.242Z</time>
      </trkpt>
      <trkpt lat="51.30611" lon="6.63604">
        <ele>78.274496</ele>
        <time>2023-06-26T12:35:37.226Z</time>
      </trkpt>
      <trkpt lat="51.306" lon="6.63608">
        <ele>78.323652</ele>
        <time>2023-06-26T12:35:39.224Z</time>
      </trkpt>
      <trkpt lat="51.3059" lon="6.63612">
        <ele>78.371309</ele>
        <time>2023-06-26T12:35:41.226Z</time>
      </trkpt>
      <trkpt lat="51.3058" lon="6.63616">
        <ele>78.417813</ele>
        <time>2023-06-26T12:35:43.222Z</time>
      </trkpt>
      <trkpt lat="51.30571" lon="6.63621">
        <ele>78.463987</ele>
        <time>2023-06-26T12:35:45.221Z</time>
      </trkpt>
      <trkpt lat="51.30561" lon="6.63625">
        <ele>78.507182</ele>
        <time>2023-06-26T12:35:47.216Z</time>
      </trkpt>
      <trkpt lat="51.30552" lon="6.6363">
        <ele>78.551725</ele>
        <time>2023-06-26T12:35:49.243Z</time>
      </trkpt>
      <trkpt lat="51.30543" lon="6.63635">
        <ele>78.596863</ele>
        <time>2023-06-26T12:35:51.237Z</time>
      </trkpt>
      <trkpt lat="51.30533" lon="6.63639">
        <ele>78.613544</ele>
        <time>2023-06-26T12:35:53.223Z</time>
      </trkpt>
      <trkpt lat="51.30524" lon="6.63643">
        <ele>78.623208</ele>
        <time>2023-06-26T12:35:55.224Z</time>
      </trkpt>
      <trkpt lat="51.30516" lon="6.63648">
        <ele>78.632805</ele>
        <time>2023-06-26T12:35:57.202Z</time>
      </trkpt>
      <trkpt lat="51.30503" lon="6.63654">
        <ele>78.646767</ele>
        <time>2023-06-26T12:36:00.212Z</time>
      </trkpt>
      <trkpt lat="51.30494" lon="6.63658">
        <ele>78.656018</ele>
        <time>2023-06-26T12:36:02.222Z</time>
      </trkpt>
      <trkpt lat="51.30481" lon="6.63664">
        <ele>78.669996</ele>
        <time>2023-06-26T12:36:05.227Z</time>
      </trkpt>
      <trkpt lat="51.30472" lon="6.63668">
        <ele>78.679618</ele>
        <time>2023-06-26T12:36:07.223Z</time>
      </trkpt>
      <trkpt lat="51.30463" lon="6.63674">
        <ele>78.689557</ele>
        <time>2023-06-26T12:36:09.224Z</time>
      </trkpt>
      <trkpt lat="51.30455" lon="6.63683">
        <ele>78.699508</ele>
        <time>2023-06-26T12:36:11.227Z</time>
      </trkpt>
      <trkpt lat="51.30447" lon="6.63691">
        <ele>78.709025</ele>
        <time>2023-06-26T12:36:13.214Z</time>
      </trkpt>
      <trkpt lat="51.30439" lon="6.63699">
        <ele>78.719047</ele>
        <time>2023-06-26T12:36:15.201Z</time>
      </trkpt>
      <trkpt lat="51.30431" lon="6.63709">
        <ele>78.729478</ele>
        <time>2023-06-26T12:36:17.224Z</time>
      </trkpt>
      <trkpt lat="51.30423" lon="6.6372">
        <ele>78.740108</ele>
        <time>2023-06-26T12:36:19.229Z</time>
      </trkpt>
      <trkpt lat="51.30415" lon="6.63731">
        <ele>78.751265</ele>
        <time>2023-06-26T12:36:21.231Z</time>
      </trkpt>
      <trkpt lat="51.30406" lon="6.63742">
        <ele>78.76298</ele>
        <time>2023-06-26T12:36:23.216Z</time>
      </trkpt>
      <trkpt lat="51.30397" lon="6.63754">
        <ele>78.775097</ele>
        <time>2023-06-26T12:36:25.207Z</time>
      </trkpt>
      <trkpt lat="51.30388" lon="6.63767">
        <ele>78.787666</ele>
        <time>2023-06-26T12:36:27.229Z</time>
      </trkpt>
      <trkpt lat="51.30379" lon="6.63779">
        <ele>78.766286</ele>
        <time>2023-06-26T12:36:29.230Z</time>
      </trkpt>
      <trkpt lat="51.30371" lon="6.63793">
        <ele>78.732144</ele>
        <time>2023-06-26T12:36:31.227Z</time>
      </trkpt>
      <trkpt lat="51.30362" lon="6.63807">
        <ele>78.696229</ele>
        <time>2023-06-26T12:36:33.212Z</time>
      </trkpt>
      <trkpt lat="51.30353" lon="6.63822">
        <ele>78.658988</ele>
        <time>2023-06-26T12:36:35.210Z</time>
      </trkpt>
      <trkpt lat="51.30343" lon="6.63837">
        <ele>78.619133</ele>
        <time>2023-06-26T12:36:37.221Z</time>
      </trkpt>
      <trkpt lat="51.30333" lon="6.63851">
        <ele>78.580572</ele>
        <time>2023-06-26T12:36:39.235Z</time>
      </trkpt>
      <trkpt lat="51.30322" lon="6.63863">
        <ele>78.54287</ele>
        <time>2023-06-26T12:36:41.237Z</time>
      </trkpt>
      <trkpt lat="51.30312" lon="6.63875">
        <ele>78.505718</ele>
        <time>2023-06-26T12:36:43.219Z</time>
      </trkpt>
      <trkpt lat="51.30302" lon="6.63885">
        <ele>78.470403</ele>
        <time>2023-06-26T12:36:45.232Z</time>
      </trkpt>
      <trkpt lat="51.30291" lon="6.63894">
        <ele>78.436937</ele>
        <time>2023-06-26T12:36:47.209Z</time>
      </trkpt>
      <trkpt lat="51.30282" lon="6.63903">
        <ele>78.40413</ele>
        <time>2023-06-26T12:36:49.238Z</time>
      </trkpt>
      <trkpt lat="51.30272" lon="6.63911">
        <ele>78.372536</ele>
        <time>2023-06-26T12:36:51.224Z</time>
      </trkpt>
      <trkpt lat="51.30263" lon="6.63919">
        <ele>78.343402</ele>
        <time>2023-06-26T12:36:53.225Z</time>
      </trkpt>
      <trkpt lat="51.30255" lon="6.63928">
        <ele>78.313301</ele>
        <time>2023-06-26T12:36:55.212Z</time>
      </trkpt>
      <trkpt lat="51.30245" lon="6.63937">
        <ele>78.282721</ele>
        <time>2023-06-26T12:36:57.226Z</time>
      </trkpt>
      <trkpt lat="51.30236" lon="6.63944">
        <ele>78.276796</ele>
        <time>2023-06-26T12:36:59.217Z</time>
      </trkpt>
      <trkpt lat="51.30227" lon="6.63951">
        <ele>78.287356</ele>
        <time>2023-06-26T12:37:01.224Z</time>
      </trkpt>
      <trkpt lat="51.30218" lon="6.63959">
        <ele>78.297792</ele>
        <time>2023-06-26T12:37:03.229Z</time>
      </trkpt>
      <trkpt lat="51.30209" lon="6.63964">
        <ele>78.308131</ele>
        <time>2023-06-26T12:37:05.226Z</time>
      </trkpt>
      <trkpt lat="51.30199" lon="6.63967">
        <ele>78.318163</ele>
        <time>2023-06-26T12:37:07.223Z</time>
      </trkpt>
      <trkpt lat="51.30189" lon="6.63972">
        <ele>78.328875</ele>
        <time>2023-06-26T12:37:09.212Z</time>
      </trkpt>
      <trkpt lat="51.3018" lon="6.63976">
        <ele>78.339017</ele>
        <time>2023-06-26T12:37:11.217Z</time>
      </trkpt>
      <trkpt lat="51.3017" lon="6.63978">
        <ele>78.349199</ele>
        <time>2023-06-26T12:37:13.233Z</time>
      </trkpt>
      <trkpt lat="51.3016" lon="6.63981">
        <ele>78.360036</ele>
        <time>2023-06-26T12:37:15.223Z</time>
      </trkpt>
      <trkpt lat="51.30148" lon="6.63983">
        <ele>78.371757</ele>
        <time>2023-06-26T12:37:17.224Z</time>
      </trkpt>
      <trkpt lat="51.30138" lon="6.63986">
        <ele>78.382452</ele>
        <time>2023-06-26T12:37:19.219Z</time>
      </trkpt>
      <trkpt lat="51.30128" lon="6.63988">
        <ele>78.393053</ele>
        <time>2023-06-26T12:37:21.222Z</time>
      </trkpt>
      <trkpt lat="51.30118" lon="6.63991">
        <ele>78.404158</ele>
        <time>2023-06-26T12:37:23.242Z</time>
      </trkpt>
      <trkpt lat="51.30107" lon="6.63992">
        <ele>78.415628</ele>
        <time>2023-06-26T12:37:25.241Z</time>
      </trkpt>
      <trkpt lat="51.30096" lon="6.63995">
        <ele>78.426322</ele>
        <time>2023-06-26T12:37:27.229Z</time>
      </trkpt>
      <trkpt lat="51.30086" lon="6.63997">
        <ele>78.437026</ele>
        <time>2023-06-26T12:37:29.240Z</time>
      </trkpt>
      <trkpt lat="51.30076" lon="6.63999">
        <ele>78.447796</ele>
        <time>2023-06-26T12:37:31.227Z</time>
      </trkpt>
      <trkpt lat="51.30066" lon="6.64001">
        <ele>78.464004</ele>
        <time>2023-06-26T12:37:33.227Z</time>
      </trkpt>
      <trkpt lat="51.30056" lon="6.64005">
        <ele>78.530884</ele>
        <time>2023-06-26T12:37:35.232Z</time>
      </trkpt>
      <trkpt lat="51.30046" lon="6.64008">
        <ele>78.593829</ele>
        <time>2023-06-26T12:37:37.225Z</time>
      </trkpt>
      <trkpt lat="51.30036" lon="6.64012">
        <ele>78.663145</ele>
        <time>2023-06-26T12:37:39.232Z</time>
      </trkpt>
      <trkpt lat="51.30026" lon="6.64017">
        <ele>78.727011</ele>
        <time>2023-06-26T12:37:41.228Z</time>
      </trkpt>
      <trkpt lat="51.30018" lon="6.64022">
        <ele>78.785048</ele>
        <time>2023-06-26T12:37:43.232Z</time>
      </trkpt>
      <trkpt lat="51.30009" lon="6.64027">
        <ele>78.845633</ele>
        <time>2023-06-26T12:37:45.224Z</time>
      </trkpt>
      <trkpt lat="51.3" lon="6.64031">
        <ele>78.904148</ele>
        <time>2023-06-26T12:37:47.225Z</time>
      </trkpt>
      <trkpt lat="51.29991" lon="6.64036">
        <ele>78.965256</ele>
        <time>2023-06-26T12:37:49.225Z</time>
      </trkpt>
      <trkpt lat="51.29982" lon="6.64042">
        <ele>79.029147</ele>
        <time>2023-06-26T12:37:51.225Z</time>
      </trkpt>
      <trkpt lat="51.29972" lon="6.64047">
        <ele>79.094352</ele>
        <time>2023-06-26T12:37:53.224Z</time>
      </trkpt>
      <trkpt lat="51.29962" lon="6.64053">
        <ele>79.160544</ele>
        <time>2023-06-26T12:37:55.225Z</time>
      </trkpt>
      <trkpt lat="51.29953" lon="6.64058">
        <ele>79.224601</ele>
        <time>2023-06-26T12:37:57.230Z</time>
      </trkpt>
      <trkpt lat="51.29943" lon="6.64063">
        <ele>79.288598</ele>
        <time>2023-06-26T12:37:59.238Z</time>
      </trkpt>
      <trkpt lat="51.29933" lon="6.64068">
        <ele>79.357505</ele>
        <time>2023-06-26T12:38:01.226Z</time>
      </trkpt>
      <trkpt lat="51.29923" lon="6.64071">
        <ele>79.422252</ele>
        <time>2023-06-26T12:38:03.219Z</time>
      </trkpt>
      <trkpt lat="51.29912" lon="6.64074">
        <ele>79.488971</ele>
        <time>2023-06-26T12:38:05.224Z</time>
      </trkpt>
      <trkpt lat="51.29902" lon="6.64074">
        <ele>79.556053</ele>
        <time>2023-06-26T12:38:07.218Z</time>
      </trkpt>
      <trkpt lat="51.29892" lon="6.64075">
        <ele>79.591849</ele>
        <time>2023-06-26T12:38:09.211Z</time>
      </trkpt>
      <trkpt lat="51.29882" lon="6.64073">
        <ele>79.53754</ele>
        <time>2023-06-26T12:38:11.225Z</time>
      </trkpt>
      <trkpt lat="51.29873" lon="6.64071">
        <ele>79.482508</ele>
        <time>2023-06-26T12:38:13.223Z</time>
      </trkpt>
      <trkpt lat="51.29864" lon="6.64068">
        <ele>79.429606</ele>
        <time>2023-06-26T12:38:15.217Z</time>
      </trkpt>
      <trkpt lat="51.29851" lon="6.64063">
        <ele>79.35441</ele>
        <time>2023-06-26T12:38:18.241Z</time>
      </trkpt>
      <trkpt lat="51.29839" lon="6.64058">
        <ele>79.27857</ele>
        <time>2023-06-26T12:38:21.209Z</time>
      </trkpt>
      <trkpt lat="51.29825" lon="6.64054">
        <ele>79.200724</ele>
        <time>2023-06-26T12:38:24.225Z</time>
      </trkpt>
      <trkpt lat="51.29816" lon="6.64051">
        <ele>79.147393</ele>
        <time>2023-06-26T12:38:26.234Z</time>
      </trkpt>
      <trkpt lat="51.29807" lon="6.64048">
        <ele>79.095195</ele>
        <time>2023-06-26T12:38:28.228Z</time>
      </trkpt>
      <trkpt lat="51.29798" lon="6.64045">
        <ele>79.041347</ele>
        <time>2023-06-26T12:38:30.223Z</time>
      </trkpt>
      <trkpt lat="51.29786" lon="6.6404">
        <ele>78.968037</ele>
        <time>2023-06-26T12:38:33.215Z</time>
      </trkpt>
      <trkpt lat="51.29773" lon="6.64035">
        <ele>78.893308</ele>
        <time>2023-06-26T12:38:36.221Z</time>
      </trkpt>
      <trkpt lat="51.2976" lon="6.64031">
        <ele>78.81625</ele>
        <time>2023-06-26T12:38:39.215Z</time>
      </trkpt>
      <trkpt lat="51.29751" lon="6.64028">
        <ele>78.764167</ele>
        <time>2023-06-26T12:38:41.215Z</time>
      </trkpt>
      <trkpt lat="51.29743" lon="6.64024">
        <ele>78.712103</ele>
        <time>2023-06-26T12:38:43.208Z</time>
      </trkpt>
      <trkpt lat="51.29733" lon="6.64021">
        <ele>78.657852</ele>
        <time>2023-06-26T12:38:45.220Z</time>
      </trkpt>
      <trkpt lat="51.29724" lon="6.64017">
        <ele>78.604306</ele>
        <time>2023-06-26T12:38:47.228Z</time>
      </trkpt>
      <trkpt lat="51.29712" lon="6.64012">
        <ele>78.607762</ele>
        <time>2023-06-26T12:38:50.226Z</time>
      </trkpt>
      <trkpt lat="51.29699" lon="6.64007">
        <ele>78.68011</ele>
        <time>2023-06-26T12:38:53.216Z</time>
      </trkpt>
      <trkpt lat="51.29686" lon="6.64003">
        <ele>78.752068</ele>
        <time>2023-06-26T12:38:56.226Z</time>
      </trkpt>
      <trkpt lat="51.29674" lon="6.63998">
        <ele>78.820637</ele>
        <time>2023-06-26T12:38:59.248Z</time>
      </trkpt>
      <trkpt lat="51.29661" lon="6.63994">
        <ele>78.891818</ele>
        <time>2023-06-26T12:39:02.231Z</time>
      </trkpt>
      <trkpt lat="51.29648" lon="6.6399">
        <ele>78.961121</ele>
        <time>2023-06-26T12:39:05.227Z</time>
      </trkpt>
      <trkpt lat="51.29637" lon="6.63985">
        <ele>79.026406</ele>
        <time>2023-06-26T12:39:08.211Z</time>
      </trkpt>
      <trkpt lat="51.29625" lon="6.63981">
        <ele>79.093061</ele>
        <time>2023-06-26T12:39:11.228Z</time>
      </trkpt>
      <trkpt lat="51.29614" lon="6.63977">
        <ele>79.153995</ele>
        <time>2023-06-26T12:39:14.224Z</time>
      </trkpt>
      <trkpt lat="51.29603" lon="6.63973">
        <ele>79.21459</ele>
        <time>2023-06-26T12:39:17.211Z</time>
      </trkpt>
      <trkpt lat="51.29593" lon="6.6397">
        <ele>79.270323</ele>
        <time>2023-06-26T12:39:20.235Z</time>
      </trkpt>
      <trkpt lat="51.29582" lon="6.63966">
        <ele>79.329466</ele>
        <time>2023-06-26T12:39:23.225Z</time>
      </trkpt>
      <trkpt lat="51.29571" lon="6.63963">
        <ele>79.389371</ele>
        <time>2023-06-26T12:39:26.217Z</time>
      </trkpt>
      <trkpt lat="51.29559" lon="6.63963">
        <ele>79.455249</ele>
        <time>2023-06-26T12:39:29.216Z</time>
      </trkpt>
      <trkpt lat="51.29547" lon="6.63972">
        <ele>79.526068</ele>
        <time>2023-06-26T12:39:32.213Z</time>
      </trkpt>
      <trkpt lat="51.29541" lon="6.63982">
        <ele>79.518386</ele>
        <time>2023-06-26T12:39:34.234Z</time>
      </trkpt>
      <trkpt lat="51.29533" lon="6.63991">
        <ele>79.461398</ele>
        <time>2023-06-26T12:39:36.205Z</time>
      </trkpt>
      <trkpt lat="51.29525" lon="6.63999">
        <ele>79.405768</ele>
        <time>2023-06-26T12:39:38.224Z</time>
      </trkpt>
      <trkpt lat="51.29518" lon="6.64008">
        <ele>79.350879</ele>
        <time>2023-06-26T12:39:40.227Z</time>
      </trkpt>
      <trkpt lat="51.2951" lon="6.64018">
        <ele>79.292068</ele>
        <time>2023-06-26T12:39:42.224Z</time>
      </trkpt>
      <trkpt lat="51.29502" lon="6.64029">
        <ele>79.227396</ele>
        <time>2023-06-26T12:39:44.234Z</time>
      </trkpt>
      <trkpt lat="51.29493" lon="6.6404">
        <ele>79.159519</ele>
        <time>2023-06-26T12:39:46.218Z</time>
      </trkpt>
      <trkpt lat="51.29483" lon="6.64053">
        <ele>79.087696</ele>
        <time>2023-06-26T12:39:48.204Z</time>
      </trkpt>
      <trkpt lat="51.29474" lon="6.64066">
        <ele>79.013931</ele>
        <time>2023-06-26T12:39:50.239Z</time>
      </trkpt>
      <trkpt lat="51.29465" lon="6.64078">
        <ele>78.940706</ele>
        <time>2023-06-26T12:39:52.221Z</time>
      </trkpt>
      <trkpt lat="51.29455" lon="6.64091">
        <ele>78.866072</ele>
        <time>2023-06-26T12:39:54.220Z</time>
      </trkpt>
      <trkpt lat="51.29444" lon="6.64103">
        <ele>78.787855</ele>
        <time>2023-06-26T12:39:56.221Z</time>
      </trkpt>
      <trkpt lat="51.29434" lon="6.64115">
        <ele>78.714585</ele>
        <time>2023-06-26T12:39:58.227Z</time>
      </trkpt>
      <trkpt lat="51.29425" lon="6.64128">
        <ele>78.640324</ele>
        <time>2023-06-26T12:40:00.218Z</time>
      </trkpt>
      <trkpt lat="51.29416" lon="6.64142">
        <ele>78.565566</ele>
        <time>2023-06-26T12:40:02.214Z</time>
      </trkpt>
      <trkpt lat="51.29406" lon="6.64154">
        <ele>78.493739</ele>
        <time>2023-06-26T12:40:04.216Z</time>
      </trkpt>
      <trkpt lat="51.29397" lon="6.64166">
        <ele>78.498452</ele>
        <time>2023-06-26T12:40:06.224Z</time>
      </trkpt>
      <trkpt lat="51.29388" lon="6.64178">
        <ele>78.524576</ele>
        <time>2023-06-26T12:40:08.223Z</time>
      </trkpt>
      <trkpt lat="51.29379" lon="6.64193">
        <ele>78.552296</ele>
        <time>2023-06-26T12:40:10.208Z</time>
      </trkpt>
      <trkpt lat="51.29371" lon="6.64208">
        <ele>78.58037</ele>
        <time>2023-06-26T12:40:12.222Z</time>
      </trkpt>
      <trkpt lat="51.29362" lon="6.64224">
        <ele>78.609392</ele>
        <time>2023-06-26T12:40:14.221Z</time>
      </trkpt>
      <trkpt lat="51.29354" lon="6.64241">
        <ele>78.637424</ele>
        <time>2023-06-26T12:40:16.219Z</time>
      </trkpt>
      <trkpt lat="51.29347" lon="6.64258">
        <ele>78.666008</ele>
        <time>2023-06-26T12:40:18.219Z</time>
      </trkpt>
      <trkpt lat="51.2934" lon="6.64275">
        <ele>78.693817</ele>
        <time>2023-06-26T12:40:20.243Z</time>
      </trkpt>
      <trkpt lat="51.29333" lon="6.64292">
        <ele>78.721455</ele>
        <time>2023-06-26T12:40:22.225Z</time>
      </trkpt>
      <trkpt lat="51.29327" lon="6.64309">
        <ele>78.749332</ele>
        <time>2023-06-26T12:40:24.239Z</time>
      </trkpt>
      <trkpt lat="51.29321" lon="6.64327">
        <ele>78.776786</ele>
        <time>2023-06-26T12:40:26.212Z</time>
      </trkpt>
      <trkpt lat="51.29314" lon="6.64345">
        <ele>78.805412</ele>
        <time>2023-06-26T12:40:28.226Z</time>
      </trkpt>
      <trkpt lat="51.29309" lon="6.64364">
        <ele>78.833714</ele>
        <time>2023-06-26T12:40:30.227Z</time>
      </trkpt>
      <trkpt lat="51.29303" lon="6.64383">
        <ele>78.862622</ele>
        <time>2023-06-26T12:40:32.222Z</time>
      </trkpt>
      <trkpt lat="51.29296" lon="6.64401">
        <ele>78.836847</ele>
        <time>2023-06-26T12:40:34.215Z</time>
      </trkpt>
      <trkpt lat="51.2929" lon="6.64421">
        <ele>78.782806</ele>
        <time>2023-06-26T12:40:36.225Z</time>
      </trkpt>
      <trkpt lat="51.29284" lon="6.64439">
        <ele>78.731114</ele>
        <time>2023-06-26T12:40:38.218Z</time>
      </trkpt>
      <trkpt lat="51.29278" lon="6.64458">
        <ele>78.678075</ele>
        <time>2023-06-26T12:40:40.208Z</time>
      </trkpt>
      <trkpt lat="51.29272" lon="6.64479">
        <ele>78.621097</ele>
        <time>2023-06-26T12:40:42.220Z</time>
      </trkpt>
      <trkpt lat="51.29268" lon="6.64501">
        <ele>78.566234</ele>
        <time>2023-06-26T12:40:44.195Z</time>
      </trkpt>
      <trkpt lat="51.2926" lon="6.64519">
        <ele>78.512889</ele>
        <time>2023-06-26T12:40:46.224Z</time>
      </trkpt>
      <trkpt lat="51.29252" lon="6.64533">
        <ele>78.466291</ele>
        <time>2023-06-26T12:40:48.218Z</time>
      </trkpt>
      <trkpt lat="51.29246" lon="6.6455">
        <ele>78.41735</ele>
        <time>2023-06-26T12:40:50.201Z</time>
      </trkpt>
      <trkpt lat="51.29239" lon="6.64567">
        <ele>78.367365</ele>
        <time>2023-06-26T12:40:52.219Z</time>
      </trkpt>
      <trkpt lat="51.29233" lon="6.64584">
        <ele>78.320059</ele>
        <time>2023-06-26T12:40:54.226Z</time>
      </trkpt>
      <trkpt lat="51.29227" lon="6.64601">
        <ele>78.271254</ele>
        <time>2023-06-26T12:40:56.223Z</time>
      </trkpt>
      <trkpt lat="51.29222" lon="6.64618">
        <ele>78.225513</ele>
        <time>2023-06-26T12:40:58.226Z</time>
      </trkpt>
      <trkpt lat="51.29216" lon="6.64635">
        <ele>78.17897</ele>
        <time>2023-06-26T12:41:00.227Z</time>
      </trkpt>
      <trkpt lat="51.29211" lon="6.6465">
        <ele>78.173238</ele>
        <time>2023-06-26T12:41:02.226Z</time>
      </trkpt>
      <trkpt lat="51.29206" lon="6.64663">
        <ele>78.184398</ele>
        <time>2023-06-26T12:41:04.223Z</time>
      </trkpt>
      <trkpt lat="51.292" lon="6.64676">
        <ele>78.195664</ele>
        <time>2023-06-26T12:41:06.222Z</time>
      </trkpt>
      <trkpt lat="51.29195" lon="6.64688">
        <ele>78.205805</ele>
        <time>2023-06-26T12:41:08.208Z</time>
      </trkpt>
      <trkpt lat="51.29188" lon="6.64705">
        <ele>78.219775</ele>
        <time>2023-06-26T12:41:11.220Z</time>
      </trkpt>
      <trkpt lat="51.2918" lon="6.64718">
        <ele>78.232708</ele>
        <time>2023-06-26T12:41:14.223Z</time>
      </trkpt>
      <trkpt lat="51.2917" lon="6.64716">
        <ele>78.244469</ele>
        <time>2023-06-26T12:41:17.222Z</time>
      </trkpt>
      <trkpt lat="51.29159" lon="6.64713">
        <ele>78.257234</ele>
        <time>2023-06-26T12:41:20.216Z</time>
      </trkpt>
      <trkpt lat="51.29147" lon="6.64712">
        <ele>78.27042</ele>
        <time>2023-06-26T12:41:23.227Z</time>
      </trkpt>
      <trkpt lat="51.29135" lon="6.64709">
        <ele>78.283841</ele>
        <time>2023-06-26T12:41:26.242Z</time>
      </trkpt>
      <trkpt lat="51.29126" lon="6.64709">
        <ele>78.294319</ele>
        <time>2023-06-26T12:41:28.226Z</time>
      </trkpt>
      <trkpt lat="51.29117" lon="6.64706">
        <ele>78.304596</ele>
        <time>2023-06-26T12:41:30.230Z</time>
      </trkpt>
      <trkpt lat="51.29107" lon="6.64704">
        <ele>78.315721</ele>
        <time>2023-06-26T12:41:32.225Z</time>
      </trkpt>
      <trkpt lat="51.29098" lon="6.64705">
        <ele>78.326195</ele>
        <time>2023-06-26T12:41:34.223Z</time>
      </trkpt>
      <trkpt lat="51.29089" lon="6.64704">
        <ele>78.336435</ele>
        <time>2023-06-26T12:41:36.211Z</time>
      </trkpt>
      <trkpt lat="51.2908" lon="6.64702">
        <ele>78.346614</ele>
        <time>2023-06-26T12:41:38.229Z</time>
      </trkpt>
      <trkpt lat="51.2907" lon="6.64701">
        <ele>78.357218</ele>
        <time>2023-06-26T12:41:40.225Z</time>
      </trkpt>
      <trkpt lat="51.29061" lon="6.64699">
        <ele>78.367543</ele>
        <time>2023-06-26T12:41:42.224Z</time>
      </trkpt>
      <trkpt lat="51.29048" lon="6.64698">
        <ele>78.550126</ele>
        <time>2023-06-26T12:41:45.223Z</time>
      </trkpt>
      <trkpt lat="51.29038" lon="6.64696">
        <ele>78.689541</ele>
        <time>2023-06-26T12:41:47.232Z</time>
      </trkpt>
      <trkpt lat="51.29027" lon="6.64696">
        <ele>78.835405</ele>
        <time>2023-06-26T12:41:49.223Z</time>
      </trkpt>
      <trkpt lat="51.29016" lon="6.64694">
        <ele>78.98071</ele>
        <time>2023-06-26T12:41:51.224Z</time>
      </trkpt>
      <trkpt lat="51.29006" lon="6.64692">
        <ele>79.11855</ele>
        <time>2023-06-26T12:41:53.232Z</time>
      </trkpt>
      <trkpt lat="51.28996" lon="6.64691">
        <ele>79.259265</ele>
        <time>2023-06-26T12:41:55.243Z</time>
      </trkpt>
      <trkpt lat="51.28986" lon="6.6469">
        <ele>79.392895</ele>
        <time>2023-06-26T12:41:57.225Z</time>
      </trkpt>
      <trkpt lat="51.28973" lon="6.64688">
        <ele>79.577786</ele>
        <time>2023-06-26T12:42:00.222Z</time>
      </trkpt>
      <trkpt lat="51.28963" lon="6.64686">
        <ele>79.710655</ele>
        <time>2023-06-26T12:42:02.219Z</time>
      </trkpt>
      <trkpt lat="51.28954" lon="6.64685">
        <ele>79.837498</ele>
        <time>2023-06-26T12:42:04.239Z</time>
      </trkpt>
      <trkpt lat="51.2894" lon="6.64685">
        <ele>80.024255</ele>
        <time>2023-06-26T12:42:07.222Z</time>
      </trkpt>
      <trkpt lat="51.28927" lon="6.64684">
        <ele>80.207423</ele>
        <time>2023-06-26T12:42:10.216Z</time>
      </trkpt>
      <trkpt lat="51.28917" lon="6.64684">
        <ele>80.336923</ele>
        <time>2023-06-26T12:42:12.246Z</time>
      </trkpt>
      <trkpt lat="51.28907" lon="6.64685">
        <ele>80.472198</ele>
        <time>2023-06-26T12:42:14.224Z</time>
      </trkpt>
      <trkpt lat="51.28897" lon="6.64686">
        <ele>80.609109</ele>
        <time>2023-06-26T12:42:16.224Z</time>
      </trkpt>
      <trkpt lat="51.28887" lon="6.64688">
        <ele>80.743575</ele>
        <time>2023-06-26T12:42:18.219Z</time>
      </trkpt>
      <trkpt lat="51.28878" lon="6.6469">
        <ele>80.810383</ele>
        <time>2023-06-26T12:42:20.199Z</time>
      </trkpt>
      <trkpt lat="51.28868" lon="6.64693">
        <ele>80.789756</ele>
        <time>2023-06-26T12:42:22.223Z</time>
      </trkpt>
      <trkpt lat="51.28858" lon="6.64695">
        <ele>80.76964</ele>
        <time>2023-06-26T12:42:24.225Z</time>
      </trkpt>
      <trkpt lat="51.28848" lon="6.64697">
        <ele>80.74872</ele>
        <time>2023-06-26T12:42:26.230Z</time>
      </trkpt>
      <trkpt lat="51.28838" lon="6.647">
        <ele>80.728194</ele>
        <time>2023-06-26T12:42:28.224Z</time>
      </trkpt>
      <trkpt lat="51.28828" lon="6.64702">
        <ele>80.706975</ele>
        <time>2023-06-26T12:42:30.224Z</time>
      </trkpt>
      <trkpt lat="51.28818" lon="6.64705">
        <ele>80.685776</ele>
        <time>2023-06-26T12:42:32.220Z</time>
      </trkpt>
      <trkpt lat="51.28808" lon="6.64707">
        <ele>80.664352</ele>
        <time>2023-06-26T12:42:34.215Z</time>
      </trkpt>
      <trkpt lat="51.28798" lon="6.6471">
        <ele>80.644087</ele>
        <time>2023-06-26T12:42:36.216Z</time>
      </trkpt>
      <trkpt lat="51.28789" lon="6.64713">
        <ele>80.624586</ele>
        <time>2023-06-26T12:42:38.216Z</time>
      </trkpt>
      <trkpt lat="51.28779" lon="6.64715">
        <ele>80.603946</ele>
        <time>2023-06-26T12:42:40.221Z</time>
      </trkpt>
      <trkpt lat="51.2877" lon="6.64717">
        <ele>80.584054</ele>
        <time>2023-06-26T12:42:42.224Z</time>
      </trkpt>
      <trkpt lat="51.28759" lon="6.64719">
        <ele>80.561009</ele>
        <time>2023-06-26T12:42:44.217Z</time>
      </trkpt>
      <trkpt lat="51.28749" lon="6.64721">
        <ele>80.539488</ele>
        <time>2023-06-26T12:42:46.224Z</time>
      </trkpt>
      <trkpt lat="51.28739" lon="6.64724">
        <ele>80.519809</ele>
        <time>2023-06-26T12:42:48.222Z</time>
      </trkpt>
      <trkpt lat="51.28729" lon="6.64727">
        <ele>80.498364</ele>
        <time>2023-06-26T12:42:50.223Z</time>
      </trkpt>
      <trkpt lat="51.28719" lon="6.6473">
        <ele>80.477759</ele>
        <time>2023-06-26T12:42:52.227Z</time>
      </trkpt>
      <trkpt lat="51.28709" lon="6.64732">
        <ele>80.45725</ele>
        <time>2023-06-26T12:42:54.206Z</time>
      </trkpt>
      <trkpt lat="51.287" lon="6.64735">
        <ele>80.423257</ele>
        <time>2023-06-26T12:42:56.231Z</time>
      </trkpt>
      <trkpt lat="51.2869" lon="6.64737">
        <ele>80.374868</ele>
        <time>2023-06-26T12:42:58.221Z</time>
      </trkpt>
      <trkpt lat="51.28679" lon="6.64739">
        <ele>80.323998</ele>
        <time>2023-06-26T12:43:00.224Z</time>
      </trkpt>
      <trkpt lat="51.28669" lon="6.64742">
        <ele>80.27289</ele>
        <time>2023-06-26T12:43:02.237Z</time>
      </trkpt>
      <trkpt lat="51.28658" lon="6.64745">
        <ele>80.221452</ele>
        <time>2023-06-26T12:43:04.226Z</time>
      </trkpt>
      <trkpt lat="51.28648" lon="6.64747">
        <ele>80.171221</ele>
        <time>2023-06-26T12:43:06.221Z</time>
      </trkpt>
      <trkpt lat="51.28638" lon="6.64749">
        <ele>80.121394</ele>
        <time>2023-06-26T12:43:08.231Z</time>
      </trkpt>
      <trkpt lat="51.28627" lon="6.64752">
        <ele>80.070178</ele>
        <time>2023-06-26T12:43:10.220Z</time>
      </trkpt>
      <trkpt lat="51.28617" lon="6.64755">
        <ele>80.018166</ele>
        <time>2023-06-26T12:43:12.228Z</time>
      </trkpt>
      <trkpt lat="51.28607" lon="6.64757">
        <ele>79.968859</ele>
        <time>2023-06-26T12:43:14.222Z</time>
      </trkpt>
      <trkpt lat="51.28596" lon="6.64759">
        <ele>79.917466</ele>
        <time>2023-06-26T12:43:16.225Z</time>
      </trkpt>
      <trkpt lat="51.28586" lon="6.6476">
        <ele>79.867527</ele>
        <time>2023-06-26T12:43:18.216Z</time>
      </trkpt>
      <trkpt lat="51.28576" lon="6.64763">
        <ele>79.816567</ele>
        <time>2023-06-26T12:43:20.230Z</time>
      </trkpt>
      <trkpt lat="51.28566" lon="6.64765">
        <ele>79.767567</ele>
        <time>2023-06-26T12:43:22.223Z</time>
      </trkpt>
      <trkpt lat="51.28555" lon="6.64767">
        <ele>79.718334</ele>
        <time>2023-06-26T12:43:24.236Z</time>
      </trkpt>
      <trkpt lat="51.28546" lon="6.6477">
        <ele>79.67134</ele>
        <time>2023-06-26T12:43:26.223Z</time>
      </trkpt>
      <trkpt lat="51.28537" lon="6.64771">
        <ele>79.627109</ele>
        <time>2023-06-26T12:43:28.222Z</time>
      </trkpt>
      <trkpt lat="51.28525" lon="6.64776">
        <ele>79.575453</ele>
        <time>2023-06-26T12:43:31.235Z</time>
      </trkpt>
      <trkpt lat="51.28513" lon="6.64783">
        <ele>79.574879</ele>
        <time>2023-06-26T12:43:34.207Z</time>
      </trkpt>
      <trkpt lat="51.28501" lon="6.64791">
        <ele>79.574309</ele>
        <time>2023-06-26T12:43:37.236Z</time>
      </trkpt>
      <trkpt lat="51.2849" lon="6.648">
        <ele>79.573747</ele>
        <time>2023-06-26T12:43:40.230Z</time>
      </trkpt>
      <trkpt lat="51.28479" lon="6.64809">
        <ele>79.57318</ele>
        <time>2023-06-26T12:43:43.234Z</time>
      </trkpt>
      <trkpt lat="51.28468" lon="6.64817">
        <ele>79.572619</ele>
        <time>2023-06-26T12:43:46.253Z</time>
      </trkpt>
      <trkpt lat="51.28456" lon="6.64825">
        <ele>79.572029</ele>
        <time>2023-06-26T12:43:49.250Z</time>
      </trkpt>
      <trkpt lat="51.28444" lon="6.64832">
        <ele>79.57144</ele>
        <time>2023-06-26T12:43:52.220Z</time>
      </trkpt>
      <trkpt lat="51.28432" lon="6.64841">
        <ele>79.570842</ele>
        <time>2023-06-26T12:43:55.240Z</time>
      </trkpt>
      <trkpt lat="51.2842" lon="6.64849">
        <ele>79.570277</ele>
        <time>2023-06-26T12:43:58.200Z</time>
      </trkpt>
      <trkpt lat="51.28409" lon="6.64858">
        <ele>79.569716</ele>
        <time>2023-06-26T12:44:01.226Z</time>
      </trkpt>
      <trkpt lat="51.28398" lon="6.64867">
        <ele>79.56913</ele>
        <time>2023-06-26T12:44:04.240Z</time>
      </trkpt>
      <trkpt lat="51.28386" lon="6.64876">
        <ele>79.568535</ele>
        <time>2023-06-26T12:44:07.226Z</time>
      </trkpt>
      <trkpt lat="51.28375" lon="6.64885">
        <ele>79.567974</ele>
        <time>2023-06-26T12:44:10.230Z</time>
      </trkpt>
      <trkpt lat="51.28364" lon="6.64893">
        <ele>79.567422</ele>
        <time>2023-06-26T12:44:13.243Z</time>
      </trkpt>
      <trkpt lat="51.28353" lon="6.64902">
        <ele>79.683715</ele>
        <time>2023-06-26T12:44:16.226Z</time>
      </trkpt>
      <trkpt lat="51.28344" lon="6.64908">
        <ele>79.799316</ele>
        <time>2023-06-26T12:44:19.220Z</time>
      </trkpt>
      <trkpt lat="51.28336" lon="6.64919">
        <ele>79.909559</ele>
        <time>2023-06-26T12:44:22.220Z</time>
      </trkpt>
      <trkpt lat="51.28328" lon="6.64906">
        <ele>80.033676</ele>
        <time>2023-06-26T12:44:26.197Z</time>
      </trkpt>
      <trkpt lat="51.28324" lon="6.64891">
        <ele>80.139905</ele>
        <time>2023-06-26T12:44:29.225Z</time>
      </trkpt>
      <trkpt lat="51.2832" lon="6.64877">
        <ele>80.251419</ele>
        <time>2023-06-26T12:44:32.225Z</time>
      </trkpt>
      <trkpt lat="51.28314" lon="6.64862">
        <ele>80.371532</ele>
        <time>2023-06-26T12:44:35.232Z</time>
      </trkpt>
      <trkpt lat="51.28308" lon="6.64847">
        <ele>80.491073</ele>
        <time>2023-06-26T12:44:38.221Z</time>
      </trkpt>
      <trkpt lat="51.28301" lon="6.64832">
        <ele>80.619249</ele>
        <time>2023-06-26T12:44:41.221Z</time>
      </trkpt>
      <trkpt lat="51.28295" lon="6.64817">
        <ele>80.742329</ele>
        <time>2023-06-26T12:44:44.224Z</time>
      </trkpt>
      <trkpt lat="51.28291" lon="6.64801">
        <ele>80.85875</ele>
        <time>2023-06-26T12:44:47.221Z</time>
      </trkpt>
      <trkpt lat="51.28287" lon="6.64785">
        <ele>80.979248</ele>
        <time>2023-06-26T12:44:50.221Z</time>
      </trkpt>
      <trkpt lat="51.28283" lon="6.64768">
        <ele>81.101617</ele>
        <time>2023-06-26T12:44:53.225Z</time>
      </trkpt>
      <trkpt lat="51.28279" lon="6.64752">
        <ele>81.2204</ele>
        <time>2023-06-26T12:44:56.250Z</time>
      </trkpt>
      <trkpt lat="51.28276" lon="6.64735">
        <ele>81.338998</ele>
        <time>2023-06-26T12:44:59.222Z</time>
      </trkpt>
      <trkpt lat="51.28274" lon="6.64719">
        <ele>81.453105</ele>
        <time>2023-06-26T12:45:02.223Z</time>
      </trkpt>
      <trkpt lat="51.28269" lon="6.64703">
        <ele>81.504131</ele>
        <time>2023-06-26T12:45:05.241Z</time>
      </trkpt>
      <trkpt lat="51.28265" lon="6.64689">
        <ele>81.405419</ele>
        <time>2023-06-26T12:45:08.214Z</time>
      </trkpt>
      <trkpt lat="51.28257" lon="6.64676">
        <ele>81.301926</ele>
        <time>2023-06-26T12:45:11.220Z</time>
      </trkpt>
      <trkpt lat="51.28249" lon="6.64661">
        <ele>81.188312</ele>
        <time>2023-06-26T12:45:14.221Z</time>
      </trkpt>
      <trkpt lat="51.28244" lon="6.64645">
        <ele>81.078433</ele>
        <time>2023-06-26T12:45:17.231Z</time>
      </trkpt>
      <trkpt lat="51.28239" lon="6.64631">
        <ele>80.980083</ele>
        <time>2023-06-26T12:45:20.224Z</time>
      </trkpt>
      <trkpt lat="51.28233" lon="6.64619">
        <ele>80.894239</ele>
        <time>2023-06-26T12:45:23.215Z</time>
      </trkpt>
      <trkpt lat="51.28226" lon="6.64607">
        <ele>80.795979</ele>
        <time>2023-06-26T12:45:27.215Z</time>
      </trkpt>
      <trkpt lat="51.28221" lon="6.64593">
        <ele>80.699675</ele>
        <time>2023-06-26T12:45:32.231Z</time>
      </trkpt>
      <trkpt lat="51.28215" lon="6.6458">
        <ele>80.601783</ele>
        <time>2023-06-26T12:45:39.228Z</time>
      </trkpt>
      <trkpt lat="51.28209" lon="6.64568">
        <ele>80.513927</ele>
        <time>2023-06-26T12:45:45.235Z</time>
      </trkpt>
      <trkpt lat="51.28204" lon="6.64556">
        <ele>80.424152</ele>
        <time>2023-06-26T12:45:49.236Z</time>
      </trkpt>
      <trkpt lat="51.28199" lon="6.64541">
        <ele>80.324308</ele>
        <time>2023-06-26T12:45:53.219Z</time>
      </trkpt>
      <trkpt lat="51.28193" lon="6.64528">
        <ele>80.225876</ele>
        <time>2023-06-26T12:45:57.211Z</time>
      </trkpt>
      <trkpt lat="51.28187" lon="6.64515">
        <ele>80.134499</ele>
        <time>2023-06-26T12:46:01.223Z</time>
      </trkpt>
      <trkpt lat="51.28182" lon="6.645">
        <ele>80.030021</ele>
        <time>2023-06-26T12:46:06.218Z</time>
      </trkpt>
      <trkpt lat="51.28177" lon="6.64485">
        <ele>79.934174</ele>
        <time>2023-06-26T12:46:11.226Z</time>
      </trkpt>
      <trkpt lat="51.28172" lon="6.64472">
        <ele>79.83887</ele>
        <time>2023-06-26T12:46:16.231Z</time>
      </trkpt>
      <trkpt lat="51.28169" lon="6.64458">
        <ele>80.00544</ele>
        <time>2023-06-26T12:46:21.217Z</time>
      </trkpt>
      <trkpt lat="51.28171" lon="6.64444">
        <ele>80.220738</ele>
        <time>2023-06-26T12:46:27.228Z</time>
      </trkpt>
      <trkpt lat="51.28171" lon="6.64418">
        <ele>80.610627</ele>
        <time>2023-06-26T12:46:52.225Z</time>
      </trkpt>
      <trkpt lat="51.28162" lon="6.64409">
        <ele>80.855277</ele>
        <time>2023-06-26T12:46:57.232Z</time>
      </trkpt>
      <trkpt lat="51.28153" lon="6.64399">
        <ele>81.096829</ele>
        <time>2023-06-26T12:47:01.225Z</time>
      </trkpt>
      <trkpt lat="51.28151" lon="6.64384">
        <ele>81.326377</ele>
        <time>2023-06-26T12:47:04.207Z</time>
      </trkpt>
      <trkpt lat="51.28148" lon="6.64367">
        <ele>81.581285</ele>
        <time>2023-06-26T12:47:07.222Z</time>
      </trkpt>
      <trkpt lat="51.28145" lon="6.64348">
        <ele>81.875849</ele>
        <time>2023-06-26T12:47:10.225Z</time>
      </trkpt>
      <trkpt lat="51.28142" lon="6.64334">
        <ele>82.086985</ele>
        <time>2023-06-26T12:47:12.234Z</time>
      </trkpt>
      <trkpt lat="51.28139" lon="6.64314">
        <ele>82.390145</ele>
        <time>2023-06-26T12:47:15.226Z</time>
      </trkpt>
      <trkpt lat="51.28135" lon="6.64295">
        <ele>82.690471</ele>
        <time>2023-06-26T12:47:18.248Z</time>
      </trkpt>
      <trkpt lat="51.28132" lon="6.64275">
        <ele>82.997728</ele>
        <time>2023-06-26T12:47:21.233Z</time>
      </trkpt>
      <trkpt lat="51.28129" lon="6.64255">
        <ele>83.295049</ele>
        <time>2023-06-26T12:47:24.208Z</time>
      </trkpt>
      <trkpt lat="51.28127" lon="6.64236">
        <ele>83.580874</ele>
        <time>2023-06-26T12:47:27.223Z</time>
      </trkpt>
      <trkpt lat="51.28123" lon="6.64218">
        <ele>83.855243</ele>
        <time>2023-06-26T12:47:30.226Z</time>
      </trkpt>
      <trkpt lat="51.28121" lon="6.64198">
        <ele>84.172577</ele>
        <time>2023-06-26T12:47:33.210Z</time>
      </trkpt>
      <trkpt lat="51.28119" lon="6.64179">
        <ele>84.541222</ele>
        <time>2023-06-26T12:47:36.236Z</time>
      </trkpt>
      <trkpt lat="51.28117" lon="6.64159">
        <ele>84.901562</ele>
        <time>2023-06-26T12:47:39.227Z</time>
      </trkpt>
      <trkpt lat="51.28115" lon="6.6414">
        <ele>85.270207</ele>
        <time>2023-06-26T12:47:42.229Z</time>
      </trkpt>
      <trkpt lat="51.28113" lon="6.64122">
        <ele>85.611556</ele>
        <time>2023-06-26T12:47:45.222Z</time>
      </trkpt>
      <trkpt lat="51.28111" lon="6.64104">
        <ele>85.952905</ele>
        <time>2023-06-26T12:47:48.223Z</time>
      </trkpt>
      <trkpt lat="51.28108" lon="6.64085">
        <ele>86.297342</ele>
        <time>2023-06-26T12:47:51.238Z</time>
      </trkpt>
      <trkpt lat="51.28106" lon="6.64067">
        <ele>86.644906</ele>
        <time>2023-06-26T12:47:54.219Z</time>
      </trkpt>
      <trkpt lat="51.28104" lon="6.64048">
        <ele>86.998453</ele>
        <time>2023-06-26T12:47:57.220Z</time>
      </trkpt>
      <trkpt lat="51.28102" lon="6.64029">
        <ele>87.353745</ele>
        <time>2023-06-26T12:48:00.223Z</time>
      </trkpt>
      <trkpt lat="51.281" lon="6.6401">
        <ele>87.704993</ele>
        <time>2023-06-26T12:48:03.220Z</time>
      </trkpt>
      <trkpt lat="51.28098" lon="6.63993">
        <ele>88.039795</ele>
        <time>2023-06-26T12:48:06.222Z</time>
      </trkpt>
      <trkpt lat="51.28096" lon="6.63975">
        <ele>88.375133</ele>
        <time>2023-06-26T12:48:09.221Z</time>
      </trkpt>
      <trkpt lat="51.28093" lon="6.63957">
        <ele>88.71533</ele>
        <time>2023-06-26T12:48:12.223Z</time>
      </trkpt>
      <trkpt lat="51.28091" lon="6.63939">
        <ele>89.052428</ele>
        <time>2023-06-26T12:48:15.230Z</time>
      </trkpt>
      <trkpt lat="51.28089" lon="6.63922">
        <ele>89.37316</ele>
        <time>2023-06-26T12:48:18.224Z</time>
      </trkpt>
      <trkpt lat="51.28088" lon="6.63903">
        <ele>89.324033</ele>
        <time>2023-06-26T12:48:21.227Z</time>
      </trkpt>
      <trkpt lat="51.28086" lon="6.63886">
        <ele>89.275478</ele>
        <time>2023-06-26T12:48:24.226Z</time>
      </trkpt>
      <trkpt lat="51.28084" lon="6.63869">
        <ele>89.230099</ele>
        <time>2023-06-26T12:48:27.237Z</time>
      </trkpt>
      <trkpt lat="51.28081" lon="6.63852">
        <ele>89.184594</ele>
        <time>2023-06-26T12:48:30.221Z</time>
      </trkpt>
      <trkpt lat="51.28079" lon="6.63836">
        <ele>89.13921</ele>
        <time>2023-06-26T12:48:33.231Z</time>
      </trkpt>
      <trkpt lat="51.28078" lon="6.63818">
        <ele>89.092176</ele>
        <time>2023-06-26T12:48:36.207Z</time>
      </trkpt>
      <trkpt lat="51.28076" lon="6.638">
        <ele>89.042156</ele>
        <time>2023-06-26T12:48:39.229Z</time>
      </trkpt>
      <trkpt lat="51.28073" lon="6.63779">
        <ele>88.985083</ele>
        <time>2023-06-26T12:48:42.222Z</time>
      </trkpt>
      <trkpt lat="51.28072" lon="6.63765">
        <ele>88.946305</ele>
        <time>2023-06-26T12:48:44.204Z</time>
      </trkpt>
      <trkpt lat="51.2807" lon="6.6375">
        <ele>88.907001</ele>
        <time>2023-06-26T12:48:46.202Z</time>
      </trkpt>
      <trkpt lat="51.28068" lon="6.63729">
        <ele>88.848331</ele>
        <time>2023-06-26T12:48:49.223Z</time>
      </trkpt>
      <trkpt lat="51.28065" lon="6.63714">
        <ele>88.807908</ele>
        <time>2023-06-26T12:48:51.224Z</time>
      </trkpt>
      <trkpt lat="51.28063" lon="6.63699">
        <ele>88.767062</ele>
        <time>2023-06-26T12:48:53.223Z</time>
      </trkpt>
      <trkpt lat="51.28062" lon="6.63684">
        <ele>88.725767</ele>
        <time>2023-06-26T12:48:55.230Z</time>
      </trkpt>
      <trkpt lat="51.2806" lon="6.63668">
        <ele>88.68308</ele>
        <time>2023-06-26T12:48:57.235Z</time>
      </trkpt>
      <trkpt lat="51.28058" lon="6.63653">
        <ele>88.642587</ele>
        <time>2023-06-26T12:48:59.225Z</time>
      </trkpt>
      <trkpt lat="51.28056" lon="6.63637">
        <ele>88.568776</ele>
        <time>2023-06-26T12:49:01.236Z</time>
      </trkpt>
      <trkpt lat="51.28055" lon="6.63622">
        <ele>88.328252</ele>
        <time>2023-06-26T12:49:03.213Z</time>
      </trkpt>
      <trkpt lat="51.28053" lon="6.63607">
        <ele>88.085911</ele>
        <time>2023-06-26T12:49:05.220Z</time>
      </trkpt>
      <trkpt lat="51.2805" lon="6.63586">
        <ele>87.751553</ele>
        <time>2023-06-26T12:49:08.218Z</time>
      </trkpt>
      <trkpt lat="51.28049" lon="6.6357">
        <ele>87.506395</ele>
        <time>2023-06-26T12:49:10.221Z</time>
      </trkpt>
      <trkpt lat="51.28047" lon="6.63555">
        <ele>87.260028</ele>
        <time>2023-06-26T12:49:12.237Z</time>
      </trkpt>
      <trkpt lat="51.28045" lon="6.63539">
        <ele>87.005954</ele>
        <time>2023-06-26T12:49:14.223Z</time>
      </trkpt>
      <trkpt lat="51.28043" lon="6.63523">
        <ele>86.753475</ele>
        <time>2023-06-26T12:49:16.220Z</time>
      </trkpt>
      <trkpt lat="51.28041" lon="6.63506">
        <ele>86.491235</ele>
        <time>2023-06-26T12:49:18.225Z</time>
      </trkpt>
      <trkpt lat="51.28039" lon="6.6349">
        <ele>86.226512</ele>
        <time>2023-06-26T12:49:20.227Z</time>
      </trkpt>
      <trkpt lat="51.28037" lon="6.63473">
        <ele>85.953503</ele>
        <time>2023-06-26T12:49:22.239Z</time>
      </trkpt>
      <trkpt lat="51.28036" lon="6.63456">
        <ele>85.687082</ele>
        <time>2023-06-26T12:49:24.232Z</time>
      </trkpt>
      <trkpt lat="51.28033" lon="6.63439">
        <ele>85.423381</ele>
        <time>2023-06-26T12:49:26.238Z</time>
      </trkpt>
      <trkpt lat="51.28031" lon="6.63423">
        <ele>85.157621</ele>
        <time>2023-06-26T12:49:28.239Z</time>
      </trkpt>
      <trkpt lat="51.28029" lon="6.63407">
        <ele>84.904997</ele>
        <time>2023-06-26T12:49:30.192Z</time>
      </trkpt>
      <trkpt lat="51.28026" lon="6.63391">
        <ele>84.65046</ele>
        <time>2023-06-26T12:49:32.238Z</time>
      </trkpt>
      <trkpt lat="51.28024" lon="6.63376">
        <ele>84.405656</ele>
        <time>2023-06-26T12:49:34.215Z</time>
      </trkpt>
      <trkpt lat="51.28021" lon="6.63361">
        <ele>84.153491</ele>
        <time>2023-06-26T12:49:36.220Z</time>
      </trkpt>
      <trkpt lat="51.28017" lon="6.63345">
        <ele>84.139599</ele>
        <time>2023-06-26T12:49:38.223Z</time>
      </trkpt>
      <trkpt lat="51.28013" lon="6.63331">
        <ele>84.173433</ele>
        <time>2023-06-26T12:49:40.230Z</time>
      </trkpt>
      <trkpt lat="51.28008" lon="6.63316">
        <ele>84.20789</ele>
        <time>2023-06-26T12:49:42.233Z</time>
      </trkpt>
      <trkpt lat="51.28004" lon="6.63302">
        <ele>84.240543</ele>
        <time>2023-06-26T12:49:44.227Z</time>
      </trkpt>
      <trkpt lat="51.28" lon="6.63289">
        <ele>84.27269</ele>
        <time>2023-06-26T12:49:46.217Z</time>
      </trkpt>
      <trkpt lat="51.27995" lon="6.63275">
        <ele>84.305219</ele>
        <time>2023-06-26T12:49:48.224Z</time>
      </trkpt>
      <trkpt lat="51.2799" lon="6.63262">
        <ele>84.338777</ele>
        <time>2023-06-26T12:49:50.219Z</time>
      </trkpt>
      <trkpt lat="51.27984" lon="6.63249">
        <ele>84.371086</ele>
        <time>2023-06-26T12:49:52.222Z</time>
      </trkpt>
      <trkpt lat="51.27979" lon="6.63236">
        <ele>84.403517</ele>
        <time>2023-06-26T12:49:54.225Z</time>
      </trkpt>
      <trkpt lat="51.27973" lon="6.63224">
        <ele>84.436117</ele>
        <time>2023-06-26T12:49:56.204Z</time>
      </trkpt>
      <trkpt lat="51.27966" lon="6.63212">
        <ele>84.46875</ele>
        <time>2023-06-26T12:49:58.224Z</time>
      </trkpt>
      <trkpt lat="51.2796" lon="6.63201">
        <ele>84.499958</ele>
        <time>2023-06-26T12:50:00.219Z</time>
      </trkpt>
      <trkpt lat="51.27953" lon="6.6319">
        <ele>84.532461</ele>
        <time>2023-06-26T12:50:02.220Z</time>
      </trkpt>
      <trkpt lat="51.27946" lon="6.63179">
        <ele>84.565838</ele>
        <time>2023-06-26T12:50:04.222Z</time>
      </trkpt>
      <trkpt lat="51.27939" lon="6.63169">
        <ele>84.598333</ele>
        <time>2023-06-26T12:50:06.229Z</time>
      </trkpt>
      <trkpt lat="51.27932" lon="6.63159">
        <ele>84.629823</ele>
        <time>2023-06-26T12:50:08.220Z</time>
      </trkpt>
      <trkpt lat="51.27925" lon="6.6315">
        <ele>84.661377</ele>
        <time>2023-06-26T12:50:10.211Z</time>
      </trkpt>
      <trkpt lat="51.27918" lon="6.6314">
        <ele>84.692975</ele>
        <time>2023-06-26T12:50:12.221Z</time>
      </trkpt>
      <trkpt lat="51.27911" lon="6.6313">
        <ele>84.728999</ele>
        <time>2023-06-26T12:50:14.217Z</time>
      </trkpt>
      <trkpt lat="51.27903" lon="6.63121">
        <ele>84.779437</ele>
        <time>2023-06-26T12:50:16.239Z</time>
      </trkpt>
      <trkpt lat="51.27895" lon="6.63112">
        <ele>84.829876</ele>
        <time>2023-06-26T12:50:18.226Z</time>
      </trkpt>
      <trkpt lat="51.27887" lon="6.63104">
        <ele>84.878822</ele>
        <time>2023-06-26T12:50:20.220Z</time>
      </trkpt>
      <trkpt lat="51.27879" lon="6.63096">
        <ele>84.927586</ele>
        <time>2023-06-26T12:50:22.220Z</time>
      </trkpt>
      <trkpt lat="51.27871" lon="6.63089">
        <ele>84.976604</ele>
        <time>2023-06-26T12:50:24.226Z</time>
      </trkpt>
      <trkpt lat="51.27859" lon="6.63078">
        <ele>85.045943</ele>
        <time>2023-06-26T12:50:27.218Z</time>
      </trkpt>
      <trkpt lat="51.2785" lon="6.6307">
        <ele>85.103567</ele>
        <time>2023-06-26T12:50:30.226Z</time>
      </trkpt>
      <trkpt lat="51.27841" lon="6.63061">
        <ele>85.157442</ele>
        <time>2023-06-26T12:50:33.221Z</time>
      </trkpt>
      <trkpt lat="51.27831" lon="6.63055">
        <ele>85.211403</ele>
        <time>2023-06-26T12:50:36.225Z</time>
      </trkpt>
      <trkpt lat="51.2782" lon="6.6305">
        <ele>85.270727</ele>
        <time>2023-06-26T12:50:39.225Z</time>
      </trkpt>
      <trkpt lat="51.27809" lon="6.63041">
        <ele>85.336672</ele>
        <time>2023-06-26T12:50:42.216Z</time>
      </trkpt>
      <trkpt lat="51.27798" lon="6.63034">
        <ele>85.398277</ele>
        <time>2023-06-26T12:50:45.225Z</time>
      </trkpt>
      <trkpt lat="51.27788" lon="6.63025">
        <ele>85.460516</ele>
        <time>2023-06-26T12:50:48.220Z</time>
      </trkpt>
      <trkpt lat="51.27777" lon="6.63017">
        <ele>85.5206</ele>
        <time>2023-06-26T12:50:51.204Z</time>
      </trkpt>
      <trkpt lat="51.27768" lon="6.63008">
        <ele>85.576557</ele>
        <time>2023-06-26T12:50:54.216Z</time>
      </trkpt>
      <trkpt lat="51.27758" lon="6.63">
        <ele>85.633887</ele>
        <time>2023-06-26T12:50:57.228Z</time>
      </trkpt>
      <trkpt lat="51.27748" lon="6.62993">
        <ele>85.751236</ele>
        <time>2023-06-26T12:51:00.224Z</time>
      </trkpt>
      <trkpt lat="51.27738" lon="6.62986">
        <ele>85.903333</ele>
        <time>2023-06-26T12:51:03.220Z</time>
      </trkpt>
      <trkpt lat="51.27727" lon="6.62978">
        <ele>86.064383</ele>
        <time>2023-06-26T12:51:06.227Z</time>
      </trkpt>
      <trkpt lat="51.27717" lon="6.62971">
        <ele>86.220326</ele>
        <time>2023-06-26T12:51:09.238Z</time>
      </trkpt>
      <trkpt lat="51.27706" lon="6.62963">
        <ele>86.377169</ele>
        <time>2023-06-26T12:51:12.234Z</time>
      </trkpt>
      <trkpt lat="51.27696" lon="6.62954">
        <ele>86.539077</ele>
        <time>2023-06-26T12:51:15.228Z</time>
      </trkpt>
      <trkpt lat="51.27686" lon="6.62946">
        <ele>86.693476</ele>
        <time>2023-06-26T12:51:18.220Z</time>
      </trkpt>
      <trkpt lat="51.27674" lon="6.62938">
        <ele>86.866997</ele>
        <time>2023-06-26T12:51:21.233Z</time>
      </trkpt>
      <trkpt lat="51.27663" lon="6.62929">
        <ele>87.026152</ele>
        <time>2023-06-26T12:51:24.220Z</time>
      </trkpt>
      <trkpt lat="51.27653" lon="6.62921">
        <ele>87.178217</ele>
        <time>2023-06-26T12:51:27.218Z</time>
      </trkpt>
      <trkpt lat="51.27644" lon="6.62914">
        <ele>87.323914</ele>
        <time>2023-06-26T12:51:30.238Z</time>
      </trkpt>
      <trkpt lat="51.27634" lon="6.62906">
        <ele>87.477429</ele>
        <time>2023-06-26T12:51:33.212Z</time>
      </trkpt>
      <trkpt lat="51.27623" lon="6.62897">
        <ele>87.634942</ele>
        <time>2023-06-26T12:51:36.204Z</time>
      </trkpt>
      <trkpt lat="51.27613" lon="6.62889">
        <ele>87.789107</ele>
        <time>2023-06-26T12:51:39.219Z</time>
      </trkpt>
      <trkpt lat="51.27602" lon="6.62881">
        <ele>87.953181</ele>
        <time>2023-06-26T12:51:42.237Z</time>
      </trkpt>
      <trkpt lat="51.27591" lon="6.62873">
        <ele>88.096547</ele>
        <time>2023-06-26T12:51:45.236Z</time>
      </trkpt>
      <trkpt lat="51.2758" lon="6.62864">
        <ele>88.072429</ele>
        <time>2023-06-26T12:51:48.224Z</time>
      </trkpt>
      <trkpt lat="51.2757" lon="6.62854">
        <ele>88.046873</ele>
        <time>2023-06-26T12:51:51.238Z</time>
      </trkpt>
      <trkpt lat="51.27559" lon="6.62846">
        <ele>88.022818</ele>
        <time>2023-06-26T12:51:54.216Z</time>
      </trkpt>
      <trkpt lat="51.27548" lon="6.62839">
        <ele>87.999439</ele>
        <time>2023-06-26T12:51:57.224Z</time>
      </trkpt>
      <trkpt lat="51.27538" lon="6.6283">
        <ele>87.974604</ele>
        <time>2023-06-26T12:52:00.195Z</time>
      </trkpt>
      <trkpt lat="51.27528" lon="6.62822">
        <ele>87.952748</ele>
        <time>2023-06-26T12:52:03.219Z</time>
      </trkpt>
      <trkpt lat="51.27518" lon="6.62815">
        <ele>87.930947</ele>
        <time>2023-06-26T12:52:06.224Z</time>
      </trkpt>
      <trkpt lat="51.27509" lon="6.62808">
        <ele>87.909587</ele>
        <time>2023-06-26T12:52:09.230Z</time>
      </trkpt>
      <trkpt lat="51.27501" lon="6.62802">
        <ele>87.890965</ele>
        <time>2023-06-26T12:52:12.215Z</time>
      </trkpt>
      <trkpt lat="51.27492" lon="6.62794">
        <ele>87.871352</ele>
        <time>2023-06-26T12:52:15.241Z</time>
      </trkpt>
      <trkpt lat="51.27482" lon="6.62786">
        <ele>87.848135</ele>
        <time>2023-06-26T12:52:19.226Z</time>
      </trkpt>
      <trkpt lat="51.27472" lon="6.62778">
        <ele>87.826182</ele>
        <time>2023-06-26T12:52:23.203Z</time>
      </trkpt>
      <trkpt lat="51.27463" lon="6.62769">
        <ele>87.80382</ele>
        <time>2023-06-26T12:52:27.225Z</time>
      </trkpt>
      <trkpt lat="51.27453" lon="6.62759">
        <ele>87.779187</ele>
        <time>2023-06-26T12:52:31.233Z</time>
      </trkpt>
      <trkpt lat="51.27445" lon="6.62751">
        <ele>87.760467</ele>
        <time>2023-06-26T12:52:34.223Z</time>
      </trkpt>
      <trkpt lat="51.27437" lon="6.62741">
        <ele>87.739987</ele>
        <time>2023-06-26T12:52:37.219Z</time>
      </trkpt>
      <trkpt lat="51.27429" lon="6.6273">
        <ele>87.74301</ele>
        <time>2023-06-26T12:52:40.228Z</time>
      </trkpt>
      <trkpt lat="51.27421" lon="6.62719">
        <ele>87.756989</ele>
        <time>2023-06-26T12:52:43.207Z</time>
      </trkpt>
      <trkpt lat="51.27412" lon="6.62708">
        <ele>87.771514</ele>
        <time>2023-06-26T12:52:46.218Z</time>
      </trkpt>
      <trkpt lat="51.27404" lon="6.62696">
        <ele>87.785659</ele>
        <time>2023-06-26T12:52:49.234Z</time>
      </trkpt>
      <trkpt lat="51.27398" lon="6.62684">
        <ele>87.799048</ele>
        <time>2023-06-26T12:52:52.222Z</time>
      </trkpt>
      <trkpt lat="51.27391" lon="6.62672">
        <ele>87.812344</ele>
        <time>2023-06-26T12:52:55.216Z</time>
      </trkpt>
      <trkpt lat="51.27385" lon="6.6266">
        <ele>87.825247</ele>
        <time>2023-06-26T12:52:58.240Z</time>
      </trkpt>
      <trkpt lat="51.27378" lon="6.62649">
        <ele>87.837579</ele>
        <time>2023-06-26T12:53:01.222Z</time>
      </trkpt>
      <trkpt lat="51.2737" lon="6.62637">
        <ele>87.85273</ele>
        <time>2023-06-26T12:53:05.220Z</time>
      </trkpt>
      <trkpt lat="51.27363" lon="6.62625">
        <ele>87.865665</ele>
        <time>2023-06-26T12:53:10.214Z</time>
      </trkpt>
      <trkpt lat="51.27355" lon="6.62614">
        <ele>87.879645</ele>
        <time>2023-06-26T12:53:40.218Z</time>
      </trkpt>
      <trkpt lat="51.27348" lon="6.62602">
        <ele>87.893361</ele>
        <time>2023-06-26T12:53:44.220Z</time>
      </trkpt>
      <trkpt lat="51.27342" lon="6.62592">
        <ele>87.9052</ele>
        <time>2023-06-26T12:53:47.233Z</time>
      </trkpt>
      <trkpt lat="51.27334" lon="6.6258">
        <ele>87.919402</ele>
        <time>2023-06-26T12:53:50.221Z</time>
      </trkpt>
      <trkpt lat="51.27325" lon="6.62568">
        <ele>87.93497</ele>
        <time>2023-06-26T12:53:53.215Z</time>
      </trkpt>
      <trkpt lat="51.27316" lon="6.62554">
        <ele>87.951263</ele>
        <time>2023-06-26T12:53:56.216Z</time>
      </trkpt>
      <trkpt lat="51.27309" lon="6.6254">
        <ele>87.966292</ele>
        <time>2023-06-26T12:53:59.226Z</time>
      </trkpt>
      <trkpt lat="51.27303" lon="6.62526">
        <ele>87.953689</ele>
        <time>2023-06-26T12:54:02.225Z</time>
      </trkpt>
      <trkpt lat="51.27297" lon="6.62511">
        <ele>87.928578</ele>
        <time>2023-06-26T12:54:05.212Z</time>
      </trkpt>
      <trkpt lat="51.27294" lon="6.62494">
        <ele>87.903583</ele>
        <time>2023-06-26T12:54:08.223Z</time>
      </trkpt>
      <trkpt lat="51.27289" lon="6.62477">
        <ele>87.877707</ele>
        <time>2023-06-26T12:54:11.218Z</time>
      </trkpt>
      <trkpt lat="51.27284" lon="6.62461">
        <ele>87.851846</ele>
        <time>2023-06-26T12:54:14.214Z</time>
      </trkpt>
      <trkpt lat="51.2728" lon="6.62445">
        <ele>87.828087</ele>
        <time>2023-06-26T12:54:17.219Z</time>
      </trkpt>
      <trkpt lat="51.27276" lon="6.62428">
        <ele>87.803301</ele>
        <time>2023-06-26T12:54:20.231Z</time>
      </trkpt>
      <trkpt lat="51.27271" lon="6.62415">
        <ele>87.781693</ele>
        <time>2023-06-26T12:54:23.218Z</time>
      </trkpt>
      <trkpt lat="51.27267" lon="6.62399">
        <ele>87.757147</ele>
        <time>2023-06-26T12:54:27.224Z</time>
      </trkpt>
      <trkpt lat="51.27263" lon="6.62385">
        <ele>87.735205</ele>
        <time>2023-06-26T12:54:32.221Z</time>
      </trkpt>
      <trkpt lat="51.27259" lon="6.62371">
        <ele>87.714175</ele>
        <time>2023-06-26T12:54:38.200Z</time>
      </trkpt>
      <trkpt lat="51.27255" lon="6.62357">
        <ele>87.691827</ele>
        <time>2023-06-26T12:54:45.209Z</time>
      </trkpt>
      <trkpt lat="51.27248" lon="6.62331">
        <ele>87.652708</ele>
        <time>2023-06-26T12:57:12.213Z</time>
      </trkpt>
      <trkpt lat="51.27243" lon="6.62319">
        <ele>87.631721</ele>
        <time>2023-06-26T12:57:16.222Z</time>
      </trkpt>
      <trkpt lat="51.27236" lon="6.62307">
        <ele>87.609541</ele>
        <time>2023-06-26T12:57:20.312Z</time>
      </trkpt>
      <trkpt lat="51.27233" lon="6.62291">
        <ele>87.586511</ele>
        <time>2023-06-26T12:57:24.241Z</time>
      </trkpt>
      <trkpt lat="51.27226" lon="6.62281">
        <ele>87.564539</ele>
        <time>2023-06-26T12:57:27.219Z</time>
      </trkpt>
      <trkpt lat="51.27219" lon="6.6227">
        <ele>87.528441</ele>
        <time>2023-06-26T12:57:30.226Z</time>
      </trkpt>
      <trkpt lat="51.27211" lon="6.62259">
        <ele>87.491422</ele>
        <time>2023-06-26T12:57:33.229Z</time>
      </trkpt>
      <trkpt lat="51.27196" lon="6.62278">
        <ele>87.424387</ele>
        <time>2023-06-26T12:58:14.224Z</time>
      </trkpt>
      <trkpt lat="51.27187" lon="6.62291">
        <ele>87.383046</ele>
        <time>2023-06-26T12:58:18.227Z</time>
      </trkpt>
      <trkpt lat="51.2718" lon="6.62305">
        <ele>87.341885</ele>
        <time>2023-06-26T12:58:22.203Z</time>
      </trkpt>
      <trkpt lat="51.27172" lon="6.62315">
        <ele>87.308983</ele>
        <time>2023-06-26T12:58:26.219Z</time>
      </trkpt>
      <trkpt lat="51.27163" lon="6.62319">
        <ele>87.275006</ele>
        <time>2023-06-26T12:58:31.225Z</time>
      </trkpt>
      <trkpt lat="51.27154" lon="6.62327">
        <ele>87.238016</ele>
        <time>2023-06-26T12:58:34.217Z</time>
      </trkpt>
      <trkpt lat="51.27144" lon="6.62335">
        <ele>87.200331</ele>
        <time>2023-06-26T12:58:37.236Z</time>
      </trkpt>
      <trkpt lat="51.27134" lon="6.62344">
        <ele>87.159652</ele>
        <time>2023-06-26T12:58:40.235Z</time>
      </trkpt>
      <trkpt lat="51.27127" lon="6.62357">
        <ele>87.121825</ele>
        <time>2023-06-26T12:58:43.214Z</time>
      </trkpt>
      <trkpt lat="51.27119" lon="6.62365">
        <ele>87.088776</ele>
        <time>2023-06-26T12:58:45.233Z</time>
      </trkpt>
      <trkpt lat="51.27108" lon="6.62373">
        <ele>87.047954</ele>
        <time>2023-06-26T12:58:48.224Z</time>
      </trkpt>
      <trkpt lat="51.27097" lon="6.6238">
        <ele>87.004446</ele>
        <time>2023-06-26T12:58:51.227Z</time>
      </trkpt>
      <trkpt lat="51.27087" lon="6.62388">
        <ele>86.964062</ele>
        <time>2023-06-26T12:58:54.211Z</time>
      </trkpt>
      <trkpt lat="51.27076" lon="6.62396">
        <ele>86.926115</ele>
        <time>2023-06-26T12:58:57.228Z</time>
      </trkpt>
      <trkpt lat="51.27065" lon="6.62406">
        <ele>86.891894</ele>
        <time>2023-06-26T12:59:00.227Z</time>
      </trkpt>
      <trkpt lat="51.27053" lon="6.62413">
        <ele>86.857254</ele>
        <time>2023-06-26T12:59:03.204Z</time>
      </trkpt>
      <trkpt lat="51.27041" lon="6.6242">
        <ele>86.822084</ele>
        <time>2023-06-26T12:59:06.229Z</time>
      </trkpt>
      <trkpt lat="51.27029" lon="6.62427">
        <ele>86.787846</ele>
        <time>2023-06-26T12:59:09.223Z</time>
      </trkpt>
      <trkpt lat="51.27018" lon="6.62434">
        <ele>86.755147</ele>
        <time>2023-06-26T12:59:12.226Z</time>
      </trkpt>
      <trkpt lat="51.27008" lon="6.62441">
        <ele>86.724287</ele>
        <time>2023-06-26T12:59:15.226Z</time>
      </trkpt>
      <trkpt lat="51.26999" lon="6.62449">
        <ele>86.696423</ele>
        <time>2023-06-26T12:59:18.215Z</time>
      </trkpt>
      <trkpt lat="51.26989" lon="6.62455">
        <ele>86.666386</ele>
        <time>2023-06-26T12:59:22.198Z</time>
      </trkpt>
      <trkpt lat="51.26985" lon="6.6244">
        <ele>86.638118</ele>
        <time>2023-06-26T12:59:26.308Z</time>
      </trkpt>
      <trkpt lat="51.26985" lon="6.62425">
        <ele>86.611938</ele>
        <time>2023-06-26T12:59:29.236Z</time>
      </trkpt>
      <trkpt lat="51.26985" lon="6.62409">
        <ele>86.585466</ele>
        <time>2023-06-26T12:59:32.218Z</time>
      </trkpt>
      <trkpt lat="51.26976" lon="6.62402">
        <ele>86.55744</ele>
        <time>2023-06-26T12:59:35.220Z</time>
      </trkpt>
      <trkpt lat="51.26965" lon="6.62399">
        <ele>86.525737</ele>
        <time>2023-06-26T12:59:38.210Z</time>
      </trkpt>
      <trkpt lat="51.26953" lon="6.62398">
        <ele>86.494603</ele>
        <time>2023-06-26T12:59:41.246Z</time>
      </trkpt>
      <trkpt lat="51.26942" lon="6.62396">
        <ele>86.464384</ele>
        <time>2023-06-26T12:59:44.216Z</time>
      </trkpt>
      <trkpt lat="51.26931" lon="6.62392">
        <ele>86.479554</ele>
        <time>2023-06-26T12:59:47.205Z</time>
      </trkpt>
      <trkpt lat="51.2692" lon="6.62387">
        <ele>86.571558</ele>
        <time>2023-06-26T12:59:50.214Z</time>
      </trkpt>
      <trkpt lat="51.26909" lon="6.62383">
        <ele>86.665157</ele>
        <time>2023-06-26T12:59:53.217Z</time>
      </trkpt>
      <trkpt lat="51.26899" lon="6.62377">
        <ele>86.749173</ele>
        <time>2023-06-26T12:59:56.235Z</time>
      </trkpt>
      <trkpt lat="51.2689" lon="6.62372">
        <ele>86.831789</ele>
        <time>2023-06-26T12:59:59.223Z</time>
      </trkpt>
      <trkpt lat="51.26882" lon="6.62365">
        <ele>86.907695</ele>
        <time>2023-06-26T13:00:02.225Z</time>
      </trkpt>
      <trkpt lat="51.26871" lon="6.62357">
        <ele>87.006354</ele>
        <time>2023-06-26T13:00:05.207Z</time>
      </trkpt>
      <trkpt lat="51.26859" lon="6.62349">
        <ele>87.110159</ele>
        <time>2023-06-26T13:00:08.218Z</time>
      </trkpt>
      <trkpt lat="51.26849" lon="6.62341">
        <ele>87.206571</ele>
        <time>2023-06-26T13:00:11.245Z</time>
      </trkpt>
      <trkpt lat="51.26838" lon="6.62332">
        <ele>87.309407</ele>
        <time>2023-06-26T13:00:14.216Z</time>
      </trkpt>
      <trkpt lat="51.26826" lon="6.62326">
        <ele>87.406299</ele>
        <time>2023-06-26T13:00:17.222Z</time>
      </trkpt>
      <trkpt lat="51.26815" lon="6.62324">
        <ele>87.502593</ele>
        <time>2023-06-26T13:00:20.198Z</time>
      </trkpt>
      <trkpt lat="51.26805" lon="6.62324">
        <ele>87.585865</ele>
        <time>2023-06-26T13:00:23.208Z</time>
      </trkpt>
      <trkpt lat="51.26792" lon="6.62324">
        <ele>87.690555</ele>
        <time>2023-06-26T13:00:26.208Z</time>
      </trkpt>
      <trkpt lat="51.2678" lon="6.62323">
        <ele>87.792959</ele>
        <time>2023-06-26T13:00:29.224Z</time>
      </trkpt>
      <trkpt lat="51.26768" lon="6.62322">
        <ele>87.892929</ele>
        <time>2023-06-26T13:00:32.199Z</time>
      </trkpt>
      <trkpt lat="51.26756" lon="6.62319">
        <ele>87.9993</ele>
        <time>2023-06-26T13:00:35.199Z</time>
      </trkpt>
      <trkpt lat="51.26745" lon="6.62318">
        <ele>88.10128</ele>
        <time>2023-06-26T13:00:38.221Z</time>
      </trkpt>
      <trkpt lat="51.26735" lon="6.62317">
        <ele>88.199988</ele>
        <time>2023-06-26T13:00:41.231Z</time>
      </trkpt>
      <trkpt lat="51.26724" lon="6.62316">
        <ele>88.298272</ele>
        <time>2023-06-26T13:00:44.210Z</time>
      </trkpt>
      <trkpt lat="51.26714" lon="6.62315">
        <ele>88.393752</ele>
        <time>2023-06-26T13:00:47.215Z</time>
      </trkpt>
      <trkpt lat="51.26708" lon="6.62303">
        <ele>88.483914</ele>
        <time>2023-06-26T13:00:50.206Z</time>
      </trkpt>
      <trkpt lat="51.26709" lon="6.62285">
        <ele>88.589088</ele>
        <time>2023-06-26T13:00:53.210Z</time>
      </trkpt>
      <trkpt lat="51.26711" lon="6.62267">
        <ele>88.700528</ele>
        <time>2023-06-26T13:00:56.207Z</time>
      </trkpt>
      <trkpt lat="51.26715" lon="6.6225">
        <ele>88.805965</ele>
        <time>2023-06-26T13:00:59.223Z</time>
      </trkpt>
      <trkpt lat="51.26717" lon="6.62232">
        <ele>88.916467</ele>
        <time>2023-06-26T13:01:02.235Z</time>
      </trkpt>
      <trkpt lat="51.26719" lon="6.62212">
        <ele>89.032914</ele>
        <time>2023-06-26T13:01:05.201Z</time>
      </trkpt>
      <trkpt lat="51.26721" lon="6.62193">
        <ele>89.151886</ele>
        <time>2023-06-26T13:01:08.223Z</time>
      </trkpt>
      <trkpt lat="51.26724" lon="6.62173">
        <ele>89.273038</ele>
        <time>2023-06-26T13:01:11.223Z</time>
      </trkpt>
      <trkpt lat="51.26728" lon="6.62153">
        <ele>89.394191</ele>
        <time>2023-06-26T13:01:14.218Z</time>
      </trkpt>
      <trkpt lat="51.26732" lon="6.62136">
        <ele>89.503694</ele>
        <time>2023-06-26T13:01:17.222Z</time>
      </trkpt>
      <trkpt lat="51.26735" lon="6.62122">
        <ele>89.591101</ele>
        <time>2023-06-26T13:01:19.220Z</time>
      </trkpt>
      <trkpt lat="51.26738" lon="6.62101">
        <ele>89.596851</ele>
        <time>2023-06-26T13:01:22.227Z</time>
      </trkpt>
      <trkpt lat="51.26743" lon="6.62083">
        <ele>89.561004</ele>
        <time>2023-06-26T13:01:25.233Z</time>
      </trkpt>
      <trkpt lat="51.26748" lon="6.62066">
        <ele>89.527733</ele>
        <time>2023-06-26T13:01:28.221Z</time>
      </trkpt>
      <trkpt lat="51.26752" lon="6.62052">
        <ele>89.498277</ele>
        <time>2023-06-26T13:01:31.224Z</time>
      </trkpt>
      <trkpt lat="51.26748" lon="6.62038">
        <ele>89.470255</ele>
        <time>2023-06-26T13:01:36.215Z</time>
      </trkpt>
      <trkpt lat="51.26736" lon="6.62034">
        <ele>89.434284</ele>
        <time>2023-06-26T13:01:39.228Z</time>
      </trkpt>
      <trkpt lat="51.26723" lon="6.6203">
        <ele>89.397386</ele>
        <time>2023-06-26T13:01:42.228Z</time>
      </trkpt>
      <trkpt lat="51.26712" lon="6.62025">
        <ele>89.362617</ele>
        <time>2023-06-26T13:01:45.234Z</time>
      </trkpt>
      <trkpt lat="51.267" lon="6.62022">
        <ele>89.328301</ele>
        <time>2023-06-26T13:01:48.213Z</time>
      </trkpt>
      <trkpt lat="51.26688" lon="6.62021">
        <ele>89.29245</ele>
        <time>2023-06-26T13:01:51.216Z</time>
      </trkpt>
      <trkpt lat="51.26675" lon="6.6202">
        <ele>89.256962</ele>
        <time>2023-06-26T13:01:54.214Z</time>
      </trkpt>
      <trkpt lat="51.26664" lon="6.62015">
        <ele>89.221802</ele>
        <time>2023-06-26T13:01:57.220Z</time>
      </trkpt>
      <trkpt lat="51.26652" lon="6.62011">
        <ele>89.187775</ele>
        <time>2023-06-26T13:02:00.207Z</time>
      </trkpt>
      <trkpt lat="51.26641" lon="6.62007">
        <ele>89.15366</ele>
        <time>2023-06-26T13:02:03.222Z</time>
      </trkpt>
      <trkpt lat="51.26629" lon="6.62003">
        <ele>89.119108</ele>
        <time>2023-06-26T13:02:06.196Z</time>
      </trkpt>
      <trkpt lat="51.26617" lon="6.62001">
        <ele>89.048903</ele>
        <time>2023-06-26T13:02:09.216Z</time>
      </trkpt>
      <trkpt lat="51.26608" lon="6.61997">
        <ele>88.963466</ele>
        <time>2023-06-26T13:02:12.222Z</time>
      </trkpt>
      <trkpt lat="51.26597" lon="6.61994">
        <ele>88.863558</ele>
        <time>2023-06-26T13:02:16.213Z</time>
      </trkpt>
      <trkpt lat="51.26591" lon="6.62008">
        <ele>88.765555</ele>
        <time>2023-06-26T13:02:20.245Z</time>
      </trkpt>
      <trkpt lat="51.26589" lon="6.62023">
        <ele>88.675742</ele>
        <time>2023-06-26T13:02:23.227Z</time>
      </trkpt>
      <trkpt lat="51.26585" lon="6.62038">
        <ele>88.58693</ele>
        <time>2023-06-26T13:02:26.214Z</time>
      </trkpt>
      <trkpt lat="51.26576" lon="6.6204">
        <ele>88.504478</ele>
        <time>2023-06-26T13:02:29.214Z</time>
      </trkpt>
      <trkpt lat="51.26566" lon="6.62036">
        <ele>88.415836</ele>
        <time>2023-06-26T13:02:32.205Z</time>
      </trkpt>
      <trkpt lat="51.26557" lon="6.62035">
        <ele>88.328586</ele>
        <time>2023-06-26T13:02:35.230Z</time>
      </trkpt>
      <trkpt lat="51.26546" lon="6.62034">
        <ele>88.23396</ele>
        <time>2023-06-26T13:02:38.226Z</time>
      </trkpt>
      <trkpt lat="51.26536" lon="6.62032">
        <ele>88.144316</ele>
        <time>2023-06-26T13:02:41.213Z</time>
      </trkpt>
      <trkpt lat="51.26526" lon="6.62028">
        <ele>88.054534</ele>
        <time>2023-06-26T13:02:44.218Z</time>
      </trkpt>
      <trkpt lat="51.26514" lon="6.62025">
        <ele>87.943901</ele>
        <time>2023-06-26T13:02:47.220Z</time>
      </trkpt>
      <trkpt lat="51.26501" lon="6.62021">
        <ele>87.824959</ele>
        <time>2023-06-26T13:02:50.236Z</time>
      </trkpt>
      <trkpt lat="51.26489" lon="6.62015">
        <ele>87.710159</ele>
        <time>2023-06-26T13:02:53.233Z</time>
      </trkpt>
      <trkpt lat="51.26477" lon="6.6201">
        <ele>87.599712</ele>
        <time>2023-06-26T13:02:56.221Z</time>
      </trkpt>
      <trkpt lat="51.26465" lon="6.62005">
        <ele>87.489222</ele>
        <time>2023-06-26T13:02:59.218Z</time>
      </trkpt>
      <trkpt lat="51.26453" lon="6.62">
        <ele>87.551903</ele>
        <time>2023-06-26T13:03:02.222Z</time>
      </trkpt>
      <trkpt lat="51.26441" lon="6.61996">
        <ele>87.615636</ele>
        <time>2023-06-26T13:03:05.231Z</time>
      </trkpt>
      <trkpt lat="51.26432" lon="6.61991">
        <ele>87.663479</ele>
        <time>2023-06-26T13:03:07.227Z</time>
      </trkpt>
      <trkpt lat="51.26421" lon="6.61987">
        <ele>87.723725</ele>
        <time>2023-06-26T13:03:10.212Z</time>
      </trkpt>
      <trkpt lat="51.2641" lon="6.61983">
        <ele>87.784118</ele>
        <time>2023-06-26T13:03:13.229Z</time>
      </trkpt>
      <trkpt lat="51.26398" lon="6.6198">
        <ele>87.8464</ele>
        <time>2023-06-26T13:03:16.228Z</time>
      </trkpt>
      <trkpt lat="51.26386" lon="6.61975">
        <ele>87.909183</ele>
        <time>2023-06-26T13:03:19.208Z</time>
      </trkpt>
      <trkpt lat="51.26374" lon="6.61973">
        <ele>87.975195</ele>
        <time>2023-06-26T13:03:22.227Z</time>
      </trkpt>
      <trkpt lat="51.26362" lon="6.6197">
        <ele>88.037732</ele>
        <time>2023-06-26T13:03:25.239Z</time>
      </trkpt>
      <trkpt lat="51.2635" lon="6.61964">
        <ele>88.09934</ele>
        <time>2023-06-26T13:03:28.212Z</time>
      </trkpt>
      <trkpt lat="51.26338" lon="6.61962">
        <ele>88.165525</ele>
        <time>2023-06-26T13:03:31.213Z</time>
      </trkpt>
      <trkpt lat="51.26326" lon="6.61958">
        <ele>88.228493</ele>
        <time>2023-06-26T13:03:34.227Z</time>
      </trkpt>
      <trkpt lat="51.26314" lon="6.61956">
        <ele>88.292193</ele>
        <time>2023-06-26T13:03:37.229Z</time>
      </trkpt>
      <trkpt lat="51.26301" lon="6.61952">
        <ele>88.357899</ele>
        <time>2023-06-26T13:03:40.219Z</time>
      </trkpt>
      <trkpt lat="51.26288" lon="6.61948">
        <ele>88.414852</ele>
        <time>2023-06-26T13:03:43.214Z</time>
      </trkpt>
      <trkpt lat="51.26279" lon="6.61946">
        <ele>88.322737</ele>
        <time>2023-06-26T13:03:45.222Z</time>
      </trkpt>
      <trkpt lat="51.26266" lon="6.61942">
        <ele>88.187619</ele>
        <time>2023-06-26T13:03:48.228Z</time>
      </trkpt>
      <trkpt lat="51.26256" lon="6.61939">
        <ele>88.092727</ele>
        <time>2023-06-26T13:03:50.233Z</time>
      </trkpt>
      <trkpt lat="51.26244" lon="6.61935">
        <ele>87.972563</ele>
        <time>2023-06-26T13:03:53.222Z</time>
      </trkpt>
      <trkpt lat="51.26232" lon="6.61932">
        <ele>87.850788</ele>
        <time>2023-06-26T13:03:56.205Z</time>
      </trkpt>
      <trkpt lat="51.26221" lon="6.61928">
        <ele>87.734978</ele>
        <time>2023-06-26T13:03:59.226Z</time>
      </trkpt>
      <trkpt lat="51.26211" lon="6.61925">
        <ele>87.639831</ele>
        <time>2023-06-26T13:04:01.220Z</time>
      </trkpt>
      <trkpt lat="51.262" lon="6.61922">
        <ele>87.523357</ele>
        <time>2023-06-26T13:04:04.214Z</time>
      </trkpt>
      <trkpt lat="51.26188" lon="6.6192">
        <ele>87.40679</ele>
        <time>2023-06-26T13:04:07.227Z</time>
      </trkpt>
      <trkpt lat="51.26176" lon="6.61917">
        <ele>87.285935</ele>
        <time>2023-06-26T13:04:10.210Z</time>
      </trkpt>
      <trkpt lat="51.26164" lon="6.61912">
        <ele>87.163652</ele>
        <time>2023-06-26T13:04:13.243Z</time>
      </trkpt>
      <trkpt lat="51.26154" lon="6.61905">
        <ele>87.054777</ele>
        <time>2023-06-26T13:04:16.207Z</time>
      </trkpt>
      <trkpt lat="51.26144" lon="6.619">
        <ele>86.950152</ele>
        <time>2023-06-26T13:04:19.219Z</time>
      </trkpt>
      <trkpt lat="51.26133" lon="6.61896">
        <ele>86.836122</ele>
        <time>2023-06-26T13:04:22.211Z</time>
      </trkpt>
      <trkpt lat="51.26122" lon="6.61902">
        <ele>86.718069</ele>
        <time>2023-06-26T13:04:25.212Z</time>
      </trkpt>
      <trkpt lat="51.2611" lon="6.61908">
        <ele>86.631374</ele>
        <time>2023-06-26T13:04:28.221Z</time>
      </trkpt>
      <trkpt lat="51.26099" lon="6.61915">
        <ele>86.604156</ele>
        <time>2023-06-26T13:04:31.219Z</time>
      </trkpt>
      <trkpt lat="51.26087" lon="6.61921">
        <ele>86.576198</ele>
        <time>2023-06-26T13:04:34.234Z</time>
      </trkpt>
      <trkpt lat="51.26074" lon="6.61926">
        <ele>86.54796</ele>
        <time>2023-06-26T13:04:37.214Z</time>
      </trkpt>
      <trkpt lat="51.26061" lon="6.61929">
        <ele>86.51975</ele>
        <time>2023-06-26T13:04:40.231Z</time>
      </trkpt>
      <trkpt lat="51.26052" lon="6.61931">
        <ele>86.499443</ele>
        <time>2023-06-26T13:04:42.213Z</time>
      </trkpt>
      <trkpt lat="51.26039" lon="6.61935">
        <ele>86.470132</ele>
        <time>2023-06-26T13:04:45.228Z</time>
      </trkpt>
      <trkpt lat="51.2603" lon="6.61937">
        <ele>86.450277</ele>
        <time>2023-06-26T13:04:47.232Z</time>
      </trkpt>
      <trkpt lat="51.26017" lon="6.61939">
        <ele>86.422724</ele>
        <time>2023-06-26T13:04:50.217Z</time>
      </trkpt>
      <trkpt lat="51.26005" lon="6.61941">
        <ele>86.39571</ele>
        <time>2023-06-26T13:04:53.223Z</time>
      </trkpt>
      <trkpt lat="51.25996" lon="6.61943">
        <ele>86.376072</ele>
        <time>2023-06-26T13:04:55.222Z</time>
      </trkpt>
      <trkpt lat="51.25983" lon="6.61946">
        <ele>86.347434</ele>
        <time>2023-06-26T13:04:58.198Z</time>
      </trkpt>
      <trkpt lat="51.2597" lon="6.61947">
        <ele>86.31847</ele>
        <time>2023-06-26T13:05:01.213Z</time>
      </trkpt>
      <trkpt lat="51.25961" lon="6.61949">
        <ele>86.298244</ele>
        <time>2023-06-26T13:05:03.209Z</time>
      </trkpt>
      <trkpt lat="51.25952" lon="6.6195">
        <ele>86.278221</ele>
        <time>2023-06-26T13:05:05.211Z</time>
      </trkpt>
      <trkpt lat="51.25938" lon="6.61953">
        <ele>86.248899</ele>
        <time>2023-06-26T13:05:08.214Z</time>
      </trkpt>
      <trkpt lat="51.25929" lon="6.61955">
        <ele>86.267053</ele>
        <time>2023-06-26T13:05:10.222Z</time>
      </trkpt>
      <trkpt lat="51.2592" lon="6.61957">
        <ele>86.28974</ele>
        <time>2023-06-26T13:05:12.219Z</time>
      </trkpt>
      <trkpt lat="51.25907" lon="6.61959">
        <ele>86.323272</ele>
        <time>2023-06-26T13:05:15.228Z</time>
      </trkpt>
      <trkpt lat="51.25893" lon="6.61961">
        <ele>86.356543</ele>
        <time>2023-06-26T13:05:18.194Z</time>
      </trkpt>
      <trkpt lat="51.25884" lon="6.61963">
        <ele>86.379517</ele>
        <time>2023-06-26T13:05:20.223Z</time>
      </trkpt>
      <trkpt lat="51.25875" lon="6.61964">
        <ele>86.40182</ele>
        <time>2023-06-26T13:05:22.230Z</time>
      </trkpt>
      <trkpt lat="51.25862" lon="6.61967">
        <ele>86.435249</ele>
        <time>2023-06-26T13:05:25.220Z</time>
      </trkpt>
      <trkpt lat="51.25849" lon="6.61969">
        <ele>86.467507</ele>
        <time>2023-06-26T13:05:28.225Z</time>
      </trkpt>
      <trkpt lat="51.25836" lon="6.6197">
        <ele>86.498702</ele>
        <time>2023-06-26T13:05:31.217Z</time>
      </trkpt>
      <trkpt lat="51.25825" lon="6.61972">
        <ele>86.525658</ele>
        <time>2023-06-26T13:05:34.214Z</time>
      </trkpt>
      <trkpt lat="51.25814" lon="6.61975">
        <ele>86.553882</ele>
        <time>2023-06-26T13:05:37.220Z</time>
      </trkpt>
      <trkpt lat="51.25802" lon="6.61977">
        <ele>86.583708</ele>
        <time>2023-06-26T13:05:40.219Z</time>
      </trkpt>
      <trkpt lat="51.2579" lon="6.61978">
        <ele>86.613946</ele>
        <time>2023-06-26T13:05:43.233Z</time>
      </trkpt>
      <trkpt lat="51.25777" lon="6.6198">
        <ele>86.645018</ele>
        <time>2023-06-26T13:05:46.233Z</time>
      </trkpt>
      <trkpt lat="51.25766" lon="6.61982">
        <ele>86.672861</ele>
        <time>2023-06-26T13:05:49.213Z</time>
      </trkpt>
      <trkpt lat="51.25754" lon="6.61985">
        <ele>86.723167</ele>
        <time>2023-06-26T13:05:52.216Z</time>
      </trkpt>
      <trkpt lat="51.25742" lon="6.61987">
        <ele>86.804765</ele>
        <time>2023-06-26T13:05:55.223Z</time>
      </trkpt>
      <trkpt lat="51.25731" lon="6.61988">
        <ele>86.885522</ele>
        <time>2023-06-26T13:05:58.236Z</time>
      </trkpt>
      <trkpt lat="51.25719" lon="6.61992">
        <ele>86.965391</ele>
        <time>2023-06-26T13:06:01.216Z</time>
      </trkpt>
      <trkpt lat="51.25707" lon="6.61994">
        <ele>87.047233</ele>
        <time>2023-06-26T13:06:04.227Z</time>
      </trkpt>
      <trkpt lat="51.25696" lon="6.61996">
        <ele>87.127028</ele>
        <time>2023-06-26T13:06:07.230Z</time>
      </trkpt>
      <trkpt lat="51.25684" lon="6.61999">
        <ele>87.210346</ele>
        <time>2023-06-26T13:06:10.216Z</time>
      </trkpt>
      <trkpt lat="51.25672" lon="6.62">
        <ele>87.294501</ele>
        <time>2023-06-26T13:06:13.203Z</time>
      </trkpt>
      <trkpt lat="51.25663" lon="6.62003">
        <ele>87.356829</ele>
        <time>2023-06-26T13:06:15.207Z</time>
      </trkpt>
      <trkpt lat="51.2565" lon="6.62005">
        <ele>87.4434</ele>
        <time>2023-06-26T13:06:18.217Z</time>
      </trkpt>
      <trkpt lat="51.25637" lon="6.62008">
        <ele>87.535643</ele>
        <time>2023-06-26T13:06:21.218Z</time>
      </trkpt>
      <trkpt lat="51.25624" lon="6.62009">
        <ele>87.626662</ele>
        <time>2023-06-26T13:06:24.215Z</time>
      </trkpt>
      <trkpt lat="51.2561" lon="6.62012">
        <ele>87.718905</ele>
        <time>2023-06-26T13:06:27.216Z</time>
      </trkpt>
      <trkpt lat="51.25598" lon="6.62014">
        <ele>87.802477</ele>
        <time>2023-06-26T13:06:30.218Z</time>
      </trkpt>
      <trkpt lat="51.25586" lon="6.62017">
        <ele>87.890125</ele>
        <time>2023-06-26T13:06:33.217Z</time>
      </trkpt>
      <trkpt lat="51.25573" lon="6.62019">
        <ele>87.957</ele>
        <time>2023-06-26T13:06:36.207Z</time>
      </trkpt>
      <trkpt lat="51.2556" lon="6.62021">
        <ele>88.010176</ele>
        <time>2023-06-26T13:06:39.208Z</time>
      </trkpt>
      <trkpt lat="51.25548" lon="6.62023">
        <ele>88.061438</ele>
        <time>2023-06-26T13:06:42.223Z</time>
      </trkpt>
      <trkpt lat="51.25535" lon="6.62025">
        <ele>88.112496</ele>
        <time>2023-06-26T13:06:45.242Z</time>
      </trkpt>
      <trkpt lat="51.25523" lon="6.62027">
        <ele>88.164133</ele>
        <time>2023-06-26T13:06:48.222Z</time>
      </trkpt>
      <trkpt lat="51.2551" lon="6.6203">
        <ele>88.21817</ele>
        <time>2023-06-26T13:06:51.224Z</time>
      </trkpt>
      <trkpt lat="51.25496" lon="6.62033">
        <ele>88.272457</ele>
        <time>2023-06-26T13:06:54.210Z</time>
      </trkpt>
      <trkpt lat="51.25483" lon="6.62035">
        <ele>88.326377</ele>
        <time>2023-06-26T13:06:57.223Z</time>
      </trkpt>
      <trkpt lat="51.2547" lon="6.62037">
        <ele>88.380065</ele>
        <time>2023-06-26T13:07:00.233Z</time>
      </trkpt>
      <trkpt lat="51.25457" lon="6.62038">
        <ele>88.431815</ele>
        <time>2023-06-26T13:07:03.220Z</time>
      </trkpt>
      <trkpt lat="51.25444" lon="6.6204">
        <ele>88.486662</ele>
        <time>2023-06-26T13:07:06.221Z</time>
      </trkpt>
      <trkpt lat="51.25431" lon="6.62043">
        <ele>88.539635</ele>
        <time>2023-06-26T13:07:09.224Z</time>
      </trkpt>
      <trkpt lat="51.25418" lon="6.62044">
        <ele>88.594311</ele>
        <time>2023-06-26T13:07:12.225Z</time>
      </trkpt>
      <trkpt lat="51.25404" lon="6.62045">
        <ele>88.648078</ele>
        <time>2023-06-26T13:07:15.217Z</time>
      </trkpt>
      <trkpt lat="51.25395" lon="6.62046">
        <ele>88.66583</ele>
        <time>2023-06-26T13:07:17.220Z</time>
      </trkpt>
      <trkpt lat="51.25386" lon="6.62046">
        <ele>88.672882</ele>
        <time>2023-06-26T13:07:19.232Z</time>
      </trkpt>
      <trkpt lat="51.25373" lon="6.62046">
        <ele>88.683071</ele>
        <time>2023-06-26T13:07:22.237Z</time>
      </trkpt>
      <trkpt lat="51.25359" lon="6.62044">
        <ele>88.693206</ele>
        <time>2023-06-26T13:07:25.216Z</time>
      </trkpt>
      <trkpt lat="51.2535" lon="6.62043">
        <ele>88.700271</ele>
        <time>2023-06-26T13:07:27.218Z</time>
      </trkpt>
      <trkpt lat="51.25337" lon="6.62043">
        <ele>88.710464</ele>
        <time>2023-06-26T13:07:30.219Z</time>
      </trkpt>
      <trkpt lat="51.25324" lon="6.62042">
        <ele>88.720282</ele>
        <time>2023-06-26T13:07:33.224Z</time>
      </trkpt>
      <trkpt lat="51.25311" lon="6.6204">
        <ele>88.730373</ele>
        <time>2023-06-26T13:07:36.216Z</time>
      </trkpt>
      <trkpt lat="51.25298" lon="6.62037">
        <ele>88.740708</ele>
        <time>2023-06-26T13:07:39.218Z</time>
      </trkpt>
      <trkpt lat="51.25289" lon="6.62035">
        <ele>88.747733</ele>
        <time>2023-06-26T13:07:41.222Z</time>
      </trkpt>
      <trkpt lat="51.2528" lon="6.62034">
        <ele>88.754666</ele>
        <time>2023-06-26T13:07:43.220Z</time>
      </trkpt>
      <trkpt lat="51.25271" lon="6.62032">
        <ele>88.761573</ele>
        <time>2023-06-26T13:07:45.219Z</time>
      </trkpt>
      <trkpt lat="51.25262" lon="6.62029">
        <ele>88.768541</ele>
        <time>2023-06-26T13:07:47.231Z</time>
      </trkpt>
      <trkpt lat="51.25249" lon="6.62025">
        <ele>88.778551</ele>
        <time>2023-06-26T13:07:50.210Z</time>
      </trkpt>
      <trkpt lat="51.25236" lon="6.6202">
        <ele>88.788549</ele>
        <time>2023-06-26T13:07:53.218Z</time>
      </trkpt>
      <trkpt lat="51.25227" lon="6.62018">
        <ele>88.795508</ele>
        <time>2023-06-26T13:07:55.222Z</time>
      </trkpt>
      <trkpt lat="51.25218" lon="6.62015">
        <ele>88.790521</ele>
        <time>2023-06-26T13:07:57.222Z</time>
      </trkpt>
      <trkpt lat="51.25209" lon="6.6201">
        <ele>88.773041</ele>
        <time>2023-06-26T13:07:59.232Z</time>
      </trkpt>
      <trkpt lat="51.252" lon="6.62007">
        <ele>88.755404</ele>
        <time>2023-06-26T13:08:01.215Z</time>
      </trkpt>
      <trkpt lat="51.25191" lon="6.62003">
        <ele>88.738014</ele>
        <time>2023-06-26T13:08:03.218Z</time>
      </trkpt>
      <trkpt lat="51.25182" lon="6.61999">
        <ele>88.720427</ele>
        <time>2023-06-26T13:08:05.236Z</time>
      </trkpt>
      <trkpt lat="51.25174" lon="6.61994">
        <ele>88.703614</ele>
        <time>2023-06-26T13:08:07.218Z</time>
      </trkpt>
      <trkpt lat="51.25164" lon="6.6199">
        <ele>88.685848</ele>
        <time>2023-06-26T13:08:09.216Z</time>
      </trkpt>
      <trkpt lat="51.25156" lon="6.61986">
        <ele>88.668645</ele>
        <time>2023-06-26T13:08:11.233Z</time>
      </trkpt>
      <trkpt lat="51.25147" lon="6.61981">
        <ele>88.651013</ele>
        <time>2023-06-26T13:08:13.221Z</time>
      </trkpt>
      <trkpt lat="51.25137" lon="6.61976">
        <ele>88.632852</ele>
        <time>2023-06-26T13:08:15.223Z</time>
      </trkpt>
      <trkpt lat="51.25128" lon="6.61971">
        <ele>88.615121</ele>
        <time>2023-06-26T13:08:17.226Z</time>
      </trkpt>
      <trkpt lat="51.25119" lon="6.61967">
        <ele>88.596539</ele>
        <time>2023-06-26T13:08:19.216Z</time>
      </trkpt>
      <trkpt lat="51.2511" lon="6.61961">
        <ele>88.578658</ele>
        <time>2023-06-26T13:08:21.220Z</time>
      </trkpt>
      <trkpt lat="51.25101" lon="6.61956">
        <ele>88.560986</ele>
        <time>2023-06-26T13:08:23.221Z</time>
      </trkpt>
      <trkpt lat="51.25088" lon="6.61948">
        <ele>88.535815</ele>
        <time>2023-06-26T13:08:26.219Z</time>
      </trkpt>
      <trkpt lat="51.25076" lon="6.61941">
        <ele>88.511136</ele>
        <time>2023-06-26T13:08:29.220Z</time>
      </trkpt>
      <trkpt lat="51.25064" lon="6.61934">
        <ele>88.486939</ele>
        <time>2023-06-26T13:08:32.226Z</time>
      </trkpt>
      <trkpt lat="51.25052" lon="6.61927">
        <ele>88.46392</ele>
        <time>2023-06-26T13:08:35.208Z</time>
      </trkpt>
      <trkpt lat="51.2504" lon="6.61922">
        <ele>88.474723</ele>
        <time>2023-06-26T13:08:38.223Z</time>
      </trkpt>
      <trkpt lat="51.25028" lon="6.61917">
        <ele>88.486136</ele>
        <time>2023-06-26T13:08:41.220Z</time>
      </trkpt>
      <trkpt lat="51.25015" lon="6.61912">
        <ele>88.497755</ele>
        <time>2023-06-26T13:08:44.219Z</time>
      </trkpt>
      <trkpt lat="51.25004" lon="6.61907">
        <ele>88.508339</ele>
        <time>2023-06-26T13:08:47.216Z</time>
      </trkpt>
      <trkpt lat="51.24992" lon="6.61902">
        <ele>88.519302</ele>
        <time>2023-06-26T13:08:50.230Z</time>
      </trkpt>
      <trkpt lat="51.24979" lon="6.619">
        <ele>88.531182</ele>
        <time>2023-06-26T13:08:53.216Z</time>
      </trkpt>
      <trkpt lat="51.2497" lon="6.61898">
        <ele>88.539645</ele>
        <time>2023-06-26T13:08:55.223Z</time>
      </trkpt>
      <trkpt lat="51.24957" lon="6.61899">
        <ele>88.551758</ele>
        <time>2023-06-26T13:08:58.216Z</time>
      </trkpt>
      <trkpt lat="51.24943" lon="6.619">
        <ele>88.563768</ele>
        <time>2023-06-26T13:09:01.217Z</time>
      </trkpt>
      <trkpt lat="51.24934" lon="6.619">
        <ele>88.571894</ele>
        <time>2023-06-26T13:09:03.213Z</time>
      </trkpt>
      <trkpt lat="51.24925" lon="6.61902">
        <ele>88.580015</ele>
        <time>2023-06-26T13:09:05.224Z</time>
      </trkpt>
      <trkpt lat="51.24916" lon="6.61905">
        <ele>88.588527</ele>
        <time>2023-06-26T13:09:07.227Z</time>
      </trkpt>
      <trkpt lat="51.24907" lon="6.61908">
        <ele>88.597091</ele>
        <time>2023-06-26T13:09:09.219Z</time>
      </trkpt>
      <trkpt lat="51.24894" lon="6.61914">
        <ele>88.609362</ele>
        <time>2023-06-26T13:09:12.226Z</time>
      </trkpt>
      <trkpt lat="51.24881" lon="6.61919">
        <ele>88.621271</ele>
        <time>2023-06-26T13:09:15.235Z</time>
      </trkpt>
      <trkpt lat="51.24872" lon="6.61922">
        <ele>88.642277</ele>
        <time>2023-06-26T13:09:17.239Z</time>
      </trkpt>
      <trkpt lat="51.24859" lon="6.61929">
        <ele>88.697338</ele>
        <time>2023-06-26T13:09:20.220Z</time>
      </trkpt>
      <trkpt lat="51.2485" lon="6.61932">
        <ele>88.735148</ele>
        <time>2023-06-26T13:09:22.226Z</time>
      </trkpt>
      <trkpt lat="51.24841" lon="6.61937">
        <ele>88.774574</ele>
        <time>2023-06-26T13:09:24.214Z</time>
      </trkpt>
      <trkpt lat="51.24832" lon="6.61941">
        <ele>88.813168</ele>
        <time>2023-06-26T13:09:26.226Z</time>
      </trkpt>
      <trkpt lat="51.24823" lon="6.61945">
        <ele>88.851369</ele>
        <time>2023-06-26T13:09:28.221Z</time>
      </trkpt>
      <trkpt lat="51.24814" lon="6.61948">
        <ele>88.888663</ele>
        <time>2023-06-26T13:09:30.233Z</time>
      </trkpt>
      <trkpt lat="51.24805" lon="6.61952">
        <ele>88.925743</ele>
        <time>2023-06-26T13:09:32.228Z</time>
      </trkpt>
      <trkpt lat="51.24796" lon="6.61956">
        <ele>88.962492</ele>
        <time>2023-06-26T13:09:34.227Z</time>
      </trkpt>
      <trkpt lat="51.24788" lon="6.6196">
        <ele>89.000095</ele>
        <time>2023-06-26T13:09:36.220Z</time>
      </trkpt>
      <trkpt lat="51.24779" lon="6.61963">
        <ele>89.037389</ele>
        <time>2023-06-26T13:09:38.222Z</time>
      </trkpt>
      <trkpt lat="51.24769" lon="6.61966">
        <ele>89.07673</ele>
        <time>2023-06-26T13:09:40.220Z</time>
      </trkpt>
      <trkpt lat="51.24761" lon="6.6197">
        <ele>89.113479</ele>
        <time>2023-06-26T13:09:42.218Z</time>
      </trkpt>
      <trkpt lat="51.24748" lon="6.61976">
        <ele>89.169006</ele>
        <time>2023-06-26T13:09:45.236Z</time>
      </trkpt>
      <trkpt lat="51.24739" lon="6.6198">
        <ele>89.206358</ele>
        <time>2023-06-26T13:09:47.224Z</time>
      </trkpt>
      <trkpt lat="51.24726" lon="6.61985">
        <ele>89.260821</ele>
        <time>2023-06-26T13:09:50.233Z</time>
      </trkpt>
      <trkpt lat="51.24713" lon="6.61989">
        <ele>89.313467</ele>
        <time>2023-06-26T13:09:53.231Z</time>
      </trkpt>
      <trkpt lat="51.24701" lon="6.61994">
        <ele>89.362858</ele>
        <time>2023-06-26T13:09:56.228Z</time>
      </trkpt>
      <trkpt lat="51.24692" lon="6.61997">
        <ele>89.382145</ele>
        <time>2023-06-26T13:09:58.222Z</time>
      </trkpt>
      <trkpt lat="51.24683" lon="6.62001">
        <ele>89.400912</ele>
        <time>2023-06-26T13:10:00.209Z</time>
      </trkpt>
      <trkpt lat="51.24669" lon="6.62005">
        <ele>89.428558</ele>
        <time>2023-06-26T13:10:03.210Z</time>
      </trkpt>
      <trkpt lat="51.24661" lon="6.62009">
        <ele>89.447387</ele>
        <time>2023-06-26T13:10:05.220Z</time>
      </trkpt>
      <trkpt lat="51.24648" lon="6.62014">
        <ele>89.474117</ele>
        <time>2023-06-26T13:10:08.229Z</time>
      </trkpt>
      <trkpt lat="51.24635" lon="6.62019">
        <ele>89.501641</ele>
        <time>2023-06-26T13:10:11.229Z</time>
      </trkpt>
      <trkpt lat="51.24626" lon="6.62023">
        <ele>89.520563</ele>
        <time>2023-06-26T13:10:13.216Z</time>
      </trkpt>
      <trkpt lat="51.24617" lon="6.62026">
        <ele>89.539101</ele>
        <time>2023-06-26T13:10:15.232Z</time>
      </trkpt>
      <trkpt lat="51.24609" lon="6.6203">
        <ele>89.557885</ele>
        <time>2023-06-26T13:10:17.227Z</time>
      </trkpt>
      <trkpt lat="51.246" lon="6.62034">
        <ele>89.57632</ele>
        <time>2023-06-26T13:10:19.224Z</time>
      </trkpt>
      <trkpt lat="51.24591" lon="6.62039">
        <ele>89.595064</ele>
        <time>2023-06-26T13:10:21.236Z</time>
      </trkpt>
      <trkpt lat="51.24578" lon="6.62043">
        <ele>89.621985</ele>
        <time>2023-06-26T13:10:24.223Z</time>
      </trkpt>
      <trkpt lat="51.24566" lon="6.62049">
        <ele>89.649117</ele>
        <time>2023-06-26T13:10:27.218Z</time>
      </trkpt>
      <trkpt lat="51.24557" lon="6.62054">
        <ele>89.668883</ele>
        <time>2023-06-26T13:10:29.222Z</time>
      </trkpt>
      <trkpt lat="51.24548" lon="6.62058">
        <ele>89.688109</ele>
        <time>2023-06-26T13:10:31.231Z</time>
      </trkpt>
      <trkpt lat="51.24539" lon="6.62063">
        <ele>89.706908</ele>
        <time>2023-06-26T13:10:33.216Z</time>
      </trkpt>
      <trkpt lat="51.2453" lon="6.62067">
        <ele>89.725898</ele>
        <time>2023-06-26T13:10:35.222Z</time>
      </trkpt>
      <trkpt lat="51.24521" lon="6.62071">
        <ele>89.725084</ele>
        <time>2023-06-26T13:10:37.241Z</time>
      </trkpt>
      <trkpt lat="51.24512" lon="6.62075">
        <ele>89.719535</ele>
        <time>2023-06-26T13:10:39.222Z</time>
      </trkpt>
      <trkpt lat="51.24503" lon="6.6208">
        <ele>89.713804</ele>
        <time>2023-06-26T13:10:41.228Z</time>
      </trkpt>
      <trkpt lat="51.24494" lon="6.62084">
        <ele>89.708262</ele>
        <time>2023-06-26T13:10:43.213Z</time>
      </trkpt>
      <trkpt lat="51.24485" lon="6.62089">
        <ele>89.702496</ele>
        <time>2023-06-26T13:10:45.225Z</time>
      </trkpt>
      <trkpt lat="51.24476" lon="6.62093">
        <ele>89.696558</ele>
        <time>2023-06-26T13:10:47.235Z</time>
      </trkpt>
      <trkpt lat="51.24467" lon="6.62098">
        <ele>89.690985</ele>
        <time>2023-06-26T13:10:49.221Z</time>
      </trkpt>
      <trkpt lat="51.24458" lon="6.62103">
        <ele>89.685269</ele>
        <time>2023-06-26T13:10:51.226Z</time>
      </trkpt>
      <trkpt lat="51.24449" lon="6.62108">
        <ele>89.679433</ele>
        <time>2023-06-26T13:10:53.226Z</time>
      </trkpt>
      <trkpt lat="51.24439" lon="6.62113">
        <ele>89.673313</ele>
        <time>2023-06-26T13:10:55.219Z</time>
      </trkpt>
      <trkpt lat="51.2443" lon="6.62118">
        <ele>89.667484</ele>
        <time>2023-06-26T13:10:57.235Z</time>
      </trkpt>
      <trkpt lat="51.24421" lon="6.62123">
        <ele>89.661762</ele>
        <time>2023-06-26T13:10:59.231Z</time>
      </trkpt>
      <trkpt lat="51.24412" lon="6.62128">
        <ele>89.655975</ele>
        <time>2023-06-26T13:11:01.228Z</time>
      </trkpt>
      <trkpt lat="51.24403" lon="6.62133">
        <ele>89.650253</ele>
        <time>2023-06-26T13:11:03.221Z</time>
      </trkpt>
      <trkpt lat="51.24395" lon="6.62138">
        <ele>89.644814</ele>
        <time>2023-06-26T13:11:05.224Z</time>
      </trkpt>
      <trkpt lat="51.24386" lon="6.62143">
        <ele>89.639162</ele>
        <time>2023-06-26T13:11:07.220Z</time>
      </trkpt>
      <trkpt lat="51.24373" lon="6.6215">
        <ele>89.631403</ele>
        <time>2023-06-26T13:11:10.219Z</time>
      </trkpt>
      <trkpt lat="51.24361" lon="6.62156">
        <ele>89.623555</ele>
        <time>2023-06-26T13:11:13.222Z</time>
      </trkpt>
      <trkpt lat="51.24348" lon="6.62161">
        <ele>89.643268</ele>
        <time>2023-06-26T13:11:16.221Z</time>
      </trkpt>
      <trkpt lat="51.24335" lon="6.62168">
        <ele>89.67354</ele>
        <time>2023-06-26T13:11:19.237Z</time>
      </trkpt>
      <trkpt lat="51.24322" lon="6.62175">
        <ele>89.703565</ele>
        <time>2023-06-26T13:11:22.220Z</time>
      </trkpt>
      <trkpt lat="51.24313" lon="6.62181">
        <ele>89.725312</ele>
        <time>2023-06-26T13:11:24.219Z</time>
      </trkpt>
      <trkpt lat="51.24304" lon="6.62186">
        <ele>89.746343</ele>
        <time>2023-06-26T13:11:26.224Z</time>
      </trkpt>
      <trkpt lat="51.24295" lon="6.62192">
        <ele>89.766659</ele>
        <time>2023-06-26T13:11:28.211Z</time>
      </trkpt>
      <trkpt lat="51.24283" lon="6.62198">
        <ele>89.795756</ele>
        <time>2023-06-26T13:11:31.220Z</time>
      </trkpt>
      <trkpt lat="51.24271" lon="6.62204">
        <ele>89.82402</ele>
        <time>2023-06-26T13:11:34.225Z</time>
      </trkpt>
      <trkpt lat="51.24258" lon="6.62209">
        <ele>89.852814</ele>
        <time>2023-06-26T13:11:37.210Z</time>
      </trkpt>
      <trkpt lat="51.24245" lon="6.62213">
        <ele>89.881728</ele>
        <time>2023-06-26T13:11:40.236Z</time>
      </trkpt>
      <trkpt lat="51.24236" lon="6.62216">
        <ele>89.901719</ele>
        <time>2023-06-26T13:11:42.218Z</time>
      </trkpt>
      <trkpt lat="51.24227" lon="6.62219">
        <ele>89.922844</ele>
        <time>2023-06-26T13:11:44.234Z</time>
      </trkpt>
      <trkpt lat="51.24217" lon="6.62222">
        <ele>89.94428</ele>
        <time>2023-06-26T13:11:46.230Z</time>
      </trkpt>
      <trkpt lat="51.24207" lon="6.62224">
        <ele>89.966945</ele>
        <time>2023-06-26T13:11:48.232Z</time>
      </trkpt>
      <trkpt lat="51.24197" lon="6.62225">
        <ele>89.987959</ele>
        <time>2023-06-26T13:11:50.224Z</time>
      </trkpt>
      <trkpt lat="51.24188" lon="6.62226">
        <ele>90.008521</ele>
        <time>2023-06-26T13:11:52.221Z</time>
      </trkpt>
      <trkpt lat="51.24178" lon="6.62227">
        <ele>89.984184</ele>
        <time>2023-06-26T13:11:54.224Z</time>
      </trkpt>
      <trkpt lat="51.24169" lon="6.62228">
        <ele>89.929014</ele>
        <time>2023-06-26T13:11:56.232Z</time>
      </trkpt>
      <trkpt lat="51.2416" lon="6.62228">
        <ele>89.872791</ele>
        <time>2023-06-26T13:11:58.223Z</time>
      </trkpt>
      <trkpt lat="51.24147" lon="6.6223">
        <ele>89.796014</ele>
        <time>2023-06-26T13:12:01.224Z</time>
      </trkpt>
      <trkpt lat="51.24136" lon="6.62229">
        <ele>89.730166</ele>
        <time>2023-06-26T13:12:04.216Z</time>
      </trkpt>
      <trkpt lat="51.24126" lon="6.62227">
        <ele>89.672865</ele>
        <time>2023-06-26T13:12:07.214Z</time>
      </trkpt>
      <trkpt lat="51.24117" lon="6.62228">
        <ele>89.61531</ele>
        <time>2023-06-26T13:12:11.231Z</time>
      </trkpt>
      <trkpt lat="51.24106" lon="6.62226">
        <ele>89.548067</ele>
        <time>2023-06-26T13:12:14.216Z</time>
      </trkpt>
      <trkpt lat="51.24093" lon="6.62224">
        <ele>89.472185</ele>
        <time>2023-06-26T13:12:17.223Z</time>
      </trkpt>
      <trkpt lat="51.2408" lon="6.62219">
        <ele>89.393967</ele>
        <time>2023-06-26T13:12:20.226Z</time>
      </trkpt>
      <trkpt lat="51.24069" lon="6.62214">
        <ele>89.322118</ele>
        <time>2023-06-26T13:12:23.233Z</time>
      </trkpt>
      <trkpt lat="51.24057" lon="6.62208">
        <ele>89.247036</ele>
        <time>2023-06-26T13:12:26.241Z</time>
      </trkpt>
      <trkpt lat="51.24045" lon="6.62201">
        <ele>89.170381</ele>
        <time>2023-06-26T13:12:29.223Z</time>
      </trkpt>
      <trkpt lat="51.24032" lon="6.62194">
        <ele>89.091201</ele>
        <time>2023-06-26T13:12:32.229Z</time>
      </trkpt>
      <trkpt lat="51.2402" lon="6.62187">
        <ele>89.014562</ele>
        <time>2023-06-26T13:12:35.223Z</time>
      </trkpt>
      <trkpt lat="51.24012" lon="6.62181">
        <ele>88.959579</ele>
        <time>2023-06-26T13:12:37.235Z</time>
      </trkpt>
      <trkpt lat="51.24003" lon="6.62175">
        <ele>88.971946</ele>
        <time>2023-06-26T13:12:39.223Z</time>
      </trkpt>
      <trkpt lat="51.23995" lon="6.62168">
        <ele>89.01464</ele>
        <time>2023-06-26T13:12:41.235Z</time>
      </trkpt>
      <trkpt lat="51.23987" lon="6.62161">
        <ele>89.057771</ele>
        <time>2023-06-26T13:12:43.225Z</time>
      </trkpt>
      <trkpt lat="51.23975" lon="6.62152">
        <ele>89.121528</ele>
        <time>2023-06-26T13:12:46.239Z</time>
      </trkpt>
      <trkpt lat="51.23967" lon="6.62145">
        <ele>89.165767</ele>
        <time>2023-06-26T13:12:48.228Z</time>
      </trkpt>
      <trkpt lat="51.23959" lon="6.62137">
        <ele>89.209338</ele>
        <time>2023-06-26T13:12:50.215Z</time>
      </trkpt>
      <trkpt lat="51.23951" lon="6.6213">
        <ele>89.253584</ele>
        <time>2023-06-26T13:12:52.219Z</time>
      </trkpt>
      <trkpt lat="51.23943" lon="6.62123">
        <ele>89.297522</ele>
        <time>2023-06-26T13:12:54.205Z</time>
      </trkpt>
      <trkpt lat="51.23931" lon="6.62112">
        <ele>89.361089</ele>
        <time>2023-06-26T13:12:57.233Z</time>
      </trkpt>
      <trkpt lat="51.23919" lon="6.62102">
        <ele>89.42478</ele>
        <time>2023-06-26T13:13:00.214Z</time>
      </trkpt>
      <trkpt lat="51.23911" lon="6.62094">
        <ele>89.47136</ele>
        <time>2023-06-26T13:13:02.228Z</time>
      </trkpt>
      <trkpt lat="51.23902" lon="6.62087">
        <ele>89.516572</ele>
        <time>2023-06-26T13:13:04.210Z</time>
      </trkpt>
      <trkpt lat="51.23894" lon="6.6208">
        <ele>89.562609</ele>
        <time>2023-06-26T13:13:06.226Z</time>
      </trkpt>
      <trkpt lat="51.23886" lon="6.62071">
        <ele>89.605951</ele>
        <time>2023-06-26T13:13:08.218Z</time>
      </trkpt>
      <trkpt lat="51.23878" lon="6.62064">
        <ele>89.649082</ele>
        <time>2023-06-26T13:13:10.232Z</time>
      </trkpt>
      <trkpt lat="51.2387" lon="6.62057">
        <ele>89.69219</ele>
        <time>2023-06-26T13:13:12.225Z</time>
      </trkpt>
      <trkpt lat="51.23862" lon="6.62049">
        <ele>89.736794</ele>
        <time>2023-06-26T13:13:14.223Z</time>
      </trkpt>
      <trkpt lat="51.23854" lon="6.62043">
        <ele>89.779621</ele>
        <time>2023-06-26T13:13:16.217Z</time>
      </trkpt>
      <trkpt lat="51.23846" lon="6.62036">
        <ele>89.797847</ele>
        <time>2023-06-26T13:13:18.221Z</time>
      </trkpt>
      <trkpt lat="51.23838" lon="6.62029">
        <ele>89.805612</ele>
        <time>2023-06-26T13:13:20.204Z</time>
      </trkpt>
      <trkpt lat="51.2383" lon="6.62022">
        <ele>89.813359</ele>
        <time>2023-06-26T13:13:22.213Z</time>
      </trkpt>
      <trkpt lat="51.23822" lon="6.62014">
        <ele>89.821152</ele>
        <time>2023-06-26T13:13:24.210Z</time>
      </trkpt>
      <trkpt lat="51.23814" lon="6.62008">
        <ele>89.828919</ele>
        <time>2023-06-26T13:13:26.218Z</time>
      </trkpt>
      <trkpt lat="51.23806" lon="6.62">
        <ele>89.836532</ele>
        <time>2023-06-26T13:13:28.211Z</time>
      </trkpt>
      <trkpt lat="51.23795" lon="6.6199">
        <ele>89.847557</ele>
        <time>2023-06-26T13:13:31.210Z</time>
      </trkpt>
      <trkpt lat="51.23787" lon="6.61982">
        <ele>89.855186</ele>
        <time>2023-06-26T13:13:33.220Z</time>
      </trkpt>
      <trkpt lat="51.23776" lon="6.61971">
        <ele>89.866235</ele>
        <time>2023-06-26T13:13:36.224Z</time>
      </trkpt>
      <trkpt lat="51.23765" lon="6.61961">
        <ele>89.877087</ele>
        <time>2023-06-26T13:13:39.235Z</time>
      </trkpt>
      <trkpt lat="51.23754" lon="6.61951">
        <ele>89.887719</ele>
        <time>2023-06-26T13:13:42.211Z</time>
      </trkpt>
      <trkpt lat="51.23743" lon="6.61942">
        <ele>89.898272</ele>
        <time>2023-06-26T13:13:45.226Z</time>
      </trkpt>
      <trkpt lat="51.23732" lon="6.6193">
        <ele>89.909354</ele>
        <time>2023-06-26T13:13:48.207Z</time>
      </trkpt>
      <trkpt lat="51.23726" lon="6.61919">
        <ele>89.917309</ele>
        <time>2023-06-26T13:13:50.188Z</time>
      </trkpt>
      <trkpt lat="51.23719" lon="6.61909">
        <ele>89.925102</ele>
        <time>2023-06-26T13:13:52.237Z</time>
      </trkpt>
      <trkpt lat="51.23706" lon="6.61904">
        <ele>89.936343</ele>
        <time>2023-06-26T13:13:55.217Z</time>
      </trkpt>
      <trkpt lat="51.23695" lon="6.61895">
        <ele>89.939108</ele>
        <time>2023-06-26T13:13:58.216Z</time>
      </trkpt>
      <trkpt lat="51.23685" lon="6.61887">
        <ele>89.91405</ele>
        <time>2023-06-26T13:14:01.210Z</time>
      </trkpt>
      <trkpt lat="51.23675" lon="6.61879">
        <ele>89.889991</ele>
        <time>2023-06-26T13:14:04.212Z</time>
      </trkpt>
      <trkpt lat="51.23665" lon="6.6187">
        <ele>89.864456</ele>
        <time>2023-06-26T13:14:07.212Z</time>
      </trkpt>
      <trkpt lat="51.23655" lon="6.61862">
        <ele>89.840527</ele>
        <time>2023-06-26T13:14:10.236Z</time>
      </trkpt>
      <trkpt lat="51.23647" lon="6.61852">
        <ele>89.819001</ele>
        <time>2023-06-26T13:14:13.208Z</time>
      </trkpt>
      <trkpt lat="51.2364" lon="6.61845">
        <ele>89.799214</ele>
        <time>2023-06-26T13:14:16.217Z</time>
      </trkpt>
      <trkpt lat="51.23633" lon="6.61834">
        <ele>89.777747</ele>
        <time>2023-06-26T13:14:19.206Z</time>
      </trkpt>
      <trkpt lat="51.23626" lon="6.61824">
        <ele>89.757954</ele>
        <time>2023-06-26T13:14:22.308Z</time>
      </trkpt>
      <trkpt lat="51.23619" lon="6.61815">
        <ele>89.737867</ele>
        <time>2023-06-26T13:14:25.234Z</time>
      </trkpt>
      <trkpt lat="51.23608" lon="6.61807">
        <ele>89.713087</ele>
        <time>2023-06-26T13:14:29.211Z</time>
      </trkpt>
      <trkpt lat="51.236" lon="6.61799">
        <ele>89.692233</ele>
        <time>2023-06-26T13:14:32.210Z</time>
      </trkpt>
      <trkpt lat="51.23598" lon="6.61785">
        <ele>89.672639</ele>
        <time>2023-06-26T13:14:35.221Z</time>
      </trkpt>
      <trkpt lat="51.23592" lon="6.61771">
        <ele>89.649785</ele>
        <time>2023-06-26T13:14:39.218Z</time>
      </trkpt>
      <trkpt lat="51.23585" lon="6.61757">
        <ele>89.625021</ele>
        <time>2023-06-26T13:14:43.217Z</time>
      </trkpt>
      <trkpt lat="51.23584" lon="6.6174">
        <ele>89.600381</ele>
        <time>2023-06-26T13:14:47.222Z</time>
      </trkpt>
      <trkpt lat="51.23579" lon="6.61725">
        <ele>89.577484</ele>
        <time>2023-06-26T13:14:50.214Z</time>
      </trkpt>
      <trkpt lat="51.23572" lon="6.61713">
        <ele>89.555594</ele>
        <time>2023-06-26T13:14:53.209Z</time>
      </trkpt>
      <trkpt lat="51.23564" lon="6.61699">
        <ele>89.558166</ele>
        <time>2023-06-26T13:14:56.216Z</time>
      </trkpt>
      <trkpt lat="51.23555" lon="6.61684">
        <ele>89.567413</ele>
        <time>2023-06-26T13:14:59.222Z</time>
      </trkpt>
      <trkpt lat="51.23547" lon="6.61671">
        <ele>89.576017</ele>
        <time>2023-06-26T13:15:02.216Z</time>
      </trkpt>
      <trkpt lat="51.23537" lon="6.61659">
        <ele>89.58477</ele>
        <time>2023-06-26T13:15:05.222Z</time>
      </trkpt>
      <trkpt lat="51.23528" lon="6.61648">
        <ele>89.593083</ele>
        <time>2023-06-26T13:15:08.213Z</time>
      </trkpt>
      <trkpt lat="51.23518" lon="6.61639">
        <ele>89.601103</ele>
        <time>2023-06-26T13:15:11.210Z</time>
      </trkpt>
      <trkpt lat="51.23506" lon="6.61631">
        <ele>89.610031</ele>
        <time>2023-06-26T13:15:14.218Z</time>
      </trkpt>
      <trkpt lat="51.23496" lon="6.61625">
        <ele>89.617767</ele>
        <time>2023-06-26T13:15:17.233Z</time>
      </trkpt>
      <trkpt lat="51.23487" lon="6.6162">
        <ele>89.625025</ele>
        <time>2023-06-26T13:15:20.232Z</time>
      </trkpt>
      <trkpt lat="51.23476" lon="6.61617">
        <ele>89.632791</ele>
        <time>2023-06-26T13:15:23.228Z</time>
      </trkpt>
      <trkpt lat="51.23465" lon="6.61613">
        <ele>89.640635</ele>
        <time>2023-06-26T13:15:26.218Z</time>
      </trkpt>
      <trkpt lat="51.23454" lon="6.6161">
        <ele>89.648777</ele>
        <time>2023-06-26T13:15:29.226Z</time>
      </trkpt>
      <trkpt lat="51.23443" lon="6.61607">
        <ele>89.65659</ele>
        <time>2023-06-26T13:15:32.223Z</time>
      </trkpt>
      <trkpt lat="51.23432" lon="6.61605">
        <ele>89.664493</ele>
        <time>2023-06-26T13:15:35.226Z</time>
      </trkpt>
      <trkpt lat="51.23421" lon="6.61603">
        <ele>89.672164</ele>
        <time>2023-06-26T13:15:38.220Z</time>
      </trkpt>
      <trkpt lat="51.23411" lon="6.61599">
        <ele>89.676929</ele>
        <time>2023-06-26T13:15:41.240Z</time>
      </trkpt>
      <trkpt lat="51.23398" lon="6.61595">
        <ele>89.621815</ele>
        <time>2023-06-26T13:15:44.226Z</time>
      </trkpt>
      <trkpt lat="51.23389" lon="6.61591">
        <ele>89.58118</ele>
        <time>2023-06-26T13:15:46.228Z</time>
      </trkpt>
      <trkpt lat="51.2338" lon="6.61589">
        <ele>89.53985</ele>
        <time>2023-06-26T13:15:48.235Z</time>
      </trkpt>
      <trkpt lat="51.23367" lon="6.61583">
        <ele>89.480977</ele>
        <time>2023-06-26T13:15:51.220Z</time>
      </trkpt>
      <trkpt lat="51.23358" lon="6.61581">
        <ele>89.439396</ele>
        <time>2023-06-26T13:15:53.225Z</time>
      </trkpt>
      <trkpt lat="51.23349" lon="6.61578">
        <ele>89.399933</ele>
        <time>2023-06-26T13:15:55.216Z</time>
      </trkpt>
      <trkpt lat="51.23336" lon="6.61571">
        <ele>89.340705</ele>
        <time>2023-06-26T13:15:58.239Z</time>
      </trkpt>
      <trkpt lat="51.23327" lon="6.61566">
        <ele>89.299678</ele>
        <time>2023-06-26T13:16:00.226Z</time>
      </trkpt>
      <trkpt lat="51.23318" lon="6.61562">
        <ele>89.260025</ele>
        <time>2023-06-26T13:16:02.221Z</time>
      </trkpt>
      <trkpt lat="51.2331" lon="6.61558">
        <ele>89.220622</ele>
        <time>2023-06-26T13:16:04.225Z</time>
      </trkpt>
      <trkpt lat="51.23297" lon="6.6155">
        <ele>89.160596</ele>
        <time>2023-06-26T13:16:07.215Z</time>
      </trkpt>
      <trkpt lat="51.23288" lon="6.61546">
        <ele>89.119846</ele>
        <time>2023-06-26T13:16:09.252Z</time>
      </trkpt>
      <trkpt lat="51.2328" lon="6.61538">
        <ele>89.077876</ele>
        <time>2023-06-26T13:16:11.230Z</time>
      </trkpt>
      <trkpt lat="51.2327" lon="6.61531">
        <ele>89.033999</ele>
        <time>2023-06-26T13:16:13.200Z</time>
      </trkpt>
      <trkpt lat="51.23261" lon="6.61526">
        <ele>88.991665</ele>
        <time>2023-06-26T13:16:15.221Z</time>
      </trkpt>
      <trkpt lat="51.2325" lon="6.61519">
        <ele>88.936906</ele>
        <time>2023-06-26T13:16:18.226Z</time>
      </trkpt>
      <trkpt lat="51.23238" lon="6.61512">
        <ele>88.893148</ele>
        <time>2023-06-26T13:16:21.223Z</time>
      </trkpt>
      <trkpt lat="51.23227" lon="6.61507">
        <ele>88.893148</ele>
        <time>2023-06-26T13:16:24.216Z</time>
      </trkpt>
      <trkpt lat="51.23217" lon="6.61503">
        <ele>88.893148</ele>
        <time>2023-06-26T13:16:27.211Z</time>
      </trkpt>
      <trkpt lat="51.23207" lon="6.61498">
        <ele>88.893148</ele>
        <time>2023-06-26T13:16:30.217Z</time>
      </trkpt>
      <trkpt lat="51.232" lon="6.61488">
        <ele>88.893148</ele>
        <time>2023-06-26T13:16:33.219Z</time>
      </trkpt>
      <trkpt lat="51.2319" lon="6.61481">
        <ele>88.893148</ele>
        <time>2023-06-26T13:16:37.237Z</time>
      </trkpt>
      <trkpt lat="51.2318" lon="6.61481">
        <ele>88.893148</ele>
        <time>2023-06-26T13:16:43.224Z</time>
      </trkpt>
      <trkpt lat="51.2317" lon="6.61477">
        <ele>88.893148</ele>
        <time>2023-06-26T13:17:07.235Z</time>
      </trkpt>
      <trkpt lat="51.23163" lon="6.61489">
        <ele>88.893148</ele>
        <time>2023-06-26T13:17:12.226Z</time>
      </trkpt>
      <trkpt lat="51.23162" lon="6.61505">
        <ele>88.893148</ele>
        <time>2023-06-26T13:17:15.231Z</time>
      </trkpt>
      <trkpt lat="51.2316" lon="6.61522">
        <ele>88.893148</ele>
        <time>2023-06-26T13:17:18.215Z</time>
      </trkpt>
      <trkpt lat="51.23159" lon="6.61538">
        <ele>88.893148</ele>
        <time>2023-06-26T13:17:21.227Z</time>
      </trkpt>
      <trkpt lat="51.23158" lon="6.61555">
        <ele>88.893148</ele>
        <time>2023-06-26T13:17:24.222Z</time>
      </trkpt>
      <trkpt lat="51.23147" lon="6.61563">
        <ele>88.893148</ele>
        <time>2023-06-26T13:17:27.212Z</time>
      </trkpt>
      <trkpt lat="51.23135" lon="6.61563">
        <ele>88.893148</ele>
        <time>2023-06-26T13:17:30.211Z</time>
      </trkpt>
      <trkpt lat="51.23126" lon="6.61564">
        <ele>88.893148</ele>
        <time>2023-06-26T13:17:33.215Z</time>
      </trkpt>
      <trkpt lat="51.2312" lon="6.61576">
        <ele>88.893148</ele>
        <time>2023-06-26T13:17:36.202Z</time>
      </trkpt>
      <trkpt lat="51.23123" lon="6.61591">
        <ele>88.893148</ele>
        <time>2023-06-26T13:17:39.225Z</time>
      </trkpt>
      <trkpt lat="51.23125" lon="6.61607">
        <ele>88.893148</ele>
        <time>2023-06-26T13:17:43.203Z</time>
      </trkpt>
    </trkseg>
  </trk>
</gpx>